<?xml version="1.0" encoding="UTF-8" standalone="no" ?>
<gpx xmlns="http://www.topografix.com/GPX/1/1" xmlns:xsi="http://www.w3.org/2001/XMLSchema-instance" xsi:schemaLocation="http://www.topografix.com/GPX/1/1 http://www.topografix.com/GPX/1/1/gpx.xsd" version="1.1" creator="VisuGPX - https://www.visugpx.com">
  <metadata>
    <name>Puits </name>
  </metadata>
  <trk>
    <name><![CDATA[Puits _1]]></name>
    <trkseg>
      <trkpt lat="49.96358" lon="2.43986">
        <ele>44.7</ele>
        <time>2023-05-17T12:00:35Z</time>
      </trkpt>
      <trkpt lat="49.96373" lon="2.43994">
        <ele>43.8</ele>
        <time>2023-05-17T12:00:36Z</time>
      </trkpt>
      <trkpt lat="49.96389" lon="2.43996">
        <ele>43.1</ele>
        <time>2023-05-17T12:00:37Z</time>
      </trkpt>
      <trkpt lat="49.96391" lon="2.43996">
        <ele>43.3</ele>
        <time>2023-05-17T12:00:39Z</time>
      </trkpt>
      <trkpt lat="49.96392" lon="2.43998">
        <ele>43.4</ele>
        <time>2023-05-17T12:00:40Z</time>
      </trkpt>
      <trkpt lat="49.96392" lon="2.43998">
        <ele>43.4</ele>
        <time>2023-05-17T12:00:41Z</time>
      </trkpt>
      <trkpt lat="49.96393" lon="2.43999">
        <ele>43.4</ele>
        <time>2023-05-17T12:00:42Z</time>
      </trkpt>
      <trkpt lat="49.96394" lon="2.44001">
        <ele>43.5</ele>
        <time>2023-05-17T12:00:43Z</time>
      </trkpt>
      <trkpt lat="49.96395" lon="2.44004">
        <ele>43.6</ele>
        <time>2023-05-17T12:00:45Z</time>
      </trkpt>
      <trkpt lat="49.96397" lon="2.44005">
        <ele>43.7</ele>
        <time>2023-05-17T12:00:46Z</time>
      </trkpt>
      <trkpt lat="49.96398" lon="2.44006">
        <ele>43.8</ele>
        <time>2023-05-17T12:00:47Z</time>
      </trkpt>
      <trkpt lat="49.96399" lon="2.44006">
        <ele>43.8</ele>
        <time>2023-05-17T12:00:48Z</time>
      </trkpt>
      <trkpt lat="49.964" lon="2.44007">
        <ele>43.9</ele>
        <time>2023-05-17T12:00:49Z</time>
      </trkpt>
      <trkpt lat="49.96401" lon="2.44007">
        <ele>43.9</ele>
        <time>2023-05-17T12:00:50Z</time>
      </trkpt>
      <trkpt lat="49.96402" lon="2.44008">
        <ele>44</ele>
        <time>2023-05-17T12:00:51Z</time>
      </trkpt>
      <trkpt lat="49.96403" lon="2.44009">
        <ele>44.1</ele>
        <time>2023-05-17T12:00:53Z</time>
      </trkpt>
      <trkpt lat="49.96404" lon="2.4401">
        <ele>44.1</ele>
        <time>2023-05-17T12:00:54Z</time>
      </trkpt>
      <trkpt lat="49.96405" lon="2.44011">
        <ele>44.2</ele>
        <time>2023-05-17T12:00:55Z</time>
      </trkpt>
      <trkpt lat="49.96406" lon="2.44011">
        <ele>44.2</ele>
        <time>2023-05-17T12:00:56Z</time>
      </trkpt>
      <trkpt lat="49.96406" lon="2.44011">
        <ele>44.3</ele>
        <time>2023-05-17T12:00:57Z</time>
      </trkpt>
      <trkpt lat="49.96407" lon="2.44011">
        <ele>44.4</ele>
        <time>2023-05-17T12:00:59Z</time>
      </trkpt>
      <trkpt lat="49.96408" lon="2.44011">
        <ele>44.4</ele>
        <time>2023-05-17T12:01:00Z</time>
      </trkpt>
      <trkpt lat="49.96409" lon="2.44011">
        <ele>44.5</ele>
        <time>2023-05-17T12:01:01Z</time>
      </trkpt>
      <trkpt lat="49.9641" lon="2.44011">
        <ele>44.6</ele>
        <time>2023-05-17T12:01:02Z</time>
      </trkpt>
      <trkpt lat="49.96411" lon="2.44011">
        <ele>44.6</ele>
        <time>2023-05-17T12:01:03Z</time>
      </trkpt>
      <trkpt lat="49.96411" lon="2.44011">
        <ele>44.6</ele>
        <time>2023-05-17T12:01:05Z</time>
      </trkpt>
      <trkpt lat="49.96412" lon="2.44011">
        <ele>44.7</ele>
        <time>2023-05-17T12:01:06Z</time>
      </trkpt>
      <trkpt lat="49.96413" lon="2.44011">
        <ele>44.8</ele>
        <time>2023-05-17T12:01:07Z</time>
      </trkpt>
      <trkpt lat="49.96414" lon="2.44011">
        <ele>44.9</ele>
        <time>2023-05-17T12:01:08Z</time>
      </trkpt>
      <trkpt lat="49.96415" lon="2.4401">
        <ele>45</ele>
        <time>2023-05-17T12:01:09Z</time>
      </trkpt>
      <trkpt lat="49.96416" lon="2.4401">
        <ele>45</ele>
        <time>2023-05-17T12:01:10Z</time>
      </trkpt>
      <trkpt lat="49.96417" lon="2.4401">
        <ele>45.2</ele>
        <time>2023-05-17T12:01:12Z</time>
      </trkpt>
      <trkpt lat="49.96418" lon="2.44009">
        <ele>45.3</ele>
        <time>2023-05-17T12:01:13Z</time>
      </trkpt>
      <trkpt lat="49.96418" lon="2.44009">
        <ele>45.3</ele>
        <time>2023-05-17T12:01:14Z</time>
      </trkpt>
      <trkpt lat="49.96419" lon="2.44009">
        <ele>45.4</ele>
        <time>2023-05-17T12:01:15Z</time>
      </trkpt>
      <trkpt lat="49.9642" lon="2.44008">
        <ele>45.5</ele>
        <time>2023-05-17T12:01:16Z</time>
      </trkpt>
      <trkpt lat="49.96421" lon="2.44007">
        <ele>45.6</ele>
        <time>2023-05-17T12:01:18Z</time>
      </trkpt>
      <trkpt lat="49.96422" lon="2.44007">
        <ele>45.7</ele>
        <time>2023-05-17T12:01:19Z</time>
      </trkpt>
      <trkpt lat="49.96423" lon="2.44007">
        <ele>45.7</ele>
        <time>2023-05-17T12:01:20Z</time>
      </trkpt>
      <trkpt lat="49.96423" lon="2.44007">
        <ele>45.8</ele>
        <time>2023-05-17T12:01:22Z</time>
      </trkpt>
      <trkpt lat="49.96423" lon="2.44007">
        <ele>45.8</ele>
        <time>2023-05-17T12:01:23Z</time>
      </trkpt>
      <trkpt lat="49.96422" lon="2.44007">
        <ele>45.9</ele>
        <time>2023-05-17T12:01:24Z</time>
      </trkpt>
      <trkpt lat="49.96422" lon="2.44007">
        <ele>45.9</ele>
        <time>2023-05-17T12:01:25Z</time>
      </trkpt>
      <trkpt lat="49.96423" lon="2.44006">
        <ele>45.9</ele>
        <time>2023-05-17T12:01:26Z</time>
      </trkpt>
      <trkpt lat="49.96422" lon="2.44007">
        <ele>46</ele>
        <time>2023-05-17T12:01:27Z</time>
      </trkpt>
      <trkpt lat="49.96423" lon="2.44006">
        <ele>46</ele>
        <time>2023-05-17T12:01:29Z</time>
      </trkpt>
      <trkpt lat="49.96424" lon="2.44006">
        <ele>46.1</ele>
        <time>2023-05-17T12:01:31Z</time>
      </trkpt>
      <trkpt lat="49.96425" lon="2.44006">
        <ele>46.2</ele>
        <time>2023-05-17T12:01:32Z</time>
      </trkpt>
      <trkpt lat="49.96426" lon="2.44005">
        <ele>46.3</ele>
        <time>2023-05-17T12:01:33Z</time>
      </trkpt>
      <trkpt lat="49.96427" lon="2.44005">
        <ele>46.5</ele>
        <time>2023-05-17T12:01:34Z</time>
      </trkpt>
      <trkpt lat="49.96428" lon="2.44005">
        <ele>46.6</ele>
        <time>2023-05-17T12:01:36Z</time>
      </trkpt>
      <trkpt lat="49.96429" lon="2.44004">
        <ele>46.7</ele>
        <time>2023-05-17T12:01:37Z</time>
      </trkpt>
      <trkpt lat="49.96431" lon="2.44004">
        <ele>46.9</ele>
        <time>2023-05-17T12:01:38Z</time>
      </trkpt>
      <trkpt lat="49.96432" lon="2.44003">
        <ele>47</ele>
        <time>2023-05-17T12:01:39Z</time>
      </trkpt>
      <trkpt lat="49.96434" lon="2.44003">
        <ele>47.2</ele>
        <time>2023-05-17T12:01:40Z</time>
      </trkpt>
      <trkpt lat="49.96435" lon="2.44003">
        <ele>47.3</ele>
        <time>2023-05-17T12:01:41Z</time>
      </trkpt>
      <trkpt lat="49.96437" lon="2.44002">
        <ele>47.5</ele>
        <time>2023-05-17T12:01:43Z</time>
      </trkpt>
      <trkpt lat="49.96437" lon="2.44002">
        <ele>47.6</ele>
        <time>2023-05-17T12:01:44Z</time>
      </trkpt>
      <trkpt lat="49.96438" lon="2.44002">
        <ele>47.7</ele>
        <time>2023-05-17T12:01:46Z</time>
      </trkpt>
      <trkpt lat="49.96439" lon="2.44002">
        <ele>47.7</ele>
        <time>2023-05-17T12:01:47Z</time>
      </trkpt>
      <trkpt lat="49.9644" lon="2.44001">
        <ele>47.8</ele>
        <time>2023-05-17T12:01:48Z</time>
      </trkpt>
      <trkpt lat="49.9644" lon="2.44001">
        <ele>47.9</ele>
        <time>2023-05-17T12:01:49Z</time>
      </trkpt>
      <trkpt lat="49.96441" lon="2.44">
        <ele>48</ele>
        <time>2023-05-17T12:01:50Z</time>
      </trkpt>
      <trkpt lat="49.96443" lon="2.43999">
        <ele>48.2</ele>
        <time>2023-05-17T12:01:51Z</time>
      </trkpt>
      <trkpt lat="49.96445" lon="2.43999">
        <ele>48.3</ele>
        <time>2023-05-17T12:01:52Z</time>
      </trkpt>
      <trkpt lat="49.96446" lon="2.43999">
        <ele>48.5</ele>
        <time>2023-05-17T12:01:54Z</time>
      </trkpt>
      <trkpt lat="49.96447" lon="2.43999">
        <ele>48.6</ele>
        <time>2023-05-17T12:01:55Z</time>
      </trkpt>
      <trkpt lat="49.96448" lon="2.43999">
        <ele>48.8</ele>
        <time>2023-05-17T12:01:56Z</time>
      </trkpt>
      <trkpt lat="49.9645" lon="2.43999">
        <ele>48.9</ele>
        <time>2023-05-17T12:01:57Z</time>
      </trkpt>
      <trkpt lat="49.96451" lon="2.43999">
        <ele>49.1</ele>
        <time>2023-05-17T12:01:58Z</time>
      </trkpt>
      <trkpt lat="49.96453" lon="2.43998">
        <ele>49.2</ele>
        <time>2023-05-17T12:01:59Z</time>
      </trkpt>
      <trkpt lat="49.96454" lon="2.43998">
        <ele>49.4</ele>
        <time>2023-05-17T12:02:00Z</time>
      </trkpt>
      <trkpt lat="49.96456" lon="2.43998">
        <ele>49.5</ele>
        <time>2023-05-17T12:02:02Z</time>
      </trkpt>
      <trkpt lat="49.96457" lon="2.43998">
        <ele>49.7</ele>
        <time>2023-05-17T12:02:03Z</time>
      </trkpt>
      <trkpt lat="49.96457" lon="2.43998">
        <ele>49.7</ele>
        <time>2023-05-17T12:02:04Z</time>
      </trkpt>
      <trkpt lat="49.96459" lon="2.43997">
        <ele>49.9</ele>
        <time>2023-05-17T12:02:05Z</time>
      </trkpt>
      <trkpt lat="49.9646" lon="2.43997">
        <ele>50</ele>
        <time>2023-05-17T12:02:06Z</time>
      </trkpt>
      <trkpt lat="49.96461" lon="2.43997">
        <ele>50.1</ele>
        <time>2023-05-17T12:02:08Z</time>
      </trkpt>
      <trkpt lat="49.96462" lon="2.43997">
        <ele>50.2</ele>
        <time>2023-05-17T12:02:09Z</time>
      </trkpt>
      <trkpt lat="49.96463" lon="2.43996">
        <ele>50.2</ele>
        <time>2023-05-17T12:02:10Z</time>
      </trkpt>
      <trkpt lat="49.96464" lon="2.43996">
        <ele>50.3</ele>
        <time>2023-05-17T12:02:11Z</time>
      </trkpt>
      <trkpt lat="49.96465" lon="2.43996">
        <ele>50.5</ele>
        <time>2023-05-17T12:02:12Z</time>
      </trkpt>
      <trkpt lat="49.96467" lon="2.43996">
        <ele>50.6</ele>
        <time>2023-05-17T12:02:13Z</time>
      </trkpt>
      <trkpt lat="49.96468" lon="2.43996">
        <ele>50.7</ele>
        <time>2023-05-17T12:02:15Z</time>
      </trkpt>
      <trkpt lat="49.9647" lon="2.43995">
        <ele>50.8</ele>
        <time>2023-05-17T12:02:16Z</time>
      </trkpt>
      <trkpt lat="49.96471" lon="2.43995">
        <ele>50.9</ele>
        <time>2023-05-17T12:02:17Z</time>
      </trkpt>
      <trkpt lat="49.96472" lon="2.43995">
        <ele>51</ele>
        <time>2023-05-17T12:02:18Z</time>
      </trkpt>
      <trkpt lat="49.96473" lon="2.43994">
        <ele>51.1</ele>
        <time>2023-05-17T12:02:19Z</time>
      </trkpt>
      <trkpt lat="49.96474" lon="2.43994">
        <ele>51.2</ele>
        <time>2023-05-17T12:02:21Z</time>
      </trkpt>
      <trkpt lat="49.96476" lon="2.43993">
        <ele>51.3</ele>
        <time>2023-05-17T12:02:22Z</time>
      </trkpt>
      <trkpt lat="49.96477" lon="2.43993">
        <ele>51.4</ele>
        <time>2023-05-17T12:02:23Z</time>
      </trkpt>
      <trkpt lat="49.96479" lon="2.43992">
        <ele>51.5</ele>
        <time>2023-05-17T12:02:24Z</time>
      </trkpt>
      <trkpt lat="49.9648" lon="2.43992">
        <ele>51.6</ele>
        <time>2023-05-17T12:02:25Z</time>
      </trkpt>
      <trkpt lat="49.96481" lon="2.43991">
        <ele>51.7</ele>
        <time>2023-05-17T12:02:26Z</time>
      </trkpt>
      <trkpt lat="49.96483" lon="2.43991">
        <ele>51.7</ele>
        <time>2023-05-17T12:02:28Z</time>
      </trkpt>
      <trkpt lat="49.96484" lon="2.4399">
        <ele>51.8</ele>
        <time>2023-05-17T12:02:29Z</time>
      </trkpt>
      <trkpt lat="49.96485" lon="2.43989">
        <ele>51.9</ele>
        <time>2023-05-17T12:02:30Z</time>
      </trkpt>
      <trkpt lat="49.96486" lon="2.43989">
        <ele>52</ele>
        <time>2023-05-17T12:02:31Z</time>
      </trkpt>
      <trkpt lat="49.96487" lon="2.43988">
        <ele>52</ele>
        <time>2023-05-17T12:02:32Z</time>
      </trkpt>
      <trkpt lat="49.96488" lon="2.43986">
        <ele>52.1</ele>
        <time>2023-05-17T12:02:34Z</time>
      </trkpt>
      <trkpt lat="49.96489" lon="2.43984">
        <ele>52.6</ele>
        <time>2023-05-17T12:02:35Z</time>
      </trkpt>
      <trkpt lat="49.96491" lon="2.43983">
        <ele>52.6</ele>
        <time>2023-05-17T12:02:36Z</time>
      </trkpt>
      <trkpt lat="49.96491" lon="2.43981">
        <ele>52.6</ele>
        <time>2023-05-17T12:02:37Z</time>
      </trkpt>
      <trkpt lat="49.96492" lon="2.43979">
        <ele>52.7</ele>
        <time>2023-05-17T12:02:38Z</time>
      </trkpt>
      <trkpt lat="49.96492" lon="2.43976">
        <ele>52.7</ele>
        <time>2023-05-17T12:02:39Z</time>
      </trkpt>
      <trkpt lat="49.96492" lon="2.43974">
        <ele>52.7</ele>
        <time>2023-05-17T12:02:41Z</time>
      </trkpt>
      <trkpt lat="49.96492" lon="2.43972">
        <ele>52.7</ele>
        <time>2023-05-17T12:02:42Z</time>
      </trkpt>
      <trkpt lat="49.96492" lon="2.43971">
        <ele>52.7</ele>
        <time>2023-05-17T12:02:43Z</time>
      </trkpt>
      <trkpt lat="49.96493" lon="2.43969">
        <ele>52.7</ele>
        <time>2023-05-17T12:02:44Z</time>
      </trkpt>
      <trkpt lat="49.96493" lon="2.43968">
        <ele>52.7</ele>
        <time>2023-05-17T12:02:45Z</time>
      </trkpt>
      <trkpt lat="49.96494" lon="2.43967">
        <ele>52.8</ele>
        <time>2023-05-17T12:02:46Z</time>
      </trkpt>
      <trkpt lat="49.96494" lon="2.43965">
        <ele>52.8</ele>
        <time>2023-05-17T12:02:48Z</time>
      </trkpt>
      <trkpt lat="49.96495" lon="2.43963">
        <ele>52.8</ele>
        <time>2023-05-17T12:02:49Z</time>
      </trkpt>
      <trkpt lat="49.96496" lon="2.43963">
        <ele>52.8</ele>
        <time>2023-05-17T12:02:50Z</time>
      </trkpt>
      <trkpt lat="49.96496" lon="2.43961">
        <ele>52.8</ele>
        <time>2023-05-17T12:02:51Z</time>
      </trkpt>
      <trkpt lat="49.96497" lon="2.4396">
        <ele>52.8</ele>
        <time>2023-05-17T12:02:52Z</time>
      </trkpt>
      <trkpt lat="49.96497" lon="2.43958">
        <ele>52.8</ele>
        <time>2023-05-17T12:02:53Z</time>
      </trkpt>
      <trkpt lat="49.96497" lon="2.43957">
        <ele>52.8</ele>
        <time>2023-05-17T12:02:55Z</time>
      </trkpt>
      <trkpt lat="49.96497" lon="2.43955">
        <ele>52.9</ele>
        <time>2023-05-17T12:02:56Z</time>
      </trkpt>
      <trkpt lat="49.96498" lon="2.43953">
        <ele>52.9</ele>
        <time>2023-05-17T12:02:57Z</time>
      </trkpt>
      <trkpt lat="49.96497" lon="2.43952">
        <ele>53</ele>
        <time>2023-05-17T12:02:58Z</time>
      </trkpt>
      <trkpt lat="49.96497" lon="2.4395">
        <ele>53</ele>
        <time>2023-05-17T12:02:59Z</time>
      </trkpt>
      <trkpt lat="49.96497" lon="2.43949">
        <ele>53</ele>
        <time>2023-05-17T12:03:00Z</time>
      </trkpt>
      <trkpt lat="49.96497" lon="2.43945">
        <ele>53.1</ele>
        <time>2023-05-17T12:03:02Z</time>
      </trkpt>
      <trkpt lat="49.96497" lon="2.43944">
        <ele>53.1</ele>
        <time>2023-05-17T12:03:03Z</time>
      </trkpt>
      <trkpt lat="49.96497" lon="2.43943">
        <ele>53.1</ele>
        <time>2023-05-17T12:03:04Z</time>
      </trkpt>
      <trkpt lat="49.96496" lon="2.43939">
        <ele>53.2</ele>
        <time>2023-05-17T12:03:05Z</time>
      </trkpt>
      <trkpt lat="49.96496" lon="2.43938">
        <ele>53.3</ele>
        <time>2023-05-17T12:03:06Z</time>
      </trkpt>
      <trkpt lat="49.96495" lon="2.43937">
        <ele>53.3</ele>
        <time>2023-05-17T12:03:07Z</time>
      </trkpt>
      <trkpt lat="49.96495" lon="2.43932">
        <ele>53.4</ele>
        <time>2023-05-17T12:03:09Z</time>
      </trkpt>
      <trkpt lat="49.96494" lon="2.43931">
        <ele>53.4</ele>
        <time>2023-05-17T12:03:10Z</time>
      </trkpt>
      <trkpt lat="49.96494" lon="2.43927">
        <ele>53.5</ele>
        <time>2023-05-17T12:03:11Z</time>
      </trkpt>
      <trkpt lat="49.96494" lon="2.43925">
        <ele>53.6</ele>
        <time>2023-05-17T12:03:12Z</time>
      </trkpt>
      <trkpt lat="49.96493" lon="2.43923">
        <ele>53.6</ele>
        <time>2023-05-17T12:03:13Z</time>
      </trkpt>
      <trkpt lat="49.96493" lon="2.4392">
        <ele>53.7</ele>
        <time>2023-05-17T12:03:14Z</time>
      </trkpt>
      <trkpt lat="49.96493" lon="2.43918">
        <ele>53.7</ele>
        <time>2023-05-17T12:03:16Z</time>
      </trkpt>
      <trkpt lat="49.96492" lon="2.43915">
        <ele>53.8</ele>
        <time>2023-05-17T12:03:17Z</time>
      </trkpt>
      <trkpt lat="49.96492" lon="2.43913">
        <ele>53.9</ele>
        <time>2023-05-17T12:03:18Z</time>
      </trkpt>
      <trkpt lat="49.96492" lon="2.43911">
        <ele>53.9</ele>
        <time>2023-05-17T12:03:19Z</time>
      </trkpt>
      <trkpt lat="49.96491" lon="2.43908">
        <ele>54</ele>
        <time>2023-05-17T12:03:20Z</time>
      </trkpt>
      <trkpt lat="49.96491" lon="2.43906">
        <ele>54.1</ele>
        <time>2023-05-17T12:03:21Z</time>
      </trkpt>
      <trkpt lat="49.9649" lon="2.43904">
        <ele>54.1</ele>
        <time>2023-05-17T12:03:22Z</time>
      </trkpt>
      <trkpt lat="49.96489" lon="2.43901">
        <ele>54.2</ele>
        <time>2023-05-17T12:03:24Z</time>
      </trkpt>
      <trkpt lat="49.96489" lon="2.43899">
        <ele>54.2</ele>
        <time>2023-05-17T12:03:25Z</time>
      </trkpt>
      <trkpt lat="49.96489" lon="2.43897">
        <ele>54.3</ele>
        <time>2023-05-17T12:03:26Z</time>
      </trkpt>
      <trkpt lat="49.96489" lon="2.43893">
        <ele>54.4</ele>
        <time>2023-05-17T12:03:27Z</time>
      </trkpt>
      <trkpt lat="49.96489" lon="2.43892">
        <ele>54.4</ele>
        <time>2023-05-17T12:03:28Z</time>
      </trkpt>
      <trkpt lat="49.96489" lon="2.43891">
        <ele>54.4</ele>
        <time>2023-05-17T12:03:29Z</time>
      </trkpt>
      <trkpt lat="49.96489" lon="2.43887">
        <ele>54.5</ele>
        <time>2023-05-17T12:03:30Z</time>
      </trkpt>
      <trkpt lat="49.96489" lon="2.43886">
        <ele>54.6</ele>
        <time>2023-05-17T12:03:32Z</time>
      </trkpt>
      <trkpt lat="49.96489" lon="2.43884">
        <ele>54.6</ele>
        <time>2023-05-17T12:03:33Z</time>
      </trkpt>
      <trkpt lat="49.96489" lon="2.43882">
        <ele>54.7</ele>
        <time>2023-05-17T12:03:34Z</time>
      </trkpt>
      <trkpt lat="49.96489" lon="2.4388">
        <ele>54.7</ele>
        <time>2023-05-17T12:03:36Z</time>
      </trkpt>
      <trkpt lat="49.96489" lon="2.43879">
        <ele>54.8</ele>
        <time>2023-05-17T12:03:37Z</time>
      </trkpt>
      <trkpt lat="49.96489" lon="2.43877">
        <ele>54.8</ele>
        <time>2023-05-17T12:03:38Z</time>
      </trkpt>
      <trkpt lat="49.96489" lon="2.43875">
        <ele>54.8</ele>
        <time>2023-05-17T12:03:39Z</time>
      </trkpt>
      <trkpt lat="49.96489" lon="2.43873">
        <ele>54.9</ele>
        <time>2023-05-17T12:03:40Z</time>
      </trkpt>
      <trkpt lat="49.96489" lon="2.43872">
        <ele>54.9</ele>
        <time>2023-05-17T12:03:41Z</time>
      </trkpt>
      <trkpt lat="49.96489" lon="2.4387">
        <ele>55</ele>
        <time>2023-05-17T12:03:42Z</time>
      </trkpt>
      <trkpt lat="49.96489" lon="2.43867">
        <ele>55.1</ele>
        <time>2023-05-17T12:03:44Z</time>
      </trkpt>
      <trkpt lat="49.96489" lon="2.43866">
        <ele>55.1</ele>
        <time>2023-05-17T12:03:45Z</time>
      </trkpt>
      <trkpt lat="49.96489" lon="2.43865">
        <ele>55.1</ele>
        <time>2023-05-17T12:03:46Z</time>
      </trkpt>
      <trkpt lat="49.96489" lon="2.43863">
        <ele>55.2</ele>
        <time>2023-05-17T12:03:47Z</time>
      </trkpt>
      <trkpt lat="49.9649" lon="2.43861">
        <ele>55.2</ele>
        <time>2023-05-17T12:03:48Z</time>
      </trkpt>
      <trkpt lat="49.9649" lon="2.43859">
        <ele>55.3</ele>
        <time>2023-05-17T12:03:49Z</time>
      </trkpt>
      <trkpt lat="49.9649" lon="2.43857">
        <ele>55.3</ele>
        <time>2023-05-17T12:03:50Z</time>
      </trkpt>
      <trkpt lat="49.9649" lon="2.43856">
        <ele>55.4</ele>
        <time>2023-05-17T12:03:52Z</time>
      </trkpt>
      <trkpt lat="49.9649" lon="2.43854">
        <ele>55.4</ele>
        <time>2023-05-17T12:03:53Z</time>
      </trkpt>
      <trkpt lat="49.9649" lon="2.4385">
        <ele>55.5</ele>
        <time>2023-05-17T12:03:54Z</time>
      </trkpt>
      <trkpt lat="49.9649" lon="2.43849">
        <ele>55.5</ele>
        <time>2023-05-17T12:03:55Z</time>
      </trkpt>
      <trkpt lat="49.9649" lon="2.43848">
        <ele>55.6</ele>
        <time>2023-05-17T12:03:56Z</time>
      </trkpt>
      <trkpt lat="49.96489" lon="2.43844">
        <ele>55.7</ele>
        <time>2023-05-17T12:03:57Z</time>
      </trkpt>
      <trkpt lat="49.96489" lon="2.43843">
        <ele>55.7</ele>
        <time>2023-05-17T12:03:58Z</time>
      </trkpt>
      <trkpt lat="49.96489" lon="2.43841">
        <ele>55.7</ele>
        <time>2023-05-17T12:04:00Z</time>
      </trkpt>
      <trkpt lat="49.96489" lon="2.4384">
        <ele>55.8</ele>
        <time>2023-05-17T12:04:01Z</time>
      </trkpt>
      <trkpt lat="49.96489" lon="2.43838">
        <ele>55.8</ele>
        <time>2023-05-17T12:04:02Z</time>
      </trkpt>
      <trkpt lat="49.96488" lon="2.43837">
        <ele>55.9</ele>
        <time>2023-05-17T12:04:03Z</time>
      </trkpt>
      <trkpt lat="49.96488" lon="2.43834">
        <ele>55.9</ele>
        <time>2023-05-17T12:04:04Z</time>
      </trkpt>
      <trkpt lat="49.96488" lon="2.43832">
        <ele>56</ele>
        <time>2023-05-17T12:04:05Z</time>
      </trkpt>
      <trkpt lat="49.96488" lon="2.43831">
        <ele>56</ele>
        <time>2023-05-17T12:04:06Z</time>
      </trkpt>
      <trkpt lat="49.96488" lon="2.43829">
        <ele>56.1</ele>
        <time>2023-05-17T12:04:07Z</time>
      </trkpt>
      <trkpt lat="49.96488" lon="2.43827">
        <ele>56.1</ele>
        <time>2023-05-17T12:04:09Z</time>
      </trkpt>
      <trkpt lat="49.96488" lon="2.43825">
        <ele>56.2</ele>
        <time>2023-05-17T12:04:10Z</time>
      </trkpt>
      <trkpt lat="49.96488" lon="2.43822">
        <ele>56.2</ele>
        <time>2023-05-17T12:04:11Z</time>
      </trkpt>
      <trkpt lat="49.96487" lon="2.4382">
        <ele>56.3</ele>
        <time>2023-05-17T12:04:12Z</time>
      </trkpt>
      <trkpt lat="49.96487" lon="2.43818">
        <ele>56.3</ele>
        <time>2023-05-17T12:04:13Z</time>
      </trkpt>
      <trkpt lat="49.96487" lon="2.43816">
        <ele>56.4</ele>
        <time>2023-05-17T12:04:14Z</time>
      </trkpt>
      <trkpt lat="49.96487" lon="2.43815">
        <ele>56.4</ele>
        <time>2023-05-17T12:04:15Z</time>
      </trkpt>
      <trkpt lat="49.96486" lon="2.43813">
        <ele>56.5</ele>
        <time>2023-05-17T12:04:17Z</time>
      </trkpt>
      <trkpt lat="49.96486" lon="2.43811">
        <ele>56.5</ele>
        <time>2023-05-17T12:04:18Z</time>
      </trkpt>
      <trkpt lat="49.96486" lon="2.43809">
        <ele>56.6</ele>
        <time>2023-05-17T12:04:19Z</time>
      </trkpt>
      <trkpt lat="49.96486" lon="2.43807">
        <ele>56.6</ele>
        <time>2023-05-17T12:04:20Z</time>
      </trkpt>
      <trkpt lat="49.96485" lon="2.43805">
        <ele>56.6</ele>
        <time>2023-05-17T12:04:21Z</time>
      </trkpt>
      <trkpt lat="49.96485" lon="2.43803">
        <ele>56.7</ele>
        <time>2023-05-17T12:04:22Z</time>
      </trkpt>
      <trkpt lat="49.96485" lon="2.43801">
        <ele>56.8</ele>
        <time>2023-05-17T12:04:24Z</time>
      </trkpt>
      <trkpt lat="49.96484" lon="2.43798">
        <ele>56.8</ele>
        <time>2023-05-17T12:04:25Z</time>
      </trkpt>
      <trkpt lat="49.96484" lon="2.43797">
        <ele>56.9</ele>
        <time>2023-05-17T12:04:26Z</time>
      </trkpt>
      <trkpt lat="49.96484" lon="2.43796">
        <ele>56.9</ele>
        <time>2023-05-17T12:04:27Z</time>
      </trkpt>
      <trkpt lat="49.96483" lon="2.43794">
        <ele>56.9</ele>
        <time>2023-05-17T12:04:28Z</time>
      </trkpt>
      <trkpt lat="49.96483" lon="2.43792">
        <ele>57</ele>
        <time>2023-05-17T12:04:29Z</time>
      </trkpt>
      <trkpt lat="49.96483" lon="2.4379">
        <ele>57</ele>
        <time>2023-05-17T12:04:31Z</time>
      </trkpt>
      <trkpt lat="49.96482" lon="2.43787">
        <ele>57.1</ele>
        <time>2023-05-17T12:04:32Z</time>
      </trkpt>
      <trkpt lat="49.96482" lon="2.43785">
        <ele>57.2</ele>
        <time>2023-05-17T12:04:33Z</time>
      </trkpt>
      <trkpt lat="49.96482" lon="2.43784">
        <ele>57.2</ele>
        <time>2023-05-17T12:04:34Z</time>
      </trkpt>
      <trkpt lat="49.96482" lon="2.43782">
        <ele>57.2</ele>
        <time>2023-05-17T12:04:35Z</time>
      </trkpt>
      <trkpt lat="49.96481" lon="2.4378">
        <ele>57.3</ele>
        <time>2023-05-17T12:04:36Z</time>
      </trkpt>
      <trkpt lat="49.96481" lon="2.43778">
        <ele>57.4</ele>
        <time>2023-05-17T12:04:38Z</time>
      </trkpt>
      <trkpt lat="49.9648" lon="2.43776">
        <ele>57.4</ele>
        <time>2023-05-17T12:04:39Z</time>
      </trkpt>
      <trkpt lat="49.9648" lon="2.43774">
        <ele>57.5</ele>
        <time>2023-05-17T12:04:40Z</time>
      </trkpt>
      <trkpt lat="49.96479" lon="2.43771">
        <ele>57.6</ele>
        <time>2023-05-17T12:04:41Z</time>
      </trkpt>
      <trkpt lat="49.96479" lon="2.43769">
        <ele>57.6</ele>
        <time>2023-05-17T12:04:42Z</time>
      </trkpt>
      <trkpt lat="49.96479" lon="2.43768">
        <ele>57.7</ele>
        <time>2023-05-17T12:04:43Z</time>
      </trkpt>
      <trkpt lat="49.96479" lon="2.43766">
        <ele>57.7</ele>
        <time>2023-05-17T12:04:44Z</time>
      </trkpt>
      <trkpt lat="49.96478" lon="2.43765">
        <ele>57.8</ele>
        <time>2023-05-17T12:04:46Z</time>
      </trkpt>
      <trkpt lat="49.96478" lon="2.43763">
        <ele>57.8</ele>
        <time>2023-05-17T12:04:47Z</time>
      </trkpt>
      <trkpt lat="49.96478" lon="2.43761">
        <ele>57.8</ele>
        <time>2023-05-17T12:04:48Z</time>
      </trkpt>
      <trkpt lat="49.96478" lon="2.4376">
        <ele>57.9</ele>
        <time>2023-05-17T12:04:49Z</time>
      </trkpt>
      <trkpt lat="49.96478" lon="2.43758">
        <ele>57.9</ele>
        <time>2023-05-17T12:04:50Z</time>
      </trkpt>
      <trkpt lat="49.96477" lon="2.43754">
        <ele>58</ele>
        <time>2023-05-17T12:04:51Z</time>
      </trkpt>
      <trkpt lat="49.96477" lon="2.43753">
        <ele>58.1</ele>
        <time>2023-05-17T12:04:52Z</time>
      </trkpt>
      <trkpt lat="49.96477" lon="2.43752">
        <ele>58.1</ele>
        <time>2023-05-17T12:04:53Z</time>
      </trkpt>
      <trkpt lat="49.96477" lon="2.4375">
        <ele>58.2</ele>
        <time>2023-05-17T12:04:55Z</time>
      </trkpt>
      <trkpt lat="49.96476" lon="2.43748">
        <ele>58.2</ele>
        <time>2023-05-17T12:04:56Z</time>
      </trkpt>
      <trkpt lat="49.96476" lon="2.43744">
        <ele>58.3</ele>
        <time>2023-05-17T12:04:57Z</time>
      </trkpt>
      <trkpt lat="49.96476" lon="2.43743">
        <ele>58.4</ele>
        <time>2023-05-17T12:04:58Z</time>
      </trkpt>
      <trkpt lat="49.96476" lon="2.43742">
        <ele>58.4</ele>
        <time>2023-05-17T12:04:59Z</time>
      </trkpt>
      <trkpt lat="49.96476" lon="2.43739">
        <ele>58.5</ele>
        <time>2023-05-17T12:05:00Z</time>
      </trkpt>
      <trkpt lat="49.96476" lon="2.43737">
        <ele>58.5</ele>
        <time>2023-05-17T12:05:01Z</time>
      </trkpt>
      <trkpt lat="49.96476" lon="2.43733">
        <ele>58.6</ele>
        <time>2023-05-17T12:05:02Z</time>
      </trkpt>
      <trkpt lat="49.96476" lon="2.43732">
        <ele>58.7</ele>
        <time>2023-05-17T12:05:04Z</time>
      </trkpt>
      <trkpt lat="49.96476" lon="2.4373">
        <ele>58.7</ele>
        <time>2023-05-17T12:05:05Z</time>
      </trkpt>
      <trkpt lat="49.96475" lon="2.43728">
        <ele>58.7</ele>
        <time>2023-05-17T12:05:06Z</time>
      </trkpt>
      <trkpt lat="49.96475" lon="2.43726">
        <ele>58.8</ele>
        <time>2023-05-17T12:05:07Z</time>
      </trkpt>
      <trkpt lat="49.96475" lon="2.43724">
        <ele>58.9</ele>
        <time>2023-05-17T12:05:08Z</time>
      </trkpt>
      <trkpt lat="49.96475" lon="2.43722">
        <ele>58.9</ele>
        <time>2023-05-17T12:05:09Z</time>
      </trkpt>
      <trkpt lat="49.96474" lon="2.43718">
        <ele>59</ele>
        <time>2023-05-17T12:05:10Z</time>
      </trkpt>
      <trkpt lat="49.96474" lon="2.43717">
        <ele>59.1</ele>
        <time>2023-05-17T12:05:12Z</time>
      </trkpt>
      <trkpt lat="49.96474" lon="2.43715">
        <ele>59.1</ele>
        <time>2023-05-17T12:05:13Z</time>
      </trkpt>
      <trkpt lat="49.96474" lon="2.43714">
        <ele>59.2</ele>
        <time>2023-05-17T12:05:14Z</time>
      </trkpt>
      <trkpt lat="49.96474" lon="2.43712">
        <ele>59.2</ele>
        <time>2023-05-17T12:05:15Z</time>
      </trkpt>
      <trkpt lat="49.96473" lon="2.43708">
        <ele>59.3</ele>
        <time>2023-05-17T12:05:16Z</time>
      </trkpt>
      <trkpt lat="49.96473" lon="2.43707">
        <ele>59.3</ele>
        <time>2023-05-17T12:05:17Z</time>
      </trkpt>
      <trkpt lat="49.96473" lon="2.43706">
        <ele>59.4</ele>
        <time>2023-05-17T12:05:18Z</time>
      </trkpt>
      <trkpt lat="49.96473" lon="2.43703">
        <ele>59.4</ele>
        <time>2023-05-17T12:05:20Z</time>
      </trkpt>
      <trkpt lat="49.96473" lon="2.43701">
        <ele>59.5</ele>
        <time>2023-05-17T12:05:21Z</time>
      </trkpt>
      <trkpt lat="49.96473" lon="2.43698">
        <ele>59.6</ele>
        <time>2023-05-17T12:05:22Z</time>
      </trkpt>
      <trkpt lat="49.96473" lon="2.43696">
        <ele>59.6</ele>
        <time>2023-05-17T12:05:23Z</time>
      </trkpt>
      <trkpt lat="49.96473" lon="2.43694">
        <ele>59.7</ele>
        <time>2023-05-17T12:05:24Z</time>
      </trkpt>
      <trkpt lat="49.96473" lon="2.43692">
        <ele>59.8</ele>
        <time>2023-05-17T12:05:25Z</time>
      </trkpt>
      <trkpt lat="49.96474" lon="2.4369">
        <ele>59.8</ele>
        <time>2023-05-17T12:05:26Z</time>
      </trkpt>
      <trkpt lat="49.96474" lon="2.43688">
        <ele>59.9</ele>
        <time>2023-05-17T12:05:27Z</time>
      </trkpt>
      <trkpt lat="49.96475" lon="2.43685">
        <ele>59.9</ele>
        <time>2023-05-17T12:05:29Z</time>
      </trkpt>
      <trkpt lat="49.96476" lon="2.43683">
        <ele>59.9</ele>
        <time>2023-05-17T12:05:30Z</time>
      </trkpt>
      <trkpt lat="49.96476" lon="2.43681">
        <ele>59.9</ele>
        <time>2023-05-17T12:05:31Z</time>
      </trkpt>
      <trkpt lat="49.96477" lon="2.4368">
        <ele>59.8</ele>
        <time>2023-05-17T12:05:32Z</time>
      </trkpt>
      <trkpt lat="49.96478" lon="2.43678">
        <ele>59.8</ele>
        <time>2023-05-17T12:05:33Z</time>
      </trkpt>
      <trkpt lat="49.9648" lon="2.43677">
        <ele>59.7</ele>
        <time>2023-05-17T12:05:34Z</time>
      </trkpt>
      <trkpt lat="49.96481" lon="2.43676">
        <ele>59.7</ele>
        <time>2023-05-17T12:05:36Z</time>
      </trkpt>
      <trkpt lat="49.96482" lon="2.43675">
        <ele>59.6</ele>
        <time>2023-05-17T12:05:37Z</time>
      </trkpt>
      <trkpt lat="49.96484" lon="2.43674">
        <ele>59.6</ele>
        <time>2023-05-17T12:05:38Z</time>
      </trkpt>
      <trkpt lat="49.96485" lon="2.43674">
        <ele>59.5</ele>
        <time>2023-05-17T12:05:39Z</time>
      </trkpt>
      <trkpt lat="49.96487" lon="2.43674">
        <ele>59.5</ele>
        <time>2023-05-17T12:05:40Z</time>
      </trkpt>
      <trkpt lat="49.96489" lon="2.43673">
        <ele>59.4</ele>
        <time>2023-05-17T12:05:41Z</time>
      </trkpt>
      <trkpt lat="49.9649" lon="2.43673">
        <ele>59.3</ele>
        <time>2023-05-17T12:05:43Z</time>
      </trkpt>
      <trkpt lat="49.96492" lon="2.43673">
        <ele>59.2</ele>
        <time>2023-05-17T12:05:44Z</time>
      </trkpt>
      <trkpt lat="49.96494" lon="2.43672">
        <ele>59.1</ele>
        <time>2023-05-17T12:05:45Z</time>
      </trkpt>
      <trkpt lat="49.96495" lon="2.43672">
        <ele>59.1</ele>
        <time>2023-05-17T12:05:46Z</time>
      </trkpt>
      <trkpt lat="49.96497" lon="2.43672">
        <ele>59</ele>
        <time>2023-05-17T12:05:47Z</time>
      </trkpt>
      <trkpt lat="49.96499" lon="2.43672">
        <ele>58.9</ele>
        <time>2023-05-17T12:05:48Z</time>
      </trkpt>
      <trkpt lat="49.965" lon="2.43672">
        <ele>58.8</ele>
        <time>2023-05-17T12:05:49Z</time>
      </trkpt>
      <trkpt lat="49.96503" lon="2.43674">
        <ele>58.7</ele>
        <time>2023-05-17T12:05:50Z</time>
      </trkpt>
      <trkpt lat="49.96504" lon="2.43674">
        <ele>58.6</ele>
        <time>2023-05-17T12:05:51Z</time>
      </trkpt>
      <trkpt lat="49.96508" lon="2.43675">
        <ele>58.4</ele>
        <time>2023-05-17T12:05:53Z</time>
      </trkpt>
      <trkpt lat="49.96509" lon="2.43675">
        <ele>58.4</ele>
        <time>2023-05-17T12:05:54Z</time>
      </trkpt>
      <trkpt lat="49.96511" lon="2.43676">
        <ele>58.2</ele>
        <time>2023-05-17T12:05:55Z</time>
      </trkpt>
      <trkpt lat="49.96512" lon="2.43676">
        <ele>58.1</ele>
        <time>2023-05-17T12:05:56Z</time>
      </trkpt>
      <trkpt lat="49.96515" lon="2.43677">
        <ele>57.9</ele>
        <time>2023-05-17T12:05:57Z</time>
      </trkpt>
      <trkpt lat="49.96516" lon="2.43678">
        <ele>57.9</ele>
        <time>2023-05-17T12:05:58Z</time>
      </trkpt>
      <trkpt lat="49.96518" lon="2.43679">
        <ele>57.8</ele>
        <time>2023-05-17T12:05:59Z</time>
      </trkpt>
      <trkpt lat="49.9652" lon="2.43679">
        <ele>57.6</ele>
        <time>2023-05-17T12:06:01Z</time>
      </trkpt>
      <trkpt lat="49.96522" lon="2.43679">
        <ele>57.5</ele>
        <time>2023-05-17T12:06:02Z</time>
      </trkpt>
      <trkpt lat="49.96523" lon="2.4368">
        <ele>57.4</ele>
        <time>2023-05-17T12:06:03Z</time>
      </trkpt>
      <trkpt lat="49.96525" lon="2.4368">
        <ele>57.3</ele>
        <time>2023-05-17T12:06:04Z</time>
      </trkpt>
      <trkpt lat="49.96526" lon="2.4368">
        <ele>57.2</ele>
        <time>2023-05-17T12:06:05Z</time>
      </trkpt>
      <trkpt lat="49.96527" lon="2.4368">
        <ele>57.1</ele>
        <time>2023-05-17T12:06:06Z</time>
      </trkpt>
      <trkpt lat="49.96529" lon="2.43679">
        <ele>57</ele>
        <time>2023-05-17T12:06:07Z</time>
      </trkpt>
      <trkpt lat="49.96532" lon="2.43679">
        <ele>56.8</ele>
        <time>2023-05-17T12:06:09Z</time>
      </trkpt>
      <trkpt lat="49.96533" lon="2.43679">
        <ele>56.7</ele>
        <time>2023-05-17T12:06:10Z</time>
      </trkpt>
      <trkpt lat="49.96535" lon="2.43678">
        <ele>56.6</ele>
        <time>2023-05-17T12:06:11Z</time>
      </trkpt>
      <trkpt lat="49.96536" lon="2.43678">
        <ele>56.5</ele>
        <time>2023-05-17T12:06:13Z</time>
      </trkpt>
      <trkpt lat="49.96538" lon="2.43678">
        <ele>56.4</ele>
        <time>2023-05-17T12:06:14Z</time>
      </trkpt>
      <trkpt lat="49.96539" lon="2.43678">
        <ele>56.3</ele>
        <time>2023-05-17T12:06:15Z</time>
      </trkpt>
      <trkpt lat="49.9654" lon="2.43677">
        <ele>56.2</ele>
        <time>2023-05-17T12:06:16Z</time>
      </trkpt>
      <trkpt lat="49.96541" lon="2.43677">
        <ele>56.2</ele>
        <time>2023-05-17T12:06:17Z</time>
      </trkpt>
      <trkpt lat="49.96542" lon="2.43676">
        <ele>56.1</ele>
        <time>2023-05-17T12:06:18Z</time>
      </trkpt>
      <trkpt lat="49.96544" lon="2.43675">
        <ele>56</ele>
        <time>2023-05-17T12:06:19Z</time>
      </trkpt>
      <trkpt lat="49.96546" lon="2.43674">
        <ele>55.8</ele>
        <time>2023-05-17T12:06:20Z</time>
      </trkpt>
      <trkpt lat="49.96547" lon="2.43674">
        <ele>55.7</ele>
        <time>2023-05-17T12:06:21Z</time>
      </trkpt>
      <trkpt lat="49.96548" lon="2.43674">
        <ele>55.7</ele>
        <time>2023-05-17T12:06:23Z</time>
      </trkpt>
      <trkpt lat="49.96549" lon="2.43673">
        <ele>55.6</ele>
        <time>2023-05-17T12:06:24Z</time>
      </trkpt>
      <trkpt lat="49.9655" lon="2.43673">
        <ele>55.5</ele>
        <time>2023-05-17T12:06:25Z</time>
      </trkpt>
      <trkpt lat="49.96551" lon="2.43673">
        <ele>55.5</ele>
        <time>2023-05-17T12:06:26Z</time>
      </trkpt>
      <trkpt lat="49.96552" lon="2.43672">
        <ele>55.3</ele>
        <time>2023-05-17T12:06:27Z</time>
      </trkpt>
      <trkpt lat="49.96554" lon="2.43672">
        <ele>55.2</ele>
        <time>2023-05-17T12:06:28Z</time>
      </trkpt>
      <trkpt lat="49.96555" lon="2.43672">
        <ele>55.1</ele>
        <time>2023-05-17T12:06:29Z</time>
      </trkpt>
      <trkpt lat="49.96557" lon="2.43672">
        <ele>55</ele>
        <time>2023-05-17T12:06:31Z</time>
      </trkpt>
      <trkpt lat="49.96558" lon="2.43672">
        <ele>55</ele>
        <time>2023-05-17T12:06:32Z</time>
      </trkpt>
      <trkpt lat="49.9656" lon="2.43672">
        <ele>54.9</ele>
        <time>2023-05-17T12:06:33Z</time>
      </trkpt>
      <trkpt lat="49.96561" lon="2.43672">
        <ele>54.8</ele>
        <time>2023-05-17T12:06:34Z</time>
      </trkpt>
      <trkpt lat="49.96563" lon="2.43672">
        <ele>54.7</ele>
        <time>2023-05-17T12:06:35Z</time>
      </trkpt>
      <trkpt lat="49.96564" lon="2.43673">
        <ele>54.6</ele>
        <time>2023-05-17T12:06:36Z</time>
      </trkpt>
      <trkpt lat="49.96566" lon="2.43673">
        <ele>54.5</ele>
        <time>2023-05-17T12:06:37Z</time>
      </trkpt>
      <trkpt lat="49.96567" lon="2.43672">
        <ele>54.4</ele>
        <time>2023-05-17T12:06:38Z</time>
      </trkpt>
      <trkpt lat="49.96569" lon="2.43672">
        <ele>54.4</ele>
        <time>2023-05-17T12:06:40Z</time>
      </trkpt>
      <trkpt lat="49.9657" lon="2.43672">
        <ele>54.3</ele>
        <time>2023-05-17T12:06:41Z</time>
      </trkpt>
      <trkpt lat="49.96572" lon="2.43672">
        <ele>54.2</ele>
        <time>2023-05-17T12:06:42Z</time>
      </trkpt>
      <trkpt lat="49.96573" lon="2.43672">
        <ele>54.2</ele>
        <time>2023-05-17T12:06:43Z</time>
      </trkpt>
      <trkpt lat="49.96574" lon="2.43672">
        <ele>54.1</ele>
        <time>2023-05-17T12:06:44Z</time>
      </trkpt>
      <trkpt lat="49.96575" lon="2.43672">
        <ele>54</ele>
        <time>2023-05-17T12:06:45Z</time>
      </trkpt>
      <trkpt lat="49.96577" lon="2.43672">
        <ele>54</ele>
        <time>2023-05-17T12:06:46Z</time>
      </trkpt>
      <trkpt lat="49.96578" lon="2.43672">
        <ele>53.9</ele>
        <time>2023-05-17T12:06:48Z</time>
      </trkpt>
      <trkpt lat="49.96579" lon="2.43672">
        <ele>53.9</ele>
        <time>2023-05-17T12:06:49Z</time>
      </trkpt>
      <trkpt lat="49.96581" lon="2.43672">
        <ele>53.8</ele>
        <time>2023-05-17T12:06:50Z</time>
      </trkpt>
      <trkpt lat="49.96581" lon="2.43672">
        <ele>53.8</ele>
        <time>2023-05-17T12:06:51Z</time>
      </trkpt>
      <trkpt lat="49.96582" lon="2.43672">
        <ele>53.7</ele>
        <time>2023-05-17T12:06:52Z</time>
      </trkpt>
      <trkpt lat="49.96584" lon="2.43671">
        <ele>53.6</ele>
        <time>2023-05-17T12:06:53Z</time>
      </trkpt>
      <trkpt lat="49.96585" lon="2.43671">
        <ele>53.6</ele>
        <time>2023-05-17T12:06:54Z</time>
      </trkpt>
      <trkpt lat="49.96586" lon="2.43671">
        <ele>53.6</ele>
        <time>2023-05-17T12:06:55Z</time>
      </trkpt>
      <trkpt lat="49.96587" lon="2.43671">
        <ele>53.6</ele>
        <time>2023-05-17T12:06:56Z</time>
      </trkpt>
      <trkpt lat="49.96588" lon="2.4367">
        <ele>53.6</ele>
        <time>2023-05-17T12:06:57Z</time>
      </trkpt>
      <trkpt lat="49.9659" lon="2.4367">
        <ele>53.6</ele>
        <time>2023-05-17T12:06:59Z</time>
      </trkpt>
      <trkpt lat="49.96592" lon="2.43669">
        <ele>53.6</ele>
        <time>2023-05-17T12:07:00Z</time>
      </trkpt>
      <trkpt lat="49.96593" lon="2.43669">
        <ele>53.6</ele>
        <time>2023-05-17T12:07:01Z</time>
      </trkpt>
      <trkpt lat="49.96594" lon="2.43668">
        <ele>53.6</ele>
        <time>2023-05-17T12:07:02Z</time>
      </trkpt>
      <trkpt lat="49.96596" lon="2.43666">
        <ele>53.6</ele>
        <time>2023-05-17T12:07:03Z</time>
      </trkpt>
      <trkpt lat="49.96597" lon="2.43665">
        <ele>53.6</ele>
        <time>2023-05-17T12:07:05Z</time>
      </trkpt>
      <trkpt lat="49.96598" lon="2.43663">
        <ele>53.6</ele>
        <time>2023-05-17T12:07:06Z</time>
      </trkpt>
      <trkpt lat="49.96599" lon="2.43662">
        <ele>53.6</ele>
        <time>2023-05-17T12:07:07Z</time>
      </trkpt>
      <trkpt lat="49.966" lon="2.43659">
        <ele>53.4</ele>
        <time>2023-05-17T12:07:09Z</time>
      </trkpt>
      <trkpt lat="49.96602" lon="2.43655">
        <ele>53.3</ele>
        <time>2023-05-17T12:07:10Z</time>
      </trkpt>
      <trkpt lat="49.96602" lon="2.43653">
        <ele>53.3</ele>
        <time>2023-05-17T12:07:11Z</time>
      </trkpt>
      <trkpt lat="49.96602" lon="2.43649">
        <ele>53.1</ele>
        <time>2023-05-17T12:07:12Z</time>
      </trkpt>
      <trkpt lat="49.96603" lon="2.43647">
        <ele>53.1</ele>
        <time>2023-05-17T12:07:13Z</time>
      </trkpt>
      <trkpt lat="49.96601" lon="2.43645">
        <ele>53</ele>
        <time>2023-05-17T12:07:14Z</time>
      </trkpt>
      <trkpt lat="49.966" lon="2.43644">
        <ele>53</ele>
        <time>2023-05-17T12:07:15Z</time>
      </trkpt>
      <trkpt lat="49.966" lon="2.43643">
        <ele>52.9</ele>
        <time>2023-05-17T12:07:16Z</time>
      </trkpt>
      <trkpt lat="49.96599" lon="2.43638">
        <ele>52.8</ele>
        <time>2023-05-17T12:07:18Z</time>
      </trkpt>
      <trkpt lat="49.96599" lon="2.43636">
        <ele>52.8</ele>
        <time>2023-05-17T12:07:19Z</time>
      </trkpt>
      <trkpt lat="49.96598" lon="2.43632">
        <ele>52.7</ele>
        <time>2023-05-17T12:07:20Z</time>
      </trkpt>
      <trkpt lat="49.96598" lon="2.43631">
        <ele>52.6</ele>
        <time>2023-05-17T12:07:21Z</time>
      </trkpt>
      <trkpt lat="49.96598" lon="2.43628">
        <ele>52.6</ele>
        <time>2023-05-17T12:07:23Z</time>
      </trkpt>
      <trkpt lat="49.96597" lon="2.43626">
        <ele>52.5</ele>
        <time>2023-05-17T12:07:24Z</time>
      </trkpt>
      <trkpt lat="49.96596" lon="2.43623">
        <ele>52.5</ele>
        <time>2023-05-17T12:07:25Z</time>
      </trkpt>
      <trkpt lat="49.96595" lon="2.43622">
        <ele>52.5</ele>
        <time>2023-05-17T12:07:26Z</time>
      </trkpt>
      <trkpt lat="49.96595" lon="2.43621">
        <ele>52.5</ele>
        <time>2023-05-17T12:07:27Z</time>
      </trkpt>
      <trkpt lat="49.96594" lon="2.43619">
        <ele>52.4</ele>
        <time>2023-05-17T12:07:28Z</time>
      </trkpt>
      <trkpt lat="49.96594" lon="2.43617">
        <ele>52.4</ele>
        <time>2023-05-17T12:07:29Z</time>
      </trkpt>
      <trkpt lat="49.96593" lon="2.43615">
        <ele>52.4</ele>
        <time>2023-05-17T12:07:30Z</time>
      </trkpt>
      <trkpt lat="49.96592" lon="2.43613">
        <ele>52.3</ele>
        <time>2023-05-17T12:07:31Z</time>
      </trkpt>
      <trkpt lat="49.96591" lon="2.4361">
        <ele>52.3</ele>
        <time>2023-05-17T12:07:32Z</time>
      </trkpt>
      <trkpt lat="49.96591" lon="2.43609">
        <ele>52.3</ele>
        <time>2023-05-17T12:07:34Z</time>
      </trkpt>
      <trkpt lat="49.96591" lon="2.43607">
        <ele>52.3</ele>
        <time>2023-05-17T12:07:35Z</time>
      </trkpt>
      <trkpt lat="49.9659" lon="2.43603">
        <ele>52.2</ele>
        <time>2023-05-17T12:07:36Z</time>
      </trkpt>
      <trkpt lat="49.9659" lon="2.43601">
        <ele>52.2</ele>
        <time>2023-05-17T12:07:37Z</time>
      </trkpt>
      <trkpt lat="49.96589" lon="2.43598">
        <ele>52.2</ele>
        <time>2023-05-17T12:07:38Z</time>
      </trkpt>
      <trkpt lat="49.96589" lon="2.43597">
        <ele>52.1</ele>
        <time>2023-05-17T12:07:39Z</time>
      </trkpt>
      <trkpt lat="49.96588" lon="2.43593">
        <ele>52.1</ele>
        <time>2023-05-17T12:07:41Z</time>
      </trkpt>
      <trkpt lat="49.96587" lon="2.43592">
        <ele>52.1</ele>
        <time>2023-05-17T12:07:42Z</time>
      </trkpt>
      <trkpt lat="49.96587" lon="2.43591">
        <ele>52.1</ele>
        <time>2023-05-17T12:07:43Z</time>
      </trkpt>
      <trkpt lat="49.96586" lon="2.43588">
        <ele>52</ele>
        <time>2023-05-17T12:07:44Z</time>
      </trkpt>
      <trkpt lat="49.96586" lon="2.43587">
        <ele>52</ele>
        <time>2023-05-17T12:07:45Z</time>
      </trkpt>
      <trkpt lat="49.96586" lon="2.43586">
        <ele>52</ele>
        <time>2023-05-17T12:07:46Z</time>
      </trkpt>
      <trkpt lat="49.96585" lon="2.43582">
        <ele>52</ele>
        <time>2023-05-17T12:07:48Z</time>
      </trkpt>
      <trkpt lat="49.96585" lon="2.43581">
        <ele>52</ele>
        <time>2023-05-17T12:07:49Z</time>
      </trkpt>
      <trkpt lat="49.96585" lon="2.4358">
        <ele>51.9</ele>
        <time>2023-05-17T12:07:50Z</time>
      </trkpt>
      <trkpt lat="49.96585" lon="2.43578">
        <ele>51.9</ele>
        <time>2023-05-17T12:07:51Z</time>
      </trkpt>
      <trkpt lat="49.96584" lon="2.43577">
        <ele>51.9</ele>
        <time>2023-05-17T12:07:52Z</time>
      </trkpt>
      <trkpt lat="49.96584" lon="2.43575">
        <ele>51.9</ele>
        <time>2023-05-17T12:07:53Z</time>
      </trkpt>
      <trkpt lat="49.96584" lon="2.43574">
        <ele>51.9</ele>
        <time>2023-05-17T12:07:54Z</time>
      </trkpt>
      <trkpt lat="49.96583" lon="2.43573">
        <ele>51.9</ele>
        <time>2023-05-17T12:07:55Z</time>
      </trkpt>
      <trkpt lat="49.96583" lon="2.43571">
        <ele>51.8</ele>
        <time>2023-05-17T12:07:57Z</time>
      </trkpt>
      <trkpt lat="49.96583" lon="2.4357">
        <ele>51.8</ele>
        <time>2023-05-17T12:07:58Z</time>
      </trkpt>
      <trkpt lat="49.96583" lon="2.4357">
        <ele>51.8</ele>
        <time>2023-05-17T12:07:59Z</time>
      </trkpt>
      <trkpt lat="49.96583" lon="2.43569">
        <ele>51.8</ele>
        <time>2023-05-17T12:08:00Z</time>
      </trkpt>
      <trkpt lat="49.96583" lon="2.43567">
        <ele>51.8</ele>
        <time>2023-05-17T12:08:01Z</time>
      </trkpt>
      <trkpt lat="49.96583" lon="2.43567">
        <ele>51.8</ele>
        <time>2023-05-17T12:08:02Z</time>
      </trkpt>
      <trkpt lat="49.96583" lon="2.43566">
        <ele>51.8</ele>
        <time>2023-05-17T12:08:03Z</time>
      </trkpt>
      <trkpt lat="49.96583" lon="2.43564">
        <ele>51.8</ele>
        <time>2023-05-17T12:08:05Z</time>
      </trkpt>
      <trkpt lat="49.96583" lon="2.43561">
        <ele>51.7</ele>
        <time>2023-05-17T12:08:06Z</time>
      </trkpt>
      <trkpt lat="49.96583" lon="2.43559">
        <ele>51.7</ele>
        <time>2023-05-17T12:08:07Z</time>
      </trkpt>
      <trkpt lat="49.96583" lon="2.43557">
        <ele>51.7</ele>
        <time>2023-05-17T12:08:08Z</time>
      </trkpt>
      <trkpt lat="49.96583" lon="2.43555">
        <ele>51.7</ele>
        <time>2023-05-17T12:08:10Z</time>
      </trkpt>
      <trkpt lat="49.96583" lon="2.43553">
        <ele>51.6</ele>
        <time>2023-05-17T12:08:11Z</time>
      </trkpt>
      <trkpt lat="49.96583" lon="2.43552">
        <ele>51.6</ele>
        <time>2023-05-17T12:08:12Z</time>
      </trkpt>
      <trkpt lat="49.96583" lon="2.4355">
        <ele>51.6</ele>
        <time>2023-05-17T12:08:13Z</time>
      </trkpt>
      <trkpt lat="49.96582" lon="2.43547">
        <ele>51.5</ele>
        <time>2023-05-17T12:08:14Z</time>
      </trkpt>
      <trkpt lat="49.96582" lon="2.43545">
        <ele>51.5</ele>
        <time>2023-05-17T12:08:16Z</time>
      </trkpt>
      <trkpt lat="49.96582" lon="2.43544">
        <ele>51.5</ele>
        <time>2023-05-17T12:08:17Z</time>
      </trkpt>
      <trkpt lat="49.96582" lon="2.43542">
        <ele>51.5</ele>
        <time>2023-05-17T12:08:18Z</time>
      </trkpt>
      <trkpt lat="49.96582" lon="2.4354">
        <ele>51.4</ele>
        <time>2023-05-17T12:08:19Z</time>
      </trkpt>
      <trkpt lat="49.96581" lon="2.43538">
        <ele>51.4</ele>
        <time>2023-05-17T12:08:20Z</time>
      </trkpt>
      <trkpt lat="49.96581" lon="2.43536">
        <ele>51.4</ele>
        <time>2023-05-17T12:08:21Z</time>
      </trkpt>
      <trkpt lat="49.96581" lon="2.43534">
        <ele>51.3</ele>
        <time>2023-05-17T12:08:23Z</time>
      </trkpt>
      <trkpt lat="49.9658" lon="2.43531">
        <ele>51.3</ele>
        <time>2023-05-17T12:08:24Z</time>
      </trkpt>
      <trkpt lat="49.9658" lon="2.4353">
        <ele>51.3</ele>
        <time>2023-05-17T12:08:25Z</time>
      </trkpt>
      <trkpt lat="49.9658" lon="2.43529">
        <ele>51.3</ele>
        <time>2023-05-17T12:08:26Z</time>
      </trkpt>
      <trkpt lat="49.9658" lon="2.43526">
        <ele>51.2</ele>
        <time>2023-05-17T12:08:27Z</time>
      </trkpt>
      <trkpt lat="49.9658" lon="2.43523">
        <ele>51.2</ele>
        <time>2023-05-17T12:08:28Z</time>
      </trkpt>
      <trkpt lat="49.96579" lon="2.43521">
        <ele>51.1</ele>
        <time>2023-05-17T12:08:29Z</time>
      </trkpt>
      <trkpt lat="49.96579" lon="2.43518">
        <ele>51.1</ele>
        <time>2023-05-17T12:08:30Z</time>
      </trkpt>
      <trkpt lat="49.96579" lon="2.43516">
        <ele>51</ele>
        <time>2023-05-17T12:08:31Z</time>
      </trkpt>
      <trkpt lat="49.96579" lon="2.43514">
        <ele>51</ele>
        <time>2023-05-17T12:08:32Z</time>
      </trkpt>
      <trkpt lat="49.96579" lon="2.43511">
        <ele>51</ele>
        <time>2023-05-17T12:08:33Z</time>
      </trkpt>
      <trkpt lat="49.96578" lon="2.43509">
        <ele>50.9</ele>
        <time>2023-05-17T12:08:34Z</time>
      </trkpt>
      <trkpt lat="49.96578" lon="2.43506">
        <ele>50.9</ele>
        <time>2023-05-17T12:08:36Z</time>
      </trkpt>
      <trkpt lat="49.96578" lon="2.43504">
        <ele>50.9</ele>
        <time>2023-05-17T12:08:37Z</time>
      </trkpt>
      <trkpt lat="49.96578" lon="2.435">
        <ele>50.8</ele>
        <time>2023-05-17T12:08:38Z</time>
      </trkpt>
      <trkpt lat="49.96578" lon="2.43498">
        <ele>50.8</ele>
        <time>2023-05-17T12:08:39Z</time>
      </trkpt>
      <trkpt lat="49.96579" lon="2.43495">
        <ele>50.7</ele>
        <time>2023-05-17T12:08:41Z</time>
      </trkpt>
      <trkpt lat="49.96579" lon="2.43493">
        <ele>50.7</ele>
        <time>2023-05-17T12:08:42Z</time>
      </trkpt>
      <trkpt lat="49.9658" lon="2.4349">
        <ele>50.7</ele>
        <time>2023-05-17T12:08:43Z</time>
      </trkpt>
      <trkpt lat="49.9658" lon="2.43487">
        <ele>50.6</ele>
        <time>2023-05-17T12:08:44Z</time>
      </trkpt>
      <trkpt lat="49.9658" lon="2.43483">
        <ele>50.5</ele>
        <time>2023-05-17T12:08:45Z</time>
      </trkpt>
      <trkpt lat="49.9658" lon="2.43482">
        <ele>50.5</ele>
        <time>2023-05-17T12:08:46Z</time>
      </trkpt>
      <trkpt lat="49.96581" lon="2.43478">
        <ele>50.5</ele>
        <time>2023-05-17T12:08:47Z</time>
      </trkpt>
      <trkpt lat="49.96581" lon="2.43477">
        <ele>50.5</ele>
        <time>2023-05-17T12:08:48Z</time>
      </trkpt>
      <trkpt lat="49.96581" lon="2.43476">
        <ele>50.4</ele>
        <time>2023-05-17T12:08:49Z</time>
      </trkpt>
      <trkpt lat="49.96581" lon="2.43474">
        <ele>50.4</ele>
        <time>2023-05-17T12:08:51Z</time>
      </trkpt>
      <trkpt lat="49.96581" lon="2.43473">
        <ele>50.4</ele>
        <time>2023-05-17T12:08:52Z</time>
      </trkpt>
      <trkpt lat="49.96581" lon="2.43471">
        <ele>50.4</ele>
        <time>2023-05-17T12:08:53Z</time>
      </trkpt>
      <trkpt lat="49.96582" lon="2.43471">
        <ele>50.4</ele>
        <time>2023-05-17T12:08:54Z</time>
      </trkpt>
      <trkpt lat="49.96582" lon="2.4347">
        <ele>50.3</ele>
        <time>2023-05-17T12:08:55Z</time>
      </trkpt>
      <trkpt lat="49.96583" lon="2.43469">
        <ele>50.3</ele>
        <time>2023-05-17T12:08:56Z</time>
      </trkpt>
      <trkpt lat="49.96584" lon="2.43468">
        <ele>50.3</ele>
        <time>2023-05-17T12:08:57Z</time>
      </trkpt>
      <trkpt lat="49.96584" lon="2.43465">
        <ele>50.3</ele>
        <time>2023-05-17T12:08:59Z</time>
      </trkpt>
      <trkpt lat="49.96585" lon="2.43463">
        <ele>50.2</ele>
        <time>2023-05-17T12:09:00Z</time>
      </trkpt>
      <trkpt lat="49.96585" lon="2.4346">
        <ele>50.2</ele>
        <time>2023-05-17T12:09:01Z</time>
      </trkpt>
      <trkpt lat="49.96585" lon="2.43457">
        <ele>50.2</ele>
        <time>2023-05-17T12:09:02Z</time>
      </trkpt>
      <trkpt lat="49.96586" lon="2.43455">
        <ele>50.2</ele>
        <time>2023-05-17T12:09:03Z</time>
      </trkpt>
      <trkpt lat="49.96586" lon="2.43453">
        <ele>50.1</ele>
        <time>2023-05-17T12:09:04Z</time>
      </trkpt>
      <trkpt lat="49.96587" lon="2.43449">
        <ele>50.1</ele>
        <time>2023-05-17T12:09:06Z</time>
      </trkpt>
      <trkpt lat="49.96587" lon="2.43448">
        <ele>50.1</ele>
        <time>2023-05-17T12:09:07Z</time>
      </trkpt>
      <trkpt lat="49.96587" lon="2.43445">
        <ele>50.1</ele>
        <time>2023-05-17T12:09:08Z</time>
      </trkpt>
      <trkpt lat="49.96587" lon="2.43443">
        <ele>50.1</ele>
        <time>2023-05-17T12:09:09Z</time>
      </trkpt>
      <trkpt lat="49.96588" lon="2.43441">
        <ele>50.1</ele>
        <time>2023-05-17T12:09:10Z</time>
      </trkpt>
      <trkpt lat="49.96588" lon="2.4344">
        <ele>50.1</ele>
        <time>2023-05-17T12:09:11Z</time>
      </trkpt>
      <trkpt lat="49.96589" lon="2.43438">
        <ele>50</ele>
        <time>2023-05-17T12:09:12Z</time>
      </trkpt>
      <trkpt lat="49.96589" lon="2.43437">
        <ele>50</ele>
        <time>2023-05-17T12:09:13Z</time>
      </trkpt>
      <trkpt lat="49.9659" lon="2.43436">
        <ele>50</ele>
        <time>2023-05-17T12:09:14Z</time>
      </trkpt>
      <trkpt lat="49.96591" lon="2.43434">
        <ele>50</ele>
        <time>2023-05-17T12:09:15Z</time>
      </trkpt>
      <trkpt lat="49.96591" lon="2.43432">
        <ele>50</ele>
        <time>2023-05-17T12:09:17Z</time>
      </trkpt>
      <trkpt lat="49.96592" lon="2.4343">
        <ele>50</ele>
        <time>2023-05-17T12:09:18Z</time>
      </trkpt>
      <trkpt lat="49.96592" lon="2.43429">
        <ele>50</ele>
        <time>2023-05-17T12:09:19Z</time>
      </trkpt>
      <trkpt lat="49.96593" lon="2.43427">
        <ele>50</ele>
        <time>2023-05-17T12:09:20Z</time>
      </trkpt>
      <trkpt lat="49.96593" lon="2.43426">
        <ele>50</ele>
        <time>2023-05-17T12:09:21Z</time>
      </trkpt>
      <trkpt lat="49.96595" lon="2.43422">
        <ele>49.9</ele>
        <time>2023-05-17T12:09:23Z</time>
      </trkpt>
      <trkpt lat="49.96595" lon="2.43421">
        <ele>49.9</ele>
        <time>2023-05-17T12:09:24Z</time>
      </trkpt>
      <trkpt lat="49.96596" lon="2.4342">
        <ele>49.9</ele>
        <time>2023-05-17T12:09:25Z</time>
      </trkpt>
      <trkpt lat="49.96597" lon="2.43419">
        <ele>49.9</ele>
        <time>2023-05-17T12:09:26Z</time>
      </trkpt>
      <trkpt lat="49.96597" lon="2.43418">
        <ele>49.9</ele>
        <time>2023-05-17T12:09:27Z</time>
      </trkpt>
      <trkpt lat="49.96598" lon="2.43417">
        <ele>49.9</ele>
        <time>2023-05-17T12:09:29Z</time>
      </trkpt>
      <trkpt lat="49.96599" lon="2.43416">
        <ele>49.9</ele>
        <time>2023-05-17T12:09:30Z</time>
      </trkpt>
      <trkpt lat="49.966" lon="2.43415">
        <ele>49.9</ele>
        <time>2023-05-17T12:09:31Z</time>
      </trkpt>
      <trkpt lat="49.96601" lon="2.43413">
        <ele>49.9</ele>
        <time>2023-05-17T12:09:32Z</time>
      </trkpt>
      <trkpt lat="49.96602" lon="2.43411">
        <ele>49.8</ele>
        <time>2023-05-17T12:09:33Z</time>
      </trkpt>
      <trkpt lat="49.96602" lon="2.43409">
        <ele>49.8</ele>
        <time>2023-05-17T12:09:34Z</time>
      </trkpt>
      <trkpt lat="49.96603" lon="2.43407">
        <ele>49.8</ele>
        <time>2023-05-17T12:09:35Z</time>
      </trkpt>
      <trkpt lat="49.96604" lon="2.43405">
        <ele>49.8</ele>
        <time>2023-05-17T12:09:37Z</time>
      </trkpt>
      <trkpt lat="49.96605" lon="2.43403">
        <ele>49.8</ele>
        <time>2023-05-17T12:09:38Z</time>
      </trkpt>
      <trkpt lat="49.96606" lon="2.434">
        <ele>49.7</ele>
        <time>2023-05-17T12:09:39Z</time>
      </trkpt>
      <trkpt lat="49.96607" lon="2.43399">
        <ele>49.7</ele>
        <time>2023-05-17T12:09:40Z</time>
      </trkpt>
      <trkpt lat="49.96607" lon="2.43397">
        <ele>49.7</ele>
        <time>2023-05-17T12:09:41Z</time>
      </trkpt>
      <trkpt lat="49.96608" lon="2.43395">
        <ele>49.7</ele>
        <time>2023-05-17T12:09:42Z</time>
      </trkpt>
      <trkpt lat="49.96609" lon="2.43393">
        <ele>49.7</ele>
        <time>2023-05-17T12:09:43Z</time>
      </trkpt>
      <trkpt lat="49.96609" lon="2.43392">
        <ele>49.6</ele>
        <time>2023-05-17T12:09:44Z</time>
      </trkpt>
      <trkpt lat="49.96611" lon="2.43389">
        <ele>49.6</ele>
        <time>2023-05-17T12:09:46Z</time>
      </trkpt>
      <trkpt lat="49.96611" lon="2.43388">
        <ele>49.6</ele>
        <time>2023-05-17T12:09:47Z</time>
      </trkpt>
      <trkpt lat="49.96611" lon="2.43387">
        <ele>49.6</ele>
        <time>2023-05-17T12:09:48Z</time>
      </trkpt>
      <trkpt lat="49.96613" lon="2.43385">
        <ele>49.6</ele>
        <time>2023-05-17T12:09:49Z</time>
      </trkpt>
      <trkpt lat="49.96613" lon="2.43383">
        <ele>49.5</ele>
        <time>2023-05-17T12:09:50Z</time>
      </trkpt>
      <trkpt lat="49.96613" lon="2.43382">
        <ele>49.5</ele>
        <time>2023-05-17T12:09:51Z</time>
      </trkpt>
      <trkpt lat="49.96615" lon="2.4338">
        <ele>49.5</ele>
        <time>2023-05-17T12:09:53Z</time>
      </trkpt>
      <trkpt lat="49.96615" lon="2.43378">
        <ele>49.5</ele>
        <time>2023-05-17T12:09:54Z</time>
      </trkpt>
      <trkpt lat="49.96616" lon="2.43377">
        <ele>49.5</ele>
        <time>2023-05-17T12:09:55Z</time>
      </trkpt>
      <trkpt lat="49.96617" lon="2.43374">
        <ele>49.4</ele>
        <time>2023-05-17T12:09:56Z</time>
      </trkpt>
      <trkpt lat="49.96619" lon="2.43373">
        <ele>49.4</ele>
        <time>2023-05-17T12:09:57Z</time>
      </trkpt>
      <trkpt lat="49.96619" lon="2.43371">
        <ele>49.4</ele>
        <time>2023-05-17T12:09:58Z</time>
      </trkpt>
      <trkpt lat="49.9662" lon="2.4337">
        <ele>49.4</ele>
        <time>2023-05-17T12:09:59Z</time>
      </trkpt>
      <trkpt lat="49.96621" lon="2.43369">
        <ele>49.4</ele>
        <time>2023-05-17T12:10:01Z</time>
      </trkpt>
      <trkpt lat="49.96621" lon="2.43368">
        <ele>49.4</ele>
        <time>2023-05-17T12:10:02Z</time>
      </trkpt>
      <trkpt lat="49.96621" lon="2.43368">
        <ele>49.4</ele>
        <time>2023-05-17T12:10:03Z</time>
      </trkpt>
      <trkpt lat="49.96621" lon="2.43367">
        <ele>49.4</ele>
        <time>2023-05-17T12:10:04Z</time>
      </trkpt>
      <trkpt lat="49.96622" lon="2.43366">
        <ele>49.3</ele>
        <time>2023-05-17T12:10:05Z</time>
      </trkpt>
      <trkpt lat="49.96623" lon="2.43365">
        <ele>49.3</ele>
        <time>2023-05-17T12:10:07Z</time>
      </trkpt>
      <trkpt lat="49.96623" lon="2.43365">
        <ele>49.3</ele>
        <time>2023-05-17T12:10:08Z</time>
      </trkpt>
      <trkpt lat="49.96624" lon="2.43364">
        <ele>49.3</ele>
        <time>2023-05-17T12:10:09Z</time>
      </trkpt>
      <trkpt lat="49.96625" lon="2.43363">
        <ele>49.3</ele>
        <time>2023-05-17T12:10:10Z</time>
      </trkpt>
      <trkpt lat="49.96626" lon="2.43361">
        <ele>49.3</ele>
        <time>2023-05-17T12:10:11Z</time>
      </trkpt>
      <trkpt lat="49.96626" lon="2.43359">
        <ele>49.3</ele>
        <time>2023-05-17T12:10:12Z</time>
      </trkpt>
      <trkpt lat="49.96627" lon="2.43358">
        <ele>49.3</ele>
        <time>2023-05-17T12:10:13Z</time>
      </trkpt>
      <trkpt lat="49.96629" lon="2.43356">
        <ele>49.3</ele>
        <time>2023-05-17T12:10:14Z</time>
      </trkpt>
      <trkpt lat="49.9663" lon="2.43353">
        <ele>49.2</ele>
        <time>2023-05-17T12:10:16Z</time>
      </trkpt>
      <trkpt lat="49.96631" lon="2.43352">
        <ele>49.2</ele>
        <time>2023-05-17T12:10:17Z</time>
      </trkpt>
      <trkpt lat="49.96633" lon="2.43351">
        <ele>49.2</ele>
        <time>2023-05-17T12:10:18Z</time>
      </trkpt>
      <trkpt lat="49.96634" lon="2.43349">
        <ele>49.2</ele>
        <time>2023-05-17T12:10:19Z</time>
      </trkpt>
      <trkpt lat="49.96635" lon="2.43348">
        <ele>49.2</ele>
        <time>2023-05-17T12:10:20Z</time>
      </trkpt>
      <trkpt lat="49.96636" lon="2.43347">
        <ele>49.2</ele>
        <time>2023-05-17T12:10:21Z</time>
      </trkpt>
      <trkpt lat="49.96637" lon="2.43346">
        <ele>49.2</ele>
        <time>2023-05-17T12:10:22Z</time>
      </trkpt>
      <trkpt lat="49.96639" lon="2.43344">
        <ele>49.2</ele>
        <time>2023-05-17T12:10:24Z</time>
      </trkpt>
      <trkpt lat="49.9664" lon="2.43342">
        <ele>49.2</ele>
        <time>2023-05-17T12:10:25Z</time>
      </trkpt>
      <trkpt lat="49.96641" lon="2.43341">
        <ele>49.2</ele>
        <time>2023-05-17T12:10:26Z</time>
      </trkpt>
      <trkpt lat="49.96642" lon="2.43339">
        <ele>49.1</ele>
        <time>2023-05-17T12:10:27Z</time>
      </trkpt>
      <trkpt lat="49.96644" lon="2.43338">
        <ele>49.1</ele>
        <time>2023-05-17T12:10:28Z</time>
      </trkpt>
      <trkpt lat="49.96645" lon="2.43336">
        <ele>49.1</ele>
        <time>2023-05-17T12:10:30Z</time>
      </trkpt>
      <trkpt lat="49.96646" lon="2.43335">
        <ele>49.1</ele>
        <time>2023-05-17T12:10:31Z</time>
      </trkpt>
      <trkpt lat="49.96648" lon="2.43334">
        <ele>49.1</ele>
        <time>2023-05-17T12:10:32Z</time>
      </trkpt>
      <trkpt lat="49.96649" lon="2.43333">
        <ele>49.1</ele>
        <time>2023-05-17T12:10:33Z</time>
      </trkpt>
      <trkpt lat="49.96651" lon="2.43331">
        <ele>49.1</ele>
        <time>2023-05-17T12:10:34Z</time>
      </trkpt>
      <trkpt lat="49.96652" lon="2.4333">
        <ele>49.1</ele>
        <time>2023-05-17T12:10:35Z</time>
      </trkpt>
      <trkpt lat="49.96652" lon="2.43329">
        <ele>49.1</ele>
        <time>2023-05-17T12:10:36Z</time>
      </trkpt>
      <trkpt lat="49.96653" lon="2.43328">
        <ele>49.1</ele>
        <time>2023-05-17T12:10:37Z</time>
      </trkpt>
      <trkpt lat="49.96655" lon="2.43326">
        <ele>49.1</ele>
        <time>2023-05-17T12:10:39Z</time>
      </trkpt>
      <trkpt lat="49.96656" lon="2.43325">
        <ele>49.1</ele>
        <time>2023-05-17T12:10:40Z</time>
      </trkpt>
      <trkpt lat="49.96657" lon="2.43324">
        <ele>49.1</ele>
        <time>2023-05-17T12:10:41Z</time>
      </trkpt>
      <trkpt lat="49.96659" lon="2.43323">
        <ele>49.1</ele>
        <time>2023-05-17T12:10:43Z</time>
      </trkpt>
      <trkpt lat="49.9666" lon="2.43322">
        <ele>49.1</ele>
        <time>2023-05-17T12:10:44Z</time>
      </trkpt>
      <trkpt lat="49.96662" lon="2.43321">
        <ele>49.1</ele>
        <time>2023-05-17T12:10:45Z</time>
      </trkpt>
      <trkpt lat="49.96663" lon="2.4332">
        <ele>49.1</ele>
        <time>2023-05-17T12:10:46Z</time>
      </trkpt>
      <trkpt lat="49.96664" lon="2.43319">
        <ele>49.1</ele>
        <time>2023-05-17T12:10:47Z</time>
      </trkpt>
      <trkpt lat="49.96665" lon="2.43318">
        <ele>49.1</ele>
        <time>2023-05-17T12:10:48Z</time>
      </trkpt>
      <trkpt lat="49.96666" lon="2.43317">
        <ele>49.1</ele>
        <time>2023-05-17T12:10:49Z</time>
      </trkpt>
      <trkpt lat="49.96667" lon="2.43317">
        <ele>49.1</ele>
        <time>2023-05-17T12:10:50Z</time>
      </trkpt>
      <trkpt lat="49.96669" lon="2.43316">
        <ele>49.1</ele>
        <time>2023-05-17T12:10:52Z</time>
      </trkpt>
      <trkpt lat="49.9667" lon="2.43316">
        <ele>49.1</ele>
        <time>2023-05-17T12:10:53Z</time>
      </trkpt>
      <trkpt lat="49.96671" lon="2.43315">
        <ele>49.1</ele>
        <time>2023-05-17T12:10:54Z</time>
      </trkpt>
      <trkpt lat="49.96672" lon="2.43314">
        <ele>49.1</ele>
        <time>2023-05-17T12:10:55Z</time>
      </trkpt>
      <trkpt lat="49.96674" lon="2.43314">
        <ele>49.1</ele>
        <time>2023-05-17T12:10:57Z</time>
      </trkpt>
      <trkpt lat="49.96675" lon="2.43313">
        <ele>49.1</ele>
        <time>2023-05-17T12:10:58Z</time>
      </trkpt>
      <trkpt lat="49.96676" lon="2.43312">
        <ele>49.1</ele>
        <time>2023-05-17T12:10:59Z</time>
      </trkpt>
      <trkpt lat="49.96678" lon="2.43311">
        <ele>49.1</ele>
        <time>2023-05-17T12:11:00Z</time>
      </trkpt>
      <trkpt lat="49.96679" lon="2.4331">
        <ele>49.1</ele>
        <time>2023-05-17T12:11:01Z</time>
      </trkpt>
      <trkpt lat="49.9668" lon="2.43309">
        <ele>49.1</ele>
        <time>2023-05-17T12:11:02Z</time>
      </trkpt>
      <trkpt lat="49.96682" lon="2.43308">
        <ele>49.1</ele>
        <time>2023-05-17T12:11:03Z</time>
      </trkpt>
      <trkpt lat="49.96684" lon="2.43307">
        <ele>49.1</ele>
        <time>2023-05-17T12:11:05Z</time>
      </trkpt>
      <trkpt lat="49.96685" lon="2.43306">
        <ele>49.1</ele>
        <time>2023-05-17T12:11:06Z</time>
      </trkpt>
      <trkpt lat="49.96687" lon="2.43305">
        <ele>49.1</ele>
        <time>2023-05-17T12:11:07Z</time>
      </trkpt>
      <trkpt lat="49.96688" lon="2.43304">
        <ele>49.1</ele>
        <time>2023-05-17T12:11:08Z</time>
      </trkpt>
      <trkpt lat="49.96688" lon="2.43304">
        <ele>49.1</ele>
        <time>2023-05-17T12:11:09Z</time>
      </trkpt>
      <trkpt lat="49.96689" lon="2.43303">
        <ele>49.1</ele>
        <time>2023-05-17T12:11:10Z</time>
      </trkpt>
      <trkpt lat="49.96691" lon="2.43302">
        <ele>49.1</ele>
        <time>2023-05-17T12:11:11Z</time>
      </trkpt>
      <trkpt lat="49.96692" lon="2.43301">
        <ele>49.1</ele>
        <time>2023-05-17T12:11:13Z</time>
      </trkpt>
      <trkpt lat="49.96693" lon="2.433">
        <ele>49.1</ele>
        <time>2023-05-17T12:11:14Z</time>
      </trkpt>
      <trkpt lat="49.96695" lon="2.43299">
        <ele>49.1</ele>
        <time>2023-05-17T12:11:15Z</time>
      </trkpt>
      <trkpt lat="49.96696" lon="2.43298">
        <ele>49.2</ele>
        <time>2023-05-17T12:11:16Z</time>
      </trkpt>
      <trkpt lat="49.96697" lon="2.43297">
        <ele>49.2</ele>
        <time>2023-05-17T12:11:17Z</time>
      </trkpt>
      <trkpt lat="49.96699" lon="2.43295">
        <ele>49.2</ele>
        <time>2023-05-17T12:11:18Z</time>
      </trkpt>
      <trkpt lat="49.967" lon="2.43295">
        <ele>49.2</ele>
        <time>2023-05-17T12:11:20Z</time>
      </trkpt>
      <trkpt lat="49.96701" lon="2.43294">
        <ele>49.2</ele>
        <time>2023-05-17T12:11:21Z</time>
      </trkpt>
      <trkpt lat="49.96703" lon="2.43293">
        <ele>49.2</ele>
        <time>2023-05-17T12:11:22Z</time>
      </trkpt>
      <trkpt lat="49.96703" lon="2.43292">
        <ele>49.2</ele>
        <time>2023-05-17T12:11:23Z</time>
      </trkpt>
      <trkpt lat="49.96704" lon="2.43292">
        <ele>49.2</ele>
        <time>2023-05-17T12:11:24Z</time>
      </trkpt>
      <trkpt lat="49.96706" lon="2.43291">
        <ele>49.2</ele>
        <time>2023-05-17T12:11:25Z</time>
      </trkpt>
      <trkpt lat="49.96707" lon="2.4329">
        <ele>49.2</ele>
        <time>2023-05-17T12:11:26Z</time>
      </trkpt>
      <trkpt lat="49.96708" lon="2.43289">
        <ele>49.2</ele>
        <time>2023-05-17T12:11:27Z</time>
      </trkpt>
      <trkpt lat="49.96709" lon="2.43288">
        <ele>49.2</ele>
        <time>2023-05-17T12:11:28Z</time>
      </trkpt>
      <trkpt lat="49.96711" lon="2.43286">
        <ele>49.2</ele>
        <time>2023-05-17T12:11:30Z</time>
      </trkpt>
      <trkpt lat="49.96713" lon="2.43285">
        <ele>49.2</ele>
        <time>2023-05-17T12:11:31Z</time>
      </trkpt>
      <trkpt lat="49.96714" lon="2.43284">
        <ele>49.2</ele>
        <time>2023-05-17T12:11:32Z</time>
      </trkpt>
      <trkpt lat="49.96715" lon="2.43283">
        <ele>49.3</ele>
        <time>2023-05-17T12:11:34Z</time>
      </trkpt>
      <trkpt lat="49.96716" lon="2.43283">
        <ele>49.3</ele>
        <time>2023-05-17T12:11:35Z</time>
      </trkpt>
      <trkpt lat="49.96717" lon="2.43282">
        <ele>49.3</ele>
        <time>2023-05-17T12:11:36Z</time>
      </trkpt>
      <trkpt lat="49.96717" lon="2.43282">
        <ele>49.3</ele>
        <time>2023-05-17T12:11:37Z</time>
      </trkpt>
      <trkpt lat="49.96719" lon="2.43281">
        <ele>49.3</ele>
        <time>2023-05-17T12:11:38Z</time>
      </trkpt>
      <trkpt lat="49.9672" lon="2.4328">
        <ele>49.3</ele>
        <time>2023-05-17T12:11:39Z</time>
      </trkpt>
      <trkpt lat="49.96721" lon="2.43278">
        <ele>49.3</ele>
        <time>2023-05-17T12:11:41Z</time>
      </trkpt>
      <trkpt lat="49.96722" lon="2.43277">
        <ele>49.3</ele>
        <time>2023-05-17T12:11:42Z</time>
      </trkpt>
      <trkpt lat="49.96723" lon="2.43276">
        <ele>49.3</ele>
        <time>2023-05-17T12:11:43Z</time>
      </trkpt>
      <trkpt lat="49.96724" lon="2.43275">
        <ele>49.3</ele>
        <time>2023-05-17T12:11:44Z</time>
      </trkpt>
      <trkpt lat="49.96725" lon="2.43274">
        <ele>49.3</ele>
        <time>2023-05-17T12:11:45Z</time>
      </trkpt>
      <trkpt lat="49.96726" lon="2.43273">
        <ele>49.3</ele>
        <time>2023-05-17T12:11:46Z</time>
      </trkpt>
      <trkpt lat="49.96727" lon="2.43272">
        <ele>49.3</ele>
        <time>2023-05-17T12:11:47Z</time>
      </trkpt>
      <trkpt lat="49.96728" lon="2.43271">
        <ele>49.3</ele>
        <time>2023-05-17T12:11:48Z</time>
      </trkpt>
      <trkpt lat="49.96729" lon="2.43269">
        <ele>49.3</ele>
        <time>2023-05-17T12:11:50Z</time>
      </trkpt>
      <trkpt lat="49.9673" lon="2.43268">
        <ele>49.3</ele>
        <time>2023-05-17T12:11:51Z</time>
      </trkpt>
      <trkpt lat="49.96731" lon="2.43267">
        <ele>49.3</ele>
        <time>2023-05-17T12:11:52Z</time>
      </trkpt>
      <trkpt lat="49.96732" lon="2.43264">
        <ele>49.3</ele>
        <time>2023-05-17T12:11:53Z</time>
      </trkpt>
      <trkpt lat="49.96733" lon="2.43263">
        <ele>49.3</ele>
        <time>2023-05-17T12:11:54Z</time>
      </trkpt>
      <trkpt lat="49.96733" lon="2.43262">
        <ele>49.3</ele>
        <time>2023-05-17T12:11:55Z</time>
      </trkpt>
      <trkpt lat="49.96734" lon="2.4326">
        <ele>49.3</ele>
        <time>2023-05-17T12:11:56Z</time>
      </trkpt>
      <trkpt lat="49.96735" lon="2.43258">
        <ele>49.3</ele>
        <time>2023-05-17T12:11:57Z</time>
      </trkpt>
      <trkpt lat="49.96736" lon="2.43256">
        <ele>49.3</ele>
        <time>2023-05-17T12:11:59Z</time>
      </trkpt>
      <trkpt lat="49.96737" lon="2.43254">
        <ele>49.3</ele>
        <time>2023-05-17T12:12:00Z</time>
      </trkpt>
      <trkpt lat="49.96738" lon="2.43252">
        <ele>49.3</ele>
        <time>2023-05-17T12:12:01Z</time>
      </trkpt>
      <trkpt lat="49.96739" lon="2.4325">
        <ele>49.3</ele>
        <time>2023-05-17T12:12:02Z</time>
      </trkpt>
      <trkpt lat="49.96739" lon="2.43248">
        <ele>49.3</ele>
        <time>2023-05-17T12:12:03Z</time>
      </trkpt>
      <trkpt lat="49.9674" lon="2.43247">
        <ele>49.3</ele>
        <time>2023-05-17T12:12:05Z</time>
      </trkpt>
      <trkpt lat="49.9674" lon="2.43246">
        <ele>49.3</ele>
        <time>2023-05-17T12:12:06Z</time>
      </trkpt>
      <trkpt lat="49.96741" lon="2.43245">
        <ele>49.3</ele>
        <time>2023-05-17T12:12:07Z</time>
      </trkpt>
      <trkpt lat="49.96741" lon="2.43243">
        <ele>49.3</ele>
        <time>2023-05-17T12:12:08Z</time>
      </trkpt>
      <trkpt lat="49.96742" lon="2.43242">
        <ele>49.3</ele>
        <time>2023-05-17T12:12:09Z</time>
      </trkpt>
      <trkpt lat="49.96743" lon="2.43241">
        <ele>49.3</ele>
        <time>2023-05-17T12:12:10Z</time>
      </trkpt>
      <trkpt lat="49.96743" lon="2.43239">
        <ele>49.3</ele>
        <time>2023-05-17T12:12:11Z</time>
      </trkpt>
      <trkpt lat="49.96744" lon="2.43237">
        <ele>49.4</ele>
        <time>2023-05-17T12:12:13Z</time>
      </trkpt>
      <trkpt lat="49.96745" lon="2.43236">
        <ele>49.4</ele>
        <time>2023-05-17T12:12:14Z</time>
      </trkpt>
      <trkpt lat="49.96746" lon="2.43234">
        <ele>49.4</ele>
        <time>2023-05-17T12:12:15Z</time>
      </trkpt>
      <trkpt lat="49.96747" lon="2.43233">
        <ele>49.4</ele>
        <time>2023-05-17T12:12:16Z</time>
      </trkpt>
      <trkpt lat="49.96748" lon="2.43232">
        <ele>49.3</ele>
        <time>2023-05-17T12:12:17Z</time>
      </trkpt>
      <trkpt lat="49.96749" lon="2.4323">
        <ele>49.3</ele>
        <time>2023-05-17T12:12:18Z</time>
      </trkpt>
      <trkpt lat="49.96751" lon="2.43228">
        <ele>49.3</ele>
        <time>2023-05-17T12:12:20Z</time>
      </trkpt>
      <trkpt lat="49.96752" lon="2.43227">
        <ele>49.2</ele>
        <time>2023-05-17T12:12:21Z</time>
      </trkpt>
      <trkpt lat="49.96754" lon="2.43226">
        <ele>49.2</ele>
        <time>2023-05-17T12:12:22Z</time>
      </trkpt>
      <trkpt lat="49.96755" lon="2.43226">
        <ele>49.2</ele>
        <time>2023-05-17T12:12:23Z</time>
      </trkpt>
      <trkpt lat="49.96757" lon="2.43225">
        <ele>49.1</ele>
        <time>2023-05-17T12:12:24Z</time>
      </trkpt>
      <trkpt lat="49.96758" lon="2.43224">
        <ele>49.1</ele>
        <time>2023-05-17T12:12:25Z</time>
      </trkpt>
      <trkpt lat="49.96759" lon="2.43223">
        <ele>49.1</ele>
        <time>2023-05-17T12:12:27Z</time>
      </trkpt>
      <trkpt lat="49.96761" lon="2.43223">
        <ele>49</ele>
        <time>2023-05-17T12:12:28Z</time>
      </trkpt>
      <trkpt lat="49.96763" lon="2.43222">
        <ele>49</ele>
        <time>2023-05-17T12:12:29Z</time>
      </trkpt>
      <trkpt lat="49.96765" lon="2.43221">
        <ele>48.9</ele>
        <time>2023-05-17T12:12:30Z</time>
      </trkpt>
      <trkpt lat="49.96765" lon="2.43221">
        <ele>48.9</ele>
        <time>2023-05-17T12:12:31Z</time>
      </trkpt>
      <trkpt lat="49.96766" lon="2.43221">
        <ele>48.9</ele>
        <time>2023-05-17T12:12:32Z</time>
      </trkpt>
      <trkpt lat="49.96769" lon="2.4322">
        <ele>48.8</ele>
        <time>2023-05-17T12:12:33Z</time>
      </trkpt>
      <trkpt lat="49.9677" lon="2.4322">
        <ele>48.8</ele>
        <time>2023-05-17T12:12:34Z</time>
      </trkpt>
      <trkpt lat="49.96771" lon="2.4322">
        <ele>48.8</ele>
        <time>2023-05-17T12:12:36Z</time>
      </trkpt>
      <trkpt lat="49.96772" lon="2.4322">
        <ele>48.8</ele>
        <time>2023-05-17T12:12:37Z</time>
      </trkpt>
      <trkpt lat="49.96773" lon="2.43219">
        <ele>48.8</ele>
        <time>2023-05-17T12:12:38Z</time>
      </trkpt>
      <trkpt lat="49.96774" lon="2.43219">
        <ele>48.7</ele>
        <time>2023-05-17T12:12:39Z</time>
      </trkpt>
      <trkpt lat="49.96775" lon="2.43219">
        <ele>48.7</ele>
        <time>2023-05-17T12:12:40Z</time>
      </trkpt>
      <trkpt lat="49.96777" lon="2.43219">
        <ele>48.7</ele>
        <time>2023-05-17T12:12:41Z</time>
      </trkpt>
      <trkpt lat="49.96778" lon="2.43219">
        <ele>48.7</ele>
        <time>2023-05-17T12:12:43Z</time>
      </trkpt>
      <trkpt lat="49.96779" lon="2.43219">
        <ele>48.7</ele>
        <time>2023-05-17T12:12:44Z</time>
      </trkpt>
      <trkpt lat="49.96781" lon="2.43219">
        <ele>48.6</ele>
        <time>2023-05-17T12:12:45Z</time>
      </trkpt>
      <trkpt lat="49.96782" lon="2.43219">
        <ele>48.6</ele>
        <time>2023-05-17T12:12:46Z</time>
      </trkpt>
      <trkpt lat="49.96782" lon="2.43219">
        <ele>48.6</ele>
        <time>2023-05-17T12:12:47Z</time>
      </trkpt>
      <trkpt lat="49.96783" lon="2.43219">
        <ele>48.6</ele>
        <time>2023-05-17T12:12:48Z</time>
      </trkpt>
      <trkpt lat="49.96784" lon="2.43219">
        <ele>48.6</ele>
        <time>2023-05-17T12:12:49Z</time>
      </trkpt>
      <trkpt lat="49.96785" lon="2.43218">
        <ele>48.6</ele>
        <time>2023-05-17T12:12:50Z</time>
      </trkpt>
      <trkpt lat="49.96786" lon="2.43218">
        <ele>48.6</ele>
        <time>2023-05-17T12:12:51Z</time>
      </trkpt>
      <trkpt lat="49.96788" lon="2.43218">
        <ele>48.5</ele>
        <time>2023-05-17T12:12:52Z</time>
      </trkpt>
      <trkpt lat="49.96789" lon="2.43218">
        <ele>48.5</ele>
        <time>2023-05-17T12:12:54Z</time>
      </trkpt>
      <trkpt lat="49.96791" lon="2.43218">
        <ele>48.5</ele>
        <time>2023-05-17T12:12:55Z</time>
      </trkpt>
      <trkpt lat="49.96792" lon="2.43218">
        <ele>48.5</ele>
        <time>2023-05-17T12:12:56Z</time>
      </trkpt>
      <trkpt lat="49.96794" lon="2.43218">
        <ele>48.5</ele>
        <time>2023-05-17T12:12:57Z</time>
      </trkpt>
      <trkpt lat="49.96795" lon="2.43218">
        <ele>48.5</ele>
        <time>2023-05-17T12:12:58Z</time>
      </trkpt>
      <trkpt lat="49.96797" lon="2.43218">
        <ele>48.4</ele>
        <time>2023-05-17T12:12:59Z</time>
      </trkpt>
      <trkpt lat="49.96798" lon="2.43218">
        <ele>48.4</ele>
        <time>2023-05-17T12:13:01Z</time>
      </trkpt>
      <trkpt lat="49.96799" lon="2.43218">
        <ele>48.4</ele>
        <time>2023-05-17T12:13:02Z</time>
      </trkpt>
      <trkpt lat="49.968" lon="2.43217">
        <ele>48.4</ele>
        <time>2023-05-17T12:13:03Z</time>
      </trkpt>
      <trkpt lat="49.96802" lon="2.43217">
        <ele>48.4</ele>
        <time>2023-05-17T12:13:04Z</time>
      </trkpt>
      <trkpt lat="49.96803" lon="2.43217">
        <ele>48.4</ele>
        <time>2023-05-17T12:13:05Z</time>
      </trkpt>
      <trkpt lat="49.96804" lon="2.43217">
        <ele>48.4</ele>
        <time>2023-05-17T12:13:06Z</time>
      </trkpt>
      <trkpt lat="49.96805" lon="2.43216">
        <ele>48.4</ele>
        <time>2023-05-17T12:13:07Z</time>
      </trkpt>
      <trkpt lat="49.96807" lon="2.43216">
        <ele>48.3</ele>
        <time>2023-05-17T12:13:09Z</time>
      </trkpt>
      <trkpt lat="49.96808" lon="2.43216">
        <ele>48.3</ele>
        <time>2023-05-17T12:13:10Z</time>
      </trkpt>
      <trkpt lat="49.96809" lon="2.43216">
        <ele>48.3</ele>
        <time>2023-05-17T12:13:11Z</time>
      </trkpt>
      <trkpt lat="49.96811" lon="2.43216">
        <ele>48.3</ele>
        <time>2023-05-17T12:13:12Z</time>
      </trkpt>
      <trkpt lat="49.96812" lon="2.43216">
        <ele>48.3</ele>
        <time>2023-05-17T12:13:13Z</time>
      </trkpt>
      <trkpt lat="49.96814" lon="2.43215">
        <ele>48.3</ele>
        <time>2023-05-17T12:13:14Z</time>
      </trkpt>
      <trkpt lat="49.96816" lon="2.43215">
        <ele>48.3</ele>
        <time>2023-05-17T12:13:15Z</time>
      </trkpt>
      <trkpt lat="49.96818" lon="2.43215">
        <ele>48.3</ele>
        <time>2023-05-17T12:13:16Z</time>
      </trkpt>
      <trkpt lat="49.96819" lon="2.43214">
        <ele>48.3</ele>
        <time>2023-05-17T12:13:17Z</time>
      </trkpt>
      <trkpt lat="49.96821" lon="2.43214">
        <ele>48.3</ele>
        <time>2023-05-17T12:13:19Z</time>
      </trkpt>
      <trkpt lat="49.96822" lon="2.43214">
        <ele>48.3</ele>
        <time>2023-05-17T12:13:20Z</time>
      </trkpt>
      <trkpt lat="49.96823" lon="2.43214">
        <ele>48.3</ele>
        <time>2023-05-17T12:13:21Z</time>
      </trkpt>
      <trkpt lat="49.96824" lon="2.43214">
        <ele>48.3</ele>
        <time>2023-05-17T12:13:22Z</time>
      </trkpt>
      <trkpt lat="49.96825" lon="2.43214">
        <ele>48.3</ele>
        <time>2023-05-17T12:13:23Z</time>
      </trkpt>
      <trkpt lat="49.96826" lon="2.43214">
        <ele>48.3</ele>
        <time>2023-05-17T12:13:24Z</time>
      </trkpt>
      <trkpt lat="49.96828" lon="2.43214">
        <ele>48.3</ele>
        <time>2023-05-17T12:13:25Z</time>
      </trkpt>
      <trkpt lat="49.96829" lon="2.43214">
        <ele>48.3</ele>
        <time>2023-05-17T12:13:27Z</time>
      </trkpt>
      <trkpt lat="49.96831" lon="2.43215">
        <ele>48.2</ele>
        <time>2023-05-17T12:13:28Z</time>
      </trkpt>
      <trkpt lat="49.96832" lon="2.43215">
        <ele>48.2</ele>
        <time>2023-05-17T12:13:29Z</time>
      </trkpt>
      <trkpt lat="49.96833" lon="2.43215">
        <ele>48.2</ele>
        <time>2023-05-17T12:13:30Z</time>
      </trkpt>
      <trkpt lat="49.96834" lon="2.43215">
        <ele>48.2</ele>
        <time>2023-05-17T12:13:31Z</time>
      </trkpt>
      <trkpt lat="49.96835" lon="2.43215">
        <ele>48.2</ele>
        <time>2023-05-17T12:13:32Z</time>
      </trkpt>
      <trkpt lat="49.96836" lon="2.43215">
        <ele>48.2</ele>
        <time>2023-05-17T12:13:34Z</time>
      </trkpt>
      <trkpt lat="49.96837" lon="2.43215">
        <ele>48.2</ele>
        <time>2023-05-17T12:13:35Z</time>
      </trkpt>
      <trkpt lat="49.96839" lon="2.43215">
        <ele>48.2</ele>
        <time>2023-05-17T12:13:36Z</time>
      </trkpt>
      <trkpt lat="49.9684" lon="2.43215">
        <ele>48.2</ele>
        <time>2023-05-17T12:13:37Z</time>
      </trkpt>
      <trkpt lat="49.96841" lon="2.43215">
        <ele>48.2</ele>
        <time>2023-05-17T12:13:38Z</time>
      </trkpt>
      <trkpt lat="49.96842" lon="2.43215">
        <ele>48.2</ele>
        <time>2023-05-17T12:13:39Z</time>
      </trkpt>
      <trkpt lat="49.96843" lon="2.43214">
        <ele>48.2</ele>
        <time>2023-05-17T12:13:40Z</time>
      </trkpt>
      <trkpt lat="49.96845" lon="2.43214">
        <ele>48.2</ele>
        <time>2023-05-17T12:13:41Z</time>
      </trkpt>
      <trkpt lat="49.96846" lon="2.43214">
        <ele>48.2</ele>
        <time>2023-05-17T12:13:42Z</time>
      </trkpt>
      <trkpt lat="49.96847" lon="2.43214">
        <ele>48.2</ele>
        <time>2023-05-17T12:13:44Z</time>
      </trkpt>
      <trkpt lat="49.9685" lon="2.43213">
        <ele>48.1</ele>
        <time>2023-05-17T12:13:45Z</time>
      </trkpt>
      <trkpt lat="49.9685" lon="2.43213">
        <ele>48.1</ele>
        <time>2023-05-17T12:13:46Z</time>
      </trkpt>
      <trkpt lat="49.96851" lon="2.43212">
        <ele>48.1</ele>
        <time>2023-05-17T12:13:47Z</time>
      </trkpt>
      <trkpt lat="49.96853" lon="2.43212">
        <ele>48.1</ele>
        <time>2023-05-17T12:13:48Z</time>
      </trkpt>
      <trkpt lat="49.96854" lon="2.43212">
        <ele>48.1</ele>
        <time>2023-05-17T12:13:49Z</time>
      </trkpt>
      <trkpt lat="49.96855" lon="2.43211">
        <ele>48.1</ele>
        <time>2023-05-17T12:13:50Z</time>
      </trkpt>
      <trkpt lat="49.96856" lon="2.43211">
        <ele>48.1</ele>
        <time>2023-05-17T12:13:51Z</time>
      </trkpt>
      <trkpt lat="49.96858" lon="2.43211">
        <ele>48.1</ele>
        <time>2023-05-17T12:13:53Z</time>
      </trkpt>
      <trkpt lat="49.96859" lon="2.43211">
        <ele>48.1</ele>
        <time>2023-05-17T12:13:54Z</time>
      </trkpt>
      <trkpt lat="49.96861" lon="2.43211">
        <ele>48.1</ele>
        <time>2023-05-17T12:13:55Z</time>
      </trkpt>
      <trkpt lat="49.96863" lon="2.4321">
        <ele>48.1</ele>
        <time>2023-05-17T12:13:56Z</time>
      </trkpt>
      <trkpt lat="49.96863" lon="2.4321">
        <ele>48.1</ele>
        <time>2023-05-17T12:13:57Z</time>
      </trkpt>
      <trkpt lat="49.96864" lon="2.4321">
        <ele>48.1</ele>
        <time>2023-05-17T12:13:58Z</time>
      </trkpt>
      <trkpt lat="49.96866" lon="2.4321">
        <ele>48.1</ele>
        <time>2023-05-17T12:13:59Z</time>
      </trkpt>
      <trkpt lat="49.96867" lon="2.4321">
        <ele>48.1</ele>
        <time>2023-05-17T12:14:00Z</time>
      </trkpt>
      <trkpt lat="49.96868" lon="2.4321">
        <ele>48.1</ele>
        <time>2023-05-17T12:14:01Z</time>
      </trkpt>
      <trkpt lat="49.9687" lon="2.43209">
        <ele>48.1</ele>
        <time>2023-05-17T12:14:03Z</time>
      </trkpt>
      <trkpt lat="49.96871" lon="2.4321">
        <ele>48.1</ele>
        <time>2023-05-17T12:14:04Z</time>
      </trkpt>
      <trkpt lat="49.96873" lon="2.4321">
        <ele>48.1</ele>
        <time>2023-05-17T12:14:05Z</time>
      </trkpt>
      <trkpt lat="49.96874" lon="2.4321">
        <ele>48.1</ele>
        <time>2023-05-17T12:14:06Z</time>
      </trkpt>
      <trkpt lat="49.96875" lon="2.4321">
        <ele>48.1</ele>
        <time>2023-05-17T12:14:07Z</time>
      </trkpt>
      <trkpt lat="49.96877" lon="2.43209">
        <ele>48.1</ele>
        <time>2023-05-17T12:14:08Z</time>
      </trkpt>
      <trkpt lat="49.96878" lon="2.43209">
        <ele>48.1</ele>
        <time>2023-05-17T12:14:09Z</time>
      </trkpt>
      <trkpt lat="49.9688" lon="2.43209">
        <ele>48.1</ele>
        <time>2023-05-17T12:14:10Z</time>
      </trkpt>
      <trkpt lat="49.96882" lon="2.43209">
        <ele>48.1</ele>
        <time>2023-05-17T12:14:11Z</time>
      </trkpt>
      <trkpt lat="49.96883" lon="2.43209">
        <ele>48.1</ele>
        <time>2023-05-17T12:14:13Z</time>
      </trkpt>
      <trkpt lat="49.96884" lon="2.43208">
        <ele>48.1</ele>
        <time>2023-05-17T12:14:14Z</time>
      </trkpt>
      <trkpt lat="49.96885" lon="2.43208">
        <ele>48.1</ele>
        <time>2023-05-17T12:14:15Z</time>
      </trkpt>
      <trkpt lat="49.96887" lon="2.43208">
        <ele>48.1</ele>
        <time>2023-05-17T12:14:16Z</time>
      </trkpt>
      <trkpt lat="49.96889" lon="2.43208">
        <ele>48.1</ele>
        <time>2023-05-17T12:14:17Z</time>
      </trkpt>
      <trkpt lat="49.9689" lon="2.43207">
        <ele>48.1</ele>
        <time>2023-05-17T12:14:18Z</time>
      </trkpt>
      <trkpt lat="49.96892" lon="2.43207">
        <ele>48.1</ele>
        <time>2023-05-17T12:14:19Z</time>
      </trkpt>
      <trkpt lat="49.96893" lon="2.43207">
        <ele>48.1</ele>
        <time>2023-05-17T12:14:21Z</time>
      </trkpt>
      <trkpt lat="49.96894" lon="2.43207">
        <ele>48.1</ele>
        <time>2023-05-17T12:14:22Z</time>
      </trkpt>
      <trkpt lat="49.96896" lon="2.43206">
        <ele>48.1</ele>
        <time>2023-05-17T12:14:23Z</time>
      </trkpt>
      <trkpt lat="49.96897" lon="2.43206">
        <ele>48.1</ele>
        <time>2023-05-17T12:14:24Z</time>
      </trkpt>
      <trkpt lat="49.96898" lon="2.43206">
        <ele>48.1</ele>
        <time>2023-05-17T12:14:25Z</time>
      </trkpt>
      <trkpt lat="49.96899" lon="2.43206">
        <ele>48.1</ele>
        <time>2023-05-17T12:14:26Z</time>
      </trkpt>
      <trkpt lat="49.969" lon="2.43206">
        <ele>48.1</ele>
        <time>2023-05-17T12:14:27Z</time>
      </trkpt>
      <trkpt lat="49.96902" lon="2.43206">
        <ele>48.1</ele>
        <time>2023-05-17T12:14:29Z</time>
      </trkpt>
      <trkpt lat="49.96904" lon="2.43205">
        <ele>48.1</ele>
        <time>2023-05-17T12:14:30Z</time>
      </trkpt>
      <trkpt lat="49.96905" lon="2.43205">
        <ele>48.1</ele>
        <time>2023-05-17T12:14:31Z</time>
      </trkpt>
      <trkpt lat="49.96907" lon="2.43205">
        <ele>48.1</ele>
        <time>2023-05-17T12:14:32Z</time>
      </trkpt>
      <trkpt lat="49.96908" lon="2.43205">
        <ele>48.1</ele>
        <time>2023-05-17T12:14:33Z</time>
      </trkpt>
      <trkpt lat="49.96909" lon="2.43205">
        <ele>48.1</ele>
        <time>2023-05-17T12:14:34Z</time>
      </trkpt>
      <trkpt lat="49.96911" lon="2.43205">
        <ele>48.1</ele>
        <time>2023-05-17T12:14:35Z</time>
      </trkpt>
      <trkpt lat="49.96913" lon="2.43204">
        <ele>48</ele>
        <time>2023-05-17T12:14:37Z</time>
      </trkpt>
      <trkpt lat="49.96915" lon="2.43204">
        <ele>48</ele>
        <time>2023-05-17T12:14:38Z</time>
      </trkpt>
      <trkpt lat="49.96916" lon="2.43203">
        <ele>48</ele>
        <time>2023-05-17T12:14:39Z</time>
      </trkpt>
      <trkpt lat="49.96917" lon="2.43203">
        <ele>48</ele>
        <time>2023-05-17T12:14:40Z</time>
      </trkpt>
      <trkpt lat="49.96918" lon="2.43204">
        <ele>48</ele>
        <time>2023-05-17T12:14:41Z</time>
      </trkpt>
      <trkpt lat="49.9692" lon="2.43204">
        <ele>48</ele>
        <time>2023-05-17T12:14:43Z</time>
      </trkpt>
      <trkpt lat="49.96923" lon="2.43204">
        <ele>48</ele>
        <time>2023-05-17T12:14:44Z</time>
      </trkpt>
      <trkpt lat="49.96924" lon="2.43204">
        <ele>48</ele>
        <time>2023-05-17T12:14:45Z</time>
      </trkpt>
      <trkpt lat="49.96924" lon="2.43203">
        <ele>47.9</ele>
        <time>2023-05-17T12:14:46Z</time>
      </trkpt>
      <trkpt lat="49.96926" lon="2.43204">
        <ele>47.9</ele>
        <time>2023-05-17T12:14:48Z</time>
      </trkpt>
      <trkpt lat="49.96928" lon="2.43204">
        <ele>47.9</ele>
        <time>2023-05-17T12:14:49Z</time>
      </trkpt>
      <trkpt lat="49.96929" lon="2.43204">
        <ele>47.9</ele>
        <time>2023-05-17T12:14:50Z</time>
      </trkpt>
      <trkpt lat="49.96931" lon="2.43204">
        <ele>47.9</ele>
        <time>2023-05-17T12:14:51Z</time>
      </trkpt>
      <trkpt lat="49.96932" lon="2.43204">
        <ele>47.9</ele>
        <time>2023-05-17T12:14:52Z</time>
      </trkpt>
      <trkpt lat="49.96933" lon="2.43204">
        <ele>47.9</ele>
        <time>2023-05-17T12:14:53Z</time>
      </trkpt>
      <trkpt lat="49.96933" lon="2.43204">
        <ele>47.9</ele>
        <time>2023-05-17T12:14:54Z</time>
      </trkpt>
      <trkpt lat="49.96935" lon="2.43204">
        <ele>47.9</ele>
        <time>2023-05-17T12:14:55Z</time>
      </trkpt>
      <trkpt lat="49.96937" lon="2.43204">
        <ele>47.9</ele>
        <time>2023-05-17T12:14:57Z</time>
      </trkpt>
      <trkpt lat="49.96938" lon="2.43204">
        <ele>47.9</ele>
        <time>2023-05-17T12:14:58Z</time>
      </trkpt>
      <trkpt lat="49.96939" lon="2.43204">
        <ele>47.9</ele>
        <time>2023-05-17T12:14:59Z</time>
      </trkpt>
      <trkpt lat="49.96941" lon="2.43203">
        <ele>47.9</ele>
        <time>2023-05-17T12:15:00Z</time>
      </trkpt>
      <trkpt lat="49.96942" lon="2.43203">
        <ele>47.9</ele>
        <time>2023-05-17T12:15:01Z</time>
      </trkpt>
      <trkpt lat="49.96944" lon="2.43203">
        <ele>47.9</ele>
        <time>2023-05-17T12:15:02Z</time>
      </trkpt>
      <trkpt lat="49.96945" lon="2.43203">
        <ele>47.9</ele>
        <time>2023-05-17T12:15:03Z</time>
      </trkpt>
      <trkpt lat="49.96946" lon="2.43203">
        <ele>47.9</ele>
        <time>2023-05-17T12:15:04Z</time>
      </trkpt>
      <trkpt lat="49.96948" lon="2.43203">
        <ele>47.9</ele>
        <time>2023-05-17T12:15:06Z</time>
      </trkpt>
      <trkpt lat="49.96949" lon="2.43203">
        <ele>47.9</ele>
        <time>2023-05-17T12:15:07Z</time>
      </trkpt>
      <trkpt lat="49.9695" lon="2.43203">
        <ele>48</ele>
        <time>2023-05-17T12:15:08Z</time>
      </trkpt>
      <trkpt lat="49.96951" lon="2.43202">
        <ele>48</ele>
        <time>2023-05-17T12:15:09Z</time>
      </trkpt>
      <trkpt lat="49.96952" lon="2.43202">
        <ele>48</ele>
        <time>2023-05-17T12:15:10Z</time>
      </trkpt>
      <trkpt lat="49.96954" lon="2.43202">
        <ele>48</ele>
        <time>2023-05-17T12:15:12Z</time>
      </trkpt>
      <trkpt lat="49.96956" lon="2.43201">
        <ele>48</ele>
        <time>2023-05-17T12:15:13Z</time>
      </trkpt>
      <trkpt lat="49.96957" lon="2.43201">
        <ele>48</ele>
        <time>2023-05-17T12:15:14Z</time>
      </trkpt>
      <trkpt lat="49.96958" lon="2.43201">
        <ele>48</ele>
        <time>2023-05-17T12:15:15Z</time>
      </trkpt>
      <trkpt lat="49.9696" lon="2.432">
        <ele>48</ele>
        <time>2023-05-17T12:15:16Z</time>
      </trkpt>
      <trkpt lat="49.96961" lon="2.432">
        <ele>48</ele>
        <time>2023-05-17T12:15:18Z</time>
      </trkpt>
      <trkpt lat="49.96962" lon="2.432">
        <ele>48</ele>
        <time>2023-05-17T12:15:19Z</time>
      </trkpt>
      <trkpt lat="49.96963" lon="2.43199">
        <ele>48</ele>
        <time>2023-05-17T12:15:20Z</time>
      </trkpt>
      <trkpt lat="49.96965" lon="2.43199">
        <ele>48</ele>
        <time>2023-05-17T12:15:21Z</time>
      </trkpt>
      <trkpt lat="49.96966" lon="2.43199">
        <ele>48</ele>
        <time>2023-05-17T12:15:22Z</time>
      </trkpt>
      <trkpt lat="49.96967" lon="2.43198">
        <ele>48</ele>
        <time>2023-05-17T12:15:23Z</time>
      </trkpt>
      <trkpt lat="49.96968" lon="2.43198">
        <ele>48</ele>
        <time>2023-05-17T12:15:25Z</time>
      </trkpt>
      <trkpt lat="49.96969" lon="2.43198">
        <ele>48</ele>
        <time>2023-05-17T12:15:26Z</time>
      </trkpt>
      <trkpt lat="49.9697" lon="2.43198">
        <ele>48</ele>
        <time>2023-05-17T12:15:27Z</time>
      </trkpt>
      <trkpt lat="49.96972" lon="2.43197">
        <ele>48</ele>
        <time>2023-05-17T12:15:28Z</time>
      </trkpt>
      <trkpt lat="49.96973" lon="2.43197">
        <ele>48</ele>
        <time>2023-05-17T12:15:29Z</time>
      </trkpt>
      <trkpt lat="49.96976" lon="2.43197">
        <ele>48</ele>
        <time>2023-05-17T12:15:30Z</time>
      </trkpt>
      <trkpt lat="49.96976" lon="2.43197">
        <ele>48</ele>
        <time>2023-05-17T12:15:31Z</time>
      </trkpt>
      <trkpt lat="49.96977" lon="2.43197">
        <ele>48</ele>
        <time>2023-05-17T12:15:32Z</time>
      </trkpt>
      <trkpt lat="49.96978" lon="2.43197">
        <ele>48</ele>
        <time>2023-05-17T12:15:33Z</time>
      </trkpt>
      <trkpt lat="49.96979" lon="2.43196">
        <ele>48</ele>
        <time>2023-05-17T12:15:34Z</time>
      </trkpt>
      <trkpt lat="49.96981" lon="2.43196">
        <ele>48</ele>
        <time>2023-05-17T12:15:36Z</time>
      </trkpt>
      <trkpt lat="49.96983" lon="2.43195">
        <ele>48</ele>
        <time>2023-05-17T12:15:37Z</time>
      </trkpt>
      <trkpt lat="49.96984" lon="2.43195">
        <ele>48</ele>
        <time>2023-05-17T12:15:38Z</time>
      </trkpt>
      <trkpt lat="49.96985" lon="2.43195">
        <ele>48</ele>
        <time>2023-05-17T12:15:39Z</time>
      </trkpt>
      <trkpt lat="49.96986" lon="2.43195">
        <ele>48</ele>
        <time>2023-05-17T12:15:41Z</time>
      </trkpt>
      <trkpt lat="49.96987" lon="2.43195">
        <ele>48</ele>
        <time>2023-05-17T12:15:42Z</time>
      </trkpt>
      <trkpt lat="49.96988" lon="2.43195">
        <ele>48</ele>
        <time>2023-05-17T12:15:43Z</time>
      </trkpt>
      <trkpt lat="49.9699" lon="2.43194">
        <ele>48</ele>
        <time>2023-05-17T12:15:44Z</time>
      </trkpt>
      <trkpt lat="49.9699" lon="2.43194">
        <ele>48</ele>
        <time>2023-05-17T12:15:45Z</time>
      </trkpt>
      <trkpt lat="49.96991" lon="2.43194">
        <ele>48</ele>
        <time>2023-05-17T12:15:46Z</time>
      </trkpt>
      <trkpt lat="49.96993" lon="2.43193">
        <ele>48</ele>
        <time>2023-05-17T12:15:48Z</time>
      </trkpt>
      <trkpt lat="49.96994" lon="2.43193">
        <ele>48</ele>
        <time>2023-05-17T12:15:49Z</time>
      </trkpt>
      <trkpt lat="49.96995" lon="2.43193">
        <ele>48</ele>
        <time>2023-05-17T12:15:50Z</time>
      </trkpt>
      <trkpt lat="49.96997" lon="2.43193">
        <ele>48</ele>
        <time>2023-05-17T12:15:51Z</time>
      </trkpt>
      <trkpt lat="49.96998" lon="2.43193">
        <ele>48</ele>
        <time>2023-05-17T12:15:52Z</time>
      </trkpt>
      <trkpt lat="49.96999" lon="2.43193">
        <ele>48</ele>
        <time>2023-05-17T12:15:53Z</time>
      </trkpt>
      <trkpt lat="49.97" lon="2.43193">
        <ele>48</ele>
        <time>2023-05-17T12:15:54Z</time>
      </trkpt>
      <trkpt lat="49.97002" lon="2.43193">
        <ele>48</ele>
        <time>2023-05-17T12:15:55Z</time>
      </trkpt>
      <trkpt lat="49.97003" lon="2.43194">
        <ele>48</ele>
        <time>2023-05-17T12:15:57Z</time>
      </trkpt>
      <trkpt lat="49.97005" lon="2.43195">
        <ele>48</ele>
        <time>2023-05-17T12:15:58Z</time>
      </trkpt>
      <trkpt lat="49.97006" lon="2.43195">
        <ele>48</ele>
        <time>2023-05-17T12:15:59Z</time>
      </trkpt>
      <trkpt lat="49.97007" lon="2.43195">
        <ele>48</ele>
        <time>2023-05-17T12:16:00Z</time>
      </trkpt>
      <trkpt lat="49.97009" lon="2.43195">
        <ele>48</ele>
        <time>2023-05-17T12:16:01Z</time>
      </trkpt>
      <trkpt lat="49.9701" lon="2.43195">
        <ele>48</ele>
        <time>2023-05-17T12:16:03Z</time>
      </trkpt>
      <trkpt lat="49.97012" lon="2.43195">
        <ele>48</ele>
        <time>2023-05-17T12:16:04Z</time>
      </trkpt>
      <trkpt lat="49.97013" lon="2.43195">
        <ele>48</ele>
        <time>2023-05-17T12:16:05Z</time>
      </trkpt>
      <trkpt lat="49.97014" lon="2.43195">
        <ele>48</ele>
        <time>2023-05-17T12:16:06Z</time>
      </trkpt>
      <trkpt lat="49.97015" lon="2.43195">
        <ele>48</ele>
        <time>2023-05-17T12:16:07Z</time>
      </trkpt>
      <trkpt lat="49.97016" lon="2.43195">
        <ele>48</ele>
        <time>2023-05-17T12:16:08Z</time>
      </trkpt>
      <trkpt lat="49.97018" lon="2.43196">
        <ele>48</ele>
        <time>2023-05-17T12:16:09Z</time>
      </trkpt>
      <trkpt lat="49.97019" lon="2.43196">
        <ele>48</ele>
        <time>2023-05-17T12:16:10Z</time>
      </trkpt>
      <trkpt lat="49.9702" lon="2.43196">
        <ele>48</ele>
        <time>2023-05-17T12:16:11Z</time>
      </trkpt>
      <trkpt lat="49.97022" lon="2.43197">
        <ele>48.1</ele>
        <time>2023-05-17T12:16:12Z</time>
      </trkpt>
      <trkpt lat="49.97023" lon="2.43197">
        <ele>48.1</ele>
        <time>2023-05-17T12:16:14Z</time>
      </trkpt>
      <trkpt lat="49.97024" lon="2.43197">
        <ele>48.1</ele>
        <time>2023-05-17T12:16:15Z</time>
      </trkpt>
      <trkpt lat="49.97025" lon="2.43197">
        <ele>48.1</ele>
        <time>2023-05-17T12:16:16Z</time>
      </trkpt>
      <trkpt lat="49.97026" lon="2.43197">
        <ele>48.1</ele>
        <time>2023-05-17T12:16:17Z</time>
      </trkpt>
      <trkpt lat="49.97028" lon="2.43198">
        <ele>48.1</ele>
        <time>2023-05-17T12:16:18Z</time>
      </trkpt>
      <trkpt lat="49.97029" lon="2.43198">
        <ele>48.1</ele>
        <time>2023-05-17T12:16:19Z</time>
      </trkpt>
      <trkpt lat="49.9703" lon="2.43198">
        <ele>48.1</ele>
        <time>2023-05-17T12:16:20Z</time>
      </trkpt>
      <trkpt lat="49.97032" lon="2.43198">
        <ele>48.1</ele>
        <time>2023-05-17T12:16:22Z</time>
      </trkpt>
      <trkpt lat="49.97033" lon="2.43198">
        <ele>48.1</ele>
        <time>2023-05-17T12:16:23Z</time>
      </trkpt>
      <trkpt lat="49.97035" lon="2.43198">
        <ele>48.1</ele>
        <time>2023-05-17T12:16:24Z</time>
      </trkpt>
      <trkpt lat="49.97036" lon="2.43198">
        <ele>48.2</ele>
        <time>2023-05-17T12:16:25Z</time>
      </trkpt>
      <trkpt lat="49.97038" lon="2.43198">
        <ele>48.2</ele>
        <time>2023-05-17T12:16:26Z</time>
      </trkpt>
      <trkpt lat="49.97039" lon="2.43198">
        <ele>48.2</ele>
        <time>2023-05-17T12:16:27Z</time>
      </trkpt>
      <trkpt lat="49.9704" lon="2.43198">
        <ele>48.2</ele>
        <time>2023-05-17T12:16:28Z</time>
      </trkpt>
      <trkpt lat="49.97043" lon="2.43199">
        <ele>48.2</ele>
        <time>2023-05-17T12:16:30Z</time>
      </trkpt>
      <trkpt lat="49.97044" lon="2.43199">
        <ele>48.2</ele>
        <time>2023-05-17T12:16:31Z</time>
      </trkpt>
      <trkpt lat="49.97046" lon="2.432">
        <ele>48.2</ele>
        <time>2023-05-17T12:16:32Z</time>
      </trkpt>
      <trkpt lat="49.97047" lon="2.432">
        <ele>48.2</ele>
        <time>2023-05-17T12:16:33Z</time>
      </trkpt>
      <trkpt lat="49.97048" lon="2.43201">
        <ele>48.2</ele>
        <time>2023-05-17T12:16:34Z</time>
      </trkpt>
      <trkpt lat="49.97049" lon="2.43201">
        <ele>48.2</ele>
        <time>2023-05-17T12:16:35Z</time>
      </trkpt>
      <trkpt lat="49.9705" lon="2.43201">
        <ele>48.2</ele>
        <time>2023-05-17T12:16:37Z</time>
      </trkpt>
      <trkpt lat="49.97052" lon="2.43201">
        <ele>48.2</ele>
        <time>2023-05-17T12:16:38Z</time>
      </trkpt>
      <trkpt lat="49.97053" lon="2.43201">
        <ele>48.2</ele>
        <time>2023-05-17T12:16:39Z</time>
      </trkpt>
      <trkpt lat="49.97054" lon="2.43202">
        <ele>48.2</ele>
        <time>2023-05-17T12:16:40Z</time>
      </trkpt>
      <trkpt lat="49.97055" lon="2.43202">
        <ele>48.2</ele>
        <time>2023-05-17T12:16:41Z</time>
      </trkpt>
      <trkpt lat="49.97057" lon="2.43203">
        <ele>48.2</ele>
        <time>2023-05-17T12:16:42Z</time>
      </trkpt>
      <trkpt lat="49.97058" lon="2.43203">
        <ele>48.2</ele>
        <time>2023-05-17T12:16:43Z</time>
      </trkpt>
      <trkpt lat="49.97059" lon="2.43203">
        <ele>48.2</ele>
        <time>2023-05-17T12:16:45Z</time>
      </trkpt>
      <trkpt lat="49.9706" lon="2.43203">
        <ele>48.2</ele>
        <time>2023-05-17T12:16:46Z</time>
      </trkpt>
      <trkpt lat="49.97062" lon="2.43203">
        <ele>48.2</ele>
        <time>2023-05-17T12:16:47Z</time>
      </trkpt>
      <trkpt lat="49.97063" lon="2.43203">
        <ele>48.2</ele>
        <time>2023-05-17T12:16:48Z</time>
      </trkpt>
      <trkpt lat="49.97065" lon="2.43203">
        <ele>48.2</ele>
        <time>2023-05-17T12:16:49Z</time>
      </trkpt>
      <trkpt lat="49.97066" lon="2.43203">
        <ele>48.2</ele>
        <time>2023-05-17T12:16:50Z</time>
      </trkpt>
      <trkpt lat="49.97067" lon="2.43203">
        <ele>48.2</ele>
        <time>2023-05-17T12:16:51Z</time>
      </trkpt>
      <trkpt lat="49.97068" lon="2.43203">
        <ele>48.2</ele>
        <time>2023-05-17T12:16:52Z</time>
      </trkpt>
      <trkpt lat="49.97069" lon="2.43203">
        <ele>48.3</ele>
        <time>2023-05-17T12:16:54Z</time>
      </trkpt>
      <trkpt lat="49.9707" lon="2.43203">
        <ele>48.3</ele>
        <time>2023-05-17T12:16:55Z</time>
      </trkpt>
      <trkpt lat="49.97071" lon="2.43203">
        <ele>48.3</ele>
        <time>2023-05-17T12:16:56Z</time>
      </trkpt>
      <trkpt lat="49.97072" lon="2.43203">
        <ele>48.3</ele>
        <time>2023-05-17T12:16:57Z</time>
      </trkpt>
      <trkpt lat="49.97074" lon="2.43203">
        <ele>48.3</ele>
        <time>2023-05-17T12:16:58Z</time>
      </trkpt>
      <trkpt lat="49.97076" lon="2.43203">
        <ele>48.3</ele>
        <time>2023-05-17T12:16:59Z</time>
      </trkpt>
      <trkpt lat="49.97077" lon="2.43203">
        <ele>48.3</ele>
        <time>2023-05-17T12:17:01Z</time>
      </trkpt>
      <trkpt lat="49.97078" lon="2.43203">
        <ele>48.4</ele>
        <time>2023-05-17T12:17:02Z</time>
      </trkpt>
      <trkpt lat="49.97079" lon="2.43203">
        <ele>48.4</ele>
        <time>2023-05-17T12:17:03Z</time>
      </trkpt>
      <trkpt lat="49.9708" lon="2.43204">
        <ele>48.4</ele>
        <time>2023-05-17T12:17:04Z</time>
      </trkpt>
      <trkpt lat="49.97082" lon="2.43204">
        <ele>48.4</ele>
        <time>2023-05-17T12:17:05Z</time>
      </trkpt>
      <trkpt lat="49.97083" lon="2.43204">
        <ele>48.4</ele>
        <time>2023-05-17T12:17:06Z</time>
      </trkpt>
      <trkpt lat="49.97084" lon="2.43204">
        <ele>48.4</ele>
        <time>2023-05-17T12:17:07Z</time>
      </trkpt>
      <trkpt lat="49.97085" lon="2.43204">
        <ele>48.4</ele>
        <time>2023-05-17T12:17:09Z</time>
      </trkpt>
      <trkpt lat="49.97086" lon="2.43204">
        <ele>48.4</ele>
        <time>2023-05-17T12:17:10Z</time>
      </trkpt>
      <trkpt lat="49.97089" lon="2.43205">
        <ele>48.5</ele>
        <time>2023-05-17T12:17:11Z</time>
      </trkpt>
      <trkpt lat="49.9709" lon="2.43205">
        <ele>48.5</ele>
        <time>2023-05-17T12:17:12Z</time>
      </trkpt>
      <trkpt lat="49.9709" lon="2.43205">
        <ele>48.5</ele>
        <time>2023-05-17T12:17:13Z</time>
      </trkpt>
      <trkpt lat="49.97092" lon="2.43205">
        <ele>48.5</ele>
        <time>2023-05-17T12:17:14Z</time>
      </trkpt>
      <trkpt lat="49.97093" lon="2.43205">
        <ele>48.5</ele>
        <time>2023-05-17T12:17:16Z</time>
      </trkpt>
      <trkpt lat="49.97095" lon="2.43206">
        <ele>48.5</ele>
        <time>2023-05-17T12:17:17Z</time>
      </trkpt>
      <trkpt lat="49.97096" lon="2.43206">
        <ele>48.5</ele>
        <time>2023-05-17T12:17:18Z</time>
      </trkpt>
      <trkpt lat="49.97098" lon="2.43206">
        <ele>48.6</ele>
        <time>2023-05-17T12:17:19Z</time>
      </trkpt>
      <trkpt lat="49.97099" lon="2.43206">
        <ele>48.6</ele>
        <time>2023-05-17T12:17:20Z</time>
      </trkpt>
      <trkpt lat="49.97101" lon="2.43206">
        <ele>48.6</ele>
        <time>2023-05-17T12:17:21Z</time>
      </trkpt>
      <trkpt lat="49.97103" lon="2.43206">
        <ele>48.6</ele>
        <time>2023-05-17T12:17:23Z</time>
      </trkpt>
      <trkpt lat="49.97104" lon="2.43206">
        <ele>48.6</ele>
        <time>2023-05-17T12:17:24Z</time>
      </trkpt>
      <trkpt lat="49.97106" lon="2.43206">
        <ele>48.6</ele>
        <time>2023-05-17T12:17:25Z</time>
      </trkpt>
      <trkpt lat="49.97108" lon="2.43206">
        <ele>48.6</ele>
        <time>2023-05-17T12:17:26Z</time>
      </trkpt>
      <trkpt lat="49.97109" lon="2.43206">
        <ele>48.6</ele>
        <time>2023-05-17T12:17:27Z</time>
      </trkpt>
      <trkpt lat="49.9711" lon="2.43207">
        <ele>48.7</ele>
        <time>2023-05-17T12:17:28Z</time>
      </trkpt>
      <trkpt lat="49.97111" lon="2.43207">
        <ele>48.7</ele>
        <time>2023-05-17T12:17:30Z</time>
      </trkpt>
      <trkpt lat="49.97113" lon="2.43207">
        <ele>48.7</ele>
        <time>2023-05-17T12:17:31Z</time>
      </trkpt>
      <trkpt lat="49.97114" lon="2.43207">
        <ele>48.7</ele>
        <time>2023-05-17T12:17:32Z</time>
      </trkpt>
      <trkpt lat="49.97116" lon="2.43206">
        <ele>48.7</ele>
        <time>2023-05-17T12:17:33Z</time>
      </trkpt>
      <trkpt lat="49.97117" lon="2.43206">
        <ele>48.7</ele>
        <time>2023-05-17T12:17:34Z</time>
      </trkpt>
      <trkpt lat="49.97118" lon="2.43206">
        <ele>48.7</ele>
        <time>2023-05-17T12:17:35Z</time>
      </trkpt>
      <trkpt lat="49.9712" lon="2.43206">
        <ele>48.8</ele>
        <time>2023-05-17T12:17:37Z</time>
      </trkpt>
      <trkpt lat="49.97121" lon="2.43207">
        <ele>48.8</ele>
        <time>2023-05-17T12:17:38Z</time>
      </trkpt>
      <trkpt lat="49.97123" lon="2.43207">
        <ele>48.8</ele>
        <time>2023-05-17T12:17:39Z</time>
      </trkpt>
      <trkpt lat="49.97124" lon="2.43207">
        <ele>48.8</ele>
        <time>2023-05-17T12:17:40Z</time>
      </trkpt>
      <trkpt lat="49.97126" lon="2.43207">
        <ele>48.8</ele>
        <time>2023-05-17T12:17:41Z</time>
      </trkpt>
      <trkpt lat="49.97128" lon="2.43207">
        <ele>48.8</ele>
        <time>2023-05-17T12:17:42Z</time>
      </trkpt>
      <trkpt lat="49.9713" lon="2.43207">
        <ele>48.8</ele>
        <time>2023-05-17T12:17:44Z</time>
      </trkpt>
      <trkpt lat="49.97131" lon="2.43207">
        <ele>48.9</ele>
        <time>2023-05-17T12:17:45Z</time>
      </trkpt>
      <trkpt lat="49.97133" lon="2.43207">
        <ele>48.9</ele>
        <time>2023-05-17T12:17:46Z</time>
      </trkpt>
      <trkpt lat="49.97134" lon="2.43208">
        <ele>48.9</ele>
        <time>2023-05-17T12:17:47Z</time>
      </trkpt>
      <trkpt lat="49.97135" lon="2.43208">
        <ele>48.9</ele>
        <time>2023-05-17T12:17:48Z</time>
      </trkpt>
      <trkpt lat="49.97137" lon="2.43208">
        <ele>48.9</ele>
        <time>2023-05-17T12:17:49Z</time>
      </trkpt>
      <trkpt lat="49.97139" lon="2.43208">
        <ele>48.9</ele>
        <time>2023-05-17T12:17:51Z</time>
      </trkpt>
      <trkpt lat="49.9714" lon="2.43208">
        <ele>49</ele>
        <time>2023-05-17T12:17:52Z</time>
      </trkpt>
      <trkpt lat="49.97141" lon="2.43208">
        <ele>49</ele>
        <time>2023-05-17T12:17:53Z</time>
      </trkpt>
      <trkpt lat="49.97142" lon="2.43208">
        <ele>49</ele>
        <time>2023-05-17T12:17:54Z</time>
      </trkpt>
      <trkpt lat="49.97143" lon="2.43208">
        <ele>49</ele>
        <time>2023-05-17T12:17:55Z</time>
      </trkpt>
      <trkpt lat="49.97145" lon="2.43208">
        <ele>49</ele>
        <time>2023-05-17T12:17:56Z</time>
      </trkpt>
      <trkpt lat="49.97146" lon="2.43208">
        <ele>49</ele>
        <time>2023-05-17T12:17:57Z</time>
      </trkpt>
      <trkpt lat="49.97147" lon="2.43208">
        <ele>49.1</ele>
        <time>2023-05-17T12:17:58Z</time>
      </trkpt>
      <trkpt lat="49.97148" lon="2.43208">
        <ele>49.1</ele>
        <time>2023-05-17T12:17:59Z</time>
      </trkpt>
      <trkpt lat="49.97149" lon="2.43208">
        <ele>49.1</ele>
        <time>2023-05-17T12:18:01Z</time>
      </trkpt>
      <trkpt lat="49.9715" lon="2.43208">
        <ele>49.1</ele>
        <time>2023-05-17T12:18:02Z</time>
      </trkpt>
      <trkpt lat="49.97152" lon="2.43209">
        <ele>49.1</ele>
        <time>2023-05-17T12:18:03Z</time>
      </trkpt>
      <trkpt lat="49.97153" lon="2.43209">
        <ele>49.1</ele>
        <time>2023-05-17T12:18:04Z</time>
      </trkpt>
      <trkpt lat="49.97154" lon="2.43209">
        <ele>49.2</ele>
        <time>2023-05-17T12:18:05Z</time>
      </trkpt>
      <trkpt lat="49.97156" lon="2.43208">
        <ele>49.2</ele>
        <time>2023-05-17T12:18:06Z</time>
      </trkpt>
      <trkpt lat="49.97157" lon="2.43208">
        <ele>49.2</ele>
        <time>2023-05-17T12:18:07Z</time>
      </trkpt>
      <trkpt lat="49.97157" lon="2.43208">
        <ele>49.2</ele>
        <time>2023-05-17T12:18:08Z</time>
      </trkpt>
      <trkpt lat="49.97159" lon="2.43208">
        <ele>49.2</ele>
        <time>2023-05-17T12:18:09Z</time>
      </trkpt>
      <trkpt lat="49.9716" lon="2.43207">
        <ele>49.3</ele>
        <time>2023-05-17T12:18:11Z</time>
      </trkpt>
      <trkpt lat="49.97162" lon="2.43207">
        <ele>49.3</ele>
        <time>2023-05-17T12:18:12Z</time>
      </trkpt>
      <trkpt lat="49.97163" lon="2.43207">
        <ele>49.3</ele>
        <time>2023-05-17T12:18:13Z</time>
      </trkpt>
      <trkpt lat="49.97164" lon="2.43206">
        <ele>49.3</ele>
        <time>2023-05-17T12:18:14Z</time>
      </trkpt>
      <trkpt lat="49.97165" lon="2.43207">
        <ele>49.3</ele>
        <time>2023-05-17T12:18:15Z</time>
      </trkpt>
      <trkpt lat="49.97166" lon="2.43207">
        <ele>49.3</ele>
        <time>2023-05-17T12:18:16Z</time>
      </trkpt>
      <trkpt lat="49.97168" lon="2.43207">
        <ele>49.3</ele>
        <time>2023-05-17T12:18:17Z</time>
      </trkpt>
      <trkpt lat="49.97169" lon="2.43207">
        <ele>49.4</ele>
        <time>2023-05-17T12:18:18Z</time>
      </trkpt>
      <trkpt lat="49.9717" lon="2.43207">
        <ele>49.4</ele>
        <time>2023-05-17T12:18:19Z</time>
      </trkpt>
      <trkpt lat="49.97172" lon="2.43207">
        <ele>49.4</ele>
        <time>2023-05-17T12:18:21Z</time>
      </trkpt>
      <trkpt lat="49.97173" lon="2.43207">
        <ele>49.4</ele>
        <time>2023-05-17T12:18:22Z</time>
      </trkpt>
      <trkpt lat="49.97174" lon="2.43207">
        <ele>49.4</ele>
        <time>2023-05-17T12:18:23Z</time>
      </trkpt>
      <trkpt lat="49.97176" lon="2.43207">
        <ele>49.4</ele>
        <time>2023-05-17T12:18:24Z</time>
      </trkpt>
      <trkpt lat="49.97176" lon="2.43208">
        <ele>49.4</ele>
        <time>2023-05-17T12:18:25Z</time>
      </trkpt>
      <trkpt lat="49.97177" lon="2.43208">
        <ele>49.5</ele>
        <time>2023-05-17T12:18:26Z</time>
      </trkpt>
      <trkpt lat="49.97178" lon="2.43208">
        <ele>49.5</ele>
        <time>2023-05-17T12:18:27Z</time>
      </trkpt>
      <trkpt lat="49.97179" lon="2.43208">
        <ele>49.5</ele>
        <time>2023-05-17T12:18:28Z</time>
      </trkpt>
      <trkpt lat="49.9718" lon="2.43209">
        <ele>49.5</ele>
        <time>2023-05-17T12:18:29Z</time>
      </trkpt>
      <trkpt lat="49.97183" lon="2.43208">
        <ele>49.5</ele>
        <time>2023-05-17T12:18:30Z</time>
      </trkpt>
      <trkpt lat="49.97184" lon="2.43208">
        <ele>49.5</ele>
        <time>2023-05-17T12:18:32Z</time>
      </trkpt>
      <trkpt lat="49.97184" lon="2.43208">
        <ele>49.5</ele>
        <time>2023-05-17T12:18:33Z</time>
      </trkpt>
      <trkpt lat="49.97186" lon="2.43208">
        <ele>49.6</ele>
        <time>2023-05-17T12:18:34Z</time>
      </trkpt>
      <trkpt lat="49.97187" lon="2.43207">
        <ele>49.6</ele>
        <time>2023-05-17T12:18:35Z</time>
      </trkpt>
      <trkpt lat="49.97188" lon="2.43208">
        <ele>49.6</ele>
        <time>2023-05-17T12:18:36Z</time>
      </trkpt>
      <trkpt lat="49.9719" lon="2.43208">
        <ele>49.6</ele>
        <time>2023-05-17T12:18:37Z</time>
      </trkpt>
      <trkpt lat="49.97191" lon="2.43208">
        <ele>49.7</ele>
        <time>2023-05-17T12:18:38Z</time>
      </trkpt>
      <trkpt lat="49.97192" lon="2.43208">
        <ele>49.7</ele>
        <time>2023-05-17T12:18:39Z</time>
      </trkpt>
      <trkpt lat="49.97193" lon="2.43208">
        <ele>49.7</ele>
        <time>2023-05-17T12:18:40Z</time>
      </trkpt>
      <trkpt lat="49.97195" lon="2.43208">
        <ele>49.7</ele>
        <time>2023-05-17T12:18:42Z</time>
      </trkpt>
      <trkpt lat="49.97196" lon="2.43207">
        <ele>49.8</ele>
        <time>2023-05-17T12:18:43Z</time>
      </trkpt>
      <trkpt lat="49.97198" lon="2.43207">
        <ele>49.8</ele>
        <time>2023-05-17T12:18:44Z</time>
      </trkpt>
      <trkpt lat="49.97199" lon="2.43206">
        <ele>49.8</ele>
        <time>2023-05-17T12:18:45Z</time>
      </trkpt>
      <trkpt lat="49.972" lon="2.43206">
        <ele>49.8</ele>
        <time>2023-05-17T12:18:46Z</time>
      </trkpt>
      <trkpt lat="49.97203" lon="2.43205">
        <ele>49.9</ele>
        <time>2023-05-17T12:18:47Z</time>
      </trkpt>
      <trkpt lat="49.97203" lon="2.43205">
        <ele>49.9</ele>
        <time>2023-05-17T12:18:48Z</time>
      </trkpt>
      <trkpt lat="49.97204" lon="2.43205">
        <ele>49.9</ele>
        <time>2023-05-17T12:18:49Z</time>
      </trkpt>
      <trkpt lat="49.97207" lon="2.43204">
        <ele>49.9</ele>
        <time>2023-05-17T12:18:51Z</time>
      </trkpt>
      <trkpt lat="49.97208" lon="2.43203">
        <ele>49.9</ele>
        <time>2023-05-17T12:18:52Z</time>
      </trkpt>
      <trkpt lat="49.97211" lon="2.43202">
        <ele>49.9</ele>
        <time>2023-05-17T12:18:53Z</time>
      </trkpt>
      <trkpt lat="49.97211" lon="2.43202">
        <ele>49.9</ele>
        <time>2023-05-17T12:18:54Z</time>
      </trkpt>
      <trkpt lat="49.97213" lon="2.43201">
        <ele>49.9</ele>
        <time>2023-05-17T12:18:55Z</time>
      </trkpt>
      <trkpt lat="49.97214" lon="2.43201">
        <ele>49.9</ele>
        <time>2023-05-17T12:18:56Z</time>
      </trkpt>
      <trkpt lat="49.97215" lon="2.432">
        <ele>49.9</ele>
        <time>2023-05-17T12:18:57Z</time>
      </trkpt>
      <trkpt lat="49.97216" lon="2.43199">
        <ele>49.9</ele>
        <time>2023-05-17T12:18:58Z</time>
      </trkpt>
      <trkpt lat="49.97216" lon="2.43198">
        <ele>50</ele>
        <time>2023-05-17T12:18:59Z</time>
      </trkpt>
      <trkpt lat="49.97218" lon="2.43198">
        <ele>50</ele>
        <time>2023-05-17T12:19:00Z</time>
      </trkpt>
      <trkpt lat="49.97218" lon="2.43197">
        <ele>50</ele>
        <time>2023-05-17T12:19:02Z</time>
      </trkpt>
      <trkpt lat="49.97219" lon="2.43196">
        <ele>50</ele>
        <time>2023-05-17T12:19:03Z</time>
      </trkpt>
      <trkpt lat="49.9722" lon="2.43195">
        <ele>50</ele>
        <time>2023-05-17T12:19:04Z</time>
      </trkpt>
      <trkpt lat="49.97221" lon="2.43193">
        <ele>50</ele>
        <time>2023-05-17T12:19:06Z</time>
      </trkpt>
      <trkpt lat="49.97222" lon="2.43192">
        <ele>50</ele>
        <time>2023-05-17T12:19:08Z</time>
      </trkpt>
      <trkpt lat="49.97223" lon="2.43191">
        <ele>50</ele>
        <time>2023-05-17T12:19:09Z</time>
      </trkpt>
      <trkpt lat="49.97224" lon="2.4319">
        <ele>50</ele>
        <time>2023-05-17T12:19:10Z</time>
      </trkpt>
      <trkpt lat="49.97225" lon="2.43189">
        <ele>50</ele>
        <time>2023-05-17T12:19:11Z</time>
      </trkpt>
      <trkpt lat="49.97226" lon="2.43188">
        <ele>50</ele>
        <time>2023-05-17T12:19:12Z</time>
      </trkpt>
      <trkpt lat="49.97227" lon="2.43187">
        <ele>50.1</ele>
        <time>2023-05-17T12:19:13Z</time>
      </trkpt>
      <trkpt lat="49.97227" lon="2.43186">
        <ele>50.1</ele>
        <time>2023-05-17T12:19:14Z</time>
      </trkpt>
      <trkpt lat="49.97229" lon="2.43184">
        <ele>50.1</ele>
        <time>2023-05-17T12:19:15Z</time>
      </trkpt>
      <trkpt lat="49.97229" lon="2.43183">
        <ele>50.1</ele>
        <time>2023-05-17T12:19:16Z</time>
      </trkpt>
      <trkpt lat="49.9723" lon="2.43182">
        <ele>50.1</ele>
        <time>2023-05-17T12:19:18Z</time>
      </trkpt>
      <trkpt lat="49.97231" lon="2.43181">
        <ele>50.1</ele>
        <time>2023-05-17T12:19:19Z</time>
      </trkpt>
      <trkpt lat="49.97232" lon="2.4318">
        <ele>50.1</ele>
        <time>2023-05-17T12:19:20Z</time>
      </trkpt>
      <trkpt lat="49.97233" lon="2.43179">
        <ele>50.2</ele>
        <time>2023-05-17T12:19:21Z</time>
      </trkpt>
      <trkpt lat="49.97234" lon="2.43179">
        <ele>50.2</ele>
        <time>2023-05-17T12:19:22Z</time>
      </trkpt>
      <trkpt lat="49.97235" lon="2.43178">
        <ele>50.2</ele>
        <time>2023-05-17T12:19:23Z</time>
      </trkpt>
      <trkpt lat="49.97236" lon="2.43176">
        <ele>50.2</ele>
        <time>2023-05-17T12:19:24Z</time>
      </trkpt>
      <trkpt lat="49.97236" lon="2.43175">
        <ele>50.2</ele>
        <time>2023-05-17T12:19:25Z</time>
      </trkpt>
      <trkpt lat="49.97237" lon="2.43174">
        <ele>50.2</ele>
        <time>2023-05-17T12:19:26Z</time>
      </trkpt>
      <trkpt lat="49.97239" lon="2.43171">
        <ele>50.2</ele>
        <time>2023-05-17T12:19:28Z</time>
      </trkpt>
      <trkpt lat="49.9724" lon="2.4317">
        <ele>50.2</ele>
        <time>2023-05-17T12:19:29Z</time>
      </trkpt>
      <trkpt lat="49.97241" lon="2.43169">
        <ele>50.2</ele>
        <time>2023-05-17T12:19:30Z</time>
      </trkpt>
      <trkpt lat="49.97242" lon="2.43167">
        <ele>50.3</ele>
        <time>2023-05-17T12:19:31Z</time>
      </trkpt>
      <trkpt lat="49.97243" lon="2.43166">
        <ele>50.3</ele>
        <time>2023-05-17T12:19:33Z</time>
      </trkpt>
      <trkpt lat="49.97244" lon="2.43164">
        <ele>50.3</ele>
        <time>2023-05-17T12:19:34Z</time>
      </trkpt>
      <trkpt lat="49.97245" lon="2.43162">
        <ele>50.3</ele>
        <time>2023-05-17T12:19:35Z</time>
      </trkpt>
      <trkpt lat="49.97247" lon="2.4316">
        <ele>50.3</ele>
        <time>2023-05-17T12:19:36Z</time>
      </trkpt>
      <trkpt lat="49.97247" lon="2.43159">
        <ele>50.3</ele>
        <time>2023-05-17T12:19:37Z</time>
      </trkpt>
      <trkpt lat="49.97248" lon="2.43158">
        <ele>50.3</ele>
        <time>2023-05-17T12:19:38Z</time>
      </trkpt>
      <trkpt lat="49.97249" lon="2.43156">
        <ele>50.3</ele>
        <time>2023-05-17T12:19:39Z</time>
      </trkpt>
      <trkpt lat="49.97249" lon="2.43155">
        <ele>50.4</ele>
        <time>2023-05-17T12:19:40Z</time>
      </trkpt>
      <trkpt lat="49.9725" lon="2.43153">
        <ele>50.4</ele>
        <time>2023-05-17T12:19:41Z</time>
      </trkpt>
      <trkpt lat="49.97251" lon="2.43151">
        <ele>50.4</ele>
        <time>2023-05-17T12:19:43Z</time>
      </trkpt>
      <trkpt lat="49.97252" lon="2.4315">
        <ele>50.4</ele>
        <time>2023-05-17T12:19:44Z</time>
      </trkpt>
      <trkpt lat="49.97252" lon="2.43149">
        <ele>50.4</ele>
        <time>2023-05-17T12:19:45Z</time>
      </trkpt>
      <trkpt lat="49.97254" lon="2.43146">
        <ele>50.5</ele>
        <time>2023-05-17T12:19:46Z</time>
      </trkpt>
      <trkpt lat="49.97254" lon="2.43146">
        <ele>50.5</ele>
        <time>2023-05-17T12:19:47Z</time>
      </trkpt>
      <trkpt lat="49.97255" lon="2.43145">
        <ele>50.5</ele>
        <time>2023-05-17T12:19:48Z</time>
      </trkpt>
      <trkpt lat="49.97256" lon="2.43144">
        <ele>50.5</ele>
        <time>2023-05-17T12:19:49Z</time>
      </trkpt>
      <trkpt lat="49.97257" lon="2.43142">
        <ele>50.5</ele>
        <time>2023-05-17T12:19:50Z</time>
      </trkpt>
      <trkpt lat="49.97257" lon="2.43141">
        <ele>50.6</ele>
        <time>2023-05-17T12:19:51Z</time>
      </trkpt>
      <trkpt lat="49.97259" lon="2.43139">
        <ele>50.6</ele>
        <time>2023-05-17T12:19:52Z</time>
      </trkpt>
      <trkpt lat="49.97259" lon="2.43138">
        <ele>50.6</ele>
        <time>2023-05-17T12:19:54Z</time>
      </trkpt>
      <trkpt lat="49.9726" lon="2.43137">
        <ele>50.6</ele>
        <time>2023-05-17T12:19:55Z</time>
      </trkpt>
      <trkpt lat="49.97261" lon="2.43134">
        <ele>50.7</ele>
        <time>2023-05-17T12:19:56Z</time>
      </trkpt>
      <trkpt lat="49.97262" lon="2.43133">
        <ele>50.7</ele>
        <time>2023-05-17T12:19:57Z</time>
      </trkpt>
      <trkpt lat="49.97262" lon="2.43133">
        <ele>50.7</ele>
        <time>2023-05-17T12:19:58Z</time>
      </trkpt>
      <trkpt lat="49.97263" lon="2.43131">
        <ele>50.7</ele>
        <time>2023-05-17T12:19:59Z</time>
      </trkpt>
      <trkpt lat="49.97264" lon="2.43129">
        <ele>50.8</ele>
        <time>2023-05-17T12:20:00Z</time>
      </trkpt>
      <trkpt lat="49.97265" lon="2.43127">
        <ele>50.8</ele>
        <time>2023-05-17T12:20:02Z</time>
      </trkpt>
      <trkpt lat="49.97266" lon="2.43125">
        <ele>50.8</ele>
        <time>2023-05-17T12:20:03Z</time>
      </trkpt>
      <trkpt lat="49.97267" lon="2.43124">
        <ele>50.9</ele>
        <time>2023-05-17T12:20:04Z</time>
      </trkpt>
      <trkpt lat="49.97268" lon="2.43122">
        <ele>50.9</ele>
        <time>2023-05-17T12:20:05Z</time>
      </trkpt>
      <trkpt lat="49.97269" lon="2.4312">
        <ele>50.9</ele>
        <time>2023-05-17T12:20:06Z</time>
      </trkpt>
      <trkpt lat="49.97271" lon="2.43118">
        <ele>51</ele>
        <time>2023-05-17T12:20:07Z</time>
      </trkpt>
      <trkpt lat="49.97272" lon="2.43117">
        <ele>51</ele>
        <time>2023-05-17T12:20:08Z</time>
      </trkpt>
      <trkpt lat="49.97272" lon="2.43116">
        <ele>51</ele>
        <time>2023-05-17T12:20:09Z</time>
      </trkpt>
      <trkpt lat="49.97274" lon="2.43113">
        <ele>51.2</ele>
        <time>2023-05-17T12:20:11Z</time>
      </trkpt>
      <trkpt lat="49.97275" lon="2.43112">
        <ele>51.2</ele>
        <time>2023-05-17T12:20:12Z</time>
      </trkpt>
      <trkpt lat="49.97277" lon="2.43109">
        <ele>51.2</ele>
        <time>2023-05-17T12:20:13Z</time>
      </trkpt>
      <trkpt lat="49.97278" lon="2.43108">
        <ele>51.2</ele>
        <time>2023-05-17T12:20:14Z</time>
      </trkpt>
      <trkpt lat="49.9728" lon="2.43105">
        <ele>51.3</ele>
        <time>2023-05-17T12:20:16Z</time>
      </trkpt>
      <trkpt lat="49.97281" lon="2.43104">
        <ele>51.3</ele>
        <time>2023-05-17T12:20:17Z</time>
      </trkpt>
      <trkpt lat="49.97284" lon="2.43102">
        <ele>51.4</ele>
        <time>2023-05-17T12:20:18Z</time>
      </trkpt>
      <trkpt lat="49.97285" lon="2.43102">
        <ele>51.4</ele>
        <time>2023-05-17T12:20:19Z</time>
      </trkpt>
      <trkpt lat="49.97287" lon="2.431">
        <ele>51.4</ele>
        <time>2023-05-17T12:20:20Z</time>
      </trkpt>
      <trkpt lat="49.97288" lon="2.43099">
        <ele>51.5</ele>
        <time>2023-05-17T12:20:22Z</time>
      </trkpt>
      <trkpt lat="49.97289" lon="2.43098">
        <ele>51.5</ele>
        <time>2023-05-17T12:20:23Z</time>
      </trkpt>
      <trkpt lat="49.9729" lon="2.43098">
        <ele>51.5</ele>
        <time>2023-05-17T12:20:24Z</time>
      </trkpt>
      <trkpt lat="49.97291" lon="2.43098">
        <ele>51.5</ele>
        <time>2023-05-17T12:20:25Z</time>
      </trkpt>
      <trkpt lat="49.97293" lon="2.43097">
        <ele>51.6</ele>
        <time>2023-05-17T12:20:26Z</time>
      </trkpt>
      <trkpt lat="49.97294" lon="2.43097">
        <ele>51.6</ele>
        <time>2023-05-17T12:20:27Z</time>
      </trkpt>
      <trkpt lat="49.97296" lon="2.43096">
        <ele>51.6</ele>
        <time>2023-05-17T12:20:28Z</time>
      </trkpt>
      <trkpt lat="49.97298" lon="2.43095">
        <ele>51.7</ele>
        <time>2023-05-17T12:20:29Z</time>
      </trkpt>
      <trkpt lat="49.97301" lon="2.43094">
        <ele>51.7</ele>
        <time>2023-05-17T12:20:31Z</time>
      </trkpt>
      <trkpt lat="49.97303" lon="2.43094">
        <ele>51.8</ele>
        <time>2023-05-17T12:20:33Z</time>
      </trkpt>
      <trkpt lat="49.97304" lon="2.43094">
        <ele>51.8</ele>
        <time>2023-05-17T12:20:34Z</time>
      </trkpt>
      <trkpt lat="49.97304" lon="2.43093">
        <ele>51.8</ele>
        <time>2023-05-17T12:20:35Z</time>
      </trkpt>
      <trkpt lat="49.97306" lon="2.43093">
        <ele>51.8</ele>
        <time>2023-05-17T12:20:36Z</time>
      </trkpt>
      <trkpt lat="49.97307" lon="2.43092">
        <ele>51.9</ele>
        <time>2023-05-17T12:20:37Z</time>
      </trkpt>
      <trkpt lat="49.97307" lon="2.43092">
        <ele>51.9</ele>
        <time>2023-05-17T12:20:38Z</time>
      </trkpt>
      <trkpt lat="49.97308" lon="2.43091">
        <ele>51.9</ele>
        <time>2023-05-17T12:20:39Z</time>
      </trkpt>
      <trkpt lat="49.97309" lon="2.43091">
        <ele>51.9</ele>
        <time>2023-05-17T12:20:41Z</time>
      </trkpt>
      <trkpt lat="49.97311" lon="2.4309">
        <ele>52</ele>
        <time>2023-05-17T12:20:42Z</time>
      </trkpt>
      <trkpt lat="49.97311" lon="2.4309">
        <ele>52</ele>
        <time>2023-05-17T12:20:44Z</time>
      </trkpt>
      <trkpt lat="49.97313" lon="2.43089">
        <ele>52</ele>
        <time>2023-05-17T12:20:45Z</time>
      </trkpt>
      <trkpt lat="49.97314" lon="2.43089">
        <ele>52</ele>
        <time>2023-05-17T12:20:46Z</time>
      </trkpt>
      <trkpt lat="49.97315" lon="2.43088">
        <ele>52.1</ele>
        <time>2023-05-17T12:20:47Z</time>
      </trkpt>
      <trkpt lat="49.97317" lon="2.43088">
        <ele>52.1</ele>
        <time>2023-05-17T12:20:48Z</time>
      </trkpt>
      <trkpt lat="49.97318" lon="2.43087">
        <ele>52.2</ele>
        <time>2023-05-17T12:20:49Z</time>
      </trkpt>
      <trkpt lat="49.9732" lon="2.43087">
        <ele>52.2</ele>
        <time>2023-05-17T12:20:51Z</time>
      </trkpt>
      <trkpt lat="49.97322" lon="2.43086">
        <ele>52.3</ele>
        <time>2023-05-17T12:20:52Z</time>
      </trkpt>
      <trkpt lat="49.97323" lon="2.43086">
        <ele>52.3</ele>
        <time>2023-05-17T12:20:53Z</time>
      </trkpt>
      <trkpt lat="49.97325" lon="2.43085">
        <ele>52.4</ele>
        <time>2023-05-17T12:20:54Z</time>
      </trkpt>
      <trkpt lat="49.97326" lon="2.43085">
        <ele>52.4</ele>
        <time>2023-05-17T12:20:55Z</time>
      </trkpt>
      <trkpt lat="49.97327" lon="2.43084">
        <ele>52.4</ele>
        <time>2023-05-17T12:20:56Z</time>
      </trkpt>
      <trkpt lat="49.97328" lon="2.43084">
        <ele>52.5</ele>
        <time>2023-05-17T12:20:57Z</time>
      </trkpt>
      <trkpt lat="49.97329" lon="2.43084">
        <ele>52.5</ele>
        <time>2023-05-17T12:20:58Z</time>
      </trkpt>
      <trkpt lat="49.9733" lon="2.43083">
        <ele>52.5</ele>
        <time>2023-05-17T12:21:00Z</time>
      </trkpt>
      <trkpt lat="49.97331" lon="2.43083">
        <ele>52.6</ele>
        <time>2023-05-17T12:21:01Z</time>
      </trkpt>
      <trkpt lat="49.97332" lon="2.43083">
        <ele>52.6</ele>
        <time>2023-05-17T12:21:02Z</time>
      </trkpt>
      <trkpt lat="49.97333" lon="2.43082">
        <ele>52.6</ele>
        <time>2023-05-17T12:21:03Z</time>
      </trkpt>
      <trkpt lat="49.97336" lon="2.43082">
        <ele>52.7</ele>
        <time>2023-05-17T12:21:04Z</time>
      </trkpt>
      <trkpt lat="49.97337" lon="2.43081">
        <ele>52.8</ele>
        <time>2023-05-17T12:21:05Z</time>
      </trkpt>
      <trkpt lat="49.97338" lon="2.43081">
        <ele>52.8</ele>
        <time>2023-05-17T12:21:07Z</time>
      </trkpt>
      <trkpt lat="49.9734" lon="2.4308">
        <ele>52.9</ele>
        <time>2023-05-17T12:21:08Z</time>
      </trkpt>
      <trkpt lat="49.97341" lon="2.43079">
        <ele>52.9</ele>
        <time>2023-05-17T12:21:09Z</time>
      </trkpt>
      <trkpt lat="49.97345" lon="2.43077">
        <ele>53.1</ele>
        <time>2023-05-17T12:21:10Z</time>
      </trkpt>
      <trkpt lat="49.97346" lon="2.43076">
        <ele>53.2</ele>
        <time>2023-05-17T12:21:11Z</time>
      </trkpt>
      <trkpt lat="49.9735" lon="2.43075">
        <ele>53.3</ele>
        <time>2023-05-17T12:21:12Z</time>
      </trkpt>
      <trkpt lat="49.97351" lon="2.43075">
        <ele>53.3</ele>
        <time>2023-05-17T12:21:13Z</time>
      </trkpt>
      <trkpt lat="49.97352" lon="2.43075">
        <ele>53.4</ele>
        <time>2023-05-17T12:21:15Z</time>
      </trkpt>
      <trkpt lat="49.97353" lon="2.43074">
        <ele>53.4</ele>
        <time>2023-05-17T12:21:16Z</time>
      </trkpt>
      <trkpt lat="49.97354" lon="2.43074">
        <ele>53.5</ele>
        <time>2023-05-17T12:21:17Z</time>
      </trkpt>
      <trkpt lat="49.97356" lon="2.43073">
        <ele>53.5</ele>
        <time>2023-05-17T12:21:18Z</time>
      </trkpt>
      <trkpt lat="49.97357" lon="2.43073">
        <ele>53.6</ele>
        <time>2023-05-17T12:21:19Z</time>
      </trkpt>
      <trkpt lat="49.97357" lon="2.43073">
        <ele>53.6</ele>
        <time>2023-05-17T12:21:20Z</time>
      </trkpt>
      <trkpt lat="49.97358" lon="2.43073">
        <ele>53.6</ele>
        <time>2023-05-17T12:21:22Z</time>
      </trkpt>
      <trkpt lat="49.97358" lon="2.43073">
        <ele>53.6</ele>
        <time>2023-05-17T12:21:23Z</time>
      </trkpt>
      <trkpt lat="49.97358" lon="2.43073">
        <ele>53.6</ele>
        <time>2023-05-17T12:21:24Z</time>
      </trkpt>
      <trkpt lat="49.97359" lon="2.43073">
        <ele>53.7</ele>
        <time>2023-05-17T12:21:25Z</time>
      </trkpt>
      <trkpt lat="49.9736" lon="2.43072">
        <ele>53.7</ele>
        <time>2023-05-17T12:21:26Z</time>
      </trkpt>
      <trkpt lat="49.97361" lon="2.43072">
        <ele>53.8</ele>
        <time>2023-05-17T12:21:27Z</time>
      </trkpt>
      <trkpt lat="49.97362" lon="2.43072">
        <ele>53.8</ele>
        <time>2023-05-17T12:21:29Z</time>
      </trkpt>
      <trkpt lat="49.97363" lon="2.43071">
        <ele>53.8</ele>
        <time>2023-05-17T12:21:30Z</time>
      </trkpt>
      <trkpt lat="49.97364" lon="2.43071">
        <ele>53.9</ele>
        <time>2023-05-17T12:21:31Z</time>
      </trkpt>
      <trkpt lat="49.97365" lon="2.43071">
        <ele>54</ele>
        <time>2023-05-17T12:21:32Z</time>
      </trkpt>
      <trkpt lat="49.97366" lon="2.43071">
        <ele>54</ele>
        <time>2023-05-17T12:21:33Z</time>
      </trkpt>
      <trkpt lat="49.97367" lon="2.43071">
        <ele>54.1</ele>
        <time>2023-05-17T12:21:34Z</time>
      </trkpt>
      <trkpt lat="49.97369" lon="2.43071">
        <ele>54.1</ele>
        <time>2023-05-17T12:21:36Z</time>
      </trkpt>
      <trkpt lat="49.97371" lon="2.4307">
        <ele>54.2</ele>
        <time>2023-05-17T12:21:37Z</time>
      </trkpt>
      <trkpt lat="49.97372" lon="2.4307">
        <ele>54.3</ele>
        <time>2023-05-17T12:21:38Z</time>
      </trkpt>
      <trkpt lat="49.97374" lon="2.4307">
        <ele>54.4</ele>
        <time>2023-05-17T12:21:39Z</time>
      </trkpt>
      <trkpt lat="49.97375" lon="2.43071">
        <ele>54.4</ele>
        <time>2023-05-17T12:21:40Z</time>
      </trkpt>
      <trkpt lat="49.97376" lon="2.43071">
        <ele>54.5</ele>
        <time>2023-05-17T12:21:42Z</time>
      </trkpt>
      <trkpt lat="49.97377" lon="2.4307">
        <ele>54.5</ele>
        <time>2023-05-17T12:21:43Z</time>
      </trkpt>
      <trkpt lat="49.97378" lon="2.4307">
        <ele>54.6</ele>
        <time>2023-05-17T12:21:44Z</time>
      </trkpt>
      <trkpt lat="49.97379" lon="2.4307">
        <ele>54.6</ele>
        <time>2023-05-17T12:21:45Z</time>
      </trkpt>
      <trkpt lat="49.9738" lon="2.4307">
        <ele>54.7</ele>
        <time>2023-05-17T12:21:46Z</time>
      </trkpt>
      <trkpt lat="49.97381" lon="2.43069">
        <ele>54.8</ele>
        <time>2023-05-17T12:21:47Z</time>
      </trkpt>
      <trkpt lat="49.97383" lon="2.43069">
        <ele>54.9</ele>
        <time>2023-05-17T12:21:49Z</time>
      </trkpt>
      <trkpt lat="49.97386" lon="2.43068">
        <ele>55</ele>
        <time>2023-05-17T12:21:50Z</time>
      </trkpt>
      <trkpt lat="49.97387" lon="2.43067">
        <ele>55.1</ele>
        <time>2023-05-17T12:21:51Z</time>
      </trkpt>
      <trkpt lat="49.97389" lon="2.43067">
        <ele>55.2</ele>
        <time>2023-05-17T12:21:52Z</time>
      </trkpt>
      <trkpt lat="49.9739" lon="2.43066">
        <ele>55.3</ele>
        <time>2023-05-17T12:21:53Z</time>
      </trkpt>
      <trkpt lat="49.97393" lon="2.43064">
        <ele>55.4</ele>
        <time>2023-05-17T12:21:55Z</time>
      </trkpt>
      <trkpt lat="49.97394" lon="2.43064">
        <ele>55.5</ele>
        <time>2023-05-17T12:21:56Z</time>
      </trkpt>
      <trkpt lat="49.97394" lon="2.43064">
        <ele>55.5</ele>
        <time>2023-05-17T12:21:57Z</time>
      </trkpt>
      <trkpt lat="49.97395" lon="2.43064">
        <ele>55.5</ele>
        <time>2023-05-17T12:21:59Z</time>
      </trkpt>
      <trkpt lat="49.97395" lon="2.43064">
        <ele>55.5</ele>
        <time>2023-05-17T12:22:00Z</time>
      </trkpt>
      <trkpt lat="49.97394" lon="2.43064">
        <ele>55.5</ele>
        <time>2023-05-17T12:22:01Z</time>
      </trkpt>
      <trkpt lat="49.97395" lon="2.43064">
        <ele>55.6</ele>
        <time>2023-05-17T12:22:02Z</time>
      </trkpt>
      <trkpt lat="49.97395" lon="2.43063">
        <ele>55.6</ele>
        <time>2023-05-17T12:22:03Z</time>
      </trkpt>
      <trkpt lat="49.97396" lon="2.43062">
        <ele>55.7</ele>
        <time>2023-05-17T12:22:04Z</time>
      </trkpt>
      <trkpt lat="49.97397" lon="2.43061">
        <ele>55.7</ele>
        <time>2023-05-17T12:22:06Z</time>
      </trkpt>
      <trkpt lat="49.97398" lon="2.43061">
        <ele>55.8</ele>
        <time>2023-05-17T12:22:07Z</time>
      </trkpt>
      <trkpt lat="49.97398" lon="2.43061">
        <ele>55.8</ele>
        <time>2023-05-17T12:22:08Z</time>
      </trkpt>
      <trkpt lat="49.97399" lon="2.43061">
        <ele>55.8</ele>
        <time>2023-05-17T12:22:09Z</time>
      </trkpt>
      <trkpt lat="49.974" lon="2.4306">
        <ele>55.9</ele>
        <time>2023-05-17T12:22:10Z</time>
      </trkpt>
      <trkpt lat="49.97401" lon="2.43059">
        <ele>56</ele>
        <time>2023-05-17T12:22:11Z</time>
      </trkpt>
      <trkpt lat="49.97402" lon="2.43058">
        <ele>56</ele>
        <time>2023-05-17T12:22:13Z</time>
      </trkpt>
      <trkpt lat="49.97403" lon="2.43058">
        <ele>56</ele>
        <time>2023-05-17T12:22:14Z</time>
      </trkpt>
      <trkpt lat="49.97405" lon="2.43057">
        <ele>56.1</ele>
        <time>2023-05-17T12:22:15Z</time>
      </trkpt>
      <trkpt lat="49.97406" lon="2.43056">
        <ele>56.2</ele>
        <time>2023-05-17T12:22:16Z</time>
      </trkpt>
      <trkpt lat="49.97407" lon="2.43056">
        <ele>56.3</ele>
        <time>2023-05-17T12:22:17Z</time>
      </trkpt>
      <trkpt lat="49.97408" lon="2.43055">
        <ele>56.3</ele>
        <time>2023-05-17T12:22:18Z</time>
      </trkpt>
      <trkpt lat="49.97409" lon="2.43055">
        <ele>56.3</ele>
        <time>2023-05-17T12:22:20Z</time>
      </trkpt>
      <trkpt lat="49.9741" lon="2.43054">
        <ele>56.4</ele>
        <time>2023-05-17T12:22:21Z</time>
      </trkpt>
      <trkpt lat="49.97411" lon="2.43053">
        <ele>56.5</ele>
        <time>2023-05-17T12:22:22Z</time>
      </trkpt>
      <trkpt lat="49.97412" lon="2.43052">
        <ele>56.5</ele>
        <time>2023-05-17T12:22:23Z</time>
      </trkpt>
      <trkpt lat="49.97413" lon="2.4305">
        <ele>56.6</ele>
        <time>2023-05-17T12:22:24Z</time>
      </trkpt>
      <trkpt lat="49.97414" lon="2.43049">
        <ele>56.7</ele>
        <time>2023-05-17T12:22:25Z</time>
      </trkpt>
      <trkpt lat="49.97415" lon="2.43048">
        <ele>56.7</ele>
        <time>2023-05-17T12:22:26Z</time>
      </trkpt>
      <trkpt lat="49.97418" lon="2.43046">
        <ele>56.9</ele>
        <time>2023-05-17T12:22:28Z</time>
      </trkpt>
      <trkpt lat="49.97419" lon="2.43045">
        <ele>56.9</ele>
        <time>2023-05-17T12:22:29Z</time>
      </trkpt>
      <trkpt lat="49.97421" lon="2.43043">
        <ele>57.1</ele>
        <time>2023-05-17T12:22:30Z</time>
      </trkpt>
      <trkpt lat="49.97422" lon="2.43042">
        <ele>57.1</ele>
        <time>2023-05-17T12:22:31Z</time>
      </trkpt>
      <trkpt lat="49.97424" lon="2.4304">
        <ele>57.2</ele>
        <time>2023-05-17T12:22:32Z</time>
      </trkpt>
      <trkpt lat="49.97425" lon="2.43039">
        <ele>57.3</ele>
        <time>2023-05-17T12:22:33Z</time>
      </trkpt>
      <trkpt lat="49.97426" lon="2.43038">
        <ele>57.4</ele>
        <time>2023-05-17T12:22:35Z</time>
      </trkpt>
      <trkpt lat="49.97427" lon="2.43037">
        <ele>57.4</ele>
        <time>2023-05-17T12:22:36Z</time>
      </trkpt>
      <trkpt lat="49.97427" lon="2.43037">
        <ele>57.4</ele>
        <time>2023-05-17T12:22:37Z</time>
      </trkpt>
      <trkpt lat="49.97427" lon="2.43037">
        <ele>57.4</ele>
        <time>2023-05-17T12:22:38Z</time>
      </trkpt>
      <trkpt lat="49.97427" lon="2.43037">
        <ele>57.5</ele>
        <time>2023-05-17T12:22:39Z</time>
      </trkpt>
      <trkpt lat="49.97428" lon="2.43036">
        <ele>57.5</ele>
        <time>2023-05-17T12:22:41Z</time>
      </trkpt>
      <trkpt lat="49.97429" lon="2.43035">
        <ele>57.6</ele>
        <time>2023-05-17T12:22:42Z</time>
      </trkpt>
      <trkpt lat="49.9743" lon="2.43034">
        <ele>57.6</ele>
        <time>2023-05-17T12:22:43Z</time>
      </trkpt>
      <trkpt lat="49.97431" lon="2.43033">
        <ele>57.7</ele>
        <time>2023-05-17T12:22:44Z</time>
      </trkpt>
      <trkpt lat="49.97431" lon="2.43032">
        <ele>57.7</ele>
        <time>2023-05-17T12:22:45Z</time>
      </trkpt>
      <trkpt lat="49.97432" lon="2.43031">
        <ele>57.8</ele>
        <time>2023-05-17T12:22:46Z</time>
      </trkpt>
      <trkpt lat="49.97433" lon="2.4303">
        <ele>57.8</ele>
        <time>2023-05-17T12:22:48Z</time>
      </trkpt>
      <trkpt lat="49.97434" lon="2.43029">
        <ele>57.9</ele>
        <time>2023-05-17T12:22:49Z</time>
      </trkpt>
      <trkpt lat="49.97436" lon="2.43027">
        <ele>58</ele>
        <time>2023-05-17T12:22:50Z</time>
      </trkpt>
      <trkpt lat="49.97437" lon="2.43027">
        <ele>58</ele>
        <time>2023-05-17T12:22:51Z</time>
      </trkpt>
      <trkpt lat="49.97438" lon="2.43026">
        <ele>58.1</ele>
        <time>2023-05-17T12:22:52Z</time>
      </trkpt>
      <trkpt lat="49.97439" lon="2.43025">
        <ele>58.2</ele>
        <time>2023-05-17T12:22:54Z</time>
      </trkpt>
      <trkpt lat="49.97441" lon="2.43024">
        <ele>58.2</ele>
        <time>2023-05-17T12:22:55Z</time>
      </trkpt>
      <trkpt lat="49.97442" lon="2.43023">
        <ele>58.3</ele>
        <time>2023-05-17T12:22:56Z</time>
      </trkpt>
      <trkpt lat="49.97443" lon="2.43022">
        <ele>58.4</ele>
        <time>2023-05-17T12:22:57Z</time>
      </trkpt>
      <trkpt lat="49.97444" lon="2.43021">
        <ele>58.4</ele>
        <time>2023-05-17T12:22:58Z</time>
      </trkpt>
      <trkpt lat="49.97446" lon="2.4302">
        <ele>58.5</ele>
        <time>2023-05-17T12:22:59Z</time>
      </trkpt>
      <trkpt lat="49.97446" lon="2.43019">
        <ele>58.5</ele>
        <time>2023-05-17T12:23:01Z</time>
      </trkpt>
      <trkpt lat="49.97447" lon="2.43018">
        <ele>58.6</ele>
        <time>2023-05-17T12:23:02Z</time>
      </trkpt>
      <trkpt lat="49.97449" lon="2.43017">
        <ele>58.7</ele>
        <time>2023-05-17T12:23:03Z</time>
      </trkpt>
      <trkpt lat="49.9745" lon="2.43016">
        <ele>58.7</ele>
        <time>2023-05-17T12:23:04Z</time>
      </trkpt>
      <trkpt lat="49.9745" lon="2.43016">
        <ele>58.7</ele>
        <time>2023-05-17T12:23:05Z</time>
      </trkpt>
      <trkpt lat="49.97451" lon="2.43014">
        <ele>58.8</ele>
        <time>2023-05-17T12:23:06Z</time>
      </trkpt>
      <trkpt lat="49.97452" lon="2.43013">
        <ele>58.8</ele>
        <time>2023-05-17T12:23:07Z</time>
      </trkpt>
      <trkpt lat="49.97453" lon="2.43012">
        <ele>58.9</ele>
        <time>2023-05-17T12:23:09Z</time>
      </trkpt>
      <trkpt lat="49.97455" lon="2.43011">
        <ele>59</ele>
        <time>2023-05-17T12:23:10Z</time>
      </trkpt>
      <trkpt lat="49.97456" lon="2.4301">
        <ele>59</ele>
        <time>2023-05-17T12:23:11Z</time>
      </trkpt>
      <trkpt lat="49.97457" lon="2.43009">
        <ele>59.1</ele>
        <time>2023-05-17T12:23:12Z</time>
      </trkpt>
      <trkpt lat="49.97458" lon="2.43007">
        <ele>59.1</ele>
        <time>2023-05-17T12:23:13Z</time>
      </trkpt>
      <trkpt lat="49.97459" lon="2.43007">
        <ele>59.2</ele>
        <time>2023-05-17T12:23:14Z</time>
      </trkpt>
      <trkpt lat="49.9746" lon="2.43005">
        <ele>59.2</ele>
        <time>2023-05-17T12:23:16Z</time>
      </trkpt>
      <trkpt lat="49.97462" lon="2.43004">
        <ele>59.3</ele>
        <time>2023-05-17T12:23:17Z</time>
      </trkpt>
      <trkpt lat="49.97463" lon="2.43003">
        <ele>59.4</ele>
        <time>2023-05-17T12:23:18Z</time>
      </trkpt>
      <trkpt lat="49.97464" lon="2.43002">
        <ele>59.4</ele>
        <time>2023-05-17T12:23:19Z</time>
      </trkpt>
      <trkpt lat="49.97465" lon="2.43002">
        <ele>59.4</ele>
        <time>2023-05-17T12:23:20Z</time>
      </trkpt>
      <trkpt lat="49.97466" lon="2.43002">
        <ele>59.5</ele>
        <time>2023-05-17T12:23:21Z</time>
      </trkpt>
      <trkpt lat="49.97467" lon="2.43001">
        <ele>59.5</ele>
        <time>2023-05-17T12:23:23Z</time>
      </trkpt>
      <trkpt lat="49.97468" lon="2.43001">
        <ele>59.6</ele>
        <time>2023-05-17T12:23:24Z</time>
      </trkpt>
      <trkpt lat="49.97469" lon="2.43001">
        <ele>59.6</ele>
        <time>2023-05-17T12:23:25Z</time>
      </trkpt>
      <trkpt lat="49.9747" lon="2.43">
        <ele>59.6</ele>
        <time>2023-05-17T12:23:26Z</time>
      </trkpt>
      <trkpt lat="49.97471" lon="2.42999">
        <ele>59.7</ele>
        <time>2023-05-17T12:23:27Z</time>
      </trkpt>
      <trkpt lat="49.97473" lon="2.42998">
        <ele>59.8</ele>
        <time>2023-05-17T12:23:28Z</time>
      </trkpt>
      <trkpt lat="49.97474" lon="2.42996">
        <ele>59.8</ele>
        <time>2023-05-17T12:23:29Z</time>
      </trkpt>
      <trkpt lat="49.97476" lon="2.42994">
        <ele>59.9</ele>
        <time>2023-05-17T12:23:31Z</time>
      </trkpt>
      <trkpt lat="49.97477" lon="2.42994">
        <ele>60</ele>
        <time>2023-05-17T12:23:32Z</time>
      </trkpt>
      <trkpt lat="49.97477" lon="2.42993">
        <ele>60</ele>
        <time>2023-05-17T12:23:33Z</time>
      </trkpt>
      <trkpt lat="49.97478" lon="2.42993">
        <ele>60</ele>
        <time>2023-05-17T12:23:34Z</time>
      </trkpt>
      <trkpt lat="49.97478" lon="2.42993">
        <ele>60</ele>
        <time>2023-05-17T12:23:35Z</time>
      </trkpt>
      <trkpt lat="49.97478" lon="2.42992">
        <ele>60</ele>
        <time>2023-05-17T12:23:37Z</time>
      </trkpt>
      <trkpt lat="49.97479" lon="2.42991">
        <ele>60.1</ele>
        <time>2023-05-17T12:23:38Z</time>
      </trkpt>
      <trkpt lat="49.9748" lon="2.4299">
        <ele>60.1</ele>
        <time>2023-05-17T12:23:39Z</time>
      </trkpt>
      <trkpt lat="49.97481" lon="2.42989">
        <ele>60.2</ele>
        <time>2023-05-17T12:23:40Z</time>
      </trkpt>
      <trkpt lat="49.97482" lon="2.42988">
        <ele>60.2</ele>
        <time>2023-05-17T12:23:41Z</time>
      </trkpt>
      <trkpt lat="49.97482" lon="2.42988">
        <ele>60.2</ele>
        <time>2023-05-17T12:23:42Z</time>
      </trkpt>
      <trkpt lat="49.97483" lon="2.42986">
        <ele>60.3</ele>
        <time>2023-05-17T12:23:43Z</time>
      </trkpt>
      <trkpt lat="49.97485" lon="2.42985">
        <ele>60.3</ele>
        <time>2023-05-17T12:23:44Z</time>
      </trkpt>
      <trkpt lat="49.97486" lon="2.42984">
        <ele>60.4</ele>
        <time>2023-05-17T12:23:46Z</time>
      </trkpt>
      <trkpt lat="49.97488" lon="2.42983">
        <ele>60.5</ele>
        <time>2023-05-17T12:23:47Z</time>
      </trkpt>
      <trkpt lat="49.97491" lon="2.4298">
        <ele>60.6</ele>
        <time>2023-05-17T12:23:48Z</time>
      </trkpt>
      <trkpt lat="49.97492" lon="2.42979">
        <ele>60.6</ele>
        <time>2023-05-17T12:23:49Z</time>
      </trkpt>
      <trkpt lat="49.97493" lon="2.42978">
        <ele>60.7</ele>
        <time>2023-05-17T12:23:50Z</time>
      </trkpt>
      <trkpt lat="49.97495" lon="2.42976">
        <ele>60.7</ele>
        <time>2023-05-17T12:23:51Z</time>
      </trkpt>
      <trkpt lat="49.97495" lon="2.42976">
        <ele>60.8</ele>
        <time>2023-05-17T12:23:52Z</time>
      </trkpt>
      <trkpt lat="49.97496" lon="2.42976">
        <ele>60.8</ele>
        <time>2023-05-17T12:23:54Z</time>
      </trkpt>
      <trkpt lat="49.97496" lon="2.42976">
        <ele>60.8</ele>
        <time>2023-05-17T12:23:55Z</time>
      </trkpt>
      <trkpt lat="49.97497" lon="2.42976">
        <ele>60.8</ele>
        <time>2023-05-17T12:23:56Z</time>
      </trkpt>
      <trkpt lat="49.97497" lon="2.42975">
        <ele>60.8</ele>
        <time>2023-05-17T12:23:57Z</time>
      </trkpt>
      <trkpt lat="49.97499" lon="2.42974">
        <ele>60.9</ele>
        <time>2023-05-17T12:23:58Z</time>
      </trkpt>
      <trkpt lat="49.975" lon="2.42974">
        <ele>60.9</ele>
        <time>2023-05-17T12:23:59Z</time>
      </trkpt>
      <trkpt lat="49.97501" lon="2.42973">
        <ele>61</ele>
        <time>2023-05-17T12:24:00Z</time>
      </trkpt>
      <trkpt lat="49.97503" lon="2.42972">
        <ele>61</ele>
        <time>2023-05-17T12:24:01Z</time>
      </trkpt>
      <trkpt lat="49.97504" lon="2.42972">
        <ele>61.1</ele>
        <time>2023-05-17T12:24:03Z</time>
      </trkpt>
      <trkpt lat="49.97505" lon="2.42971">
        <ele>61.1</ele>
        <time>2023-05-17T12:24:04Z</time>
      </trkpt>
      <trkpt lat="49.97508" lon="2.42969">
        <ele>61.2</ele>
        <time>2023-05-17T12:24:05Z</time>
      </trkpt>
      <trkpt lat="49.97509" lon="2.42969">
        <ele>61.2</ele>
        <time>2023-05-17T12:24:06Z</time>
      </trkpt>
      <trkpt lat="49.97512" lon="2.42967">
        <ele>61.4</ele>
        <time>2023-05-17T12:24:07Z</time>
      </trkpt>
      <trkpt lat="49.97513" lon="2.42967">
        <ele>61.4</ele>
        <time>2023-05-17T12:24:08Z</time>
      </trkpt>
      <trkpt lat="49.97514" lon="2.42966">
        <ele>61.4</ele>
        <time>2023-05-17T12:24:10Z</time>
      </trkpt>
      <trkpt lat="49.97516" lon="2.42965">
        <ele>61.5</ele>
        <time>2023-05-17T12:24:11Z</time>
      </trkpt>
      <trkpt lat="49.97518" lon="2.42964">
        <ele>61.6</ele>
        <time>2023-05-17T12:24:12Z</time>
      </trkpt>
      <trkpt lat="49.97519" lon="2.42964">
        <ele>61.6</ele>
        <time>2023-05-17T12:24:13Z</time>
      </trkpt>
      <trkpt lat="49.9752" lon="2.42963">
        <ele>61.6</ele>
        <time>2023-05-17T12:24:14Z</time>
      </trkpt>
      <trkpt lat="49.97522" lon="2.42963">
        <ele>61.7</ele>
        <time>2023-05-17T12:24:15Z</time>
      </trkpt>
      <trkpt lat="49.97523" lon="2.42962">
        <ele>61.7</ele>
        <time>2023-05-17T12:24:16Z</time>
      </trkpt>
      <trkpt lat="49.97523" lon="2.42962">
        <ele>61.8</ele>
        <time>2023-05-17T12:24:17Z</time>
      </trkpt>
      <trkpt lat="49.97525" lon="2.42962">
        <ele>61.8</ele>
        <time>2023-05-17T12:24:19Z</time>
      </trkpt>
      <trkpt lat="49.97526" lon="2.42961">
        <ele>61.9</ele>
        <time>2023-05-17T12:24:20Z</time>
      </trkpt>
      <trkpt lat="49.97527" lon="2.42961">
        <ele>61.9</ele>
        <time>2023-05-17T12:24:21Z</time>
      </trkpt>
      <trkpt lat="49.97528" lon="2.42961">
        <ele>62</ele>
        <time>2023-05-17T12:24:22Z</time>
      </trkpt>
      <trkpt lat="49.9753" lon="2.4296">
        <ele>62</ele>
        <time>2023-05-17T12:24:23Z</time>
      </trkpt>
      <trkpt lat="49.97532" lon="2.4296">
        <ele>62.1</ele>
        <time>2023-05-17T12:24:24Z</time>
      </trkpt>
      <trkpt lat="49.97534" lon="2.42959">
        <ele>62.2</ele>
        <time>2023-05-17T12:24:26Z</time>
      </trkpt>
      <trkpt lat="49.97535" lon="2.42959">
        <ele>62.2</ele>
        <time>2023-05-17T12:24:27Z</time>
      </trkpt>
      <trkpt lat="49.97537" lon="2.42959">
        <ele>62.3</ele>
        <time>2023-05-17T12:24:28Z</time>
      </trkpt>
      <trkpt lat="49.97537" lon="2.42959">
        <ele>62.3</ele>
        <time>2023-05-17T12:24:29Z</time>
      </trkpt>
      <trkpt lat="49.97537" lon="2.4296">
        <ele>62.4</ele>
        <time>2023-05-17T12:24:30Z</time>
      </trkpt>
      <trkpt lat="49.97537" lon="2.42961">
        <ele>62.4</ele>
        <time>2023-05-17T12:24:31Z</time>
      </trkpt>
      <trkpt lat="49.97537" lon="2.42961">
        <ele>62.4</ele>
        <time>2023-05-17T12:24:32Z</time>
      </trkpt>
      <trkpt lat="49.97538" lon="2.42961">
        <ele>62.5</ele>
        <time>2023-05-17T12:24:34Z</time>
      </trkpt>
      <trkpt lat="49.97539" lon="2.4296">
        <ele>62.5</ele>
        <time>2023-05-17T12:24:35Z</time>
      </trkpt>
      <trkpt lat="49.9754" lon="2.4296">
        <ele>62.6</ele>
        <time>2023-05-17T12:24:36Z</time>
      </trkpt>
      <trkpt lat="49.97542" lon="2.4296">
        <ele>62.6</ele>
        <time>2023-05-17T12:24:37Z</time>
      </trkpt>
      <trkpt lat="49.97544" lon="2.42959">
        <ele>62.7</ele>
        <time>2023-05-17T12:24:39Z</time>
      </trkpt>
      <trkpt lat="49.97545" lon="2.42959">
        <ele>62.8</ele>
        <time>2023-05-17T12:24:40Z</time>
      </trkpt>
      <trkpt lat="49.97547" lon="2.42959">
        <ele>62.9</ele>
        <time>2023-05-17T12:24:42Z</time>
      </trkpt>
      <trkpt lat="49.97548" lon="2.42959">
        <ele>62.9</ele>
        <time>2023-05-17T12:24:43Z</time>
      </trkpt>
      <trkpt lat="49.97549" lon="2.4296">
        <ele>63</ele>
        <time>2023-05-17T12:24:44Z</time>
      </trkpt>
      <trkpt lat="49.9755" lon="2.4296">
        <ele>63</ele>
        <time>2023-05-17T12:24:46Z</time>
      </trkpt>
      <trkpt lat="49.9755" lon="2.42961">
        <ele>63</ele>
        <time>2023-05-17T12:24:47Z</time>
      </trkpt>
      <trkpt lat="49.97549" lon="2.42962">
        <ele>63.1</ele>
        <time>2023-05-17T12:24:49Z</time>
      </trkpt>
      <trkpt lat="49.97549" lon="2.42962">
        <ele>63.1</ele>
        <time>2023-05-17T12:24:50Z</time>
      </trkpt>
      <trkpt lat="49.97548" lon="2.42963">
        <ele>63.1</ele>
        <time>2023-05-17T12:24:52Z</time>
      </trkpt>
      <trkpt lat="49.97548" lon="2.42963">
        <ele>63.2</ele>
        <time>2023-05-17T12:24:53Z</time>
      </trkpt>
      <trkpt lat="49.97548" lon="2.42963">
        <ele>63.2</ele>
        <time>2023-05-17T12:24:55Z</time>
      </trkpt>
      <trkpt lat="49.97548" lon="2.42964">
        <ele>63.2</ele>
        <time>2023-05-17T12:24:56Z</time>
      </trkpt>
      <trkpt lat="49.97547" lon="2.42964">
        <ele>63.2</ele>
        <time>2023-05-17T12:24:58Z</time>
      </trkpt>
      <trkpt lat="49.97547" lon="2.42964">
        <ele>63.2</ele>
        <time>2023-05-17T12:24:59Z</time>
      </trkpt>
      <trkpt lat="49.97547" lon="2.42964">
        <ele>63.2</ele>
        <time>2023-05-17T12:25:00Z</time>
      </trkpt>
      <trkpt lat="49.97534" lon="2.42968">
        <ele>63.9</ele>
        <time>2023-05-17T12:27:48Z</time>
      </trkpt>
      <trkpt lat="49.97533" lon="2.42968">
        <ele>64</ele>
        <time>2023-05-17T12:27:49Z</time>
      </trkpt>
      <trkpt lat="49.97533" lon="2.42969">
        <ele>64</ele>
        <time>2023-05-17T12:27:50Z</time>
      </trkpt>
      <trkpt lat="49.97533" lon="2.42968">
        <ele>64</ele>
        <time>2023-05-17T12:27:51Z</time>
      </trkpt>
      <trkpt lat="49.97533" lon="2.42969">
        <ele>64</ele>
        <time>2023-05-17T12:27:53Z</time>
      </trkpt>
      <trkpt lat="49.97533" lon="2.42968">
        <ele>64.1</ele>
        <time>2023-05-17T12:27:54Z</time>
      </trkpt>
      <trkpt lat="49.97534" lon="2.42968">
        <ele>64.1</ele>
        <time>2023-05-17T12:27:55Z</time>
      </trkpt>
      <trkpt lat="49.97535" lon="2.42968">
        <ele>64.2</ele>
        <time>2023-05-17T12:27:56Z</time>
      </trkpt>
      <trkpt lat="49.97536" lon="2.42968">
        <ele>64.2</ele>
        <time>2023-05-17T12:27:57Z</time>
      </trkpt>
      <trkpt lat="49.97537" lon="2.42968">
        <ele>64.3</ele>
        <time>2023-05-17T12:27:58Z</time>
      </trkpt>
      <trkpt lat="49.97538" lon="2.42968">
        <ele>64.3</ele>
        <time>2023-05-17T12:28:00Z</time>
      </trkpt>
      <trkpt lat="49.97539" lon="2.42969">
        <ele>64.4</ele>
        <time>2023-05-17T12:28:01Z</time>
      </trkpt>
      <trkpt lat="49.9754" lon="2.42969">
        <ele>64.5</ele>
        <time>2023-05-17T12:28:02Z</time>
      </trkpt>
      <trkpt lat="49.97541" lon="2.42969">
        <ele>64.5</ele>
        <time>2023-05-17T12:28:03Z</time>
      </trkpt>
      <trkpt lat="49.97541" lon="2.4297">
        <ele>64.5</ele>
        <time>2023-05-17T12:28:04Z</time>
      </trkpt>
      <trkpt lat="49.97542" lon="2.4297">
        <ele>64.6</ele>
        <time>2023-05-17T12:28:05Z</time>
      </trkpt>
      <trkpt lat="49.97544" lon="2.42971">
        <ele>64.8</ele>
        <time>2023-05-17T12:28:07Z</time>
      </trkpt>
      <trkpt lat="49.97546" lon="2.42971">
        <ele>64.9</ele>
        <time>2023-05-17T12:28:08Z</time>
      </trkpt>
      <trkpt lat="49.97546" lon="2.42971">
        <ele>65</ele>
        <time>2023-05-17T12:28:09Z</time>
      </trkpt>
      <trkpt lat="49.97547" lon="2.42971">
        <ele>65</ele>
        <time>2023-05-17T12:28:10Z</time>
      </trkpt>
      <trkpt lat="49.97547" lon="2.42972">
        <ele>65</ele>
        <time>2023-05-17T12:28:11Z</time>
      </trkpt>
      <trkpt lat="49.97548" lon="2.42972">
        <ele>65.1</ele>
        <time>2023-05-17T12:28:12Z</time>
      </trkpt>
      <trkpt lat="49.97549" lon="2.42972">
        <ele>65.1</ele>
        <time>2023-05-17T12:28:13Z</time>
      </trkpt>
      <trkpt lat="49.9755" lon="2.42972">
        <ele>65.2</ele>
        <time>2023-05-17T12:28:14Z</time>
      </trkpt>
      <trkpt lat="49.97551" lon="2.42973">
        <ele>65.2</ele>
        <time>2023-05-17T12:28:16Z</time>
      </trkpt>
      <trkpt lat="49.97552" lon="2.42973">
        <ele>65.3</ele>
        <time>2023-05-17T12:28:17Z</time>
      </trkpt>
      <trkpt lat="49.97552" lon="2.42973">
        <ele>65.3</ele>
        <time>2023-05-17T12:28:18Z</time>
      </trkpt>
      <trkpt lat="49.97552" lon="2.42973">
        <ele>65.3</ele>
        <time>2023-05-17T12:28:19Z</time>
      </trkpt>
      <trkpt lat="49.97552" lon="2.42973">
        <ele>65.3</ele>
        <time>2023-05-17T12:28:21Z</time>
      </trkpt>
      <trkpt lat="49.97553" lon="2.42973">
        <ele>65.4</ele>
        <time>2023-05-17T12:28:22Z</time>
      </trkpt>
      <trkpt lat="49.97553" lon="2.42973">
        <ele>65.4</ele>
        <time>2023-05-17T12:28:23Z</time>
      </trkpt>
      <trkpt lat="49.97553" lon="2.42973">
        <ele>65.5</ele>
        <time>2023-05-17T12:28:25Z</time>
      </trkpt>
      <trkpt lat="49.97554" lon="2.42973">
        <ele>65.5</ele>
        <time>2023-05-17T12:28:26Z</time>
      </trkpt>
      <trkpt lat="49.97556" lon="2.42974">
        <ele>65.7</ele>
        <time>2023-05-17T12:28:27Z</time>
      </trkpt>
      <trkpt lat="49.97557" lon="2.42974">
        <ele>65.7</ele>
        <time>2023-05-17T12:28:28Z</time>
      </trkpt>
      <trkpt lat="49.97558" lon="2.42975">
        <ele>65.8</ele>
        <time>2023-05-17T12:28:29Z</time>
      </trkpt>
      <trkpt lat="49.97562" lon="2.42976">
        <ele>66.1</ele>
        <time>2023-05-17T12:28:31Z</time>
      </trkpt>
      <trkpt lat="49.97563" lon="2.42977">
        <ele>66.2</ele>
        <time>2023-05-17T12:28:32Z</time>
      </trkpt>
      <trkpt lat="49.97565" lon="2.42977">
        <ele>66.3</ele>
        <time>2023-05-17T12:28:33Z</time>
      </trkpt>
      <trkpt lat="49.97565" lon="2.42978">
        <ele>66.4</ele>
        <time>2023-05-17T12:28:34Z</time>
      </trkpt>
      <trkpt lat="49.97566" lon="2.42978">
        <ele>66.5</ele>
        <time>2023-05-17T12:28:35Z</time>
      </trkpt>
      <trkpt lat="49.97567" lon="2.42979">
        <ele>66.5</ele>
        <time>2023-05-17T12:28:36Z</time>
      </trkpt>
      <trkpt lat="49.97567" lon="2.42979">
        <ele>66.6</ele>
        <time>2023-05-17T12:28:37Z</time>
      </trkpt>
      <trkpt lat="49.97567" lon="2.42979">
        <ele>66.6</ele>
        <time>2023-05-17T12:28:39Z</time>
      </trkpt>
      <trkpt lat="49.97568" lon="2.42979">
        <ele>66.7</ele>
        <time>2023-05-17T12:28:40Z</time>
      </trkpt>
      <trkpt lat="49.97569" lon="2.42979">
        <ele>66.7</ele>
        <time>2023-05-17T12:28:41Z</time>
      </trkpt>
      <trkpt lat="49.9757" lon="2.4298">
        <ele>66.9</ele>
        <time>2023-05-17T12:28:42Z</time>
      </trkpt>
      <trkpt lat="49.97572" lon="2.42981">
        <ele>67.1</ele>
        <time>2023-05-17T12:28:44Z</time>
      </trkpt>
      <trkpt lat="49.97575" lon="2.42982">
        <ele>67.3</ele>
        <time>2023-05-17T12:28:45Z</time>
      </trkpt>
      <trkpt lat="49.97578" lon="2.42984">
        <ele>67.6</ele>
        <time>2023-05-17T12:28:46Z</time>
      </trkpt>
      <trkpt lat="49.97579" lon="2.42984">
        <ele>67.7</ele>
        <time>2023-05-17T12:28:47Z</time>
      </trkpt>
      <trkpt lat="49.9758" lon="2.42985">
        <ele>67.9</ele>
        <time>2023-05-17T12:28:48Z</time>
      </trkpt>
      <trkpt lat="49.97582" lon="2.42986">
        <ele>68</ele>
        <time>2023-05-17T12:28:49Z</time>
      </trkpt>
      <trkpt lat="49.97583" lon="2.42986">
        <ele>68.2</ele>
        <time>2023-05-17T12:28:50Z</time>
      </trkpt>
      <trkpt lat="49.97585" lon="2.42987">
        <ele>68.4</ele>
        <time>2023-05-17T12:28:52Z</time>
      </trkpt>
      <trkpt lat="49.97587" lon="2.42988">
        <ele>68.5</ele>
        <time>2023-05-17T12:28:53Z</time>
      </trkpt>
      <trkpt lat="49.97588" lon="2.42988">
        <ele>68.6</ele>
        <time>2023-05-17T12:28:54Z</time>
      </trkpt>
      <trkpt lat="49.97588" lon="2.42988">
        <ele>68.7</ele>
        <time>2023-05-17T12:28:55Z</time>
      </trkpt>
      <trkpt lat="49.97589" lon="2.42989">
        <ele>68.8</ele>
        <time>2023-05-17T12:28:57Z</time>
      </trkpt>
      <trkpt lat="49.9759" lon="2.42989">
        <ele>68.9</ele>
        <time>2023-05-17T12:28:59Z</time>
      </trkpt>
      <trkpt lat="49.97591" lon="2.4299">
        <ele>69</ele>
        <time>2023-05-17T12:29:00Z</time>
      </trkpt>
      <trkpt lat="49.97592" lon="2.4299">
        <ele>69.1</ele>
        <time>2023-05-17T12:29:01Z</time>
      </trkpt>
      <trkpt lat="49.97593" lon="2.4299">
        <ele>69.1</ele>
        <time>2023-05-17T12:29:02Z</time>
      </trkpt>
      <trkpt lat="49.97595" lon="2.42991">
        <ele>69.3</ele>
        <time>2023-05-17T12:29:04Z</time>
      </trkpt>
      <trkpt lat="49.97599" lon="2.42992">
        <ele>69.6</ele>
        <time>2023-05-17T12:29:05Z</time>
      </trkpt>
      <trkpt lat="49.97602" lon="2.42994">
        <ele>69.8</ele>
        <time>2023-05-17T12:29:06Z</time>
      </trkpt>
      <trkpt lat="49.97604" lon="2.42994">
        <ele>70</ele>
        <time>2023-05-17T12:29:07Z</time>
      </trkpt>
      <trkpt lat="49.97608" lon="2.42996">
        <ele>70.2</ele>
        <time>2023-05-17T12:29:08Z</time>
      </trkpt>
      <trkpt lat="49.97609" lon="2.42996">
        <ele>70.3</ele>
        <time>2023-05-17T12:29:09Z</time>
      </trkpt>
      <trkpt lat="49.97611" lon="2.42997">
        <ele>70.4</ele>
        <time>2023-05-17T12:29:10Z</time>
      </trkpt>
      <trkpt lat="49.97613" lon="2.42998">
        <ele>70.5</ele>
        <time>2023-05-17T12:29:12Z</time>
      </trkpt>
      <trkpt lat="49.97615" lon="2.42998">
        <ele>70.6</ele>
        <time>2023-05-17T12:29:13Z</time>
      </trkpt>
      <trkpt lat="49.97616" lon="2.42999">
        <ele>70.7</ele>
        <time>2023-05-17T12:29:14Z</time>
      </trkpt>
      <trkpt lat="49.97616" lon="2.42999">
        <ele>70.7</ele>
        <time>2023-05-17T12:29:15Z</time>
      </trkpt>
      <trkpt lat="49.97617" lon="2.43">
        <ele>70.8</ele>
        <time>2023-05-17T12:29:16Z</time>
      </trkpt>
      <trkpt lat="49.97618" lon="2.43">
        <ele>70.8</ele>
        <time>2023-05-17T12:29:18Z</time>
      </trkpt>
      <trkpt lat="49.97619" lon="2.43001">
        <ele>70.9</ele>
        <time>2023-05-17T12:29:19Z</time>
      </trkpt>
      <trkpt lat="49.97619" lon="2.43001">
        <ele>70.9</ele>
        <time>2023-05-17T12:29:20Z</time>
      </trkpt>
      <trkpt lat="49.97621" lon="2.43002">
        <ele>71</ele>
        <time>2023-05-17T12:29:21Z</time>
      </trkpt>
      <trkpt lat="49.97622" lon="2.43003">
        <ele>71.1</ele>
        <time>2023-05-17T12:29:22Z</time>
      </trkpt>
      <trkpt lat="49.97623" lon="2.43003">
        <ele>71.1</ele>
        <time>2023-05-17T12:29:24Z</time>
      </trkpt>
      <trkpt lat="49.97623" lon="2.43004">
        <ele>71.2</ele>
        <time>2023-05-17T12:29:25Z</time>
      </trkpt>
      <trkpt lat="49.97624" lon="2.43004">
        <ele>71.2</ele>
        <time>2023-05-17T12:29:26Z</time>
      </trkpt>
      <trkpt lat="49.97625" lon="2.43005">
        <ele>71.3</ele>
        <time>2023-05-17T12:29:28Z</time>
      </trkpt>
      <trkpt lat="49.97626" lon="2.43006">
        <ele>71.3</ele>
        <time>2023-05-17T12:29:29Z</time>
      </trkpt>
      <trkpt lat="49.97627" lon="2.43006">
        <ele>71.4</ele>
        <time>2023-05-17T12:29:30Z</time>
      </trkpt>
      <trkpt lat="49.97628" lon="2.43007">
        <ele>71.4</ele>
        <time>2023-05-17T12:29:31Z</time>
      </trkpt>
      <trkpt lat="49.97629" lon="2.43008">
        <ele>71.5</ele>
        <time>2023-05-17T12:29:32Z</time>
      </trkpt>
      <trkpt lat="49.9763" lon="2.43009">
        <ele>71.6</ele>
        <time>2023-05-17T12:29:33Z</time>
      </trkpt>
      <trkpt lat="49.97633" lon="2.43011">
        <ele>71.7</ele>
        <time>2023-05-17T12:29:35Z</time>
      </trkpt>
      <trkpt lat="49.97634" lon="2.43012">
        <ele>71.8</ele>
        <time>2023-05-17T12:29:36Z</time>
      </trkpt>
      <trkpt lat="49.97636" lon="2.43014">
        <ele>71.9</ele>
        <time>2023-05-17T12:29:37Z</time>
      </trkpt>
      <trkpt lat="49.97637" lon="2.43015">
        <ele>72</ele>
        <time>2023-05-17T12:29:38Z</time>
      </trkpt>
      <trkpt lat="49.97638" lon="2.43016">
        <ele>72.1</ele>
        <time>2023-05-17T12:29:39Z</time>
      </trkpt>
      <trkpt lat="49.9764" lon="2.43017">
        <ele>72.1</ele>
        <time>2023-05-17T12:29:40Z</time>
      </trkpt>
      <trkpt lat="49.97641" lon="2.43019">
        <ele>72.2</ele>
        <time>2023-05-17T12:29:42Z</time>
      </trkpt>
      <trkpt lat="49.97643" lon="2.4302">
        <ele>72.3</ele>
        <time>2023-05-17T12:29:43Z</time>
      </trkpt>
      <trkpt lat="49.97645" lon="2.43022">
        <ele>72.3</ele>
        <time>2023-05-17T12:29:44Z</time>
      </trkpt>
      <trkpt lat="49.97646" lon="2.43022">
        <ele>72.4</ele>
        <time>2023-05-17T12:29:45Z</time>
      </trkpt>
      <trkpt lat="49.97646" lon="2.43023">
        <ele>72.4</ele>
        <time>2023-05-17T12:29:46Z</time>
      </trkpt>
      <trkpt lat="49.97647" lon="2.43023">
        <ele>72.4</ele>
        <time>2023-05-17T12:29:47Z</time>
      </trkpt>
      <trkpt lat="49.97648" lon="2.43024">
        <ele>72.5</ele>
        <time>2023-05-17T12:29:49Z</time>
      </trkpt>
      <trkpt lat="49.97649" lon="2.43025">
        <ele>72.5</ele>
        <time>2023-05-17T12:29:50Z</time>
      </trkpt>
      <trkpt lat="49.97651" lon="2.43026">
        <ele>72.5</ele>
        <time>2023-05-17T12:29:51Z</time>
      </trkpt>
      <trkpt lat="49.97652" lon="2.43027">
        <ele>72.6</ele>
        <time>2023-05-17T12:29:52Z</time>
      </trkpt>
      <trkpt lat="49.97653" lon="2.43027">
        <ele>72.6</ele>
        <time>2023-05-17T12:29:53Z</time>
      </trkpt>
      <trkpt lat="49.97654" lon="2.43028">
        <ele>72.6</ele>
        <time>2023-05-17T12:29:54Z</time>
      </trkpt>
      <trkpt lat="49.97655" lon="2.43029">
        <ele>72.6</ele>
        <time>2023-05-17T12:29:55Z</time>
      </trkpt>
      <trkpt lat="49.97656" lon="2.43029">
        <ele>72.6</ele>
        <time>2023-05-17T12:29:57Z</time>
      </trkpt>
      <trkpt lat="49.97656" lon="2.4303">
        <ele>72.6</ele>
        <time>2023-05-17T12:29:58Z</time>
      </trkpt>
      <trkpt lat="49.97657" lon="2.43031">
        <ele>72.6</ele>
        <time>2023-05-17T12:29:59Z</time>
      </trkpt>
      <trkpt lat="49.97658" lon="2.43032">
        <ele>72.6</ele>
        <time>2023-05-17T12:30:00Z</time>
      </trkpt>
      <trkpt lat="49.97659" lon="2.43033">
        <ele>72.6</ele>
        <time>2023-05-17T12:30:02Z</time>
      </trkpt>
      <trkpt lat="49.97661" lon="2.43034">
        <ele>72.7</ele>
        <time>2023-05-17T12:30:03Z</time>
      </trkpt>
      <trkpt lat="49.97663" lon="2.43035">
        <ele>72.7</ele>
        <time>2023-05-17T12:30:04Z</time>
      </trkpt>
      <trkpt lat="49.97663" lon="2.43035">
        <ele>72.7</ele>
        <time>2023-05-17T12:30:05Z</time>
      </trkpt>
      <trkpt lat="49.97664" lon="2.43036">
        <ele>72.7</ele>
        <time>2023-05-17T12:30:06Z</time>
      </trkpt>
      <trkpt lat="49.97665" lon="2.43037">
        <ele>72.7</ele>
        <time>2023-05-17T12:30:07Z</time>
      </trkpt>
      <trkpt lat="49.97666" lon="2.43037">
        <ele>72.7</ele>
        <time>2023-05-17T12:30:08Z</time>
      </trkpt>
      <trkpt lat="49.97668" lon="2.43038">
        <ele>72.7</ele>
        <time>2023-05-17T12:30:10Z</time>
      </trkpt>
      <trkpt lat="49.97669" lon="2.43038">
        <ele>72.7</ele>
        <time>2023-05-17T12:30:11Z</time>
      </trkpt>
      <trkpt lat="49.9767" lon="2.43039">
        <ele>72.7</ele>
        <time>2023-05-17T12:30:12Z</time>
      </trkpt>
      <trkpt lat="49.97671" lon="2.43039">
        <ele>72.7</ele>
        <time>2023-05-17T12:30:13Z</time>
      </trkpt>
      <trkpt lat="49.97671" lon="2.4304">
        <ele>72.7</ele>
        <time>2023-05-17T12:30:14Z</time>
      </trkpt>
      <trkpt lat="49.97672" lon="2.43041">
        <ele>72.7</ele>
        <time>2023-05-17T12:30:15Z</time>
      </trkpt>
      <trkpt lat="49.97673" lon="2.43041">
        <ele>72.7</ele>
        <time>2023-05-17T12:30:16Z</time>
      </trkpt>
      <trkpt lat="49.97675" lon="2.43042">
        <ele>72.7</ele>
        <time>2023-05-17T12:30:18Z</time>
      </trkpt>
      <trkpt lat="49.97676" lon="2.43042">
        <ele>72.7</ele>
        <time>2023-05-17T12:30:19Z</time>
      </trkpt>
      <trkpt lat="49.97677" lon="2.43042">
        <ele>72.7</ele>
        <time>2023-05-17T12:30:20Z</time>
      </trkpt>
      <trkpt lat="49.97678" lon="2.43042">
        <ele>72.7</ele>
        <time>2023-05-17T12:30:21Z</time>
      </trkpt>
      <trkpt lat="49.97679" lon="2.43043">
        <ele>72.7</ele>
        <time>2023-05-17T12:30:22Z</time>
      </trkpt>
      <trkpt lat="49.9768" lon="2.43043">
        <ele>72.7</ele>
        <time>2023-05-17T12:30:24Z</time>
      </trkpt>
      <trkpt lat="49.97682" lon="2.43044">
        <ele>72.7</ele>
        <time>2023-05-17T12:30:25Z</time>
      </trkpt>
      <trkpt lat="49.97683" lon="2.43045">
        <ele>72.7</ele>
        <time>2023-05-17T12:30:26Z</time>
      </trkpt>
      <trkpt lat="49.97684" lon="2.43046">
        <ele>72.7</ele>
        <time>2023-05-17T12:30:27Z</time>
      </trkpt>
      <trkpt lat="49.97685" lon="2.43047">
        <ele>72.7</ele>
        <time>2023-05-17T12:30:28Z</time>
      </trkpt>
      <trkpt lat="49.97686" lon="2.43048">
        <ele>72.7</ele>
        <time>2023-05-17T12:30:30Z</time>
      </trkpt>
      <trkpt lat="49.97688" lon="2.43049">
        <ele>72.7</ele>
        <time>2023-05-17T12:30:31Z</time>
      </trkpt>
      <trkpt lat="49.97689" lon="2.4305">
        <ele>72.7</ele>
        <time>2023-05-17T12:30:32Z</time>
      </trkpt>
      <trkpt lat="49.97689" lon="2.43051">
        <ele>72.7</ele>
        <time>2023-05-17T12:30:33Z</time>
      </trkpt>
      <trkpt lat="49.9769" lon="2.43051">
        <ele>72.7</ele>
        <time>2023-05-17T12:30:34Z</time>
      </trkpt>
      <trkpt lat="49.97691" lon="2.43052">
        <ele>72.6</ele>
        <time>2023-05-17T12:30:35Z</time>
      </trkpt>
      <trkpt lat="49.97692" lon="2.43053">
        <ele>72.6</ele>
        <time>2023-05-17T12:30:36Z</time>
      </trkpt>
      <trkpt lat="49.97694" lon="2.43054">
        <ele>72.6</ele>
        <time>2023-05-17T12:30:37Z</time>
      </trkpt>
      <trkpt lat="49.97695" lon="2.43054">
        <ele>72.6</ele>
        <time>2023-05-17T12:30:38Z</time>
      </trkpt>
      <trkpt lat="49.97696" lon="2.43055">
        <ele>72.6</ele>
        <time>2023-05-17T12:30:40Z</time>
      </trkpt>
      <trkpt lat="49.97697" lon="2.43055">
        <ele>72.5</ele>
        <time>2023-05-17T12:30:41Z</time>
      </trkpt>
      <trkpt lat="49.97698" lon="2.43056">
        <ele>72.5</ele>
        <time>2023-05-17T12:30:42Z</time>
      </trkpt>
      <trkpt lat="49.97699" lon="2.43056">
        <ele>72.5</ele>
        <time>2023-05-17T12:30:43Z</time>
      </trkpt>
      <trkpt lat="49.97701" lon="2.43058">
        <ele>72.5</ele>
        <time>2023-05-17T12:30:44Z</time>
      </trkpt>
      <trkpt lat="49.97701" lon="2.43058">
        <ele>72.4</ele>
        <time>2023-05-17T12:30:45Z</time>
      </trkpt>
      <trkpt lat="49.97702" lon="2.43059">
        <ele>72.4</ele>
        <time>2023-05-17T12:30:46Z</time>
      </trkpt>
      <trkpt lat="49.97703" lon="2.4306">
        <ele>72.4</ele>
        <time>2023-05-17T12:30:48Z</time>
      </trkpt>
      <trkpt lat="49.97704" lon="2.43061">
        <ele>72.4</ele>
        <time>2023-05-17T12:30:49Z</time>
      </trkpt>
      <trkpt lat="49.97704" lon="2.43063">
        <ele>72.3</ele>
        <time>2023-05-17T12:30:50Z</time>
      </trkpt>
      <trkpt lat="49.97705" lon="2.43064">
        <ele>72.3</ele>
        <time>2023-05-17T12:30:51Z</time>
      </trkpt>
      <trkpt lat="49.97706" lon="2.43064">
        <ele>72.3</ele>
        <time>2023-05-17T12:30:52Z</time>
      </trkpt>
      <trkpt lat="49.97707" lon="2.43065">
        <ele>72.2</ele>
        <time>2023-05-17T12:30:53Z</time>
      </trkpt>
      <trkpt lat="49.97709" lon="2.43066">
        <ele>72.2</ele>
        <time>2023-05-17T12:30:55Z</time>
      </trkpt>
      <trkpt lat="49.9771" lon="2.43067">
        <ele>72.1</ele>
        <time>2023-05-17T12:30:56Z</time>
      </trkpt>
      <trkpt lat="49.97711" lon="2.43067">
        <ele>72.1</ele>
        <time>2023-05-17T12:30:57Z</time>
      </trkpt>
      <trkpt lat="49.97711" lon="2.43067">
        <ele>72.1</ele>
        <time>2023-05-17T12:30:58Z</time>
      </trkpt>
      <trkpt lat="49.97712" lon="2.43067">
        <ele>72.1</ele>
        <time>2023-05-17T12:31:00Z</time>
      </trkpt>
      <trkpt lat="49.97713" lon="2.43067">
        <ele>72.1</ele>
        <time>2023-05-17T12:31:01Z</time>
      </trkpt>
      <trkpt lat="49.97714" lon="2.43067">
        <ele>72</ele>
        <time>2023-05-17T12:31:02Z</time>
      </trkpt>
      <trkpt lat="49.97715" lon="2.43067">
        <ele>72</ele>
        <time>2023-05-17T12:31:03Z</time>
      </trkpt>
      <trkpt lat="49.97715" lon="2.43068">
        <ele>72</ele>
        <time>2023-05-17T12:31:04Z</time>
      </trkpt>
      <trkpt lat="49.97716" lon="2.43069">
        <ele>71.9</ele>
        <time>2023-05-17T12:31:05Z</time>
      </trkpt>
      <trkpt lat="49.97718" lon="2.4307">
        <ele>71.9</ele>
        <time>2023-05-17T12:31:06Z</time>
      </trkpt>
      <trkpt lat="49.97718" lon="2.4307">
        <ele>71.8</ele>
        <time>2023-05-17T12:31:07Z</time>
      </trkpt>
      <trkpt lat="49.97719" lon="2.43071">
        <ele>71.8</ele>
        <time>2023-05-17T12:31:08Z</time>
      </trkpt>
      <trkpt lat="49.9772" lon="2.43071">
        <ele>71.8</ele>
        <time>2023-05-17T12:31:10Z</time>
      </trkpt>
      <trkpt lat="49.9772" lon="2.43071">
        <ele>71.8</ele>
        <time>2023-05-17T12:31:11Z</time>
      </trkpt>
      <trkpt lat="49.97721" lon="2.43072">
        <ele>71.7</ele>
        <time>2023-05-17T12:31:12Z</time>
      </trkpt>
      <trkpt lat="49.97721" lon="2.43072">
        <ele>71.7</ele>
        <time>2023-05-17T12:31:13Z</time>
      </trkpt>
      <trkpt lat="49.97722" lon="2.43073">
        <ele>71.7</ele>
        <time>2023-05-17T12:31:14Z</time>
      </trkpt>
      <trkpt lat="49.97722" lon="2.43073">
        <ele>71.7</ele>
        <time>2023-05-17T12:31:15Z</time>
      </trkpt>
      <trkpt lat="49.97723" lon="2.43074">
        <ele>71.6</ele>
        <time>2023-05-17T12:31:16Z</time>
      </trkpt>
      <trkpt lat="49.97724" lon="2.43074">
        <ele>71.6</ele>
        <time>2023-05-17T12:31:17Z</time>
      </trkpt>
      <trkpt lat="49.97725" lon="2.43075">
        <ele>71.5</ele>
        <time>2023-05-17T12:31:18Z</time>
      </trkpt>
      <trkpt lat="49.97727" lon="2.43075">
        <ele>71.5</ele>
        <time>2023-05-17T12:31:20Z</time>
      </trkpt>
      <trkpt lat="49.97728" lon="2.43076">
        <ele>71.4</ele>
        <time>2023-05-17T12:31:21Z</time>
      </trkpt>
      <trkpt lat="49.97729" lon="2.43077">
        <ele>71.3</ele>
        <time>2023-05-17T12:31:22Z</time>
      </trkpt>
      <trkpt lat="49.97731" lon="2.43077">
        <ele>71.2</ele>
        <time>2023-05-17T12:31:23Z</time>
      </trkpt>
      <trkpt lat="49.97734" lon="2.43079">
        <ele>71</ele>
        <time>2023-05-17T12:31:24Z</time>
      </trkpt>
      <trkpt lat="49.97736" lon="2.43079">
        <ele>70.9</ele>
        <time>2023-05-17T12:31:25Z</time>
      </trkpt>
      <trkpt lat="49.97739" lon="2.43081">
        <ele>70.8</ele>
        <time>2023-05-17T12:31:27Z</time>
      </trkpt>
      <trkpt lat="49.9774" lon="2.43081">
        <ele>70.7</ele>
        <time>2023-05-17T12:31:28Z</time>
      </trkpt>
      <trkpt lat="49.97742" lon="2.43082">
        <ele>70.6</ele>
        <time>2023-05-17T12:31:29Z</time>
      </trkpt>
      <trkpt lat="49.97743" lon="2.43082">
        <ele>70.5</ele>
        <time>2023-05-17T12:31:30Z</time>
      </trkpt>
      <trkpt lat="49.97745" lon="2.43084">
        <ele>70.4</ele>
        <time>2023-05-17T12:31:31Z</time>
      </trkpt>
      <trkpt lat="49.97746" lon="2.43084">
        <ele>70.4</ele>
        <time>2023-05-17T12:31:32Z</time>
      </trkpt>
      <trkpt lat="49.97746" lon="2.43085">
        <ele>70.3</ele>
        <time>2023-05-17T12:31:33Z</time>
      </trkpt>
      <trkpt lat="49.97748" lon="2.43085">
        <ele>70.3</ele>
        <time>2023-05-17T12:31:34Z</time>
      </trkpt>
      <trkpt lat="49.97749" lon="2.43086">
        <ele>70.2</ele>
        <time>2023-05-17T12:31:35Z</time>
      </trkpt>
      <trkpt lat="49.97751" lon="2.43086">
        <ele>70.1</ele>
        <time>2023-05-17T12:31:37Z</time>
      </trkpt>
      <trkpt lat="49.97753" lon="2.43087">
        <ele>70</ele>
        <time>2023-05-17T12:31:38Z</time>
      </trkpt>
      <trkpt lat="49.97755" lon="2.43088">
        <ele>69.9</ele>
        <time>2023-05-17T12:31:39Z</time>
      </trkpt>
      <trkpt lat="49.97755" lon="2.43089">
        <ele>69.9</ele>
        <time>2023-05-17T12:31:41Z</time>
      </trkpt>
      <trkpt lat="49.97756" lon="2.43089">
        <ele>69.8</ele>
        <time>2023-05-17T12:31:42Z</time>
      </trkpt>
      <trkpt lat="49.97757" lon="2.4309">
        <ele>69.7</ele>
        <time>2023-05-17T12:31:43Z</time>
      </trkpt>
      <trkpt lat="49.97758" lon="2.43091">
        <ele>69.7</ele>
        <time>2023-05-17T12:31:44Z</time>
      </trkpt>
      <trkpt lat="49.97759" lon="2.43092">
        <ele>69.6</ele>
        <time>2023-05-17T12:31:45Z</time>
      </trkpt>
      <trkpt lat="49.97759" lon="2.43093">
        <ele>69.6</ele>
        <time>2023-05-17T12:31:46Z</time>
      </trkpt>
      <trkpt lat="49.9776" lon="2.43094">
        <ele>69.5</ele>
        <time>2023-05-17T12:31:48Z</time>
      </trkpt>
      <trkpt lat="49.97761" lon="2.43095">
        <ele>69.5</ele>
        <time>2023-05-17T12:31:49Z</time>
      </trkpt>
      <trkpt lat="49.97763" lon="2.43095">
        <ele>69.4</ele>
        <time>2023-05-17T12:31:50Z</time>
      </trkpt>
      <trkpt lat="49.97764" lon="2.43096">
        <ele>69.3</ele>
        <time>2023-05-17T12:31:51Z</time>
      </trkpt>
      <trkpt lat="49.97765" lon="2.43096">
        <ele>69.3</ele>
        <time>2023-05-17T12:31:52Z</time>
      </trkpt>
      <trkpt lat="49.97767" lon="2.43096">
        <ele>69.2</ele>
        <time>2023-05-17T12:31:53Z</time>
      </trkpt>
      <trkpt lat="49.97768" lon="2.43097">
        <ele>69.1</ele>
        <time>2023-05-17T12:31:55Z</time>
      </trkpt>
      <trkpt lat="49.97769" lon="2.43097">
        <ele>69.1</ele>
        <time>2023-05-17T12:31:56Z</time>
      </trkpt>
      <trkpt lat="49.9777" lon="2.43097">
        <ele>69</ele>
        <time>2023-05-17T12:31:57Z</time>
      </trkpt>
      <trkpt lat="49.97771" lon="2.43097">
        <ele>69</ele>
        <time>2023-05-17T12:31:58Z</time>
      </trkpt>
      <trkpt lat="49.97772" lon="2.43098">
        <ele>68.9</ele>
        <time>2023-05-17T12:31:59Z</time>
      </trkpt>
      <trkpt lat="49.97773" lon="2.43098">
        <ele>68.8</ele>
        <time>2023-05-17T12:32:01Z</time>
      </trkpt>
      <trkpt lat="49.97775" lon="2.43098">
        <ele>68.8</ele>
        <time>2023-05-17T12:32:02Z</time>
      </trkpt>
      <trkpt lat="49.97776" lon="2.43098">
        <ele>68.7</ele>
        <time>2023-05-17T12:32:03Z</time>
      </trkpt>
      <trkpt lat="49.97777" lon="2.43098">
        <ele>68.6</ele>
        <time>2023-05-17T12:32:04Z</time>
      </trkpt>
      <trkpt lat="49.97778" lon="2.43099">
        <ele>68.6</ele>
        <time>2023-05-17T12:32:05Z</time>
      </trkpt>
      <trkpt lat="49.97779" lon="2.43099">
        <ele>68.5</ele>
        <time>2023-05-17T12:32:06Z</time>
      </trkpt>
      <trkpt lat="49.97781" lon="2.431">
        <ele>68.4</ele>
        <time>2023-05-17T12:32:08Z</time>
      </trkpt>
      <trkpt lat="49.97782" lon="2.43101">
        <ele>68.4</ele>
        <time>2023-05-17T12:32:09Z</time>
      </trkpt>
      <trkpt lat="49.97784" lon="2.43102">
        <ele>68.2</ele>
        <time>2023-05-17T12:32:10Z</time>
      </trkpt>
      <trkpt lat="49.97785" lon="2.43103">
        <ele>68.2</ele>
        <time>2023-05-17T12:32:11Z</time>
      </trkpt>
      <trkpt lat="49.97785" lon="2.43103">
        <ele>68.2</ele>
        <time>2023-05-17T12:32:12Z</time>
      </trkpt>
      <trkpt lat="49.97786" lon="2.43104">
        <ele>68.1</ele>
        <time>2023-05-17T12:32:13Z</time>
      </trkpt>
      <trkpt lat="49.97787" lon="2.43105">
        <ele>68</ele>
        <time>2023-05-17T12:32:15Z</time>
      </trkpt>
      <trkpt lat="49.97788" lon="2.43106">
        <ele>68</ele>
        <time>2023-05-17T12:32:16Z</time>
      </trkpt>
      <trkpt lat="49.9779" lon="2.43107">
        <ele>67.9</ele>
        <time>2023-05-17T12:32:17Z</time>
      </trkpt>
      <trkpt lat="49.97791" lon="2.43107">
        <ele>67.8</ele>
        <time>2023-05-17T12:32:18Z</time>
      </trkpt>
      <trkpt lat="49.97792" lon="2.43108">
        <ele>67.8</ele>
        <time>2023-05-17T12:32:19Z</time>
      </trkpt>
      <trkpt lat="49.97793" lon="2.43108">
        <ele>67.8</ele>
        <time>2023-05-17T12:32:20Z</time>
      </trkpt>
      <trkpt lat="49.97794" lon="2.43109">
        <ele>67.7</ele>
        <time>2023-05-17T12:32:22Z</time>
      </trkpt>
      <trkpt lat="49.97795" lon="2.43109">
        <ele>67.6</ele>
        <time>2023-05-17T12:32:23Z</time>
      </trkpt>
      <trkpt lat="49.97796" lon="2.4311">
        <ele>67.6</ele>
        <time>2023-05-17T12:32:24Z</time>
      </trkpt>
      <trkpt lat="49.97797" lon="2.4311">
        <ele>67.5</ele>
        <time>2023-05-17T12:32:25Z</time>
      </trkpt>
      <trkpt lat="49.97798" lon="2.43111">
        <ele>67.5</ele>
        <time>2023-05-17T12:32:26Z</time>
      </trkpt>
      <trkpt lat="49.97799" lon="2.43112">
        <ele>67.4</ele>
        <time>2023-05-17T12:32:27Z</time>
      </trkpt>
      <trkpt lat="49.978" lon="2.43113">
        <ele>67.4</ele>
        <time>2023-05-17T12:32:28Z</time>
      </trkpt>
      <trkpt lat="49.97801" lon="2.43114">
        <ele>67.3</ele>
        <time>2023-05-17T12:32:29Z</time>
      </trkpt>
      <trkpt lat="49.97803" lon="2.43115">
        <ele>67.2</ele>
        <time>2023-05-17T12:32:31Z</time>
      </trkpt>
      <trkpt lat="49.97803" lon="2.43116">
        <ele>67.1</ele>
        <time>2023-05-17T12:32:32Z</time>
      </trkpt>
      <trkpt lat="49.97804" lon="2.43116">
        <ele>67.1</ele>
        <time>2023-05-17T12:32:33Z</time>
      </trkpt>
      <trkpt lat="49.97805" lon="2.43117">
        <ele>67</ele>
        <time>2023-05-17T12:32:34Z</time>
      </trkpt>
      <trkpt lat="49.97807" lon="2.43118">
        <ele>67</ele>
        <time>2023-05-17T12:32:35Z</time>
      </trkpt>
      <trkpt lat="49.97808" lon="2.43119">
        <ele>66.9</ele>
        <time>2023-05-17T12:32:37Z</time>
      </trkpt>
      <trkpt lat="49.97809" lon="2.4312">
        <ele>66.8</ele>
        <time>2023-05-17T12:32:38Z</time>
      </trkpt>
      <trkpt lat="49.9781" lon="2.43121">
        <ele>66.8</ele>
        <time>2023-05-17T12:32:39Z</time>
      </trkpt>
      <trkpt lat="49.97811" lon="2.43122">
        <ele>66.7</ele>
        <time>2023-05-17T12:32:40Z</time>
      </trkpt>
      <trkpt lat="49.97813" lon="2.43123">
        <ele>66.6</ele>
        <time>2023-05-17T12:32:41Z</time>
      </trkpt>
      <trkpt lat="49.97814" lon="2.43125">
        <ele>66.5</ele>
        <time>2023-05-17T12:32:42Z</time>
      </trkpt>
      <trkpt lat="49.97815" lon="2.43125">
        <ele>66.5</ele>
        <time>2023-05-17T12:32:44Z</time>
      </trkpt>
      <trkpt lat="49.97816" lon="2.43126">
        <ele>66.5</ele>
        <time>2023-05-17T12:32:45Z</time>
      </trkpt>
      <trkpt lat="49.97817" lon="2.43127">
        <ele>66.4</ele>
        <time>2023-05-17T12:32:46Z</time>
      </trkpt>
      <trkpt lat="49.97818" lon="2.43128">
        <ele>66.3</ele>
        <time>2023-05-17T12:32:47Z</time>
      </trkpt>
      <trkpt lat="49.97819" lon="2.43129">
        <ele>66.3</ele>
        <time>2023-05-17T12:32:48Z</time>
      </trkpt>
      <trkpt lat="49.97821" lon="2.43131">
        <ele>66.2</ele>
        <time>2023-05-17T12:32:49Z</time>
      </trkpt>
      <trkpt lat="49.97821" lon="2.43132">
        <ele>66.1</ele>
        <time>2023-05-17T12:32:50Z</time>
      </trkpt>
      <trkpt lat="49.97822" lon="2.43132">
        <ele>66.1</ele>
        <time>2023-05-17T12:32:52Z</time>
      </trkpt>
      <trkpt lat="49.97823" lon="2.43133">
        <ele>66.1</ele>
        <time>2023-05-17T12:32:53Z</time>
      </trkpt>
      <trkpt lat="49.97824" lon="2.43134">
        <ele>66</ele>
        <time>2023-05-17T12:32:54Z</time>
      </trkpt>
      <trkpt lat="49.97825" lon="2.43135">
        <ele>66</ele>
        <time>2023-05-17T12:32:55Z</time>
      </trkpt>
      <trkpt lat="49.97826" lon="2.43136">
        <ele>65.9</ele>
        <time>2023-05-17T12:32:56Z</time>
      </trkpt>
      <trkpt lat="49.97827" lon="2.43137">
        <ele>65.8</ele>
        <time>2023-05-17T12:32:57Z</time>
      </trkpt>
      <trkpt lat="49.97828" lon="2.43138">
        <ele>65.8</ele>
        <time>2023-05-17T12:32:58Z</time>
      </trkpt>
      <trkpt lat="49.9783" lon="2.43139">
        <ele>65.7</ele>
        <time>2023-05-17T12:32:59Z</time>
      </trkpt>
      <trkpt lat="49.97831" lon="2.4314">
        <ele>65.6</ele>
        <time>2023-05-17T12:33:01Z</time>
      </trkpt>
      <trkpt lat="49.97832" lon="2.43141">
        <ele>65.5</ele>
        <time>2023-05-17T12:33:02Z</time>
      </trkpt>
      <trkpt lat="49.97834" lon="2.43142">
        <ele>65.5</ele>
        <time>2023-05-17T12:33:03Z</time>
      </trkpt>
      <trkpt lat="49.97835" lon="2.43143">
        <ele>65.4</ele>
        <time>2023-05-17T12:33:04Z</time>
      </trkpt>
      <trkpt lat="49.97836" lon="2.43144">
        <ele>65.3</ele>
        <time>2023-05-17T12:33:05Z</time>
      </trkpt>
      <trkpt lat="49.97837" lon="2.43145">
        <ele>65.3</ele>
        <time>2023-05-17T12:33:06Z</time>
      </trkpt>
      <trkpt lat="49.97838" lon="2.43146">
        <ele>65.2</ele>
        <time>2023-05-17T12:33:07Z</time>
      </trkpt>
      <trkpt lat="49.97839" lon="2.43147">
        <ele>65.1</ele>
        <time>2023-05-17T12:33:09Z</time>
      </trkpt>
      <trkpt lat="49.9784" lon="2.43148">
        <ele>65.1</ele>
        <time>2023-05-17T12:33:10Z</time>
      </trkpt>
      <trkpt lat="49.97841" lon="2.43149">
        <ele>65</ele>
        <time>2023-05-17T12:33:11Z</time>
      </trkpt>
      <trkpt lat="49.97842" lon="2.4315">
        <ele>64.9</ele>
        <time>2023-05-17T12:33:12Z</time>
      </trkpt>
      <trkpt lat="49.97843" lon="2.43151">
        <ele>64.9</ele>
        <time>2023-05-17T12:33:13Z</time>
      </trkpt>
      <trkpt lat="49.97844" lon="2.43152">
        <ele>64.8</ele>
        <time>2023-05-17T12:33:14Z</time>
      </trkpt>
      <trkpt lat="49.97845" lon="2.43153">
        <ele>64.7</ele>
        <time>2023-05-17T12:33:16Z</time>
      </trkpt>
      <trkpt lat="49.97847" lon="2.43154">
        <ele>64.7</ele>
        <time>2023-05-17T12:33:17Z</time>
      </trkpt>
      <trkpt lat="49.97848" lon="2.43154">
        <ele>64.6</ele>
        <time>2023-05-17T12:33:18Z</time>
      </trkpt>
      <trkpt lat="49.97848" lon="2.43155">
        <ele>64.5</ele>
        <time>2023-05-17T12:33:19Z</time>
      </trkpt>
      <trkpt lat="49.97849" lon="2.43156">
        <ele>64.5</ele>
        <time>2023-05-17T12:33:20Z</time>
      </trkpt>
      <trkpt lat="49.9785" lon="2.43157">
        <ele>64.4</ele>
        <time>2023-05-17T12:33:21Z</time>
      </trkpt>
      <trkpt lat="49.97851" lon="2.43158">
        <ele>64.3</ele>
        <time>2023-05-17T12:33:22Z</time>
      </trkpt>
      <trkpt lat="49.97852" lon="2.43159">
        <ele>64.3</ele>
        <time>2023-05-17T12:33:24Z</time>
      </trkpt>
      <trkpt lat="49.97853" lon="2.4316">
        <ele>64.2</ele>
        <time>2023-05-17T12:33:25Z</time>
      </trkpt>
      <trkpt lat="49.97854" lon="2.43161">
        <ele>64.1</ele>
        <time>2023-05-17T12:33:26Z</time>
      </trkpt>
      <trkpt lat="49.97856" lon="2.43163">
        <ele>64</ele>
        <time>2023-05-17T12:33:27Z</time>
      </trkpt>
      <trkpt lat="49.97857" lon="2.43164">
        <ele>63.9</ele>
        <time>2023-05-17T12:33:28Z</time>
      </trkpt>
      <trkpt lat="49.97857" lon="2.43165">
        <ele>63.9</ele>
        <time>2023-05-17T12:33:29Z</time>
      </trkpt>
      <trkpt lat="49.97859" lon="2.43166">
        <ele>63.8</ele>
        <time>2023-05-17T12:33:31Z</time>
      </trkpt>
      <trkpt lat="49.9786" lon="2.43167">
        <ele>63.7</ele>
        <time>2023-05-17T12:33:32Z</time>
      </trkpt>
      <trkpt lat="49.97861" lon="2.43168">
        <ele>63.6</ele>
        <time>2023-05-17T12:33:33Z</time>
      </trkpt>
      <trkpt lat="49.97862" lon="2.43169">
        <ele>63.5</ele>
        <time>2023-05-17T12:33:34Z</time>
      </trkpt>
      <trkpt lat="49.97862" lon="2.4317">
        <ele>63.5</ele>
        <time>2023-05-17T12:33:35Z</time>
      </trkpt>
      <trkpt lat="49.97863" lon="2.43171">
        <ele>63.4</ele>
        <time>2023-05-17T12:33:36Z</time>
      </trkpt>
      <trkpt lat="49.97864" lon="2.43172">
        <ele>63.4</ele>
        <time>2023-05-17T12:33:37Z</time>
      </trkpt>
      <trkpt lat="49.97865" lon="2.43173">
        <ele>63.3</ele>
        <time>2023-05-17T12:33:39Z</time>
      </trkpt>
      <trkpt lat="49.97867" lon="2.43174">
        <ele>63.2</ele>
        <time>2023-05-17T12:33:40Z</time>
      </trkpt>
      <trkpt lat="49.97868" lon="2.43175">
        <ele>63.1</ele>
        <time>2023-05-17T12:33:41Z</time>
      </trkpt>
      <trkpt lat="49.97869" lon="2.43176">
        <ele>63</ele>
        <time>2023-05-17T12:33:42Z</time>
      </trkpt>
      <trkpt lat="49.9787" lon="2.43177">
        <ele>62.9</ele>
        <time>2023-05-17T12:33:43Z</time>
      </trkpt>
      <trkpt lat="49.97871" lon="2.43178">
        <ele>62.9</ele>
        <time>2023-05-17T12:33:44Z</time>
      </trkpt>
      <trkpt lat="49.97872" lon="2.43179">
        <ele>62.8</ele>
        <time>2023-05-17T12:33:45Z</time>
      </trkpt>
      <trkpt lat="49.97873" lon="2.4318">
        <ele>62.7</ele>
        <time>2023-05-17T12:33:47Z</time>
      </trkpt>
      <trkpt lat="49.97874" lon="2.43181">
        <ele>62.6</ele>
        <time>2023-05-17T12:33:48Z</time>
      </trkpt>
      <trkpt lat="49.97874" lon="2.43182">
        <ele>62.6</ele>
        <time>2023-05-17T12:33:49Z</time>
      </trkpt>
      <trkpt lat="49.97875" lon="2.43183">
        <ele>62.5</ele>
        <time>2023-05-17T12:33:50Z</time>
      </trkpt>
      <trkpt lat="49.97876" lon="2.43184">
        <ele>62.5</ele>
        <time>2023-05-17T12:33:51Z</time>
      </trkpt>
      <trkpt lat="49.97877" lon="2.43185">
        <ele>62.4</ele>
        <time>2023-05-17T12:33:52Z</time>
      </trkpt>
      <trkpt lat="49.97878" lon="2.43186">
        <ele>62.3</ele>
        <time>2023-05-17T12:33:53Z</time>
      </trkpt>
      <trkpt lat="49.97881" lon="2.43187">
        <ele>62.1</ele>
        <time>2023-05-17T12:33:54Z</time>
      </trkpt>
      <trkpt lat="49.97882" lon="2.43187">
        <ele>62.1</ele>
        <time>2023-05-17T12:33:56Z</time>
      </trkpt>
      <trkpt lat="49.97883" lon="2.43188">
        <ele>62</ele>
        <time>2023-05-17T12:33:57Z</time>
      </trkpt>
      <trkpt lat="49.97884" lon="2.43188">
        <ele>61.9</ele>
        <time>2023-05-17T12:33:58Z</time>
      </trkpt>
      <trkpt lat="49.97885" lon="2.43188">
        <ele>61.9</ele>
        <time>2023-05-17T12:33:59Z</time>
      </trkpt>
      <trkpt lat="49.97886" lon="2.43189">
        <ele>61.8</ele>
        <time>2023-05-17T12:34:00Z</time>
      </trkpt>
      <trkpt lat="49.97887" lon="2.4319">
        <ele>61.7</ele>
        <time>2023-05-17T12:34:02Z</time>
      </trkpt>
      <trkpt lat="49.97888" lon="2.43191">
        <ele>61.7</ele>
        <time>2023-05-17T12:34:03Z</time>
      </trkpt>
      <trkpt lat="49.97888" lon="2.43192">
        <ele>61.6</ele>
        <time>2023-05-17T12:34:04Z</time>
      </trkpt>
      <trkpt lat="49.97889" lon="2.43193">
        <ele>61.6</ele>
        <time>2023-05-17T12:34:05Z</time>
      </trkpt>
      <trkpt lat="49.97889" lon="2.43194">
        <ele>61.5</ele>
        <time>2023-05-17T12:34:06Z</time>
      </trkpt>
      <trkpt lat="49.97889" lon="2.43196">
        <ele>61.4</ele>
        <time>2023-05-17T12:34:07Z</time>
      </trkpt>
      <trkpt lat="49.9789" lon="2.43197">
        <ele>61.4</ele>
        <time>2023-05-17T12:34:09Z</time>
      </trkpt>
      <trkpt lat="49.9789" lon="2.43199">
        <ele>61.3</ele>
        <time>2023-05-17T12:34:10Z</time>
      </trkpt>
      <trkpt lat="49.97891" lon="2.432">
        <ele>61.2</ele>
        <time>2023-05-17T12:34:11Z</time>
      </trkpt>
      <trkpt lat="49.97892" lon="2.43202">
        <ele>61.1</ele>
        <time>2023-05-17T12:34:12Z</time>
      </trkpt>
      <trkpt lat="49.97893" lon="2.43202">
        <ele>61.1</ele>
        <time>2023-05-17T12:34:13Z</time>
      </trkpt>
      <trkpt lat="49.97893" lon="2.43203">
        <ele>61</ele>
        <time>2023-05-17T12:34:15Z</time>
      </trkpt>
      <trkpt lat="49.97894" lon="2.43204">
        <ele>61</ele>
        <time>2023-05-17T12:34:16Z</time>
      </trkpt>
      <trkpt lat="49.97896" lon="2.43206">
        <ele>60.8</ele>
        <time>2023-05-17T12:34:17Z</time>
      </trkpt>
      <trkpt lat="49.97896" lon="2.43207">
        <ele>60.8</ele>
        <time>2023-05-17T12:34:18Z</time>
      </trkpt>
      <trkpt lat="49.97897" lon="2.43208">
        <ele>60.7</ele>
        <time>2023-05-17T12:34:19Z</time>
      </trkpt>
      <trkpt lat="49.97898" lon="2.4321">
        <ele>60.6</ele>
        <time>2023-05-17T12:34:20Z</time>
      </trkpt>
      <trkpt lat="49.97899" lon="2.43211">
        <ele>60.6</ele>
        <time>2023-05-17T12:34:22Z</time>
      </trkpt>
      <trkpt lat="49.979" lon="2.43212">
        <ele>60.5</ele>
        <time>2023-05-17T12:34:23Z</time>
      </trkpt>
      <trkpt lat="49.97901" lon="2.43213">
        <ele>60.4</ele>
        <time>2023-05-17T12:34:24Z</time>
      </trkpt>
      <trkpt lat="49.97902" lon="2.43214">
        <ele>60.3</ele>
        <time>2023-05-17T12:34:25Z</time>
      </trkpt>
      <trkpt lat="49.97903" lon="2.43215">
        <ele>60.3</ele>
        <time>2023-05-17T12:34:26Z</time>
      </trkpt>
      <trkpt lat="49.97904" lon="2.43216">
        <ele>60.2</ele>
        <time>2023-05-17T12:34:27Z</time>
      </trkpt>
      <trkpt lat="49.97906" lon="2.43217">
        <ele>60.1</ele>
        <time>2023-05-17T12:34:29Z</time>
      </trkpt>
      <trkpt lat="49.97907" lon="2.43218">
        <ele>60</ele>
        <time>2023-05-17T12:34:30Z</time>
      </trkpt>
      <trkpt lat="49.97909" lon="2.4322">
        <ele>59.9</ele>
        <time>2023-05-17T12:34:31Z</time>
      </trkpt>
      <trkpt lat="49.9791" lon="2.43221">
        <ele>59.8</ele>
        <time>2023-05-17T12:34:32Z</time>
      </trkpt>
      <trkpt lat="49.97911" lon="2.43222">
        <ele>59.7</ele>
        <time>2023-05-17T12:34:33Z</time>
      </trkpt>
      <trkpt lat="49.97912" lon="2.43224">
        <ele>59.6</ele>
        <time>2023-05-17T12:34:34Z</time>
      </trkpt>
      <trkpt lat="49.97913" lon="2.43225">
        <ele>59.6</ele>
        <time>2023-05-17T12:34:35Z</time>
      </trkpt>
      <trkpt lat="49.97914" lon="2.43226">
        <ele>59.5</ele>
        <time>2023-05-17T12:34:36Z</time>
      </trkpt>
      <trkpt lat="49.97916" lon="2.43228">
        <ele>59.4</ele>
        <time>2023-05-17T12:34:38Z</time>
      </trkpt>
      <trkpt lat="49.97916" lon="2.43228">
        <ele>59.3</ele>
        <time>2023-05-17T12:34:39Z</time>
      </trkpt>
      <trkpt lat="49.97917" lon="2.43229">
        <ele>59.3</ele>
        <time>2023-05-17T12:34:40Z</time>
      </trkpt>
      <trkpt lat="49.97919" lon="2.43231">
        <ele>59.2</ele>
        <time>2023-05-17T12:34:41Z</time>
      </trkpt>
      <trkpt lat="49.9792" lon="2.43231">
        <ele>59.1</ele>
        <time>2023-05-17T12:34:42Z</time>
      </trkpt>
      <trkpt lat="49.9792" lon="2.43232">
        <ele>59.1</ele>
        <time>2023-05-17T12:34:43Z</time>
      </trkpt>
      <trkpt lat="49.97921" lon="2.43233">
        <ele>59</ele>
        <time>2023-05-17T12:34:44Z</time>
      </trkpt>
      <trkpt lat="49.97922" lon="2.43234">
        <ele>58.9</ele>
        <time>2023-05-17T12:34:45Z</time>
      </trkpt>
      <trkpt lat="49.97923" lon="2.43235">
        <ele>58.8</ele>
        <time>2023-05-17T12:34:47Z</time>
      </trkpt>
      <trkpt lat="49.97924" lon="2.43236">
        <ele>58.8</ele>
        <time>2023-05-17T12:34:48Z</time>
      </trkpt>
      <trkpt lat="49.97925" lon="2.43237">
        <ele>58.7</ele>
        <time>2023-05-17T12:34:49Z</time>
      </trkpt>
      <trkpt lat="49.97926" lon="2.43237">
        <ele>58.7</ele>
        <time>2023-05-17T12:34:50Z</time>
      </trkpt>
      <trkpt lat="49.97927" lon="2.43238">
        <ele>58.6</ele>
        <time>2023-05-17T12:34:51Z</time>
      </trkpt>
      <trkpt lat="49.97927" lon="2.43239">
        <ele>58.6</ele>
        <time>2023-05-17T12:34:52Z</time>
      </trkpt>
      <trkpt lat="49.97928" lon="2.43239">
        <ele>58.5</ele>
        <time>2023-05-17T12:34:53Z</time>
      </trkpt>
      <trkpt lat="49.97929" lon="2.4324">
        <ele>58.5</ele>
        <time>2023-05-17T12:34:55Z</time>
      </trkpt>
      <trkpt lat="49.97931" lon="2.43242">
        <ele>58.3</ele>
        <time>2023-05-17T12:34:56Z</time>
      </trkpt>
      <trkpt lat="49.97932" lon="2.43243">
        <ele>58.3</ele>
        <time>2023-05-17T12:34:57Z</time>
      </trkpt>
      <trkpt lat="49.97933" lon="2.43244">
        <ele>58.2</ele>
        <time>2023-05-17T12:34:58Z</time>
      </trkpt>
      <trkpt lat="49.97934" lon="2.43245">
        <ele>58.2</ele>
        <time>2023-05-17T12:34:59Z</time>
      </trkpt>
      <trkpt lat="49.97935" lon="2.43245">
        <ele>58.1</ele>
        <time>2023-05-17T12:35:00Z</time>
      </trkpt>
      <trkpt lat="49.97937" lon="2.43247">
        <ele>58</ele>
        <time>2023-05-17T12:35:02Z</time>
      </trkpt>
      <trkpt lat="49.97938" lon="2.43248">
        <ele>58</ele>
        <time>2023-05-17T12:35:03Z</time>
      </trkpt>
      <trkpt lat="49.97939" lon="2.43249">
        <ele>57.9</ele>
        <time>2023-05-17T12:35:04Z</time>
      </trkpt>
      <trkpt lat="49.9794" lon="2.4325">
        <ele>57.9</ele>
        <time>2023-05-17T12:35:05Z</time>
      </trkpt>
      <trkpt lat="49.9794" lon="2.4325">
        <ele>57.8</ele>
        <time>2023-05-17T12:35:06Z</time>
      </trkpt>
      <trkpt lat="49.97941" lon="2.43251">
        <ele>57.8</ele>
        <time>2023-05-17T12:35:07Z</time>
      </trkpt>
      <trkpt lat="49.97943" lon="2.43253">
        <ele>57.7</ele>
        <time>2023-05-17T12:35:08Z</time>
      </trkpt>
      <trkpt lat="49.97944" lon="2.43254">
        <ele>57.7</ele>
        <time>2023-05-17T12:35:10Z</time>
      </trkpt>
      <trkpt lat="49.97944" lon="2.43255">
        <ele>57.6</ele>
        <time>2023-05-17T12:35:11Z</time>
      </trkpt>
      <trkpt lat="49.97945" lon="2.43256">
        <ele>57.6</ele>
        <time>2023-05-17T12:35:12Z</time>
      </trkpt>
      <trkpt lat="49.97947" lon="2.43258">
        <ele>57.5</ele>
        <time>2023-05-17T12:35:13Z</time>
      </trkpt>
      <trkpt lat="49.97947" lon="2.43259">
        <ele>57.4</ele>
        <time>2023-05-17T12:35:14Z</time>
      </trkpt>
      <trkpt lat="49.97948" lon="2.4326">
        <ele>57.4</ele>
        <time>2023-05-17T12:35:15Z</time>
      </trkpt>
      <trkpt lat="49.97949" lon="2.43262">
        <ele>57.3</ele>
        <time>2023-05-17T12:35:17Z</time>
      </trkpt>
      <trkpt lat="49.9795" lon="2.43263">
        <ele>57.3</ele>
        <time>2023-05-17T12:35:18Z</time>
      </trkpt>
      <trkpt lat="49.97951" lon="2.43265">
        <ele>57.2</ele>
        <time>2023-05-17T12:35:19Z</time>
      </trkpt>
      <trkpt lat="49.97952" lon="2.43266">
        <ele>57.1</ele>
        <time>2023-05-17T12:35:21Z</time>
      </trkpt>
      <trkpt lat="49.97953" lon="2.43267">
        <ele>57.1</ele>
        <time>2023-05-17T12:35:22Z</time>
      </trkpt>
      <trkpt lat="49.97955" lon="2.43269">
        <ele>57</ele>
        <time>2023-05-17T12:35:23Z</time>
      </trkpt>
      <trkpt lat="49.97956" lon="2.4327">
        <ele>56.9</ele>
        <time>2023-05-17T12:35:24Z</time>
      </trkpt>
      <trkpt lat="49.97957" lon="2.43271">
        <ele>56.9</ele>
        <time>2023-05-17T12:35:25Z</time>
      </trkpt>
      <trkpt lat="49.97958" lon="2.43272">
        <ele>56.9</ele>
        <time>2023-05-17T12:35:26Z</time>
      </trkpt>
      <trkpt lat="49.97958" lon="2.43273">
        <ele>56.8</ele>
        <time>2023-05-17T12:35:27Z</time>
      </trkpt>
      <trkpt lat="49.97959" lon="2.43274">
        <ele>56.8</ele>
        <time>2023-05-17T12:35:28Z</time>
      </trkpt>
      <trkpt lat="49.97961" lon="2.43275">
        <ele>56.7</ele>
        <time>2023-05-17T12:35:29Z</time>
      </trkpt>
      <trkpt lat="49.97962" lon="2.43277">
        <ele>56.6</ele>
        <time>2023-05-17T12:35:31Z</time>
      </trkpt>
      <trkpt lat="49.97963" lon="2.43277">
        <ele>56.6</ele>
        <time>2023-05-17T12:35:32Z</time>
      </trkpt>
      <trkpt lat="49.97964" lon="2.43278">
        <ele>56.5</ele>
        <time>2023-05-17T12:35:33Z</time>
      </trkpt>
      <trkpt lat="49.97965" lon="2.4328">
        <ele>56.5</ele>
        <time>2023-05-17T12:35:34Z</time>
      </trkpt>
      <trkpt lat="49.97966" lon="2.43281">
        <ele>56.4</ele>
        <time>2023-05-17T12:35:36Z</time>
      </trkpt>
      <trkpt lat="49.97968" lon="2.43283">
        <ele>56.3</ele>
        <time>2023-05-17T12:35:37Z</time>
      </trkpt>
      <trkpt lat="49.97969" lon="2.43284">
        <ele>56.3</ele>
        <time>2023-05-17T12:35:38Z</time>
      </trkpt>
      <trkpt lat="49.9797" lon="2.43285">
        <ele>56.2</ele>
        <time>2023-05-17T12:35:39Z</time>
      </trkpt>
      <trkpt lat="49.97972" lon="2.43287">
        <ele>56.1</ele>
        <time>2023-05-17T12:35:40Z</time>
      </trkpt>
      <trkpt lat="49.97973" lon="2.43288">
        <ele>56</ele>
        <time>2023-05-17T12:35:41Z</time>
      </trkpt>
      <trkpt lat="49.97973" lon="2.43289">
        <ele>56</ele>
        <time>2023-05-17T12:35:42Z</time>
      </trkpt>
      <trkpt lat="49.97974" lon="2.4329">
        <ele>55.9</ele>
        <time>2023-05-17T12:35:43Z</time>
      </trkpt>
      <trkpt lat="49.97975" lon="2.43291">
        <ele>55.9</ele>
        <time>2023-05-17T12:35:45Z</time>
      </trkpt>
      <trkpt lat="49.97976" lon="2.43292">
        <ele>55.8</ele>
        <time>2023-05-17T12:35:46Z</time>
      </trkpt>
      <trkpt lat="49.97978" lon="2.43294">
        <ele>55.7</ele>
        <time>2023-05-17T12:35:47Z</time>
      </trkpt>
      <trkpt lat="49.97978" lon="2.43294">
        <ele>55.6</ele>
        <time>2023-05-17T12:35:48Z</time>
      </trkpt>
      <trkpt lat="49.97979" lon="2.43295">
        <ele>55.6</ele>
        <time>2023-05-17T12:35:49Z</time>
      </trkpt>
      <trkpt lat="49.9798" lon="2.43296">
        <ele>55.5</ele>
        <time>2023-05-17T12:35:50Z</time>
      </trkpt>
      <trkpt lat="49.97981" lon="2.43296">
        <ele>55.5</ele>
        <time>2023-05-17T12:35:51Z</time>
      </trkpt>
      <trkpt lat="49.97982" lon="2.43297">
        <ele>55.4</ele>
        <time>2023-05-17T12:35:53Z</time>
      </trkpt>
      <trkpt lat="49.97983" lon="2.43298">
        <ele>55.4</ele>
        <time>2023-05-17T12:35:54Z</time>
      </trkpt>
      <trkpt lat="49.97983" lon="2.43299">
        <ele>55.3</ele>
        <time>2023-05-17T12:35:55Z</time>
      </trkpt>
      <trkpt lat="49.97983" lon="2.43299">
        <ele>55.3</ele>
        <time>2023-05-17T12:35:56Z</time>
      </trkpt>
      <trkpt lat="49.97983" lon="2.43299">
        <ele>55.3</ele>
        <time>2023-05-17T12:35:57Z</time>
      </trkpt>
      <trkpt lat="49.97983" lon="2.433">
        <ele>55.3</ele>
        <time>2023-05-17T12:35:58Z</time>
      </trkpt>
      <trkpt lat="49.97983" lon="2.433">
        <ele>55.2</ele>
        <time>2023-05-17T12:35:59Z</time>
      </trkpt>
      <trkpt lat="49.97983" lon="2.43301">
        <ele>55.2</ele>
        <time>2023-05-17T12:36:00Z</time>
      </trkpt>
      <trkpt lat="49.97984" lon="2.43302">
        <ele>55.1</ele>
        <time>2023-05-17T12:36:02Z</time>
      </trkpt>
      <trkpt lat="49.97985" lon="2.43303">
        <ele>55.1</ele>
        <time>2023-05-17T12:36:03Z</time>
      </trkpt>
      <trkpt lat="49.97986" lon="2.43304">
        <ele>55</ele>
        <time>2023-05-17T12:36:04Z</time>
      </trkpt>
      <trkpt lat="49.97987" lon="2.43305">
        <ele>54.9</ele>
        <time>2023-05-17T12:36:05Z</time>
      </trkpt>
      <trkpt lat="49.97988" lon="2.43306">
        <ele>54.8</ele>
        <time>2023-05-17T12:36:06Z</time>
      </trkpt>
      <trkpt lat="49.97989" lon="2.43307">
        <ele>54.8</ele>
        <time>2023-05-17T12:36:07Z</time>
      </trkpt>
      <trkpt lat="49.9799" lon="2.43308">
        <ele>54.7</ele>
        <time>2023-05-17T12:36:08Z</time>
      </trkpt>
      <trkpt lat="49.97991" lon="2.43309">
        <ele>54.6</ele>
        <time>2023-05-17T12:36:09Z</time>
      </trkpt>
      <trkpt lat="49.97992" lon="2.4331">
        <ele>54.5</ele>
        <time>2023-05-17T12:36:11Z</time>
      </trkpt>
      <trkpt lat="49.97993" lon="2.43311">
        <ele>54.4</ele>
        <time>2023-05-17T12:36:12Z</time>
      </trkpt>
      <trkpt lat="49.97994" lon="2.43312">
        <ele>54.3</ele>
        <time>2023-05-17T12:36:13Z</time>
      </trkpt>
      <trkpt lat="49.97995" lon="2.43313">
        <ele>54.2</ele>
        <time>2023-05-17T12:36:14Z</time>
      </trkpt>
      <trkpt lat="49.97996" lon="2.43314">
        <ele>54.2</ele>
        <time>2023-05-17T12:36:15Z</time>
      </trkpt>
      <trkpt lat="49.97997" lon="2.43315">
        <ele>54.1</ele>
        <time>2023-05-17T12:36:16Z</time>
      </trkpt>
      <trkpt lat="49.97999" lon="2.43317">
        <ele>53.9</ele>
        <time>2023-05-17T12:36:17Z</time>
      </trkpt>
      <trkpt lat="49.98001" lon="2.43319">
        <ele>53.8</ele>
        <time>2023-05-17T12:36:19Z</time>
      </trkpt>
      <trkpt lat="49.98002" lon="2.4332">
        <ele>53.7</ele>
        <time>2023-05-17T12:36:20Z</time>
      </trkpt>
      <trkpt lat="49.98003" lon="2.43321">
        <ele>53.6</ele>
        <time>2023-05-17T12:36:21Z</time>
      </trkpt>
      <trkpt lat="49.98005" lon="2.43322">
        <ele>53.5</ele>
        <time>2023-05-17T12:36:22Z</time>
      </trkpt>
      <trkpt lat="49.98006" lon="2.43323">
        <ele>53.4</ele>
        <time>2023-05-17T12:36:23Z</time>
      </trkpt>
      <trkpt lat="49.98007" lon="2.43325">
        <ele>53.2</ele>
        <time>2023-05-17T12:36:24Z</time>
      </trkpt>
      <trkpt lat="49.98008" lon="2.43325">
        <ele>53.2</ele>
        <time>2023-05-17T12:36:26Z</time>
      </trkpt>
      <trkpt lat="49.98008" lon="2.43326">
        <ele>53.2</ele>
        <time>2023-05-17T12:36:27Z</time>
      </trkpt>
      <trkpt lat="49.98008" lon="2.43326">
        <ele>53.1</ele>
        <time>2023-05-17T12:36:29Z</time>
      </trkpt>
      <trkpt lat="49.98009" lon="2.43326">
        <ele>53.1</ele>
        <time>2023-05-17T12:36:30Z</time>
      </trkpt>
      <trkpt lat="49.98009" lon="2.43327">
        <ele>53.1</ele>
        <time>2023-05-17T12:36:32Z</time>
      </trkpt>
      <trkpt lat="49.98009" lon="2.43327">
        <ele>53.1</ele>
        <time>2023-05-17T12:36:33Z</time>
      </trkpt>
      <trkpt lat="49.9801" lon="2.43327">
        <ele>53.1</ele>
        <time>2023-05-17T12:36:34Z</time>
      </trkpt>
      <trkpt lat="49.9801" lon="2.43328">
        <ele>53</ele>
        <time>2023-05-17T12:36:36Z</time>
      </trkpt>
      <trkpt lat="49.9801" lon="2.43328">
        <ele>53</ele>
        <time>2023-05-17T12:36:37Z</time>
      </trkpt>
      <trkpt lat="49.98011" lon="2.43328">
        <ele>53</ele>
        <time>2023-05-17T12:36:39Z</time>
      </trkpt>
      <trkpt lat="49.98011" lon="2.43329">
        <ele>53</ele>
        <time>2023-05-17T12:36:40Z</time>
      </trkpt>
      <trkpt lat="49.98011" lon="2.43329">
        <ele>53</ele>
        <time>2023-05-17T12:36:42Z</time>
      </trkpt>
      <trkpt lat="49.98012" lon="2.43329">
        <ele>52.9</ele>
        <time>2023-05-17T12:36:43Z</time>
      </trkpt>
      <trkpt lat="49.98012" lon="2.4333">
        <ele>52.9</ele>
        <time>2023-05-17T12:36:44Z</time>
      </trkpt>
      <trkpt lat="49.98012" lon="2.4333">
        <ele>52.9</ele>
        <time>2023-05-17T12:36:45Z</time>
      </trkpt>
      <trkpt lat="49.98013" lon="2.4333">
        <ele>52.9</ele>
        <time>2023-05-17T12:36:46Z</time>
      </trkpt>
      <trkpt lat="49.98013" lon="2.43331">
        <ele>52.9</ele>
        <time>2023-05-17T12:36:47Z</time>
      </trkpt>
      <trkpt lat="49.98013" lon="2.43331">
        <ele>52.8</ele>
        <time>2023-05-17T12:36:58Z</time>
      </trkpt>
      <trkpt lat="49.98013" lon="2.43331">
        <ele>52.8</ele>
        <time>2023-05-17T12:36:59Z</time>
      </trkpt>
      <trkpt lat="49.98014" lon="2.43332">
        <ele>52.8</ele>
        <time>2023-05-17T12:37:00Z</time>
      </trkpt>
      <trkpt lat="49.98014" lon="2.43332">
        <ele>52.8</ele>
        <time>2023-05-17T12:37:01Z</time>
      </trkpt>
      <trkpt lat="49.98015" lon="2.43334">
        <ele>52.7</ele>
        <time>2023-05-17T12:37:02Z</time>
      </trkpt>
      <trkpt lat="49.98015" lon="2.43337">
        <ele>52.6</ele>
        <time>2023-05-17T12:37:03Z</time>
      </trkpt>
      <trkpt lat="49.98015" lon="2.43339">
        <ele>52.6</ele>
        <time>2023-05-17T12:37:04Z</time>
      </trkpt>
      <trkpt lat="49.98015" lon="2.43341">
        <ele>52.5</ele>
        <time>2023-05-17T12:37:06Z</time>
      </trkpt>
      <trkpt lat="49.98015" lon="2.43343">
        <ele>52.5</ele>
        <time>2023-05-17T12:37:07Z</time>
      </trkpt>
      <trkpt lat="49.98015" lon="2.43346">
        <ele>52.4</ele>
        <time>2023-05-17T12:37:08Z</time>
      </trkpt>
      <trkpt lat="49.98015" lon="2.43349">
        <ele>52.3</ele>
        <time>2023-05-17T12:37:09Z</time>
      </trkpt>
      <trkpt lat="49.98015" lon="2.4335">
        <ele>52.3</ele>
        <time>2023-05-17T12:37:10Z</time>
      </trkpt>
      <trkpt lat="49.98015" lon="2.43352">
        <ele>52.3</ele>
        <time>2023-05-17T12:37:11Z</time>
      </trkpt>
      <trkpt lat="49.98015" lon="2.43354">
        <ele>52.2</ele>
        <time>2023-05-17T12:37:13Z</time>
      </trkpt>
      <trkpt lat="49.98015" lon="2.43356">
        <ele>52.2</ele>
        <time>2023-05-17T12:37:14Z</time>
      </trkpt>
      <trkpt lat="49.98016" lon="2.4336">
        <ele>52.1</ele>
        <time>2023-05-17T12:37:15Z</time>
      </trkpt>
      <trkpt lat="49.98016" lon="2.43362">
        <ele>52</ele>
        <time>2023-05-17T12:37:16Z</time>
      </trkpt>
      <trkpt lat="49.98016" lon="2.43364">
        <ele>52</ele>
        <time>2023-05-17T12:37:17Z</time>
      </trkpt>
      <trkpt lat="49.98016" lon="2.43366">
        <ele>51.9</ele>
        <time>2023-05-17T12:37:19Z</time>
      </trkpt>
      <trkpt lat="49.98016" lon="2.43368">
        <ele>51.9</ele>
        <time>2023-05-17T12:37:20Z</time>
      </trkpt>
      <trkpt lat="49.98016" lon="2.43369">
        <ele>51.8</ele>
        <time>2023-05-17T12:37:21Z</time>
      </trkpt>
      <trkpt lat="49.98016" lon="2.43371">
        <ele>51.8</ele>
        <time>2023-05-17T12:37:22Z</time>
      </trkpt>
      <trkpt lat="49.98017" lon="2.43374">
        <ele>51.7</ele>
        <time>2023-05-17T12:37:23Z</time>
      </trkpt>
      <trkpt lat="49.98017" lon="2.43375">
        <ele>51.7</ele>
        <time>2023-05-17T12:37:24Z</time>
      </trkpt>
      <trkpt lat="49.98017" lon="2.43377">
        <ele>51.7</ele>
        <time>2023-05-17T12:37:25Z</time>
      </trkpt>
      <trkpt lat="49.98017" lon="2.43379">
        <ele>51.6</ele>
        <time>2023-05-17T12:37:26Z</time>
      </trkpt>
      <trkpt lat="49.98017" lon="2.43381">
        <ele>51.6</ele>
        <time>2023-05-17T12:37:27Z</time>
      </trkpt>
      <trkpt lat="49.98018" lon="2.43384">
        <ele>51.5</ele>
        <time>2023-05-17T12:37:29Z</time>
      </trkpt>
      <trkpt lat="49.98018" lon="2.43387">
        <ele>51.4</ele>
        <time>2023-05-17T12:37:30Z</time>
      </trkpt>
      <trkpt lat="49.98018" lon="2.43388">
        <ele>51.4</ele>
        <time>2023-05-17T12:37:31Z</time>
      </trkpt>
      <trkpt lat="49.98018" lon="2.4339">
        <ele>51.4</ele>
        <time>2023-05-17T12:37:32Z</time>
      </trkpt>
      <trkpt lat="49.98018" lon="2.43392">
        <ele>51.3</ele>
        <time>2023-05-17T12:37:34Z</time>
      </trkpt>
      <trkpt lat="49.98018" lon="2.43394">
        <ele>51.3</ele>
        <time>2023-05-17T12:37:35Z</time>
      </trkpt>
      <trkpt lat="49.98018" lon="2.43397">
        <ele>51.3</ele>
        <time>2023-05-17T12:37:36Z</time>
      </trkpt>
      <trkpt lat="49.98018" lon="2.43399">
        <ele>51.2</ele>
        <time>2023-05-17T12:37:37Z</time>
      </trkpt>
      <trkpt lat="49.98018" lon="2.43401">
        <ele>51.2</ele>
        <time>2023-05-17T12:37:38Z</time>
      </trkpt>
      <trkpt lat="49.98018" lon="2.43403">
        <ele>51.2</ele>
        <time>2023-05-17T12:37:39Z</time>
      </trkpt>
      <trkpt lat="49.98018" lon="2.43405">
        <ele>51.2</ele>
        <time>2023-05-17T12:37:40Z</time>
      </trkpt>
      <trkpt lat="49.98018" lon="2.43409">
        <ele>51.1</ele>
        <time>2023-05-17T12:37:42Z</time>
      </trkpt>
      <trkpt lat="49.98018" lon="2.43411">
        <ele>51.1</ele>
        <time>2023-05-17T12:37:43Z</time>
      </trkpt>
      <trkpt lat="49.98018" lon="2.43413">
        <ele>51.1</ele>
        <time>2023-05-17T12:37:44Z</time>
      </trkpt>
      <trkpt lat="49.98018" lon="2.43416">
        <ele>51.1</ele>
        <time>2023-05-17T12:37:45Z</time>
      </trkpt>
      <trkpt lat="49.98017" lon="2.43419">
        <ele>51</ele>
        <time>2023-05-17T12:37:47Z</time>
      </trkpt>
      <trkpt lat="49.98017" lon="2.4342">
        <ele>51</ele>
        <time>2023-05-17T12:37:48Z</time>
      </trkpt>
      <trkpt lat="49.98017" lon="2.43423">
        <ele>51</ele>
        <time>2023-05-17T12:37:50Z</time>
      </trkpt>
      <trkpt lat="49.98017" lon="2.43425">
        <ele>51</ele>
        <time>2023-05-17T12:37:51Z</time>
      </trkpt>
      <trkpt lat="49.98017" lon="2.43427">
        <ele>51</ele>
        <time>2023-05-17T12:37:52Z</time>
      </trkpt>
      <trkpt lat="49.98017" lon="2.43429">
        <ele>51</ele>
        <time>2023-05-17T12:37:53Z</time>
      </trkpt>
      <trkpt lat="49.98017" lon="2.43431">
        <ele>51</ele>
        <time>2023-05-17T12:37:54Z</time>
      </trkpt>
      <trkpt lat="49.98017" lon="2.43433">
        <ele>51</ele>
        <time>2023-05-17T12:37:55Z</time>
      </trkpt>
      <trkpt lat="49.98017" lon="2.43435">
        <ele>51</ele>
        <time>2023-05-17T12:37:57Z</time>
      </trkpt>
      <trkpt lat="49.98017" lon="2.43437">
        <ele>50.9</ele>
        <time>2023-05-17T12:37:58Z</time>
      </trkpt>
      <trkpt lat="49.98016" lon="2.4344">
        <ele>50.9</ele>
        <time>2023-05-17T12:37:59Z</time>
      </trkpt>
      <trkpt lat="49.98016" lon="2.43442">
        <ele>50.9</ele>
        <time>2023-05-17T12:38:00Z</time>
      </trkpt>
      <trkpt lat="49.98016" lon="2.43444">
        <ele>50.9</ele>
        <time>2023-05-17T12:38:01Z</time>
      </trkpt>
      <trkpt lat="49.98016" lon="2.43447">
        <ele>50.9</ele>
        <time>2023-05-17T12:38:03Z</time>
      </trkpt>
      <trkpt lat="49.98016" lon="2.4345">
        <ele>50.9</ele>
        <time>2023-05-17T12:38:04Z</time>
      </trkpt>
      <trkpt lat="49.98016" lon="2.43452">
        <ele>50.9</ele>
        <time>2023-05-17T12:38:05Z</time>
      </trkpt>
      <trkpt lat="49.98016" lon="2.43454">
        <ele>50.9</ele>
        <time>2023-05-17T12:38:06Z</time>
      </trkpt>
      <trkpt lat="49.98016" lon="2.43456">
        <ele>50.9</ele>
        <time>2023-05-17T12:38:07Z</time>
      </trkpt>
      <trkpt lat="49.98016" lon="2.43459">
        <ele>50.9</ele>
        <time>2023-05-17T12:38:09Z</time>
      </trkpt>
      <trkpt lat="49.98016" lon="2.43461">
        <ele>50.9</ele>
        <time>2023-05-17T12:38:11Z</time>
      </trkpt>
      <trkpt lat="49.98016" lon="2.43462">
        <ele>50.9</ele>
        <time>2023-05-17T12:38:12Z</time>
      </trkpt>
      <trkpt lat="49.98016" lon="2.43464">
        <ele>50.9</ele>
        <time>2023-05-17T12:38:13Z</time>
      </trkpt>
      <trkpt lat="49.98016" lon="2.43467">
        <ele>50.9</ele>
        <time>2023-05-17T12:38:14Z</time>
      </trkpt>
      <trkpt lat="49.98016" lon="2.43469">
        <ele>50.9</ele>
        <time>2023-05-17T12:38:15Z</time>
      </trkpt>
      <trkpt lat="49.98016" lon="2.4347">
        <ele>50.9</ele>
        <time>2023-05-17T12:38:16Z</time>
      </trkpt>
      <trkpt lat="49.98016" lon="2.43472">
        <ele>50.9</ele>
        <time>2023-05-17T12:38:18Z</time>
      </trkpt>
      <trkpt lat="49.98016" lon="2.43474">
        <ele>50.9</ele>
        <time>2023-05-17T12:38:19Z</time>
      </trkpt>
      <trkpt lat="49.98017" lon="2.43477">
        <ele>50.9</ele>
        <time>2023-05-17T12:38:20Z</time>
      </trkpt>
      <trkpt lat="49.98017" lon="2.43478">
        <ele>50.9</ele>
        <time>2023-05-17T12:38:21Z</time>
      </trkpt>
      <trkpt lat="49.98017" lon="2.4348">
        <ele>50.9</ele>
        <time>2023-05-17T12:38:22Z</time>
      </trkpt>
      <trkpt lat="49.98017" lon="2.43483">
        <ele>50.9</ele>
        <time>2023-05-17T12:38:23Z</time>
      </trkpt>
      <trkpt lat="49.98017" lon="2.43484">
        <ele>50.9</ele>
        <time>2023-05-17T12:38:24Z</time>
      </trkpt>
      <trkpt lat="49.98017" lon="2.43485">
        <ele>50.9</ele>
        <time>2023-05-17T12:38:25Z</time>
      </trkpt>
      <trkpt lat="49.98017" lon="2.43489">
        <ele>50.9</ele>
        <time>2023-05-17T12:38:26Z</time>
      </trkpt>
      <trkpt lat="49.98017" lon="2.43491">
        <ele>50.9</ele>
        <time>2023-05-17T12:38:28Z</time>
      </trkpt>
      <trkpt lat="49.98017" lon="2.43492">
        <ele>50.9</ele>
        <time>2023-05-17T12:38:29Z</time>
      </trkpt>
      <trkpt lat="49.98017" lon="2.43494">
        <ele>50.9</ele>
        <time>2023-05-17T12:38:30Z</time>
      </trkpt>
      <trkpt lat="49.98017" lon="2.43495">
        <ele>50.9</ele>
        <time>2023-05-17T12:38:31Z</time>
      </trkpt>
      <trkpt lat="49.98017" lon="2.43498">
        <ele>50.9</ele>
        <time>2023-05-17T12:38:33Z</time>
      </trkpt>
      <trkpt lat="49.98017" lon="2.43501">
        <ele>50.9</ele>
        <time>2023-05-17T12:38:34Z</time>
      </trkpt>
      <trkpt lat="49.98017" lon="2.43502">
        <ele>50.9</ele>
        <time>2023-05-17T12:38:35Z</time>
      </trkpt>
      <trkpt lat="49.98017" lon="2.43504">
        <ele>50.9</ele>
        <time>2023-05-17T12:38:36Z</time>
      </trkpt>
      <trkpt lat="49.98017" lon="2.43506">
        <ele>50.9</ele>
        <time>2023-05-17T12:38:37Z</time>
      </trkpt>
      <trkpt lat="49.98017" lon="2.43508">
        <ele>50.9</ele>
        <time>2023-05-17T12:38:38Z</time>
      </trkpt>
      <trkpt lat="49.98017" lon="2.43511">
        <ele>50.9</ele>
        <time>2023-05-17T12:38:40Z</time>
      </trkpt>
      <trkpt lat="49.98017" lon="2.43514">
        <ele>50.9</ele>
        <time>2023-05-17T12:38:41Z</time>
      </trkpt>
      <trkpt lat="49.98017" lon="2.43516">
        <ele>50.9</ele>
        <time>2023-05-17T12:38:42Z</time>
      </trkpt>
      <trkpt lat="49.98016" lon="2.43518">
        <ele>50.9</ele>
        <time>2023-05-17T12:38:43Z</time>
      </trkpt>
      <trkpt lat="49.98016" lon="2.43521">
        <ele>50.9</ele>
        <time>2023-05-17T12:38:44Z</time>
      </trkpt>
      <trkpt lat="49.98016" lon="2.43523">
        <ele>50.9</ele>
        <time>2023-05-17T12:38:45Z</time>
      </trkpt>
      <trkpt lat="49.98016" lon="2.43526">
        <ele>50.9</ele>
        <time>2023-05-17T12:38:46Z</time>
      </trkpt>
      <trkpt lat="49.98016" lon="2.43527">
        <ele>50.9</ele>
        <time>2023-05-17T12:38:48Z</time>
      </trkpt>
      <trkpt lat="49.98016" lon="2.43529">
        <ele>51</ele>
        <time>2023-05-17T12:38:49Z</time>
      </trkpt>
      <trkpt lat="49.98016" lon="2.43531">
        <ele>51</ele>
        <time>2023-05-17T12:38:50Z</time>
      </trkpt>
      <trkpt lat="49.98015" lon="2.43534">
        <ele>51</ele>
        <time>2023-05-17T12:38:51Z</time>
      </trkpt>
      <trkpt lat="49.98015" lon="2.43536">
        <ele>51</ele>
        <time>2023-05-17T12:38:52Z</time>
      </trkpt>
      <trkpt lat="49.98015" lon="2.43538">
        <ele>51</ele>
        <time>2023-05-17T12:38:53Z</time>
      </trkpt>
      <trkpt lat="49.98015" lon="2.4354">
        <ele>51</ele>
        <time>2023-05-17T12:38:54Z</time>
      </trkpt>
      <trkpt lat="49.98014" lon="2.43543">
        <ele>51</ele>
        <time>2023-05-17T12:38:56Z</time>
      </trkpt>
      <trkpt lat="49.98014" lon="2.43546">
        <ele>51</ele>
        <time>2023-05-17T12:38:57Z</time>
      </trkpt>
      <trkpt lat="49.98014" lon="2.43548">
        <ele>51</ele>
        <time>2023-05-17T12:38:58Z</time>
      </trkpt>
      <trkpt lat="49.98013" lon="2.4355">
        <ele>51</ele>
        <time>2023-05-17T12:38:59Z</time>
      </trkpt>
      <trkpt lat="49.98013" lon="2.43552">
        <ele>51</ele>
        <time>2023-05-17T12:39:00Z</time>
      </trkpt>
      <trkpt lat="49.98013" lon="2.43555">
        <ele>51</ele>
        <time>2023-05-17T12:39:01Z</time>
      </trkpt>
      <trkpt lat="49.98012" lon="2.43557">
        <ele>51</ele>
        <time>2023-05-17T12:39:02Z</time>
      </trkpt>
      <trkpt lat="49.98012" lon="2.4356">
        <ele>51.1</ele>
        <time>2023-05-17T12:39:03Z</time>
      </trkpt>
      <trkpt lat="49.98011" lon="2.43561">
        <ele>51.1</ele>
        <time>2023-05-17T12:39:04Z</time>
      </trkpt>
      <trkpt lat="49.98011" lon="2.43563">
        <ele>51.1</ele>
        <time>2023-05-17T12:39:06Z</time>
      </trkpt>
      <trkpt lat="49.9801" lon="2.43565">
        <ele>51.1</ele>
        <time>2023-05-17T12:39:07Z</time>
      </trkpt>
      <trkpt lat="49.9801" lon="2.43566">
        <ele>51.1</ele>
        <time>2023-05-17T12:39:08Z</time>
      </trkpt>
      <trkpt lat="49.9801" lon="2.43568">
        <ele>51.1</ele>
        <time>2023-05-17T12:39:09Z</time>
      </trkpt>
      <trkpt lat="49.98009" lon="2.43571">
        <ele>51.1</ele>
        <time>2023-05-17T12:39:10Z</time>
      </trkpt>
      <trkpt lat="49.98008" lon="2.43572">
        <ele>51.1</ele>
        <time>2023-05-17T12:39:11Z</time>
      </trkpt>
      <trkpt lat="49.98008" lon="2.43573">
        <ele>51.1</ele>
        <time>2023-05-17T12:39:12Z</time>
      </trkpt>
      <trkpt lat="49.98007" lon="2.43576">
        <ele>51.1</ele>
        <time>2023-05-17T12:39:14Z</time>
      </trkpt>
      <trkpt lat="49.98007" lon="2.43578">
        <ele>51.1</ele>
        <time>2023-05-17T12:39:15Z</time>
      </trkpt>
      <trkpt lat="49.98006" lon="2.43581">
        <ele>51.1</ele>
        <time>2023-05-17T12:39:17Z</time>
      </trkpt>
      <trkpt lat="49.98005" lon="2.43582">
        <ele>51.1</ele>
        <time>2023-05-17T12:39:18Z</time>
      </trkpt>
      <trkpt lat="49.98005" lon="2.43583">
        <ele>51.1</ele>
        <time>2023-05-17T12:39:19Z</time>
      </trkpt>
      <trkpt lat="49.98004" lon="2.43586">
        <ele>51.1</ele>
        <time>2023-05-17T12:39:20Z</time>
      </trkpt>
      <trkpt lat="49.98003" lon="2.43587">
        <ele>51.1</ele>
        <time>2023-05-17T12:39:21Z</time>
      </trkpt>
      <trkpt lat="49.98003" lon="2.43588">
        <ele>51.1</ele>
        <time>2023-05-17T12:39:22Z</time>
      </trkpt>
      <trkpt lat="49.98001" lon="2.43592">
        <ele>51</ele>
        <time>2023-05-17T12:39:24Z</time>
      </trkpt>
      <trkpt lat="49.98" lon="2.43593">
        <ele>51</ele>
        <time>2023-05-17T12:39:25Z</time>
      </trkpt>
      <trkpt lat="49.97999" lon="2.43594">
        <ele>51</ele>
        <time>2023-05-17T12:39:26Z</time>
      </trkpt>
      <trkpt lat="49.97999" lon="2.43596">
        <ele>50.9</ele>
        <time>2023-05-17T12:39:27Z</time>
      </trkpt>
      <trkpt lat="49.97998" lon="2.43599">
        <ele>50.8</ele>
        <time>2023-05-17T12:39:29Z</time>
      </trkpt>
      <trkpt lat="49.97997" lon="2.436">
        <ele>50.7</ele>
        <time>2023-05-17T12:39:30Z</time>
      </trkpt>
      <trkpt lat="49.97996" lon="2.43601">
        <ele>50.6</ele>
        <time>2023-05-17T12:39:32Z</time>
      </trkpt>
      <trkpt lat="49.97994" lon="2.43602">
        <ele>50.5</ele>
        <time>2023-05-17T12:39:33Z</time>
      </trkpt>
      <trkpt lat="49.97993" lon="2.43603">
        <ele>50.4</ele>
        <time>2023-05-17T12:39:34Z</time>
      </trkpt>
      <trkpt lat="49.97991" lon="2.43604">
        <ele>50.3</ele>
        <time>2023-05-17T12:39:35Z</time>
      </trkpt>
      <trkpt lat="49.9799" lon="2.43604">
        <ele>50.2</ele>
        <time>2023-05-17T12:39:36Z</time>
      </trkpt>
      <trkpt lat="49.97988" lon="2.43606">
        <ele>50.1</ele>
        <time>2023-05-17T12:39:37Z</time>
      </trkpt>
      <trkpt lat="49.97987" lon="2.43606">
        <ele>50</ele>
        <time>2023-05-17T12:39:38Z</time>
      </trkpt>
      <trkpt lat="49.97987" lon="2.43607">
        <ele>50</ele>
        <time>2023-05-17T12:39:39Z</time>
      </trkpt>
      <trkpt lat="49.97985" lon="2.43607">
        <ele>49.9</ele>
        <time>2023-05-17T12:39:40Z</time>
      </trkpt>
      <trkpt lat="49.97984" lon="2.43608">
        <ele>49.8</ele>
        <time>2023-05-17T12:39:41Z</time>
      </trkpt>
      <trkpt lat="49.97982" lon="2.43608">
        <ele>49.7</ele>
        <time>2023-05-17T12:39:42Z</time>
      </trkpt>
      <trkpt lat="49.97981" lon="2.43608">
        <ele>49.7</ele>
        <time>2023-05-17T12:39:43Z</time>
      </trkpt>
      <trkpt lat="49.9798" lon="2.43608">
        <ele>49.6</ele>
        <time>2023-05-17T12:39:44Z</time>
      </trkpt>
      <trkpt lat="49.97978" lon="2.43609">
        <ele>49.5</ele>
        <time>2023-05-17T12:39:45Z</time>
      </trkpt>
      <trkpt lat="49.97977" lon="2.43609">
        <ele>49.5</ele>
        <time>2023-05-17T12:39:47Z</time>
      </trkpt>
      <trkpt lat="49.97977" lon="2.4361">
        <ele>49.5</ele>
        <time>2023-05-17T12:39:48Z</time>
      </trkpt>
      <trkpt lat="49.97975" lon="2.43611">
        <ele>49.4</ele>
        <time>2023-05-17T12:39:49Z</time>
      </trkpt>
      <trkpt lat="49.97973" lon="2.43611">
        <ele>49.3</ele>
        <time>2023-05-17T12:39:50Z</time>
      </trkpt>
      <trkpt lat="49.97972" lon="2.43612">
        <ele>49.3</ele>
        <time>2023-05-17T12:39:51Z</time>
      </trkpt>
      <trkpt lat="49.97971" lon="2.43612">
        <ele>49.2</ele>
        <time>2023-05-17T12:39:52Z</time>
      </trkpt>
      <trkpt lat="49.9797" lon="2.43613">
        <ele>49.2</ele>
        <time>2023-05-17T12:39:53Z</time>
      </trkpt>
      <trkpt lat="49.97968" lon="2.43613">
        <ele>49.1</ele>
        <time>2023-05-17T12:39:55Z</time>
      </trkpt>
      <trkpt lat="49.97967" lon="2.43614">
        <ele>49.1</ele>
        <time>2023-05-17T12:39:56Z</time>
      </trkpt>
      <trkpt lat="49.97965" lon="2.43615">
        <ele>49</ele>
        <time>2023-05-17T12:39:57Z</time>
      </trkpt>
      <trkpt lat="49.97964" lon="2.43615">
        <ele>49</ele>
        <time>2023-05-17T12:39:58Z</time>
      </trkpt>
      <trkpt lat="49.97963" lon="2.43616">
        <ele>48.9</ele>
        <time>2023-05-17T12:39:59Z</time>
      </trkpt>
      <trkpt lat="49.97962" lon="2.43617">
        <ele>48.9</ele>
        <time>2023-05-17T12:40:00Z</time>
      </trkpt>
      <trkpt lat="49.9796" lon="2.43618">
        <ele>48.9</ele>
        <time>2023-05-17T12:40:01Z</time>
      </trkpt>
      <trkpt lat="49.97959" lon="2.43619">
        <ele>48.8</ele>
        <time>2023-05-17T12:40:02Z</time>
      </trkpt>
      <trkpt lat="49.97959" lon="2.4362">
        <ele>48.8</ele>
        <time>2023-05-17T12:40:03Z</time>
      </trkpt>
      <trkpt lat="49.97958" lon="2.43621">
        <ele>48.8</ele>
        <time>2023-05-17T12:40:05Z</time>
      </trkpt>
      <trkpt lat="49.97956" lon="2.43622">
        <ele>48.8</ele>
        <time>2023-05-17T12:40:06Z</time>
      </trkpt>
      <trkpt lat="49.97955" lon="2.43624">
        <ele>48.7</ele>
        <time>2023-05-17T12:40:07Z</time>
      </trkpt>
      <trkpt lat="49.97953" lon="2.43625">
        <ele>48.7</ele>
        <time>2023-05-17T12:40:08Z</time>
      </trkpt>
      <trkpt lat="49.97952" lon="2.43627">
        <ele>48.7</ele>
        <time>2023-05-17T12:40:09Z</time>
      </trkpt>
      <trkpt lat="49.97951" lon="2.43628">
        <ele>48.7</ele>
        <time>2023-05-17T12:40:10Z</time>
      </trkpt>
      <trkpt lat="49.9795" lon="2.43629">
        <ele>48.7</ele>
        <time>2023-05-17T12:40:11Z</time>
      </trkpt>
      <trkpt lat="49.97949" lon="2.43629">
        <ele>48.6</ele>
        <time>2023-05-17T12:40:12Z</time>
      </trkpt>
      <trkpt lat="49.97948" lon="2.43631">
        <ele>48.6</ele>
        <time>2023-05-17T12:40:13Z</time>
      </trkpt>
      <trkpt lat="49.97947" lon="2.43632">
        <ele>48.6</ele>
        <time>2023-05-17T12:40:14Z</time>
      </trkpt>
      <trkpt lat="49.97946" lon="2.43633">
        <ele>48.6</ele>
        <time>2023-05-17T12:40:16Z</time>
      </trkpt>
      <trkpt lat="49.97946" lon="2.43634">
        <ele>48.6</ele>
        <time>2023-05-17T12:40:17Z</time>
      </trkpt>
      <trkpt lat="49.97945" lon="2.43635">
        <ele>48.6</ele>
        <time>2023-05-17T12:40:18Z</time>
      </trkpt>
      <trkpt lat="49.97944" lon="2.43636">
        <ele>48.6</ele>
        <time>2023-05-17T12:40:19Z</time>
      </trkpt>
      <trkpt lat="49.97943" lon="2.43637">
        <ele>48.6</ele>
        <time>2023-05-17T12:40:20Z</time>
      </trkpt>
      <trkpt lat="49.97942" lon="2.43638">
        <ele>48.6</ele>
        <time>2023-05-17T12:40:21Z</time>
      </trkpt>
      <trkpt lat="49.97942" lon="2.43639">
        <ele>48.6</ele>
        <time>2023-05-17T12:40:22Z</time>
      </trkpt>
      <trkpt lat="49.97941" lon="2.43641">
        <ele>48.6</ele>
        <time>2023-05-17T12:40:23Z</time>
      </trkpt>
      <trkpt lat="49.9794" lon="2.43642">
        <ele>48.5</ele>
        <time>2023-05-17T12:40:24Z</time>
      </trkpt>
      <trkpt lat="49.97939" lon="2.43643">
        <ele>48.5</ele>
        <time>2023-05-17T12:40:25Z</time>
      </trkpt>
      <trkpt lat="49.97937" lon="2.43646">
        <ele>48.5</ele>
        <time>2023-05-17T12:40:27Z</time>
      </trkpt>
      <trkpt lat="49.97936" lon="2.43648">
        <ele>48.5</ele>
        <time>2023-05-17T12:40:28Z</time>
      </trkpt>
      <trkpt lat="49.97935" lon="2.4365">
        <ele>48.5</ele>
        <time>2023-05-17T12:40:29Z</time>
      </trkpt>
      <trkpt lat="49.97934" lon="2.43653">
        <ele>48.5</ele>
        <time>2023-05-17T12:40:30Z</time>
      </trkpt>
      <trkpt lat="49.97933" lon="2.43654">
        <ele>48.5</ele>
        <time>2023-05-17T12:40:31Z</time>
      </trkpt>
      <trkpt lat="49.97932" lon="2.43655">
        <ele>48.5</ele>
        <time>2023-05-17T12:40:32Z</time>
      </trkpt>
      <trkpt lat="49.97932" lon="2.43657">
        <ele>48.5</ele>
        <time>2023-05-17T12:40:33Z</time>
      </trkpt>
      <trkpt lat="49.9793" lon="2.4366">
        <ele>48.5</ele>
        <time>2023-05-17T12:40:35Z</time>
      </trkpt>
      <trkpt lat="49.97929" lon="2.43662">
        <ele>48.5</ele>
        <time>2023-05-17T12:40:36Z</time>
      </trkpt>
      <trkpt lat="49.97928" lon="2.43663">
        <ele>48.5</ele>
        <time>2023-05-17T12:40:37Z</time>
      </trkpt>
      <trkpt lat="49.97928" lon="2.43664">
        <ele>48.5</ele>
        <time>2023-05-17T12:40:38Z</time>
      </trkpt>
      <trkpt lat="49.97927" lon="2.43665">
        <ele>48.5</ele>
        <time>2023-05-17T12:40:39Z</time>
      </trkpt>
      <trkpt lat="49.97926" lon="2.43667">
        <ele>48.5</ele>
        <time>2023-05-17T12:40:41Z</time>
      </trkpt>
      <trkpt lat="49.97926" lon="2.43668">
        <ele>48.5</ele>
        <time>2023-05-17T12:40:42Z</time>
      </trkpt>
      <trkpt lat="49.97925" lon="2.43669">
        <ele>48.5</ele>
        <time>2023-05-17T12:40:43Z</time>
      </trkpt>
      <trkpt lat="49.97924" lon="2.4367">
        <ele>48.5</ele>
        <time>2023-05-17T12:40:44Z</time>
      </trkpt>
      <trkpt lat="49.97923" lon="2.43671">
        <ele>48.5</ele>
        <time>2023-05-17T12:40:45Z</time>
      </trkpt>
      <trkpt lat="49.97922" lon="2.43673">
        <ele>48.4</ele>
        <time>2023-05-17T12:40:47Z</time>
      </trkpt>
      <trkpt lat="49.97921" lon="2.43674">
        <ele>48.4</ele>
        <time>2023-05-17T12:40:48Z</time>
      </trkpt>
      <trkpt lat="49.97921" lon="2.43676">
        <ele>48.4</ele>
        <time>2023-05-17T12:40:49Z</time>
      </trkpt>
      <trkpt lat="49.9792" lon="2.43677">
        <ele>48.4</ele>
        <time>2023-05-17T12:40:50Z</time>
      </trkpt>
      <trkpt lat="49.9792" lon="2.43679">
        <ele>48.4</ele>
        <time>2023-05-17T12:40:51Z</time>
      </trkpt>
      <trkpt lat="49.97919" lon="2.4368">
        <ele>48.4</ele>
        <time>2023-05-17T12:40:53Z</time>
      </trkpt>
      <trkpt lat="49.97919" lon="2.43682">
        <ele>48.4</ele>
        <time>2023-05-17T12:40:54Z</time>
      </trkpt>
      <trkpt lat="49.97918" lon="2.43683">
        <ele>48.4</ele>
        <time>2023-05-17T12:40:55Z</time>
      </trkpt>
      <trkpt lat="49.97918" lon="2.43686">
        <ele>48.4</ele>
        <time>2023-05-17T12:40:56Z</time>
      </trkpt>
      <trkpt lat="49.97917" lon="2.43687">
        <ele>48.4</ele>
        <time>2023-05-17T12:40:57Z</time>
      </trkpt>
      <trkpt lat="49.97917" lon="2.43689">
        <ele>48.4</ele>
        <time>2023-05-17T12:40:58Z</time>
      </trkpt>
      <trkpt lat="49.97916" lon="2.43691">
        <ele>48.4</ele>
        <time>2023-05-17T12:40:59Z</time>
      </trkpt>
      <trkpt lat="49.97916" lon="2.43692">
        <ele>48.4</ele>
        <time>2023-05-17T12:41:00Z</time>
      </trkpt>
      <trkpt lat="49.97915" lon="2.43695">
        <ele>48.4</ele>
        <time>2023-05-17T12:41:02Z</time>
      </trkpt>
      <trkpt lat="49.97915" lon="2.43697">
        <ele>48.4</ele>
        <time>2023-05-17T12:41:03Z</time>
      </trkpt>
      <trkpt lat="49.97914" lon="2.43698">
        <ele>48.4</ele>
        <time>2023-05-17T12:41:04Z</time>
      </trkpt>
      <trkpt lat="49.97914" lon="2.437">
        <ele>48.4</ele>
        <time>2023-05-17T12:41:05Z</time>
      </trkpt>
      <trkpt lat="49.97914" lon="2.43702">
        <ele>48.4</ele>
        <time>2023-05-17T12:41:06Z</time>
      </trkpt>
      <trkpt lat="49.97913" lon="2.43705">
        <ele>48.4</ele>
        <time>2023-05-17T12:41:07Z</time>
      </trkpt>
      <trkpt lat="49.97913" lon="2.43706">
        <ele>48.4</ele>
        <time>2023-05-17T12:41:08Z</time>
      </trkpt>
      <trkpt lat="49.97912" lon="2.43708">
        <ele>48.4</ele>
        <time>2023-05-17T12:41:09Z</time>
      </trkpt>
      <trkpt lat="49.97912" lon="2.43709">
        <ele>48.4</ele>
        <time>2023-05-17T12:41:10Z</time>
      </trkpt>
      <trkpt lat="49.97911" lon="2.43712">
        <ele>48.4</ele>
        <time>2023-05-17T12:41:12Z</time>
      </trkpt>
      <trkpt lat="49.9791" lon="2.43714">
        <ele>48.4</ele>
        <time>2023-05-17T12:41:13Z</time>
      </trkpt>
      <trkpt lat="49.9791" lon="2.43716">
        <ele>48.4</ele>
        <time>2023-05-17T12:41:14Z</time>
      </trkpt>
      <trkpt lat="49.97909" lon="2.4372">
        <ele>48.4</ele>
        <time>2023-05-17T12:41:15Z</time>
      </trkpt>
      <trkpt lat="49.97909" lon="2.43721">
        <ele>48.4</ele>
        <time>2023-05-17T12:41:16Z</time>
      </trkpt>
      <trkpt lat="49.97909" lon="2.43722">
        <ele>48.4</ele>
        <time>2023-05-17T12:41:17Z</time>
      </trkpt>
      <trkpt lat="49.97909" lon="2.43724">
        <ele>48.4</ele>
        <time>2023-05-17T12:41:19Z</time>
      </trkpt>
      <trkpt lat="49.97908" lon="2.43726">
        <ele>48.4</ele>
        <time>2023-05-17T12:41:20Z</time>
      </trkpt>
      <trkpt lat="49.97908" lon="2.4373">
        <ele>48.4</ele>
        <time>2023-05-17T12:41:21Z</time>
      </trkpt>
      <trkpt lat="49.97908" lon="2.43731">
        <ele>48.4</ele>
        <time>2023-05-17T12:41:22Z</time>
      </trkpt>
      <trkpt lat="49.97908" lon="2.43732">
        <ele>48.4</ele>
        <time>2023-05-17T12:41:23Z</time>
      </trkpt>
      <trkpt lat="49.97908" lon="2.43736">
        <ele>48.4</ele>
        <time>2023-05-17T12:41:24Z</time>
      </trkpt>
      <trkpt lat="49.97907" lon="2.43737">
        <ele>48.4</ele>
        <time>2023-05-17T12:41:26Z</time>
      </trkpt>
      <trkpt lat="49.97907" lon="2.43738">
        <ele>48.4</ele>
        <time>2023-05-17T12:41:27Z</time>
      </trkpt>
      <trkpt lat="49.97906" lon="2.43741">
        <ele>48.4</ele>
        <time>2023-05-17T12:41:28Z</time>
      </trkpt>
      <trkpt lat="49.97906" lon="2.43743">
        <ele>48.4</ele>
        <time>2023-05-17T12:41:29Z</time>
      </trkpt>
      <trkpt lat="49.97906" lon="2.43744">
        <ele>48.4</ele>
        <time>2023-05-17T12:41:30Z</time>
      </trkpt>
      <trkpt lat="49.97905" lon="2.43747">
        <ele>48.4</ele>
        <time>2023-05-17T12:41:32Z</time>
      </trkpt>
      <trkpt lat="49.97905" lon="2.43749">
        <ele>48.4</ele>
        <time>2023-05-17T12:41:33Z</time>
      </trkpt>
      <trkpt lat="49.97904" lon="2.43751">
        <ele>48.4</ele>
        <time>2023-05-17T12:41:34Z</time>
      </trkpt>
      <trkpt lat="49.97904" lon="2.43754">
        <ele>48.4</ele>
        <time>2023-05-17T12:41:35Z</time>
      </trkpt>
      <trkpt lat="49.97903" lon="2.43757">
        <ele>48.4</ele>
        <time>2023-05-17T12:41:36Z</time>
      </trkpt>
      <trkpt lat="49.97903" lon="2.43759">
        <ele>48.4</ele>
        <time>2023-05-17T12:41:38Z</time>
      </trkpt>
      <trkpt lat="49.97902" lon="2.43762">
        <ele>48.4</ele>
        <time>2023-05-17T12:41:39Z</time>
      </trkpt>
      <trkpt lat="49.97902" lon="2.43764">
        <ele>48.5</ele>
        <time>2023-05-17T12:41:40Z</time>
      </trkpt>
      <trkpt lat="49.97902" lon="2.43767">
        <ele>48.5</ele>
        <time>2023-05-17T12:41:41Z</time>
      </trkpt>
      <trkpt lat="49.97901" lon="2.43769">
        <ele>48.5</ele>
        <time>2023-05-17T12:41:42Z</time>
      </trkpt>
      <trkpt lat="49.97901" lon="2.43773">
        <ele>48.5</ele>
        <time>2023-05-17T12:41:43Z</time>
      </trkpt>
      <trkpt lat="49.97901" lon="2.43775">
        <ele>48.5</ele>
        <time>2023-05-17T12:41:44Z</time>
      </trkpt>
      <trkpt lat="49.979" lon="2.4378">
        <ele>48.6</ele>
        <time>2023-05-17T12:41:45Z</time>
      </trkpt>
      <trkpt lat="49.979" lon="2.43781">
        <ele>48.6</ele>
        <time>2023-05-17T12:41:46Z</time>
      </trkpt>
      <trkpt lat="49.979" lon="2.43785">
        <ele>48.6</ele>
        <time>2023-05-17T12:41:47Z</time>
      </trkpt>
      <trkpt lat="49.979" lon="2.43787">
        <ele>48.7</ele>
        <time>2023-05-17T12:41:48Z</time>
      </trkpt>
      <trkpt lat="49.97899" lon="2.43791">
        <ele>48.7</ele>
        <time>2023-05-17T12:41:50Z</time>
      </trkpt>
      <trkpt lat="49.97899" lon="2.43793">
        <ele>48.7</ele>
        <time>2023-05-17T12:41:51Z</time>
      </trkpt>
      <trkpt lat="49.979" lon="2.43795">
        <ele>48.8</ele>
        <time>2023-05-17T12:41:52Z</time>
      </trkpt>
      <trkpt lat="49.979" lon="2.43798">
        <ele>48.8</ele>
        <time>2023-05-17T12:41:53Z</time>
      </trkpt>
      <trkpt lat="49.979" lon="2.43802">
        <ele>48.9</ele>
        <time>2023-05-17T12:41:54Z</time>
      </trkpt>
      <trkpt lat="49.979" lon="2.43804">
        <ele>48.9</ele>
        <time>2023-05-17T12:41:55Z</time>
      </trkpt>
      <trkpt lat="49.979" lon="2.43806">
        <ele>49</ele>
        <time>2023-05-17T12:41:56Z</time>
      </trkpt>
      <trkpt lat="49.979" lon="2.43808">
        <ele>49</ele>
        <time>2023-05-17T12:41:58Z</time>
      </trkpt>
      <trkpt lat="49.979" lon="2.43811">
        <ele>49.1</ele>
        <time>2023-05-17T12:41:59Z</time>
      </trkpt>
      <trkpt lat="49.979" lon="2.43811">
        <ele>49.1</ele>
        <time>2023-05-17T12:42:00Z</time>
      </trkpt>
      <trkpt lat="49.979" lon="2.43812">
        <ele>49.1</ele>
        <time>2023-05-17T12:42:01Z</time>
      </trkpt>
      <trkpt lat="49.97901" lon="2.43812">
        <ele>49.1</ele>
        <time>2023-05-17T12:42:02Z</time>
      </trkpt>
      <trkpt lat="49.979" lon="2.43813">
        <ele>49.1</ele>
        <time>2023-05-17T12:42:03Z</time>
      </trkpt>
      <trkpt lat="49.979" lon="2.43816">
        <ele>49.2</ele>
        <time>2023-05-17T12:42:04Z</time>
      </trkpt>
      <trkpt lat="49.979" lon="2.43819">
        <ele>49.2</ele>
        <time>2023-05-17T12:42:06Z</time>
      </trkpt>
      <trkpt lat="49.979" lon="2.43822">
        <ele>49.3</ele>
        <time>2023-05-17T12:42:07Z</time>
      </trkpt>
      <trkpt lat="49.979" lon="2.43825">
        <ele>49.3</ele>
        <time>2023-05-17T12:42:08Z</time>
      </trkpt>
      <trkpt lat="49.97901" lon="2.43827">
        <ele>49.4</ele>
        <time>2023-05-17T12:42:09Z</time>
      </trkpt>
      <trkpt lat="49.97901" lon="2.43829">
        <ele>49.4</ele>
        <time>2023-05-17T12:42:10Z</time>
      </trkpt>
      <trkpt lat="49.97901" lon="2.4383">
        <ele>49.4</ele>
        <time>2023-05-17T12:42:11Z</time>
      </trkpt>
      <trkpt lat="49.97902" lon="2.4383">
        <ele>49.5</ele>
        <time>2023-05-17T12:42:12Z</time>
      </trkpt>
      <trkpt lat="49.97902" lon="2.43832">
        <ele>49.5</ele>
        <time>2023-05-17T12:42:13Z</time>
      </trkpt>
      <trkpt lat="49.97903" lon="2.43835">
        <ele>49.5</ele>
        <time>2023-05-17T12:42:15Z</time>
      </trkpt>
      <trkpt lat="49.97903" lon="2.43837">
        <ele>49.6</ele>
        <time>2023-05-17T12:42:16Z</time>
      </trkpt>
      <trkpt lat="49.97903" lon="2.43838">
        <ele>49.6</ele>
        <time>2023-05-17T12:42:17Z</time>
      </trkpt>
      <trkpt lat="49.97904" lon="2.4384">
        <ele>49.6</ele>
        <time>2023-05-17T12:42:18Z</time>
      </trkpt>
      <trkpt lat="49.97904" lon="2.43843">
        <ele>49.7</ele>
        <time>2023-05-17T12:42:19Z</time>
      </trkpt>
      <trkpt lat="49.97904" lon="2.43845">
        <ele>49.7</ele>
        <time>2023-05-17T12:42:21Z</time>
      </trkpt>
      <trkpt lat="49.97905" lon="2.43846">
        <ele>49.7</ele>
        <time>2023-05-17T12:42:22Z</time>
      </trkpt>
      <trkpt lat="49.97905" lon="2.43848">
        <ele>49.7</ele>
        <time>2023-05-17T12:42:23Z</time>
      </trkpt>
      <trkpt lat="49.97906" lon="2.43849">
        <ele>49.7</ele>
        <time>2023-05-17T12:42:24Z</time>
      </trkpt>
      <trkpt lat="49.97907" lon="2.43851">
        <ele>49.8</ele>
        <time>2023-05-17T12:42:25Z</time>
      </trkpt>
      <trkpt lat="49.97907" lon="2.43852">
        <ele>49.8</ele>
        <time>2023-05-17T12:42:26Z</time>
      </trkpt>
      <trkpt lat="49.97907" lon="2.43853">
        <ele>49.8</ele>
        <time>2023-05-17T12:42:27Z</time>
      </trkpt>
      <trkpt lat="49.97907" lon="2.43855">
        <ele>49.8</ele>
        <time>2023-05-17T12:42:28Z</time>
      </trkpt>
      <trkpt lat="49.97907" lon="2.43857">
        <ele>49.8</ele>
        <time>2023-05-17T12:42:29Z</time>
      </trkpt>
      <trkpt lat="49.97907" lon="2.43857">
        <ele>49.8</ele>
        <time>2023-05-17T12:42:30Z</time>
      </trkpt>
      <trkpt lat="49.97908" lon="2.43859">
        <ele>49.8</ele>
        <time>2023-05-17T12:42:32Z</time>
      </trkpt>
      <trkpt lat="49.97908" lon="2.4386">
        <ele>49.8</ele>
        <time>2023-05-17T12:42:33Z</time>
      </trkpt>
      <trkpt lat="49.97908" lon="2.43861">
        <ele>49.9</ele>
        <time>2023-05-17T12:42:34Z</time>
      </trkpt>
      <trkpt lat="49.97908" lon="2.43862">
        <ele>49.9</ele>
        <time>2023-05-17T12:42:35Z</time>
      </trkpt>
      <trkpt lat="49.97908" lon="2.43864">
        <ele>49.9</ele>
        <time>2023-05-17T12:42:36Z</time>
      </trkpt>
      <trkpt lat="49.97909" lon="2.43867">
        <ele>49.9</ele>
        <time>2023-05-17T12:42:38Z</time>
      </trkpt>
      <trkpt lat="49.97909" lon="2.43868">
        <ele>49.9</ele>
        <time>2023-05-17T12:42:39Z</time>
      </trkpt>
      <trkpt lat="49.97909" lon="2.4387">
        <ele>49.9</ele>
        <time>2023-05-17T12:42:40Z</time>
      </trkpt>
      <trkpt lat="49.9791" lon="2.43872">
        <ele>49.9</ele>
        <time>2023-05-17T12:42:41Z</time>
      </trkpt>
      <trkpt lat="49.9791" lon="2.43874">
        <ele>49.9</ele>
        <time>2023-05-17T12:42:42Z</time>
      </trkpt>
      <trkpt lat="49.9791" lon="2.43875">
        <ele>49.9</ele>
        <time>2023-05-17T12:42:43Z</time>
      </trkpt>
      <trkpt lat="49.97911" lon="2.43878">
        <ele>49.9</ele>
        <time>2023-05-17T12:42:45Z</time>
      </trkpt>
      <trkpt lat="49.97911" lon="2.43879">
        <ele>49.8</ele>
        <time>2023-05-17T12:42:46Z</time>
      </trkpt>
      <trkpt lat="49.97911" lon="2.43881">
        <ele>49.8</ele>
        <time>2023-05-17T12:42:47Z</time>
      </trkpt>
      <trkpt lat="49.97911" lon="2.43883">
        <ele>49.8</ele>
        <time>2023-05-17T12:42:48Z</time>
      </trkpt>
      <trkpt lat="49.97911" lon="2.43886">
        <ele>49.8</ele>
        <time>2023-05-17T12:42:49Z</time>
      </trkpt>
      <trkpt lat="49.97911" lon="2.43888">
        <ele>49.8</ele>
        <time>2023-05-17T12:42:50Z</time>
      </trkpt>
      <trkpt lat="49.9791" lon="2.43889">
        <ele>49.8</ele>
        <time>2023-05-17T12:42:51Z</time>
      </trkpt>
      <trkpt lat="49.9791" lon="2.43892">
        <ele>49.8</ele>
        <time>2023-05-17T12:42:53Z</time>
      </trkpt>
      <trkpt lat="49.9791" lon="2.43894">
        <ele>49.8</ele>
        <time>2023-05-17T12:42:54Z</time>
      </trkpt>
      <trkpt lat="49.9791" lon="2.43895">
        <ele>49.7</ele>
        <time>2023-05-17T12:42:55Z</time>
      </trkpt>
      <trkpt lat="49.9791" lon="2.43899">
        <ele>49.7</ele>
        <time>2023-05-17T12:42:56Z</time>
      </trkpt>
      <trkpt lat="49.9791" lon="2.439">
        <ele>49.7</ele>
        <time>2023-05-17T12:42:57Z</time>
      </trkpt>
      <trkpt lat="49.9791" lon="2.43902">
        <ele>49.7</ele>
        <time>2023-05-17T12:42:58Z</time>
      </trkpt>
      <trkpt lat="49.9791" lon="2.43906">
        <ele>49.6</ele>
        <time>2023-05-17T12:42:59Z</time>
      </trkpt>
      <trkpt lat="49.97909" lon="2.43908">
        <ele>49.6</ele>
        <time>2023-05-17T12:43:01Z</time>
      </trkpt>
      <trkpt lat="49.97909" lon="2.4391">
        <ele>49.6</ele>
        <time>2023-05-17T12:43:02Z</time>
      </trkpt>
      <trkpt lat="49.97909" lon="2.43912">
        <ele>49.6</ele>
        <time>2023-05-17T12:43:03Z</time>
      </trkpt>
      <trkpt lat="49.97909" lon="2.43913">
        <ele>49.6</ele>
        <time>2023-05-17T12:43:04Z</time>
      </trkpt>
      <trkpt lat="49.97909" lon="2.43916">
        <ele>49.5</ele>
        <time>2023-05-17T12:43:05Z</time>
      </trkpt>
      <trkpt lat="49.97909" lon="2.43918">
        <ele>49.5</ele>
        <time>2023-05-17T12:43:06Z</time>
      </trkpt>
      <trkpt lat="49.9791" lon="2.43923">
        <ele>49.5</ele>
        <time>2023-05-17T12:43:08Z</time>
      </trkpt>
      <trkpt lat="49.9791" lon="2.43924">
        <ele>49.5</ele>
        <time>2023-05-17T12:43:09Z</time>
      </trkpt>
      <trkpt lat="49.9791" lon="2.43929">
        <ele>49.4</ele>
        <time>2023-05-17T12:43:10Z</time>
      </trkpt>
      <trkpt lat="49.9791" lon="2.4393">
        <ele>49.4</ele>
        <time>2023-05-17T12:43:11Z</time>
      </trkpt>
      <trkpt lat="49.9791" lon="2.43933">
        <ele>49.4</ele>
        <time>2023-05-17T12:43:12Z</time>
      </trkpt>
      <trkpt lat="49.9791" lon="2.43935">
        <ele>49.4</ele>
        <time>2023-05-17T12:43:13Z</time>
      </trkpt>
      <trkpt lat="49.9791" lon="2.43941">
        <ele>49.3</ele>
        <time>2023-05-17T12:43:15Z</time>
      </trkpt>
      <trkpt lat="49.9791" lon="2.43942">
        <ele>49.3</ele>
        <time>2023-05-17T12:43:16Z</time>
      </trkpt>
      <trkpt lat="49.9791" lon="2.43945">
        <ele>49.3</ele>
        <time>2023-05-17T12:43:17Z</time>
      </trkpt>
      <trkpt lat="49.9791" lon="2.43947">
        <ele>49.2</ele>
        <time>2023-05-17T12:43:18Z</time>
      </trkpt>
      <trkpt lat="49.9791" lon="2.43952">
        <ele>49.2</ele>
        <time>2023-05-17T12:43:19Z</time>
      </trkpt>
      <trkpt lat="49.9791" lon="2.43953">
        <ele>49.2</ele>
        <time>2023-05-17T12:43:21Z</time>
      </trkpt>
      <trkpt lat="49.9791" lon="2.43955">
        <ele>49.2</ele>
        <time>2023-05-17T12:43:22Z</time>
      </trkpt>
      <trkpt lat="49.9791" lon="2.43957">
        <ele>49.2</ele>
        <time>2023-05-17T12:43:23Z</time>
      </trkpt>
      <trkpt lat="49.9791" lon="2.43959">
        <ele>49.1</ele>
        <time>2023-05-17T12:43:24Z</time>
      </trkpt>
      <trkpt lat="49.9791" lon="2.4396">
        <ele>49.1</ele>
        <time>2023-05-17T12:43:25Z</time>
      </trkpt>
      <trkpt lat="49.9791" lon="2.43962">
        <ele>49.1</ele>
        <time>2023-05-17T12:43:26Z</time>
      </trkpt>
      <trkpt lat="49.9791" lon="2.43963">
        <ele>49.1</ele>
        <time>2023-05-17T12:43:28Z</time>
      </trkpt>
      <trkpt lat="49.9791" lon="2.43965">
        <ele>49.1</ele>
        <time>2023-05-17T12:43:29Z</time>
      </trkpt>
      <trkpt lat="49.9791" lon="2.43966">
        <ele>49.1</ele>
        <time>2023-05-17T12:43:30Z</time>
      </trkpt>
      <trkpt lat="49.97909" lon="2.43967">
        <ele>49.1</ele>
        <time>2023-05-17T12:43:31Z</time>
      </trkpt>
      <trkpt lat="49.97909" lon="2.43968">
        <ele>49.1</ele>
        <time>2023-05-17T12:43:32Z</time>
      </trkpt>
      <trkpt lat="49.9791" lon="2.4397">
        <ele>49.1</ele>
        <time>2023-05-17T12:43:33Z</time>
      </trkpt>
      <trkpt lat="49.9791" lon="2.43973">
        <ele>49.1</ele>
        <time>2023-05-17T12:43:35Z</time>
      </trkpt>
      <trkpt lat="49.9791" lon="2.43975">
        <ele>49</ele>
        <time>2023-05-17T12:43:36Z</time>
      </trkpt>
      <trkpt lat="49.9791" lon="2.43977">
        <ele>49</ele>
        <time>2023-05-17T12:43:37Z</time>
      </trkpt>
      <trkpt lat="49.9791" lon="2.43978">
        <ele>49</ele>
        <time>2023-05-17T12:43:38Z</time>
      </trkpt>
      <trkpt lat="49.97909" lon="2.43979">
        <ele>49</ele>
        <time>2023-05-17T12:43:39Z</time>
      </trkpt>
      <trkpt lat="49.97909" lon="2.43981">
        <ele>49</ele>
        <time>2023-05-17T12:43:41Z</time>
      </trkpt>
      <trkpt lat="49.97909" lon="2.43983">
        <ele>49</ele>
        <time>2023-05-17T12:43:42Z</time>
      </trkpt>
      <trkpt lat="49.97908" lon="2.43986">
        <ele>49</ele>
        <time>2023-05-17T12:43:43Z</time>
      </trkpt>
      <trkpt lat="49.97908" lon="2.43988">
        <ele>49</ele>
        <time>2023-05-17T12:43:44Z</time>
      </trkpt>
      <trkpt lat="49.97909" lon="2.43991">
        <ele>49</ele>
        <time>2023-05-17T12:43:45Z</time>
      </trkpt>
      <trkpt lat="49.97909" lon="2.43994">
        <ele>49</ele>
        <time>2023-05-17T12:43:47Z</time>
      </trkpt>
      <trkpt lat="49.97909" lon="2.43995">
        <ele>49</ele>
        <time>2023-05-17T12:43:48Z</time>
      </trkpt>
      <trkpt lat="49.97909" lon="2.43996">
        <ele>49</ele>
        <time>2023-05-17T12:43:49Z</time>
      </trkpt>
      <trkpt lat="49.97909" lon="2.43998">
        <ele>49</ele>
        <time>2023-05-17T12:43:50Z</time>
      </trkpt>
      <trkpt lat="49.9791" lon="2.44">
        <ele>49</ele>
        <time>2023-05-17T12:43:51Z</time>
      </trkpt>
      <trkpt lat="49.9791" lon="2.44001">
        <ele>49</ele>
        <time>2023-05-17T12:43:52Z</time>
      </trkpt>
      <trkpt lat="49.9791" lon="2.44003">
        <ele>49.1</ele>
        <time>2023-05-17T12:43:54Z</time>
      </trkpt>
      <trkpt lat="49.97911" lon="2.44003">
        <ele>49.1</ele>
        <time>2023-05-17T12:43:55Z</time>
      </trkpt>
      <trkpt lat="49.97911" lon="2.44002">
        <ele>49.1</ele>
        <time>2023-05-17T12:43:57Z</time>
      </trkpt>
      <trkpt lat="49.97911" lon="2.44002">
        <ele>49.1</ele>
        <time>2023-05-17T12:43:58Z</time>
      </trkpt>
      <trkpt lat="49.97911" lon="2.44002">
        <ele>49.1</ele>
        <time>2023-05-17T12:44:00Z</time>
      </trkpt>
      <trkpt lat="49.97911" lon="2.44001">
        <ele>49.1</ele>
        <time>2023-05-17T12:44:01Z</time>
      </trkpt>
      <trkpt lat="49.97911" lon="2.44001">
        <ele>49.1</ele>
        <time>2023-05-17T12:44:03Z</time>
      </trkpt>
      <trkpt lat="49.97911" lon="2.44001">
        <ele>49.1</ele>
        <time>2023-05-17T12:44:04Z</time>
      </trkpt>
      <trkpt lat="49.97911" lon="2.44001">
        <ele>49.1</ele>
        <time>2023-05-17T12:44:06Z</time>
      </trkpt>
      <trkpt lat="49.97911" lon="2.44001">
        <ele>49.1</ele>
        <time>2023-05-17T12:44:07Z</time>
      </trkpt>
      <trkpt lat="49.97911" lon="2.44001">
        <ele>49.1</ele>
        <time>2023-05-17T12:44:08Z</time>
      </trkpt>
      <trkpt lat="49.97911" lon="2.44001">
        <ele>49.1</ele>
        <time>2023-05-17T12:44:10Z</time>
      </trkpt>
      <trkpt lat="49.97912" lon="2.43999">
        <ele>49.1</ele>
        <time>2023-05-17T12:44:11Z</time>
      </trkpt>
      <trkpt lat="49.97917" lon="2.43991">
        <ele>49.2</ele>
        <time>2023-05-17T12:44:45Z</time>
      </trkpt>
      <trkpt lat="49.97917" lon="2.43991">
        <ele>49.2</ele>
        <time>2023-05-17T12:44:47Z</time>
      </trkpt>
      <trkpt lat="49.97917" lon="2.43992">
        <ele>49.2</ele>
        <time>2023-05-17T12:44:48Z</time>
      </trkpt>
      <trkpt lat="49.97918" lon="2.43991">
        <ele>49.3</ele>
        <time>2023-05-17T12:44:50Z</time>
      </trkpt>
      <trkpt lat="49.97917" lon="2.4399">
        <ele>49.3</ele>
        <time>2023-05-17T12:44:51Z</time>
      </trkpt>
      <trkpt lat="49.97917" lon="2.4399">
        <ele>49.3</ele>
        <time>2023-05-17T12:44:52Z</time>
      </trkpt>
      <trkpt lat="49.97917" lon="2.4399">
        <ele>49.3</ele>
        <time>2023-05-17T12:44:54Z</time>
      </trkpt>
      <trkpt lat="49.97917" lon="2.43989">
        <ele>49.3</ele>
        <time>2023-05-17T12:44:55Z</time>
      </trkpt>
      <trkpt lat="49.97917" lon="2.43989">
        <ele>49.3</ele>
        <time>2023-05-17T12:44:56Z</time>
      </trkpt>
      <trkpt lat="49.97918" lon="2.43989">
        <ele>49.3</ele>
        <time>2023-05-17T12:44:57Z</time>
      </trkpt>
      <trkpt lat="49.97918" lon="2.4399">
        <ele>49.3</ele>
        <time>2023-05-17T12:44:59Z</time>
      </trkpt>
      <trkpt lat="49.97918" lon="2.4399">
        <ele>49.3</ele>
        <time>2023-05-17T12:45:00Z</time>
      </trkpt>
      <trkpt lat="49.97918" lon="2.4399">
        <ele>49.3</ele>
        <time>2023-05-17T12:45:02Z</time>
      </trkpt>
      <trkpt lat="49.97918" lon="2.4399">
        <ele>49.3</ele>
        <time>2023-05-17T12:45:03Z</time>
      </trkpt>
      <trkpt lat="49.97918" lon="2.4399">
        <ele>49.3</ele>
        <time>2023-05-17T12:45:05Z</time>
      </trkpt>
      <trkpt lat="49.97918" lon="2.4399">
        <ele>49.3</ele>
        <time>2023-05-17T12:45:06Z</time>
      </trkpt>
      <trkpt lat="49.97918" lon="2.43991">
        <ele>49.3</ele>
        <time>2023-05-17T12:45:07Z</time>
      </trkpt>
      <trkpt lat="49.97918" lon="2.4399">
        <ele>49.4</ele>
        <time>2023-05-17T12:45:09Z</time>
      </trkpt>
      <trkpt lat="49.97919" lon="2.4399">
        <ele>49.4</ele>
        <time>2023-05-17T12:45:10Z</time>
      </trkpt>
      <trkpt lat="49.97919" lon="2.43991">
        <ele>49.4</ele>
        <time>2023-05-17T12:45:12Z</time>
      </trkpt>
      <trkpt lat="49.9792" lon="2.43991">
        <ele>49.4</ele>
        <time>2023-05-17T12:45:13Z</time>
      </trkpt>
      <trkpt lat="49.97919" lon="2.43991">
        <ele>49.4</ele>
        <time>2023-05-17T12:45:14Z</time>
      </trkpt>
      <trkpt lat="49.97919" lon="2.43992">
        <ele>49.4</ele>
        <time>2023-05-17T12:45:16Z</time>
      </trkpt>
      <trkpt lat="49.97919" lon="2.43991">
        <ele>49.4</ele>
        <time>2023-05-17T12:45:17Z</time>
      </trkpt>
      <trkpt lat="49.9792" lon="2.43992">
        <ele>49.4</ele>
        <time>2023-05-17T12:45:19Z</time>
      </trkpt>
      <trkpt lat="49.9792" lon="2.43991">
        <ele>49.4</ele>
        <time>2023-05-17T12:45:20Z</time>
      </trkpt>
      <trkpt lat="49.9792" lon="2.43991">
        <ele>49.5</ele>
        <time>2023-05-17T12:45:22Z</time>
      </trkpt>
      <trkpt lat="49.9792" lon="2.43991">
        <ele>49.5</ele>
        <time>2023-05-17T12:45:23Z</time>
      </trkpt>
      <trkpt lat="49.97919" lon="2.43992">
        <ele>49.5</ele>
        <time>2023-05-17T12:45:25Z</time>
      </trkpt>
      <trkpt lat="49.97918" lon="2.43992">
        <ele>49.5</ele>
        <time>2023-05-17T12:45:26Z</time>
      </trkpt>
      <trkpt lat="49.97918" lon="2.43991">
        <ele>49.5</ele>
        <time>2023-05-17T12:45:28Z</time>
      </trkpt>
      <trkpt lat="49.97918" lon="2.43991">
        <ele>49.5</ele>
        <time>2023-05-17T12:45:29Z</time>
      </trkpt>
      <trkpt lat="49.97918" lon="2.43991">
        <ele>49.5</ele>
        <time>2023-05-17T12:45:30Z</time>
      </trkpt>
      <trkpt lat="49.97917" lon="2.43991">
        <ele>49.5</ele>
        <time>2023-05-17T12:45:32Z</time>
      </trkpt>
      <trkpt lat="49.97917" lon="2.43991">
        <ele>49.5</ele>
        <time>2023-05-17T12:45:33Z</time>
      </trkpt>
      <trkpt lat="49.9792" lon="2.4399">
        <ele>49.6</ele>
        <time>2023-05-17T12:45:54Z</time>
      </trkpt>
      <trkpt lat="49.9792" lon="2.4399">
        <ele>49.7</ele>
        <time>2023-05-17T12:45:55Z</time>
      </trkpt>
      <trkpt lat="49.97917" lon="2.43991">
        <ele>49.8</ele>
        <time>2023-05-17T12:45:57Z</time>
      </trkpt>
      <trkpt lat="49.97915" lon="2.43991">
        <ele>49.8</ele>
        <time>2023-05-17T12:45:58Z</time>
      </trkpt>
      <trkpt lat="49.97915" lon="2.43991">
        <ele>49.9</ele>
        <time>2023-05-17T12:46:00Z</time>
      </trkpt>
      <trkpt lat="49.97915" lon="2.43991">
        <ele>49.9</ele>
        <time>2023-05-17T12:46:01Z</time>
      </trkpt>
      <trkpt lat="49.97915" lon="2.43992">
        <ele>49.9</ele>
        <time>2023-05-17T12:46:03Z</time>
      </trkpt>
      <trkpt lat="49.97915" lon="2.43992">
        <ele>49.9</ele>
        <time>2023-05-17T12:46:04Z</time>
      </trkpt>
      <trkpt lat="49.97915" lon="2.43992">
        <ele>49.9</ele>
        <time>2023-05-17T12:46:05Z</time>
      </trkpt>
      <trkpt lat="49.97915" lon="2.43992">
        <ele>49.9</ele>
        <time>2023-05-17T12:46:07Z</time>
      </trkpt>
      <trkpt lat="49.97915" lon="2.43992">
        <ele>49.9</ele>
        <time>2023-05-17T12:46:08Z</time>
      </trkpt>
      <trkpt lat="49.97915" lon="2.43992">
        <ele>49.9</ele>
        <time>2023-05-17T12:46:09Z</time>
      </trkpt>
      <trkpt lat="49.97915" lon="2.43992">
        <ele>49.9</ele>
        <time>2023-05-17T12:46:10Z</time>
      </trkpt>
      <trkpt lat="49.97914" lon="2.43992">
        <ele>50</ele>
        <time>2023-05-17T12:46:14Z</time>
      </trkpt>
      <trkpt lat="49.97913" lon="2.43993">
        <ele>50</ele>
        <time>2023-05-17T12:46:15Z</time>
      </trkpt>
      <trkpt lat="49.97912" lon="2.43993">
        <ele>50</ele>
        <time>2023-05-17T12:46:16Z</time>
      </trkpt>
      <trkpt lat="49.97911" lon="2.43992">
        <ele>50.1</ele>
        <time>2023-05-17T12:46:18Z</time>
      </trkpt>
      <trkpt lat="49.97911" lon="2.43991">
        <ele>50.1</ele>
        <time>2023-05-17T12:46:19Z</time>
      </trkpt>
      <trkpt lat="49.97911" lon="2.43992">
        <ele>50.1</ele>
        <time>2023-05-17T12:46:21Z</time>
      </trkpt>
      <trkpt lat="49.97911" lon="2.43993">
        <ele>50.1</ele>
        <time>2023-05-17T12:46:22Z</time>
      </trkpt>
      <trkpt lat="49.97913" lon="2.43994">
        <ele>50.2</ele>
        <time>2023-05-17T12:46:24Z</time>
      </trkpt>
      <trkpt lat="49.97914" lon="2.43994">
        <ele>50.2</ele>
        <time>2023-05-17T12:46:25Z</time>
      </trkpt>
      <trkpt lat="49.97914" lon="2.43993">
        <ele>50.2</ele>
        <time>2023-05-17T12:46:26Z</time>
      </trkpt>
      <trkpt lat="49.97915" lon="2.43992">
        <ele>50.3</ele>
        <time>2023-05-17T12:46:27Z</time>
      </trkpt>
      <trkpt lat="49.97916" lon="2.43991">
        <ele>50.3</ele>
        <time>2023-05-17T12:46:28Z</time>
      </trkpt>
      <trkpt lat="49.97917" lon="2.4399">
        <ele>50.3</ele>
        <time>2023-05-17T12:46:29Z</time>
      </trkpt>
      <trkpt lat="49.97918" lon="2.43989">
        <ele>50.4</ele>
        <time>2023-05-17T12:46:30Z</time>
      </trkpt>
      <trkpt lat="49.97917" lon="2.43989">
        <ele>50.4</ele>
        <time>2023-05-17T12:46:31Z</time>
      </trkpt>
      <trkpt lat="49.97915" lon="2.43989">
        <ele>50.4</ele>
        <time>2023-05-17T12:46:33Z</time>
      </trkpt>
      <trkpt lat="49.97915" lon="2.43991">
        <ele>50.5</ele>
        <time>2023-05-17T12:46:34Z</time>
      </trkpt>
      <trkpt lat="49.97916" lon="2.43993">
        <ele>50.5</ele>
        <time>2023-05-17T12:46:35Z</time>
      </trkpt>
      <trkpt lat="49.97917" lon="2.43997">
        <ele>50.6</ele>
        <time>2023-05-17T12:46:37Z</time>
      </trkpt>
      <trkpt lat="49.97917" lon="2.43999">
        <ele>50.6</ele>
        <time>2023-05-17T12:46:38Z</time>
      </trkpt>
      <trkpt lat="49.97917" lon="2.44">
        <ele>50.6</ele>
        <time>2023-05-17T12:46:39Z</time>
      </trkpt>
      <trkpt lat="49.97918" lon="2.44001">
        <ele>50.7</ele>
        <time>2023-05-17T12:46:40Z</time>
      </trkpt>
      <trkpt lat="49.97917" lon="2.44003">
        <ele>50.7</ele>
        <time>2023-05-17T12:46:41Z</time>
      </trkpt>
      <trkpt lat="49.97918" lon="2.44004">
        <ele>50.7</ele>
        <time>2023-05-17T12:46:43Z</time>
      </trkpt>
      <trkpt lat="49.97918" lon="2.44005">
        <ele>50.7</ele>
        <time>2023-05-17T12:46:44Z</time>
      </trkpt>
      <trkpt lat="49.97919" lon="2.44006">
        <ele>50.7</ele>
        <time>2023-05-17T12:46:45Z</time>
      </trkpt>
      <trkpt lat="49.97919" lon="2.44009">
        <ele>50.7</ele>
        <time>2023-05-17T12:46:46Z</time>
      </trkpt>
      <trkpt lat="49.97919" lon="2.44011">
        <ele>50.8</ele>
        <time>2023-05-17T12:46:47Z</time>
      </trkpt>
      <trkpt lat="49.97918" lon="2.44013">
        <ele>50.8</ele>
        <time>2023-05-17T12:46:48Z</time>
      </trkpt>
      <trkpt lat="49.97916" lon="2.44019">
        <ele>50.9</ele>
        <time>2023-05-17T12:46:50Z</time>
      </trkpt>
      <trkpt lat="49.97915" lon="2.44024">
        <ele>50.9</ele>
        <time>2023-05-17T12:46:51Z</time>
      </trkpt>
      <trkpt lat="49.97914" lon="2.44027">
        <ele>51</ele>
        <time>2023-05-17T12:46:52Z</time>
      </trkpt>
      <trkpt lat="49.97914" lon="2.44028">
        <ele>51</ele>
        <time>2023-05-17T12:46:53Z</time>
      </trkpt>
      <trkpt lat="49.97915" lon="2.4403">
        <ele>51</ele>
        <time>2023-05-17T12:46:54Z</time>
      </trkpt>
      <trkpt lat="49.97915" lon="2.44031">
        <ele>51</ele>
        <time>2023-05-17T12:46:55Z</time>
      </trkpt>
      <trkpt lat="49.97915" lon="2.44032">
        <ele>51</ele>
        <time>2023-05-17T12:46:56Z</time>
      </trkpt>
      <trkpt lat="49.97915" lon="2.44033">
        <ele>51</ele>
        <time>2023-05-17T12:46:58Z</time>
      </trkpt>
      <trkpt lat="49.97914" lon="2.44034">
        <ele>51.1</ele>
        <time>2023-05-17T12:46:59Z</time>
      </trkpt>
      <trkpt lat="49.97914" lon="2.44036">
        <ele>51.1</ele>
        <time>2023-05-17T12:47:00Z</time>
      </trkpt>
      <trkpt lat="49.97914" lon="2.44038">
        <ele>51.1</ele>
        <time>2023-05-17T12:47:01Z</time>
      </trkpt>
      <trkpt lat="49.97914" lon="2.44039">
        <ele>51.1</ele>
        <time>2023-05-17T12:47:02Z</time>
      </trkpt>
      <trkpt lat="49.97914" lon="2.44041">
        <ele>51.2</ele>
        <time>2023-05-17T12:47:04Z</time>
      </trkpt>
      <trkpt lat="49.97914" lon="2.44043">
        <ele>51.2</ele>
        <time>2023-05-17T12:47:05Z</time>
      </trkpt>
      <trkpt lat="49.97914" lon="2.44047">
        <ele>51.3</ele>
        <time>2023-05-17T12:47:06Z</time>
      </trkpt>
      <trkpt lat="49.97915" lon="2.44048">
        <ele>51.3</ele>
        <time>2023-05-17T12:47:08Z</time>
      </trkpt>
      <trkpt lat="49.97915" lon="2.44049">
        <ele>51.3</ele>
        <time>2023-05-17T12:47:09Z</time>
      </trkpt>
      <trkpt lat="49.97915" lon="2.44051">
        <ele>51.3</ele>
        <time>2023-05-17T12:47:10Z</time>
      </trkpt>
      <trkpt lat="49.97915" lon="2.44051">
        <ele>51.4</ele>
        <time>2023-05-17T12:47:11Z</time>
      </trkpt>
      <trkpt lat="49.97915" lon="2.44053">
        <ele>51.4</ele>
        <time>2023-05-17T12:47:12Z</time>
      </trkpt>
      <trkpt lat="49.97915" lon="2.44054">
        <ele>51.4</ele>
        <time>2023-05-17T12:47:13Z</time>
      </trkpt>
      <trkpt lat="49.97915" lon="2.44056">
        <ele>51.5</ele>
        <time>2023-05-17T12:47:15Z</time>
      </trkpt>
      <trkpt lat="49.97915" lon="2.44057">
        <ele>51.5</ele>
        <time>2023-05-17T12:47:16Z</time>
      </trkpt>
      <trkpt lat="49.97915" lon="2.44057">
        <ele>51.5</ele>
        <time>2023-05-17T12:47:18Z</time>
      </trkpt>
      <trkpt lat="49.97915" lon="2.44059">
        <ele>51.5</ele>
        <time>2023-05-17T12:47:19Z</time>
      </trkpt>
      <trkpt lat="49.97915" lon="2.44059">
        <ele>51.5</ele>
        <time>2023-05-17T12:47:20Z</time>
      </trkpt>
      <trkpt lat="49.97915" lon="2.44061">
        <ele>51.6</ele>
        <time>2023-05-17T12:47:22Z</time>
      </trkpt>
      <trkpt lat="49.97914" lon="2.44062">
        <ele>51.6</ele>
        <time>2023-05-17T12:47:23Z</time>
      </trkpt>
      <trkpt lat="49.97914" lon="2.44062">
        <ele>51.6</ele>
        <time>2023-05-17T12:47:24Z</time>
      </trkpt>
      <trkpt lat="49.97914" lon="2.44063">
        <ele>51.6</ele>
        <time>2023-05-17T12:47:25Z</time>
      </trkpt>
      <trkpt lat="49.97914" lon="2.44065">
        <ele>51.7</ele>
        <time>2023-05-17T12:47:26Z</time>
      </trkpt>
      <trkpt lat="49.97914" lon="2.44065">
        <ele>51.7</ele>
        <time>2023-05-17T12:47:27Z</time>
      </trkpt>
      <trkpt lat="49.97914" lon="2.44066">
        <ele>51.7</ele>
        <time>2023-05-17T12:47:29Z</time>
      </trkpt>
      <trkpt lat="49.97914" lon="2.44067">
        <ele>51.7</ele>
        <time>2023-05-17T12:47:30Z</time>
      </trkpt>
      <trkpt lat="49.97914" lon="2.44068">
        <ele>51.8</ele>
        <time>2023-05-17T12:47:31Z</time>
      </trkpt>
      <trkpt lat="49.97914" lon="2.44069">
        <ele>51.8</ele>
        <time>2023-05-17T12:47:32Z</time>
      </trkpt>
      <trkpt lat="49.97915" lon="2.4407">
        <ele>51.8</ele>
        <time>2023-05-17T12:47:33Z</time>
      </trkpt>
      <trkpt lat="49.97915" lon="2.44071">
        <ele>51.8</ele>
        <time>2023-05-17T12:47:34Z</time>
      </trkpt>
      <trkpt lat="49.97915" lon="2.44072">
        <ele>51.9</ele>
        <time>2023-05-17T12:47:36Z</time>
      </trkpt>
      <trkpt lat="49.97915" lon="2.44073">
        <ele>51.9</ele>
        <time>2023-05-17T12:47:37Z</time>
      </trkpt>
      <trkpt lat="49.97914" lon="2.44073">
        <ele>51.9</ele>
        <time>2023-05-17T12:47:38Z</time>
      </trkpt>
      <trkpt lat="49.97913" lon="2.44074">
        <ele>52</ele>
        <time>2023-05-17T12:47:39Z</time>
      </trkpt>
      <trkpt lat="49.97913" lon="2.44075">
        <ele>52</ele>
        <time>2023-05-17T12:47:40Z</time>
      </trkpt>
      <trkpt lat="49.97913" lon="2.44077">
        <ele>52.1</ele>
        <time>2023-05-17T12:47:42Z</time>
      </trkpt>
      <trkpt lat="49.97913" lon="2.44079">
        <ele>52.1</ele>
        <time>2023-05-17T12:47:43Z</time>
      </trkpt>
      <trkpt lat="49.97914" lon="2.44082">
        <ele>52.2</ele>
        <time>2023-05-17T12:47:44Z</time>
      </trkpt>
      <trkpt lat="49.97917" lon="2.44086">
        <ele>52.4</ele>
        <time>2023-05-17T12:47:45Z</time>
      </trkpt>
      <trkpt lat="49.97918" lon="2.44087">
        <ele>52.5</ele>
        <time>2023-05-17T12:47:46Z</time>
      </trkpt>
      <trkpt lat="49.9792" lon="2.44092">
        <ele>52.7</ele>
        <time>2023-05-17T12:47:48Z</time>
      </trkpt>
      <trkpt lat="49.97921" lon="2.44094">
        <ele>52.8</ele>
        <time>2023-05-17T12:47:49Z</time>
      </trkpt>
      <trkpt lat="49.97921" lon="2.44096">
        <ele>52.8</ele>
        <time>2023-05-17T12:47:50Z</time>
      </trkpt>
      <trkpt lat="49.97921" lon="2.44099">
        <ele>52.9</ele>
        <time>2023-05-17T12:47:51Z</time>
      </trkpt>
      <trkpt lat="49.97921" lon="2.44102">
        <ele>53</ele>
        <time>2023-05-17T12:47:52Z</time>
      </trkpt>
      <trkpt lat="49.9792" lon="2.44104">
        <ele>53.1</ele>
        <time>2023-05-17T12:47:53Z</time>
      </trkpt>
      <trkpt lat="49.9792" lon="2.44108">
        <ele>53.3</ele>
        <time>2023-05-17T12:47:55Z</time>
      </trkpt>
      <trkpt lat="49.9792" lon="2.44113">
        <ele>53.4</ele>
        <time>2023-05-17T12:47:56Z</time>
      </trkpt>
      <trkpt lat="49.97919" lon="2.44114">
        <ele>53.5</ele>
        <time>2023-05-17T12:47:57Z</time>
      </trkpt>
      <trkpt lat="49.97919" lon="2.44119">
        <ele>53.6</ele>
        <time>2023-05-17T12:47:58Z</time>
      </trkpt>
      <trkpt lat="49.97919" lon="2.4412">
        <ele>53.7</ele>
        <time>2023-05-17T12:48:00Z</time>
      </trkpt>
      <trkpt lat="49.97919" lon="2.44122">
        <ele>53.8</ele>
        <time>2023-05-17T12:48:01Z</time>
      </trkpt>
      <trkpt lat="49.97919" lon="2.44124">
        <ele>53.8</ele>
        <time>2023-05-17T12:48:02Z</time>
      </trkpt>
      <trkpt lat="49.97919" lon="2.44125">
        <ele>53.9</ele>
        <time>2023-05-17T12:48:03Z</time>
      </trkpt>
      <trkpt lat="49.97919" lon="2.44128">
        <ele>54</ele>
        <time>2023-05-17T12:48:04Z</time>
      </trkpt>
      <trkpt lat="49.97919" lon="2.4413">
        <ele>54</ele>
        <time>2023-05-17T12:48:06Z</time>
      </trkpt>
      <trkpt lat="49.97919" lon="2.44131">
        <ele>54.1</ele>
        <time>2023-05-17T12:48:07Z</time>
      </trkpt>
      <trkpt lat="49.97919" lon="2.44132">
        <ele>54.1</ele>
        <time>2023-05-17T12:48:08Z</time>
      </trkpt>
      <trkpt lat="49.97918" lon="2.44134">
        <ele>54.2</ele>
        <time>2023-05-17T12:48:09Z</time>
      </trkpt>
      <trkpt lat="49.97918" lon="2.44135">
        <ele>54.2</ele>
        <time>2023-05-17T12:48:10Z</time>
      </trkpt>
      <trkpt lat="49.97918" lon="2.44136">
        <ele>54.3</ele>
        <time>2023-05-17T12:48:11Z</time>
      </trkpt>
      <trkpt lat="49.97919" lon="2.44139">
        <ele>54.4</ele>
        <time>2023-05-17T12:48:13Z</time>
      </trkpt>
      <trkpt lat="49.97919" lon="2.4414">
        <ele>54.4</ele>
        <time>2023-05-17T12:48:14Z</time>
      </trkpt>
      <trkpt lat="49.97919" lon="2.44141">
        <ele>54.5</ele>
        <time>2023-05-17T12:48:15Z</time>
      </trkpt>
      <trkpt lat="49.97919" lon="2.44143">
        <ele>54.5</ele>
        <time>2023-05-17T12:48:16Z</time>
      </trkpt>
      <trkpt lat="49.97919" lon="2.44145">
        <ele>54.6</ele>
        <time>2023-05-17T12:48:17Z</time>
      </trkpt>
      <trkpt lat="49.97919" lon="2.44146">
        <ele>54.6</ele>
        <time>2023-05-17T12:48:18Z</time>
      </trkpt>
      <trkpt lat="49.97919" lon="2.44148">
        <ele>54.7</ele>
        <time>2023-05-17T12:48:20Z</time>
      </trkpt>
      <trkpt lat="49.97919" lon="2.4415">
        <ele>54.7</ele>
        <time>2023-05-17T12:48:21Z</time>
      </trkpt>
      <trkpt lat="49.97919" lon="2.44151">
        <ele>54.8</ele>
        <time>2023-05-17T12:48:22Z</time>
      </trkpt>
      <trkpt lat="49.97919" lon="2.44153">
        <ele>54.8</ele>
        <time>2023-05-17T12:48:23Z</time>
      </trkpt>
      <trkpt lat="49.97919" lon="2.44154">
        <ele>54.9</ele>
        <time>2023-05-17T12:48:24Z</time>
      </trkpt>
      <trkpt lat="49.97919" lon="2.44155">
        <ele>54.9</ele>
        <time>2023-05-17T12:48:25Z</time>
      </trkpt>
      <trkpt lat="49.9792" lon="2.44158">
        <ele>55</ele>
        <time>2023-05-17T12:48:27Z</time>
      </trkpt>
      <trkpt lat="49.9792" lon="2.44161">
        <ele>55.1</ele>
        <time>2023-05-17T12:48:28Z</time>
      </trkpt>
      <trkpt lat="49.9792" lon="2.44162">
        <ele>55.1</ele>
        <time>2023-05-17T12:48:29Z</time>
      </trkpt>
      <trkpt lat="49.9792" lon="2.44163">
        <ele>55.1</ele>
        <time>2023-05-17T12:48:30Z</time>
      </trkpt>
      <trkpt lat="49.9792" lon="2.44164">
        <ele>55.2</ele>
        <time>2023-05-17T12:48:31Z</time>
      </trkpt>
      <trkpt lat="49.9792" lon="2.44165">
        <ele>55.2</ele>
        <time>2023-05-17T12:48:32Z</time>
      </trkpt>
      <trkpt lat="49.97921" lon="2.44167">
        <ele>55.2</ele>
        <time>2023-05-17T12:48:34Z</time>
      </trkpt>
      <trkpt lat="49.97921" lon="2.44168">
        <ele>55.3</ele>
        <time>2023-05-17T12:48:35Z</time>
      </trkpt>
      <trkpt lat="49.97921" lon="2.4417">
        <ele>55.3</ele>
        <time>2023-05-17T12:48:36Z</time>
      </trkpt>
      <trkpt lat="49.97921" lon="2.44172">
        <ele>55.4</ele>
        <time>2023-05-17T12:48:37Z</time>
      </trkpt>
      <trkpt lat="49.97922" lon="2.44174">
        <ele>55.4</ele>
        <time>2023-05-17T12:48:38Z</time>
      </trkpt>
      <trkpt lat="49.97922" lon="2.44177">
        <ele>55.5</ele>
        <time>2023-05-17T12:48:40Z</time>
      </trkpt>
      <trkpt lat="49.97922" lon="2.44179">
        <ele>55.5</ele>
        <time>2023-05-17T12:48:41Z</time>
      </trkpt>
      <trkpt lat="49.97922" lon="2.4418">
        <ele>55.6</ele>
        <time>2023-05-17T12:48:42Z</time>
      </trkpt>
      <trkpt lat="49.97922" lon="2.44182">
        <ele>55.6</ele>
        <time>2023-05-17T12:48:43Z</time>
      </trkpt>
      <trkpt lat="49.97923" lon="2.44184">
        <ele>55.6</ele>
        <time>2023-05-17T12:48:45Z</time>
      </trkpt>
      <trkpt lat="49.97923" lon="2.44188">
        <ele>55.7</ele>
        <time>2023-05-17T12:48:46Z</time>
      </trkpt>
      <trkpt lat="49.97923" lon="2.44189">
        <ele>55.7</ele>
        <time>2023-05-17T12:48:47Z</time>
      </trkpt>
      <trkpt lat="49.97924" lon="2.44193">
        <ele>55.8</ele>
        <time>2023-05-17T12:48:48Z</time>
      </trkpt>
      <trkpt lat="49.97924" lon="2.44194">
        <ele>55.8</ele>
        <time>2023-05-17T12:48:50Z</time>
      </trkpt>
      <trkpt lat="49.97924" lon="2.44196">
        <ele>55.8</ele>
        <time>2023-05-17T12:48:51Z</time>
      </trkpt>
      <trkpt lat="49.97924" lon="2.44197">
        <ele>55.8</ele>
        <time>2023-05-17T12:48:52Z</time>
      </trkpt>
      <trkpt lat="49.97924" lon="2.44199">
        <ele>55.9</ele>
        <time>2023-05-17T12:48:53Z</time>
      </trkpt>
      <trkpt lat="49.97924" lon="2.44201">
        <ele>55.9</ele>
        <time>2023-05-17T12:48:55Z</time>
      </trkpt>
      <trkpt lat="49.97924" lon="2.44203">
        <ele>55.9</ele>
        <time>2023-05-17T12:48:56Z</time>
      </trkpt>
      <trkpt lat="49.97924" lon="2.44204">
        <ele>55.9</ele>
        <time>2023-05-17T12:48:57Z</time>
      </trkpt>
      <trkpt lat="49.97924" lon="2.44206">
        <ele>55.9</ele>
        <time>2023-05-17T12:48:58Z</time>
      </trkpt>
      <trkpt lat="49.97924" lon="2.44207">
        <ele>56</ele>
        <time>2023-05-17T12:48:59Z</time>
      </trkpt>
      <trkpt lat="49.97924" lon="2.44209">
        <ele>56</ele>
        <time>2023-05-17T12:49:00Z</time>
      </trkpt>
      <trkpt lat="49.97924" lon="2.4421">
        <ele>56</ele>
        <time>2023-05-17T12:49:01Z</time>
      </trkpt>
      <trkpt lat="49.97924" lon="2.44211">
        <ele>56</ele>
        <time>2023-05-17T12:49:02Z</time>
      </trkpt>
      <trkpt lat="49.97924" lon="2.44213">
        <ele>56</ele>
        <time>2023-05-17T12:49:03Z</time>
      </trkpt>
      <trkpt lat="49.97924" lon="2.44216">
        <ele>56</ele>
        <time>2023-05-17T12:49:05Z</time>
      </trkpt>
      <trkpt lat="49.97924" lon="2.44218">
        <ele>56</ele>
        <time>2023-05-17T12:49:07Z</time>
      </trkpt>
      <trkpt lat="49.97924" lon="2.4422">
        <ele>56</ele>
        <time>2023-05-17T12:49:08Z</time>
      </trkpt>
      <trkpt lat="49.97924" lon="2.44221">
        <ele>56</ele>
        <time>2023-05-17T12:49:09Z</time>
      </trkpt>
      <trkpt lat="49.97924" lon="2.44223">
        <ele>56</ele>
        <time>2023-05-17T12:49:10Z</time>
      </trkpt>
      <trkpt lat="49.97924" lon="2.44225">
        <ele>56</ele>
        <time>2023-05-17T12:49:11Z</time>
      </trkpt>
      <trkpt lat="49.97924" lon="2.44227">
        <ele>56</ele>
        <time>2023-05-17T12:49:12Z</time>
      </trkpt>
      <trkpt lat="49.97924" lon="2.44228">
        <ele>56</ele>
        <time>2023-05-17T12:49:13Z</time>
      </trkpt>
      <trkpt lat="49.97924" lon="2.44231">
        <ele>55.9</ele>
        <time>2023-05-17T12:49:15Z</time>
      </trkpt>
      <trkpt lat="49.97924" lon="2.44232">
        <ele>55.9</ele>
        <time>2023-05-17T12:49:16Z</time>
      </trkpt>
      <trkpt lat="49.97925" lon="2.44234">
        <ele>55.9</ele>
        <time>2023-05-17T12:49:17Z</time>
      </trkpt>
      <trkpt lat="49.97925" lon="2.44235">
        <ele>55.9</ele>
        <time>2023-05-17T12:49:18Z</time>
      </trkpt>
      <trkpt lat="49.97925" lon="2.44236">
        <ele>55.9</ele>
        <time>2023-05-17T12:49:19Z</time>
      </trkpt>
      <trkpt lat="49.97926" lon="2.44238">
        <ele>55.9</ele>
        <time>2023-05-17T12:49:21Z</time>
      </trkpt>
      <trkpt lat="49.97926" lon="2.4424">
        <ele>55.8</ele>
        <time>2023-05-17T12:49:22Z</time>
      </trkpt>
      <trkpt lat="49.97927" lon="2.44243">
        <ele>55.8</ele>
        <time>2023-05-17T12:49:23Z</time>
      </trkpt>
      <trkpt lat="49.97927" lon="2.44245">
        <ele>55.8</ele>
        <time>2023-05-17T12:49:24Z</time>
      </trkpt>
      <trkpt lat="49.97927" lon="2.44246">
        <ele>55.7</ele>
        <time>2023-05-17T12:49:25Z</time>
      </trkpt>
      <trkpt lat="49.97927" lon="2.44248">
        <ele>55.7</ele>
        <time>2023-05-17T12:49:26Z</time>
      </trkpt>
      <trkpt lat="49.97928" lon="2.44252">
        <ele>55.6</ele>
        <time>2023-05-17T12:49:28Z</time>
      </trkpt>
      <trkpt lat="49.97928" lon="2.44254">
        <ele>55.6</ele>
        <time>2023-05-17T12:49:29Z</time>
      </trkpt>
      <trkpt lat="49.97928" lon="2.44256">
        <ele>55.5</ele>
        <time>2023-05-17T12:49:31Z</time>
      </trkpt>
      <trkpt lat="49.97928" lon="2.44257">
        <ele>55.5</ele>
        <time>2023-05-17T12:49:32Z</time>
      </trkpt>
      <trkpt lat="49.97928" lon="2.44261">
        <ele>55.5</ele>
        <time>2023-05-17T12:49:33Z</time>
      </trkpt>
      <trkpt lat="49.97928" lon="2.44262">
        <ele>55.4</ele>
        <time>2023-05-17T12:49:34Z</time>
      </trkpt>
      <trkpt lat="49.97928" lon="2.44264">
        <ele>55.4</ele>
        <time>2023-05-17T12:49:35Z</time>
      </trkpt>
      <trkpt lat="49.97928" lon="2.44268">
        <ele>55.3</ele>
        <time>2023-05-17T12:49:36Z</time>
      </trkpt>
      <trkpt lat="49.97927" lon="2.4427">
        <ele>55.3</ele>
        <time>2023-05-17T12:49:37Z</time>
      </trkpt>
      <trkpt lat="49.97927" lon="2.44272">
        <ele>55.2</ele>
        <time>2023-05-17T12:49:38Z</time>
      </trkpt>
      <trkpt lat="49.97927" lon="2.44277">
        <ele>55.1</ele>
        <time>2023-05-17T12:49:40Z</time>
      </trkpt>
      <trkpt lat="49.97927" lon="2.44281">
        <ele>55</ele>
        <time>2023-05-17T12:49:41Z</time>
      </trkpt>
      <trkpt lat="49.97926" lon="2.4429">
        <ele>54.8</ele>
        <time>2023-05-17T12:49:43Z</time>
      </trkpt>
      <trkpt lat="49.97926" lon="2.44296">
        <ele>54.6</ele>
        <time>2023-05-17T12:49:45Z</time>
      </trkpt>
      <trkpt lat="49.97925" lon="2.44303">
        <ele>54.5</ele>
        <time>2023-05-17T12:49:47Z</time>
      </trkpt>
      <trkpt lat="49.97924" lon="2.44305">
        <ele>54.4</ele>
        <time>2023-05-17T12:49:48Z</time>
      </trkpt>
      <trkpt lat="49.97924" lon="2.44307">
        <ele>54.3</ele>
        <time>2023-05-17T12:49:49Z</time>
      </trkpt>
      <trkpt lat="49.97924" lon="2.44309">
        <ele>54.3</ele>
        <time>2023-05-17T12:49:50Z</time>
      </trkpt>
      <trkpt lat="49.97923" lon="2.44312">
        <ele>54.2</ele>
        <time>2023-05-17T12:49:51Z</time>
      </trkpt>
      <trkpt lat="49.97923" lon="2.44314">
        <ele>54.1</ele>
        <time>2023-05-17T12:49:52Z</time>
      </trkpt>
      <trkpt lat="49.97922" lon="2.44316">
        <ele>54</ele>
        <time>2023-05-17T12:49:53Z</time>
      </trkpt>
      <trkpt lat="49.97922" lon="2.4432">
        <ele>53.9</ele>
        <time>2023-05-17T12:49:55Z</time>
      </trkpt>
      <trkpt lat="49.97922" lon="2.44321">
        <ele>53.9</ele>
        <time>2023-05-17T12:49:56Z</time>
      </trkpt>
      <trkpt lat="49.97922" lon="2.44325">
        <ele>53.7</ele>
        <time>2023-05-17T12:49:57Z</time>
      </trkpt>
      <trkpt lat="49.97922" lon="2.44326">
        <ele>53.7</ele>
        <time>2023-05-17T12:49:59Z</time>
      </trkpt>
      <trkpt lat="49.97922" lon="2.44328">
        <ele>53.6</ele>
        <time>2023-05-17T12:50:00Z</time>
      </trkpt>
      <trkpt lat="49.97922" lon="2.44332">
        <ele>53.5</ele>
        <time>2023-05-17T12:50:01Z</time>
      </trkpt>
      <trkpt lat="49.97922" lon="2.44333">
        <ele>53.4</ele>
        <time>2023-05-17T12:50:02Z</time>
      </trkpt>
      <trkpt lat="49.97922" lon="2.44336">
        <ele>53.3</ele>
        <time>2023-05-17T12:50:03Z</time>
      </trkpt>
      <trkpt lat="49.97923" lon="2.44339">
        <ele>53.2</ele>
        <time>2023-05-17T12:50:04Z</time>
      </trkpt>
      <trkpt lat="49.97922" lon="2.44343">
        <ele>53.1</ele>
        <time>2023-05-17T12:50:06Z</time>
      </trkpt>
      <trkpt lat="49.97923" lon="2.44346">
        <ele>53</ele>
        <time>2023-05-17T12:50:07Z</time>
      </trkpt>
      <trkpt lat="49.97923" lon="2.44349">
        <ele>52.9</ele>
        <time>2023-05-17T12:50:08Z</time>
      </trkpt>
      <trkpt lat="49.97923" lon="2.44351">
        <ele>52.8</ele>
        <time>2023-05-17T12:50:09Z</time>
      </trkpt>
      <trkpt lat="49.97922" lon="2.44354">
        <ele>52.7</ele>
        <time>2023-05-17T12:50:10Z</time>
      </trkpt>
      <trkpt lat="49.97923" lon="2.44359">
        <ele>52.6</ele>
        <time>2023-05-17T12:50:12Z</time>
      </trkpt>
      <trkpt lat="49.97923" lon="2.44361">
        <ele>52.5</ele>
        <time>2023-05-17T12:50:13Z</time>
      </trkpt>
      <trkpt lat="49.97923" lon="2.44364">
        <ele>52.4</ele>
        <time>2023-05-17T12:50:15Z</time>
      </trkpt>
      <trkpt lat="49.97923" lon="2.44366">
        <ele>52.3</ele>
        <time>2023-05-17T12:50:16Z</time>
      </trkpt>
      <trkpt lat="49.97924" lon="2.44368">
        <ele>52.3</ele>
        <time>2023-05-17T12:50:17Z</time>
      </trkpt>
      <trkpt lat="49.97924" lon="2.44369">
        <ele>52.2</ele>
        <time>2023-05-17T12:50:18Z</time>
      </trkpt>
      <trkpt lat="49.97925" lon="2.44371">
        <ele>52.2</ele>
        <time>2023-05-17T12:50:19Z</time>
      </trkpt>
      <trkpt lat="49.97925" lon="2.44373">
        <ele>52.1</ele>
        <time>2023-05-17T12:50:20Z</time>
      </trkpt>
      <trkpt lat="49.97925" lon="2.44376">
        <ele>52</ele>
        <time>2023-05-17T12:50:21Z</time>
      </trkpt>
      <trkpt lat="49.97925" lon="2.44377">
        <ele>51.9</ele>
        <time>2023-05-17T12:50:23Z</time>
      </trkpt>
      <trkpt lat="49.97926" lon="2.44379">
        <ele>51.9</ele>
        <time>2023-05-17T12:50:24Z</time>
      </trkpt>
      <trkpt lat="49.97925" lon="2.44382">
        <ele>51.8</ele>
        <time>2023-05-17T12:50:25Z</time>
      </trkpt>
      <trkpt lat="49.97925" lon="2.44384">
        <ele>51.7</ele>
        <time>2023-05-17T12:50:26Z</time>
      </trkpt>
      <trkpt lat="49.97925" lon="2.44385">
        <ele>51.7</ele>
        <time>2023-05-17T12:50:27Z</time>
      </trkpt>
      <trkpt lat="49.97925" lon="2.44388">
        <ele>51.6</ele>
        <time>2023-05-17T12:50:28Z</time>
      </trkpt>
      <trkpt lat="49.97924" lon="2.4439">
        <ele>51.5</ele>
        <time>2023-05-17T12:50:29Z</time>
      </trkpt>
      <trkpt lat="49.97924" lon="2.44391">
        <ele>51.5</ele>
        <time>2023-05-17T12:50:30Z</time>
      </trkpt>
      <trkpt lat="49.97923" lon="2.44392">
        <ele>51.4</ele>
        <time>2023-05-17T12:50:31Z</time>
      </trkpt>
      <trkpt lat="49.97923" lon="2.44396">
        <ele>51.3</ele>
        <time>2023-05-17T12:50:33Z</time>
      </trkpt>
      <trkpt lat="49.97922" lon="2.444">
        <ele>51.1</ele>
        <time>2023-05-17T12:50:34Z</time>
      </trkpt>
      <trkpt lat="49.97922" lon="2.44402">
        <ele>51.1</ele>
        <time>2023-05-17T12:50:36Z</time>
      </trkpt>
      <trkpt lat="49.97922" lon="2.44405">
        <ele>51</ele>
        <time>2023-05-17T12:50:37Z</time>
      </trkpt>
      <trkpt lat="49.97921" lon="2.44407">
        <ele>50.9</ele>
        <time>2023-05-17T12:50:38Z</time>
      </trkpt>
      <trkpt lat="49.97921" lon="2.44409">
        <ele>50.8</ele>
        <time>2023-05-17T12:50:39Z</time>
      </trkpt>
      <trkpt lat="49.9792" lon="2.44411">
        <ele>50.8</ele>
        <time>2023-05-17T12:50:40Z</time>
      </trkpt>
      <trkpt lat="49.9792" lon="2.44414">
        <ele>50.7</ele>
        <time>2023-05-17T12:50:42Z</time>
      </trkpt>
      <trkpt lat="49.97919" lon="2.44416">
        <ele>50.6</ele>
        <time>2023-05-17T12:50:43Z</time>
      </trkpt>
      <trkpt lat="49.97919" lon="2.44418">
        <ele>50.5</ele>
        <time>2023-05-17T12:50:44Z</time>
      </trkpt>
      <trkpt lat="49.97918" lon="2.44419">
        <ele>50.5</ele>
        <time>2023-05-17T12:50:45Z</time>
      </trkpt>
      <trkpt lat="49.97917" lon="2.44423">
        <ele>50.3</ele>
        <time>2023-05-17T12:50:46Z</time>
      </trkpt>
      <trkpt lat="49.97917" lon="2.44424">
        <ele>50.3</ele>
        <time>2023-05-17T12:50:47Z</time>
      </trkpt>
      <trkpt lat="49.97917" lon="2.44424">
        <ele>50.3</ele>
        <time>2023-05-17T12:50:48Z</time>
      </trkpt>
      <trkpt lat="49.97916" lon="2.44426">
        <ele>50.2</ele>
        <time>2023-05-17T12:50:49Z</time>
      </trkpt>
      <trkpt lat="49.97916" lon="2.44428">
        <ele>50.1</ele>
        <time>2023-05-17T12:50:50Z</time>
      </trkpt>
      <trkpt lat="49.97915" lon="2.44429">
        <ele>50.1</ele>
        <time>2023-05-17T12:50:51Z</time>
      </trkpt>
      <trkpt lat="49.97915" lon="2.44431">
        <ele>50</ele>
        <time>2023-05-17T12:50:53Z</time>
      </trkpt>
      <trkpt lat="49.97915" lon="2.44434">
        <ele>49.9</ele>
        <time>2023-05-17T12:50:54Z</time>
      </trkpt>
      <trkpt lat="49.97914" lon="2.44437">
        <ele>49.8</ele>
        <time>2023-05-17T12:50:55Z</time>
      </trkpt>
      <trkpt lat="49.97914" lon="2.44438">
        <ele>49.8</ele>
        <time>2023-05-17T12:50:56Z</time>
      </trkpt>
      <trkpt lat="49.97914" lon="2.44439">
        <ele>49.7</ele>
        <time>2023-05-17T12:50:57Z</time>
      </trkpt>
      <trkpt lat="49.97913" lon="2.44441">
        <ele>49.7</ele>
        <time>2023-05-17T12:50:58Z</time>
      </trkpt>
      <trkpt lat="49.97913" lon="2.44443">
        <ele>49.6</ele>
        <time>2023-05-17T12:51:00Z</time>
      </trkpt>
      <trkpt lat="49.97912" lon="2.44444">
        <ele>49.6</ele>
        <time>2023-05-17T12:51:01Z</time>
      </trkpt>
      <trkpt lat="49.97912" lon="2.44445">
        <ele>49.6</ele>
        <time>2023-05-17T12:51:02Z</time>
      </trkpt>
      <trkpt lat="49.97912" lon="2.44447">
        <ele>49.5</ele>
        <time>2023-05-17T12:51:03Z</time>
      </trkpt>
      <trkpt lat="49.97911" lon="2.44449">
        <ele>49.5</ele>
        <time>2023-05-17T12:51:05Z</time>
      </trkpt>
      <trkpt lat="49.97911" lon="2.4445">
        <ele>49.4</ele>
        <time>2023-05-17T12:51:06Z</time>
      </trkpt>
      <trkpt lat="49.97911" lon="2.44451">
        <ele>49.4</ele>
        <time>2023-05-17T12:51:08Z</time>
      </trkpt>
      <trkpt lat="49.9791" lon="2.44453">
        <ele>49.3</ele>
        <time>2023-05-17T12:51:09Z</time>
      </trkpt>
      <trkpt lat="49.9791" lon="2.44457">
        <ele>49.2</ele>
        <time>2023-05-17T12:51:10Z</time>
      </trkpt>
      <trkpt lat="49.9791" lon="2.44458">
        <ele>49.2</ele>
        <time>2023-05-17T12:51:11Z</time>
      </trkpt>
      <trkpt lat="49.9791" lon="2.44459">
        <ele>49.2</ele>
        <time>2023-05-17T12:51:12Z</time>
      </trkpt>
      <trkpt lat="49.97909" lon="2.44462">
        <ele>49.1</ele>
        <time>2023-05-17T12:51:14Z</time>
      </trkpt>
      <trkpt lat="49.97909" lon="2.44464">
        <ele>49</ele>
        <time>2023-05-17T12:51:15Z</time>
      </trkpt>
      <trkpt lat="49.9791" lon="2.44467">
        <ele>48.9</ele>
        <time>2023-05-17T12:51:16Z</time>
      </trkpt>
      <trkpt lat="49.9791" lon="2.44469">
        <ele>48.9</ele>
        <time>2023-05-17T12:51:18Z</time>
      </trkpt>
      <trkpt lat="49.9791" lon="2.4447">
        <ele>48.8</ele>
        <time>2023-05-17T12:51:19Z</time>
      </trkpt>
      <trkpt lat="49.97911" lon="2.44473">
        <ele>48.8</ele>
        <time>2023-05-17T12:51:20Z</time>
      </trkpt>
      <trkpt lat="49.97912" lon="2.44475">
        <ele>48.7</ele>
        <time>2023-05-17T12:51:22Z</time>
      </trkpt>
      <trkpt lat="49.97913" lon="2.44477">
        <ele>48.6</ele>
        <time>2023-05-17T12:51:23Z</time>
      </trkpt>
      <trkpt lat="49.97913" lon="2.44479">
        <ele>48.4</ele>
        <time>2023-05-17T12:51:24Z</time>
      </trkpt>
      <trkpt lat="49.97914" lon="2.44481">
        <ele>48.4</ele>
        <time>2023-05-17T12:51:25Z</time>
      </trkpt>
      <trkpt lat="49.97915" lon="2.44482">
        <ele>48.4</ele>
        <time>2023-05-17T12:51:26Z</time>
      </trkpt>
      <trkpt lat="49.97915" lon="2.44483">
        <ele>48.4</ele>
        <time>2023-05-17T12:51:27Z</time>
      </trkpt>
      <trkpt lat="49.97916" lon="2.44485">
        <ele>48.3</ele>
        <time>2023-05-17T12:51:28Z</time>
      </trkpt>
      <trkpt lat="49.97917" lon="2.44487">
        <ele>48.3</ele>
        <time>2023-05-17T12:51:29Z</time>
      </trkpt>
      <trkpt lat="49.97918" lon="2.44488">
        <ele>48.3</ele>
        <time>2023-05-17T12:51:31Z</time>
      </trkpt>
      <trkpt lat="49.9792" lon="2.44489">
        <ele>48.3</ele>
        <time>2023-05-17T12:51:32Z</time>
      </trkpt>
      <trkpt lat="49.9792" lon="2.4449">
        <ele>48.3</ele>
        <time>2023-05-17T12:51:33Z</time>
      </trkpt>
      <trkpt lat="49.97921" lon="2.4449">
        <ele>48.3</ele>
        <time>2023-05-17T12:51:34Z</time>
      </trkpt>
      <trkpt lat="49.97922" lon="2.44491">
        <ele>48.3</ele>
        <time>2023-05-17T12:51:35Z</time>
      </trkpt>
      <trkpt lat="49.97923" lon="2.44492">
        <ele>48.3</ele>
        <time>2023-05-17T12:51:36Z</time>
      </trkpt>
      <trkpt lat="49.97923" lon="2.44493">
        <ele>48.3</ele>
        <time>2023-05-17T12:51:37Z</time>
      </trkpt>
      <trkpt lat="49.97924" lon="2.44495">
        <ele>48.3</ele>
        <time>2023-05-17T12:51:39Z</time>
      </trkpt>
      <trkpt lat="49.97924" lon="2.44497">
        <ele>48.3</ele>
        <time>2023-05-17T12:51:40Z</time>
      </trkpt>
      <trkpt lat="49.97925" lon="2.44497">
        <ele>48.3</ele>
        <time>2023-05-17T12:51:42Z</time>
      </trkpt>
      <trkpt lat="49.97925" lon="2.44497">
        <ele>48.3</ele>
        <time>2023-05-17T12:51:43Z</time>
      </trkpt>
      <trkpt lat="49.97925" lon="2.44498">
        <ele>48.3</ele>
        <time>2023-05-17T12:51:45Z</time>
      </trkpt>
      <trkpt lat="49.97924" lon="2.44499">
        <ele>48.3</ele>
        <time>2023-05-17T12:51:46Z</time>
      </trkpt>
      <trkpt lat="49.97924" lon="2.44501">
        <ele>48.3</ele>
        <time>2023-05-17T12:51:48Z</time>
      </trkpt>
      <trkpt lat="49.97924" lon="2.44501">
        <ele>48.3</ele>
        <time>2023-05-17T12:51:49Z</time>
      </trkpt>
      <trkpt lat="49.97923" lon="2.44501">
        <ele>48.3</ele>
        <time>2023-05-17T12:51:50Z</time>
      </trkpt>
      <trkpt lat="49.97923" lon="2.44501">
        <ele>48.3</ele>
        <time>2023-05-17T12:51:51Z</time>
      </trkpt>
      <trkpt lat="49.97923" lon="2.44501">
        <ele>48.3</ele>
        <time>2023-05-17T12:51:53Z</time>
      </trkpt>
      <trkpt lat="49.97923" lon="2.445">
        <ele>48.3</ele>
        <time>2023-05-17T12:51:54Z</time>
      </trkpt>
      <trkpt lat="49.97923" lon="2.445">
        <ele>48.3</ele>
        <time>2023-05-17T12:51:56Z</time>
      </trkpt>
      <trkpt lat="49.97923" lon="2.445">
        <ele>48.3</ele>
        <time>2023-05-17T12:51:57Z</time>
      </trkpt>
      <trkpt lat="49.97923" lon="2.44499">
        <ele>48.3</ele>
        <time>2023-05-17T12:51:59Z</time>
      </trkpt>
      <trkpt lat="49.97922" lon="2.44499">
        <ele>48.3</ele>
        <time>2023-05-17T12:52:00Z</time>
      </trkpt>
      <trkpt lat="49.97922" lon="2.44499">
        <ele>48.3</ele>
        <time>2023-05-17T12:52:01Z</time>
      </trkpt>
      <trkpt lat="49.97922" lon="2.44499">
        <ele>48.3</ele>
        <time>2023-05-17T12:52:03Z</time>
      </trkpt>
      <trkpt lat="49.97922" lon="2.44499">
        <ele>48.3</ele>
        <time>2023-05-17T12:52:04Z</time>
      </trkpt>
      <trkpt lat="49.97922" lon="2.44498">
        <ele>48.3</ele>
        <time>2023-05-17T12:52:05Z</time>
      </trkpt>
      <trkpt lat="49.97922" lon="2.44497">
        <ele>48.3</ele>
        <time>2023-05-17T12:52:06Z</time>
      </trkpt>
      <trkpt lat="49.97922" lon="2.44497">
        <ele>48.3</ele>
        <time>2023-05-17T12:52:07Z</time>
      </trkpt>
      <trkpt lat="49.97921" lon="2.44499">
        <ele>48.3</ele>
        <time>2023-05-17T12:52:17Z</time>
      </trkpt>
      <trkpt lat="49.97921" lon="2.44499">
        <ele>48.3</ele>
        <time>2023-05-17T12:52:18Z</time>
      </trkpt>
      <trkpt lat="49.97921" lon="2.44499">
        <ele>48.3</ele>
        <time>2023-05-17T12:52:19Z</time>
      </trkpt>
      <trkpt lat="49.97922" lon="2.445">
        <ele>48.3</ele>
        <time>2023-05-17T12:52:21Z</time>
      </trkpt>
      <trkpt lat="49.97923" lon="2.445">
        <ele>48.3</ele>
        <time>2023-05-17T12:52:22Z</time>
      </trkpt>
      <trkpt lat="49.97924" lon="2.44501">
        <ele>48.3</ele>
        <time>2023-05-17T12:52:23Z</time>
      </trkpt>
      <trkpt lat="49.97926" lon="2.44502">
        <ele>48.3</ele>
        <time>2023-05-17T12:52:24Z</time>
      </trkpt>
      <trkpt lat="49.97927" lon="2.44502">
        <ele>48.4</ele>
        <time>2023-05-17T12:52:25Z</time>
      </trkpt>
      <trkpt lat="49.97929" lon="2.44503">
        <ele>48.4</ele>
        <time>2023-05-17T12:52:26Z</time>
      </trkpt>
      <trkpt lat="49.9793" lon="2.44505">
        <ele>48.4</ele>
        <time>2023-05-17T12:52:27Z</time>
      </trkpt>
      <trkpt lat="49.97932" lon="2.44506">
        <ele>48.4</ele>
        <time>2023-05-17T12:52:29Z</time>
      </trkpt>
      <trkpt lat="49.97933" lon="2.44507">
        <ele>48.4</ele>
        <time>2023-05-17T12:52:30Z</time>
      </trkpt>
      <trkpt lat="49.97933" lon="2.44507">
        <ele>48.4</ele>
        <time>2023-05-17T12:52:31Z</time>
      </trkpt>
      <trkpt lat="49.97934" lon="2.44508">
        <ele>48.4</ele>
        <time>2023-05-17T12:52:32Z</time>
      </trkpt>
      <trkpt lat="49.97935" lon="2.44508">
        <ele>48.4</ele>
        <time>2023-05-17T12:52:33Z</time>
      </trkpt>
      <trkpt lat="49.97936" lon="2.44509">
        <ele>48.4</ele>
        <time>2023-05-17T12:52:34Z</time>
      </trkpt>
      <trkpt lat="49.97938" lon="2.44511">
        <ele>48.4</ele>
        <time>2023-05-17T12:52:36Z</time>
      </trkpt>
      <trkpt lat="49.97939" lon="2.44511">
        <ele>48.4</ele>
        <time>2023-05-17T12:52:37Z</time>
      </trkpt>
      <trkpt lat="49.9794" lon="2.44512">
        <ele>48.4</ele>
        <time>2023-05-17T12:52:38Z</time>
      </trkpt>
      <trkpt lat="49.9794" lon="2.44513">
        <ele>48.4</ele>
        <time>2023-05-17T12:52:39Z</time>
      </trkpt>
      <trkpt lat="49.97941" lon="2.44514">
        <ele>48.4</ele>
        <time>2023-05-17T12:52:40Z</time>
      </trkpt>
      <trkpt lat="49.97942" lon="2.44514">
        <ele>48.4</ele>
        <time>2023-05-17T12:52:41Z</time>
      </trkpt>
      <trkpt lat="49.97943" lon="2.44515">
        <ele>48.5</ele>
        <time>2023-05-17T12:52:42Z</time>
      </trkpt>
      <trkpt lat="49.97943" lon="2.44516">
        <ele>48.5</ele>
        <time>2023-05-17T12:52:43Z</time>
      </trkpt>
      <trkpt lat="49.97944" lon="2.44517">
        <ele>48.5</ele>
        <time>2023-05-17T12:52:45Z</time>
      </trkpt>
      <trkpt lat="49.97945" lon="2.44519">
        <ele>48.5</ele>
        <time>2023-05-17T12:52:46Z</time>
      </trkpt>
      <trkpt lat="49.97946" lon="2.44519">
        <ele>48.5</ele>
        <time>2023-05-17T12:52:47Z</time>
      </trkpt>
      <trkpt lat="49.97946" lon="2.4452">
        <ele>48.6</ele>
        <time>2023-05-17T12:52:48Z</time>
      </trkpt>
      <trkpt lat="49.97948" lon="2.44522">
        <ele>48.6</ele>
        <time>2023-05-17T12:52:49Z</time>
      </trkpt>
      <trkpt lat="49.97948" lon="2.44523">
        <ele>48.6</ele>
        <time>2023-05-17T12:52:50Z</time>
      </trkpt>
      <trkpt lat="49.97949" lon="2.44524">
        <ele>48.6</ele>
        <time>2023-05-17T12:52:51Z</time>
      </trkpt>
      <trkpt lat="49.9795" lon="2.44525">
        <ele>48.7</ele>
        <time>2023-05-17T12:52:52Z</time>
      </trkpt>
      <trkpt lat="49.97951" lon="2.44527">
        <ele>48.7</ele>
        <time>2023-05-17T12:52:54Z</time>
      </trkpt>
      <trkpt lat="49.97953" lon="2.44528">
        <ele>48.7</ele>
        <time>2023-05-17T12:52:55Z</time>
      </trkpt>
      <trkpt lat="49.97954" lon="2.44529">
        <ele>48.7</ele>
        <time>2023-05-17T12:52:56Z</time>
      </trkpt>
      <trkpt lat="49.97955" lon="2.44531">
        <ele>48.8</ele>
        <time>2023-05-17T12:52:57Z</time>
      </trkpt>
      <trkpt lat="49.97956" lon="2.44532">
        <ele>48.8</ele>
        <time>2023-05-17T12:52:58Z</time>
      </trkpt>
      <trkpt lat="49.97957" lon="2.44533">
        <ele>48.8</ele>
        <time>2023-05-17T12:52:59Z</time>
      </trkpt>
      <trkpt lat="49.97959" lon="2.44534">
        <ele>48.8</ele>
        <time>2023-05-17T12:53:00Z</time>
      </trkpt>
      <trkpt lat="49.9796" lon="2.44536">
        <ele>48.9</ele>
        <time>2023-05-17T12:53:02Z</time>
      </trkpt>
      <trkpt lat="49.97961" lon="2.44538">
        <ele>48.9</ele>
        <time>2023-05-17T12:53:03Z</time>
      </trkpt>
      <trkpt lat="49.97963" lon="2.4454">
        <ele>48.9</ele>
        <time>2023-05-17T12:53:05Z</time>
      </trkpt>
      <trkpt lat="49.97964" lon="2.44541">
        <ele>48.9</ele>
        <time>2023-05-17T12:53:06Z</time>
      </trkpt>
      <trkpt lat="49.97965" lon="2.44542">
        <ele>49</ele>
        <time>2023-05-17T12:53:07Z</time>
      </trkpt>
      <trkpt lat="49.97966" lon="2.44543">
        <ele>49</ele>
        <time>2023-05-17T12:53:08Z</time>
      </trkpt>
      <trkpt lat="49.97968" lon="2.44544">
        <ele>49</ele>
        <time>2023-05-17T12:53:09Z</time>
      </trkpt>
      <trkpt lat="49.97969" lon="2.44545">
        <ele>49</ele>
        <time>2023-05-17T12:53:11Z</time>
      </trkpt>
      <trkpt lat="49.9797" lon="2.44546">
        <ele>49.1</ele>
        <time>2023-05-17T12:53:12Z</time>
      </trkpt>
      <trkpt lat="49.97972" lon="2.44547">
        <ele>49.1</ele>
        <time>2023-05-17T12:53:13Z</time>
      </trkpt>
      <trkpt lat="49.97973" lon="2.44548">
        <ele>49.1</ele>
        <time>2023-05-17T12:53:15Z</time>
      </trkpt>
      <trkpt lat="49.97975" lon="2.4455">
        <ele>49.1</ele>
        <time>2023-05-17T12:53:16Z</time>
      </trkpt>
      <trkpt lat="49.97976" lon="2.44551">
        <ele>49.2</ele>
        <time>2023-05-17T12:53:18Z</time>
      </trkpt>
      <trkpt lat="49.97977" lon="2.44553">
        <ele>49.2</ele>
        <time>2023-05-17T12:53:19Z</time>
      </trkpt>
      <trkpt lat="49.97978" lon="2.44554">
        <ele>49.2</ele>
        <time>2023-05-17T12:53:20Z</time>
      </trkpt>
      <trkpt lat="49.97979" lon="2.44555">
        <ele>49.2</ele>
        <time>2023-05-17T12:53:21Z</time>
      </trkpt>
      <trkpt lat="49.9798" lon="2.44556">
        <ele>49.3</ele>
        <time>2023-05-17T12:53:22Z</time>
      </trkpt>
      <trkpt lat="49.97981" lon="2.44557">
        <ele>49.3</ele>
        <time>2023-05-17T12:53:23Z</time>
      </trkpt>
      <trkpt lat="49.97982" lon="2.44557">
        <ele>49.3</ele>
        <time>2023-05-17T12:53:24Z</time>
      </trkpt>
      <trkpt lat="49.97984" lon="2.44557">
        <ele>49.3</ele>
        <time>2023-05-17T12:53:25Z</time>
      </trkpt>
      <trkpt lat="49.97985" lon="2.44557">
        <ele>49.4</ele>
        <time>2023-05-17T12:53:27Z</time>
      </trkpt>
      <trkpt lat="49.97987" lon="2.44557">
        <ele>49.4</ele>
        <time>2023-05-17T12:53:28Z</time>
      </trkpt>
      <trkpt lat="49.97988" lon="2.44556">
        <ele>49.4</ele>
        <time>2023-05-17T12:53:29Z</time>
      </trkpt>
      <trkpt lat="49.9799" lon="2.44555">
        <ele>49.4</ele>
        <time>2023-05-17T12:53:30Z</time>
      </trkpt>
      <trkpt lat="49.97991" lon="2.44553">
        <ele>49.5</ele>
        <time>2023-05-17T12:53:31Z</time>
      </trkpt>
      <trkpt lat="49.97992" lon="2.44552">
        <ele>49.5</ele>
        <time>2023-05-17T12:53:32Z</time>
      </trkpt>
      <trkpt lat="49.97993" lon="2.44551">
        <ele>49.5</ele>
        <time>2023-05-17T12:53:33Z</time>
      </trkpt>
      <trkpt lat="49.97995" lon="2.44549">
        <ele>49.6</ele>
        <time>2023-05-17T12:53:35Z</time>
      </trkpt>
      <trkpt lat="49.97996" lon="2.44548">
        <ele>49.6</ele>
        <time>2023-05-17T12:53:36Z</time>
      </trkpt>
      <trkpt lat="49.97998" lon="2.44546">
        <ele>49.7</ele>
        <time>2023-05-17T12:53:38Z</time>
      </trkpt>
      <trkpt lat="49.97998" lon="2.44544">
        <ele>49.7</ele>
        <time>2023-05-17T12:53:39Z</time>
      </trkpt>
      <trkpt lat="49.97999" lon="2.44543">
        <ele>49.7</ele>
        <time>2023-05-17T12:53:40Z</time>
      </trkpt>
      <trkpt lat="49.98" lon="2.44541">
        <ele>49.8</ele>
        <time>2023-05-17T12:53:41Z</time>
      </trkpt>
      <trkpt lat="49.98" lon="2.4454">
        <ele>49.8</ele>
        <time>2023-05-17T12:53:42Z</time>
      </trkpt>
      <trkpt lat="49.98001" lon="2.44538">
        <ele>49.8</ele>
        <time>2023-05-17T12:53:43Z</time>
      </trkpt>
      <trkpt lat="49.98001" lon="2.44536">
        <ele>49.9</ele>
        <time>2023-05-17T12:53:45Z</time>
      </trkpt>
      <trkpt lat="49.98002" lon="2.44535">
        <ele>49.9</ele>
        <time>2023-05-17T12:53:46Z</time>
      </trkpt>
      <trkpt lat="49.98002" lon="2.44533">
        <ele>49.9</ele>
        <time>2023-05-17T12:53:47Z</time>
      </trkpt>
      <trkpt lat="49.98003" lon="2.44532">
        <ele>50</ele>
        <time>2023-05-17T12:53:48Z</time>
      </trkpt>
      <trkpt lat="49.98004" lon="2.4453">
        <ele>50</ele>
        <time>2023-05-17T12:53:49Z</time>
      </trkpt>
      <trkpt lat="49.98004" lon="2.44529">
        <ele>50.1</ele>
        <time>2023-05-17T12:53:50Z</time>
      </trkpt>
      <trkpt lat="49.98005" lon="2.44527">
        <ele>50.1</ele>
        <time>2023-05-17T12:53:51Z</time>
      </trkpt>
      <trkpt lat="49.98005" lon="2.44526">
        <ele>50.1</ele>
        <time>2023-05-17T12:53:52Z</time>
      </trkpt>
      <trkpt lat="49.98006" lon="2.44524">
        <ele>50.2</ele>
        <time>2023-05-17T12:53:54Z</time>
      </trkpt>
      <trkpt lat="49.98007" lon="2.44523">
        <ele>50.2</ele>
        <time>2023-05-17T12:53:55Z</time>
      </trkpt>
      <trkpt lat="49.98007" lon="2.44521">
        <ele>50.2</ele>
        <time>2023-05-17T12:53:56Z</time>
      </trkpt>
      <trkpt lat="49.98007" lon="2.4452">
        <ele>50.3</ele>
        <time>2023-05-17T12:53:57Z</time>
      </trkpt>
      <trkpt lat="49.98008" lon="2.44519">
        <ele>50.3</ele>
        <time>2023-05-17T12:53:58Z</time>
      </trkpt>
      <trkpt lat="49.98008" lon="2.44517">
        <ele>50.3</ele>
        <time>2023-05-17T12:53:59Z</time>
      </trkpt>
      <trkpt lat="49.98009" lon="2.44516">
        <ele>50.4</ele>
        <time>2023-05-17T12:54:00Z</time>
      </trkpt>
      <trkpt lat="49.98009" lon="2.44513">
        <ele>50.5</ele>
        <time>2023-05-17T12:54:02Z</time>
      </trkpt>
      <trkpt lat="49.9801" lon="2.44511">
        <ele>50.5</ele>
        <time>2023-05-17T12:54:03Z</time>
      </trkpt>
      <trkpt lat="49.9801" lon="2.4451">
        <ele>50.5</ele>
        <time>2023-05-17T12:54:04Z</time>
      </trkpt>
      <trkpt lat="49.9801" lon="2.44508">
        <ele>50.6</ele>
        <time>2023-05-17T12:54:05Z</time>
      </trkpt>
      <trkpt lat="49.98011" lon="2.44507">
        <ele>50.6</ele>
        <time>2023-05-17T12:54:06Z</time>
      </trkpt>
      <trkpt lat="49.98011" lon="2.44505">
        <ele>50.6</ele>
        <time>2023-05-17T12:54:07Z</time>
      </trkpt>
      <trkpt lat="49.98012" lon="2.44502">
        <ele>50.7</ele>
        <time>2023-05-17T12:54:09Z</time>
      </trkpt>
      <trkpt lat="49.98013" lon="2.44501">
        <ele>50.7</ele>
        <time>2023-05-17T12:54:10Z</time>
      </trkpt>
      <trkpt lat="49.98013" lon="2.445">
        <ele>50.8</ele>
        <time>2023-05-17T12:54:11Z</time>
      </trkpt>
      <trkpt lat="49.98014" lon="2.44497">
        <ele>50.8</ele>
        <time>2023-05-17T12:54:12Z</time>
      </trkpt>
      <trkpt lat="49.98015" lon="2.44496">
        <ele>50.9</ele>
        <time>2023-05-17T12:54:13Z</time>
      </trkpt>
      <trkpt lat="49.98015" lon="2.44495">
        <ele>50.9</ele>
        <time>2023-05-17T12:54:14Z</time>
      </trkpt>
      <trkpt lat="49.98016" lon="2.44492">
        <ele>51</ele>
        <time>2023-05-17T12:54:15Z</time>
      </trkpt>
      <trkpt lat="49.98017" lon="2.44491">
        <ele>51</ele>
        <time>2023-05-17T12:54:17Z</time>
      </trkpt>
      <trkpt lat="49.98017" lon="2.4449">
        <ele>51.1</ele>
        <time>2023-05-17T12:54:18Z</time>
      </trkpt>
      <trkpt lat="49.98018" lon="2.44488">
        <ele>51.1</ele>
        <time>2023-05-17T12:54:19Z</time>
      </trkpt>
      <trkpt lat="49.98019" lon="2.44487">
        <ele>51.2</ele>
        <time>2023-05-17T12:54:20Z</time>
      </trkpt>
      <trkpt lat="49.9802" lon="2.44485">
        <ele>51.2</ele>
        <time>2023-05-17T12:54:21Z</time>
      </trkpt>
      <trkpt lat="49.98021" lon="2.44484">
        <ele>51.3</ele>
        <time>2023-05-17T12:54:22Z</time>
      </trkpt>
      <trkpt lat="49.98021" lon="2.44482">
        <ele>51.3</ele>
        <time>2023-05-17T12:54:24Z</time>
      </trkpt>
      <trkpt lat="49.98023" lon="2.44479">
        <ele>51.4</ele>
        <time>2023-05-17T12:54:25Z</time>
      </trkpt>
      <trkpt lat="49.98023" lon="2.44478">
        <ele>51.5</ele>
        <time>2023-05-17T12:54:26Z</time>
      </trkpt>
      <trkpt lat="49.98023" lon="2.44477">
        <ele>51.5</ele>
        <time>2023-05-17T12:54:27Z</time>
      </trkpt>
      <trkpt lat="49.98024" lon="2.44475">
        <ele>51.5</ele>
        <time>2023-05-17T12:54:28Z</time>
      </trkpt>
      <trkpt lat="49.98025" lon="2.44474">
        <ele>51.6</ele>
        <time>2023-05-17T12:54:29Z</time>
      </trkpt>
      <trkpt lat="49.98025" lon="2.44472">
        <ele>51.7</ele>
        <time>2023-05-17T12:54:31Z</time>
      </trkpt>
      <trkpt lat="49.98026" lon="2.4447">
        <ele>51.7</ele>
        <time>2023-05-17T12:54:32Z</time>
      </trkpt>
      <trkpt lat="49.98027" lon="2.44469">
        <ele>51.8</ele>
        <time>2023-05-17T12:54:33Z</time>
      </trkpt>
      <trkpt lat="49.98027" lon="2.44467">
        <ele>51.8</ele>
        <time>2023-05-17T12:54:34Z</time>
      </trkpt>
      <trkpt lat="49.98028" lon="2.44465">
        <ele>51.9</ele>
        <time>2023-05-17T12:54:35Z</time>
      </trkpt>
      <trkpt lat="49.98029" lon="2.44463">
        <ele>52</ele>
        <time>2023-05-17T12:54:36Z</time>
      </trkpt>
      <trkpt lat="49.98029" lon="2.44462">
        <ele>52</ele>
        <time>2023-05-17T12:54:38Z</time>
      </trkpt>
      <trkpt lat="49.9803" lon="2.44461">
        <ele>52.1</ele>
        <time>2023-05-17T12:54:39Z</time>
      </trkpt>
      <trkpt lat="49.98031" lon="2.4446">
        <ele>52.1</ele>
        <time>2023-05-17T12:54:40Z</time>
      </trkpt>
      <trkpt lat="49.98031" lon="2.44458">
        <ele>52.2</ele>
        <time>2023-05-17T12:54:41Z</time>
      </trkpt>
      <trkpt lat="49.98032" lon="2.44457">
        <ele>52.2</ele>
        <time>2023-05-17T12:54:42Z</time>
      </trkpt>
      <trkpt lat="49.98032" lon="2.44455">
        <ele>52.3</ele>
        <time>2023-05-17T12:54:44Z</time>
      </trkpt>
      <trkpt lat="49.98033" lon="2.44454">
        <ele>52.4</ele>
        <time>2023-05-17T12:54:45Z</time>
      </trkpt>
      <trkpt lat="49.98033" lon="2.44452">
        <ele>52.4</ele>
        <time>2023-05-17T12:54:46Z</time>
      </trkpt>
      <trkpt lat="49.98034" lon="2.4445">
        <ele>52.5</ele>
        <time>2023-05-17T12:54:47Z</time>
      </trkpt>
      <trkpt lat="49.98034" lon="2.44449">
        <ele>52.6</ele>
        <time>2023-05-17T12:54:48Z</time>
      </trkpt>
      <trkpt lat="49.98034" lon="2.44447">
        <ele>52.7</ele>
        <time>2023-05-17T12:54:50Z</time>
      </trkpt>
      <trkpt lat="49.98035" lon="2.44445">
        <ele>52.7</ele>
        <time>2023-05-17T12:54:51Z</time>
      </trkpt>
      <trkpt lat="49.98035" lon="2.44443">
        <ele>52.8</ele>
        <time>2023-05-17T12:54:52Z</time>
      </trkpt>
      <trkpt lat="49.98035" lon="2.44441">
        <ele>52.9</ele>
        <time>2023-05-17T12:54:53Z</time>
      </trkpt>
      <trkpt lat="49.98035" lon="2.4444">
        <ele>53</ele>
        <time>2023-05-17T12:54:55Z</time>
      </trkpt>
      <trkpt lat="49.98036" lon="2.44438">
        <ele>53</ele>
        <time>2023-05-17T12:54:56Z</time>
      </trkpt>
      <trkpt lat="49.98036" lon="2.44436">
        <ele>53.1</ele>
        <time>2023-05-17T12:54:57Z</time>
      </trkpt>
      <trkpt lat="49.98037" lon="2.44435">
        <ele>53.2</ele>
        <time>2023-05-17T12:54:58Z</time>
      </trkpt>
      <trkpt lat="49.98037" lon="2.44433">
        <ele>53.2</ele>
        <time>2023-05-17T12:55:00Z</time>
      </trkpt>
      <trkpt lat="49.98038" lon="2.44432">
        <ele>53.3</ele>
        <time>2023-05-17T12:55:01Z</time>
      </trkpt>
      <trkpt lat="49.98038" lon="2.4443">
        <ele>53.4</ele>
        <time>2023-05-17T12:55:02Z</time>
      </trkpt>
      <trkpt lat="49.98039" lon="2.44429">
        <ele>53.5</ele>
        <time>2023-05-17T12:55:03Z</time>
      </trkpt>
      <trkpt lat="49.98039" lon="2.44427">
        <ele>53.5</ele>
        <time>2023-05-17T12:55:04Z</time>
      </trkpt>
      <trkpt lat="49.9804" lon="2.44426">
        <ele>53.6</ele>
        <time>2023-05-17T12:55:05Z</time>
      </trkpt>
      <trkpt lat="49.98041" lon="2.44423">
        <ele>53.7</ele>
        <time>2023-05-17T12:55:07Z</time>
      </trkpt>
      <trkpt lat="49.98041" lon="2.44422">
        <ele>53.8</ele>
        <time>2023-05-17T12:55:08Z</time>
      </trkpt>
      <trkpt lat="49.98042" lon="2.44421">
        <ele>53.8</ele>
        <time>2023-05-17T12:55:09Z</time>
      </trkpt>
      <trkpt lat="49.98042" lon="2.4442">
        <ele>53.9</ele>
        <time>2023-05-17T12:55:10Z</time>
      </trkpt>
      <trkpt lat="49.98043" lon="2.44418">
        <ele>54</ele>
        <time>2023-05-17T12:55:11Z</time>
      </trkpt>
      <trkpt lat="49.98044" lon="2.44416">
        <ele>54.1</ele>
        <time>2023-05-17T12:55:12Z</time>
      </trkpt>
      <trkpt lat="49.98045" lon="2.44414">
        <ele>54.2</ele>
        <time>2023-05-17T12:55:13Z</time>
      </trkpt>
      <trkpt lat="49.98045" lon="2.44413">
        <ele>54.3</ele>
        <time>2023-05-17T12:55:15Z</time>
      </trkpt>
      <trkpt lat="49.98046" lon="2.44412">
        <ele>54.3</ele>
        <time>2023-05-17T12:55:16Z</time>
      </trkpt>
      <trkpt lat="49.98047" lon="2.4441">
        <ele>54.4</ele>
        <time>2023-05-17T12:55:17Z</time>
      </trkpt>
      <trkpt lat="49.98047" lon="2.44409">
        <ele>54.5</ele>
        <time>2023-05-17T12:55:18Z</time>
      </trkpt>
      <trkpt lat="49.98049" lon="2.44408">
        <ele>54.5</ele>
        <time>2023-05-17T12:55:20Z</time>
      </trkpt>
      <trkpt lat="49.9805" lon="2.44406">
        <ele>54.7</ele>
        <time>2023-05-17T12:55:21Z</time>
      </trkpt>
      <trkpt lat="49.98051" lon="2.44405">
        <ele>54.7</ele>
        <time>2023-05-17T12:55:22Z</time>
      </trkpt>
      <trkpt lat="49.98052" lon="2.44404">
        <ele>54.8</ele>
        <time>2023-05-17T12:55:23Z</time>
      </trkpt>
      <trkpt lat="49.98052" lon="2.44403">
        <ele>54.9</ele>
        <time>2023-05-17T12:55:24Z</time>
      </trkpt>
      <trkpt lat="49.98053" lon="2.44402">
        <ele>54.9</ele>
        <time>2023-05-17T12:55:25Z</time>
      </trkpt>
      <trkpt lat="49.98054" lon="2.444">
        <ele>55</ele>
        <time>2023-05-17T12:55:27Z</time>
      </trkpt>
      <trkpt lat="49.98055" lon="2.44399">
        <ele>55.1</ele>
        <time>2023-05-17T12:55:28Z</time>
      </trkpt>
      <trkpt lat="49.98055" lon="2.44398">
        <ele>55.1</ele>
        <time>2023-05-17T12:55:29Z</time>
      </trkpt>
      <trkpt lat="49.98056" lon="2.44397">
        <ele>55.2</ele>
        <time>2023-05-17T12:55:30Z</time>
      </trkpt>
      <trkpt lat="49.98058" lon="2.44394">
        <ele>55.3</ele>
        <time>2023-05-17T12:55:31Z</time>
      </trkpt>
      <trkpt lat="49.98058" lon="2.44393">
        <ele>55.4</ele>
        <time>2023-05-17T12:55:33Z</time>
      </trkpt>
      <trkpt lat="49.98059" lon="2.44392">
        <ele>55.5</ele>
        <time>2023-05-17T12:55:34Z</time>
      </trkpt>
      <trkpt lat="49.9806" lon="2.44391">
        <ele>55.5</ele>
        <time>2023-05-17T12:55:35Z</time>
      </trkpt>
      <trkpt lat="49.9806" lon="2.4439">
        <ele>55.6</ele>
        <time>2023-05-17T12:55:36Z</time>
      </trkpt>
      <trkpt lat="49.98061" lon="2.44389">
        <ele>55.7</ele>
        <time>2023-05-17T12:55:37Z</time>
      </trkpt>
      <trkpt lat="49.98063" lon="2.44387">
        <ele>55.8</ele>
        <time>2023-05-17T12:55:38Z</time>
      </trkpt>
      <trkpt lat="49.98064" lon="2.44386">
        <ele>55.9</ele>
        <time>2023-05-17T12:55:40Z</time>
      </trkpt>
      <trkpt lat="49.98064" lon="2.44385">
        <ele>55.9</ele>
        <time>2023-05-17T12:55:41Z</time>
      </trkpt>
      <trkpt lat="49.98065" lon="2.44384">
        <ele>56</ele>
        <time>2023-05-17T12:55:42Z</time>
      </trkpt>
      <trkpt lat="49.98066" lon="2.44383">
        <ele>56.1</ele>
        <time>2023-05-17T12:55:43Z</time>
      </trkpt>
      <trkpt lat="49.98067" lon="2.44382">
        <ele>56.1</ele>
        <time>2023-05-17T12:55:44Z</time>
      </trkpt>
      <trkpt lat="49.98069" lon="2.4438">
        <ele>56.3</ele>
        <time>2023-05-17T12:55:46Z</time>
      </trkpt>
      <trkpt lat="49.98069" lon="2.44379">
        <ele>56.3</ele>
        <time>2023-05-17T12:55:47Z</time>
      </trkpt>
      <trkpt lat="49.9807" lon="2.44378">
        <ele>56.4</ele>
        <time>2023-05-17T12:55:48Z</time>
      </trkpt>
      <trkpt lat="49.98071" lon="2.44377">
        <ele>56.4</ele>
        <time>2023-05-17T12:55:49Z</time>
      </trkpt>
      <trkpt lat="49.98071" lon="2.44376">
        <ele>56.5</ele>
        <time>2023-05-17T12:55:50Z</time>
      </trkpt>
      <trkpt lat="49.98072" lon="2.44375">
        <ele>56.6</ele>
        <time>2023-05-17T12:55:51Z</time>
      </trkpt>
      <trkpt lat="49.98073" lon="2.44373">
        <ele>56.7</ele>
        <time>2023-05-17T12:55:53Z</time>
      </trkpt>
      <trkpt lat="49.98074" lon="2.44372">
        <ele>56.7</ele>
        <time>2023-05-17T12:55:54Z</time>
      </trkpt>
      <trkpt lat="49.98075" lon="2.4437">
        <ele>56.8</ele>
        <time>2023-05-17T12:55:55Z</time>
      </trkpt>
      <trkpt lat="49.98076" lon="2.44369">
        <ele>56.9</ele>
        <time>2023-05-17T12:55:56Z</time>
      </trkpt>
      <trkpt lat="49.98077" lon="2.44368">
        <ele>57</ele>
        <time>2023-05-17T12:55:57Z</time>
      </trkpt>
      <trkpt lat="49.98078" lon="2.44366">
        <ele>57.1</ele>
        <time>2023-05-17T12:55:59Z</time>
      </trkpt>
      <trkpt lat="49.98079" lon="2.44365">
        <ele>57.2</ele>
        <time>2023-05-17T12:56:00Z</time>
      </trkpt>
      <trkpt lat="49.98081" lon="2.44362">
        <ele>57.3</ele>
        <time>2023-05-17T12:56:02Z</time>
      </trkpt>
      <trkpt lat="49.98081" lon="2.44361">
        <ele>57.4</ele>
        <time>2023-05-17T12:56:03Z</time>
      </trkpt>
      <trkpt lat="49.98082" lon="2.4436">
        <ele>57.4</ele>
        <time>2023-05-17T12:56:04Z</time>
      </trkpt>
      <trkpt lat="49.98083" lon="2.44358">
        <ele>57.5</ele>
        <time>2023-05-17T12:56:05Z</time>
      </trkpt>
      <trkpt lat="49.98084" lon="2.44357">
        <ele>57.6</ele>
        <time>2023-05-17T12:56:06Z</time>
      </trkpt>
      <trkpt lat="49.98084" lon="2.44355">
        <ele>57.7</ele>
        <time>2023-05-17T12:56:08Z</time>
      </trkpt>
      <trkpt lat="49.98085" lon="2.44353">
        <ele>57.8</ele>
        <time>2023-05-17T12:56:09Z</time>
      </trkpt>
      <trkpt lat="49.98086" lon="2.44351">
        <ele>57.9</ele>
        <time>2023-05-17T12:56:10Z</time>
      </trkpt>
      <trkpt lat="49.98087" lon="2.4435">
        <ele>58</ele>
        <time>2023-05-17T12:56:11Z</time>
      </trkpt>
      <trkpt lat="49.98087" lon="2.44348">
        <ele>58.1</ele>
        <time>2023-05-17T12:56:12Z</time>
      </trkpt>
      <trkpt lat="49.98088" lon="2.44347">
        <ele>58.1</ele>
        <time>2023-05-17T12:56:14Z</time>
      </trkpt>
      <trkpt lat="49.98089" lon="2.44345">
        <ele>58.2</ele>
        <time>2023-05-17T12:56:15Z</time>
      </trkpt>
      <trkpt lat="49.98089" lon="2.44344">
        <ele>58.3</ele>
        <time>2023-05-17T12:56:16Z</time>
      </trkpt>
      <trkpt lat="49.9809" lon="2.44342">
        <ele>58.4</ele>
        <time>2023-05-17T12:56:17Z</time>
      </trkpt>
      <trkpt lat="49.9809" lon="2.44342">
        <ele>58.4</ele>
        <time>2023-05-17T12:56:18Z</time>
      </trkpt>
      <trkpt lat="49.9809" lon="2.4434">
        <ele>58.5</ele>
        <time>2023-05-17T12:56:19Z</time>
      </trkpt>
      <trkpt lat="49.98091" lon="2.44338">
        <ele>58.6</ele>
        <time>2023-05-17T12:56:20Z</time>
      </trkpt>
      <trkpt lat="49.98092" lon="2.44336">
        <ele>58.7</ele>
        <time>2023-05-17T12:56:21Z</time>
      </trkpt>
      <trkpt lat="49.98092" lon="2.44335">
        <ele>58.8</ele>
        <time>2023-05-17T12:56:23Z</time>
      </trkpt>
      <trkpt lat="49.98093" lon="2.44333">
        <ele>58.8</ele>
        <time>2023-05-17T12:56:24Z</time>
      </trkpt>
      <trkpt lat="49.98093" lon="2.44332">
        <ele>58.9</ele>
        <time>2023-05-17T12:56:25Z</time>
      </trkpt>
      <trkpt lat="49.98094" lon="2.4433">
        <ele>59</ele>
        <time>2023-05-17T12:56:26Z</time>
      </trkpt>
      <trkpt lat="49.98095" lon="2.44329">
        <ele>59.1</ele>
        <time>2023-05-17T12:56:28Z</time>
      </trkpt>
      <trkpt lat="49.98096" lon="2.44327">
        <ele>59.2</ele>
        <time>2023-05-17T12:56:29Z</time>
      </trkpt>
      <trkpt lat="49.98096" lon="2.44326">
        <ele>59.3</ele>
        <time>2023-05-17T12:56:30Z</time>
      </trkpt>
      <trkpt lat="49.98097" lon="2.44324">
        <ele>59.4</ele>
        <time>2023-05-17T12:56:31Z</time>
      </trkpt>
      <trkpt lat="49.98097" lon="2.44323">
        <ele>59.4</ele>
        <time>2023-05-17T12:56:32Z</time>
      </trkpt>
      <trkpt lat="49.98098" lon="2.44321">
        <ele>59.5</ele>
        <time>2023-05-17T12:56:34Z</time>
      </trkpt>
      <trkpt lat="49.98099" lon="2.44319">
        <ele>59.6</ele>
        <time>2023-05-17T12:56:35Z</time>
      </trkpt>
      <trkpt lat="49.98099" lon="2.44318">
        <ele>59.7</ele>
        <time>2023-05-17T12:56:36Z</time>
      </trkpt>
      <trkpt lat="49.98099" lon="2.44317">
        <ele>59.8</ele>
        <time>2023-05-17T12:56:37Z</time>
      </trkpt>
      <trkpt lat="49.981" lon="2.44315">
        <ele>59.9</ele>
        <time>2023-05-17T12:56:38Z</time>
      </trkpt>
      <trkpt lat="49.981" lon="2.44314">
        <ele>59.9</ele>
        <time>2023-05-17T12:56:39Z</time>
      </trkpt>
      <trkpt lat="49.981" lon="2.44312">
        <ele>60</ele>
        <time>2023-05-17T12:56:41Z</time>
      </trkpt>
      <trkpt lat="49.98101" lon="2.4431">
        <ele>60.1</ele>
        <time>2023-05-17T12:56:42Z</time>
      </trkpt>
      <trkpt lat="49.98101" lon="2.44309">
        <ele>60.2</ele>
        <time>2023-05-17T12:56:43Z</time>
      </trkpt>
      <trkpt lat="49.98101" lon="2.44307">
        <ele>60.3</ele>
        <time>2023-05-17T12:56:44Z</time>
      </trkpt>
      <trkpt lat="49.98102" lon="2.44306">
        <ele>60.3</ele>
        <time>2023-05-17T12:56:45Z</time>
      </trkpt>
      <trkpt lat="49.98102" lon="2.44305">
        <ele>60.4</ele>
        <time>2023-05-17T12:56:46Z</time>
      </trkpt>
      <trkpt lat="49.98103" lon="2.44303">
        <ele>60.5</ele>
        <time>2023-05-17T12:56:47Z</time>
      </trkpt>
      <trkpt lat="49.98103" lon="2.44302">
        <ele>60.6</ele>
        <time>2023-05-17T12:56:49Z</time>
      </trkpt>
      <trkpt lat="49.98104" lon="2.443">
        <ele>60.7</ele>
        <time>2023-05-17T12:56:50Z</time>
      </trkpt>
      <trkpt lat="49.98104" lon="2.44299">
        <ele>60.8</ele>
        <time>2023-05-17T12:56:51Z</time>
      </trkpt>
      <trkpt lat="49.98105" lon="2.44297">
        <ele>60.9</ele>
        <time>2023-05-17T12:56:52Z</time>
      </trkpt>
      <trkpt lat="49.98106" lon="2.44296">
        <ele>61</ele>
        <time>2023-05-17T12:56:54Z</time>
      </trkpt>
      <trkpt lat="49.98106" lon="2.44294">
        <ele>61</ele>
        <time>2023-05-17T12:56:55Z</time>
      </trkpt>
      <trkpt lat="49.98107" lon="2.44293">
        <ele>61.1</ele>
        <time>2023-05-17T12:56:56Z</time>
      </trkpt>
      <trkpt lat="49.98107" lon="2.44292">
        <ele>61.2</ele>
        <time>2023-05-17T12:56:57Z</time>
      </trkpt>
      <trkpt lat="49.98108" lon="2.44291">
        <ele>61.3</ele>
        <time>2023-05-17T12:56:58Z</time>
      </trkpt>
      <trkpt lat="49.98109" lon="2.44289">
        <ele>61.4</ele>
        <time>2023-05-17T12:56:59Z</time>
      </trkpt>
      <trkpt lat="49.98109" lon="2.44288">
        <ele>61.4</ele>
        <time>2023-05-17T12:57:01Z</time>
      </trkpt>
      <trkpt lat="49.9811" lon="2.44287">
        <ele>61.5</ele>
        <time>2023-05-17T12:57:02Z</time>
      </trkpt>
      <trkpt lat="49.9811" lon="2.44285">
        <ele>61.6</ele>
        <time>2023-05-17T12:57:03Z</time>
      </trkpt>
      <trkpt lat="49.98111" lon="2.44284">
        <ele>61.7</ele>
        <time>2023-05-17T12:57:04Z</time>
      </trkpt>
      <trkpt lat="49.98111" lon="2.44283">
        <ele>61.8</ele>
        <time>2023-05-17T12:57:05Z</time>
      </trkpt>
      <trkpt lat="49.98112" lon="2.44282">
        <ele>61.8</ele>
        <time>2023-05-17T12:57:06Z</time>
      </trkpt>
      <trkpt lat="49.98112" lon="2.4428">
        <ele>61.9</ele>
        <time>2023-05-17T12:57:08Z</time>
      </trkpt>
      <trkpt lat="49.98113" lon="2.44279">
        <ele>62</ele>
        <time>2023-05-17T12:57:09Z</time>
      </trkpt>
      <trkpt lat="49.98113" lon="2.44278">
        <ele>62.1</ele>
        <time>2023-05-17T12:57:10Z</time>
      </trkpt>
      <trkpt lat="49.98114" lon="2.44277">
        <ele>62.1</ele>
        <time>2023-05-17T12:57:11Z</time>
      </trkpt>
      <trkpt lat="49.98114" lon="2.44276">
        <ele>62.2</ele>
        <time>2023-05-17T12:57:12Z</time>
      </trkpt>
      <trkpt lat="49.98114" lon="2.44275">
        <ele>62.2</ele>
        <time>2023-05-17T12:57:13Z</time>
      </trkpt>
      <trkpt lat="49.98115" lon="2.44274">
        <ele>62.3</ele>
        <time>2023-05-17T12:57:14Z</time>
      </trkpt>
      <trkpt lat="49.98115" lon="2.44272">
        <ele>62.4</ele>
        <time>2023-05-17T12:57:16Z</time>
      </trkpt>
      <trkpt lat="49.98115" lon="2.44271">
        <ele>62.4</ele>
        <time>2023-05-17T12:57:17Z</time>
      </trkpt>
      <trkpt lat="49.98116" lon="2.4427">
        <ele>62.5</ele>
        <time>2023-05-17T12:57:18Z</time>
      </trkpt>
      <trkpt lat="49.98116" lon="2.44269">
        <ele>62.6</ele>
        <time>2023-05-17T12:57:19Z</time>
      </trkpt>
      <trkpt lat="49.98117" lon="2.44268">
        <ele>62.6</ele>
        <time>2023-05-17T12:57:20Z</time>
      </trkpt>
      <trkpt lat="49.98117" lon="2.44267">
        <ele>62.7</ele>
        <time>2023-05-17T12:57:22Z</time>
      </trkpt>
      <trkpt lat="49.98118" lon="2.44266">
        <ele>62.8</ele>
        <time>2023-05-17T12:57:23Z</time>
      </trkpt>
      <trkpt lat="49.98119" lon="2.44266">
        <ele>62.9</ele>
        <time>2023-05-17T12:57:24Z</time>
      </trkpt>
      <trkpt lat="49.9812" lon="2.44265">
        <ele>63</ele>
        <time>2023-05-17T12:57:26Z</time>
      </trkpt>
      <trkpt lat="49.98121" lon="2.44264">
        <ele>63</ele>
        <time>2023-05-17T12:57:27Z</time>
      </trkpt>
      <trkpt lat="49.98122" lon="2.44264">
        <ele>63.1</ele>
        <time>2023-05-17T12:57:28Z</time>
      </trkpt>
      <trkpt lat="49.98123" lon="2.44263">
        <ele>63.2</ele>
        <time>2023-05-17T12:57:29Z</time>
      </trkpt>
      <trkpt lat="49.98124" lon="2.44263">
        <ele>63.3</ele>
        <time>2023-05-17T12:57:30Z</time>
      </trkpt>
      <trkpt lat="49.98125" lon="2.44262">
        <ele>63.3</ele>
        <time>2023-05-17T12:57:31Z</time>
      </trkpt>
      <trkpt lat="49.98126" lon="2.44261">
        <ele>63.4</ele>
        <time>2023-05-17T12:57:33Z</time>
      </trkpt>
      <trkpt lat="49.98126" lon="2.44261">
        <ele>63.5</ele>
        <time>2023-05-17T12:57:34Z</time>
      </trkpt>
      <trkpt lat="49.98128" lon="2.4426">
        <ele>63.6</ele>
        <time>2023-05-17T12:57:35Z</time>
      </trkpt>
      <trkpt lat="49.98129" lon="2.4426">
        <ele>63.7</ele>
        <time>2023-05-17T12:57:36Z</time>
      </trkpt>
      <trkpt lat="49.9813" lon="2.44259">
        <ele>63.8</ele>
        <time>2023-05-17T12:57:37Z</time>
      </trkpt>
      <trkpt lat="49.9813" lon="2.44258">
        <ele>63.8</ele>
        <time>2023-05-17T12:57:38Z</time>
      </trkpt>
      <trkpt lat="49.98131" lon="2.44258">
        <ele>63.9</ele>
        <time>2023-05-17T12:57:39Z</time>
      </trkpt>
      <trkpt lat="49.98133" lon="2.44257">
        <ele>64</ele>
        <time>2023-05-17T12:57:41Z</time>
      </trkpt>
      <trkpt lat="49.98133" lon="2.44256">
        <ele>64.1</ele>
        <time>2023-05-17T12:57:42Z</time>
      </trkpt>
      <trkpt lat="49.98134" lon="2.44255">
        <ele>64.2</ele>
        <time>2023-05-17T12:57:43Z</time>
      </trkpt>
      <trkpt lat="49.98135" lon="2.44254">
        <ele>64.3</ele>
        <time>2023-05-17T12:57:44Z</time>
      </trkpt>
      <trkpt lat="49.98136" lon="2.44253">
        <ele>64.4</ele>
        <time>2023-05-17T12:57:45Z</time>
      </trkpt>
      <trkpt lat="49.98138" lon="2.44251">
        <ele>64.5</ele>
        <time>2023-05-17T12:57:46Z</time>
      </trkpt>
      <trkpt lat="49.98138" lon="2.4425">
        <ele>64.6</ele>
        <time>2023-05-17T12:57:48Z</time>
      </trkpt>
      <trkpt lat="49.98139" lon="2.44249">
        <ele>64.6</ele>
        <time>2023-05-17T12:57:49Z</time>
      </trkpt>
      <trkpt lat="49.9814" lon="2.44247">
        <ele>64.7</ele>
        <time>2023-05-17T12:57:51Z</time>
      </trkpt>
      <trkpt lat="49.9814" lon="2.44246">
        <ele>64.8</ele>
        <time>2023-05-17T12:57:52Z</time>
      </trkpt>
      <trkpt lat="49.98141" lon="2.44244">
        <ele>64.9</ele>
        <time>2023-05-17T12:57:53Z</time>
      </trkpt>
      <trkpt lat="49.98141" lon="2.44243">
        <ele>64.9</ele>
        <time>2023-05-17T12:57:54Z</time>
      </trkpt>
      <trkpt lat="49.98141" lon="2.44241">
        <ele>65</ele>
        <time>2023-05-17T12:57:55Z</time>
      </trkpt>
      <trkpt lat="49.98141" lon="2.4424">
        <ele>65.1</ele>
        <time>2023-05-17T12:57:56Z</time>
      </trkpt>
      <trkpt lat="49.98141" lon="2.44238">
        <ele>65.2</ele>
        <time>2023-05-17T12:57:58Z</time>
      </trkpt>
      <trkpt lat="49.98141" lon="2.44237">
        <ele>65.4</ele>
        <time>2023-05-17T12:57:59Z</time>
      </trkpt>
      <trkpt lat="49.98141" lon="2.44236">
        <ele>65.4</ele>
        <time>2023-05-17T12:58:01Z</time>
      </trkpt>
      <trkpt lat="49.9814" lon="2.44236">
        <ele>65.4</ele>
        <time>2023-05-17T12:58:02Z</time>
      </trkpt>
      <trkpt lat="49.9814" lon="2.44235">
        <ele>65.5</ele>
        <time>2023-05-17T12:58:03Z</time>
      </trkpt>
      <trkpt lat="49.98139" lon="2.44234">
        <ele>65.5</ele>
        <time>2023-05-17T12:58:04Z</time>
      </trkpt>
      <trkpt lat="49.98139" lon="2.44234">
        <ele>65.5</ele>
        <time>2023-05-17T12:58:05Z</time>
      </trkpt>
      <trkpt lat="49.98138" lon="2.44233">
        <ele>65.5</ele>
        <time>2023-05-17T12:58:07Z</time>
      </trkpt>
      <trkpt lat="49.98137" lon="2.44232">
        <ele>65.5</ele>
        <time>2023-05-17T12:58:08Z</time>
      </trkpt>
      <trkpt lat="49.98137" lon="2.44232">
        <ele>65.5</ele>
        <time>2023-05-17T12:58:10Z</time>
      </trkpt>
      <trkpt lat="49.98136" lon="2.44232">
        <ele>65.5</ele>
        <time>2023-05-17T12:58:11Z</time>
      </trkpt>
      <trkpt lat="49.98136" lon="2.44233">
        <ele>65.5</ele>
        <time>2023-05-17T12:58:13Z</time>
      </trkpt>
      <trkpt lat="49.98137" lon="2.44233">
        <ele>65.5</ele>
        <time>2023-05-17T12:58:14Z</time>
      </trkpt>
      <trkpt lat="49.98137" lon="2.44233">
        <ele>65.5</ele>
        <time>2023-05-17T12:58:15Z</time>
      </trkpt>
      <trkpt lat="49.98136" lon="2.44234">
        <ele>65.5</ele>
        <time>2023-05-17T12:58:17Z</time>
      </trkpt>
      <trkpt lat="49.98136" lon="2.44235">
        <ele>65.5</ele>
        <time>2023-05-17T12:58:18Z</time>
      </trkpt>
      <trkpt lat="49.98137" lon="2.44236">
        <ele>65.5</ele>
        <time>2023-05-17T12:58:20Z</time>
      </trkpt>
      <trkpt lat="49.98137" lon="2.44236">
        <ele>65.6</ele>
        <time>2023-05-17T12:58:21Z</time>
      </trkpt>
      <trkpt lat="49.98138" lon="2.44237">
        <ele>65.6</ele>
        <time>2023-05-17T12:58:23Z</time>
      </trkpt>
      <trkpt lat="49.98138" lon="2.44237">
        <ele>65.6</ele>
        <time>2023-05-17T12:58:24Z</time>
      </trkpt>
      <trkpt lat="49.98138" lon="2.44237">
        <ele>65.6</ele>
        <time>2023-05-17T12:58:25Z</time>
      </trkpt>
      <trkpt lat="49.98138" lon="2.44237">
        <ele>65.6</ele>
        <time>2023-05-17T12:58:27Z</time>
      </trkpt>
      <trkpt lat="49.98138" lon="2.44237">
        <ele>65.6</ele>
        <time>2023-05-17T12:58:29Z</time>
      </trkpt>
      <trkpt lat="49.98138" lon="2.44237">
        <ele>65.6</ele>
        <time>2023-05-17T12:58:30Z</time>
      </trkpt>
      <trkpt lat="49.98137" lon="2.44237">
        <ele>65.6</ele>
        <time>2023-05-17T12:58:31Z</time>
      </trkpt>
      <trkpt lat="49.98137" lon="2.44237">
        <ele>65.6</ele>
        <time>2023-05-17T12:58:32Z</time>
      </trkpt>
      <trkpt lat="49.98138" lon="2.44236">
        <ele>65.6</ele>
        <time>2023-05-17T12:58:33Z</time>
      </trkpt>
      <trkpt lat="49.98138" lon="2.44236">
        <ele>65.6</ele>
        <time>2023-05-17T12:58:34Z</time>
      </trkpt>
      <trkpt lat="49.98138" lon="2.44235">
        <ele>65.6</ele>
        <time>2023-05-17T12:58:35Z</time>
      </trkpt>
      <trkpt lat="49.98138" lon="2.44235">
        <ele>65.6</ele>
        <time>2023-05-17T12:58:36Z</time>
      </trkpt>
      <trkpt lat="49.98137" lon="2.44235">
        <ele>65.6</ele>
        <time>2023-05-17T12:58:37Z</time>
      </trkpt>
      <trkpt lat="49.98137" lon="2.44233">
        <ele>65.6</ele>
        <time>2023-05-17T12:58:39Z</time>
      </trkpt>
      <trkpt lat="49.98136" lon="2.44233">
        <ele>65.6</ele>
        <time>2023-05-17T12:58:40Z</time>
      </trkpt>
      <trkpt lat="49.98133" lon="2.44233">
        <ele>65.7</ele>
        <time>2023-05-17T12:58:42Z</time>
      </trkpt>
      <trkpt lat="49.98133" lon="2.44234">
        <ele>65.7</ele>
        <time>2023-05-17T12:58:43Z</time>
      </trkpt>
      <trkpt lat="49.98133" lon="2.44235">
        <ele>65.7</ele>
        <time>2023-05-17T12:58:45Z</time>
      </trkpt>
      <trkpt lat="49.98132" lon="2.44235">
        <ele>65.7</ele>
        <time>2023-05-17T12:58:46Z</time>
      </trkpt>
      <trkpt lat="49.98132" lon="2.44235">
        <ele>65.7</ele>
        <time>2023-05-17T12:58:47Z</time>
      </trkpt>
      <trkpt lat="49.98132" lon="2.44235">
        <ele>65.7</ele>
        <time>2023-05-17T12:58:49Z</time>
      </trkpt>
      <trkpt lat="49.98133" lon="2.44235">
        <ele>65.7</ele>
        <time>2023-05-17T12:58:50Z</time>
      </trkpt>
      <trkpt lat="49.98133" lon="2.44235">
        <ele>65.7</ele>
        <time>2023-05-17T12:58:51Z</time>
      </trkpt>
      <trkpt lat="49.98133" lon="2.44235">
        <ele>65.7</ele>
        <time>2023-05-17T12:58:52Z</time>
      </trkpt>
      <trkpt lat="49.98133" lon="2.44235">
        <ele>65.7</ele>
        <time>2023-05-17T12:58:53Z</time>
      </trkpt>
      <trkpt lat="49.98133" lon="2.44235">
        <ele>65.7</ele>
        <time>2023-05-17T12:58:55Z</time>
      </trkpt>
      <trkpt lat="49.98133" lon="2.44236">
        <ele>65.7</ele>
        <time>2023-05-17T12:58:56Z</time>
      </trkpt>
      <trkpt lat="49.98133" lon="2.44238">
        <ele>65.7</ele>
        <time>2023-05-17T12:58:58Z</time>
      </trkpt>
      <trkpt lat="49.98133" lon="2.44238">
        <ele>65.7</ele>
        <time>2023-05-17T12:58:59Z</time>
      </trkpt>
      <trkpt lat="49.98133" lon="2.4424">
        <ele>65.7</ele>
        <time>2023-05-17T12:59:00Z</time>
      </trkpt>
      <trkpt lat="49.98133" lon="2.4424">
        <ele>65.7</ele>
        <time>2023-05-17T12:59:01Z</time>
      </trkpt>
      <trkpt lat="49.98133" lon="2.44241">
        <ele>65.7</ele>
        <time>2023-05-17T12:59:02Z</time>
      </trkpt>
      <trkpt lat="49.98133" lon="2.44241">
        <ele>65.7</ele>
        <time>2023-05-17T12:59:03Z</time>
      </trkpt>
      <trkpt lat="49.98133" lon="2.44241">
        <ele>65.7</ele>
        <time>2023-05-17T12:59:04Z</time>
      </trkpt>
      <trkpt lat="49.98133" lon="2.44241">
        <ele>65.7</ele>
        <time>2023-05-17T12:59:05Z</time>
      </trkpt>
      <trkpt lat="49.98133" lon="2.44241">
        <ele>65.7</ele>
        <time>2023-05-17T12:59:06Z</time>
      </trkpt>
      <trkpt lat="49.98135" lon="2.44241">
        <ele>65.8</ele>
        <time>2023-05-17T13:00:06Z</time>
      </trkpt>
      <trkpt lat="49.98136" lon="2.44242">
        <ele>65.8</ele>
        <time>2023-05-17T13:00:07Z</time>
      </trkpt>
      <trkpt lat="49.98136" lon="2.44242">
        <ele>65.8</ele>
        <time>2023-05-17T13:00:08Z</time>
      </trkpt>
      <trkpt lat="49.98137" lon="2.44241">
        <ele>65.8</ele>
        <time>2023-05-17T13:00:09Z</time>
      </trkpt>
      <trkpt lat="49.98138" lon="2.44242">
        <ele>65.8</ele>
        <time>2023-05-17T13:00:11Z</time>
      </trkpt>
      <trkpt lat="49.98139" lon="2.44242">
        <ele>65.8</ele>
        <time>2023-05-17T13:00:12Z</time>
      </trkpt>
      <trkpt lat="49.9814" lon="2.44242">
        <ele>65.8</ele>
        <time>2023-05-17T13:00:13Z</time>
      </trkpt>
      <trkpt lat="49.98141" lon="2.44241">
        <ele>65.8</ele>
        <time>2023-05-17T13:00:15Z</time>
      </trkpt>
      <trkpt lat="49.98142" lon="2.44241">
        <ele>65.8</ele>
        <time>2023-05-17T13:00:16Z</time>
      </trkpt>
      <trkpt lat="49.98143" lon="2.44241">
        <ele>65.8</ele>
        <time>2023-05-17T13:00:17Z</time>
      </trkpt>
      <trkpt lat="49.98144" lon="2.44241">
        <ele>65.9</ele>
        <time>2023-05-17T13:00:19Z</time>
      </trkpt>
      <trkpt lat="49.98145" lon="2.44241">
        <ele>65.9</ele>
        <time>2023-05-17T13:00:20Z</time>
      </trkpt>
      <trkpt lat="49.98147" lon="2.44241">
        <ele>65.9</ele>
        <time>2023-05-17T13:00:21Z</time>
      </trkpt>
      <trkpt lat="49.98148" lon="2.44241">
        <ele>65.9</ele>
        <time>2023-05-17T13:00:22Z</time>
      </trkpt>
      <trkpt lat="49.9815" lon="2.44242">
        <ele>65.9</ele>
        <time>2023-05-17T13:00:23Z</time>
      </trkpt>
      <trkpt lat="49.98152" lon="2.44242">
        <ele>65.9</ele>
        <time>2023-05-17T13:00:24Z</time>
      </trkpt>
      <trkpt lat="49.98154" lon="2.44243">
        <ele>65.9</ele>
        <time>2023-05-17T13:00:26Z</time>
      </trkpt>
      <trkpt lat="49.98156" lon="2.44243">
        <ele>65.9</ele>
        <time>2023-05-17T13:00:27Z</time>
      </trkpt>
      <trkpt lat="49.98157" lon="2.44243">
        <ele>65.9</ele>
        <time>2023-05-17T13:00:28Z</time>
      </trkpt>
      <trkpt lat="49.98158" lon="2.44243">
        <ele>65.8</ele>
        <time>2023-05-17T13:00:29Z</time>
      </trkpt>
      <trkpt lat="49.9816" lon="2.44244">
        <ele>65.8</ele>
        <time>2023-05-17T13:00:30Z</time>
      </trkpt>
      <trkpt lat="49.98162" lon="2.44244">
        <ele>65.8</ele>
        <time>2023-05-17T13:00:32Z</time>
      </trkpt>
      <trkpt lat="49.98163" lon="2.44245">
        <ele>65.8</ele>
        <time>2023-05-17T13:00:33Z</time>
      </trkpt>
      <trkpt lat="49.98164" lon="2.44245">
        <ele>65.8</ele>
        <time>2023-05-17T13:00:35Z</time>
      </trkpt>
      <trkpt lat="49.98166" lon="2.44246">
        <ele>65.8</ele>
        <time>2023-05-17T13:00:36Z</time>
      </trkpt>
      <trkpt lat="49.98167" lon="2.44247">
        <ele>65.8</ele>
        <time>2023-05-17T13:00:37Z</time>
      </trkpt>
      <trkpt lat="49.98168" lon="2.44247">
        <ele>65.8</ele>
        <time>2023-05-17T13:00:38Z</time>
      </trkpt>
      <trkpt lat="49.98169" lon="2.44248">
        <ele>65.7</ele>
        <time>2023-05-17T13:00:39Z</time>
      </trkpt>
      <trkpt lat="49.98171" lon="2.44249">
        <ele>65.7</ele>
        <time>2023-05-17T13:00:40Z</time>
      </trkpt>
      <trkpt lat="49.98172" lon="2.4425">
        <ele>65.7</ele>
        <time>2023-05-17T13:00:41Z</time>
      </trkpt>
      <trkpt lat="49.98174" lon="2.44251">
        <ele>65.7</ele>
        <time>2023-05-17T13:00:43Z</time>
      </trkpt>
      <trkpt lat="49.98175" lon="2.44251">
        <ele>65.6</ele>
        <time>2023-05-17T13:00:44Z</time>
      </trkpt>
      <trkpt lat="49.98177" lon="2.44252">
        <ele>65.6</ele>
        <time>2023-05-17T13:00:45Z</time>
      </trkpt>
      <trkpt lat="49.98178" lon="2.44252">
        <ele>65.6</ele>
        <time>2023-05-17T13:00:46Z</time>
      </trkpt>
      <trkpt lat="49.9818" lon="2.44253">
        <ele>65.6</ele>
        <time>2023-05-17T13:00:47Z</time>
      </trkpt>
      <trkpt lat="49.98182" lon="2.44254">
        <ele>65.5</ele>
        <time>2023-05-17T13:00:48Z</time>
      </trkpt>
      <trkpt lat="49.98183" lon="2.44255">
        <ele>65.5</ele>
        <time>2023-05-17T13:00:49Z</time>
      </trkpt>
      <trkpt lat="49.98186" lon="2.44256">
        <ele>65.5</ele>
        <time>2023-05-17T13:00:51Z</time>
      </trkpt>
      <trkpt lat="49.9819" lon="2.44258">
        <ele>65.4</ele>
        <time>2023-05-17T13:00:52Z</time>
      </trkpt>
      <trkpt lat="49.98192" lon="2.44259">
        <ele>65.4</ele>
        <time>2023-05-17T13:00:53Z</time>
      </trkpt>
      <trkpt lat="49.98196" lon="2.44261">
        <ele>65.4</ele>
        <time>2023-05-17T13:00:54Z</time>
      </trkpt>
      <trkpt lat="49.98197" lon="2.44261">
        <ele>65.4</ele>
        <time>2023-05-17T13:00:55Z</time>
      </trkpt>
      <trkpt lat="49.982" lon="2.44263">
        <ele>65.3</ele>
        <time>2023-05-17T13:00:57Z</time>
      </trkpt>
      <trkpt lat="49.98201" lon="2.44264">
        <ele>65.3</ele>
        <time>2023-05-17T13:00:58Z</time>
      </trkpt>
      <trkpt lat="49.98203" lon="2.44264">
        <ele>65.3</ele>
        <time>2023-05-17T13:00:59Z</time>
      </trkpt>
      <trkpt lat="49.98205" lon="2.44265">
        <ele>65.3</ele>
        <time>2023-05-17T13:01:00Z</time>
      </trkpt>
      <trkpt lat="49.98206" lon="2.44266">
        <ele>65.3</ele>
        <time>2023-05-17T13:01:01Z</time>
      </trkpt>
      <trkpt lat="49.98209" lon="2.44266">
        <ele>65.3</ele>
        <time>2023-05-17T13:01:03Z</time>
      </trkpt>
      <trkpt lat="49.9821" lon="2.44267">
        <ele>65.3</ele>
        <time>2023-05-17T13:01:05Z</time>
      </trkpt>
      <trkpt lat="49.98212" lon="2.44268">
        <ele>65.2</ele>
        <time>2023-05-17T13:01:06Z</time>
      </trkpt>
      <trkpt lat="49.98214" lon="2.44269">
        <ele>65.2</ele>
        <time>2023-05-17T13:01:07Z</time>
      </trkpt>
      <trkpt lat="49.98215" lon="2.44269">
        <ele>65.2</ele>
        <time>2023-05-17T13:01:08Z</time>
      </trkpt>
      <trkpt lat="49.98217" lon="2.44269">
        <ele>65.2</ele>
        <time>2023-05-17T13:01:09Z</time>
      </trkpt>
      <trkpt lat="49.9822" lon="2.4427">
        <ele>65.2</ele>
        <time>2023-05-17T13:01:11Z</time>
      </trkpt>
      <trkpt lat="49.98221" lon="2.4427">
        <ele>65.2</ele>
        <time>2023-05-17T13:01:12Z</time>
      </trkpt>
      <trkpt lat="49.98222" lon="2.4427">
        <ele>65.2</ele>
        <time>2023-05-17T13:01:13Z</time>
      </trkpt>
      <trkpt lat="49.98224" lon="2.4427">
        <ele>65.2</ele>
        <time>2023-05-17T13:01:14Z</time>
      </trkpt>
      <trkpt lat="49.98225" lon="2.4427">
        <ele>65.2</ele>
        <time>2023-05-17T13:01:16Z</time>
      </trkpt>
      <trkpt lat="49.98227" lon="2.4427">
        <ele>65.2</ele>
        <time>2023-05-17T13:01:17Z</time>
      </trkpt>
      <trkpt lat="49.98228" lon="2.4427">
        <ele>65.2</ele>
        <time>2023-05-17T13:01:18Z</time>
      </trkpt>
      <trkpt lat="49.98229" lon="2.44271">
        <ele>65.1</ele>
        <time>2023-05-17T13:01:19Z</time>
      </trkpt>
      <trkpt lat="49.9823" lon="2.44271">
        <ele>65.1</ele>
        <time>2023-05-17T13:01:20Z</time>
      </trkpt>
      <trkpt lat="49.98233" lon="2.44271">
        <ele>65.1</ele>
        <time>2023-05-17T13:01:22Z</time>
      </trkpt>
      <trkpt lat="49.98234" lon="2.44272">
        <ele>65.1</ele>
        <time>2023-05-17T13:01:23Z</time>
      </trkpt>
      <trkpt lat="49.98236" lon="2.44273">
        <ele>65.1</ele>
        <time>2023-05-17T13:01:24Z</time>
      </trkpt>
      <trkpt lat="49.98237" lon="2.44273">
        <ele>65.1</ele>
        <time>2023-05-17T13:01:25Z</time>
      </trkpt>
      <trkpt lat="49.98238" lon="2.44274">
        <ele>65.1</ele>
        <time>2023-05-17T13:01:26Z</time>
      </trkpt>
      <trkpt lat="49.9824" lon="2.44275">
        <ele>65.1</ele>
        <time>2023-05-17T13:01:28Z</time>
      </trkpt>
      <trkpt lat="49.98241" lon="2.44276">
        <ele>65.1</ele>
        <time>2023-05-17T13:01:30Z</time>
      </trkpt>
      <trkpt lat="49.98243" lon="2.44277">
        <ele>65.1</ele>
        <time>2023-05-17T13:01:31Z</time>
      </trkpt>
      <trkpt lat="49.98244" lon="2.44278">
        <ele>65.1</ele>
        <time>2023-05-17T13:01:32Z</time>
      </trkpt>
      <trkpt lat="49.98245" lon="2.44279">
        <ele>65.1</ele>
        <time>2023-05-17T13:01:33Z</time>
      </trkpt>
      <trkpt lat="49.98245" lon="2.4428">
        <ele>65.1</ele>
        <time>2023-05-17T13:01:34Z</time>
      </trkpt>
      <trkpt lat="49.98247" lon="2.44281">
        <ele>65.1</ele>
        <time>2023-05-17T13:01:36Z</time>
      </trkpt>
      <trkpt lat="49.98249" lon="2.44282">
        <ele>65.1</ele>
        <time>2023-05-17T13:01:37Z</time>
      </trkpt>
      <trkpt lat="49.9825" lon="2.44283">
        <ele>65.1</ele>
        <time>2023-05-17T13:01:38Z</time>
      </trkpt>
      <trkpt lat="49.98251" lon="2.44284">
        <ele>65.1</ele>
        <time>2023-05-17T13:01:39Z</time>
      </trkpt>
      <trkpt lat="49.98252" lon="2.44284">
        <ele>65.1</ele>
        <time>2023-05-17T13:01:41Z</time>
      </trkpt>
      <trkpt lat="49.98253" lon="2.44285">
        <ele>65.1</ele>
        <time>2023-05-17T13:01:42Z</time>
      </trkpt>
      <trkpt lat="49.98254" lon="2.44286">
        <ele>65.1</ele>
        <time>2023-05-17T13:01:43Z</time>
      </trkpt>
      <trkpt lat="49.98256" lon="2.44287">
        <ele>65.1</ele>
        <time>2023-05-17T13:01:44Z</time>
      </trkpt>
      <trkpt lat="49.98257" lon="2.44288">
        <ele>65.1</ele>
        <time>2023-05-17T13:01:45Z</time>
      </trkpt>
      <trkpt lat="49.98258" lon="2.44289">
        <ele>65.1</ele>
        <time>2023-05-17T13:01:46Z</time>
      </trkpt>
      <trkpt lat="49.98259" lon="2.44291">
        <ele>65.1</ele>
        <time>2023-05-17T13:01:48Z</time>
      </trkpt>
      <trkpt lat="49.9826" lon="2.44294">
        <ele>64.9</ele>
        <time>2023-05-17T13:01:49Z</time>
      </trkpt>
      <trkpt lat="49.9826" lon="2.44295">
        <ele>64.9</ele>
        <time>2023-05-17T13:01:50Z</time>
      </trkpt>
      <trkpt lat="49.98261" lon="2.44296">
        <ele>64.8</ele>
        <time>2023-05-17T13:01:51Z</time>
      </trkpt>
      <trkpt lat="49.98261" lon="2.44298">
        <ele>64.8</ele>
        <time>2023-05-17T13:01:52Z</time>
      </trkpt>
      <trkpt lat="49.98261" lon="2.443">
        <ele>64.7</ele>
        <time>2023-05-17T13:01:53Z</time>
      </trkpt>
      <trkpt lat="49.98261" lon="2.44302">
        <ele>64.7</ele>
        <time>2023-05-17T13:01:55Z</time>
      </trkpt>
      <trkpt lat="49.98261" lon="2.44304">
        <ele>64.7</ele>
        <time>2023-05-17T13:01:56Z</time>
      </trkpt>
      <trkpt lat="49.98262" lon="2.44306">
        <ele>64.6</ele>
        <time>2023-05-17T13:01:57Z</time>
      </trkpt>
      <trkpt lat="49.98262" lon="2.44307">
        <ele>64.5</ele>
        <time>2023-05-17T13:01:58Z</time>
      </trkpt>
      <trkpt lat="49.98263" lon="2.44309">
        <ele>64.5</ele>
        <time>2023-05-17T13:01:59Z</time>
      </trkpt>
      <trkpt lat="49.98263" lon="2.4431">
        <ele>64.4</ele>
        <time>2023-05-17T13:02:01Z</time>
      </trkpt>
      <trkpt lat="49.98264" lon="2.44311">
        <ele>64.4</ele>
        <time>2023-05-17T13:02:02Z</time>
      </trkpt>
      <trkpt lat="49.98265" lon="2.44313">
        <ele>64.3</ele>
        <time>2023-05-17T13:02:03Z</time>
      </trkpt>
      <trkpt lat="49.98265" lon="2.44314">
        <ele>64.3</ele>
        <time>2023-05-17T13:02:04Z</time>
      </trkpt>
      <trkpt lat="49.98266" lon="2.44315">
        <ele>64.3</ele>
        <time>2023-05-17T13:02:05Z</time>
      </trkpt>
      <trkpt lat="49.98266" lon="2.44316">
        <ele>64.3</ele>
        <time>2023-05-17T13:02:06Z</time>
      </trkpt>
      <trkpt lat="49.98267" lon="2.44317">
        <ele>64.2</ele>
        <time>2023-05-17T13:02:07Z</time>
      </trkpt>
      <trkpt lat="49.98268" lon="2.44318">
        <ele>64.2</ele>
        <time>2023-05-17T13:02:08Z</time>
      </trkpt>
      <trkpt lat="49.98268" lon="2.4432">
        <ele>64.1</ele>
        <time>2023-05-17T13:02:10Z</time>
      </trkpt>
      <trkpt lat="49.98269" lon="2.44321">
        <ele>64.1</ele>
        <time>2023-05-17T13:02:11Z</time>
      </trkpt>
      <trkpt lat="49.9827" lon="2.44323">
        <ele>64</ele>
        <time>2023-05-17T13:02:12Z</time>
      </trkpt>
      <trkpt lat="49.9827" lon="2.44325">
        <ele>64</ele>
        <time>2023-05-17T13:02:13Z</time>
      </trkpt>
      <trkpt lat="49.98271" lon="2.44326">
        <ele>63.9</ele>
        <time>2023-05-17T13:02:14Z</time>
      </trkpt>
      <trkpt lat="49.98271" lon="2.44327">
        <ele>63.9</ele>
        <time>2023-05-17T13:02:16Z</time>
      </trkpt>
      <trkpt lat="49.98271" lon="2.44329">
        <ele>63.9</ele>
        <time>2023-05-17T13:02:17Z</time>
      </trkpt>
      <trkpt lat="49.98271" lon="2.4433">
        <ele>63.8</ele>
        <time>2023-05-17T13:02:18Z</time>
      </trkpt>
      <trkpt lat="49.98272" lon="2.44332">
        <ele>63.8</ele>
        <time>2023-05-17T13:02:19Z</time>
      </trkpt>
      <trkpt lat="49.98272" lon="2.44334">
        <ele>63.8</ele>
        <time>2023-05-17T13:02:20Z</time>
      </trkpt>
      <trkpt lat="49.98271" lon="2.44335">
        <ele>63.7</ele>
        <time>2023-05-17T13:02:21Z</time>
      </trkpt>
      <trkpt lat="49.98271" lon="2.44337">
        <ele>63.7</ele>
        <time>2023-05-17T13:02:23Z</time>
      </trkpt>
      <trkpt lat="49.98271" lon="2.4434">
        <ele>63.6</ele>
        <time>2023-05-17T13:02:24Z</time>
      </trkpt>
      <trkpt lat="49.98271" lon="2.44341">
        <ele>63.6</ele>
        <time>2023-05-17T13:02:26Z</time>
      </trkpt>
      <trkpt lat="49.98271" lon="2.44343">
        <ele>63.6</ele>
        <time>2023-05-17T13:02:27Z</time>
      </trkpt>
      <trkpt lat="49.98271" lon="2.44345">
        <ele>63.5</ele>
        <time>2023-05-17T13:02:28Z</time>
      </trkpt>
      <trkpt lat="49.98272" lon="2.44345">
        <ele>63.5</ele>
        <time>2023-05-17T13:02:30Z</time>
      </trkpt>
      <trkpt lat="49.98272" lon="2.44345">
        <ele>63.5</ele>
        <time>2023-05-17T13:02:31Z</time>
      </trkpt>
      <trkpt lat="49.98272" lon="2.44346">
        <ele>63.4</ele>
        <time>2023-05-17T13:02:32Z</time>
      </trkpt>
      <trkpt lat="49.98272" lon="2.44347">
        <ele>63.4</ele>
        <time>2023-05-17T13:02:34Z</time>
      </trkpt>
      <trkpt lat="49.98272" lon="2.4435">
        <ele>63.3</ele>
        <time>2023-05-17T13:02:35Z</time>
      </trkpt>
      <trkpt lat="49.98272" lon="2.4435">
        <ele>63.3</ele>
        <time>2023-05-17T13:02:36Z</time>
      </trkpt>
      <trkpt lat="49.98271" lon="2.44351">
        <ele>63.2</ele>
        <time>2023-05-17T13:02:38Z</time>
      </trkpt>
      <trkpt lat="49.98271" lon="2.44353">
        <ele>63.2</ele>
        <time>2023-05-17T13:02:39Z</time>
      </trkpt>
      <trkpt lat="49.9827" lon="2.44354">
        <ele>63.2</ele>
        <time>2023-05-17T13:02:40Z</time>
      </trkpt>
      <trkpt lat="49.9827" lon="2.44355">
        <ele>63.1</ele>
        <time>2023-05-17T13:02:41Z</time>
      </trkpt>
      <trkpt lat="49.98269" lon="2.44356">
        <ele>63</ele>
        <time>2023-05-17T13:02:42Z</time>
      </trkpt>
      <trkpt lat="49.98268" lon="2.44356">
        <ele>63</ele>
        <time>2023-05-17T13:02:44Z</time>
      </trkpt>
      <trkpt lat="49.98268" lon="2.44357">
        <ele>63</ele>
        <time>2023-05-17T13:02:45Z</time>
      </trkpt>
      <trkpt lat="49.98267" lon="2.44358">
        <ele>62.9</ele>
        <time>2023-05-17T13:02:46Z</time>
      </trkpt>
      <trkpt lat="49.98266" lon="2.44358">
        <ele>62.9</ele>
        <time>2023-05-17T13:02:47Z</time>
      </trkpt>
      <trkpt lat="49.98266" lon="2.44357">
        <ele>62.9</ele>
        <time>2023-05-17T13:02:48Z</time>
      </trkpt>
      <trkpt lat="49.98265" lon="2.44356">
        <ele>62.9</ele>
        <time>2023-05-17T13:02:49Z</time>
      </trkpt>
      <trkpt lat="49.98264" lon="2.44356">
        <ele>62.8</ele>
        <time>2023-05-17T13:02:50Z</time>
      </trkpt>
      <trkpt lat="49.98264" lon="2.44356">
        <ele>62.8</ele>
        <time>2023-05-17T13:02:52Z</time>
      </trkpt>
      <trkpt lat="49.98263" lon="2.44357">
        <ele>62.8</ele>
        <time>2023-05-17T13:02:53Z</time>
      </trkpt>
      <trkpt lat="49.98263" lon="2.44358">
        <ele>62.8</ele>
        <time>2023-05-17T13:02:54Z</time>
      </trkpt>
      <trkpt lat="49.98262" lon="2.4436">
        <ele>62.7</ele>
        <time>2023-05-17T13:02:55Z</time>
      </trkpt>
      <trkpt lat="49.98262" lon="2.44361">
        <ele>62.6</ele>
        <time>2023-05-17T13:02:56Z</time>
      </trkpt>
      <trkpt lat="49.98261" lon="2.44363">
        <ele>62.6</ele>
        <time>2023-05-17T13:02:57Z</time>
      </trkpt>
      <trkpt lat="49.98261" lon="2.44365">
        <ele>62.5</ele>
        <time>2023-05-17T13:02:58Z</time>
      </trkpt>
      <trkpt lat="49.9826" lon="2.44368">
        <ele>62.4</ele>
        <time>2023-05-17T13:03:00Z</time>
      </trkpt>
      <trkpt lat="49.9826" lon="2.44369">
        <ele>62.3</ele>
        <time>2023-05-17T13:03:01Z</time>
      </trkpt>
      <trkpt lat="49.9826" lon="2.44371">
        <ele>62.3</ele>
        <time>2023-05-17T13:03:02Z</time>
      </trkpt>
      <trkpt lat="49.9826" lon="2.44372">
        <ele>62.3</ele>
        <time>2023-05-17T13:03:03Z</time>
      </trkpt>
      <trkpt lat="49.9826" lon="2.44374">
        <ele>62.1</ele>
        <time>2023-05-17T13:03:04Z</time>
      </trkpt>
      <trkpt lat="49.98259" lon="2.44377">
        <ele>62.1</ele>
        <time>2023-05-17T13:03:06Z</time>
      </trkpt>
      <trkpt lat="49.98259" lon="2.44379">
        <ele>62</ele>
        <time>2023-05-17T13:03:07Z</time>
      </trkpt>
      <trkpt lat="49.98259" lon="2.4438">
        <ele>62</ele>
        <time>2023-05-17T13:03:08Z</time>
      </trkpt>
      <trkpt lat="49.98258" lon="2.44381">
        <ele>61.9</ele>
        <time>2023-05-17T13:03:09Z</time>
      </trkpt>
      <trkpt lat="49.98258" lon="2.44383">
        <ele>61.8</ele>
        <time>2023-05-17T13:03:11Z</time>
      </trkpt>
      <trkpt lat="49.98258" lon="2.44385">
        <ele>61.7</ele>
        <time>2023-05-17T13:03:12Z</time>
      </trkpt>
      <trkpt lat="49.98257" lon="2.44386">
        <ele>61.6</ele>
        <time>2023-05-17T13:03:13Z</time>
      </trkpt>
      <trkpt lat="49.98257" lon="2.44388">
        <ele>61.6</ele>
        <time>2023-05-17T13:03:14Z</time>
      </trkpt>
      <trkpt lat="49.98257" lon="2.44389">
        <ele>61.6</ele>
        <time>2023-05-17T13:03:15Z</time>
      </trkpt>
      <trkpt lat="49.98256" lon="2.44391">
        <ele>61.4</ele>
        <time>2023-05-17T13:03:17Z</time>
      </trkpt>
      <trkpt lat="49.98256" lon="2.44393">
        <ele>61.4</ele>
        <time>2023-05-17T13:03:18Z</time>
      </trkpt>
      <trkpt lat="49.98255" lon="2.44394">
        <ele>61.2</ele>
        <time>2023-05-17T13:03:19Z</time>
      </trkpt>
      <trkpt lat="49.98255" lon="2.44396">
        <ele>61.2</ele>
        <time>2023-05-17T13:03:20Z</time>
      </trkpt>
      <trkpt lat="49.98255" lon="2.44398">
        <ele>61.1</ele>
        <time>2023-05-17T13:03:21Z</time>
      </trkpt>
      <trkpt lat="49.98254" lon="2.444">
        <ele>61</ele>
        <time>2023-05-17T13:03:22Z</time>
      </trkpt>
      <trkpt lat="49.98254" lon="2.44403">
        <ele>60.8</ele>
        <time>2023-05-17T13:03:24Z</time>
      </trkpt>
      <trkpt lat="49.98253" lon="2.44405">
        <ele>60.8</ele>
        <time>2023-05-17T13:03:25Z</time>
      </trkpt>
      <trkpt lat="49.98253" lon="2.44407">
        <ele>60.8</ele>
        <time>2023-05-17T13:03:26Z</time>
      </trkpt>
      <trkpt lat="49.98252" lon="2.44409">
        <ele>60.6</ele>
        <time>2023-05-17T13:03:28Z</time>
      </trkpt>
      <trkpt lat="49.98251" lon="2.44411">
        <ele>60.5</ele>
        <time>2023-05-17T13:03:29Z</time>
      </trkpt>
      <trkpt lat="49.98251" lon="2.44413">
        <ele>60.4</ele>
        <time>2023-05-17T13:03:30Z</time>
      </trkpt>
      <trkpt lat="49.9825" lon="2.44416">
        <ele>60.2</ele>
        <time>2023-05-17T13:03:31Z</time>
      </trkpt>
      <trkpt lat="49.9825" lon="2.44417">
        <ele>60.2</ele>
        <time>2023-05-17T13:03:32Z</time>
      </trkpt>
      <trkpt lat="49.9825" lon="2.44418">
        <ele>60.2</ele>
        <time>2023-05-17T13:03:33Z</time>
      </trkpt>
      <trkpt lat="49.98249" lon="2.44421">
        <ele>59.9</ele>
        <time>2023-05-17T13:03:35Z</time>
      </trkpt>
      <trkpt lat="49.98248" lon="2.44423">
        <ele>59.9</ele>
        <time>2023-05-17T13:03:36Z</time>
      </trkpt>
      <trkpt lat="49.98248" lon="2.44425">
        <ele>59.7</ele>
        <time>2023-05-17T13:03:37Z</time>
      </trkpt>
      <trkpt lat="49.98248" lon="2.44427">
        <ele>59.7</ele>
        <time>2023-05-17T13:03:39Z</time>
      </trkpt>
      <trkpt lat="49.98247" lon="2.44428">
        <ele>59.7</ele>
        <time>2023-05-17T13:03:40Z</time>
      </trkpt>
      <trkpt lat="49.98247" lon="2.4443">
        <ele>59.5</ele>
        <time>2023-05-17T13:03:41Z</time>
      </trkpt>
      <trkpt lat="49.98247" lon="2.44431">
        <ele>59.5</ele>
        <time>2023-05-17T13:03:42Z</time>
      </trkpt>
      <trkpt lat="49.98246" lon="2.44433">
        <ele>59.5</ele>
        <time>2023-05-17T13:03:43Z</time>
      </trkpt>
      <trkpt lat="49.98246" lon="2.44436">
        <ele>59.3</ele>
        <time>2023-05-17T13:03:44Z</time>
      </trkpt>
      <trkpt lat="49.98246" lon="2.44437">
        <ele>59.3</ele>
        <time>2023-05-17T13:03:46Z</time>
      </trkpt>
      <trkpt lat="49.98245" lon="2.44439">
        <ele>59.1</ele>
        <time>2023-05-17T13:03:47Z</time>
      </trkpt>
      <trkpt lat="49.98245" lon="2.44442">
        <ele>58.9</ele>
        <time>2023-05-17T13:03:49Z</time>
      </trkpt>
      <trkpt lat="49.98245" lon="2.44443">
        <ele>58.9</ele>
        <time>2023-05-17T13:03:50Z</time>
      </trkpt>
      <trkpt lat="49.98244" lon="2.44444">
        <ele>58.9</ele>
        <time>2023-05-17T13:03:51Z</time>
      </trkpt>
      <trkpt lat="49.98244" lon="2.44446">
        <ele>58.7</ele>
        <time>2023-05-17T13:03:52Z</time>
      </trkpt>
      <trkpt lat="49.98244" lon="2.44448">
        <ele>58.7</ele>
        <time>2023-05-17T13:03:53Z</time>
      </trkpt>
      <trkpt lat="49.98244" lon="2.4445">
        <ele>58.7</ele>
        <time>2023-05-17T13:03:54Z</time>
      </trkpt>
      <trkpt lat="49.98244" lon="2.44451">
        <ele>58.5</ele>
        <time>2023-05-17T13:03:55Z</time>
      </trkpt>
      <trkpt lat="49.98244" lon="2.44453">
        <ele>58.5</ele>
        <time>2023-05-17T13:03:57Z</time>
      </trkpt>
      <trkpt lat="49.98243" lon="2.44454">
        <ele>58.3</ele>
        <time>2023-05-17T13:03:58Z</time>
      </trkpt>
      <trkpt lat="49.98243" lon="2.44456">
        <ele>58.3</ele>
        <time>2023-05-17T13:03:59Z</time>
      </trkpt>
      <trkpt lat="49.98243" lon="2.44458">
        <ele>58.3</ele>
        <time>2023-05-17T13:04:00Z</time>
      </trkpt>
      <trkpt lat="49.98242" lon="2.44459">
        <ele>58.1</ele>
        <time>2023-05-17T13:04:01Z</time>
      </trkpt>
      <trkpt lat="49.98242" lon="2.44462">
        <ele>58</ele>
        <time>2023-05-17T13:04:02Z</time>
      </trkpt>
      <trkpt lat="49.98242" lon="2.44464">
        <ele>57.8</ele>
        <time>2023-05-17T13:04:04Z</time>
      </trkpt>
      <trkpt lat="49.98242" lon="2.44465">
        <ele>57.8</ele>
        <time>2023-05-17T13:04:05Z</time>
      </trkpt>
      <trkpt lat="49.98242" lon="2.44467">
        <ele>57.8</ele>
        <time>2023-05-17T13:04:06Z</time>
      </trkpt>
      <trkpt lat="49.98242" lon="2.44468">
        <ele>57.6</ele>
        <time>2023-05-17T13:04:07Z</time>
      </trkpt>
      <trkpt lat="49.98242" lon="2.4447">
        <ele>57.6</ele>
        <time>2023-05-17T13:04:08Z</time>
      </trkpt>
      <trkpt lat="49.98242" lon="2.44471">
        <ele>57.6</ele>
        <time>2023-05-17T13:04:09Z</time>
      </trkpt>
      <trkpt lat="49.98242" lon="2.44473">
        <ele>57.3</ele>
        <time>2023-05-17T13:04:11Z</time>
      </trkpt>
      <trkpt lat="49.98242" lon="2.44475">
        <ele>57.3</ele>
        <time>2023-05-17T13:04:12Z</time>
      </trkpt>
      <trkpt lat="49.98242" lon="2.44478">
        <ele>57.1</ele>
        <time>2023-05-17T13:04:13Z</time>
      </trkpt>
      <trkpt lat="49.98242" lon="2.4448">
        <ele>57.1</ele>
        <time>2023-05-17T13:04:14Z</time>
      </trkpt>
      <trkpt lat="49.98242" lon="2.44481">
        <ele>56.8</ele>
        <time>2023-05-17T13:04:15Z</time>
      </trkpt>
      <trkpt lat="49.98242" lon="2.44483">
        <ele>56.8</ele>
        <time>2023-05-17T13:04:16Z</time>
      </trkpt>
      <trkpt lat="49.98242" lon="2.44484">
        <ele>56.8</ele>
        <time>2023-05-17T13:04:17Z</time>
      </trkpt>
      <trkpt lat="49.98242" lon="2.44486">
        <ele>56.5</ele>
        <time>2023-05-17T13:04:18Z</time>
      </trkpt>
      <trkpt lat="49.98242" lon="2.44489">
        <ele>56.3</ele>
        <time>2023-05-17T13:04:20Z</time>
      </trkpt>
      <trkpt lat="49.98242" lon="2.44491">
        <ele>56.3</ele>
        <time>2023-05-17T13:04:21Z</time>
      </trkpt>
      <trkpt lat="49.98243" lon="2.44492">
        <ele>56.2</ele>
        <time>2023-05-17T13:04:22Z</time>
      </trkpt>
      <trkpt lat="49.98243" lon="2.44494">
        <ele>55.9</ele>
        <time>2023-05-17T13:04:23Z</time>
      </trkpt>
      <trkpt lat="49.98243" lon="2.44496">
        <ele>55.9</ele>
        <time>2023-05-17T13:04:24Z</time>
      </trkpt>
      <trkpt lat="49.98243" lon="2.44498">
        <ele>55.6</ele>
        <time>2023-05-17T13:04:26Z</time>
      </trkpt>
      <trkpt lat="49.98243" lon="2.44501">
        <ele>55.6</ele>
        <time>2023-05-17T13:04:27Z</time>
      </trkpt>
      <trkpt lat="49.98243" lon="2.44502">
        <ele>55.3</ele>
        <time>2023-05-17T13:04:28Z</time>
      </trkpt>
      <trkpt lat="49.98243" lon="2.44504">
        <ele>55.3</ele>
        <time>2023-05-17T13:04:29Z</time>
      </trkpt>
      <trkpt lat="49.98243" lon="2.44506">
        <ele>55</ele>
        <time>2023-05-17T13:04:31Z</time>
      </trkpt>
      <trkpt lat="49.98244" lon="2.44508">
        <ele>55</ele>
        <time>2023-05-17T13:04:32Z</time>
      </trkpt>
      <trkpt lat="49.98244" lon="2.4451">
        <ele>55</ele>
        <time>2023-05-17T13:04:33Z</time>
      </trkpt>
      <trkpt lat="49.98244" lon="2.44512">
        <ele>55</ele>
        <time>2023-05-17T13:04:34Z</time>
      </trkpt>
      <trkpt lat="49.98245" lon="2.44513">
        <ele>54.9</ele>
        <time>2023-05-17T13:04:35Z</time>
      </trkpt>
      <trkpt lat="49.98245" lon="2.44514">
        <ele>54.9</ele>
        <time>2023-05-17T13:04:36Z</time>
      </trkpt>
      <trkpt lat="49.98245" lon="2.44515">
        <ele>54.9</ele>
        <time>2023-05-17T13:04:37Z</time>
      </trkpt>
      <trkpt lat="49.98245" lon="2.44516">
        <ele>54.9</ele>
        <time>2023-05-17T13:04:39Z</time>
      </trkpt>
      <trkpt lat="49.98245" lon="2.44517">
        <ele>54.9</ele>
        <time>2023-05-17T13:04:40Z</time>
      </trkpt>
      <trkpt lat="49.98246" lon="2.44519">
        <ele>54.8</ele>
        <time>2023-05-17T13:04:41Z</time>
      </trkpt>
      <trkpt lat="49.98247" lon="2.4452">
        <ele>54.8</ele>
        <time>2023-05-17T13:04:42Z</time>
      </trkpt>
      <trkpt lat="49.98247" lon="2.44521">
        <ele>54.8</ele>
        <time>2023-05-17T13:04:43Z</time>
      </trkpt>
      <trkpt lat="49.98248" lon="2.44522">
        <ele>54.8</ele>
        <time>2023-05-17T13:04:44Z</time>
      </trkpt>
      <trkpt lat="49.98249" lon="2.44523">
        <ele>54.7</ele>
        <time>2023-05-17T13:04:45Z</time>
      </trkpt>
      <trkpt lat="49.98249" lon="2.44525">
        <ele>54.7</ele>
        <time>2023-05-17T13:04:47Z</time>
      </trkpt>
      <trkpt lat="49.9825" lon="2.44526">
        <ele>54.7</ele>
        <time>2023-05-17T13:04:48Z</time>
      </trkpt>
      <trkpt lat="49.98251" lon="2.44527">
        <ele>54.7</ele>
        <time>2023-05-17T13:04:49Z</time>
      </trkpt>
      <trkpt lat="49.98252" lon="2.44528">
        <ele>54.6</ele>
        <time>2023-05-17T13:04:50Z</time>
      </trkpt>
      <trkpt lat="49.98253" lon="2.44528">
        <ele>54.6</ele>
        <time>2023-05-17T13:04:51Z</time>
      </trkpt>
      <trkpt lat="49.98254" lon="2.44529">
        <ele>54.6</ele>
        <time>2023-05-17T13:04:53Z</time>
      </trkpt>
      <trkpt lat="49.98255" lon="2.4453">
        <ele>54.6</ele>
        <time>2023-05-17T13:04:54Z</time>
      </trkpt>
      <trkpt lat="49.98256" lon="2.44531">
        <ele>54.5</ele>
        <time>2023-05-17T13:04:55Z</time>
      </trkpt>
      <trkpt lat="49.98257" lon="2.44531">
        <ele>54.5</ele>
        <time>2023-05-17T13:04:56Z</time>
      </trkpt>
      <trkpt lat="49.98258" lon="2.44532">
        <ele>54.5</ele>
        <time>2023-05-17T13:04:57Z</time>
      </trkpt>
      <trkpt lat="49.98259" lon="2.44533">
        <ele>54.5</ele>
        <time>2023-05-17T13:04:58Z</time>
      </trkpt>
      <trkpt lat="49.9826" lon="2.44533">
        <ele>54.4</ele>
        <time>2023-05-17T13:04:59Z</time>
      </trkpt>
      <trkpt lat="49.9826" lon="2.44533">
        <ele>54.4</ele>
        <time>2023-05-17T13:05:00Z</time>
      </trkpt>
      <trkpt lat="49.98261" lon="2.44534">
        <ele>54.4</ele>
        <time>2023-05-17T13:05:02Z</time>
      </trkpt>
      <trkpt lat="49.98262" lon="2.44535">
        <ele>54.4</ele>
        <time>2023-05-17T13:05:03Z</time>
      </trkpt>
      <trkpt lat="49.98263" lon="2.44536">
        <ele>54.3</ele>
        <time>2023-05-17T13:05:04Z</time>
      </trkpt>
      <trkpt lat="49.98264" lon="2.44537">
        <ele>54.3</ele>
        <time>2023-05-17T13:05:05Z</time>
      </trkpt>
      <trkpt lat="49.98265" lon="2.44538">
        <ele>54.3</ele>
        <time>2023-05-17T13:05:06Z</time>
      </trkpt>
      <trkpt lat="49.98265" lon="2.44538">
        <ele>54.3</ele>
        <time>2023-05-17T13:05:07Z</time>
      </trkpt>
      <trkpt lat="49.98267" lon="2.4454">
        <ele>54.2</ele>
        <time>2023-05-17T13:05:09Z</time>
      </trkpt>
      <trkpt lat="49.98268" lon="2.44541">
        <ele>54.2</ele>
        <time>2023-05-17T13:05:10Z</time>
      </trkpt>
      <trkpt lat="49.98269" lon="2.44541">
        <ele>54.2</ele>
        <time>2023-05-17T13:05:11Z</time>
      </trkpt>
      <trkpt lat="49.9827" lon="2.44543">
        <ele>54.1</ele>
        <time>2023-05-17T13:05:13Z</time>
      </trkpt>
      <trkpt lat="49.98271" lon="2.44544">
        <ele>54.1</ele>
        <time>2023-05-17T13:05:14Z</time>
      </trkpt>
      <trkpt lat="49.98272" lon="2.44547">
        <ele>54.1</ele>
        <time>2023-05-17T13:05:16Z</time>
      </trkpt>
      <trkpt lat="49.98273" lon="2.44548">
        <ele>54</ele>
        <time>2023-05-17T13:05:17Z</time>
      </trkpt>
      <trkpt lat="49.98273" lon="2.44549">
        <ele>54</ele>
        <time>2023-05-17T13:05:18Z</time>
      </trkpt>
      <trkpt lat="49.98274" lon="2.4455">
        <ele>54</ele>
        <time>2023-05-17T13:05:19Z</time>
      </trkpt>
      <trkpt lat="49.98275" lon="2.44551">
        <ele>54</ele>
        <time>2023-05-17T13:05:20Z</time>
      </trkpt>
      <trkpt lat="49.98275" lon="2.44553">
        <ele>53.9</ele>
        <time>2023-05-17T13:05:21Z</time>
      </trkpt>
      <trkpt lat="49.98277" lon="2.44555">
        <ele>53.9</ele>
        <time>2023-05-17T13:05:22Z</time>
      </trkpt>
      <trkpt lat="49.98277" lon="2.44556">
        <ele>53.9</ele>
        <time>2023-05-17T13:05:24Z</time>
      </trkpt>
      <trkpt lat="49.98278" lon="2.44557">
        <ele>53.8</ele>
        <time>2023-05-17T13:05:25Z</time>
      </trkpt>
      <trkpt lat="49.98279" lon="2.44559">
        <ele>53.8</ele>
        <time>2023-05-17T13:05:26Z</time>
      </trkpt>
      <trkpt lat="49.9828" lon="2.4456">
        <ele>53.8</ele>
        <time>2023-05-17T13:05:27Z</time>
      </trkpt>
      <trkpt lat="49.98281" lon="2.44562">
        <ele>53.7</ele>
        <time>2023-05-17T13:05:29Z</time>
      </trkpt>
      <trkpt lat="49.98281" lon="2.44564">
        <ele>53.7</ele>
        <time>2023-05-17T13:05:30Z</time>
      </trkpt>
      <trkpt lat="49.98282" lon="2.44565">
        <ele>53.7</ele>
        <time>2023-05-17T13:05:31Z</time>
      </trkpt>
      <trkpt lat="49.98282" lon="2.44567">
        <ele>53.7</ele>
        <time>2023-05-17T13:05:32Z</time>
      </trkpt>
      <trkpt lat="49.98283" lon="2.44568">
        <ele>53.6</ele>
        <time>2023-05-17T13:05:33Z</time>
      </trkpt>
      <trkpt lat="49.98283" lon="2.4457">
        <ele>53.6</ele>
        <time>2023-05-17T13:05:34Z</time>
      </trkpt>
      <trkpt lat="49.98284" lon="2.44571">
        <ele>53.6</ele>
        <time>2023-05-17T13:05:35Z</time>
      </trkpt>
      <trkpt lat="49.98284" lon="2.44573">
        <ele>53.6</ele>
        <time>2023-05-17T13:05:36Z</time>
      </trkpt>
      <trkpt lat="49.98285" lon="2.44576">
        <ele>53.5</ele>
        <time>2023-05-17T13:05:38Z</time>
      </trkpt>
      <trkpt lat="49.98286" lon="2.44577">
        <ele>53.5</ele>
        <time>2023-05-17T13:05:39Z</time>
      </trkpt>
      <trkpt lat="49.98286" lon="2.44578">
        <ele>53.5</ele>
        <time>2023-05-17T13:05:40Z</time>
      </trkpt>
      <trkpt lat="49.98286" lon="2.44579">
        <ele>53.4</ele>
        <time>2023-05-17T13:05:41Z</time>
      </trkpt>
      <trkpt lat="49.98287" lon="2.4458">
        <ele>53.4</ele>
        <time>2023-05-17T13:05:42Z</time>
      </trkpt>
      <trkpt lat="49.98288" lon="2.44582">
        <ele>53.4</ele>
        <time>2023-05-17T13:05:44Z</time>
      </trkpt>
      <trkpt lat="49.98289" lon="2.44583">
        <ele>53.4</ele>
        <time>2023-05-17T13:05:45Z</time>
      </trkpt>
      <trkpt lat="49.98289" lon="2.44584">
        <ele>53.3</ele>
        <time>2023-05-17T13:05:46Z</time>
      </trkpt>
      <trkpt lat="49.9829" lon="2.44586">
        <ele>53.3</ele>
        <time>2023-05-17T13:05:48Z</time>
      </trkpt>
      <trkpt lat="49.9829" lon="2.44587">
        <ele>53.3</ele>
        <time>2023-05-17T13:05:49Z</time>
      </trkpt>
      <trkpt lat="49.98291" lon="2.44588">
        <ele>53.3</ele>
        <time>2023-05-17T13:05:50Z</time>
      </trkpt>
      <trkpt lat="49.98291" lon="2.4459">
        <ele>53.2</ele>
        <time>2023-05-17T13:05:51Z</time>
      </trkpt>
      <trkpt lat="49.98292" lon="2.44591">
        <ele>53.2</ele>
        <time>2023-05-17T13:05:52Z</time>
      </trkpt>
      <trkpt lat="49.98292" lon="2.44592">
        <ele>53.2</ele>
        <time>2023-05-17T13:05:54Z</time>
      </trkpt>
      <trkpt lat="49.98293" lon="2.44594">
        <ele>53.2</ele>
        <time>2023-05-17T13:05:55Z</time>
      </trkpt>
      <trkpt lat="49.98293" lon="2.44595">
        <ele>53.1</ele>
        <time>2023-05-17T13:05:56Z</time>
      </trkpt>
      <trkpt lat="49.98294" lon="2.44597">
        <ele>53.1</ele>
        <time>2023-05-17T13:05:57Z</time>
      </trkpt>
      <trkpt lat="49.98295" lon="2.44598">
        <ele>53.1</ele>
        <time>2023-05-17T13:05:58Z</time>
      </trkpt>
      <trkpt lat="49.98295" lon="2.44599">
        <ele>53.1</ele>
        <time>2023-05-17T13:05:59Z</time>
      </trkpt>
      <trkpt lat="49.98296" lon="2.44601">
        <ele>53</ele>
        <time>2023-05-17T13:06:01Z</time>
      </trkpt>
      <trkpt lat="49.98297" lon="2.44602">
        <ele>53</ele>
        <time>2023-05-17T13:06:02Z</time>
      </trkpt>
      <trkpt lat="49.98298" lon="2.44603">
        <ele>53</ele>
        <time>2023-05-17T13:06:03Z</time>
      </trkpt>
      <trkpt lat="49.98298" lon="2.44604">
        <ele>53</ele>
        <time>2023-05-17T13:06:04Z</time>
      </trkpt>
      <trkpt lat="49.98299" lon="2.44605">
        <ele>52.9</ele>
        <time>2023-05-17T13:06:05Z</time>
      </trkpt>
      <trkpt lat="49.98299" lon="2.44606">
        <ele>52.9</ele>
        <time>2023-05-17T13:06:06Z</time>
      </trkpt>
      <trkpt lat="49.983" lon="2.44607">
        <ele>52.9</ele>
        <time>2023-05-17T13:06:08Z</time>
      </trkpt>
      <trkpt lat="49.98301" lon="2.44608">
        <ele>52.9</ele>
        <time>2023-05-17T13:06:09Z</time>
      </trkpt>
      <trkpt lat="49.98302" lon="2.44609">
        <ele>52.8</ele>
        <time>2023-05-17T13:06:10Z</time>
      </trkpt>
      <trkpt lat="49.98303" lon="2.44611">
        <ele>52.8</ele>
        <time>2023-05-17T13:06:12Z</time>
      </trkpt>
      <trkpt lat="49.98304" lon="2.44612">
        <ele>52.8</ele>
        <time>2023-05-17T13:06:13Z</time>
      </trkpt>
      <trkpt lat="49.98305" lon="2.44615">
        <ele>52.7</ele>
        <time>2023-05-17T13:06:14Z</time>
      </trkpt>
      <trkpt lat="49.98305" lon="2.44616">
        <ele>52.7</ele>
        <time>2023-05-17T13:06:15Z</time>
      </trkpt>
      <trkpt lat="49.98306" lon="2.44617">
        <ele>52.7</ele>
        <time>2023-05-17T13:06:16Z</time>
      </trkpt>
      <trkpt lat="49.98307" lon="2.4462">
        <ele>52.6</ele>
        <time>2023-05-17T13:06:17Z</time>
      </trkpt>
      <trkpt lat="49.98308" lon="2.44621">
        <ele>52.6</ele>
        <time>2023-05-17T13:06:19Z</time>
      </trkpt>
      <trkpt lat="49.98308" lon="2.44622">
        <ele>52.6</ele>
        <time>2023-05-17T13:06:20Z</time>
      </trkpt>
      <trkpt lat="49.9831" lon="2.44624">
        <ele>52.5</ele>
        <time>2023-05-17T13:06:21Z</time>
      </trkpt>
      <trkpt lat="49.98311" lon="2.44625">
        <ele>52.5</ele>
        <time>2023-05-17T13:06:22Z</time>
      </trkpt>
      <trkpt lat="49.98311" lon="2.44626">
        <ele>52.5</ele>
        <time>2023-05-17T13:06:23Z</time>
      </trkpt>
      <trkpt lat="49.98313" lon="2.44627">
        <ele>52.4</ele>
        <time>2023-05-17T13:06:24Z</time>
      </trkpt>
      <trkpt lat="49.98314" lon="2.44628">
        <ele>52.4</ele>
        <time>2023-05-17T13:06:26Z</time>
      </trkpt>
      <trkpt lat="49.98315" lon="2.44629">
        <ele>52.4</ele>
        <time>2023-05-17T13:06:27Z</time>
      </trkpt>
      <trkpt lat="49.98316" lon="2.44629">
        <ele>52.4</ele>
        <time>2023-05-17T13:06:28Z</time>
      </trkpt>
      <trkpt lat="49.98317" lon="2.4463">
        <ele>52.3</ele>
        <time>2023-05-17T13:06:29Z</time>
      </trkpt>
      <trkpt lat="49.98319" lon="2.44632">
        <ele>52.3</ele>
        <time>2023-05-17T13:06:30Z</time>
      </trkpt>
      <trkpt lat="49.98319" lon="2.44633">
        <ele>52.3</ele>
        <time>2023-05-17T13:06:31Z</time>
      </trkpt>
      <trkpt lat="49.9832" lon="2.44634">
        <ele>52.2</ele>
        <time>2023-05-17T13:06:32Z</time>
      </trkpt>
      <trkpt lat="49.98322" lon="2.44636">
        <ele>52.2</ele>
        <time>2023-05-17T13:06:33Z</time>
      </trkpt>
      <trkpt lat="49.98322" lon="2.44637">
        <ele>52.2</ele>
        <time>2023-05-17T13:06:35Z</time>
      </trkpt>
      <trkpt lat="49.98323" lon="2.44638">
        <ele>52.2</ele>
        <time>2023-05-17T13:06:36Z</time>
      </trkpt>
      <trkpt lat="49.98324" lon="2.44639">
        <ele>52.1</ele>
        <time>2023-05-17T13:06:37Z</time>
      </trkpt>
      <trkpt lat="49.98324" lon="2.4464">
        <ele>52.1</ele>
        <time>2023-05-17T13:06:38Z</time>
      </trkpt>
      <trkpt lat="49.98325" lon="2.44641">
        <ele>52.1</ele>
        <time>2023-05-17T13:06:39Z</time>
      </trkpt>
      <trkpt lat="49.98325" lon="2.44642">
        <ele>52.1</ele>
        <time>2023-05-17T13:06:40Z</time>
      </trkpt>
      <trkpt lat="49.98326" lon="2.44643">
        <ele>52.1</ele>
        <time>2023-05-17T13:06:42Z</time>
      </trkpt>
      <trkpt lat="49.98326" lon="2.44644">
        <ele>52</ele>
        <time>2023-05-17T13:06:43Z</time>
      </trkpt>
      <trkpt lat="49.98327" lon="2.44645">
        <ele>52</ele>
        <time>2023-05-17T13:06:44Z</time>
      </trkpt>
      <trkpt lat="49.98327" lon="2.44646">
        <ele>52</ele>
        <time>2023-05-17T13:06:45Z</time>
      </trkpt>
      <trkpt lat="49.98327" lon="2.44647">
        <ele>52</ele>
        <time>2023-05-17T13:06:46Z</time>
      </trkpt>
      <trkpt lat="49.98328" lon="2.44649">
        <ele>51.9</ele>
        <time>2023-05-17T13:06:47Z</time>
      </trkpt>
      <trkpt lat="49.98328" lon="2.4465">
        <ele>51.9</ele>
        <time>2023-05-17T13:06:49Z</time>
      </trkpt>
      <trkpt lat="49.98329" lon="2.44651">
        <ele>51.9</ele>
        <time>2023-05-17T13:06:50Z</time>
      </trkpt>
      <trkpt lat="49.98329" lon="2.44651">
        <ele>51.9</ele>
        <time>2023-05-17T13:06:51Z</time>
      </trkpt>
      <trkpt lat="49.9833" lon="2.44652">
        <ele>51.9</ele>
        <time>2023-05-17T13:06:53Z</time>
      </trkpt>
      <trkpt lat="49.9833" lon="2.44653">
        <ele>51.9</ele>
        <time>2023-05-17T13:06:54Z</time>
      </trkpt>
      <trkpt lat="49.98331" lon="2.44654">
        <ele>51.8</ele>
        <time>2023-05-17T13:06:55Z</time>
      </trkpt>
      <trkpt lat="49.98332" lon="2.44655">
        <ele>51.8</ele>
        <time>2023-05-17T13:06:56Z</time>
      </trkpt>
      <trkpt lat="49.98332" lon="2.44656">
        <ele>51.8</ele>
        <time>2023-05-17T13:06:57Z</time>
      </trkpt>
      <trkpt lat="49.98333" lon="2.44657">
        <ele>51.8</ele>
        <time>2023-05-17T13:06:59Z</time>
      </trkpt>
      <trkpt lat="49.98334" lon="2.44658">
        <ele>51.7</ele>
        <time>2023-05-17T13:07:00Z</time>
      </trkpt>
      <trkpt lat="49.98335" lon="2.44659">
        <ele>51.7</ele>
        <time>2023-05-17T13:07:01Z</time>
      </trkpt>
      <trkpt lat="49.98336" lon="2.4466">
        <ele>51.7</ele>
        <time>2023-05-17T13:07:02Z</time>
      </trkpt>
      <trkpt lat="49.98336" lon="2.44661">
        <ele>51.7</ele>
        <time>2023-05-17T13:07:03Z</time>
      </trkpt>
      <trkpt lat="49.98337" lon="2.44662">
        <ele>51.6</ele>
        <time>2023-05-17T13:07:04Z</time>
      </trkpt>
      <trkpt lat="49.98338" lon="2.44664">
        <ele>51.6</ele>
        <time>2023-05-17T13:07:06Z</time>
      </trkpt>
      <trkpt lat="49.9834" lon="2.44666">
        <ele>51.5</ele>
        <time>2023-05-17T13:07:07Z</time>
      </trkpt>
      <trkpt lat="49.9834" lon="2.44667">
        <ele>51.5</ele>
        <time>2023-05-17T13:07:08Z</time>
      </trkpt>
      <trkpt lat="49.98341" lon="2.44668">
        <ele>51.5</ele>
        <time>2023-05-17T13:07:09Z</time>
      </trkpt>
      <trkpt lat="49.98342" lon="2.44669">
        <ele>51.5</ele>
        <time>2023-05-17T13:07:10Z</time>
      </trkpt>
      <trkpt lat="49.98343" lon="2.44671">
        <ele>51.4</ele>
        <time>2023-05-17T13:07:11Z</time>
      </trkpt>
      <trkpt lat="49.98344" lon="2.44673">
        <ele>51.4</ele>
        <time>2023-05-17T13:07:13Z</time>
      </trkpt>
      <trkpt lat="49.98344" lon="2.44674">
        <ele>51.4</ele>
        <time>2023-05-17T13:07:14Z</time>
      </trkpt>
      <trkpt lat="49.98346" lon="2.44677">
        <ele>51.3</ele>
        <time>2023-05-17T13:07:15Z</time>
      </trkpt>
      <trkpt lat="49.98346" lon="2.44678">
        <ele>51.3</ele>
        <time>2023-05-17T13:07:16Z</time>
      </trkpt>
      <trkpt lat="49.98347" lon="2.44679">
        <ele>51.3</ele>
        <time>2023-05-17T13:07:17Z</time>
      </trkpt>
      <trkpt lat="49.98348" lon="2.4468">
        <ele>51.3</ele>
        <time>2023-05-17T13:07:18Z</time>
      </trkpt>
      <trkpt lat="49.98349" lon="2.44682">
        <ele>51.2</ele>
        <time>2023-05-17T13:07:20Z</time>
      </trkpt>
      <trkpt lat="49.9835" lon="2.44684">
        <ele>51.2</ele>
        <time>2023-05-17T13:07:21Z</time>
      </trkpt>
      <trkpt lat="49.98351" lon="2.44686">
        <ele>51.1</ele>
        <time>2023-05-17T13:07:22Z</time>
      </trkpt>
      <trkpt lat="49.98352" lon="2.44687">
        <ele>51.1</ele>
        <time>2023-05-17T13:07:23Z</time>
      </trkpt>
      <trkpt lat="49.98353" lon="2.44688">
        <ele>51.1</ele>
        <time>2023-05-17T13:07:24Z</time>
      </trkpt>
      <trkpt lat="49.98354" lon="2.4469">
        <ele>51</ele>
        <time>2023-05-17T13:07:26Z</time>
      </trkpt>
      <trkpt lat="49.98356" lon="2.44692">
        <ele>51</ele>
        <time>2023-05-17T13:07:27Z</time>
      </trkpt>
      <trkpt lat="49.98357" lon="2.44693">
        <ele>51</ele>
        <time>2023-05-17T13:07:29Z</time>
      </trkpt>
      <trkpt lat="49.98358" lon="2.44695">
        <ele>50.9</ele>
        <time>2023-05-17T13:07:30Z</time>
      </trkpt>
      <trkpt lat="49.98359" lon="2.44696">
        <ele>50.9</ele>
        <time>2023-05-17T13:07:31Z</time>
      </trkpt>
      <trkpt lat="49.9836" lon="2.44697">
        <ele>50.9</ele>
        <time>2023-05-17T13:07:32Z</time>
      </trkpt>
      <trkpt lat="49.9836" lon="2.44699">
        <ele>50.8</ele>
        <time>2023-05-17T13:07:33Z</time>
      </trkpt>
      <trkpt lat="49.98361" lon="2.447">
        <ele>50.8</ele>
        <time>2023-05-17T13:07:35Z</time>
      </trkpt>
      <trkpt lat="49.98362" lon="2.44701">
        <ele>50.8</ele>
        <time>2023-05-17T13:07:36Z</time>
      </trkpt>
      <trkpt lat="49.98363" lon="2.44702">
        <ele>50.8</ele>
        <time>2023-05-17T13:07:38Z</time>
      </trkpt>
      <trkpt lat="49.98364" lon="2.44702">
        <ele>50.7</ele>
        <time>2023-05-17T13:07:39Z</time>
      </trkpt>
      <trkpt lat="49.98364" lon="2.44703">
        <ele>50.7</ele>
        <time>2023-05-17T13:07:40Z</time>
      </trkpt>
      <trkpt lat="49.98365" lon="2.44704">
        <ele>50.7</ele>
        <time>2023-05-17T13:07:41Z</time>
      </trkpt>
      <trkpt lat="49.98366" lon="2.44706">
        <ele>50.7</ele>
        <time>2023-05-17T13:07:43Z</time>
      </trkpt>
      <trkpt lat="49.98366" lon="2.44707">
        <ele>50.6</ele>
        <time>2023-05-17T13:07:44Z</time>
      </trkpt>
      <trkpt lat="49.98366" lon="2.44709">
        <ele>50.6</ele>
        <time>2023-05-17T13:07:46Z</time>
      </trkpt>
      <trkpt lat="49.98367" lon="2.4471">
        <ele>50.6</ele>
        <time>2023-05-17T13:07:47Z</time>
      </trkpt>
      <trkpt lat="49.98367" lon="2.44712">
        <ele>50.6</ele>
        <time>2023-05-17T13:07:48Z</time>
      </trkpt>
      <trkpt lat="49.98368" lon="2.44714">
        <ele>50.5</ele>
        <time>2023-05-17T13:07:49Z</time>
      </trkpt>
      <trkpt lat="49.98368" lon="2.44715">
        <ele>50.5</ele>
        <time>2023-05-17T13:07:50Z</time>
      </trkpt>
      <trkpt lat="49.98369" lon="2.44716">
        <ele>50.5</ele>
        <time>2023-05-17T13:07:52Z</time>
      </trkpt>
      <trkpt lat="49.9837" lon="2.44717">
        <ele>50.5</ele>
        <time>2023-05-17T13:07:53Z</time>
      </trkpt>
      <trkpt lat="49.9837" lon="2.44718">
        <ele>50.4</ele>
        <time>2023-05-17T13:07:54Z</time>
      </trkpt>
      <trkpt lat="49.98371" lon="2.44719">
        <ele>50.4</ele>
        <time>2023-05-17T13:07:55Z</time>
      </trkpt>
      <trkpt lat="49.98372" lon="2.44719">
        <ele>50.4</ele>
        <time>2023-05-17T13:07:56Z</time>
      </trkpt>
      <trkpt lat="49.98372" lon="2.4472">
        <ele>50.4</ele>
        <time>2023-05-17T13:07:57Z</time>
      </trkpt>
      <trkpt lat="49.98373" lon="2.44721">
        <ele>50.3</ele>
        <time>2023-05-17T13:07:59Z</time>
      </trkpt>
      <trkpt lat="49.98374" lon="2.44723">
        <ele>50.3</ele>
        <time>2023-05-17T13:08:00Z</time>
      </trkpt>
      <trkpt lat="49.98374" lon="2.44724">
        <ele>50.3</ele>
        <time>2023-05-17T13:08:01Z</time>
      </trkpt>
      <trkpt lat="49.98375" lon="2.44726">
        <ele>50.3</ele>
        <time>2023-05-17T13:08:03Z</time>
      </trkpt>
      <trkpt lat="49.98375" lon="2.44727">
        <ele>50.2</ele>
        <time>2023-05-17T13:08:04Z</time>
      </trkpt>
      <trkpt lat="49.98376" lon="2.44729">
        <ele>50.2</ele>
        <time>2023-05-17T13:08:05Z</time>
      </trkpt>
      <trkpt lat="49.98376" lon="2.4473">
        <ele>50.2</ele>
        <time>2023-05-17T13:08:06Z</time>
      </trkpt>
      <trkpt lat="49.98377" lon="2.44732">
        <ele>50.2</ele>
        <time>2023-05-17T13:08:07Z</time>
      </trkpt>
      <trkpt lat="49.98378" lon="2.44733">
        <ele>50.1</ele>
        <time>2023-05-17T13:08:08Z</time>
      </trkpt>
      <trkpt lat="49.98378" lon="2.44734">
        <ele>50.1</ele>
        <time>2023-05-17T13:08:09Z</time>
      </trkpt>
      <trkpt lat="49.9838" lon="2.44737">
        <ele>50.1</ele>
        <time>2023-05-17T13:08:10Z</time>
      </trkpt>
      <trkpt lat="49.9838" lon="2.44738">
        <ele>50</ele>
        <time>2023-05-17T13:08:12Z</time>
      </trkpt>
      <trkpt lat="49.98381" lon="2.44739">
        <ele>50</ele>
        <time>2023-05-17T13:08:13Z</time>
      </trkpt>
      <trkpt lat="49.98381" lon="2.4474">
        <ele>50</ele>
        <time>2023-05-17T13:08:14Z</time>
      </trkpt>
      <trkpt lat="49.98382" lon="2.44742">
        <ele>50</ele>
        <time>2023-05-17T13:08:15Z</time>
      </trkpt>
      <trkpt lat="49.98383" lon="2.44744">
        <ele>49.9</ele>
        <time>2023-05-17T13:08:17Z</time>
      </trkpt>
      <trkpt lat="49.98384" lon="2.44745">
        <ele>49.9</ele>
        <time>2023-05-17T13:08:18Z</time>
      </trkpt>
      <trkpt lat="49.98384" lon="2.44747">
        <ele>49.9</ele>
        <time>2023-05-17T13:08:20Z</time>
      </trkpt>
      <trkpt lat="49.98385" lon="2.44748">
        <ele>49.8</ele>
        <time>2023-05-17T13:08:21Z</time>
      </trkpt>
      <trkpt lat="49.98386" lon="2.44749">
        <ele>49.8</ele>
        <time>2023-05-17T13:08:22Z</time>
      </trkpt>
      <trkpt lat="49.98386" lon="2.4475">
        <ele>49.8</ele>
        <time>2023-05-17T13:08:23Z</time>
      </trkpt>
      <trkpt lat="49.98387" lon="2.44751">
        <ele>49.8</ele>
        <time>2023-05-17T13:08:24Z</time>
      </trkpt>
      <trkpt lat="49.98388" lon="2.44753">
        <ele>49.7</ele>
        <time>2023-05-17T13:08:26Z</time>
      </trkpt>
      <trkpt lat="49.98389" lon="2.44754">
        <ele>49.7</ele>
        <time>2023-05-17T13:08:27Z</time>
      </trkpt>
      <trkpt lat="49.9839" lon="2.44755">
        <ele>49.7</ele>
        <time>2023-05-17T13:08:28Z</time>
      </trkpt>
      <trkpt lat="49.98391" lon="2.44756">
        <ele>49.7</ele>
        <time>2023-05-17T13:08:29Z</time>
      </trkpt>
      <trkpt lat="49.98391" lon="2.44757">
        <ele>49.6</ele>
        <time>2023-05-17T13:08:30Z</time>
      </trkpt>
      <trkpt lat="49.98392" lon="2.44758">
        <ele>49.6</ele>
        <time>2023-05-17T13:08:31Z</time>
      </trkpt>
      <trkpt lat="49.98393" lon="2.4476">
        <ele>49.6</ele>
        <time>2023-05-17T13:08:33Z</time>
      </trkpt>
      <trkpt lat="49.98393" lon="2.44761">
        <ele>49.5</ele>
        <time>2023-05-17T13:08:34Z</time>
      </trkpt>
      <trkpt lat="49.98394" lon="2.44763">
        <ele>49.5</ele>
        <time>2023-05-17T13:08:35Z</time>
      </trkpt>
      <trkpt lat="49.98394" lon="2.44764">
        <ele>49.5</ele>
        <time>2023-05-17T13:08:37Z</time>
      </trkpt>
      <trkpt lat="49.98394" lon="2.44766">
        <ele>49.5</ele>
        <time>2023-05-17T13:08:38Z</time>
      </trkpt>
      <trkpt lat="49.98395" lon="2.44768">
        <ele>49.4</ele>
        <time>2023-05-17T13:08:39Z</time>
      </trkpt>
      <trkpt lat="49.98396" lon="2.44769">
        <ele>49.4</ele>
        <time>2023-05-17T13:08:40Z</time>
      </trkpt>
      <trkpt lat="49.98396" lon="2.44769">
        <ele>49.4</ele>
        <time>2023-05-17T13:08:41Z</time>
      </trkpt>
      <trkpt lat="49.98398" lon="2.44768">
        <ele>49.4</ele>
        <time>2023-05-17T13:08:43Z</time>
      </trkpt>
      <trkpt lat="49.98399" lon="2.44767">
        <ele>49.3</ele>
        <time>2023-05-17T13:08:44Z</time>
      </trkpt>
      <trkpt lat="49.984" lon="2.44766">
        <ele>49.3</ele>
        <time>2023-05-17T13:08:45Z</time>
      </trkpt>
      <trkpt lat="49.98401" lon="2.44766">
        <ele>49.3</ele>
        <time>2023-05-17T13:08:46Z</time>
      </trkpt>
      <trkpt lat="49.98402" lon="2.44766">
        <ele>49.3</ele>
        <time>2023-05-17T13:08:47Z</time>
      </trkpt>
      <trkpt lat="49.98402" lon="2.44766">
        <ele>49.2</ele>
        <time>2023-05-17T13:08:48Z</time>
      </trkpt>
      <trkpt lat="49.98403" lon="2.44766">
        <ele>49.2</ele>
        <time>2023-05-17T13:08:49Z</time>
      </trkpt>
      <trkpt lat="49.98404" lon="2.44767">
        <ele>49.2</ele>
        <time>2023-05-17T13:08:51Z</time>
      </trkpt>
      <trkpt lat="49.98404" lon="2.44768">
        <ele>49.2</ele>
        <time>2023-05-17T13:08:53Z</time>
      </trkpt>
      <trkpt lat="49.98405" lon="2.44769">
        <ele>49.2</ele>
        <time>2023-05-17T13:08:54Z</time>
      </trkpt>
      <trkpt lat="49.98404" lon="2.44771">
        <ele>49.1</ele>
        <time>2023-05-17T13:08:55Z</time>
      </trkpt>
      <trkpt lat="49.98404" lon="2.44773">
        <ele>49.1</ele>
        <time>2023-05-17T13:08:57Z</time>
      </trkpt>
      <trkpt lat="49.98403" lon="2.44774">
        <ele>49.1</ele>
        <time>2023-05-17T13:08:59Z</time>
      </trkpt>
      <trkpt lat="49.98403" lon="2.44776">
        <ele>49</ele>
        <time>2023-05-17T13:09:00Z</time>
      </trkpt>
      <trkpt lat="49.98403" lon="2.44777">
        <ele>49</ele>
        <time>2023-05-17T13:09:01Z</time>
      </trkpt>
      <trkpt lat="49.98403" lon="2.44777">
        <ele>49</ele>
        <time>2023-05-17T13:09:02Z</time>
      </trkpt>
      <trkpt lat="49.98404" lon="2.44777">
        <ele>49</ele>
        <time>2023-05-17T13:09:04Z</time>
      </trkpt>
      <trkpt lat="49.98404" lon="2.44777">
        <ele>49</ele>
        <time>2023-05-17T13:09:05Z</time>
      </trkpt>
      <trkpt lat="49.98405" lon="2.44777">
        <ele>49</ele>
        <time>2023-05-17T13:09:06Z</time>
      </trkpt>
      <trkpt lat="49.98406" lon="2.44777">
        <ele>49</ele>
        <time>2023-05-17T13:09:07Z</time>
      </trkpt>
      <trkpt lat="49.98406" lon="2.44777">
        <ele>49</ele>
        <time>2023-05-17T13:09:09Z</time>
      </trkpt>
      <trkpt lat="49.98407" lon="2.44777">
        <ele>48.9</ele>
        <time>2023-05-17T13:09:10Z</time>
      </trkpt>
      <trkpt lat="49.98408" lon="2.44778">
        <ele>48.9</ele>
        <time>2023-05-17T13:09:11Z</time>
      </trkpt>
      <trkpt lat="49.98408" lon="2.44778">
        <ele>48.9</ele>
        <time>2023-05-17T13:09:12Z</time>
      </trkpt>
      <trkpt lat="49.98409" lon="2.44779">
        <ele>48.9</ele>
        <time>2023-05-17T13:09:13Z</time>
      </trkpt>
      <trkpt lat="49.98409" lon="2.44779">
        <ele>48.9</ele>
        <time>2023-05-17T13:09:14Z</time>
      </trkpt>
      <trkpt lat="49.9841" lon="2.4478">
        <ele>48.9</ele>
        <time>2023-05-17T13:09:15Z</time>
      </trkpt>
      <trkpt lat="49.98411" lon="2.44781">
        <ele>48.8</ele>
        <time>2023-05-17T13:09:17Z</time>
      </trkpt>
      <trkpt lat="49.98412" lon="2.44782">
        <ele>48.8</ele>
        <time>2023-05-17T13:09:18Z</time>
      </trkpt>
      <trkpt lat="49.98413" lon="2.44783">
        <ele>48.8</ele>
        <time>2023-05-17T13:09:20Z</time>
      </trkpt>
      <trkpt lat="49.98414" lon="2.44783">
        <ele>48.7</ele>
        <time>2023-05-17T13:09:21Z</time>
      </trkpt>
      <trkpt lat="49.98415" lon="2.44784">
        <ele>48.7</ele>
        <time>2023-05-17T13:09:22Z</time>
      </trkpt>
      <trkpt lat="49.98416" lon="2.44785">
        <ele>48.7</ele>
        <time>2023-05-17T13:09:23Z</time>
      </trkpt>
      <trkpt lat="49.98416" lon="2.44786">
        <ele>48.7</ele>
        <time>2023-05-17T13:09:24Z</time>
      </trkpt>
      <trkpt lat="49.98417" lon="2.44785">
        <ele>48.7</ele>
        <time>2023-05-17T13:09:26Z</time>
      </trkpt>
      <trkpt lat="49.98416" lon="2.44784">
        <ele>48.6</ele>
        <time>2023-05-17T13:09:27Z</time>
      </trkpt>
      <trkpt lat="49.98415" lon="2.44785">
        <ele>48.6</ele>
        <time>2023-05-17T13:09:29Z</time>
      </trkpt>
      <trkpt lat="49.98414" lon="2.44785">
        <ele>48.6</ele>
        <time>2023-05-17T13:09:30Z</time>
      </trkpt>
      <trkpt lat="49.98414" lon="2.44785">
        <ele>48.6</ele>
        <time>2023-05-17T13:09:31Z</time>
      </trkpt>
      <trkpt lat="49.98414" lon="2.44786">
        <ele>48.6</ele>
        <time>2023-05-17T13:09:33Z</time>
      </trkpt>
      <trkpt lat="49.98415" lon="2.44786">
        <ele>48.6</ele>
        <time>2023-05-17T13:09:34Z</time>
      </trkpt>
      <trkpt lat="49.98415" lon="2.44786">
        <ele>48.6</ele>
        <time>2023-05-17T13:09:36Z</time>
      </trkpt>
      <trkpt lat="49.98415" lon="2.44787">
        <ele>48.6</ele>
        <time>2023-05-17T13:09:37Z</time>
      </trkpt>
      <trkpt lat="49.98415" lon="2.44788">
        <ele>48.5</ele>
        <time>2023-05-17T13:09:39Z</time>
      </trkpt>
      <trkpt lat="49.98415" lon="2.44789">
        <ele>48.5</ele>
        <time>2023-05-17T13:09:40Z</time>
      </trkpt>
      <trkpt lat="49.98415" lon="2.44791">
        <ele>48.5</ele>
        <time>2023-05-17T13:09:42Z</time>
      </trkpt>
      <trkpt lat="49.98415" lon="2.44793">
        <ele>48.5</ele>
        <time>2023-05-17T13:09:43Z</time>
      </trkpt>
      <trkpt lat="49.98416" lon="2.44794">
        <ele>48.4</ele>
        <time>2023-05-17T13:09:44Z</time>
      </trkpt>
      <trkpt lat="49.98417" lon="2.44795">
        <ele>48.4</ele>
        <time>2023-05-17T13:09:46Z</time>
      </trkpt>
      <trkpt lat="49.98418" lon="2.44796">
        <ele>48.4</ele>
        <time>2023-05-17T13:09:47Z</time>
      </trkpt>
      <trkpt lat="49.98419" lon="2.44797">
        <ele>48.4</ele>
        <time>2023-05-17T13:09:48Z</time>
      </trkpt>
      <trkpt lat="49.9842" lon="2.44799">
        <ele>48.3</ele>
        <time>2023-05-17T13:09:49Z</time>
      </trkpt>
      <trkpt lat="49.98421" lon="2.44801">
        <ele>48.3</ele>
        <time>2023-05-17T13:09:50Z</time>
      </trkpt>
      <trkpt lat="49.98421" lon="2.44803">
        <ele>48.3</ele>
        <time>2023-05-17T13:09:51Z</time>
      </trkpt>
      <trkpt lat="49.98422" lon="2.44805">
        <ele>48.2</ele>
        <time>2023-05-17T13:09:53Z</time>
      </trkpt>
      <trkpt lat="49.98423" lon="2.44807">
        <ele>48.2</ele>
        <time>2023-05-17T13:09:54Z</time>
      </trkpt>
      <trkpt lat="49.98424" lon="2.44808">
        <ele>48.1</ele>
        <time>2023-05-17T13:09:55Z</time>
      </trkpt>
      <trkpt lat="49.98424" lon="2.4481">
        <ele>48.1</ele>
        <time>2023-05-17T13:09:56Z</time>
      </trkpt>
      <trkpt lat="49.98425" lon="2.44811">
        <ele>48.1</ele>
        <time>2023-05-17T13:09:57Z</time>
      </trkpt>
      <trkpt lat="49.98426" lon="2.44812">
        <ele>48.1</ele>
        <time>2023-05-17T13:09:58Z</time>
      </trkpt>
      <trkpt lat="49.98428" lon="2.44815">
        <ele>48</ele>
        <time>2023-05-17T13:10:00Z</time>
      </trkpt>
      <trkpt lat="49.98428" lon="2.44816">
        <ele>48</ele>
        <time>2023-05-17T13:10:01Z</time>
      </trkpt>
      <trkpt lat="49.98429" lon="2.44817">
        <ele>48</ele>
        <time>2023-05-17T13:10:02Z</time>
      </trkpt>
      <trkpt lat="49.9843" lon="2.44819">
        <ele>47.9</ele>
        <time>2023-05-17T13:10:03Z</time>
      </trkpt>
      <trkpt lat="49.98431" lon="2.4482">
        <ele>47.9</ele>
        <time>2023-05-17T13:10:04Z</time>
      </trkpt>
      <trkpt lat="49.98431" lon="2.44821">
        <ele>47.9</ele>
        <time>2023-05-17T13:10:06Z</time>
      </trkpt>
      <trkpt lat="49.98433" lon="2.44823">
        <ele>47.8</ele>
        <time>2023-05-17T13:10:07Z</time>
      </trkpt>
      <trkpt lat="49.98434" lon="2.44824">
        <ele>47.8</ele>
        <time>2023-05-17T13:10:08Z</time>
      </trkpt>
      <trkpt lat="49.98435" lon="2.44826">
        <ele>47.8</ele>
        <time>2023-05-17T13:10:09Z</time>
      </trkpt>
      <trkpt lat="49.98436" lon="2.44828">
        <ele>47.7</ele>
        <time>2023-05-17T13:10:10Z</time>
      </trkpt>
      <trkpt lat="49.98436" lon="2.4483">
        <ele>47.7</ele>
        <time>2023-05-17T13:10:11Z</time>
      </trkpt>
      <trkpt lat="49.98437" lon="2.44833">
        <ele>47.6</ele>
        <time>2023-05-17T13:10:12Z</time>
      </trkpt>
      <trkpt lat="49.98439" lon="2.44837">
        <ele>47.6</ele>
        <time>2023-05-17T13:10:14Z</time>
      </trkpt>
      <trkpt lat="49.98439" lon="2.44838">
        <ele>47.5</ele>
        <time>2023-05-17T13:10:15Z</time>
      </trkpt>
      <trkpt lat="49.9844" lon="2.4484">
        <ele>47.5</ele>
        <time>2023-05-17T13:10:16Z</time>
      </trkpt>
      <trkpt lat="49.98441" lon="2.44842">
        <ele>47.5</ele>
        <time>2023-05-17T13:10:18Z</time>
      </trkpt>
      <trkpt lat="49.98441" lon="2.44844">
        <ele>47.4</ele>
        <time>2023-05-17T13:10:19Z</time>
      </trkpt>
      <trkpt lat="49.9844" lon="2.44846">
        <ele>47.4</ele>
        <time>2023-05-17T13:10:20Z</time>
      </trkpt>
      <trkpt lat="49.9844" lon="2.44848">
        <ele>47.4</ele>
        <time>2023-05-17T13:10:22Z</time>
      </trkpt>
      <trkpt lat="49.9844" lon="2.44849">
        <ele>47.4</ele>
        <time>2023-05-17T13:10:23Z</time>
      </trkpt>
      <trkpt lat="49.9844" lon="2.4485">
        <ele>47.4</ele>
        <time>2023-05-17T13:10:25Z</time>
      </trkpt>
      <trkpt lat="49.9844" lon="2.4485">
        <ele>47.4</ele>
        <time>2023-05-17T13:10:26Z</time>
      </trkpt>
      <trkpt lat="49.9844" lon="2.4485">
        <ele>47.4</ele>
        <time>2023-05-17T13:10:27Z</time>
      </trkpt>
      <trkpt lat="49.9844" lon="2.4485">
        <ele>47.4</ele>
        <time>2023-05-17T13:10:29Z</time>
      </trkpt>
      <trkpt lat="49.9844" lon="2.44849">
        <ele>47.4</ele>
        <time>2023-05-17T13:10:30Z</time>
      </trkpt>
      <trkpt lat="49.98441" lon="2.44849">
        <ele>47.4</ele>
        <time>2023-05-17T13:10:32Z</time>
      </trkpt>
      <trkpt lat="49.98441" lon="2.44849">
        <ele>47.4</ele>
        <time>2023-05-17T13:10:33Z</time>
      </trkpt>
      <trkpt lat="49.98442" lon="2.44848">
        <ele>47.4</ele>
        <time>2023-05-17T13:10:35Z</time>
      </trkpt>
      <trkpt lat="49.98442" lon="2.44848">
        <ele>47.4</ele>
        <time>2023-05-17T13:10:36Z</time>
      </trkpt>
      <trkpt lat="49.98442" lon="2.44847">
        <ele>47.3</ele>
        <time>2023-05-17T13:10:37Z</time>
      </trkpt>
      <trkpt lat="49.98442" lon="2.44847">
        <ele>47.3</ele>
        <time>2023-05-17T13:10:39Z</time>
      </trkpt>
      <trkpt lat="49.98443" lon="2.44847">
        <ele>47.3</ele>
        <time>2023-05-17T13:10:40Z</time>
      </trkpt>
      <trkpt lat="49.98443" lon="2.44847">
        <ele>47.3</ele>
        <time>2023-05-17T13:10:41Z</time>
      </trkpt>
      <trkpt lat="49.98443" lon="2.44848">
        <ele>47.3</ele>
        <time>2023-05-17T13:10:43Z</time>
      </trkpt>
      <trkpt lat="49.98442" lon="2.44848">
        <ele>47.3</ele>
        <time>2023-05-17T13:10:44Z</time>
      </trkpt>
      <trkpt lat="49.98442" lon="2.44848">
        <ele>47.3</ele>
        <time>2023-05-17T13:10:46Z</time>
      </trkpt>
      <trkpt lat="49.98442" lon="2.44848">
        <ele>47.3</ele>
        <time>2023-05-17T13:10:47Z</time>
      </trkpt>
      <trkpt lat="49.98442" lon="2.44848">
        <ele>47.3</ele>
        <time>2023-05-17T13:10:49Z</time>
      </trkpt>
      <trkpt lat="49.98443" lon="2.44848">
        <ele>47.3</ele>
        <time>2023-05-17T13:10:50Z</time>
      </trkpt>
      <trkpt lat="49.98443" lon="2.44849">
        <ele>47.3</ele>
        <time>2023-05-17T13:10:52Z</time>
      </trkpt>
      <trkpt lat="49.98444" lon="2.44844">
        <ele>47.3</ele>
        <time>2023-05-17T13:13:21Z</time>
      </trkpt>
      <trkpt lat="49.98444" lon="2.44844">
        <ele>47.3</ele>
        <time>2023-05-17T13:13:22Z</time>
      </trkpt>
      <trkpt lat="49.98444" lon="2.44844">
        <ele>47.3</ele>
        <time>2023-05-17T13:13:23Z</time>
      </trkpt>
      <trkpt lat="49.98445" lon="2.44843">
        <ele>47.3</ele>
        <time>2023-05-17T13:13:25Z</time>
      </trkpt>
      <trkpt lat="49.98445" lon="2.44843">
        <ele>47.3</ele>
        <time>2023-05-17T13:13:26Z</time>
      </trkpt>
      <trkpt lat="49.98445" lon="2.44844">
        <ele>47.3</ele>
        <time>2023-05-17T13:13:27Z</time>
      </trkpt>
      <trkpt lat="49.98446" lon="2.44844">
        <ele>47.3</ele>
        <time>2023-05-17T13:13:28Z</time>
      </trkpt>
      <trkpt lat="49.98446" lon="2.44845">
        <ele>47.3</ele>
        <time>2023-05-17T13:13:29Z</time>
      </trkpt>
      <trkpt lat="49.98447" lon="2.44847">
        <ele>47.3</ele>
        <time>2023-05-17T13:13:30Z</time>
      </trkpt>
      <trkpt lat="49.98446" lon="2.44852">
        <ele>47.2</ele>
        <time>2023-05-17T13:13:32Z</time>
      </trkpt>
      <trkpt lat="49.98445" lon="2.44853">
        <ele>47.2</ele>
        <time>2023-05-17T13:13:33Z</time>
      </trkpt>
      <trkpt lat="49.98444" lon="2.44855">
        <ele>47.2</ele>
        <time>2023-05-17T13:13:35Z</time>
      </trkpt>
      <trkpt lat="49.98444" lon="2.44856">
        <ele>47.2</ele>
        <time>2023-05-17T13:13:36Z</time>
      </trkpt>
      <trkpt lat="49.98443" lon="2.44856">
        <ele>47.2</ele>
        <time>2023-05-17T13:13:37Z</time>
      </trkpt>
      <trkpt lat="49.98441" lon="2.44858">
        <ele>47.2</ele>
        <time>2023-05-17T13:13:38Z</time>
      </trkpt>
      <trkpt lat="49.98439" lon="2.4486">
        <ele>47.1</ele>
        <time>2023-05-17T13:13:40Z</time>
      </trkpt>
      <trkpt lat="49.98436" lon="2.44862">
        <ele>47.1</ele>
        <time>2023-05-17T13:13:42Z</time>
      </trkpt>
      <trkpt lat="49.98435" lon="2.44863">
        <ele>47.1</ele>
        <time>2023-05-17T13:13:43Z</time>
      </trkpt>
      <trkpt lat="49.98433" lon="2.44863">
        <ele>47.1</ele>
        <time>2023-05-17T13:13:45Z</time>
      </trkpt>
      <trkpt lat="49.98433" lon="2.44864">
        <ele>47.1</ele>
        <time>2023-05-17T13:13:46Z</time>
      </trkpt>
      <trkpt lat="49.98432" lon="2.44866">
        <ele>47</ele>
        <time>2023-05-17T13:13:47Z</time>
      </trkpt>
      <trkpt lat="49.98431" lon="2.44867">
        <ele>47</ele>
        <time>2023-05-17T13:13:48Z</time>
      </trkpt>
      <trkpt lat="49.9843" lon="2.44867">
        <ele>47</ele>
        <time>2023-05-17T13:13:49Z</time>
      </trkpt>
      <trkpt lat="49.98426" lon="2.44867">
        <ele>47</ele>
        <time>2023-05-17T13:13:51Z</time>
      </trkpt>
      <trkpt lat="49.98422" lon="2.44867">
        <ele>47</ele>
        <time>2023-05-17T13:13:53Z</time>
      </trkpt>
      <trkpt lat="49.98421" lon="2.44868">
        <ele>47</ele>
        <time>2023-05-17T13:13:54Z</time>
      </trkpt>
      <trkpt lat="49.98419" lon="2.44868">
        <ele>47</ele>
        <time>2023-05-17T13:13:55Z</time>
      </trkpt>
      <trkpt lat="49.98418" lon="2.44869">
        <ele>47</ele>
        <time>2023-05-17T13:13:56Z</time>
      </trkpt>
      <trkpt lat="49.98416" lon="2.44869">
        <ele>47</ele>
        <time>2023-05-17T13:13:57Z</time>
      </trkpt>
      <trkpt lat="49.98415" lon="2.4487">
        <ele>47</ele>
        <time>2023-05-17T13:13:59Z</time>
      </trkpt>
      <trkpt lat="49.98414" lon="2.4487">
        <ele>47</ele>
        <time>2023-05-17T13:14:00Z</time>
      </trkpt>
      <trkpt lat="49.98413" lon="2.44871">
        <ele>47</ele>
        <time>2023-05-17T13:14:01Z</time>
      </trkpt>
      <trkpt lat="49.98412" lon="2.44872">
        <ele>47</ele>
        <time>2023-05-17T13:14:02Z</time>
      </trkpt>
      <trkpt lat="49.9841" lon="2.44873">
        <ele>47</ele>
        <time>2023-05-17T13:14:03Z</time>
      </trkpt>
      <trkpt lat="49.98409" lon="2.44873">
        <ele>47</ele>
        <time>2023-05-17T13:14:04Z</time>
      </trkpt>
      <trkpt lat="49.98407" lon="2.44874">
        <ele>47</ele>
        <time>2023-05-17T13:14:05Z</time>
      </trkpt>
      <trkpt lat="49.98406" lon="2.44875">
        <ele>47</ele>
        <time>2023-05-17T13:14:06Z</time>
      </trkpt>
      <trkpt lat="49.98404" lon="2.44876">
        <ele>47</ele>
        <time>2023-05-17T13:14:08Z</time>
      </trkpt>
      <trkpt lat="49.98403" lon="2.44877">
        <ele>47</ele>
        <time>2023-05-17T13:14:09Z</time>
      </trkpt>
      <trkpt lat="49.98401" lon="2.44878">
        <ele>47</ele>
        <time>2023-05-17T13:14:10Z</time>
      </trkpt>
      <trkpt lat="49.984" lon="2.44878">
        <ele>47</ele>
        <time>2023-05-17T13:14:11Z</time>
      </trkpt>
      <trkpt lat="49.984" lon="2.44879">
        <ele>47</ele>
        <time>2023-05-17T13:14:12Z</time>
      </trkpt>
      <trkpt lat="49.98398" lon="2.4488">
        <ele>47</ele>
        <time>2023-05-17T13:14:13Z</time>
      </trkpt>
      <trkpt lat="49.98398" lon="2.4488">
        <ele>47</ele>
        <time>2023-05-17T13:14:14Z</time>
      </trkpt>
      <trkpt lat="49.98397" lon="2.44881">
        <ele>47</ele>
        <time>2023-05-17T13:14:15Z</time>
      </trkpt>
      <trkpt lat="49.98395" lon="2.44882">
        <ele>47</ele>
        <time>2023-05-17T13:14:16Z</time>
      </trkpt>
      <trkpt lat="49.98394" lon="2.44883">
        <ele>47</ele>
        <time>2023-05-17T13:14:18Z</time>
      </trkpt>
      <trkpt lat="49.98393" lon="2.44884">
        <ele>47</ele>
        <time>2023-05-17T13:14:19Z</time>
      </trkpt>
      <trkpt lat="49.98392" lon="2.44885">
        <ele>47</ele>
        <time>2023-05-17T13:14:21Z</time>
      </trkpt>
      <trkpt lat="49.98391" lon="2.44885">
        <ele>47</ele>
        <time>2023-05-17T13:14:22Z</time>
      </trkpt>
      <trkpt lat="49.98389" lon="2.44886">
        <ele>47</ele>
        <time>2023-05-17T13:14:23Z</time>
      </trkpt>
      <trkpt lat="49.98388" lon="2.44887">
        <ele>47</ele>
        <time>2023-05-17T13:14:24Z</time>
      </trkpt>
      <trkpt lat="49.98387" lon="2.44887">
        <ele>47</ele>
        <time>2023-05-17T13:14:25Z</time>
      </trkpt>
      <trkpt lat="49.98386" lon="2.44887">
        <ele>47</ele>
        <time>2023-05-17T13:14:26Z</time>
      </trkpt>
      <trkpt lat="49.98384" lon="2.44888">
        <ele>47</ele>
        <time>2023-05-17T13:14:28Z</time>
      </trkpt>
      <trkpt lat="49.98382" lon="2.44889">
        <ele>47</ele>
        <time>2023-05-17T13:14:29Z</time>
      </trkpt>
      <trkpt lat="49.98382" lon="2.44889">
        <ele>47</ele>
        <time>2023-05-17T13:14:30Z</time>
      </trkpt>
      <trkpt lat="49.98381" lon="2.4489">
        <ele>47</ele>
        <time>2023-05-17T13:14:31Z</time>
      </trkpt>
      <trkpt lat="49.9838" lon="2.4489">
        <ele>47</ele>
        <time>2023-05-17T13:14:32Z</time>
      </trkpt>
      <trkpt lat="49.98379" lon="2.44891">
        <ele>47</ele>
        <time>2023-05-17T13:14:34Z</time>
      </trkpt>
      <trkpt lat="49.98377" lon="2.44891">
        <ele>47</ele>
        <time>2023-05-17T13:14:35Z</time>
      </trkpt>
      <trkpt lat="49.98377" lon="2.44891">
        <ele>47</ele>
        <time>2023-05-17T13:14:36Z</time>
      </trkpt>
      <trkpt lat="49.98375" lon="2.44892">
        <ele>47</ele>
        <time>2023-05-17T13:14:37Z</time>
      </trkpt>
      <trkpt lat="49.98374" lon="2.44892">
        <ele>47</ele>
        <time>2023-05-17T13:14:38Z</time>
      </trkpt>
      <trkpt lat="49.98372" lon="2.44892">
        <ele>47</ele>
        <time>2023-05-17T13:14:39Z</time>
      </trkpt>
      <trkpt lat="49.98372" lon="2.44893">
        <ele>47</ele>
        <time>2023-05-17T13:14:41Z</time>
      </trkpt>
      <trkpt lat="49.98371" lon="2.44893">
        <ele>47</ele>
        <time>2023-05-17T13:14:42Z</time>
      </trkpt>
      <trkpt lat="49.98369" lon="2.44894">
        <ele>47</ele>
        <time>2023-05-17T13:14:43Z</time>
      </trkpt>
      <trkpt lat="49.98368" lon="2.44894">
        <ele>47</ele>
        <time>2023-05-17T13:14:44Z</time>
      </trkpt>
      <trkpt lat="49.98367" lon="2.44894">
        <ele>47</ele>
        <time>2023-05-17T13:14:45Z</time>
      </trkpt>
      <trkpt lat="49.98365" lon="2.44895">
        <ele>47</ele>
        <time>2023-05-17T13:14:46Z</time>
      </trkpt>
      <trkpt lat="49.98364" lon="2.44895">
        <ele>47</ele>
        <time>2023-05-17T13:14:47Z</time>
      </trkpt>
      <trkpt lat="49.98363" lon="2.44895">
        <ele>47</ele>
        <time>2023-05-17T13:14:48Z</time>
      </trkpt>
      <trkpt lat="49.98361" lon="2.44895">
        <ele>47</ele>
        <time>2023-05-17T13:14:50Z</time>
      </trkpt>
      <trkpt lat="49.9836" lon="2.44896">
        <ele>47</ele>
        <time>2023-05-17T13:14:51Z</time>
      </trkpt>
      <trkpt lat="49.98358" lon="2.44896">
        <ele>47</ele>
        <time>2023-05-17T13:14:52Z</time>
      </trkpt>
      <trkpt lat="49.98357" lon="2.44897">
        <ele>47</ele>
        <time>2023-05-17T13:14:53Z</time>
      </trkpt>
      <trkpt lat="49.98356" lon="2.44897">
        <ele>47</ele>
        <time>2023-05-17T13:14:54Z</time>
      </trkpt>
      <trkpt lat="49.98355" lon="2.44898">
        <ele>47</ele>
        <time>2023-05-17T13:14:55Z</time>
      </trkpt>
      <trkpt lat="49.98353" lon="2.44899">
        <ele>47</ele>
        <time>2023-05-17T13:14:57Z</time>
      </trkpt>
      <trkpt lat="49.98352" lon="2.44899">
        <ele>47</ele>
        <time>2023-05-17T13:14:58Z</time>
      </trkpt>
      <trkpt lat="49.98351" lon="2.449">
        <ele>46.9</ele>
        <time>2023-05-17T13:14:59Z</time>
      </trkpt>
      <trkpt lat="49.98349" lon="2.449">
        <ele>46.9</ele>
        <time>2023-05-17T13:15:00Z</time>
      </trkpt>
      <trkpt lat="49.98348" lon="2.44901">
        <ele>46.9</ele>
        <time>2023-05-17T13:15:01Z</time>
      </trkpt>
      <trkpt lat="49.98347" lon="2.44902">
        <ele>46.9</ele>
        <time>2023-05-17T13:15:02Z</time>
      </trkpt>
      <trkpt lat="49.98345" lon="2.44903">
        <ele>46.9</ele>
        <time>2023-05-17T13:15:04Z</time>
      </trkpt>
      <trkpt lat="49.98344" lon="2.44904">
        <ele>46.9</ele>
        <time>2023-05-17T13:15:05Z</time>
      </trkpt>
      <trkpt lat="49.98343" lon="2.44905">
        <ele>46.9</ele>
        <time>2023-05-17T13:15:06Z</time>
      </trkpt>
      <trkpt lat="49.98341" lon="2.44905">
        <ele>46.9</ele>
        <time>2023-05-17T13:15:07Z</time>
      </trkpt>
      <trkpt lat="49.9834" lon="2.44906">
        <ele>46.9</ele>
        <time>2023-05-17T13:15:08Z</time>
      </trkpt>
      <trkpt lat="49.98338" lon="2.44906">
        <ele>46.9</ele>
        <time>2023-05-17T13:15:09Z</time>
      </trkpt>
      <trkpt lat="49.98336" lon="2.44907">
        <ele>46.9</ele>
        <time>2023-05-17T13:15:11Z</time>
      </trkpt>
      <trkpt lat="49.98335" lon="2.44907">
        <ele>46.9</ele>
        <time>2023-05-17T13:15:12Z</time>
      </trkpt>
      <trkpt lat="49.98333" lon="2.44908">
        <ele>46.9</ele>
        <time>2023-05-17T13:15:13Z</time>
      </trkpt>
      <trkpt lat="49.98331" lon="2.44908">
        <ele>46.9</ele>
        <time>2023-05-17T13:15:15Z</time>
      </trkpt>
      <trkpt lat="49.98329" lon="2.44909">
        <ele>46.9</ele>
        <time>2023-05-17T13:15:17Z</time>
      </trkpt>
      <trkpt lat="49.98328" lon="2.4491">
        <ele>46.9</ele>
        <time>2023-05-17T13:15:18Z</time>
      </trkpt>
      <trkpt lat="49.98327" lon="2.44911">
        <ele>46.9</ele>
        <time>2023-05-17T13:15:19Z</time>
      </trkpt>
      <trkpt lat="49.98325" lon="2.44912">
        <ele>46.9</ele>
        <time>2023-05-17T13:15:20Z</time>
      </trkpt>
      <trkpt lat="49.98324" lon="2.44912">
        <ele>46.9</ele>
        <time>2023-05-17T13:15:21Z</time>
      </trkpt>
      <trkpt lat="49.98323" lon="2.44913">
        <ele>46.9</ele>
        <time>2023-05-17T13:15:22Z</time>
      </trkpt>
      <trkpt lat="49.98322" lon="2.44913">
        <ele>46.9</ele>
        <time>2023-05-17T13:15:23Z</time>
      </trkpt>
      <trkpt lat="49.9832" lon="2.44914">
        <ele>46.9</ele>
        <time>2023-05-17T13:15:25Z</time>
      </trkpt>
      <trkpt lat="49.98319" lon="2.44915">
        <ele>46.9</ele>
        <time>2023-05-17T13:15:26Z</time>
      </trkpt>
      <trkpt lat="49.98317" lon="2.44915">
        <ele>46.9</ele>
        <time>2023-05-17T13:15:27Z</time>
      </trkpt>
      <trkpt lat="49.98315" lon="2.44916">
        <ele>46.9</ele>
        <time>2023-05-17T13:15:29Z</time>
      </trkpt>
      <trkpt lat="49.98313" lon="2.44916">
        <ele>46.9</ele>
        <time>2023-05-17T13:15:31Z</time>
      </trkpt>
      <trkpt lat="49.98311" lon="2.44917">
        <ele>46.9</ele>
        <time>2023-05-17T13:15:32Z</time>
      </trkpt>
      <trkpt lat="49.9831" lon="2.44918">
        <ele>46.9</ele>
        <time>2023-05-17T13:15:33Z</time>
      </trkpt>
      <trkpt lat="49.9831" lon="2.44918">
        <ele>46.9</ele>
        <time>2023-05-17T13:15:34Z</time>
      </trkpt>
      <trkpt lat="49.98308" lon="2.44919">
        <ele>46.9</ele>
        <time>2023-05-17T13:15:35Z</time>
      </trkpt>
      <trkpt lat="49.98307" lon="2.44919">
        <ele>46.9</ele>
        <time>2023-05-17T13:15:36Z</time>
      </trkpt>
      <trkpt lat="49.98306" lon="2.44919">
        <ele>46.9</ele>
        <time>2023-05-17T13:15:37Z</time>
      </trkpt>
      <trkpt lat="49.98304" lon="2.4492">
        <ele>46.9</ele>
        <time>2023-05-17T13:15:38Z</time>
      </trkpt>
      <trkpt lat="49.98303" lon="2.44921">
        <ele>46.9</ele>
        <time>2023-05-17T13:15:39Z</time>
      </trkpt>
      <trkpt lat="49.98302" lon="2.44921">
        <ele>46.9</ele>
        <time>2023-05-17T13:15:41Z</time>
      </trkpt>
      <trkpt lat="49.98301" lon="2.44921">
        <ele>46.9</ele>
        <time>2023-05-17T13:15:42Z</time>
      </trkpt>
      <trkpt lat="49.98299" lon="2.44922">
        <ele>46.9</ele>
        <time>2023-05-17T13:15:44Z</time>
      </trkpt>
      <trkpt lat="49.98298" lon="2.44922">
        <ele>47</ele>
        <time>2023-05-17T13:15:45Z</time>
      </trkpt>
      <trkpt lat="49.98297" lon="2.44923">
        <ele>47</ele>
        <time>2023-05-17T13:15:46Z</time>
      </trkpt>
      <trkpt lat="49.98296" lon="2.44923">
        <ele>47</ele>
        <time>2023-05-17T13:15:47Z</time>
      </trkpt>
      <trkpt lat="49.98295" lon="2.44924">
        <ele>47</ele>
        <time>2023-05-17T13:15:48Z</time>
      </trkpt>
      <trkpt lat="49.98293" lon="2.44925">
        <ele>47</ele>
        <time>2023-05-17T13:15:49Z</time>
      </trkpt>
      <trkpt lat="49.98292" lon="2.44925">
        <ele>47</ele>
        <time>2023-05-17T13:15:51Z</time>
      </trkpt>
      <trkpt lat="49.9829" lon="2.44926">
        <ele>47</ele>
        <time>2023-05-17T13:15:52Z</time>
      </trkpt>
      <trkpt lat="49.98289" lon="2.44927">
        <ele>47</ele>
        <time>2023-05-17T13:15:53Z</time>
      </trkpt>
      <trkpt lat="49.98287" lon="2.44927">
        <ele>47</ele>
        <time>2023-05-17T13:15:54Z</time>
      </trkpt>
      <trkpt lat="49.98286" lon="2.44928">
        <ele>47.1</ele>
        <time>2023-05-17T13:15:55Z</time>
      </trkpt>
      <trkpt lat="49.98284" lon="2.44929">
        <ele>47.1</ele>
        <time>2023-05-17T13:15:57Z</time>
      </trkpt>
      <trkpt lat="49.98283" lon="2.4493">
        <ele>47.1</ele>
        <time>2023-05-17T13:15:58Z</time>
      </trkpt>
      <trkpt lat="49.98281" lon="2.4493">
        <ele>47.1</ele>
        <time>2023-05-17T13:15:59Z</time>
      </trkpt>
      <trkpt lat="49.9828" lon="2.44931">
        <ele>47.1</ele>
        <time>2023-05-17T13:16:00Z</time>
      </trkpt>
      <trkpt lat="49.98279" lon="2.44931">
        <ele>47.1</ele>
        <time>2023-05-17T13:16:01Z</time>
      </trkpt>
      <trkpt lat="49.98278" lon="2.44932">
        <ele>47.1</ele>
        <time>2023-05-17T13:16:02Z</time>
      </trkpt>
      <trkpt lat="49.98277" lon="2.44933">
        <ele>47.2</ele>
        <time>2023-05-17T13:16:03Z</time>
      </trkpt>
      <trkpt lat="49.98276" lon="2.44933">
        <ele>47.2</ele>
        <time>2023-05-17T13:16:04Z</time>
      </trkpt>
      <trkpt lat="49.98274" lon="2.44934">
        <ele>47.2</ele>
        <time>2023-05-17T13:16:06Z</time>
      </trkpt>
      <trkpt lat="49.98273" lon="2.44935">
        <ele>47.2</ele>
        <time>2023-05-17T13:16:07Z</time>
      </trkpt>
      <trkpt lat="49.98272" lon="2.44936">
        <ele>47.2</ele>
        <time>2023-05-17T13:16:09Z</time>
      </trkpt>
      <trkpt lat="49.9827" lon="2.44937">
        <ele>47.2</ele>
        <time>2023-05-17T13:16:10Z</time>
      </trkpt>
      <trkpt lat="49.98269" lon="2.44938">
        <ele>47.3</ele>
        <time>2023-05-17T13:16:11Z</time>
      </trkpt>
      <trkpt lat="49.98268" lon="2.44939">
        <ele>47.3</ele>
        <time>2023-05-17T13:16:12Z</time>
      </trkpt>
      <trkpt lat="49.98267" lon="2.4494">
        <ele>47.3</ele>
        <time>2023-05-17T13:16:13Z</time>
      </trkpt>
      <trkpt lat="49.98267" lon="2.44941">
        <ele>47.3</ele>
        <time>2023-05-17T13:16:14Z</time>
      </trkpt>
      <trkpt lat="49.98266" lon="2.44943">
        <ele>47.3</ele>
        <time>2023-05-17T13:16:15Z</time>
      </trkpt>
      <trkpt lat="49.98264" lon="2.44944">
        <ele>47.3</ele>
        <time>2023-05-17T13:16:17Z</time>
      </trkpt>
      <trkpt lat="49.98263" lon="2.44946">
        <ele>47.3</ele>
        <time>2023-05-17T13:16:18Z</time>
      </trkpt>
      <trkpt lat="49.98262" lon="2.44947">
        <ele>47.3</ele>
        <time>2023-05-17T13:16:19Z</time>
      </trkpt>
      <trkpt lat="49.9826" lon="2.44949">
        <ele>47.3</ele>
        <time>2023-05-17T13:16:20Z</time>
      </trkpt>
      <trkpt lat="49.9826" lon="2.4495">
        <ele>47.3</ele>
        <time>2023-05-17T13:16:21Z</time>
      </trkpt>
      <trkpt lat="49.98259" lon="2.4495">
        <ele>47.3</ele>
        <time>2023-05-17T13:16:22Z</time>
      </trkpt>
      <trkpt lat="49.98258" lon="2.44952">
        <ele>47.3</ele>
        <time>2023-05-17T13:16:24Z</time>
      </trkpt>
      <trkpt lat="49.98257" lon="2.44954">
        <ele>47.4</ele>
        <time>2023-05-17T13:16:25Z</time>
      </trkpt>
      <trkpt lat="49.98256" lon="2.44955">
        <ele>47.4</ele>
        <time>2023-05-17T13:16:26Z</time>
      </trkpt>
      <trkpt lat="49.98255" lon="2.44957">
        <ele>47.4</ele>
        <time>2023-05-17T13:16:27Z</time>
      </trkpt>
      <trkpt lat="49.98254" lon="2.44959">
        <ele>47.4</ele>
        <time>2023-05-17T13:16:28Z</time>
      </trkpt>
      <trkpt lat="49.98252" lon="2.44961">
        <ele>47.4</ele>
        <time>2023-05-17T13:16:30Z</time>
      </trkpt>
      <trkpt lat="49.98251" lon="2.44963">
        <ele>47.4</ele>
        <time>2023-05-17T13:16:31Z</time>
      </trkpt>
      <trkpt lat="49.98251" lon="2.44964">
        <ele>47.4</ele>
        <time>2023-05-17T13:16:32Z</time>
      </trkpt>
      <trkpt lat="49.9825" lon="2.44966">
        <ele>47.4</ele>
        <time>2023-05-17T13:16:33Z</time>
      </trkpt>
      <trkpt lat="49.98249" lon="2.44968">
        <ele>47.4</ele>
        <time>2023-05-17T13:16:35Z</time>
      </trkpt>
      <trkpt lat="49.98248" lon="2.4497">
        <ele>47.4</ele>
        <time>2023-05-17T13:16:36Z</time>
      </trkpt>
      <trkpt lat="49.98247" lon="2.44972">
        <ele>47.4</ele>
        <time>2023-05-17T13:16:38Z</time>
      </trkpt>
      <trkpt lat="49.98246" lon="2.44974">
        <ele>47.4</ele>
        <time>2023-05-17T13:16:39Z</time>
      </trkpt>
      <trkpt lat="49.98245" lon="2.44976">
        <ele>47.4</ele>
        <time>2023-05-17T13:16:40Z</time>
      </trkpt>
      <trkpt lat="49.98244" lon="2.44978">
        <ele>47.4</ele>
        <time>2023-05-17T13:16:41Z</time>
      </trkpt>
      <trkpt lat="49.98243" lon="2.44981">
        <ele>47.4</ele>
        <time>2023-05-17T13:16:42Z</time>
      </trkpt>
      <trkpt lat="49.98243" lon="2.44983">
        <ele>47.4</ele>
        <time>2023-05-17T13:16:43Z</time>
      </trkpt>
      <trkpt lat="49.98241" lon="2.44988">
        <ele>47.4</ele>
        <time>2023-05-17T13:16:45Z</time>
      </trkpt>
      <trkpt lat="49.98241" lon="2.44989">
        <ele>47.4</ele>
        <time>2023-05-17T13:16:46Z</time>
      </trkpt>
      <trkpt lat="49.9824" lon="2.44993">
        <ele>47.4</ele>
        <time>2023-05-17T13:16:48Z</time>
      </trkpt>
      <trkpt lat="49.98239" lon="2.44995">
        <ele>47.4</ele>
        <time>2023-05-17T13:16:49Z</time>
      </trkpt>
      <trkpt lat="49.98239" lon="2.44997">
        <ele>47.4</ele>
        <time>2023-05-17T13:16:50Z</time>
      </trkpt>
      <trkpt lat="49.98238" lon="2.44999">
        <ele>47.4</ele>
        <time>2023-05-17T13:16:51Z</time>
      </trkpt>
      <trkpt lat="49.98238" lon="2.45002">
        <ele>47.4</ele>
        <time>2023-05-17T13:16:53Z</time>
      </trkpt>
      <trkpt lat="49.98237" lon="2.45004">
        <ele>47.4</ele>
        <time>2023-05-17T13:16:54Z</time>
      </trkpt>
      <trkpt lat="49.98236" lon="2.45006">
        <ele>47.4</ele>
        <time>2023-05-17T13:16:55Z</time>
      </trkpt>
      <trkpt lat="49.98235" lon="2.45008">
        <ele>47.4</ele>
        <time>2023-05-17T13:16:56Z</time>
      </trkpt>
      <trkpt lat="49.98234" lon="2.4501">
        <ele>47.4</ele>
        <time>2023-05-17T13:16:57Z</time>
      </trkpt>
      <trkpt lat="49.98232" lon="2.45014">
        <ele>47.4</ele>
        <time>2023-05-17T13:16:59Z</time>
      </trkpt>
      <trkpt lat="49.98232" lon="2.45014">
        <ele>47.4</ele>
        <time>2023-05-17T13:17:00Z</time>
      </trkpt>
      <trkpt lat="49.9823" lon="2.45017">
        <ele>47.4</ele>
        <time>2023-05-17T13:17:02Z</time>
      </trkpt>
      <trkpt lat="49.9823" lon="2.45019">
        <ele>47.4</ele>
        <time>2023-05-17T13:17:03Z</time>
      </trkpt>
      <trkpt lat="49.98229" lon="2.4502">
        <ele>47.4</ele>
        <time>2023-05-17T13:17:04Z</time>
      </trkpt>
      <trkpt lat="49.98228" lon="2.45022">
        <ele>47.4</ele>
        <time>2023-05-17T13:17:05Z</time>
      </trkpt>
      <trkpt lat="49.98228" lon="2.45024">
        <ele>47.5</ele>
        <time>2023-05-17T13:17:07Z</time>
      </trkpt>
      <trkpt lat="49.98227" lon="2.45027">
        <ele>47.5</ele>
        <time>2023-05-17T13:17:08Z</time>
      </trkpt>
      <trkpt lat="49.98226" lon="2.45028">
        <ele>47.5</ele>
        <time>2023-05-17T13:17:09Z</time>
      </trkpt>
      <trkpt lat="49.98225" lon="2.45031">
        <ele>47.5</ele>
        <time>2023-05-17T13:17:11Z</time>
      </trkpt>
      <trkpt lat="49.98224" lon="2.45032">
        <ele>47.5</ele>
        <time>2023-05-17T13:17:12Z</time>
      </trkpt>
      <trkpt lat="49.98224" lon="2.45033">
        <ele>47.5</ele>
        <time>2023-05-17T13:17:13Z</time>
      </trkpt>
      <trkpt lat="49.98223" lon="2.45035">
        <ele>47.5</ele>
        <time>2023-05-17T13:17:14Z</time>
      </trkpt>
      <trkpt lat="49.98222" lon="2.45036">
        <ele>47.5</ele>
        <time>2023-05-17T13:17:16Z</time>
      </trkpt>
      <trkpt lat="49.98221" lon="2.45037">
        <ele>47.5</ele>
        <time>2023-05-17T13:17:17Z</time>
      </trkpt>
      <trkpt lat="49.98221" lon="2.45038">
        <ele>47.6</ele>
        <time>2023-05-17T13:17:18Z</time>
      </trkpt>
      <trkpt lat="49.9822" lon="2.45039">
        <ele>47.6</ele>
        <time>2023-05-17T13:17:19Z</time>
      </trkpt>
      <trkpt lat="49.98219" lon="2.4504">
        <ele>47.6</ele>
        <time>2023-05-17T13:17:20Z</time>
      </trkpt>
      <trkpt lat="49.98218" lon="2.4504">
        <ele>47.6</ele>
        <time>2023-05-17T13:17:21Z</time>
      </trkpt>
      <trkpt lat="49.98217" lon="2.45041">
        <ele>47.6</ele>
        <time>2023-05-17T13:17:22Z</time>
      </trkpt>
      <trkpt lat="49.98215" lon="2.45042">
        <ele>47.6</ele>
        <time>2023-05-17T13:17:24Z</time>
      </trkpt>
      <trkpt lat="49.98214" lon="2.45043">
        <ele>47.7</ele>
        <time>2023-05-17T13:17:25Z</time>
      </trkpt>
      <trkpt lat="49.98213" lon="2.45043">
        <ele>47.7</ele>
        <time>2023-05-17T13:17:26Z</time>
      </trkpt>
      <trkpt lat="49.98212" lon="2.45044">
        <ele>47.7</ele>
        <time>2023-05-17T13:17:27Z</time>
      </trkpt>
      <trkpt lat="49.98211" lon="2.45044">
        <ele>47.7</ele>
        <time>2023-05-17T13:17:28Z</time>
      </trkpt>
      <trkpt lat="49.9821" lon="2.45045">
        <ele>47.7</ele>
        <time>2023-05-17T13:17:29Z</time>
      </trkpt>
      <trkpt lat="49.98209" lon="2.45046">
        <ele>47.7</ele>
        <time>2023-05-17T13:17:30Z</time>
      </trkpt>
      <trkpt lat="49.98208" lon="2.45047">
        <ele>47.7</ele>
        <time>2023-05-17T13:17:31Z</time>
      </trkpt>
      <trkpt lat="49.98206" lon="2.45048">
        <ele>47.8</ele>
        <time>2023-05-17T13:17:32Z</time>
      </trkpt>
      <trkpt lat="49.98205" lon="2.45048">
        <ele>47.8</ele>
        <time>2023-05-17T13:17:33Z</time>
      </trkpt>
      <trkpt lat="49.98204" lon="2.45049">
        <ele>47.8</ele>
        <time>2023-05-17T13:17:34Z</time>
      </trkpt>
      <trkpt lat="49.98203" lon="2.4505">
        <ele>47.8</ele>
        <time>2023-05-17T13:17:35Z</time>
      </trkpt>
      <trkpt lat="49.98201" lon="2.45051">
        <ele>47.8</ele>
        <time>2023-05-17T13:17:37Z</time>
      </trkpt>
      <trkpt lat="49.982" lon="2.45051">
        <ele>47.9</ele>
        <time>2023-05-17T13:17:38Z</time>
      </trkpt>
      <trkpt lat="49.98199" lon="2.45052">
        <ele>47.9</ele>
        <time>2023-05-17T13:17:39Z</time>
      </trkpt>
      <trkpt lat="49.98197" lon="2.45053">
        <ele>47.9</ele>
        <time>2023-05-17T13:17:40Z</time>
      </trkpt>
      <trkpt lat="49.98196" lon="2.45054">
        <ele>47.9</ele>
        <time>2023-05-17T13:17:41Z</time>
      </trkpt>
      <trkpt lat="49.98194" lon="2.45055">
        <ele>47.9</ele>
        <time>2023-05-17T13:17:42Z</time>
      </trkpt>
      <trkpt lat="49.98193" lon="2.45055">
        <ele>47.9</ele>
        <time>2023-05-17T13:17:43Z</time>
      </trkpt>
      <trkpt lat="49.98193" lon="2.45056">
        <ele>47.9</ele>
        <time>2023-05-17T13:17:44Z</time>
      </trkpt>
      <trkpt lat="49.98191" lon="2.45057">
        <ele>48</ele>
        <time>2023-05-17T13:17:46Z</time>
      </trkpt>
      <trkpt lat="49.9819" lon="2.45057">
        <ele>48</ele>
        <time>2023-05-17T13:17:47Z</time>
      </trkpt>
      <trkpt lat="49.98188" lon="2.45058">
        <ele>48</ele>
        <time>2023-05-17T13:17:48Z</time>
      </trkpt>
      <trkpt lat="49.98187" lon="2.45058">
        <ele>48</ele>
        <time>2023-05-17T13:17:49Z</time>
      </trkpt>
      <trkpt lat="49.98186" lon="2.45059">
        <ele>48</ele>
        <time>2023-05-17T13:17:50Z</time>
      </trkpt>
      <trkpt lat="49.98184" lon="2.45059">
        <ele>48</ele>
        <time>2023-05-17T13:17:52Z</time>
      </trkpt>
      <trkpt lat="49.98182" lon="2.45059">
        <ele>48</ele>
        <time>2023-05-17T13:17:53Z</time>
      </trkpt>
      <trkpt lat="49.98181" lon="2.4506">
        <ele>48</ele>
        <time>2023-05-17T13:17:54Z</time>
      </trkpt>
      <trkpt lat="49.98179" lon="2.4506">
        <ele>48</ele>
        <time>2023-05-17T13:17:56Z</time>
      </trkpt>
      <trkpt lat="49.98178" lon="2.45061">
        <ele>48</ele>
        <time>2023-05-17T13:17:57Z</time>
      </trkpt>
      <trkpt lat="49.98177" lon="2.45061">
        <ele>48</ele>
        <time>2023-05-17T13:17:58Z</time>
      </trkpt>
      <trkpt lat="49.98175" lon="2.45062">
        <ele>48</ele>
        <time>2023-05-17T13:17:59Z</time>
      </trkpt>
      <trkpt lat="49.98174" lon="2.45063">
        <ele>48</ele>
        <time>2023-05-17T13:18:00Z</time>
      </trkpt>
      <trkpt lat="49.98173" lon="2.45063">
        <ele>48</ele>
        <time>2023-05-17T13:18:01Z</time>
      </trkpt>
      <trkpt lat="49.9817" lon="2.45064">
        <ele>48</ele>
        <time>2023-05-17T13:18:02Z</time>
      </trkpt>
      <trkpt lat="49.98169" lon="2.45065">
        <ele>48</ele>
        <time>2023-05-17T13:18:04Z</time>
      </trkpt>
      <trkpt lat="49.98168" lon="2.45065">
        <ele>48</ele>
        <time>2023-05-17T13:18:05Z</time>
      </trkpt>
      <trkpt lat="49.98167" lon="2.45066">
        <ele>48</ele>
        <time>2023-05-17T13:18:06Z</time>
      </trkpt>
      <trkpt lat="49.98166" lon="2.45067">
        <ele>48</ele>
        <time>2023-05-17T13:18:07Z</time>
      </trkpt>
      <trkpt lat="49.98164" lon="2.45067">
        <ele>48</ele>
        <time>2023-05-17T13:18:09Z</time>
      </trkpt>
      <trkpt lat="49.98162" lon="2.45068">
        <ele>48</ele>
        <time>2023-05-17T13:18:10Z</time>
      </trkpt>
      <trkpt lat="49.98161" lon="2.45069">
        <ele>48</ele>
        <time>2023-05-17T13:18:11Z</time>
      </trkpt>
      <trkpt lat="49.9816" lon="2.4507">
        <ele>48</ele>
        <time>2023-05-17T13:18:13Z</time>
      </trkpt>
      <trkpt lat="49.98158" lon="2.45071">
        <ele>48</ele>
        <time>2023-05-17T13:18:14Z</time>
      </trkpt>
      <trkpt lat="49.98157" lon="2.45072">
        <ele>48</ele>
        <time>2023-05-17T13:18:15Z</time>
      </trkpt>
      <trkpt lat="49.98155" lon="2.45073">
        <ele>48</ele>
        <time>2023-05-17T13:18:16Z</time>
      </trkpt>
      <trkpt lat="49.98154" lon="2.45073">
        <ele>48</ele>
        <time>2023-05-17T13:18:17Z</time>
      </trkpt>
      <trkpt lat="49.98152" lon="2.45074">
        <ele>48</ele>
        <time>2023-05-17T13:18:18Z</time>
      </trkpt>
      <trkpt lat="49.98149" lon="2.45076">
        <ele>47.9</ele>
        <time>2023-05-17T13:18:20Z</time>
      </trkpt>
      <trkpt lat="49.98149" lon="2.45076">
        <ele>47.9</ele>
        <time>2023-05-17T13:18:21Z</time>
      </trkpt>
      <trkpt lat="49.98147" lon="2.45077">
        <ele>47.9</ele>
        <time>2023-05-17T13:18:22Z</time>
      </trkpt>
      <trkpt lat="49.98145" lon="2.45077">
        <ele>47.9</ele>
        <time>2023-05-17T13:18:24Z</time>
      </trkpt>
      <trkpt lat="49.98144" lon="2.45078">
        <ele>47.9</ele>
        <time>2023-05-17T13:18:25Z</time>
      </trkpt>
      <trkpt lat="49.98142" lon="2.45077">
        <ele>47.9</ele>
        <time>2023-05-17T13:18:26Z</time>
      </trkpt>
      <trkpt lat="49.98142" lon="2.45077">
        <ele>47.9</ele>
        <time>2023-05-17T13:18:27Z</time>
      </trkpt>
      <trkpt lat="49.9814" lon="2.45076">
        <ele>47.9</ele>
        <time>2023-05-17T13:18:28Z</time>
      </trkpt>
      <trkpt lat="49.98139" lon="2.45077">
        <ele>47.9</ele>
        <time>2023-05-17T13:18:29Z</time>
      </trkpt>
      <trkpt lat="49.98136" lon="2.45079">
        <ele>47.9</ele>
        <time>2023-05-17T13:18:31Z</time>
      </trkpt>
      <trkpt lat="49.98136" lon="2.45079">
        <ele>47.9</ele>
        <time>2023-05-17T13:18:32Z</time>
      </trkpt>
      <trkpt lat="49.98135" lon="2.4508">
        <ele>47.9</ele>
        <time>2023-05-17T13:18:33Z</time>
      </trkpt>
      <trkpt lat="49.98133" lon="2.45081">
        <ele>47.9</ele>
        <time>2023-05-17T13:18:34Z</time>
      </trkpt>
      <trkpt lat="49.98132" lon="2.45082">
        <ele>47.8</ele>
        <time>2023-05-17T13:18:36Z</time>
      </trkpt>
      <trkpt lat="49.9813" lon="2.45084">
        <ele>47.8</ele>
        <time>2023-05-17T13:18:37Z</time>
      </trkpt>
      <trkpt lat="49.98129" lon="2.45085">
        <ele>47.8</ele>
        <time>2023-05-17T13:18:39Z</time>
      </trkpt>
      <trkpt lat="49.98128" lon="2.45085">
        <ele>47.8</ele>
        <time>2023-05-17T13:18:40Z</time>
      </trkpt>
      <trkpt lat="49.98127" lon="2.45087">
        <ele>47.8</ele>
        <time>2023-05-17T13:18:41Z</time>
      </trkpt>
      <trkpt lat="49.98126" lon="2.45088">
        <ele>47.8</ele>
        <time>2023-05-17T13:18:42Z</time>
      </trkpt>
      <trkpt lat="49.98125" lon="2.45089">
        <ele>47.8</ele>
        <time>2023-05-17T13:18:43Z</time>
      </trkpt>
      <trkpt lat="49.98125" lon="2.4509">
        <ele>47.8</ele>
        <time>2023-05-17T13:18:44Z</time>
      </trkpt>
      <trkpt lat="49.98123" lon="2.45091">
        <ele>47.8</ele>
        <time>2023-05-17T13:18:46Z</time>
      </trkpt>
      <trkpt lat="49.98122" lon="2.45092">
        <ele>47.8</ele>
        <time>2023-05-17T13:18:47Z</time>
      </trkpt>
      <trkpt lat="49.98121" lon="2.45093">
        <ele>47.7</ele>
        <time>2023-05-17T13:18:48Z</time>
      </trkpt>
      <trkpt lat="49.9812" lon="2.45093">
        <ele>47.7</ele>
        <time>2023-05-17T13:18:49Z</time>
      </trkpt>
      <trkpt lat="49.98119" lon="2.45094">
        <ele>47.7</ele>
        <time>2023-05-17T13:18:50Z</time>
      </trkpt>
      <trkpt lat="49.98118" lon="2.45094">
        <ele>47.7</ele>
        <time>2023-05-17T13:18:52Z</time>
      </trkpt>
      <trkpt lat="49.98117" lon="2.45095">
        <ele>47.7</ele>
        <time>2023-05-17T13:18:53Z</time>
      </trkpt>
      <trkpt lat="49.98116" lon="2.45095">
        <ele>47.7</ele>
        <time>2023-05-17T13:18:54Z</time>
      </trkpt>
      <trkpt lat="49.98115" lon="2.45096">
        <ele>47.7</ele>
        <time>2023-05-17T13:18:55Z</time>
      </trkpt>
      <trkpt lat="49.98114" lon="2.45096">
        <ele>47.7</ele>
        <time>2023-05-17T13:18:56Z</time>
      </trkpt>
      <trkpt lat="49.98113" lon="2.45097">
        <ele>47.7</ele>
        <time>2023-05-17T13:18:57Z</time>
      </trkpt>
      <trkpt lat="49.98113" lon="2.45097">
        <ele>47.7</ele>
        <time>2023-05-17T13:18:58Z</time>
      </trkpt>
      <trkpt lat="49.98113" lon="2.45098">
        <ele>47.7</ele>
        <time>2023-05-17T13:18:59Z</time>
      </trkpt>
      <trkpt lat="49.98112" lon="2.45099">
        <ele>47.7</ele>
        <time>2023-05-17T13:19:01Z</time>
      </trkpt>
      <trkpt lat="49.9811" lon="2.45099">
        <ele>47.7</ele>
        <time>2023-05-17T13:19:02Z</time>
      </trkpt>
      <trkpt lat="49.98109" lon="2.451">
        <ele>47.6</ele>
        <time>2023-05-17T13:19:03Z</time>
      </trkpt>
      <trkpt lat="49.98106" lon="2.45101">
        <ele>47.6</ele>
        <time>2023-05-17T13:19:05Z</time>
      </trkpt>
      <trkpt lat="49.98105" lon="2.45101">
        <ele>47.6</ele>
        <time>2023-05-17T13:19:06Z</time>
      </trkpt>
      <trkpt lat="49.98104" lon="2.45102">
        <ele>47.6</ele>
        <time>2023-05-17T13:19:07Z</time>
      </trkpt>
      <trkpt lat="49.98102" lon="2.45103">
        <ele>47.6</ele>
        <time>2023-05-17T13:19:09Z</time>
      </trkpt>
      <trkpt lat="49.98101" lon="2.45103">
        <ele>47.6</ele>
        <time>2023-05-17T13:19:10Z</time>
      </trkpt>
      <trkpt lat="49.98099" lon="2.45104">
        <ele>47.5</ele>
        <time>2023-05-17T13:19:11Z</time>
      </trkpt>
      <trkpt lat="49.98097" lon="2.45104">
        <ele>47.5</ele>
        <time>2023-05-17T13:19:12Z</time>
      </trkpt>
      <trkpt lat="49.98096" lon="2.45105">
        <ele>47.5</ele>
        <time>2023-05-17T13:19:13Z</time>
      </trkpt>
      <trkpt lat="49.98095" lon="2.45105">
        <ele>47.5</ele>
        <time>2023-05-17T13:19:14Z</time>
      </trkpt>
      <trkpt lat="49.98094" lon="2.45105">
        <ele>47.5</ele>
        <time>2023-05-17T13:19:16Z</time>
      </trkpt>
      <trkpt lat="49.98092" lon="2.45105">
        <ele>47.5</ele>
        <time>2023-05-17T13:19:17Z</time>
      </trkpt>
      <trkpt lat="49.98091" lon="2.45106">
        <ele>47.5</ele>
        <time>2023-05-17T13:19:18Z</time>
      </trkpt>
      <trkpt lat="49.9809" lon="2.45106">
        <ele>47.4</ele>
        <time>2023-05-17T13:19:19Z</time>
      </trkpt>
      <trkpt lat="49.98089" lon="2.45106">
        <ele>47.4</ele>
        <time>2023-05-17T13:19:20Z</time>
      </trkpt>
      <trkpt lat="49.98088" lon="2.45106">
        <ele>47.4</ele>
        <time>2023-05-17T13:19:21Z</time>
      </trkpt>
      <trkpt lat="49.98087" lon="2.45106">
        <ele>47.4</ele>
        <time>2023-05-17T13:19:22Z</time>
      </trkpt>
      <trkpt lat="49.98086" lon="2.45107">
        <ele>47.4</ele>
        <time>2023-05-17T13:19:23Z</time>
      </trkpt>
      <trkpt lat="49.98084" lon="2.45107">
        <ele>47.3</ele>
        <time>2023-05-17T13:19:24Z</time>
      </trkpt>
      <trkpt lat="49.98083" lon="2.45109">
        <ele>47.3</ele>
        <time>2023-05-17T13:19:26Z</time>
      </trkpt>
      <trkpt lat="49.98081" lon="2.4511">
        <ele>47.3</ele>
        <time>2023-05-17T13:19:28Z</time>
      </trkpt>
      <trkpt lat="49.9808" lon="2.45111">
        <ele>47.3</ele>
        <time>2023-05-17T13:19:29Z</time>
      </trkpt>
      <trkpt lat="49.98078" lon="2.45112">
        <ele>47.2</ele>
        <time>2023-05-17T13:19:30Z</time>
      </trkpt>
      <trkpt lat="49.98077" lon="2.45113">
        <ele>47.2</ele>
        <time>2023-05-17T13:19:31Z</time>
      </trkpt>
      <trkpt lat="49.98076" lon="2.45114">
        <ele>47.2</ele>
        <time>2023-05-17T13:19:32Z</time>
      </trkpt>
      <trkpt lat="49.98075" lon="2.45116">
        <ele>47.1</ele>
        <time>2023-05-17T13:19:33Z</time>
      </trkpt>
      <trkpt lat="49.98074" lon="2.45117">
        <ele>47.1</ele>
        <time>2023-05-17T13:19:34Z</time>
      </trkpt>
      <trkpt lat="49.98073" lon="2.45119">
        <ele>47.1</ele>
        <time>2023-05-17T13:19:35Z</time>
      </trkpt>
      <trkpt lat="49.98071" lon="2.4512">
        <ele>47</ele>
        <time>2023-05-17T13:19:36Z</time>
      </trkpt>
      <trkpt lat="49.98069" lon="2.45121">
        <ele>47</ele>
        <time>2023-05-17T13:19:38Z</time>
      </trkpt>
      <trkpt lat="49.98068" lon="2.45123">
        <ele>47</ele>
        <time>2023-05-17T13:19:39Z</time>
      </trkpt>
      <trkpt lat="49.98066" lon="2.45125">
        <ele>46.9</ele>
        <time>2023-05-17T13:19:41Z</time>
      </trkpt>
      <trkpt lat="49.98063" lon="2.45128">
        <ele>46.8</ele>
        <time>2023-05-17T13:19:42Z</time>
      </trkpt>
      <trkpt lat="49.98062" lon="2.45129">
        <ele>46.8</ele>
        <time>2023-05-17T13:19:43Z</time>
      </trkpt>
      <trkpt lat="49.98061" lon="2.4513">
        <ele>46.8</ele>
        <time>2023-05-17T13:19:44Z</time>
      </trkpt>
      <trkpt lat="49.98059" lon="2.45132">
        <ele>46.7</ele>
        <time>2023-05-17T13:19:45Z</time>
      </trkpt>
      <trkpt lat="49.98056" lon="2.45134">
        <ele>46.6</ele>
        <time>2023-05-17T13:19:47Z</time>
      </trkpt>
      <trkpt lat="49.98056" lon="2.45135">
        <ele>46.6</ele>
        <time>2023-05-17T13:19:48Z</time>
      </trkpt>
      <trkpt lat="49.98053" lon="2.45138">
        <ele>46.5</ele>
        <time>2023-05-17T13:19:49Z</time>
      </trkpt>
      <trkpt lat="49.98052" lon="2.45138">
        <ele>46.5</ele>
        <time>2023-05-17T13:19:50Z</time>
      </trkpt>
      <trkpt lat="49.9805" lon="2.4514">
        <ele>46.5</ele>
        <time>2023-05-17T13:19:51Z</time>
      </trkpt>
      <trkpt lat="49.9805" lon="2.45141">
        <ele>46.4</ele>
        <time>2023-05-17T13:19:52Z</time>
      </trkpt>
      <trkpt lat="49.98049" lon="2.45141">
        <ele>46.4</ele>
        <time>2023-05-17T13:19:53Z</time>
      </trkpt>
      <trkpt lat="49.98048" lon="2.45142">
        <ele>46.4</ele>
        <time>2023-05-17T13:19:54Z</time>
      </trkpt>
      <trkpt lat="49.98048" lon="2.45143">
        <ele>46.4</ele>
        <time>2023-05-17T13:19:55Z</time>
      </trkpt>
      <trkpt lat="49.98047" lon="2.45144">
        <ele>46.4</ele>
        <time>2023-05-17T13:19:57Z</time>
      </trkpt>
      <trkpt lat="49.98046" lon="2.45145">
        <ele>46.3</ele>
        <time>2023-05-17T13:19:58Z</time>
      </trkpt>
      <trkpt lat="49.98045" lon="2.45146">
        <ele>46.3</ele>
        <time>2023-05-17T13:19:59Z</time>
      </trkpt>
      <trkpt lat="49.98044" lon="2.45147">
        <ele>46.3</ele>
        <time>2023-05-17T13:20:00Z</time>
      </trkpt>
      <trkpt lat="49.98042" lon="2.45149">
        <ele>46.3</ele>
        <time>2023-05-17T13:20:01Z</time>
      </trkpt>
      <trkpt lat="49.98041" lon="2.45149">
        <ele>46.3</ele>
        <time>2023-05-17T13:20:02Z</time>
      </trkpt>
      <trkpt lat="49.9804" lon="2.4515">
        <ele>46.3</ele>
        <time>2023-05-17T13:20:03Z</time>
      </trkpt>
      <trkpt lat="49.98038" lon="2.45151">
        <ele>46.2</ele>
        <time>2023-05-17T13:20:05Z</time>
      </trkpt>
      <trkpt lat="49.98037" lon="2.45152">
        <ele>46.2</ele>
        <time>2023-05-17T13:20:06Z</time>
      </trkpt>
      <trkpt lat="49.98036" lon="2.45152">
        <ele>46.2</ele>
        <time>2023-05-17T13:20:07Z</time>
      </trkpt>
      <trkpt lat="49.98035" lon="2.45153">
        <ele>46.2</ele>
        <time>2023-05-17T13:20:08Z</time>
      </trkpt>
      <trkpt lat="49.98034" lon="2.45154">
        <ele>46.2</ele>
        <time>2023-05-17T13:20:09Z</time>
      </trkpt>
      <trkpt lat="49.98032" lon="2.45155">
        <ele>46.2</ele>
        <time>2023-05-17T13:20:11Z</time>
      </trkpt>
      <trkpt lat="49.98031" lon="2.45155">
        <ele>46.1</ele>
        <time>2023-05-17T13:20:12Z</time>
      </trkpt>
      <trkpt lat="49.9803" lon="2.45156">
        <ele>46.1</ele>
        <time>2023-05-17T13:20:14Z</time>
      </trkpt>
      <trkpt lat="49.98028" lon="2.45157">
        <ele>46.1</ele>
        <time>2023-05-17T13:20:15Z</time>
      </trkpt>
      <trkpt lat="49.98027" lon="2.45157">
        <ele>46.1</ele>
        <time>2023-05-17T13:20:16Z</time>
      </trkpt>
      <trkpt lat="49.98026" lon="2.45158">
        <ele>46.1</ele>
        <time>2023-05-17T13:20:17Z</time>
      </trkpt>
      <trkpt lat="49.98024" lon="2.45158">
        <ele>46.1</ele>
        <time>2023-05-17T13:20:18Z</time>
      </trkpt>
      <trkpt lat="49.98023" lon="2.45159">
        <ele>46.1</ele>
        <time>2023-05-17T13:20:20Z</time>
      </trkpt>
      <trkpt lat="49.98022" lon="2.4516">
        <ele>46.1</ele>
        <time>2023-05-17T13:20:21Z</time>
      </trkpt>
      <trkpt lat="49.9802" lon="2.4516">
        <ele>46.1</ele>
        <time>2023-05-17T13:20:22Z</time>
      </trkpt>
      <trkpt lat="49.98019" lon="2.4516">
        <ele>46.1</ele>
        <time>2023-05-17T13:20:23Z</time>
      </trkpt>
      <trkpt lat="49.98018" lon="2.4516">
        <ele>46</ele>
        <time>2023-05-17T13:20:24Z</time>
      </trkpt>
      <trkpt lat="49.98016" lon="2.45161">
        <ele>46</ele>
        <time>2023-05-17T13:20:26Z</time>
      </trkpt>
      <trkpt lat="49.98014" lon="2.45161">
        <ele>46</ele>
        <time>2023-05-17T13:20:27Z</time>
      </trkpt>
      <trkpt lat="49.98013" lon="2.45161">
        <ele>46</ele>
        <time>2023-05-17T13:20:28Z</time>
      </trkpt>
      <trkpt lat="49.98012" lon="2.45162">
        <ele>46</ele>
        <time>2023-05-17T13:20:29Z</time>
      </trkpt>
      <trkpt lat="49.98011" lon="2.45162">
        <ele>46</ele>
        <time>2023-05-17T13:20:30Z</time>
      </trkpt>
      <trkpt lat="49.98009" lon="2.45162">
        <ele>46.1</ele>
        <time>2023-05-17T13:20:31Z</time>
      </trkpt>
      <trkpt lat="49.98008" lon="2.45162">
        <ele>46.1</ele>
        <time>2023-05-17T13:20:32Z</time>
      </trkpt>
      <trkpt lat="49.98006" lon="2.45163">
        <ele>46.1</ele>
        <time>2023-05-17T13:20:34Z</time>
      </trkpt>
      <trkpt lat="49.98004" lon="2.45163">
        <ele>46.1</ele>
        <time>2023-05-17T13:20:35Z</time>
      </trkpt>
      <trkpt lat="49.98003" lon="2.45163">
        <ele>46.1</ele>
        <time>2023-05-17T13:20:36Z</time>
      </trkpt>
      <trkpt lat="49.98002" lon="2.45164">
        <ele>46.1</ele>
        <time>2023-05-17T13:20:38Z</time>
      </trkpt>
      <trkpt lat="49.98" lon="2.45164">
        <ele>46.2</ele>
        <time>2023-05-17T13:20:39Z</time>
      </trkpt>
      <trkpt lat="49.97999" lon="2.45165">
        <ele>46.2</ele>
        <time>2023-05-17T13:20:40Z</time>
      </trkpt>
      <trkpt lat="49.97997" lon="2.45165">
        <ele>46.2</ele>
        <time>2023-05-17T13:20:41Z</time>
      </trkpt>
      <trkpt lat="49.97995" lon="2.45165">
        <ele>46.3</ele>
        <time>2023-05-17T13:20:42Z</time>
      </trkpt>
      <trkpt lat="49.97994" lon="2.45166">
        <ele>46.3</ele>
        <time>2023-05-17T13:20:43Z</time>
      </trkpt>
      <trkpt lat="49.97993" lon="2.45166">
        <ele>46.3</ele>
        <time>2023-05-17T13:20:44Z</time>
      </trkpt>
      <trkpt lat="49.97992" lon="2.45166">
        <ele>46.3</ele>
        <time>2023-05-17T13:20:45Z</time>
      </trkpt>
      <trkpt lat="49.97991" lon="2.45166">
        <ele>46.4</ele>
        <time>2023-05-17T13:20:46Z</time>
      </trkpt>
      <trkpt lat="49.97989" lon="2.45167">
        <ele>46.4</ele>
        <time>2023-05-17T13:20:48Z</time>
      </trkpt>
      <trkpt lat="49.97988" lon="2.45168">
        <ele>46.5</ele>
        <time>2023-05-17T13:20:49Z</time>
      </trkpt>
      <trkpt lat="49.97986" lon="2.45168">
        <ele>46.5</ele>
        <time>2023-05-17T13:20:51Z</time>
      </trkpt>
      <trkpt lat="49.97985" lon="2.45169">
        <ele>46.5</ele>
        <time>2023-05-17T13:20:52Z</time>
      </trkpt>
      <trkpt lat="49.97984" lon="2.45169">
        <ele>46.6</ele>
        <time>2023-05-17T13:20:53Z</time>
      </trkpt>
      <trkpt lat="49.97983" lon="2.45169">
        <ele>46.6</ele>
        <time>2023-05-17T13:20:54Z</time>
      </trkpt>
      <trkpt lat="49.97982" lon="2.4517">
        <ele>46.7</ele>
        <time>2023-05-17T13:20:55Z</time>
      </trkpt>
      <trkpt lat="49.9798" lon="2.45171">
        <ele>46.7</ele>
        <time>2023-05-17T13:20:56Z</time>
      </trkpt>
      <trkpt lat="49.97979" lon="2.45171">
        <ele>46.8</ele>
        <time>2023-05-17T13:20:57Z</time>
      </trkpt>
      <trkpt lat="49.97978" lon="2.45171">
        <ele>46.8</ele>
        <time>2023-05-17T13:20:58Z</time>
      </trkpt>
      <trkpt lat="49.97976" lon="2.45172">
        <ele>46.9</ele>
        <time>2023-05-17T13:21:00Z</time>
      </trkpt>
      <trkpt lat="49.97975" lon="2.45172">
        <ele>46.9</ele>
        <time>2023-05-17T13:21:01Z</time>
      </trkpt>
      <trkpt lat="49.97975" lon="2.45173">
        <ele>46.9</ele>
        <time>2023-05-17T13:21:02Z</time>
      </trkpt>
      <trkpt lat="49.97974" lon="2.45173">
        <ele>47</ele>
        <time>2023-05-17T13:21:03Z</time>
      </trkpt>
      <trkpt lat="49.97972" lon="2.45174">
        <ele>47</ele>
        <time>2023-05-17T13:21:04Z</time>
      </trkpt>
      <trkpt lat="49.97971" lon="2.45174">
        <ele>47</ele>
        <time>2023-05-17T13:21:05Z</time>
      </trkpt>
      <trkpt lat="49.9797" lon="2.45175">
        <ele>47.1</ele>
        <time>2023-05-17T13:21:06Z</time>
      </trkpt>
      <trkpt lat="49.97968" lon="2.45176">
        <ele>47.2</ele>
        <time>2023-05-17T13:21:08Z</time>
      </trkpt>
      <trkpt lat="49.97967" lon="2.45176">
        <ele>47.2</ele>
        <time>2023-05-17T13:21:09Z</time>
      </trkpt>
      <trkpt lat="49.97966" lon="2.45177">
        <ele>47.3</ele>
        <time>2023-05-17T13:21:10Z</time>
      </trkpt>
      <trkpt lat="49.97965" lon="2.45177">
        <ele>47.3</ele>
        <time>2023-05-17T13:21:11Z</time>
      </trkpt>
      <trkpt lat="49.97963" lon="2.45178">
        <ele>47.3</ele>
        <time>2023-05-17T13:21:12Z</time>
      </trkpt>
      <trkpt lat="49.97962" lon="2.45179">
        <ele>47.4</ele>
        <time>2023-05-17T13:21:14Z</time>
      </trkpt>
      <trkpt lat="49.9796" lon="2.45179">
        <ele>47.4</ele>
        <time>2023-05-17T13:21:15Z</time>
      </trkpt>
      <trkpt lat="49.97959" lon="2.4518">
        <ele>47.4</ele>
        <time>2023-05-17T13:21:16Z</time>
      </trkpt>
      <trkpt lat="49.97958" lon="2.45181">
        <ele>47.4</ele>
        <time>2023-05-17T13:21:18Z</time>
      </trkpt>
      <trkpt lat="49.97957" lon="2.45182">
        <ele>47.5</ele>
        <time>2023-05-17T13:21:19Z</time>
      </trkpt>
      <trkpt lat="49.97955" lon="2.45182">
        <ele>47.5</ele>
        <time>2023-05-17T13:21:20Z</time>
      </trkpt>
      <trkpt lat="49.97954" lon="2.45183">
        <ele>47.5</ele>
        <time>2023-05-17T13:21:21Z</time>
      </trkpt>
      <trkpt lat="49.97953" lon="2.45184">
        <ele>47.6</ele>
        <time>2023-05-17T13:21:22Z</time>
      </trkpt>
      <trkpt lat="49.97951" lon="2.45185">
        <ele>47.6</ele>
        <time>2023-05-17T13:21:23Z</time>
      </trkpt>
      <trkpt lat="49.9795" lon="2.45186">
        <ele>47.6</ele>
        <time>2023-05-17T13:21:25Z</time>
      </trkpt>
      <trkpt lat="49.97948" lon="2.45187">
        <ele>47.7</ele>
        <time>2023-05-17T13:21:26Z</time>
      </trkpt>
      <trkpt lat="49.97946" lon="2.45189">
        <ele>47.7</ele>
        <time>2023-05-17T13:21:28Z</time>
      </trkpt>
      <trkpt lat="49.97945" lon="2.4519">
        <ele>47.7</ele>
        <time>2023-05-17T13:21:29Z</time>
      </trkpt>
      <trkpt lat="49.97944" lon="2.45191">
        <ele>47.8</ele>
        <time>2023-05-17T13:21:30Z</time>
      </trkpt>
      <trkpt lat="49.97942" lon="2.45192">
        <ele>47.8</ele>
        <time>2023-05-17T13:21:31Z</time>
      </trkpt>
      <trkpt lat="49.97941" lon="2.45193">
        <ele>47.8</ele>
        <time>2023-05-17T13:21:32Z</time>
      </trkpt>
      <trkpt lat="49.9794" lon="2.45195">
        <ele>47.9</ele>
        <time>2023-05-17T13:21:33Z</time>
      </trkpt>
      <trkpt lat="49.97939" lon="2.45196">
        <ele>47.9</ele>
        <time>2023-05-17T13:21:35Z</time>
      </trkpt>
      <trkpt lat="49.97937" lon="2.45197">
        <ele>47.9</ele>
        <time>2023-05-17T13:21:36Z</time>
      </trkpt>
      <trkpt lat="49.97936" lon="2.45198">
        <ele>47.9</ele>
        <time>2023-05-17T13:21:37Z</time>
      </trkpt>
      <trkpt lat="49.97935" lon="2.45199">
        <ele>48</ele>
        <time>2023-05-17T13:21:38Z</time>
      </trkpt>
      <trkpt lat="49.97934" lon="2.452">
        <ele>48</ele>
        <time>2023-05-17T13:21:39Z</time>
      </trkpt>
      <trkpt lat="49.97932" lon="2.45202">
        <ele>48</ele>
        <time>2023-05-17T13:21:40Z</time>
      </trkpt>
      <trkpt lat="49.97931" lon="2.45204">
        <ele>48.1</ele>
        <time>2023-05-17T13:21:41Z</time>
      </trkpt>
      <trkpt lat="49.97929" lon="2.45206">
        <ele>48.1</ele>
        <time>2023-05-17T13:21:43Z</time>
      </trkpt>
      <trkpt lat="49.97928" lon="2.45207">
        <ele>48.1</ele>
        <time>2023-05-17T13:21:44Z</time>
      </trkpt>
      <trkpt lat="49.97927" lon="2.45209">
        <ele>48.2</ele>
        <time>2023-05-17T13:21:46Z</time>
      </trkpt>
      <trkpt lat="49.97925" lon="2.4521">
        <ele>48.2</ele>
        <time>2023-05-17T13:21:47Z</time>
      </trkpt>
      <trkpt lat="49.97924" lon="2.45211">
        <ele>48.3</ele>
        <time>2023-05-17T13:21:48Z</time>
      </trkpt>
      <trkpt lat="49.97923" lon="2.45212">
        <ele>48.3</ele>
        <time>2023-05-17T13:21:49Z</time>
      </trkpt>
      <trkpt lat="49.97921" lon="2.45213">
        <ele>48.3</ele>
        <time>2023-05-17T13:21:50Z</time>
      </trkpt>
      <trkpt lat="49.9792" lon="2.45214">
        <ele>48.4</ele>
        <time>2023-05-17T13:21:52Z</time>
      </trkpt>
      <trkpt lat="49.97919" lon="2.45215">
        <ele>48.4</ele>
        <time>2023-05-17T13:21:53Z</time>
      </trkpt>
      <trkpt lat="49.97917" lon="2.45216">
        <ele>48.4</ele>
        <time>2023-05-17T13:21:54Z</time>
      </trkpt>
      <trkpt lat="49.97915" lon="2.45218">
        <ele>48.5</ele>
        <time>2023-05-17T13:21:55Z</time>
      </trkpt>
      <trkpt lat="49.97914" lon="2.45218">
        <ele>48.5</ele>
        <time>2023-05-17T13:21:56Z</time>
      </trkpt>
      <trkpt lat="49.97914" lon="2.45219">
        <ele>48.5</ele>
        <time>2023-05-17T13:21:57Z</time>
      </trkpt>
      <trkpt lat="49.97913" lon="2.4522">
        <ele>48.6</ele>
        <time>2023-05-17T13:21:58Z</time>
      </trkpt>
      <trkpt lat="49.97911" lon="2.45221">
        <ele>48.6</ele>
        <time>2023-05-17T13:22:00Z</time>
      </trkpt>
      <trkpt lat="49.9791" lon="2.45222">
        <ele>48.6</ele>
        <time>2023-05-17T13:22:01Z</time>
      </trkpt>
      <trkpt lat="49.97909" lon="2.45222">
        <ele>48.7</ele>
        <time>2023-05-17T13:22:02Z</time>
      </trkpt>
      <trkpt lat="49.97908" lon="2.45223">
        <ele>48.7</ele>
        <time>2023-05-17T13:22:03Z</time>
      </trkpt>
      <trkpt lat="49.97906" lon="2.45223">
        <ele>48.7</ele>
        <time>2023-05-17T13:22:04Z</time>
      </trkpt>
      <trkpt lat="49.97905" lon="2.45224">
        <ele>48.8</ele>
        <time>2023-05-17T13:22:05Z</time>
      </trkpt>
      <trkpt lat="49.97904" lon="2.45224">
        <ele>48.8</ele>
        <time>2023-05-17T13:22:06Z</time>
      </trkpt>
      <trkpt lat="49.97902" lon="2.45225">
        <ele>48.8</ele>
        <time>2023-05-17T13:22:08Z</time>
      </trkpt>
      <trkpt lat="49.97901" lon="2.45225">
        <ele>48.8</ele>
        <time>2023-05-17T13:22:09Z</time>
      </trkpt>
      <trkpt lat="49.979" lon="2.45225">
        <ele>48.9</ele>
        <time>2023-05-17T13:22:10Z</time>
      </trkpt>
      <trkpt lat="49.97898" lon="2.45225">
        <ele>48.9</ele>
        <time>2023-05-17T13:22:11Z</time>
      </trkpt>
      <trkpt lat="49.97897" lon="2.45225">
        <ele>48.9</ele>
        <time>2023-05-17T13:22:12Z</time>
      </trkpt>
      <trkpt lat="49.97897" lon="2.45226">
        <ele>49</ele>
        <time>2023-05-17T13:22:13Z</time>
      </trkpt>
      <trkpt lat="49.97895" lon="2.45226">
        <ele>49</ele>
        <time>2023-05-17T13:22:15Z</time>
      </trkpt>
      <trkpt lat="49.97894" lon="2.45227">
        <ele>49</ele>
        <time>2023-05-17T13:22:16Z</time>
      </trkpt>
      <trkpt lat="49.97892" lon="2.45227">
        <ele>49.1</ele>
        <time>2023-05-17T13:22:17Z</time>
      </trkpt>
      <trkpt lat="49.97891" lon="2.45227">
        <ele>49.1</ele>
        <time>2023-05-17T13:22:18Z</time>
      </trkpt>
      <trkpt lat="49.9789" lon="2.45228">
        <ele>49.1</ele>
        <time>2023-05-17T13:22:19Z</time>
      </trkpt>
      <trkpt lat="49.97889" lon="2.45228">
        <ele>49.1</ele>
        <time>2023-05-17T13:22:20Z</time>
      </trkpt>
      <trkpt lat="49.97887" lon="2.45229">
        <ele>49.2</ele>
        <time>2023-05-17T13:22:22Z</time>
      </trkpt>
      <trkpt lat="49.97886" lon="2.45229">
        <ele>49.2</ele>
        <time>2023-05-17T13:22:23Z</time>
      </trkpt>
      <trkpt lat="49.97884" lon="2.45229">
        <ele>49.2</ele>
        <time>2023-05-17T13:22:24Z</time>
      </trkpt>
      <trkpt lat="49.97882" lon="2.4523">
        <ele>49.3</ele>
        <time>2023-05-17T13:22:25Z</time>
      </trkpt>
      <trkpt lat="49.97881" lon="2.4523">
        <ele>49.3</ele>
        <time>2023-05-17T13:22:26Z</time>
      </trkpt>
      <trkpt lat="49.9788" lon="2.4523">
        <ele>49.3</ele>
        <time>2023-05-17T13:22:27Z</time>
      </trkpt>
      <trkpt lat="49.97879" lon="2.45231">
        <ele>49.3</ele>
        <time>2023-05-17T13:22:28Z</time>
      </trkpt>
      <trkpt lat="49.97878" lon="2.45231">
        <ele>49.4</ele>
        <time>2023-05-17T13:22:29Z</time>
      </trkpt>
      <trkpt lat="49.97877" lon="2.45232">
        <ele>49.4</ele>
        <time>2023-05-17T13:22:31Z</time>
      </trkpt>
      <trkpt lat="49.97876" lon="2.45232">
        <ele>49.4</ele>
        <time>2023-05-17T13:22:32Z</time>
      </trkpt>
      <trkpt lat="49.97875" lon="2.45233">
        <ele>49.5</ele>
        <time>2023-05-17T13:22:33Z</time>
      </trkpt>
      <trkpt lat="49.97874" lon="2.45234">
        <ele>49.5</ele>
        <time>2023-05-17T13:22:34Z</time>
      </trkpt>
      <trkpt lat="49.97873" lon="2.45234">
        <ele>49.5</ele>
        <time>2023-05-17T13:22:35Z</time>
      </trkpt>
      <trkpt lat="49.97872" lon="2.45235">
        <ele>49.5</ele>
        <time>2023-05-17T13:22:36Z</time>
      </trkpt>
      <trkpt lat="49.97871" lon="2.45236">
        <ele>49.6</ele>
        <time>2023-05-17T13:22:38Z</time>
      </trkpt>
      <trkpt lat="49.9787" lon="2.45237">
        <ele>49.6</ele>
        <time>2023-05-17T13:22:39Z</time>
      </trkpt>
      <trkpt lat="49.97869" lon="2.45238">
        <ele>49.6</ele>
        <time>2023-05-17T13:22:41Z</time>
      </trkpt>
      <trkpt lat="49.97868" lon="2.45239">
        <ele>49.6</ele>
        <time>2023-05-17T13:22:42Z</time>
      </trkpt>
      <trkpt lat="49.97867" lon="2.4524">
        <ele>49.7</ele>
        <time>2023-05-17T13:22:43Z</time>
      </trkpt>
      <trkpt lat="49.97866" lon="2.45241">
        <ele>49.7</ele>
        <time>2023-05-17T13:22:44Z</time>
      </trkpt>
      <trkpt lat="49.97865" lon="2.45241">
        <ele>49.7</ele>
        <time>2023-05-17T13:22:45Z</time>
      </trkpt>
      <trkpt lat="49.97864" lon="2.45242">
        <ele>49.7</ele>
        <time>2023-05-17T13:22:46Z</time>
      </trkpt>
      <trkpt lat="49.97863" lon="2.45243">
        <ele>49.8</ele>
        <time>2023-05-17T13:22:47Z</time>
      </trkpt>
      <trkpt lat="49.97862" lon="2.45243">
        <ele>49.8</ele>
        <time>2023-05-17T13:22:48Z</time>
      </trkpt>
      <trkpt lat="49.9786" lon="2.45245">
        <ele>49.8</ele>
        <time>2023-05-17T13:22:49Z</time>
      </trkpt>
      <trkpt lat="49.97859" lon="2.45245">
        <ele>49.9</ele>
        <time>2023-05-17T13:22:51Z</time>
      </trkpt>
      <trkpt lat="49.97858" lon="2.45245">
        <ele>49.9</ele>
        <time>2023-05-17T13:22:52Z</time>
      </trkpt>
      <trkpt lat="49.97857" lon="2.45246">
        <ele>49.9</ele>
        <time>2023-05-17T13:22:53Z</time>
      </trkpt>
      <trkpt lat="49.97856" lon="2.45247">
        <ele>49.9</ele>
        <time>2023-05-17T13:22:54Z</time>
      </trkpt>
      <trkpt lat="49.97855" lon="2.45248">
        <ele>50</ele>
        <time>2023-05-17T13:22:55Z</time>
      </trkpt>
      <trkpt lat="49.97854" lon="2.45248">
        <ele>50</ele>
        <time>2023-05-17T13:22:56Z</time>
      </trkpt>
      <trkpt lat="49.97853" lon="2.45249">
        <ele>50</ele>
        <time>2023-05-17T13:22:57Z</time>
      </trkpt>
      <trkpt lat="49.97852" lon="2.4525">
        <ele>50.1</ele>
        <time>2023-05-17T13:22:59Z</time>
      </trkpt>
      <trkpt lat="49.9785" lon="2.45251">
        <ele>50.1</ele>
        <time>2023-05-17T13:23:00Z</time>
      </trkpt>
      <trkpt lat="49.97849" lon="2.45252">
        <ele>50.2</ele>
        <time>2023-05-17T13:23:01Z</time>
      </trkpt>
      <trkpt lat="49.97848" lon="2.45253">
        <ele>50.2</ele>
        <time>2023-05-17T13:23:02Z</time>
      </trkpt>
      <trkpt lat="49.97847" lon="2.45254">
        <ele>50.2</ele>
        <time>2023-05-17T13:23:03Z</time>
      </trkpt>
      <trkpt lat="49.97846" lon="2.45255">
        <ele>50.2</ele>
        <time>2023-05-17T13:23:04Z</time>
      </trkpt>
      <trkpt lat="49.97845" lon="2.45256">
        <ele>50.3</ele>
        <time>2023-05-17T13:23:06Z</time>
      </trkpt>
      <trkpt lat="49.97844" lon="2.45257">
        <ele>50.3</ele>
        <time>2023-05-17T13:23:07Z</time>
      </trkpt>
      <trkpt lat="49.97843" lon="2.45257">
        <ele>50.3</ele>
        <time>2023-05-17T13:23:08Z</time>
      </trkpt>
      <trkpt lat="49.97842" lon="2.45258">
        <ele>50.4</ele>
        <time>2023-05-17T13:23:09Z</time>
      </trkpt>
      <trkpt lat="49.97841" lon="2.45258">
        <ele>50.4</ele>
        <time>2023-05-17T13:23:10Z</time>
      </trkpt>
      <trkpt lat="49.9784" lon="2.45258">
        <ele>50.4</ele>
        <time>2023-05-17T13:23:11Z</time>
      </trkpt>
      <trkpt lat="49.97839" lon="2.45258">
        <ele>50.5</ele>
        <time>2023-05-17T13:23:13Z</time>
      </trkpt>
      <trkpt lat="49.97838" lon="2.45257">
        <ele>50.5</ele>
        <time>2023-05-17T13:23:15Z</time>
      </trkpt>
      <trkpt lat="49.97838" lon="2.45256">
        <ele>50.5</ele>
        <time>2023-05-17T13:23:16Z</time>
      </trkpt>
      <trkpt lat="49.97839" lon="2.45255">
        <ele>50.5</ele>
        <time>2023-05-17T13:23:18Z</time>
      </trkpt>
      <trkpt lat="49.97839" lon="2.45255">
        <ele>50.5</ele>
        <time>2023-05-17T13:23:19Z</time>
      </trkpt>
      <trkpt lat="49.97839" lon="2.45255">
        <ele>50.5</ele>
        <time>2023-05-17T13:23:20Z</time>
      </trkpt>
      <trkpt lat="49.97839" lon="2.45255">
        <ele>50.5</ele>
        <time>2023-05-17T13:23:22Z</time>
      </trkpt>
      <trkpt lat="49.97839" lon="2.45255">
        <ele>50.5</ele>
        <time>2023-05-17T13:23:23Z</time>
      </trkpt>
      <trkpt lat="49.97839" lon="2.45255">
        <ele>50.5</ele>
        <time>2023-05-17T13:23:25Z</time>
      </trkpt>
      <trkpt lat="49.97838" lon="2.45255">
        <ele>50.5</ele>
        <time>2023-05-17T13:23:26Z</time>
      </trkpt>
      <trkpt lat="49.97838" lon="2.45255">
        <ele>50.5</ele>
        <time>2023-05-17T13:23:28Z</time>
      </trkpt>
      <trkpt lat="49.97838" lon="2.45255">
        <ele>50.5</ele>
        <time>2023-05-17T13:23:29Z</time>
      </trkpt>
      <trkpt lat="49.97838" lon="2.45255">
        <ele>50.5</ele>
        <time>2023-05-17T13:23:30Z</time>
      </trkpt>
      <trkpt lat="49.97839" lon="2.45259">
        <ele>50.6</ele>
        <time>2023-05-17T13:24:59Z</time>
      </trkpt>
      <trkpt lat="49.97839" lon="2.45259">
        <ele>50.6</ele>
        <time>2023-05-17T13:25:00Z</time>
      </trkpt>
      <trkpt lat="49.97838" lon="2.45259">
        <ele>50.6</ele>
        <time>2023-05-17T13:25:01Z</time>
      </trkpt>
      <trkpt lat="49.97838" lon="2.45258">
        <ele>50.6</ele>
        <time>2023-05-17T13:25:03Z</time>
      </trkpt>
      <trkpt lat="49.97837" lon="2.45258">
        <ele>50.6</ele>
        <time>2023-05-17T13:25:04Z</time>
      </trkpt>
      <trkpt lat="49.97837" lon="2.45258">
        <ele>50.6</ele>
        <time>2023-05-17T13:25:05Z</time>
      </trkpt>
      <trkpt lat="49.97836" lon="2.45258">
        <ele>50.6</ele>
        <time>2023-05-17T13:25:07Z</time>
      </trkpt>
      <trkpt lat="49.97835" lon="2.45258">
        <ele>50.7</ele>
        <time>2023-05-17T13:25:08Z</time>
      </trkpt>
      <trkpt lat="49.97834" lon="2.45257">
        <ele>50.7</ele>
        <time>2023-05-17T13:25:10Z</time>
      </trkpt>
      <trkpt lat="49.97834" lon="2.45257">
        <ele>50.6</ele>
        <time>2023-05-17T13:25:11Z</time>
      </trkpt>
      <trkpt lat="49.97834" lon="2.45256">
        <ele>50.6</ele>
        <time>2023-05-17T13:25:13Z</time>
      </trkpt>
      <trkpt lat="49.97834" lon="2.45256">
        <ele>50.6</ele>
        <time>2023-05-17T13:25:14Z</time>
      </trkpt>
      <trkpt lat="49.97833" lon="2.45256">
        <ele>50.6</ele>
        <time>2023-05-17T13:25:16Z</time>
      </trkpt>
      <trkpt lat="49.97833" lon="2.45256">
        <ele>50.6</ele>
        <time>2023-05-17T13:25:17Z</time>
      </trkpt>
      <trkpt lat="49.97833" lon="2.45256">
        <ele>50.6</ele>
        <time>2023-05-17T13:25:19Z</time>
      </trkpt>
      <trkpt lat="49.97832" lon="2.45256">
        <ele>50.6</ele>
        <time>2023-05-17T13:25:20Z</time>
      </trkpt>
      <trkpt lat="49.97832" lon="2.45256">
        <ele>50.6</ele>
        <time>2023-05-17T13:25:21Z</time>
      </trkpt>
      <trkpt lat="49.97831" lon="2.45256">
        <ele>50.6</ele>
        <time>2023-05-17T13:25:23Z</time>
      </trkpt>
      <trkpt lat="49.97831" lon="2.45256">
        <ele>50.6</ele>
        <time>2023-05-17T13:25:24Z</time>
      </trkpt>
      <trkpt lat="49.97831" lon="2.45256">
        <ele>50.6</ele>
        <time>2023-05-17T13:25:26Z</time>
      </trkpt>
      <trkpt lat="49.9783" lon="2.45256">
        <ele>50.6</ele>
        <time>2023-05-17T13:25:27Z</time>
      </trkpt>
      <trkpt lat="49.9783" lon="2.45255">
        <ele>50.6</ele>
        <time>2023-05-17T13:25:28Z</time>
      </trkpt>
      <trkpt lat="49.97829" lon="2.45254">
        <ele>50.6</ele>
        <time>2023-05-17T13:25:29Z</time>
      </trkpt>
      <trkpt lat="49.97828" lon="2.45253">
        <ele>50.6</ele>
        <time>2023-05-17T13:25:30Z</time>
      </trkpt>
      <trkpt lat="49.97827" lon="2.45253">
        <ele>50.6</ele>
        <time>2023-05-17T13:25:31Z</time>
      </trkpt>
      <trkpt lat="49.97827" lon="2.45253">
        <ele>50.5</ele>
        <time>2023-05-17T13:25:32Z</time>
      </trkpt>
      <trkpt lat="49.97826" lon="2.45252">
        <ele>50.5</ele>
        <time>2023-05-17T13:25:34Z</time>
      </trkpt>
      <trkpt lat="49.97825" lon="2.45252">
        <ele>50.6</ele>
        <time>2023-05-17T13:25:35Z</time>
      </trkpt>
      <trkpt lat="49.97824" lon="2.45252">
        <ele>50.5</ele>
        <time>2023-05-17T13:25:36Z</time>
      </trkpt>
      <trkpt lat="49.97822" lon="2.45252">
        <ele>50.5</ele>
        <time>2023-05-17T13:25:37Z</time>
      </trkpt>
      <trkpt lat="49.97821" lon="2.45252">
        <ele>50.6</ele>
        <time>2023-05-17T13:25:38Z</time>
      </trkpt>
      <trkpt lat="49.9782" lon="2.45252">
        <ele>50.6</ele>
        <time>2023-05-17T13:25:39Z</time>
      </trkpt>
      <trkpt lat="49.97819" lon="2.45253">
        <ele>50.6</ele>
        <time>2023-05-17T13:25:41Z</time>
      </trkpt>
      <trkpt lat="49.97818" lon="2.45253">
        <ele>50.7</ele>
        <time>2023-05-17T13:25:42Z</time>
      </trkpt>
      <trkpt lat="49.97817" lon="2.45252">
        <ele>50.6</ele>
        <time>2023-05-17T13:25:44Z</time>
      </trkpt>
      <trkpt lat="49.97815" lon="2.45252">
        <ele>50.6</ele>
        <time>2023-05-17T13:25:45Z</time>
      </trkpt>
      <trkpt lat="49.97813" lon="2.45251">
        <ele>50.7</ele>
        <time>2023-05-17T13:25:46Z</time>
      </trkpt>
      <trkpt lat="49.97812" lon="2.45251">
        <ele>50.7</ele>
        <time>2023-05-17T13:25:47Z</time>
      </trkpt>
      <trkpt lat="49.97812" lon="2.4525">
        <ele>50.7</ele>
        <time>2023-05-17T13:25:48Z</time>
      </trkpt>
      <trkpt lat="49.9781" lon="2.4525">
        <ele>50.7</ele>
        <time>2023-05-17T13:25:49Z</time>
      </trkpt>
      <trkpt lat="49.97809" lon="2.45249">
        <ele>50.7</ele>
        <time>2023-05-17T13:25:50Z</time>
      </trkpt>
      <trkpt lat="49.97808" lon="2.45249">
        <ele>50.7</ele>
        <time>2023-05-17T13:25:51Z</time>
      </trkpt>
      <trkpt lat="49.97807" lon="2.45248">
        <ele>50.7</ele>
        <time>2023-05-17T13:25:52Z</time>
      </trkpt>
      <trkpt lat="49.97806" lon="2.45248">
        <ele>50.7</ele>
        <time>2023-05-17T13:25:54Z</time>
      </trkpt>
      <trkpt lat="49.97805" lon="2.45247">
        <ele>50.7</ele>
        <time>2023-05-17T13:25:55Z</time>
      </trkpt>
      <trkpt lat="49.97805" lon="2.45246">
        <ele>50.7</ele>
        <time>2023-05-17T13:25:56Z</time>
      </trkpt>
      <trkpt lat="49.97804" lon="2.45245">
        <ele>50.7</ele>
        <time>2023-05-17T13:25:57Z</time>
      </trkpt>
      <trkpt lat="49.97803" lon="2.45245">
        <ele>50.7</ele>
        <time>2023-05-17T13:25:58Z</time>
      </trkpt>
      <trkpt lat="49.97803" lon="2.45244">
        <ele>50.7</ele>
        <time>2023-05-17T13:25:59Z</time>
      </trkpt>
      <trkpt lat="49.97802" lon="2.45244">
        <ele>50.7</ele>
        <time>2023-05-17T13:26:00Z</time>
      </trkpt>
      <trkpt lat="49.97801" lon="2.45243">
        <ele>50.7</ele>
        <time>2023-05-17T13:26:02Z</time>
      </trkpt>
      <trkpt lat="49.978" lon="2.45242">
        <ele>50.7</ele>
        <time>2023-05-17T13:26:03Z</time>
      </trkpt>
      <trkpt lat="49.97799" lon="2.45242">
        <ele>50.7</ele>
        <time>2023-05-17T13:26:04Z</time>
      </trkpt>
      <trkpt lat="49.97798" lon="2.45241">
        <ele>50.7</ele>
        <time>2023-05-17T13:26:05Z</time>
      </trkpt>
      <trkpt lat="49.97796" lon="2.45241">
        <ele>50.8</ele>
        <time>2023-05-17T13:26:07Z</time>
      </trkpt>
      <trkpt lat="49.97795" lon="2.45241">
        <ele>50.8</ele>
        <time>2023-05-17T13:26:08Z</time>
      </trkpt>
      <trkpt lat="49.97795" lon="2.4524">
        <ele>50.8</ele>
        <time>2023-05-17T13:26:09Z</time>
      </trkpt>
      <trkpt lat="49.97794" lon="2.4524">
        <ele>50.8</ele>
        <time>2023-05-17T13:26:10Z</time>
      </trkpt>
      <trkpt lat="49.97793" lon="2.4524">
        <ele>50.8</ele>
        <time>2023-05-17T13:26:12Z</time>
      </trkpt>
      <trkpt lat="49.97791" lon="2.4524">
        <ele>50.8</ele>
        <time>2023-05-17T13:26:13Z</time>
      </trkpt>
      <trkpt lat="49.97791" lon="2.4524">
        <ele>50.8</ele>
        <time>2023-05-17T13:26:14Z</time>
      </trkpt>
      <trkpt lat="49.9779" lon="2.4524">
        <ele>50.8</ele>
        <time>2023-05-17T13:26:15Z</time>
      </trkpt>
      <trkpt lat="49.97789" lon="2.45239">
        <ele>50.8</ele>
        <time>2023-05-17T13:26:16Z</time>
      </trkpt>
      <trkpt lat="49.97789" lon="2.45239">
        <ele>50.9</ele>
        <time>2023-05-17T13:26:17Z</time>
      </trkpt>
      <trkpt lat="49.97788" lon="2.45239">
        <ele>50.9</ele>
        <time>2023-05-17T13:26:18Z</time>
      </trkpt>
      <trkpt lat="49.97785" lon="2.45238">
        <ele>50.9</ele>
        <time>2023-05-17T13:26:19Z</time>
      </trkpt>
      <trkpt lat="49.97784" lon="2.45237">
        <ele>50.9</ele>
        <time>2023-05-17T13:26:21Z</time>
      </trkpt>
      <trkpt lat="49.97783" lon="2.45237">
        <ele>51</ele>
        <time>2023-05-17T13:26:22Z</time>
      </trkpt>
      <trkpt lat="49.97781" lon="2.45237">
        <ele>51</ele>
        <time>2023-05-17T13:26:23Z</time>
      </trkpt>
      <trkpt lat="49.97779" lon="2.45237">
        <ele>51.1</ele>
        <time>2023-05-17T13:26:25Z</time>
      </trkpt>
      <trkpt lat="49.97778" lon="2.45236">
        <ele>51.2</ele>
        <time>2023-05-17T13:26:26Z</time>
      </trkpt>
      <trkpt lat="49.97776" lon="2.45236">
        <ele>51.1</ele>
        <time>2023-05-17T13:26:27Z</time>
      </trkpt>
      <trkpt lat="49.97774" lon="2.45235">
        <ele>51.1</ele>
        <time>2023-05-17T13:26:28Z</time>
      </trkpt>
      <trkpt lat="49.97773" lon="2.45235">
        <ele>51.1</ele>
        <time>2023-05-17T13:26:29Z</time>
      </trkpt>
      <trkpt lat="49.97772" lon="2.45235">
        <ele>51.2</ele>
        <time>2023-05-17T13:26:30Z</time>
      </trkpt>
      <trkpt lat="49.97771" lon="2.45234">
        <ele>51.2</ele>
        <time>2023-05-17T13:26:31Z</time>
      </trkpt>
      <trkpt lat="49.97769" lon="2.45234">
        <ele>51.3</ele>
        <time>2023-05-17T13:26:32Z</time>
      </trkpt>
      <trkpt lat="49.97768" lon="2.45234">
        <ele>51.3</ele>
        <time>2023-05-17T13:26:34Z</time>
      </trkpt>
      <trkpt lat="49.97766" lon="2.45234">
        <ele>51.3</ele>
        <time>2023-05-17T13:26:35Z</time>
      </trkpt>
      <trkpt lat="49.97764" lon="2.45234">
        <ele>51.3</ele>
        <time>2023-05-17T13:26:36Z</time>
      </trkpt>
      <trkpt lat="49.97763" lon="2.45234">
        <ele>51.4</ele>
        <time>2023-05-17T13:26:37Z</time>
      </trkpt>
      <trkpt lat="49.97761" lon="2.45234">
        <ele>51.4</ele>
        <time>2023-05-17T13:26:39Z</time>
      </trkpt>
      <trkpt lat="49.9776" lon="2.45234">
        <ele>51.5</ele>
        <time>2023-05-17T13:26:40Z</time>
      </trkpt>
      <trkpt lat="49.97758" lon="2.45234">
        <ele>51.5</ele>
        <time>2023-05-17T13:26:41Z</time>
      </trkpt>
      <trkpt lat="49.97757" lon="2.45234">
        <ele>51.5</ele>
        <time>2023-05-17T13:26:42Z</time>
      </trkpt>
      <trkpt lat="49.97756" lon="2.45234">
        <ele>51.5</ele>
        <time>2023-05-17T13:26:43Z</time>
      </trkpt>
      <trkpt lat="49.97755" lon="2.45235">
        <ele>51.6</ele>
        <time>2023-05-17T13:26:44Z</time>
      </trkpt>
      <trkpt lat="49.97753" lon="2.45235">
        <ele>51.6</ele>
        <time>2023-05-17T13:26:46Z</time>
      </trkpt>
      <trkpt lat="49.97752" lon="2.45235">
        <ele>51.6</ele>
        <time>2023-05-17T13:26:47Z</time>
      </trkpt>
      <trkpt lat="49.97751" lon="2.45236">
        <ele>51.7</ele>
        <time>2023-05-17T13:26:48Z</time>
      </trkpt>
      <trkpt lat="49.9775" lon="2.45236">
        <ele>51.7</ele>
        <time>2023-05-17T13:26:49Z</time>
      </trkpt>
      <trkpt lat="49.97749" lon="2.45237">
        <ele>51.8</ele>
        <time>2023-05-17T13:26:50Z</time>
      </trkpt>
      <trkpt lat="49.97748" lon="2.45238">
        <ele>51.7</ele>
        <time>2023-05-17T13:26:51Z</time>
      </trkpt>
      <trkpt lat="49.97747" lon="2.45239">
        <ele>51.8</ele>
        <time>2023-05-17T13:26:52Z</time>
      </trkpt>
      <trkpt lat="49.97746" lon="2.45239">
        <ele>51.8</ele>
        <time>2023-05-17T13:26:53Z</time>
      </trkpt>
      <trkpt lat="49.97744" lon="2.4524">
        <ele>51.8</ele>
        <time>2023-05-17T13:26:55Z</time>
      </trkpt>
      <trkpt lat="49.97743" lon="2.4524">
        <ele>51.9</ele>
        <time>2023-05-17T13:26:56Z</time>
      </trkpt>
      <trkpt lat="49.97742" lon="2.45241">
        <ele>51.9</ele>
        <time>2023-05-17T13:26:57Z</time>
      </trkpt>
      <trkpt lat="49.97741" lon="2.45241">
        <ele>52</ele>
        <time>2023-05-17T13:26:59Z</time>
      </trkpt>
      <trkpt lat="49.9774" lon="2.45241">
        <ele>51.9</ele>
        <time>2023-05-17T13:27:00Z</time>
      </trkpt>
      <trkpt lat="49.97739" lon="2.45241">
        <ele>52</ele>
        <time>2023-05-17T13:27:01Z</time>
      </trkpt>
      <trkpt lat="49.97737" lon="2.45241">
        <ele>52</ele>
        <time>2023-05-17T13:27:02Z</time>
      </trkpt>
      <trkpt lat="49.97736" lon="2.45241">
        <ele>52</ele>
        <time>2023-05-17T13:27:03Z</time>
      </trkpt>
      <trkpt lat="49.97735" lon="2.45241">
        <ele>52</ele>
        <time>2023-05-17T13:27:04Z</time>
      </trkpt>
      <trkpt lat="49.97734" lon="2.45241">
        <ele>52</ele>
        <time>2023-05-17T13:27:06Z</time>
      </trkpt>
      <trkpt lat="49.97733" lon="2.45241">
        <ele>52</ele>
        <time>2023-05-17T13:27:07Z</time>
      </trkpt>
      <trkpt lat="49.97732" lon="2.45241">
        <ele>52</ele>
        <time>2023-05-17T13:27:08Z</time>
      </trkpt>
      <trkpt lat="49.97731" lon="2.45241">
        <ele>52.1</ele>
        <time>2023-05-17T13:27:09Z</time>
      </trkpt>
      <trkpt lat="49.97729" lon="2.4524">
        <ele>52.1</ele>
        <time>2023-05-17T13:27:10Z</time>
      </trkpt>
      <trkpt lat="49.97729" lon="2.4524">
        <ele>52.1</ele>
        <time>2023-05-17T13:27:11Z</time>
      </trkpt>
      <trkpt lat="49.97728" lon="2.4524">
        <ele>52.1</ele>
        <time>2023-05-17T13:27:13Z</time>
      </trkpt>
      <trkpt lat="49.97727" lon="2.4524">
        <ele>52</ele>
        <time>2023-05-17T13:27:14Z</time>
      </trkpt>
      <trkpt lat="49.97726" lon="2.45239">
        <ele>52</ele>
        <time>2023-05-17T13:27:15Z</time>
      </trkpt>
      <trkpt lat="49.97726" lon="2.45238">
        <ele>52</ele>
        <time>2023-05-17T13:27:16Z</time>
      </trkpt>
      <trkpt lat="49.97725" lon="2.45237">
        <ele>52</ele>
        <time>2023-05-17T13:27:17Z</time>
      </trkpt>
      <trkpt lat="49.97724" lon="2.45237">
        <ele>52</ele>
        <time>2023-05-17T13:27:18Z</time>
      </trkpt>
      <trkpt lat="49.97723" lon="2.45236">
        <ele>52</ele>
        <time>2023-05-17T13:27:19Z</time>
      </trkpt>
      <trkpt lat="49.97723" lon="2.45236">
        <ele>52</ele>
        <time>2023-05-17T13:27:20Z</time>
      </trkpt>
      <trkpt lat="49.97722" lon="2.45236">
        <ele>52</ele>
        <time>2023-05-17T13:27:22Z</time>
      </trkpt>
      <trkpt lat="49.97721" lon="2.45236">
        <ele>52</ele>
        <time>2023-05-17T13:27:23Z</time>
      </trkpt>
      <trkpt lat="49.9772" lon="2.45236">
        <ele>52</ele>
        <time>2023-05-17T13:27:24Z</time>
      </trkpt>
      <trkpt lat="49.9772" lon="2.45236">
        <ele>52</ele>
        <time>2023-05-17T13:27:25Z</time>
      </trkpt>
      <trkpt lat="49.97721" lon="2.45236">
        <ele>52</ele>
        <time>2023-05-17T13:27:26Z</time>
      </trkpt>
      <trkpt lat="49.97721" lon="2.45235">
        <ele>51.9</ele>
        <time>2023-05-17T13:27:28Z</time>
      </trkpt>
      <trkpt lat="49.97721" lon="2.45235">
        <ele>51.9</ele>
        <time>2023-05-17T13:27:29Z</time>
      </trkpt>
      <trkpt lat="49.9772" lon="2.45234">
        <ele>51.9</ele>
        <time>2023-05-17T13:27:30Z</time>
      </trkpt>
      <trkpt lat="49.9772" lon="2.45234">
        <ele>51.9</ele>
        <time>2023-05-17T13:27:32Z</time>
      </trkpt>
      <trkpt lat="49.9772" lon="2.45234">
        <ele>51.9</ele>
        <time>2023-05-17T13:27:33Z</time>
      </trkpt>
      <trkpt lat="49.97721" lon="2.45236">
        <ele>52</ele>
        <time>2023-05-17T13:27:35Z</time>
      </trkpt>
      <trkpt lat="49.97721" lon="2.45237">
        <ele>52</ele>
        <time>2023-05-17T13:27:36Z</time>
      </trkpt>
      <trkpt lat="49.97722" lon="2.45238">
        <ele>52</ele>
        <time>2023-05-17T13:27:38Z</time>
      </trkpt>
      <trkpt lat="49.97721" lon="2.45238">
        <ele>52</ele>
        <time>2023-05-17T13:27:39Z</time>
      </trkpt>
      <trkpt lat="49.97721" lon="2.45237">
        <ele>52</ele>
        <time>2023-05-17T13:27:40Z</time>
      </trkpt>
      <trkpt lat="49.9772" lon="2.45237">
        <ele>52</ele>
        <time>2023-05-17T13:27:42Z</time>
      </trkpt>
      <trkpt lat="49.9772" lon="2.45236">
        <ele>52</ele>
        <time>2023-05-17T13:27:43Z</time>
      </trkpt>
      <trkpt lat="49.97719" lon="2.45235">
        <ele>51.9</ele>
        <time>2023-05-17T13:27:44Z</time>
      </trkpt>
      <trkpt lat="49.97718" lon="2.45236">
        <ele>52</ele>
        <time>2023-05-17T13:27:45Z</time>
      </trkpt>
      <trkpt lat="49.97718" lon="2.45236">
        <ele>52</ele>
        <time>2023-05-17T13:27:46Z</time>
      </trkpt>
      <trkpt lat="49.97718" lon="2.45234">
        <ele>51.9</ele>
        <time>2023-05-17T13:27:48Z</time>
      </trkpt>
      <trkpt lat="49.97718" lon="2.45233">
        <ele>51.9</ele>
        <time>2023-05-17T13:27:49Z</time>
      </trkpt>
      <trkpt lat="49.97717" lon="2.45231">
        <ele>51.9</ele>
        <time>2023-05-17T13:27:50Z</time>
      </trkpt>
      <trkpt lat="49.97716" lon="2.45229">
        <ele>51.8</ele>
        <time>2023-05-17T13:27:51Z</time>
      </trkpt>
      <trkpt lat="49.97716" lon="2.45228">
        <ele>51.8</ele>
        <time>2023-05-17T13:27:52Z</time>
      </trkpt>
      <trkpt lat="49.97715" lon="2.45226">
        <ele>51.8</ele>
        <time>2023-05-17T13:27:53Z</time>
      </trkpt>
      <trkpt lat="49.97714" lon="2.45224">
        <ele>51.8</ele>
        <time>2023-05-17T13:27:54Z</time>
      </trkpt>
      <trkpt lat="49.97713" lon="2.45222">
        <ele>51.7</ele>
        <time>2023-05-17T13:27:55Z</time>
      </trkpt>
      <trkpt lat="49.97712" lon="2.45218">
        <ele>51.6</ele>
        <time>2023-05-17T13:27:56Z</time>
      </trkpt>
      <trkpt lat="49.97711" lon="2.45216">
        <ele>51.6</ele>
        <time>2023-05-17T13:27:58Z</time>
      </trkpt>
      <trkpt lat="49.9771" lon="2.45214">
        <ele>51.5</ele>
        <time>2023-05-17T13:27:59Z</time>
      </trkpt>
      <trkpt lat="49.97709" lon="2.45212">
        <ele>51.5</ele>
        <time>2023-05-17T13:28:00Z</time>
      </trkpt>
      <trkpt lat="49.97709" lon="2.45209">
        <ele>51.5</ele>
        <time>2023-05-17T13:28:01Z</time>
      </trkpt>
      <trkpt lat="49.97708" lon="2.45207">
        <ele>51.5</ele>
        <time>2023-05-17T13:28:02Z</time>
      </trkpt>
      <trkpt lat="49.97707" lon="2.45204">
        <ele>51.4</ele>
        <time>2023-05-17T13:28:03Z</time>
      </trkpt>
      <trkpt lat="49.97705" lon="2.45199">
        <ele>51.3</ele>
        <time>2023-05-17T13:28:05Z</time>
      </trkpt>
      <trkpt lat="49.97703" lon="2.45194">
        <ele>51.3</ele>
        <time>2023-05-17T13:28:06Z</time>
      </trkpt>
      <trkpt lat="49.97702" lon="2.45192">
        <ele>51.2</ele>
        <time>2023-05-17T13:28:07Z</time>
      </trkpt>
      <trkpt lat="49.97701" lon="2.45188">
        <ele>51.1</ele>
        <time>2023-05-17T13:28:08Z</time>
      </trkpt>
      <trkpt lat="49.97698" lon="2.45182">
        <ele>51.1</ele>
        <time>2023-05-17T13:28:10Z</time>
      </trkpt>
      <trkpt lat="49.97696" lon="2.45176">
        <ele>51</ele>
        <time>2023-05-17T13:28:12Z</time>
      </trkpt>
      <trkpt lat="49.97693" lon="2.45171">
        <ele>50.9</ele>
        <time>2023-05-17T13:28:13Z</time>
      </trkpt>
      <trkpt lat="49.97692" lon="2.45169">
        <ele>50.9</ele>
        <time>2023-05-17T13:28:14Z</time>
      </trkpt>
      <trkpt lat="49.97691" lon="2.45165">
        <ele>50.9</ele>
        <time>2023-05-17T13:28:15Z</time>
      </trkpt>
      <trkpt lat="49.97689" lon="2.45163">
        <ele>50.9</ele>
        <time>2023-05-17T13:28:16Z</time>
      </trkpt>
      <trkpt lat="49.97688" lon="2.45159">
        <ele>50.8</ele>
        <time>2023-05-17T13:28:18Z</time>
      </trkpt>
      <trkpt lat="49.97687" lon="2.45156">
        <ele>50.8</ele>
        <time>2023-05-17T13:28:19Z</time>
      </trkpt>
      <trkpt lat="49.97686" lon="2.45154">
        <ele>50.8</ele>
        <time>2023-05-17T13:28:20Z</time>
      </trkpt>
      <trkpt lat="49.97685" lon="2.45153">
        <ele>50.7</ele>
        <time>2023-05-17T13:28:21Z</time>
      </trkpt>
      <trkpt lat="49.97684" lon="2.45151">
        <ele>50.7</ele>
        <time>2023-05-17T13:28:22Z</time>
      </trkpt>
      <trkpt lat="49.97683" lon="2.45149">
        <ele>50.6</ele>
        <time>2023-05-17T13:28:24Z</time>
      </trkpt>
      <trkpt lat="49.97682" lon="2.45146">
        <ele>50.6</ele>
        <time>2023-05-17T13:28:25Z</time>
      </trkpt>
      <trkpt lat="49.97682" lon="2.45144">
        <ele>50.6</ele>
        <time>2023-05-17T13:28:26Z</time>
      </trkpt>
      <trkpt lat="49.97681" lon="2.45142">
        <ele>50.6</ele>
        <time>2023-05-17T13:28:27Z</time>
      </trkpt>
      <trkpt lat="49.9768" lon="2.4514">
        <ele>50.5</ele>
        <time>2023-05-17T13:28:29Z</time>
      </trkpt>
      <trkpt lat="49.97679" lon="2.45137">
        <ele>50.5</ele>
        <time>2023-05-17T13:28:30Z</time>
      </trkpt>
      <trkpt lat="49.97679" lon="2.45135">
        <ele>50.4</ele>
        <time>2023-05-17T13:28:31Z</time>
      </trkpt>
      <trkpt lat="49.97678" lon="2.45133">
        <ele>50.4</ele>
        <time>2023-05-17T13:28:32Z</time>
      </trkpt>
      <trkpt lat="49.97678" lon="2.45131">
        <ele>50.4</ele>
        <time>2023-05-17T13:28:33Z</time>
      </trkpt>
      <trkpt lat="49.97677" lon="2.4513">
        <ele>50.4</ele>
        <time>2023-05-17T13:28:34Z</time>
      </trkpt>
      <trkpt lat="49.97676" lon="2.45128">
        <ele>50.3</ele>
        <time>2023-05-17T13:28:36Z</time>
      </trkpt>
      <trkpt lat="49.97675" lon="2.45125">
        <ele>50.3</ele>
        <time>2023-05-17T13:28:37Z</time>
      </trkpt>
      <trkpt lat="49.97675" lon="2.45124">
        <ele>50.2</ele>
        <time>2023-05-17T13:28:38Z</time>
      </trkpt>
      <trkpt lat="49.97674" lon="2.45122">
        <ele>50.2</ele>
        <time>2023-05-17T13:28:39Z</time>
      </trkpt>
      <trkpt lat="49.97673" lon="2.45119">
        <ele>50.2</ele>
        <time>2023-05-17T13:28:40Z</time>
      </trkpt>
      <trkpt lat="49.97673" lon="2.45118">
        <ele>50.2</ele>
        <time>2023-05-17T13:28:41Z</time>
      </trkpt>
      <trkpt lat="49.97672" lon="2.45117">
        <ele>50.2</ele>
        <time>2023-05-17T13:28:42Z</time>
      </trkpt>
      <trkpt lat="49.97671" lon="2.45116">
        <ele>50.2</ele>
        <time>2023-05-17T13:28:44Z</time>
      </trkpt>
      <trkpt lat="49.9767" lon="2.45114">
        <ele>50.1</ele>
        <time>2023-05-17T13:28:45Z</time>
      </trkpt>
      <trkpt lat="49.9767" lon="2.45112">
        <ele>50.1</ele>
        <time>2023-05-17T13:28:46Z</time>
      </trkpt>
      <trkpt lat="49.97669" lon="2.45111">
        <ele>50</ele>
        <time>2023-05-17T13:28:47Z</time>
      </trkpt>
      <trkpt lat="49.97668" lon="2.45109">
        <ele>50</ele>
        <time>2023-05-17T13:28:49Z</time>
      </trkpt>
      <trkpt lat="49.97668" lon="2.45106">
        <ele>50</ele>
        <time>2023-05-17T13:28:50Z</time>
      </trkpt>
      <trkpt lat="49.97667" lon="2.45105">
        <ele>50</ele>
        <time>2023-05-17T13:28:51Z</time>
      </trkpt>
      <trkpt lat="49.97667" lon="2.45104">
        <ele>50</ele>
        <time>2023-05-17T13:28:52Z</time>
      </trkpt>
      <trkpt lat="49.97667" lon="2.45102">
        <ele>49.9</ele>
        <time>2023-05-17T13:28:53Z</time>
      </trkpt>
      <trkpt lat="49.97666" lon="2.451">
        <ele>49.9</ele>
        <time>2023-05-17T13:28:55Z</time>
      </trkpt>
      <trkpt lat="49.97666" lon="2.45098">
        <ele>49.9</ele>
        <time>2023-05-17T13:28:56Z</time>
      </trkpt>
      <trkpt lat="49.97666" lon="2.45096">
        <ele>49.9</ele>
        <time>2023-05-17T13:28:57Z</time>
      </trkpt>
      <trkpt lat="49.97667" lon="2.45093">
        <ele>49.9</ele>
        <time>2023-05-17T13:28:59Z</time>
      </trkpt>
      <trkpt lat="49.97667" lon="2.45092">
        <ele>49.9</ele>
        <time>2023-05-17T13:29:00Z</time>
      </trkpt>
      <trkpt lat="49.97667" lon="2.45091">
        <ele>49.9</ele>
        <time>2023-05-17T13:29:01Z</time>
      </trkpt>
      <trkpt lat="49.97667" lon="2.45089">
        <ele>49.9</ele>
        <time>2023-05-17T13:29:02Z</time>
      </trkpt>
      <trkpt lat="49.97667" lon="2.45086">
        <ele>49.9</ele>
        <time>2023-05-17T13:29:03Z</time>
      </trkpt>
      <trkpt lat="49.97667" lon="2.45085">
        <ele>49.9</ele>
        <time>2023-05-17T13:29:04Z</time>
      </trkpt>
      <trkpt lat="49.97666" lon="2.45083">
        <ele>49.9</ele>
        <time>2023-05-17T13:29:06Z</time>
      </trkpt>
      <trkpt lat="49.97666" lon="2.45082">
        <ele>49.9</ele>
        <time>2023-05-17T13:29:07Z</time>
      </trkpt>
      <trkpt lat="49.97666" lon="2.45081">
        <ele>49.9</ele>
        <time>2023-05-17T13:29:08Z</time>
      </trkpt>
      <trkpt lat="49.97665" lon="2.45079">
        <ele>49.9</ele>
        <time>2023-05-17T13:29:09Z</time>
      </trkpt>
      <trkpt lat="49.97665" lon="2.45076">
        <ele>49.8</ele>
        <time>2023-05-17T13:29:10Z</time>
      </trkpt>
      <trkpt lat="49.97664" lon="2.45075">
        <ele>49.8</ele>
        <time>2023-05-17T13:29:11Z</time>
      </trkpt>
      <trkpt lat="49.97664" lon="2.45074">
        <ele>49.8</ele>
        <time>2023-05-17T13:29:13Z</time>
      </trkpt>
      <trkpt lat="49.97663" lon="2.45072">
        <ele>49.8</ele>
        <time>2023-05-17T13:29:14Z</time>
      </trkpt>
      <trkpt lat="49.97663" lon="2.45071">
        <ele>49.8</ele>
        <time>2023-05-17T13:29:15Z</time>
      </trkpt>
      <trkpt lat="49.97662" lon="2.4507">
        <ele>49.8</ele>
        <time>2023-05-17T13:29:16Z</time>
      </trkpt>
      <trkpt lat="49.97661" lon="2.45068">
        <ele>49.8</ele>
        <time>2023-05-17T13:29:17Z</time>
      </trkpt>
      <trkpt lat="49.9766" lon="2.45067">
        <ele>49.8</ele>
        <time>2023-05-17T13:29:19Z</time>
      </trkpt>
      <trkpt lat="49.9766" lon="2.45066">
        <ele>49.8</ele>
        <time>2023-05-17T13:29:20Z</time>
      </trkpt>
      <trkpt lat="49.97659" lon="2.45064">
        <ele>49.8</ele>
        <time>2023-05-17T13:29:21Z</time>
      </trkpt>
      <trkpt lat="49.97659" lon="2.45063">
        <ele>49.8</ele>
        <time>2023-05-17T13:29:22Z</time>
      </trkpt>
      <trkpt lat="49.97658" lon="2.45062">
        <ele>49.8</ele>
        <time>2023-05-17T13:29:23Z</time>
      </trkpt>
      <trkpt lat="49.97657" lon="2.45061">
        <ele>49.8</ele>
        <time>2023-05-17T13:29:24Z</time>
      </trkpt>
      <trkpt lat="49.97656" lon="2.4506">
        <ele>49.8</ele>
        <time>2023-05-17T13:29:26Z</time>
      </trkpt>
      <trkpt lat="49.97656" lon="2.45058">
        <ele>49.7</ele>
        <time>2023-05-17T13:29:27Z</time>
      </trkpt>
      <trkpt lat="49.97654" lon="2.45056">
        <ele>49.7</ele>
        <time>2023-05-17T13:29:28Z</time>
      </trkpt>
      <trkpt lat="49.97654" lon="2.45055">
        <ele>49.8</ele>
        <time>2023-05-17T13:29:29Z</time>
      </trkpt>
      <trkpt lat="49.97653" lon="2.45054">
        <ele>49.7</ele>
        <time>2023-05-17T13:29:30Z</time>
      </trkpt>
      <trkpt lat="49.97653" lon="2.45051">
        <ele>49.7</ele>
        <time>2023-05-17T13:29:31Z</time>
      </trkpt>
      <trkpt lat="49.97652" lon="2.4505">
        <ele>49.7</ele>
        <time>2023-05-17T13:29:32Z</time>
      </trkpt>
      <trkpt lat="49.97652" lon="2.45049">
        <ele>49.7</ele>
        <time>2023-05-17T13:29:33Z</time>
      </trkpt>
      <trkpt lat="49.97651" lon="2.45047">
        <ele>49.7</ele>
        <time>2023-05-17T13:29:35Z</time>
      </trkpt>
      <trkpt lat="49.97651" lon="2.45045">
        <ele>49.7</ele>
        <time>2023-05-17T13:29:36Z</time>
      </trkpt>
      <trkpt lat="49.97651" lon="2.45044">
        <ele>49.7</ele>
        <time>2023-05-17T13:29:37Z</time>
      </trkpt>
      <trkpt lat="49.9765" lon="2.45042">
        <ele>49.7</ele>
        <time>2023-05-17T13:29:38Z</time>
      </trkpt>
      <trkpt lat="49.9765" lon="2.4504">
        <ele>49.7</ele>
        <time>2023-05-17T13:29:39Z</time>
      </trkpt>
      <trkpt lat="49.9765" lon="2.45038">
        <ele>49.7</ele>
        <time>2023-05-17T13:29:41Z</time>
      </trkpt>
      <trkpt lat="49.9765" lon="2.45036">
        <ele>49.7</ele>
        <time>2023-05-17T13:29:42Z</time>
      </trkpt>
      <trkpt lat="49.9765" lon="2.45034">
        <ele>49.7</ele>
        <time>2023-05-17T13:29:43Z</time>
      </trkpt>
      <trkpt lat="49.9765" lon="2.45033">
        <ele>49.7</ele>
        <time>2023-05-17T13:29:44Z</time>
      </trkpt>
      <trkpt lat="49.97649" lon="2.45031">
        <ele>49.7</ele>
        <time>2023-05-17T13:29:45Z</time>
      </trkpt>
      <trkpt lat="49.97649" lon="2.45029">
        <ele>49.7</ele>
        <time>2023-05-17T13:29:47Z</time>
      </trkpt>
      <trkpt lat="49.97649" lon="2.45028">
        <ele>49.7</ele>
        <time>2023-05-17T13:29:48Z</time>
      </trkpt>
      <trkpt lat="49.97648" lon="2.45026">
        <ele>49.7</ele>
        <time>2023-05-17T13:29:49Z</time>
      </trkpt>
      <trkpt lat="49.97648" lon="2.45025">
        <ele>49.6</ele>
        <time>2023-05-17T13:29:50Z</time>
      </trkpt>
      <trkpt lat="49.97647" lon="2.45024">
        <ele>49.6</ele>
        <time>2023-05-17T13:29:51Z</time>
      </trkpt>
      <trkpt lat="49.97646" lon="2.45023">
        <ele>49.6</ele>
        <time>2023-05-17T13:29:52Z</time>
      </trkpt>
      <trkpt lat="49.97646" lon="2.45021">
        <ele>49.6</ele>
        <time>2023-05-17T13:29:53Z</time>
      </trkpt>
      <trkpt lat="49.97646" lon="2.4502">
        <ele>49.6</ele>
        <time>2023-05-17T13:29:55Z</time>
      </trkpt>
      <trkpt lat="49.97646" lon="2.45018">
        <ele>49.6</ele>
        <time>2023-05-17T13:29:56Z</time>
      </trkpt>
      <trkpt lat="49.97647" lon="2.45017">
        <ele>49.6</ele>
        <time>2023-05-17T13:29:57Z</time>
      </trkpt>
      <trkpt lat="49.97647" lon="2.45016">
        <ele>49.6</ele>
        <time>2023-05-17T13:29:58Z</time>
      </trkpt>
      <trkpt lat="49.97647" lon="2.45015">
        <ele>49.6</ele>
        <time>2023-05-17T13:29:59Z</time>
      </trkpt>
      <trkpt lat="49.97647" lon="2.45013">
        <ele>49.6</ele>
        <time>2023-05-17T13:30:00Z</time>
      </trkpt>
      <trkpt lat="49.97647" lon="2.45011">
        <ele>49.6</ele>
        <time>2023-05-17T13:30:02Z</time>
      </trkpt>
      <trkpt lat="49.97647" lon="2.4501">
        <ele>49.5</ele>
        <time>2023-05-17T13:30:03Z</time>
      </trkpt>
      <trkpt lat="49.97647" lon="2.45008">
        <ele>49.5</ele>
        <time>2023-05-17T13:30:04Z</time>
      </trkpt>
      <trkpt lat="49.97647" lon="2.45006">
        <ele>49.5</ele>
        <time>2023-05-17T13:30:05Z</time>
      </trkpt>
      <trkpt lat="49.97646" lon="2.45004">
        <ele>49.5</ele>
        <time>2023-05-17T13:30:06Z</time>
      </trkpt>
      <trkpt lat="49.97646" lon="2.45002">
        <ele>49.5</ele>
        <time>2023-05-17T13:30:07Z</time>
      </trkpt>
      <trkpt lat="49.97646" lon="2.45">
        <ele>49.5</ele>
        <time>2023-05-17T13:30:09Z</time>
      </trkpt>
      <trkpt lat="49.97645" lon="2.44997">
        <ele>49.5</ele>
        <time>2023-05-17T13:30:10Z</time>
      </trkpt>
      <trkpt lat="49.97644" lon="2.44996">
        <ele>49.5</ele>
        <time>2023-05-17T13:30:11Z</time>
      </trkpt>
      <trkpt lat="49.97644" lon="2.44995">
        <ele>49.5</ele>
        <time>2023-05-17T13:30:12Z</time>
      </trkpt>
      <trkpt lat="49.97643" lon="2.44994">
        <ele>49.4</ele>
        <time>2023-05-17T13:30:13Z</time>
      </trkpt>
      <trkpt lat="49.97642" lon="2.44993">
        <ele>49.4</ele>
        <time>2023-05-17T13:30:14Z</time>
      </trkpt>
      <trkpt lat="49.97641" lon="2.44991">
        <ele>49.4</ele>
        <time>2023-05-17T13:30:16Z</time>
      </trkpt>
      <trkpt lat="49.9764" lon="2.4499">
        <ele>49.4</ele>
        <time>2023-05-17T13:30:17Z</time>
      </trkpt>
      <trkpt lat="49.97639" lon="2.44989">
        <ele>49.4</ele>
        <time>2023-05-17T13:30:18Z</time>
      </trkpt>
      <trkpt lat="49.97638" lon="2.44988">
        <ele>49.4</ele>
        <time>2023-05-17T13:30:19Z</time>
      </trkpt>
      <trkpt lat="49.97638" lon="2.44987">
        <ele>49.4</ele>
        <time>2023-05-17T13:30:20Z</time>
      </trkpt>
      <trkpt lat="49.97637" lon="2.44986">
        <ele>49.4</ele>
        <time>2023-05-17T13:30:21Z</time>
      </trkpt>
      <trkpt lat="49.97635" lon="2.44984">
        <ele>49.4</ele>
        <time>2023-05-17T13:30:23Z</time>
      </trkpt>
      <trkpt lat="49.97634" lon="2.44982">
        <ele>49.4</ele>
        <time>2023-05-17T13:30:24Z</time>
      </trkpt>
      <trkpt lat="49.97633" lon="2.44981">
        <ele>49.3</ele>
        <time>2023-05-17T13:30:25Z</time>
      </trkpt>
      <trkpt lat="49.97632" lon="2.4498">
        <ele>49.3</ele>
        <time>2023-05-17T13:30:26Z</time>
      </trkpt>
      <trkpt lat="49.9763" lon="2.44978">
        <ele>49.3</ele>
        <time>2023-05-17T13:30:27Z</time>
      </trkpt>
      <trkpt lat="49.97629" lon="2.44977">
        <ele>49.3</ele>
        <time>2023-05-17T13:30:29Z</time>
      </trkpt>
      <trkpt lat="49.97628" lon="2.44976">
        <ele>49.3</ele>
        <time>2023-05-17T13:30:30Z</time>
      </trkpt>
      <trkpt lat="49.97627" lon="2.44975">
        <ele>49.3</ele>
        <time>2023-05-17T13:30:32Z</time>
      </trkpt>
      <trkpt lat="49.97626" lon="2.44974">
        <ele>49.3</ele>
        <time>2023-05-17T13:30:33Z</time>
      </trkpt>
      <trkpt lat="49.97625" lon="2.44973">
        <ele>49.3</ele>
        <time>2023-05-17T13:30:34Z</time>
      </trkpt>
      <trkpt lat="49.97624" lon="2.44972">
        <ele>49.3</ele>
        <time>2023-05-17T13:30:35Z</time>
      </trkpt>
      <trkpt lat="49.97623" lon="2.44971">
        <ele>49.3</ele>
        <time>2023-05-17T13:30:36Z</time>
      </trkpt>
      <trkpt lat="49.97621" lon="2.44969">
        <ele>49.3</ele>
        <time>2023-05-17T13:30:38Z</time>
      </trkpt>
      <trkpt lat="49.9762" lon="2.44968">
        <ele>49.2</ele>
        <time>2023-05-17T13:30:39Z</time>
      </trkpt>
      <trkpt lat="49.97618" lon="2.44967">
        <ele>49.2</ele>
        <time>2023-05-17T13:30:40Z</time>
      </trkpt>
      <trkpt lat="49.97617" lon="2.44967">
        <ele>49.2</ele>
        <time>2023-05-17T13:30:42Z</time>
      </trkpt>
      <trkpt lat="49.97616" lon="2.44966">
        <ele>49.2</ele>
        <time>2023-05-17T13:30:43Z</time>
      </trkpt>
      <trkpt lat="49.97614" lon="2.44966">
        <ele>49.2</ele>
        <time>2023-05-17T13:30:44Z</time>
      </trkpt>
      <trkpt lat="49.97612" lon="2.44965">
        <ele>49.2</ele>
        <time>2023-05-17T13:30:45Z</time>
      </trkpt>
      <trkpt lat="49.97611" lon="2.44965">
        <ele>49.2</ele>
        <time>2023-05-17T13:30:46Z</time>
      </trkpt>
      <trkpt lat="49.9761" lon="2.44965">
        <ele>49.2</ele>
        <time>2023-05-17T13:30:47Z</time>
      </trkpt>
      <trkpt lat="49.97608" lon="2.44965">
        <ele>49.2</ele>
        <time>2023-05-17T13:30:48Z</time>
      </trkpt>
      <trkpt lat="49.97608" lon="2.44965">
        <ele>49.2</ele>
        <time>2023-05-17T13:30:49Z</time>
      </trkpt>
      <trkpt lat="49.97607" lon="2.44965">
        <ele>49.2</ele>
        <time>2023-05-17T13:30:50Z</time>
      </trkpt>
      <trkpt lat="49.97605" lon="2.44965">
        <ele>49.2</ele>
        <time>2023-05-17T13:30:52Z</time>
      </trkpt>
      <trkpt lat="49.97604" lon="2.44966">
        <ele>49.1</ele>
        <time>2023-05-17T13:30:53Z</time>
      </trkpt>
      <trkpt lat="49.97603" lon="2.44966">
        <ele>49.1</ele>
        <time>2023-05-17T13:30:54Z</time>
      </trkpt>
      <trkpt lat="49.97601" lon="2.44967">
        <ele>49.1</ele>
        <time>2023-05-17T13:30:56Z</time>
      </trkpt>
      <trkpt lat="49.97599" lon="2.44967">
        <ele>49.1</ele>
        <time>2023-05-17T13:30:57Z</time>
      </trkpt>
      <trkpt lat="49.97598" lon="2.44968">
        <ele>49.1</ele>
        <time>2023-05-17T13:30:58Z</time>
      </trkpt>
      <trkpt lat="49.97596" lon="2.44969">
        <ele>49.1</ele>
        <time>2023-05-17T13:30:59Z</time>
      </trkpt>
      <trkpt lat="49.97595" lon="2.44969">
        <ele>49</ele>
        <time>2023-05-17T13:31:01Z</time>
      </trkpt>
      <trkpt lat="49.97594" lon="2.4497">
        <ele>49</ele>
        <time>2023-05-17T13:31:02Z</time>
      </trkpt>
      <trkpt lat="49.97593" lon="2.4497">
        <ele>49</ele>
        <time>2023-05-17T13:31:03Z</time>
      </trkpt>
      <trkpt lat="49.97592" lon="2.44971">
        <ele>49</ele>
        <time>2023-05-17T13:31:04Z</time>
      </trkpt>
      <trkpt lat="49.97591" lon="2.44972">
        <ele>49</ele>
        <time>2023-05-17T13:31:05Z</time>
      </trkpt>
      <trkpt lat="49.9759" lon="2.44972">
        <ele>49</ele>
        <time>2023-05-17T13:31:06Z</time>
      </trkpt>
      <trkpt lat="49.97589" lon="2.44973">
        <ele>49</ele>
        <time>2023-05-17T13:31:07Z</time>
      </trkpt>
      <trkpt lat="49.97587" lon="2.44973">
        <ele>49</ele>
        <time>2023-05-17T13:31:09Z</time>
      </trkpt>
      <trkpt lat="49.97587" lon="2.44974">
        <ele>48.9</ele>
        <time>2023-05-17T13:31:10Z</time>
      </trkpt>
      <trkpt lat="49.97585" lon="2.44974">
        <ele>48.9</ele>
        <time>2023-05-17T13:31:12Z</time>
      </trkpt>
      <trkpt lat="49.97584" lon="2.44975">
        <ele>48.9</ele>
        <time>2023-05-17T13:31:13Z</time>
      </trkpt>
      <trkpt lat="49.97582" lon="2.44976">
        <ele>48.9</ele>
        <time>2023-05-17T13:31:14Z</time>
      </trkpt>
      <trkpt lat="49.97581" lon="2.44976">
        <ele>48.9</ele>
        <time>2023-05-17T13:31:15Z</time>
      </trkpt>
      <trkpt lat="49.9758" lon="2.44976">
        <ele>48.9</ele>
        <time>2023-05-17T13:31:16Z</time>
      </trkpt>
      <trkpt lat="49.97579" lon="2.44977">
        <ele>48.8</ele>
        <time>2023-05-17T13:31:17Z</time>
      </trkpt>
      <trkpt lat="49.97578" lon="2.44977">
        <ele>48.8</ele>
        <time>2023-05-17T13:31:18Z</time>
      </trkpt>
      <trkpt lat="49.97576" lon="2.44977">
        <ele>48.8</ele>
        <time>2023-05-17T13:31:20Z</time>
      </trkpt>
      <trkpt lat="49.97574" lon="2.44978">
        <ele>48.8</ele>
        <time>2023-05-17T13:31:21Z</time>
      </trkpt>
      <trkpt lat="49.97573" lon="2.44978">
        <ele>48.8</ele>
        <time>2023-05-17T13:31:22Z</time>
      </trkpt>
      <trkpt lat="49.9757" lon="2.44978">
        <ele>48.7</ele>
        <time>2023-05-17T13:31:24Z</time>
      </trkpt>
      <trkpt lat="49.97569" lon="2.44978">
        <ele>48.7</ele>
        <time>2023-05-17T13:31:26Z</time>
      </trkpt>
      <trkpt lat="49.97568" lon="2.44979">
        <ele>48.7</ele>
        <time>2023-05-17T13:31:27Z</time>
      </trkpt>
      <trkpt lat="49.97567" lon="2.44979">
        <ele>48.7</ele>
        <time>2023-05-17T13:31:28Z</time>
      </trkpt>
      <trkpt lat="49.97566" lon="2.44979">
        <ele>48.7</ele>
        <time>2023-05-17T13:31:29Z</time>
      </trkpt>
      <trkpt lat="49.97564" lon="2.44979">
        <ele>48.6</ele>
        <time>2023-05-17T13:31:30Z</time>
      </trkpt>
      <trkpt lat="49.97563" lon="2.44979">
        <ele>48.6</ele>
        <time>2023-05-17T13:31:31Z</time>
      </trkpt>
      <trkpt lat="49.97562" lon="2.44979">
        <ele>48.6</ele>
        <time>2023-05-17T13:31:32Z</time>
      </trkpt>
      <trkpt lat="49.9756" lon="2.44979">
        <ele>48.6</ele>
        <time>2023-05-17T13:31:33Z</time>
      </trkpt>
      <trkpt lat="49.97559" lon="2.44979">
        <ele>48.6</ele>
        <time>2023-05-17T13:31:34Z</time>
      </trkpt>
      <trkpt lat="49.97558" lon="2.44979">
        <ele>48.6</ele>
        <time>2023-05-17T13:31:35Z</time>
      </trkpt>
      <trkpt lat="49.97557" lon="2.44979">
        <ele>48.5</ele>
        <time>2023-05-17T13:31:37Z</time>
      </trkpt>
      <trkpt lat="49.97555" lon="2.4498">
        <ele>48.5</ele>
        <time>2023-05-17T13:31:38Z</time>
      </trkpt>
      <trkpt lat="49.97553" lon="2.4498">
        <ele>48.5</ele>
        <time>2023-05-17T13:31:40Z</time>
      </trkpt>
      <trkpt lat="49.97552" lon="2.4498">
        <ele>48.5</ele>
        <time>2023-05-17T13:31:41Z</time>
      </trkpt>
      <trkpt lat="49.97551" lon="2.44981">
        <ele>48.5</ele>
        <time>2023-05-17T13:31:42Z</time>
      </trkpt>
      <trkpt lat="49.97549" lon="2.44981">
        <ele>48.5</ele>
        <time>2023-05-17T13:31:43Z</time>
      </trkpt>
      <trkpt lat="49.97548" lon="2.44981">
        <ele>48.5</ele>
        <time>2023-05-17T13:31:44Z</time>
      </trkpt>
      <trkpt lat="49.97547" lon="2.44981">
        <ele>48.4</ele>
        <time>2023-05-17T13:31:45Z</time>
      </trkpt>
      <trkpt lat="49.97546" lon="2.44981">
        <ele>48.4</ele>
        <time>2023-05-17T13:31:46Z</time>
      </trkpt>
      <trkpt lat="49.97544" lon="2.44981">
        <ele>48.4</ele>
        <time>2023-05-17T13:31:47Z</time>
      </trkpt>
      <trkpt lat="49.97543" lon="2.44982">
        <ele>48.4</ele>
        <time>2023-05-17T13:31:49Z</time>
      </trkpt>
      <trkpt lat="49.97541" lon="2.44982">
        <ele>48.4</ele>
        <time>2023-05-17T13:31:51Z</time>
      </trkpt>
      <trkpt lat="49.9754" lon="2.44982">
        <ele>48.4</ele>
        <time>2023-05-17T13:31:52Z</time>
      </trkpt>
      <trkpt lat="49.97539" lon="2.44982">
        <ele>48.4</ele>
        <time>2023-05-17T13:31:53Z</time>
      </trkpt>
      <trkpt lat="49.97537" lon="2.44981">
        <ele>48.4</ele>
        <time>2023-05-17T13:31:54Z</time>
      </trkpt>
      <trkpt lat="49.97536" lon="2.44981">
        <ele>48.3</ele>
        <time>2023-05-17T13:31:55Z</time>
      </trkpt>
      <trkpt lat="49.97535" lon="2.44981">
        <ele>48.3</ele>
        <time>2023-05-17T13:31:56Z</time>
      </trkpt>
      <trkpt lat="49.97534" lon="2.4498">
        <ele>48.3</ele>
        <time>2023-05-17T13:31:58Z</time>
      </trkpt>
      <trkpt lat="49.97533" lon="2.44979">
        <ele>48.3</ele>
        <time>2023-05-17T13:31:59Z</time>
      </trkpt>
      <trkpt lat="49.97532" lon="2.44979">
        <ele>48.3</ele>
        <time>2023-05-17T13:32:00Z</time>
      </trkpt>
      <trkpt lat="49.97531" lon="2.44979">
        <ele>48.3</ele>
        <time>2023-05-17T13:32:01Z</time>
      </trkpt>
      <trkpt lat="49.9753" lon="2.4498">
        <ele>48.3</ele>
        <time>2023-05-17T13:32:02Z</time>
      </trkpt>
      <trkpt lat="49.9753" lon="2.44981">
        <ele>48.3</ele>
        <time>2023-05-17T13:32:03Z</time>
      </trkpt>
      <trkpt lat="49.9753" lon="2.44982">
        <ele>48.3</ele>
        <time>2023-05-17T13:32:05Z</time>
      </trkpt>
      <trkpt lat="49.97529" lon="2.44983">
        <ele>48.3</ele>
        <time>2023-05-17T13:32:06Z</time>
      </trkpt>
      <trkpt lat="49.97529" lon="2.44983">
        <ele>48.3</ele>
        <time>2023-05-17T13:32:07Z</time>
      </trkpt>
      <trkpt lat="49.97528" lon="2.44984">
        <ele>48.2</ele>
        <time>2023-05-17T13:32:09Z</time>
      </trkpt>
      <trkpt lat="49.97528" lon="2.44984">
        <ele>48.2</ele>
        <time>2023-05-17T13:32:10Z</time>
      </trkpt>
      <trkpt lat="49.97527" lon="2.44984">
        <ele>48.2</ele>
        <time>2023-05-17T13:32:11Z</time>
      </trkpt>
      <trkpt lat="49.97527" lon="2.44984">
        <ele>48.2</ele>
        <time>2023-05-17T13:32:13Z</time>
      </trkpt>
      <trkpt lat="49.97527" lon="2.44984">
        <ele>48.2</ele>
        <time>2023-05-17T13:32:14Z</time>
      </trkpt>
      <trkpt lat="49.97527" lon="2.44984">
        <ele>48.2</ele>
        <time>2023-05-17T13:32:16Z</time>
      </trkpt>
      <trkpt lat="49.97527" lon="2.44984">
        <ele>48.2</ele>
        <time>2023-05-17T13:32:17Z</time>
      </trkpt>
      <trkpt lat="49.97527" lon="2.44984">
        <ele>48.2</ele>
        <time>2023-05-17T13:32:18Z</time>
      </trkpt>
      <trkpt lat="49.97527" lon="2.44984">
        <ele>48.2</ele>
        <time>2023-05-17T13:32:20Z</time>
      </trkpt>
      <trkpt lat="49.97527" lon="2.44984">
        <ele>48.2</ele>
        <time>2023-05-17T13:32:21Z</time>
      </trkpt>
      <trkpt lat="49.97527" lon="2.44984">
        <ele>48.2</ele>
        <time>2023-05-17T13:32:23Z</time>
      </trkpt>
      <trkpt lat="49.97527" lon="2.44984">
        <ele>48.2</ele>
        <time>2023-05-17T13:32:24Z</time>
      </trkpt>
      <trkpt lat="49.97527" lon="2.44984">
        <ele>48.2</ele>
        <time>2023-05-17T13:32:26Z</time>
      </trkpt>
      <trkpt lat="49.97527" lon="2.44984">
        <ele>48.2</ele>
        <time>2023-05-17T13:32:27Z</time>
      </trkpt>
      <trkpt lat="49.97527" lon="2.44984">
        <ele>48.2</ele>
        <time>2023-05-17T13:32:28Z</time>
      </trkpt>
      <trkpt lat="49.97528" lon="2.44979">
        <ele>48.2</ele>
        <time>2023-05-17T13:33:24Z</time>
      </trkpt>
      <trkpt lat="49.97527" lon="2.44976">
        <ele>48.2</ele>
        <time>2023-05-17T13:33:25Z</time>
      </trkpt>
      <trkpt lat="49.97527" lon="2.44974">
        <ele>48.2</ele>
        <time>2023-05-17T13:33:27Z</time>
      </trkpt>
      <trkpt lat="49.97526" lon="2.44973">
        <ele>48.2</ele>
        <time>2023-05-17T13:33:28Z</time>
      </trkpt>
      <trkpt lat="49.97526" lon="2.44972">
        <ele>48.2</ele>
        <time>2023-05-17T13:33:29Z</time>
      </trkpt>
      <trkpt lat="49.97525" lon="2.4497">
        <ele>48.2</ele>
        <time>2023-05-17T13:33:30Z</time>
      </trkpt>
      <trkpt lat="49.97523" lon="2.44968">
        <ele>48.2</ele>
        <time>2023-05-17T13:33:31Z</time>
      </trkpt>
      <trkpt lat="49.97522" lon="2.44966">
        <ele>48.1</ele>
        <time>2023-05-17T13:33:33Z</time>
      </trkpt>
      <trkpt lat="49.97521" lon="2.44964">
        <ele>48.1</ele>
        <time>2023-05-17T13:33:34Z</time>
      </trkpt>
      <trkpt lat="49.97521" lon="2.44962">
        <ele>48.1</ele>
        <time>2023-05-17T13:33:35Z</time>
      </trkpt>
      <trkpt lat="49.9752" lon="2.4496">
        <ele>48.1</ele>
        <time>2023-05-17T13:33:36Z</time>
      </trkpt>
      <trkpt lat="49.9752" lon="2.44958">
        <ele>48.1</ele>
        <time>2023-05-17T13:33:37Z</time>
      </trkpt>
      <trkpt lat="49.97519" lon="2.44956">
        <ele>48.1</ele>
        <time>2023-05-17T13:33:39Z</time>
      </trkpt>
      <trkpt lat="49.97519" lon="2.44954">
        <ele>48.1</ele>
        <time>2023-05-17T13:33:40Z</time>
      </trkpt>
      <trkpt lat="49.97519" lon="2.44952">
        <ele>48.1</ele>
        <time>2023-05-17T13:33:41Z</time>
      </trkpt>
      <trkpt lat="49.97519" lon="2.44951">
        <ele>48.1</ele>
        <time>2023-05-17T13:33:42Z</time>
      </trkpt>
      <trkpt lat="49.97519" lon="2.44949">
        <ele>48.1</ele>
        <time>2023-05-17T13:33:43Z</time>
      </trkpt>
      <trkpt lat="49.97519" lon="2.44946">
        <ele>48.1</ele>
        <time>2023-05-17T13:33:45Z</time>
      </trkpt>
      <trkpt lat="49.97519" lon="2.44944">
        <ele>48.1</ele>
        <time>2023-05-17T13:33:46Z</time>
      </trkpt>
      <trkpt lat="49.97519" lon="2.44943">
        <ele>48.1</ele>
        <time>2023-05-17T13:33:47Z</time>
      </trkpt>
      <trkpt lat="49.97519" lon="2.44942">
        <ele>48</ele>
        <time>2023-05-17T13:33:48Z</time>
      </trkpt>
      <trkpt lat="49.97519" lon="2.44941">
        <ele>48</ele>
        <time>2023-05-17T13:33:49Z</time>
      </trkpt>
      <trkpt lat="49.97519" lon="2.44939">
        <ele>48</ele>
        <time>2023-05-17T13:33:50Z</time>
      </trkpt>
      <trkpt lat="49.97519" lon="2.44938">
        <ele>48</ele>
        <time>2023-05-17T13:33:52Z</time>
      </trkpt>
      <trkpt lat="49.97519" lon="2.44935">
        <ele>48</ele>
        <time>2023-05-17T13:33:53Z</time>
      </trkpt>
      <trkpt lat="49.97519" lon="2.44934">
        <ele>48</ele>
        <time>2023-05-17T13:33:54Z</time>
      </trkpt>
      <trkpt lat="49.9752" lon="2.44932">
        <ele>48</ele>
        <time>2023-05-17T13:33:56Z</time>
      </trkpt>
      <trkpt lat="49.9752" lon="2.44931">
        <ele>48</ele>
        <time>2023-05-17T13:33:57Z</time>
      </trkpt>
      <trkpt lat="49.9752" lon="2.4493">
        <ele>48</ele>
        <time>2023-05-17T13:33:58Z</time>
      </trkpt>
      <trkpt lat="49.97521" lon="2.44929">
        <ele>48</ele>
        <time>2023-05-17T13:33:59Z</time>
      </trkpt>
      <trkpt lat="49.97521" lon="2.44927">
        <ele>48</ele>
        <time>2023-05-17T13:34:00Z</time>
      </trkpt>
      <trkpt lat="49.97521" lon="2.44925">
        <ele>48</ele>
        <time>2023-05-17T13:34:02Z</time>
      </trkpt>
      <trkpt lat="49.97521" lon="2.44923">
        <ele>48</ele>
        <time>2023-05-17T13:34:03Z</time>
      </trkpt>
      <trkpt lat="49.97521" lon="2.44921">
        <ele>48</ele>
        <time>2023-05-17T13:34:04Z</time>
      </trkpt>
      <trkpt lat="49.97521" lon="2.44919">
        <ele>47.9</ele>
        <time>2023-05-17T13:34:05Z</time>
      </trkpt>
      <trkpt lat="49.97521" lon="2.44917">
        <ele>47.9</ele>
        <time>2023-05-17T13:34:06Z</time>
      </trkpt>
      <trkpt lat="49.97521" lon="2.44915">
        <ele>47.9</ele>
        <time>2023-05-17T13:34:07Z</time>
      </trkpt>
      <trkpt lat="49.97521" lon="2.44912">
        <ele>47.9</ele>
        <time>2023-05-17T13:34:09Z</time>
      </trkpt>
      <trkpt lat="49.97521" lon="2.4491">
        <ele>47.9</ele>
        <time>2023-05-17T13:34:10Z</time>
      </trkpt>
      <trkpt lat="49.97521" lon="2.44907">
        <ele>47.9</ele>
        <time>2023-05-17T13:34:11Z</time>
      </trkpt>
      <trkpt lat="49.97521" lon="2.44906">
        <ele>47.9</ele>
        <time>2023-05-17T13:34:12Z</time>
      </trkpt>
      <trkpt lat="49.97521" lon="2.44905">
        <ele>47.9</ele>
        <time>2023-05-17T13:34:13Z</time>
      </trkpt>
      <trkpt lat="49.97521" lon="2.44903">
        <ele>47.9</ele>
        <time>2023-05-17T13:34:14Z</time>
      </trkpt>
      <trkpt lat="49.97521" lon="2.44902">
        <ele>47.9</ele>
        <time>2023-05-17T13:34:16Z</time>
      </trkpt>
      <trkpt lat="49.9752" lon="2.449">
        <ele>47.9</ele>
        <time>2023-05-17T13:34:17Z</time>
      </trkpt>
      <trkpt lat="49.9752" lon="2.44898">
        <ele>47.9</ele>
        <time>2023-05-17T13:34:18Z</time>
      </trkpt>
      <trkpt lat="49.9752" lon="2.44897">
        <ele>47.8</ele>
        <time>2023-05-17T13:34:19Z</time>
      </trkpt>
      <trkpt lat="49.9752" lon="2.44895">
        <ele>47.8</ele>
        <time>2023-05-17T13:34:20Z</time>
      </trkpt>
      <trkpt lat="49.9752" lon="2.44893">
        <ele>47.8</ele>
        <time>2023-05-17T13:34:21Z</time>
      </trkpt>
      <trkpt lat="49.97519" lon="2.44892">
        <ele>47.8</ele>
        <time>2023-05-17T13:34:22Z</time>
      </trkpt>
      <trkpt lat="49.97519" lon="2.4489">
        <ele>47.8</ele>
        <time>2023-05-17T13:34:24Z</time>
      </trkpt>
      <trkpt lat="49.97518" lon="2.44888">
        <ele>47.8</ele>
        <time>2023-05-17T13:34:25Z</time>
      </trkpt>
      <trkpt lat="49.97516" lon="2.44888">
        <ele>47.8</ele>
        <time>2023-05-17T13:34:27Z</time>
      </trkpt>
      <trkpt lat="49.97516" lon="2.44888">
        <ele>47.8</ele>
        <time>2023-05-17T13:34:28Z</time>
      </trkpt>
      <trkpt lat="49.97516" lon="2.44887">
        <ele>47.8</ele>
        <time>2023-05-17T13:34:30Z</time>
      </trkpt>
      <trkpt lat="49.97517" lon="2.44887">
        <ele>47.8</ele>
        <time>2023-05-17T13:34:31Z</time>
      </trkpt>
      <trkpt lat="49.97517" lon="2.44887">
        <ele>47.8</ele>
        <time>2023-05-17T13:34:33Z</time>
      </trkpt>
      <trkpt lat="49.97517" lon="2.44887">
        <ele>47.8</ele>
        <time>2023-05-17T13:34:34Z</time>
      </trkpt>
      <trkpt lat="49.97517" lon="2.44887">
        <ele>47.8</ele>
        <time>2023-05-17T13:34:36Z</time>
      </trkpt>
      <trkpt lat="49.97517" lon="2.44887">
        <ele>47.8</ele>
        <time>2023-05-17T13:34:37Z</time>
      </trkpt>
      <trkpt lat="49.97517" lon="2.44887">
        <ele>47.8</ele>
        <time>2023-05-17T13:34:38Z</time>
      </trkpt>
      <trkpt lat="49.97517" lon="2.44887">
        <ele>47.8</ele>
        <time>2023-05-17T13:34:40Z</time>
      </trkpt>
      <trkpt lat="49.97517" lon="2.44886">
        <ele>47.8</ele>
        <time>2023-05-17T13:34:41Z</time>
      </trkpt>
      <trkpt lat="49.97517" lon="2.44886">
        <ele>47.8</ele>
        <time>2023-05-17T13:34:42Z</time>
      </trkpt>
      <trkpt lat="49.97516" lon="2.44885">
        <ele>47.8</ele>
        <time>2023-05-17T13:34:43Z</time>
      </trkpt>
      <trkpt lat="49.97516" lon="2.44884">
        <ele>47.8</ele>
        <time>2023-05-17T13:34:45Z</time>
      </trkpt>
      <trkpt lat="49.97517" lon="2.44883">
        <ele>47.8</ele>
        <time>2023-05-17T13:34:46Z</time>
      </trkpt>
      <trkpt lat="49.97518" lon="2.44881">
        <ele>47.8</ele>
        <time>2023-05-17T13:34:47Z</time>
      </trkpt>
      <trkpt lat="49.97518" lon="2.44879">
        <ele>47.8</ele>
        <time>2023-05-17T13:34:49Z</time>
      </trkpt>
      <trkpt lat="49.97519" lon="2.44878">
        <ele>47.8</ele>
        <time>2023-05-17T13:34:50Z</time>
      </trkpt>
      <trkpt lat="49.9752" lon="2.44876">
        <ele>47.7</ele>
        <time>2023-05-17T13:34:51Z</time>
      </trkpt>
      <trkpt lat="49.9752" lon="2.44877">
        <ele>47.7</ele>
        <time>2023-05-17T13:34:52Z</time>
      </trkpt>
      <trkpt lat="49.9752" lon="2.44875">
        <ele>47.7</ele>
        <time>2023-05-17T13:34:53Z</time>
      </trkpt>
      <trkpt lat="49.9752" lon="2.44874">
        <ele>47.7</ele>
        <time>2023-05-17T13:34:54Z</time>
      </trkpt>
      <trkpt lat="49.97521" lon="2.44871">
        <ele>47.7</ele>
        <time>2023-05-17T13:34:55Z</time>
      </trkpt>
      <trkpt lat="49.97522" lon="2.44869">
        <ele>47.7</ele>
        <time>2023-05-17T13:34:56Z</time>
      </trkpt>
      <trkpt lat="49.97523" lon="2.44865">
        <ele>47.7</ele>
        <time>2023-05-17T13:34:58Z</time>
      </trkpt>
      <trkpt lat="49.97524" lon="2.44863">
        <ele>47.7</ele>
        <time>2023-05-17T13:35:00Z</time>
      </trkpt>
      <trkpt lat="49.97525" lon="2.44861">
        <ele>47.7</ele>
        <time>2023-05-17T13:35:01Z</time>
      </trkpt>
      <trkpt lat="49.97526" lon="2.44858">
        <ele>47.7</ele>
        <time>2023-05-17T13:35:02Z</time>
      </trkpt>
      <trkpt lat="49.97527" lon="2.44856">
        <ele>47.7</ele>
        <time>2023-05-17T13:35:03Z</time>
      </trkpt>
      <trkpt lat="49.97528" lon="2.44854">
        <ele>47.6</ele>
        <time>2023-05-17T13:35:04Z</time>
      </trkpt>
      <trkpt lat="49.97529" lon="2.44853">
        <ele>47.6</ele>
        <time>2023-05-17T13:35:05Z</time>
      </trkpt>
      <trkpt lat="49.9753" lon="2.44851">
        <ele>47.6</ele>
        <time>2023-05-17T13:35:06Z</time>
      </trkpt>
      <trkpt lat="49.97531" lon="2.4485">
        <ele>47.6</ele>
        <time>2023-05-17T13:35:07Z</time>
      </trkpt>
      <trkpt lat="49.97533" lon="2.44848">
        <ele>47.6</ele>
        <time>2023-05-17T13:35:08Z</time>
      </trkpt>
      <trkpt lat="49.97535" lon="2.44846">
        <ele>47.6</ele>
        <time>2023-05-17T13:35:10Z</time>
      </trkpt>
      <trkpt lat="49.97538" lon="2.44844">
        <ele>47.6</ele>
        <time>2023-05-17T13:35:11Z</time>
      </trkpt>
      <trkpt lat="49.97539" lon="2.44844">
        <ele>47.6</ele>
        <time>2023-05-17T13:35:12Z</time>
      </trkpt>
      <trkpt lat="49.97541" lon="2.44843">
        <ele>47.6</ele>
        <time>2023-05-17T13:35:13Z</time>
      </trkpt>
      <trkpt lat="49.97542" lon="2.44842">
        <ele>47.6</ele>
        <time>2023-05-17T13:35:15Z</time>
      </trkpt>
      <trkpt lat="49.97544" lon="2.44842">
        <ele>47.6</ele>
        <time>2023-05-17T13:35:16Z</time>
      </trkpt>
      <trkpt lat="49.97545" lon="2.44842">
        <ele>47.6</ele>
        <time>2023-05-17T13:35:17Z</time>
      </trkpt>
      <trkpt lat="49.97547" lon="2.44842">
        <ele>47.6</ele>
        <time>2023-05-17T13:35:18Z</time>
      </trkpt>
      <trkpt lat="49.97548" lon="2.44842">
        <ele>47.6</ele>
        <time>2023-05-17T13:35:19Z</time>
      </trkpt>
      <trkpt lat="49.9755" lon="2.44842">
        <ele>47.6</ele>
        <time>2023-05-17T13:35:21Z</time>
      </trkpt>
      <trkpt lat="49.97552" lon="2.44842">
        <ele>47.6</ele>
        <time>2023-05-17T13:35:22Z</time>
      </trkpt>
      <trkpt lat="49.97553" lon="2.44842">
        <ele>47.6</ele>
        <time>2023-05-17T13:35:23Z</time>
      </trkpt>
      <trkpt lat="49.97555" lon="2.44842">
        <ele>47.6</ele>
        <time>2023-05-17T13:35:25Z</time>
      </trkpt>
      <trkpt lat="49.97557" lon="2.44842">
        <ele>47.5</ele>
        <time>2023-05-17T13:35:26Z</time>
      </trkpt>
      <trkpt lat="49.97559" lon="2.44843">
        <ele>47.5</ele>
        <time>2023-05-17T13:35:27Z</time>
      </trkpt>
      <trkpt lat="49.9756" lon="2.44843">
        <ele>47.5</ele>
        <time>2023-05-17T13:35:28Z</time>
      </trkpt>
      <trkpt lat="49.97561" lon="2.44843">
        <ele>47.5</ele>
        <time>2023-05-17T13:35:29Z</time>
      </trkpt>
      <trkpt lat="49.97563" lon="2.44843">
        <ele>47.5</ele>
        <time>2023-05-17T13:35:30Z</time>
      </trkpt>
      <trkpt lat="49.97564" lon="2.44843">
        <ele>47.5</ele>
        <time>2023-05-17T13:35:31Z</time>
      </trkpt>
      <trkpt lat="49.97566" lon="2.44843">
        <ele>47.5</ele>
        <time>2023-05-17T13:35:33Z</time>
      </trkpt>
      <trkpt lat="49.97568" lon="2.44843">
        <ele>47.5</ele>
        <time>2023-05-17T13:35:34Z</time>
      </trkpt>
      <trkpt lat="49.97569" lon="2.44844">
        <ele>47.5</ele>
        <time>2023-05-17T13:35:36Z</time>
      </trkpt>
      <trkpt lat="49.97571" lon="2.44844">
        <ele>47.5</ele>
        <time>2023-05-17T13:35:37Z</time>
      </trkpt>
      <trkpt lat="49.97572" lon="2.44844">
        <ele>47.4</ele>
        <time>2023-05-17T13:35:38Z</time>
      </trkpt>
      <trkpt lat="49.97574" lon="2.44844">
        <ele>47.4</ele>
        <time>2023-05-17T13:35:39Z</time>
      </trkpt>
      <trkpt lat="49.97575" lon="2.44844">
        <ele>47.4</ele>
        <time>2023-05-17T13:35:40Z</time>
      </trkpt>
      <trkpt lat="49.97576" lon="2.44844">
        <ele>47.4</ele>
        <time>2023-05-17T13:35:41Z</time>
      </trkpt>
      <trkpt lat="49.97577" lon="2.44844">
        <ele>47.4</ele>
        <time>2023-05-17T13:35:43Z</time>
      </trkpt>
      <trkpt lat="49.97579" lon="2.44843">
        <ele>47.4</ele>
        <time>2023-05-17T13:35:44Z</time>
      </trkpt>
      <trkpt lat="49.9758" lon="2.44843">
        <ele>47.4</ele>
        <time>2023-05-17T13:35:45Z</time>
      </trkpt>
      <trkpt lat="49.97582" lon="2.44844">
        <ele>47.4</ele>
        <time>2023-05-17T13:35:46Z</time>
      </trkpt>
      <trkpt lat="49.97583" lon="2.44843">
        <ele>47.4</ele>
        <time>2023-05-17T13:35:47Z</time>
      </trkpt>
      <trkpt lat="49.97585" lon="2.44843">
        <ele>47.4</ele>
        <time>2023-05-17T13:35:48Z</time>
      </trkpt>
      <trkpt lat="49.97586" lon="2.44842">
        <ele>47.3</ele>
        <time>2023-05-17T13:35:49Z</time>
      </trkpt>
      <trkpt lat="49.97587" lon="2.44842">
        <ele>47.3</ele>
        <time>2023-05-17T13:35:50Z</time>
      </trkpt>
      <trkpt lat="49.97589" lon="2.44841">
        <ele>47.3</ele>
        <time>2023-05-17T13:35:52Z</time>
      </trkpt>
      <trkpt lat="49.97591" lon="2.4484">
        <ele>47.3</ele>
        <time>2023-05-17T13:35:53Z</time>
      </trkpt>
      <trkpt lat="49.97592" lon="2.4484">
        <ele>47.3</ele>
        <time>2023-05-17T13:35:55Z</time>
      </trkpt>
      <trkpt lat="49.97593" lon="2.44839">
        <ele>47.3</ele>
        <time>2023-05-17T13:35:56Z</time>
      </trkpt>
      <trkpt lat="49.97594" lon="2.44839">
        <ele>47.2</ele>
        <time>2023-05-17T13:35:57Z</time>
      </trkpt>
      <trkpt lat="49.97596" lon="2.44838">
        <ele>47.2</ele>
        <time>2023-05-17T13:35:58Z</time>
      </trkpt>
      <trkpt lat="49.97597" lon="2.44837">
        <ele>47.2</ele>
        <time>2023-05-17T13:35:59Z</time>
      </trkpt>
      <trkpt lat="49.97598" lon="2.44837">
        <ele>47.2</ele>
        <time>2023-05-17T13:36:00Z</time>
      </trkpt>
      <trkpt lat="49.97599" lon="2.44836">
        <ele>47.2</ele>
        <time>2023-05-17T13:36:01Z</time>
      </trkpt>
      <trkpt lat="49.97601" lon="2.44835">
        <ele>47.2</ele>
        <time>2023-05-17T13:36:02Z</time>
      </trkpt>
      <trkpt lat="49.97602" lon="2.44835">
        <ele>47.1</ele>
        <time>2023-05-17T13:36:04Z</time>
      </trkpt>
      <trkpt lat="49.97603" lon="2.44835">
        <ele>47.1</ele>
        <time>2023-05-17T13:36:05Z</time>
      </trkpt>
      <trkpt lat="49.97604" lon="2.44834">
        <ele>47.1</ele>
        <time>2023-05-17T13:36:06Z</time>
      </trkpt>
      <trkpt lat="49.97605" lon="2.44834">
        <ele>47.1</ele>
        <time>2023-05-17T13:36:07Z</time>
      </trkpt>
      <trkpt lat="49.97606" lon="2.44833">
        <ele>47.1</ele>
        <time>2023-05-17T13:36:08Z</time>
      </trkpt>
      <trkpt lat="49.97608" lon="2.44833">
        <ele>47.1</ele>
        <time>2023-05-17T13:36:09Z</time>
      </trkpt>
      <trkpt lat="49.97608" lon="2.44832">
        <ele>47.1</ele>
        <time>2023-05-17T13:36:10Z</time>
      </trkpt>
      <trkpt lat="49.97609" lon="2.44832">
        <ele>47.1</ele>
        <time>2023-05-17T13:36:11Z</time>
      </trkpt>
      <trkpt lat="49.9761" lon="2.44832">
        <ele>47.1</ele>
        <time>2023-05-17T13:36:12Z</time>
      </trkpt>
      <trkpt lat="49.97611" lon="2.44832">
        <ele>47</ele>
        <time>2023-05-17T13:36:14Z</time>
      </trkpt>
      <trkpt lat="49.97612" lon="2.44831">
        <ele>47</ele>
        <time>2023-05-17T13:36:15Z</time>
      </trkpt>
      <trkpt lat="49.97612" lon="2.44831">
        <ele>47</ele>
        <time>2023-05-17T13:36:16Z</time>
      </trkpt>
      <trkpt lat="49.97613" lon="2.44831">
        <ele>47</ele>
        <time>2023-05-17T13:36:17Z</time>
      </trkpt>
      <trkpt lat="49.97614" lon="2.4483">
        <ele>47</ele>
        <time>2023-05-17T13:36:19Z</time>
      </trkpt>
      <trkpt lat="49.97615" lon="2.4483">
        <ele>47</ele>
        <time>2023-05-17T13:36:20Z</time>
      </trkpt>
      <trkpt lat="49.97616" lon="2.4483">
        <ele>47</ele>
        <time>2023-05-17T13:36:21Z</time>
      </trkpt>
      <trkpt lat="49.97616" lon="2.44829">
        <ele>47</ele>
        <time>2023-05-17T13:36:22Z</time>
      </trkpt>
      <trkpt lat="49.97618" lon="2.44829">
        <ele>47</ele>
        <time>2023-05-17T13:36:23Z</time>
      </trkpt>
      <trkpt lat="49.97619" lon="2.4483">
        <ele>46.9</ele>
        <time>2023-05-17T13:36:24Z</time>
      </trkpt>
      <trkpt lat="49.9762" lon="2.4483">
        <ele>46.9</ele>
        <time>2023-05-17T13:36:25Z</time>
      </trkpt>
      <trkpt lat="49.97621" lon="2.4483">
        <ele>46.9</ele>
        <time>2023-05-17T13:36:27Z</time>
      </trkpt>
      <trkpt lat="49.97622" lon="2.4483">
        <ele>46.9</ele>
        <time>2023-05-17T13:36:28Z</time>
      </trkpt>
      <trkpt lat="49.97623" lon="2.44831">
        <ele>46.9</ele>
        <time>2023-05-17T13:36:29Z</time>
      </trkpt>
      <trkpt lat="49.97624" lon="2.44831">
        <ele>46.9</ele>
        <time>2023-05-17T13:36:30Z</time>
      </trkpt>
      <trkpt lat="49.97625" lon="2.4483">
        <ele>46.9</ele>
        <time>2023-05-17T13:36:31Z</time>
      </trkpt>
      <trkpt lat="49.97626" lon="2.4483">
        <ele>46.9</ele>
        <time>2023-05-17T13:36:32Z</time>
      </trkpt>
      <trkpt lat="49.97627" lon="2.4483">
        <ele>46.9</ele>
        <time>2023-05-17T13:36:33Z</time>
      </trkpt>
      <trkpt lat="49.97627" lon="2.4483">
        <ele>46.8</ele>
        <time>2023-05-17T13:36:34Z</time>
      </trkpt>
      <trkpt lat="49.97629" lon="2.4483">
        <ele>46.8</ele>
        <time>2023-05-17T13:36:35Z</time>
      </trkpt>
      <trkpt lat="49.97631" lon="2.4483">
        <ele>46.8</ele>
        <time>2023-05-17T13:36:37Z</time>
      </trkpt>
      <trkpt lat="49.97632" lon="2.4483">
        <ele>46.8</ele>
        <time>2023-05-17T13:36:38Z</time>
      </trkpt>
      <trkpt lat="49.97634" lon="2.4483">
        <ele>46.8</ele>
        <time>2023-05-17T13:36:39Z</time>
      </trkpt>
      <trkpt lat="49.97635" lon="2.4483">
        <ele>46.8</ele>
        <time>2023-05-17T13:36:40Z</time>
      </trkpt>
      <trkpt lat="49.97637" lon="2.4483">
        <ele>46.8</ele>
        <time>2023-05-17T13:36:42Z</time>
      </trkpt>
      <trkpt lat="49.97638" lon="2.4483">
        <ele>46.7</ele>
        <time>2023-05-17T13:36:43Z</time>
      </trkpt>
      <trkpt lat="49.97639" lon="2.4483">
        <ele>46.7</ele>
        <time>2023-05-17T13:36:44Z</time>
      </trkpt>
      <trkpt lat="49.97641" lon="2.4483">
        <ele>46.7</ele>
        <time>2023-05-17T13:36:45Z</time>
      </trkpt>
      <trkpt lat="49.97643" lon="2.44831">
        <ele>46.7</ele>
        <time>2023-05-17T13:36:46Z</time>
      </trkpt>
      <trkpt lat="49.97644" lon="2.44831">
        <ele>46.7</ele>
        <time>2023-05-17T13:36:47Z</time>
      </trkpt>
      <trkpt lat="49.97647" lon="2.44831">
        <ele>46.7</ele>
        <time>2023-05-17T13:36:49Z</time>
      </trkpt>
      <trkpt lat="49.97649" lon="2.44832">
        <ele>46.7</ele>
        <time>2023-05-17T13:36:51Z</time>
      </trkpt>
      <trkpt lat="49.9765" lon="2.44832">
        <ele>46.7</ele>
        <time>2023-05-17T13:36:52Z</time>
      </trkpt>
      <trkpt lat="49.97652" lon="2.44832">
        <ele>46.7</ele>
        <time>2023-05-17T13:36:53Z</time>
      </trkpt>
      <trkpt lat="49.97653" lon="2.44832">
        <ele>46.6</ele>
        <time>2023-05-17T13:36:54Z</time>
      </trkpt>
      <trkpt lat="49.97655" lon="2.44831">
        <ele>46.6</ele>
        <time>2023-05-17T13:36:55Z</time>
      </trkpt>
      <trkpt lat="49.97656" lon="2.44831">
        <ele>46.6</ele>
        <time>2023-05-17T13:36:56Z</time>
      </trkpt>
      <trkpt lat="49.97659" lon="2.44831">
        <ele>46.6</ele>
        <time>2023-05-17T13:36:58Z</time>
      </trkpt>
      <trkpt lat="49.9766" lon="2.44831">
        <ele>46.6</ele>
        <time>2023-05-17T13:36:59Z</time>
      </trkpt>
      <trkpt lat="49.97662" lon="2.44831">
        <ele>46.6</ele>
        <time>2023-05-17T13:37:00Z</time>
      </trkpt>
      <trkpt lat="49.97664" lon="2.44831">
        <ele>46.6</ele>
        <time>2023-05-17T13:37:02Z</time>
      </trkpt>
      <trkpt lat="49.97665" lon="2.44831">
        <ele>46.6</ele>
        <time>2023-05-17T13:37:03Z</time>
      </trkpt>
      <trkpt lat="49.97666" lon="2.44831">
        <ele>46.6</ele>
        <time>2023-05-17T13:37:04Z</time>
      </trkpt>
      <trkpt lat="49.97668" lon="2.44831">
        <ele>46.6</ele>
        <time>2023-05-17T13:37:05Z</time>
      </trkpt>
      <trkpt lat="49.97669" lon="2.44832">
        <ele>46.6</ele>
        <time>2023-05-17T13:37:06Z</time>
      </trkpt>
      <trkpt lat="49.97671" lon="2.44832">
        <ele>46.6</ele>
        <time>2023-05-17T13:37:07Z</time>
      </trkpt>
      <trkpt lat="49.97672" lon="2.44832">
        <ele>46.6</ele>
        <time>2023-05-17T13:37:08Z</time>
      </trkpt>
      <trkpt lat="49.97674" lon="2.44834">
        <ele>46.6</ele>
        <time>2023-05-17T13:37:09Z</time>
      </trkpt>
      <trkpt lat="49.97674" lon="2.44835">
        <ele>46.6</ele>
        <time>2023-05-17T13:37:11Z</time>
      </trkpt>
      <trkpt lat="49.97675" lon="2.44836">
        <ele>46.5</ele>
        <time>2023-05-17T13:37:12Z</time>
      </trkpt>
      <trkpt lat="49.97676" lon="2.44836">
        <ele>46.5</ele>
        <time>2023-05-17T13:37:13Z</time>
      </trkpt>
      <trkpt lat="49.97677" lon="2.44837">
        <ele>46.5</ele>
        <time>2023-05-17T13:37:14Z</time>
      </trkpt>
      <trkpt lat="49.97678" lon="2.44837">
        <ele>46.5</ele>
        <time>2023-05-17T13:37:15Z</time>
      </trkpt>
      <trkpt lat="49.9768" lon="2.44836">
        <ele>46.5</ele>
        <time>2023-05-17T13:37:16Z</time>
      </trkpt>
      <trkpt lat="49.97681" lon="2.44836">
        <ele>46.5</ele>
        <time>2023-05-17T13:37:18Z</time>
      </trkpt>
      <trkpt lat="49.97682" lon="2.44836">
        <ele>46.5</ele>
        <time>2023-05-17T13:37:19Z</time>
      </trkpt>
      <trkpt lat="49.97684" lon="2.44835">
        <ele>46.5</ele>
        <time>2023-05-17T13:37:21Z</time>
      </trkpt>
      <trkpt lat="49.97685" lon="2.44835">
        <ele>46.4</ele>
        <time>2023-05-17T13:37:22Z</time>
      </trkpt>
      <trkpt lat="49.97686" lon="2.44835">
        <ele>46.4</ele>
        <time>2023-05-17T13:37:23Z</time>
      </trkpt>
      <trkpt lat="49.97687" lon="2.44834">
        <ele>46.4</ele>
        <time>2023-05-17T13:37:24Z</time>
      </trkpt>
      <trkpt lat="49.97688" lon="2.44834">
        <ele>46.4</ele>
        <time>2023-05-17T13:37:25Z</time>
      </trkpt>
      <trkpt lat="49.9769" lon="2.44834">
        <ele>46.4</ele>
        <time>2023-05-17T13:37:27Z</time>
      </trkpt>
      <trkpt lat="49.97691" lon="2.44833">
        <ele>46.4</ele>
        <time>2023-05-17T13:37:28Z</time>
      </trkpt>
      <trkpt lat="49.97692" lon="2.44833">
        <ele>46.4</ele>
        <time>2023-05-17T13:37:29Z</time>
      </trkpt>
      <trkpt lat="49.97693" lon="2.44833">
        <ele>46.4</ele>
        <time>2023-05-17T13:37:30Z</time>
      </trkpt>
      <trkpt lat="49.97696" lon="2.44832">
        <ele>46.4</ele>
        <time>2023-05-17T13:37:32Z</time>
      </trkpt>
      <trkpt lat="49.97697" lon="2.44832">
        <ele>46.4</ele>
        <time>2023-05-17T13:37:34Z</time>
      </trkpt>
      <trkpt lat="49.97698" lon="2.44832">
        <ele>46.4</ele>
        <time>2023-05-17T13:37:35Z</time>
      </trkpt>
      <trkpt lat="49.97699" lon="2.44832">
        <ele>46.4</ele>
        <time>2023-05-17T13:37:36Z</time>
      </trkpt>
      <trkpt lat="49.977" lon="2.44832">
        <ele>46.4</ele>
        <time>2023-05-17T13:37:37Z</time>
      </trkpt>
      <trkpt lat="49.97702" lon="2.44832">
        <ele>46.3</ele>
        <time>2023-05-17T13:37:38Z</time>
      </trkpt>
      <trkpt lat="49.97703" lon="2.44832">
        <ele>46.3</ele>
        <time>2023-05-17T13:37:39Z</time>
      </trkpt>
      <trkpt lat="49.97704" lon="2.44832">
        <ele>46.3</ele>
        <time>2023-05-17T13:37:41Z</time>
      </trkpt>
      <trkpt lat="49.97705" lon="2.44832">
        <ele>46.3</ele>
        <time>2023-05-17T13:37:42Z</time>
      </trkpt>
      <trkpt lat="49.97706" lon="2.44832">
        <ele>46.3</ele>
        <time>2023-05-17T13:37:43Z</time>
      </trkpt>
      <trkpt lat="49.97707" lon="2.44832">
        <ele>46.3</ele>
        <time>2023-05-17T13:37:44Z</time>
      </trkpt>
      <trkpt lat="49.97708" lon="2.44832">
        <ele>46.3</ele>
        <time>2023-05-17T13:37:46Z</time>
      </trkpt>
      <trkpt lat="49.9771" lon="2.44831">
        <ele>46.3</ele>
        <time>2023-05-17T13:37:47Z</time>
      </trkpt>
      <trkpt lat="49.97711" lon="2.44831">
        <ele>46.3</ele>
        <time>2023-05-17T13:37:48Z</time>
      </trkpt>
      <trkpt lat="49.97712" lon="2.44831">
        <ele>46.3</ele>
        <time>2023-05-17T13:37:49Z</time>
      </trkpt>
      <trkpt lat="49.97713" lon="2.4483">
        <ele>46.3</ele>
        <time>2023-05-17T13:37:50Z</time>
      </trkpt>
      <trkpt lat="49.97714" lon="2.4483">
        <ele>46.3</ele>
        <time>2023-05-17T13:37:51Z</time>
      </trkpt>
      <trkpt lat="49.97716" lon="2.44829">
        <ele>46.3</ele>
        <time>2023-05-17T13:37:52Z</time>
      </trkpt>
      <trkpt lat="49.97717" lon="2.44829">
        <ele>46.3</ele>
        <time>2023-05-17T13:37:53Z</time>
      </trkpt>
      <trkpt lat="49.97719" lon="2.44828">
        <ele>46.3</ele>
        <time>2023-05-17T13:37:55Z</time>
      </trkpt>
      <trkpt lat="49.9772" lon="2.44828">
        <ele>46.3</ele>
        <time>2023-05-17T13:37:56Z</time>
      </trkpt>
      <trkpt lat="49.97722" lon="2.44827">
        <ele>46.3</ele>
        <time>2023-05-17T13:37:57Z</time>
      </trkpt>
      <trkpt lat="49.97723" lon="2.44827">
        <ele>46.3</ele>
        <time>2023-05-17T13:37:58Z</time>
      </trkpt>
      <trkpt lat="49.97724" lon="2.44827">
        <ele>46.2</ele>
        <time>2023-05-17T13:37:59Z</time>
      </trkpt>
      <trkpt lat="49.97724" lon="2.44826">
        <ele>46.2</ele>
        <time>2023-05-17T13:38:00Z</time>
      </trkpt>
      <trkpt lat="49.97726" lon="2.44825">
        <ele>46.2</ele>
        <time>2023-05-17T13:38:02Z</time>
      </trkpt>
      <trkpt lat="49.97727" lon="2.44825">
        <ele>46.2</ele>
        <time>2023-05-17T13:38:03Z</time>
      </trkpt>
      <trkpt lat="49.97728" lon="2.44824">
        <ele>46.2</ele>
        <time>2023-05-17T13:38:04Z</time>
      </trkpt>
      <trkpt lat="49.9773" lon="2.44824">
        <ele>46.2</ele>
        <time>2023-05-17T13:38:05Z</time>
      </trkpt>
      <trkpt lat="49.97731" lon="2.44823">
        <ele>46.2</ele>
        <time>2023-05-17T13:38:06Z</time>
      </trkpt>
      <trkpt lat="49.97732" lon="2.44823">
        <ele>46.2</ele>
        <time>2023-05-17T13:38:07Z</time>
      </trkpt>
      <trkpt lat="49.97733" lon="2.44822">
        <ele>46.2</ele>
        <time>2023-05-17T13:38:08Z</time>
      </trkpt>
      <trkpt lat="49.97734" lon="2.44822">
        <ele>46.2</ele>
        <time>2023-05-17T13:38:09Z</time>
      </trkpt>
      <trkpt lat="49.97735" lon="2.44821">
        <ele>46.2</ele>
        <time>2023-05-17T13:38:11Z</time>
      </trkpt>
      <trkpt lat="49.97737" lon="2.4482">
        <ele>46.2</ele>
        <time>2023-05-17T13:38:12Z</time>
      </trkpt>
      <trkpt lat="49.97738" lon="2.4482">
        <ele>46.2</ele>
        <time>2023-05-17T13:38:13Z</time>
      </trkpt>
      <trkpt lat="49.97739" lon="2.44819">
        <ele>46.2</ele>
        <time>2023-05-17T13:38:14Z</time>
      </trkpt>
      <trkpt lat="49.9774" lon="2.44818">
        <ele>46.2</ele>
        <time>2023-05-17T13:38:15Z</time>
      </trkpt>
      <trkpt lat="49.97741" lon="2.44818">
        <ele>46.2</ele>
        <time>2023-05-17T13:38:16Z</time>
      </trkpt>
      <trkpt lat="49.97742" lon="2.44817">
        <ele>46.2</ele>
        <time>2023-05-17T13:38:17Z</time>
      </trkpt>
      <trkpt lat="49.97744" lon="2.44815">
        <ele>46.2</ele>
        <time>2023-05-17T13:38:18Z</time>
      </trkpt>
      <trkpt lat="49.97745" lon="2.44814">
        <ele>46.2</ele>
        <time>2023-05-17T13:38:20Z</time>
      </trkpt>
      <trkpt lat="49.97746" lon="2.44813">
        <ele>46.2</ele>
        <time>2023-05-17T13:38:21Z</time>
      </trkpt>
      <trkpt lat="49.97747" lon="2.44812">
        <ele>46.2</ele>
        <time>2023-05-17T13:38:23Z</time>
      </trkpt>
      <trkpt lat="49.97748" lon="2.44811">
        <ele>46.2</ele>
        <time>2023-05-17T13:38:24Z</time>
      </trkpt>
      <trkpt lat="49.97749" lon="2.44809">
        <ele>46.2</ele>
        <time>2023-05-17T13:38:25Z</time>
      </trkpt>
      <trkpt lat="49.9775" lon="2.44808">
        <ele>46.2</ele>
        <time>2023-05-17T13:38:26Z</time>
      </trkpt>
      <trkpt lat="49.97751" lon="2.44807">
        <ele>46.2</ele>
        <time>2023-05-17T13:38:27Z</time>
      </trkpt>
      <trkpt lat="49.97753" lon="2.44806">
        <ele>46.2</ele>
        <time>2023-05-17T13:38:28Z</time>
      </trkpt>
      <trkpt lat="49.97754" lon="2.44805">
        <ele>46.2</ele>
        <time>2023-05-17T13:38:30Z</time>
      </trkpt>
      <trkpt lat="49.97755" lon="2.44805">
        <ele>46.2</ele>
        <time>2023-05-17T13:38:31Z</time>
      </trkpt>
      <trkpt lat="49.97756" lon="2.44804">
        <ele>46.2</ele>
        <time>2023-05-17T13:38:32Z</time>
      </trkpt>
      <trkpt lat="49.97757" lon="2.44803">
        <ele>46.2</ele>
        <time>2023-05-17T13:38:33Z</time>
      </trkpt>
      <trkpt lat="49.97758" lon="2.44803">
        <ele>46.2</ele>
        <time>2023-05-17T13:38:35Z</time>
      </trkpt>
      <trkpt lat="49.9776" lon="2.44802">
        <ele>46.2</ele>
        <time>2023-05-17T13:38:36Z</time>
      </trkpt>
      <trkpt lat="49.97761" lon="2.44802">
        <ele>46.2</ele>
        <time>2023-05-17T13:38:37Z</time>
      </trkpt>
      <trkpt lat="49.97762" lon="2.44801">
        <ele>46.2</ele>
        <time>2023-05-17T13:38:38Z</time>
      </trkpt>
      <trkpt lat="49.97763" lon="2.44801">
        <ele>46.2</ele>
        <time>2023-05-17T13:38:39Z</time>
      </trkpt>
      <trkpt lat="49.97764" lon="2.448">
        <ele>46.2</ele>
        <time>2023-05-17T13:38:40Z</time>
      </trkpt>
      <trkpt lat="49.97765" lon="2.448">
        <ele>46.2</ele>
        <time>2023-05-17T13:38:41Z</time>
      </trkpt>
      <trkpt lat="49.97767" lon="2.44799">
        <ele>46.2</ele>
        <time>2023-05-17T13:38:43Z</time>
      </trkpt>
      <trkpt lat="49.97768" lon="2.44798">
        <ele>46.2</ele>
        <time>2023-05-17T13:38:44Z</time>
      </trkpt>
      <trkpt lat="49.97769" lon="2.44798">
        <ele>46.2</ele>
        <time>2023-05-17T13:38:45Z</time>
      </trkpt>
      <trkpt lat="49.97771" lon="2.44797">
        <ele>46.2</ele>
        <time>2023-05-17T13:38:46Z</time>
      </trkpt>
      <trkpt lat="49.97772" lon="2.44797">
        <ele>46.2</ele>
        <time>2023-05-17T13:38:47Z</time>
      </trkpt>
      <trkpt lat="49.97773" lon="2.44797">
        <ele>46.2</ele>
        <time>2023-05-17T13:38:49Z</time>
      </trkpt>
      <trkpt lat="49.97774" lon="2.44796">
        <ele>46.2</ele>
        <time>2023-05-17T13:38:50Z</time>
      </trkpt>
      <trkpt lat="49.97777" lon="2.44796">
        <ele>46.3</ele>
        <time>2023-05-17T13:38:51Z</time>
      </trkpt>
      <trkpt lat="49.97777" lon="2.44795">
        <ele>46.3</ele>
        <time>2023-05-17T13:38:52Z</time>
      </trkpt>
      <trkpt lat="49.97778" lon="2.44795">
        <ele>46.3</ele>
        <time>2023-05-17T13:38:53Z</time>
      </trkpt>
      <trkpt lat="49.9778" lon="2.44794">
        <ele>46.3</ele>
        <time>2023-05-17T13:38:55Z</time>
      </trkpt>
      <trkpt lat="49.97781" lon="2.44794">
        <ele>46.3</ele>
        <time>2023-05-17T13:38:56Z</time>
      </trkpt>
      <trkpt lat="49.97784" lon="2.44794">
        <ele>46.3</ele>
        <time>2023-05-17T13:38:57Z</time>
      </trkpt>
      <trkpt lat="49.97785" lon="2.44793">
        <ele>46.3</ele>
        <time>2023-05-17T13:38:59Z</time>
      </trkpt>
      <trkpt lat="49.97785" lon="2.44793">
        <ele>46.3</ele>
        <time>2023-05-17T13:39:00Z</time>
      </trkpt>
      <trkpt lat="49.97787" lon="2.44793">
        <ele>46.3</ele>
        <time>2023-05-17T13:39:01Z</time>
      </trkpt>
      <trkpt lat="49.97788" lon="2.44793">
        <ele>46.3</ele>
        <time>2023-05-17T13:39:02Z</time>
      </trkpt>
      <trkpt lat="49.9779" lon="2.44793">
        <ele>46.3</ele>
        <time>2023-05-17T13:39:03Z</time>
      </trkpt>
      <trkpt lat="49.97791" lon="2.44792">
        <ele>46.3</ele>
        <time>2023-05-17T13:39:04Z</time>
      </trkpt>
      <trkpt lat="49.97793" lon="2.44792">
        <ele>46.3</ele>
        <time>2023-05-17T13:39:06Z</time>
      </trkpt>
      <trkpt lat="49.97794" lon="2.44792">
        <ele>46.3</ele>
        <time>2023-05-17T13:39:07Z</time>
      </trkpt>
      <trkpt lat="49.97795" lon="2.44791">
        <ele>46.3</ele>
        <time>2023-05-17T13:39:08Z</time>
      </trkpt>
      <trkpt lat="49.97796" lon="2.44791">
        <ele>46.3</ele>
        <time>2023-05-17T13:39:09Z</time>
      </trkpt>
      <trkpt lat="49.97799" lon="2.4479">
        <ele>46.3</ele>
        <time>2023-05-17T13:39:11Z</time>
      </trkpt>
      <trkpt lat="49.978" lon="2.44789">
        <ele>46.3</ele>
        <time>2023-05-17T13:39:13Z</time>
      </trkpt>
      <trkpt lat="49.97802" lon="2.44789">
        <ele>46.3</ele>
        <time>2023-05-17T13:39:14Z</time>
      </trkpt>
      <trkpt lat="49.97803" lon="2.44788">
        <ele>46.3</ele>
        <time>2023-05-17T13:39:15Z</time>
      </trkpt>
      <trkpt lat="49.97804" lon="2.44788">
        <ele>46.3</ele>
        <time>2023-05-17T13:39:16Z</time>
      </trkpt>
      <trkpt lat="49.97805" lon="2.44787">
        <ele>46.3</ele>
        <time>2023-05-17T13:39:17Z</time>
      </trkpt>
      <trkpt lat="49.97806" lon="2.44786">
        <ele>46.3</ele>
        <time>2023-05-17T13:39:19Z</time>
      </trkpt>
      <trkpt lat="49.97808" lon="2.44786">
        <ele>46.3</ele>
        <time>2023-05-17T13:39:20Z</time>
      </trkpt>
      <trkpt lat="49.97809" lon="2.44785">
        <ele>46.3</ele>
        <time>2023-05-17T13:39:21Z</time>
      </trkpt>
      <trkpt lat="49.9781" lon="2.44784">
        <ele>46.3</ele>
        <time>2023-05-17T13:39:22Z</time>
      </trkpt>
      <trkpt lat="49.97811" lon="2.44784">
        <ele>46.3</ele>
        <time>2023-05-17T13:39:23Z</time>
      </trkpt>
      <trkpt lat="49.97812" lon="2.44783">
        <ele>46.3</ele>
        <time>2023-05-17T13:39:24Z</time>
      </trkpt>
      <trkpt lat="49.97814" lon="2.44783">
        <ele>46.4</ele>
        <time>2023-05-17T13:39:25Z</time>
      </trkpt>
      <trkpt lat="49.97815" lon="2.44783">
        <ele>46.4</ele>
        <time>2023-05-17T13:39:27Z</time>
      </trkpt>
      <trkpt lat="49.97816" lon="2.44783">
        <ele>46.4</ele>
        <time>2023-05-17T13:39:28Z</time>
      </trkpt>
      <trkpt lat="49.97817" lon="2.44782">
        <ele>46.4</ele>
        <time>2023-05-17T13:39:29Z</time>
      </trkpt>
      <trkpt lat="49.97819" lon="2.44783">
        <ele>46.4</ele>
        <time>2023-05-17T13:39:30Z</time>
      </trkpt>
      <trkpt lat="49.9782" lon="2.44783">
        <ele>46.4</ele>
        <time>2023-05-17T13:39:31Z</time>
      </trkpt>
      <trkpt lat="49.97822" lon="2.44783">
        <ele>46.4</ele>
        <time>2023-05-17T13:39:32Z</time>
      </trkpt>
      <trkpt lat="49.97824" lon="2.44783">
        <ele>46.4</ele>
        <time>2023-05-17T13:39:34Z</time>
      </trkpt>
      <trkpt lat="49.97825" lon="2.44783">
        <ele>46.4</ele>
        <time>2023-05-17T13:39:35Z</time>
      </trkpt>
      <trkpt lat="49.97827" lon="2.44783">
        <ele>46.4</ele>
        <time>2023-05-17T13:39:36Z</time>
      </trkpt>
      <trkpt lat="49.97828" lon="2.44782">
        <ele>46.4</ele>
        <time>2023-05-17T13:39:38Z</time>
      </trkpt>
      <trkpt lat="49.97829" lon="2.44782">
        <ele>46.4</ele>
        <time>2023-05-17T13:39:39Z</time>
      </trkpt>
      <trkpt lat="49.97829" lon="2.44782">
        <ele>46.4</ele>
        <time>2023-05-17T13:39:40Z</time>
      </trkpt>
      <trkpt lat="49.9783" lon="2.44781">
        <ele>46.4</ele>
        <time>2023-05-17T13:39:42Z</time>
      </trkpt>
      <trkpt lat="49.97831" lon="2.4478">
        <ele>46.4</ele>
        <time>2023-05-17T13:39:43Z</time>
      </trkpt>
      <trkpt lat="49.97832" lon="2.44779">
        <ele>46.4</ele>
        <time>2023-05-17T13:39:44Z</time>
      </trkpt>
      <trkpt lat="49.97832" lon="2.44778">
        <ele>46.5</ele>
        <time>2023-05-17T13:39:45Z</time>
      </trkpt>
      <trkpt lat="49.97833" lon="2.44777">
        <ele>46.5</ele>
        <time>2023-05-17T13:39:46Z</time>
      </trkpt>
      <trkpt lat="49.97834" lon="2.44776">
        <ele>46.5</ele>
        <time>2023-05-17T13:39:47Z</time>
      </trkpt>
      <trkpt lat="49.97835" lon="2.44773">
        <ele>46.5</ele>
        <time>2023-05-17T13:39:48Z</time>
      </trkpt>
      <trkpt lat="49.97836" lon="2.44773">
        <ele>46.5</ele>
        <time>2023-05-17T13:39:50Z</time>
      </trkpt>
      <trkpt lat="49.97837" lon="2.44772">
        <ele>46.5</ele>
        <time>2023-05-17T13:39:51Z</time>
      </trkpt>
      <trkpt lat="49.97838" lon="2.4477">
        <ele>46.5</ele>
        <time>2023-05-17T13:39:52Z</time>
      </trkpt>
      <trkpt lat="49.97839" lon="2.4477">
        <ele>46.5</ele>
        <time>2023-05-17T13:39:53Z</time>
      </trkpt>
      <trkpt lat="49.9784" lon="2.44769">
        <ele>46.5</ele>
        <time>2023-05-17T13:39:54Z</time>
      </trkpt>
      <trkpt lat="49.97841" lon="2.44768">
        <ele>46.5</ele>
        <time>2023-05-17T13:39:55Z</time>
      </trkpt>
      <trkpt lat="49.97842" lon="2.44766">
        <ele>46.5</ele>
        <time>2023-05-17T13:39:57Z</time>
      </trkpt>
      <trkpt lat="49.97843" lon="2.44765">
        <ele>46.5</ele>
        <time>2023-05-17T13:39:58Z</time>
      </trkpt>
      <trkpt lat="49.97845" lon="2.44764">
        <ele>46.5</ele>
        <time>2023-05-17T13:40:00Z</time>
      </trkpt>
      <trkpt lat="49.97846" lon="2.44762">
        <ele>46.5</ele>
        <time>2023-05-17T13:40:01Z</time>
      </trkpt>
      <trkpt lat="49.97847" lon="2.44761">
        <ele>46.6</ele>
        <time>2023-05-17T13:40:02Z</time>
      </trkpt>
      <trkpt lat="49.97848" lon="2.44759">
        <ele>46.6</ele>
        <time>2023-05-17T13:40:03Z</time>
      </trkpt>
      <trkpt lat="49.97849" lon="2.44758">
        <ele>46.6</ele>
        <time>2023-05-17T13:40:04Z</time>
      </trkpt>
      <trkpt lat="49.9785" lon="2.44757">
        <ele>46.6</ele>
        <time>2023-05-17T13:40:05Z</time>
      </trkpt>
      <trkpt lat="49.97851" lon="2.44756">
        <ele>46.6</ele>
        <time>2023-05-17T13:40:06Z</time>
      </trkpt>
      <trkpt lat="49.97852" lon="2.44753">
        <ele>46.6</ele>
        <time>2023-05-17T13:40:08Z</time>
      </trkpt>
      <trkpt lat="49.97853" lon="2.44752">
        <ele>46.6</ele>
        <time>2023-05-17T13:40:09Z</time>
      </trkpt>
      <trkpt lat="49.97854" lon="2.44751">
        <ele>46.6</ele>
        <time>2023-05-17T13:40:10Z</time>
      </trkpt>
      <trkpt lat="49.97855" lon="2.44749">
        <ele>46.6</ele>
        <time>2023-05-17T13:40:12Z</time>
      </trkpt>
      <trkpt lat="49.97855" lon="2.44747">
        <ele>46.6</ele>
        <time>2023-05-17T13:40:13Z</time>
      </trkpt>
      <trkpt lat="49.97855" lon="2.44746">
        <ele>46.6</ele>
        <time>2023-05-17T13:40:15Z</time>
      </trkpt>
      <trkpt lat="49.97856" lon="2.44745">
        <ele>46.6</ele>
        <time>2023-05-17T13:40:16Z</time>
      </trkpt>
      <trkpt lat="49.97857" lon="2.44743">
        <ele>46.6</ele>
        <time>2023-05-17T13:40:17Z</time>
      </trkpt>
      <trkpt lat="49.97857" lon="2.44742">
        <ele>46.6</ele>
        <time>2023-05-17T13:40:18Z</time>
      </trkpt>
      <trkpt lat="49.97858" lon="2.44741">
        <ele>46.6</ele>
        <time>2023-05-17T13:40:19Z</time>
      </trkpt>
      <trkpt lat="49.97859" lon="2.44739">
        <ele>46.6</ele>
        <time>2023-05-17T13:40:20Z</time>
      </trkpt>
      <trkpt lat="49.9786" lon="2.44738">
        <ele>46.7</ele>
        <time>2023-05-17T13:40:21Z</time>
      </trkpt>
      <trkpt lat="49.9786" lon="2.44737">
        <ele>46.7</ele>
        <time>2023-05-17T13:40:22Z</time>
      </trkpt>
      <trkpt lat="49.97861" lon="2.44735">
        <ele>46.7</ele>
        <time>2023-05-17T13:40:24Z</time>
      </trkpt>
      <trkpt lat="49.97862" lon="2.44733">
        <ele>46.7</ele>
        <time>2023-05-17T13:40:25Z</time>
      </trkpt>
      <trkpt lat="49.97863" lon="2.44732">
        <ele>46.7</ele>
        <time>2023-05-17T13:40:26Z</time>
      </trkpt>
      <trkpt lat="49.97864" lon="2.44731">
        <ele>46.7</ele>
        <time>2023-05-17T13:40:27Z</time>
      </trkpt>
      <trkpt lat="49.97865" lon="2.4473">
        <ele>46.7</ele>
        <time>2023-05-17T13:40:29Z</time>
      </trkpt>
      <trkpt lat="49.97866" lon="2.44729">
        <ele>46.7</ele>
        <time>2023-05-17T13:40:30Z</time>
      </trkpt>
      <trkpt lat="49.97867" lon="2.44729">
        <ele>46.7</ele>
        <time>2023-05-17T13:40:31Z</time>
      </trkpt>
      <trkpt lat="49.97867" lon="2.44727">
        <ele>46.7</ele>
        <time>2023-05-17T13:40:33Z</time>
      </trkpt>
      <trkpt lat="49.97867" lon="2.44725">
        <ele>46.7</ele>
        <time>2023-05-17T13:40:34Z</time>
      </trkpt>
      <trkpt lat="49.97867" lon="2.44723">
        <ele>46.7</ele>
        <time>2023-05-17T13:40:35Z</time>
      </trkpt>
      <trkpt lat="49.97867" lon="2.44721">
        <ele>46.7</ele>
        <time>2023-05-17T13:40:37Z</time>
      </trkpt>
      <trkpt lat="49.97868" lon="2.44718">
        <ele>46.7</ele>
        <time>2023-05-17T13:40:38Z</time>
      </trkpt>
      <trkpt lat="49.97868" lon="2.44715">
        <ele>46.7</ele>
        <time>2023-05-17T13:40:39Z</time>
      </trkpt>
      <trkpt lat="49.97869" lon="2.44711">
        <ele>46.7</ele>
        <time>2023-05-17T13:40:40Z</time>
      </trkpt>
      <trkpt lat="49.97869" lon="2.44709">
        <ele>46.7</ele>
        <time>2023-05-17T13:40:41Z</time>
      </trkpt>
      <trkpt lat="49.9787" lon="2.44704">
        <ele>46.7</ele>
        <time>2023-05-17T13:40:42Z</time>
      </trkpt>
      <trkpt lat="49.97871" lon="2.44703">
        <ele>46.7</ele>
        <time>2023-05-17T13:40:43Z</time>
      </trkpt>
      <trkpt lat="49.97871" lon="2.447">
        <ele>46.7</ele>
        <time>2023-05-17T13:40:44Z</time>
      </trkpt>
      <trkpt lat="49.97872" lon="2.44697">
        <ele>46.7</ele>
        <time>2023-05-17T13:40:45Z</time>
      </trkpt>
      <trkpt lat="49.97872" lon="2.44695">
        <ele>46.7</ele>
        <time>2023-05-17T13:40:46Z</time>
      </trkpt>
      <trkpt lat="49.97873" lon="2.44692">
        <ele>46.7</ele>
        <time>2023-05-17T13:40:48Z</time>
      </trkpt>
      <trkpt lat="49.97873" lon="2.44689">
        <ele>46.7</ele>
        <time>2023-05-17T13:40:49Z</time>
      </trkpt>
      <trkpt lat="49.97873" lon="2.44687">
        <ele>46.6</ele>
        <time>2023-05-17T13:40:50Z</time>
      </trkpt>
      <trkpt lat="49.97874" lon="2.44684">
        <ele>46.6</ele>
        <time>2023-05-17T13:40:52Z</time>
      </trkpt>
      <trkpt lat="49.97874" lon="2.44682">
        <ele>46.6</ele>
        <time>2023-05-17T13:40:53Z</time>
      </trkpt>
      <trkpt lat="49.97874" lon="2.4468">
        <ele>46.6</ele>
        <time>2023-05-17T13:40:54Z</time>
      </trkpt>
      <trkpt lat="49.97874" lon="2.44678">
        <ele>46.6</ele>
        <time>2023-05-17T13:40:55Z</time>
      </trkpt>
      <trkpt lat="49.97875" lon="2.44676">
        <ele>46.6</ele>
        <time>2023-05-17T13:40:56Z</time>
      </trkpt>
      <trkpt lat="49.97875" lon="2.44673">
        <ele>46.6</ele>
        <time>2023-05-17T13:40:57Z</time>
      </trkpt>
      <trkpt lat="49.97875" lon="2.44671">
        <ele>46.6</ele>
        <time>2023-05-17T13:40:58Z</time>
      </trkpt>
      <trkpt lat="49.97874" lon="2.44669">
        <ele>46.6</ele>
        <time>2023-05-17T13:40:59Z</time>
      </trkpt>
      <trkpt lat="49.97875" lon="2.44666">
        <ele>46.6</ele>
        <time>2023-05-17T13:41:01Z</time>
      </trkpt>
      <trkpt lat="49.97875" lon="2.44665">
        <ele>46.6</ele>
        <time>2023-05-17T13:41:02Z</time>
      </trkpt>
      <trkpt lat="49.97875" lon="2.44663">
        <ele>46.6</ele>
        <time>2023-05-17T13:41:03Z</time>
      </trkpt>
      <trkpt lat="49.97875" lon="2.44662">
        <ele>46.6</ele>
        <time>2023-05-17T13:41:05Z</time>
      </trkpt>
      <trkpt lat="49.97875" lon="2.4466">
        <ele>46.6</ele>
        <time>2023-05-17T13:41:06Z</time>
      </trkpt>
      <trkpt lat="49.97876" lon="2.44656">
        <ele>46.6</ele>
        <time>2023-05-17T13:41:07Z</time>
      </trkpt>
      <trkpt lat="49.97876" lon="2.44656">
        <ele>46.6</ele>
        <time>2023-05-17T13:41:08Z</time>
      </trkpt>
      <trkpt lat="49.97876" lon="2.44655">
        <ele>46.6</ele>
        <time>2023-05-17T13:41:09Z</time>
      </trkpt>
      <trkpt lat="49.97877" lon="2.44654">
        <ele>46.6</ele>
        <time>2023-05-17T13:41:11Z</time>
      </trkpt>
      <trkpt lat="49.97877" lon="2.44652">
        <ele>46.6</ele>
        <time>2023-05-17T13:41:12Z</time>
      </trkpt>
      <trkpt lat="49.97877" lon="2.4465">
        <ele>46.6</ele>
        <time>2023-05-17T13:41:13Z</time>
      </trkpt>
      <trkpt lat="49.97878" lon="2.44647">
        <ele>46.6</ele>
        <time>2023-05-17T13:41:14Z</time>
      </trkpt>
      <trkpt lat="49.97878" lon="2.44646">
        <ele>46.6</ele>
        <time>2023-05-17T13:41:15Z</time>
      </trkpt>
      <trkpt lat="49.97878" lon="2.44644">
        <ele>46.6</ele>
        <time>2023-05-17T13:41:16Z</time>
      </trkpt>
      <trkpt lat="49.97878" lon="2.44643">
        <ele>46.6</ele>
        <time>2023-05-17T13:41:17Z</time>
      </trkpt>
      <trkpt lat="49.97878" lon="2.44641">
        <ele>46.6</ele>
        <time>2023-05-17T13:41:18Z</time>
      </trkpt>
      <trkpt lat="49.97878" lon="2.44639">
        <ele>46.6</ele>
        <time>2023-05-17T13:41:20Z</time>
      </trkpt>
      <trkpt lat="49.97878" lon="2.44637">
        <ele>46.6</ele>
        <time>2023-05-17T13:41:21Z</time>
      </trkpt>
      <trkpt lat="49.97878" lon="2.44636">
        <ele>46.6</ele>
        <time>2023-05-17T13:41:22Z</time>
      </trkpt>
      <trkpt lat="49.97879" lon="2.44634">
        <ele>46.6</ele>
        <time>2023-05-17T13:41:23Z</time>
      </trkpt>
      <trkpt lat="49.9788" lon="2.44631">
        <ele>46.6</ele>
        <time>2023-05-17T13:41:24Z</time>
      </trkpt>
      <trkpt lat="49.9788" lon="2.4463">
        <ele>46.6</ele>
        <time>2023-05-17T13:41:26Z</time>
      </trkpt>
      <trkpt lat="49.97881" lon="2.44629">
        <ele>46.6</ele>
        <time>2023-05-17T13:41:27Z</time>
      </trkpt>
      <trkpt lat="49.97882" lon="2.44628">
        <ele>46.6</ele>
        <time>2023-05-17T13:41:28Z</time>
      </trkpt>
      <trkpt lat="49.97882" lon="2.44627">
        <ele>46.6</ele>
        <time>2023-05-17T13:41:29Z</time>
      </trkpt>
      <trkpt lat="49.97883" lon="2.44626">
        <ele>46.6</ele>
        <time>2023-05-17T13:41:30Z</time>
      </trkpt>
      <trkpt lat="49.97884" lon="2.44625">
        <ele>46.6</ele>
        <time>2023-05-17T13:41:31Z</time>
      </trkpt>
      <trkpt lat="49.97885" lon="2.44624">
        <ele>46.6</ele>
        <time>2023-05-17T13:41:32Z</time>
      </trkpt>
      <trkpt lat="49.97886" lon="2.44623">
        <ele>46.7</ele>
        <time>2023-05-17T13:41:34Z</time>
      </trkpt>
      <trkpt lat="49.97888" lon="2.4462">
        <ele>46.7</ele>
        <time>2023-05-17T13:41:35Z</time>
      </trkpt>
      <trkpt lat="49.97888" lon="2.44619">
        <ele>46.7</ele>
        <time>2023-05-17T13:41:36Z</time>
      </trkpt>
      <trkpt lat="49.97888" lon="2.44618">
        <ele>46.7</ele>
        <time>2023-05-17T13:41:37Z</time>
      </trkpt>
      <trkpt lat="49.97889" lon="2.44615">
        <ele>46.7</ele>
        <time>2023-05-17T13:41:38Z</time>
      </trkpt>
      <trkpt lat="49.97889" lon="2.44613">
        <ele>46.7</ele>
        <time>2023-05-17T13:41:39Z</time>
      </trkpt>
      <trkpt lat="49.9789" lon="2.44612">
        <ele>46.7</ele>
        <time>2023-05-17T13:41:40Z</time>
      </trkpt>
      <trkpt lat="49.97891" lon="2.44609">
        <ele>46.7</ele>
        <time>2023-05-17T13:41:42Z</time>
      </trkpt>
      <trkpt lat="49.97891" lon="2.44607">
        <ele>46.7</ele>
        <time>2023-05-17T13:41:43Z</time>
      </trkpt>
      <trkpt lat="49.97892" lon="2.44604">
        <ele>46.8</ele>
        <time>2023-05-17T13:41:45Z</time>
      </trkpt>
      <trkpt lat="49.97892" lon="2.44602">
        <ele>46.8</ele>
        <time>2023-05-17T13:41:46Z</time>
      </trkpt>
      <trkpt lat="49.97893" lon="2.446">
        <ele>46.8</ele>
        <time>2023-05-17T13:41:47Z</time>
      </trkpt>
      <trkpt lat="49.97893" lon="2.44598">
        <ele>46.8</ele>
        <time>2023-05-17T13:41:48Z</time>
      </trkpt>
      <trkpt lat="49.97893" lon="2.44596">
        <ele>46.8</ele>
        <time>2023-05-17T13:41:49Z</time>
      </trkpt>
      <trkpt lat="49.97893" lon="2.44594">
        <ele>46.8</ele>
        <time>2023-05-17T13:41:50Z</time>
      </trkpt>
      <trkpt lat="49.97893" lon="2.44592">
        <ele>46.8</ele>
        <time>2023-05-17T13:41:51Z</time>
      </trkpt>
      <trkpt lat="49.97894" lon="2.44589">
        <ele>46.9</ele>
        <time>2023-05-17T13:41:53Z</time>
      </trkpt>
      <trkpt lat="49.97894" lon="2.44587">
        <ele>46.9</ele>
        <time>2023-05-17T13:41:54Z</time>
      </trkpt>
      <trkpt lat="49.97894" lon="2.44585">
        <ele>46.9</ele>
        <time>2023-05-17T13:41:56Z</time>
      </trkpt>
      <trkpt lat="49.97894" lon="2.44583">
        <ele>46.9</ele>
        <time>2023-05-17T13:41:57Z</time>
      </trkpt>
      <trkpt lat="49.97895" lon="2.44579">
        <ele>46.9</ele>
        <time>2023-05-17T13:41:58Z</time>
      </trkpt>
      <trkpt lat="49.97895" lon="2.44578">
        <ele>46.9</ele>
        <time>2023-05-17T13:41:59Z</time>
      </trkpt>
      <trkpt lat="49.97895" lon="2.44577">
        <ele>46.9</ele>
        <time>2023-05-17T13:42:00Z</time>
      </trkpt>
      <trkpt lat="49.97895" lon="2.44575">
        <ele>47</ele>
        <time>2023-05-17T13:42:01Z</time>
      </trkpt>
      <trkpt lat="49.97896" lon="2.44573">
        <ele>47</ele>
        <time>2023-05-17T13:42:02Z</time>
      </trkpt>
      <trkpt lat="49.97896" lon="2.44571">
        <ele>47</ele>
        <time>2023-05-17T13:42:04Z</time>
      </trkpt>
      <trkpt lat="49.97897" lon="2.44568">
        <ele>47</ele>
        <time>2023-05-17T13:42:05Z</time>
      </trkpt>
      <trkpt lat="49.97897" lon="2.44564">
        <ele>47</ele>
        <time>2023-05-17T13:42:07Z</time>
      </trkpt>
      <trkpt lat="49.97897" lon="2.44563">
        <ele>47</ele>
        <time>2023-05-17T13:42:08Z</time>
      </trkpt>
      <trkpt lat="49.97898" lon="2.44562">
        <ele>47</ele>
        <time>2023-05-17T13:42:09Z</time>
      </trkpt>
      <trkpt lat="49.97898" lon="2.4456">
        <ele>47</ele>
        <time>2023-05-17T13:42:10Z</time>
      </trkpt>
      <trkpt lat="49.97898" lon="2.44558">
        <ele>47</ele>
        <time>2023-05-17T13:42:11Z</time>
      </trkpt>
      <trkpt lat="49.97898" lon="2.44555">
        <ele>47.1</ele>
        <time>2023-05-17T13:42:13Z</time>
      </trkpt>
      <trkpt lat="49.97898" lon="2.44554">
        <ele>47.1</ele>
        <time>2023-05-17T13:42:14Z</time>
      </trkpt>
      <trkpt lat="49.97897" lon="2.44552">
        <ele>47.1</ele>
        <time>2023-05-17T13:42:15Z</time>
      </trkpt>
      <trkpt lat="49.97897" lon="2.44549">
        <ele>47.1</ele>
        <time>2023-05-17T13:42:17Z</time>
      </trkpt>
      <trkpt lat="49.97897" lon="2.44546">
        <ele>47.1</ele>
        <time>2023-05-17T13:42:18Z</time>
      </trkpt>
      <trkpt lat="49.97897" lon="2.44545">
        <ele>47.1</ele>
        <time>2023-05-17T13:42:19Z</time>
      </trkpt>
      <trkpt lat="49.97897" lon="2.44543">
        <ele>47.2</ele>
        <time>2023-05-17T13:42:20Z</time>
      </trkpt>
      <trkpt lat="49.97897" lon="2.4454">
        <ele>47.2</ele>
        <time>2023-05-17T13:42:21Z</time>
      </trkpt>
      <trkpt lat="49.97897" lon="2.44538">
        <ele>47.2</ele>
        <time>2023-05-17T13:42:23Z</time>
      </trkpt>
      <trkpt lat="49.97897" lon="2.44536">
        <ele>47.2</ele>
        <time>2023-05-17T13:42:24Z</time>
      </trkpt>
      <trkpt lat="49.97897" lon="2.44534">
        <ele>47.3</ele>
        <time>2023-05-17T13:42:26Z</time>
      </trkpt>
      <trkpt lat="49.97897" lon="2.44532">
        <ele>47.3</ele>
        <time>2023-05-17T13:42:27Z</time>
      </trkpt>
      <trkpt lat="49.97897" lon="2.44529">
        <ele>47.3</ele>
        <time>2023-05-17T13:42:28Z</time>
      </trkpt>
      <trkpt lat="49.97897" lon="2.44527">
        <ele>47.3</ele>
        <time>2023-05-17T13:42:29Z</time>
      </trkpt>
      <trkpt lat="49.97897" lon="2.44526">
        <ele>47.3</ele>
        <time>2023-05-17T13:42:30Z</time>
      </trkpt>
      <trkpt lat="49.97897" lon="2.44524">
        <ele>47.4</ele>
        <time>2023-05-17T13:42:31Z</time>
      </trkpt>
      <trkpt lat="49.97897" lon="2.44522">
        <ele>47.4</ele>
        <time>2023-05-17T13:42:32Z</time>
      </trkpt>
      <trkpt lat="49.97898" lon="2.4452">
        <ele>47.4</ele>
        <time>2023-05-17T13:42:34Z</time>
      </trkpt>
      <trkpt lat="49.97898" lon="2.44519">
        <ele>47.5</ele>
        <time>2023-05-17T13:42:35Z</time>
      </trkpt>
      <trkpt lat="49.97898" lon="2.44518">
        <ele>47.5</ele>
        <time>2023-05-17T13:42:36Z</time>
      </trkpt>
      <trkpt lat="49.97897" lon="2.44518">
        <ele>47.5</ele>
        <time>2023-05-17T13:42:37Z</time>
      </trkpt>
      <trkpt lat="49.97897" lon="2.44519">
        <ele>47.5</ele>
        <time>2023-05-17T13:42:38Z</time>
      </trkpt>
      <trkpt lat="49.97896" lon="2.44519">
        <ele>47.5</ele>
        <time>2023-05-17T13:42:39Z</time>
      </trkpt>
      <trkpt lat="49.97896" lon="2.44519">
        <ele>47.5</ele>
        <time>2023-05-17T13:42:41Z</time>
      </trkpt>
      <trkpt lat="49.97896" lon="2.44519">
        <ele>47.5</ele>
        <time>2023-05-17T13:42:42Z</time>
      </trkpt>
      <trkpt lat="49.97896" lon="2.44519">
        <ele>47.5</ele>
        <time>2023-05-17T13:42:43Z</time>
      </trkpt>
      <trkpt lat="49.97896" lon="2.44518">
        <ele>47.5</ele>
        <time>2023-05-17T13:42:44Z</time>
      </trkpt>
      <trkpt lat="49.97895" lon="2.44517">
        <ele>47.6</ele>
        <time>2023-05-17T13:42:45Z</time>
      </trkpt>
      <trkpt lat="49.97895" lon="2.44516">
        <ele>47.6</ele>
        <time>2023-05-17T13:42:47Z</time>
      </trkpt>
      <trkpt lat="49.97894" lon="2.44514">
        <ele>47.6</ele>
        <time>2023-05-17T13:42:48Z</time>
      </trkpt>
      <trkpt lat="49.97894" lon="2.44512">
        <ele>47.6</ele>
        <time>2023-05-17T13:42:49Z</time>
      </trkpt>
      <trkpt lat="49.97893" lon="2.44511">
        <ele>47.7</ele>
        <time>2023-05-17T13:42:50Z</time>
      </trkpt>
      <trkpt lat="49.97892" lon="2.44509">
        <ele>47.7</ele>
        <time>2023-05-17T13:42:51Z</time>
      </trkpt>
      <trkpt lat="49.97892" lon="2.44507">
        <ele>47.7</ele>
        <time>2023-05-17T13:42:52Z</time>
      </trkpt>
      <trkpt lat="49.97891" lon="2.44505">
        <ele>47.8</ele>
        <time>2023-05-17T13:42:53Z</time>
      </trkpt>
      <trkpt lat="49.97891" lon="2.44502">
        <ele>47.8</ele>
        <time>2023-05-17T13:42:55Z</time>
      </trkpt>
      <trkpt lat="49.97891" lon="2.44499">
        <ele>47.9</ele>
        <time>2023-05-17T13:42:56Z</time>
      </trkpt>
      <trkpt lat="49.97891" lon="2.44496">
        <ele>47.9</ele>
        <time>2023-05-17T13:42:58Z</time>
      </trkpt>
      <trkpt lat="49.97892" lon="2.44494">
        <ele>48</ele>
        <time>2023-05-17T13:42:59Z</time>
      </trkpt>
      <trkpt lat="49.97892" lon="2.44492">
        <ele>48</ele>
        <time>2023-05-17T13:43:00Z</time>
      </trkpt>
      <trkpt lat="49.97893" lon="2.44491">
        <ele>48</ele>
        <time>2023-05-17T13:43:02Z</time>
      </trkpt>
      <trkpt lat="49.97894" lon="2.44489">
        <ele>48.1</ele>
        <time>2023-05-17T13:43:03Z</time>
      </trkpt>
      <trkpt lat="49.97895" lon="2.44487">
        <ele>48.1</ele>
        <time>2023-05-17T13:43:04Z</time>
      </trkpt>
      <trkpt lat="49.97896" lon="2.44486">
        <ele>48.2</ele>
        <time>2023-05-17T13:43:06Z</time>
      </trkpt>
      <trkpt lat="49.97897" lon="2.44484">
        <ele>48.2</ele>
        <time>2023-05-17T13:43:07Z</time>
      </trkpt>
      <trkpt lat="49.97897" lon="2.44484">
        <ele>48.2</ele>
        <time>2023-05-17T13:43:08Z</time>
      </trkpt>
      <trkpt lat="49.97898" lon="2.44482">
        <ele>48.2</ele>
        <time>2023-05-17T13:43:09Z</time>
      </trkpt>
      <trkpt lat="49.97898" lon="2.44481">
        <ele>48.2</ele>
        <time>2023-05-17T13:43:10Z</time>
      </trkpt>
      <trkpt lat="49.97899" lon="2.4448">
        <ele>48.2</ele>
        <time>2023-05-17T13:43:12Z</time>
      </trkpt>
      <trkpt lat="49.97899" lon="2.44478">
        <ele>48.2</ele>
        <time>2023-05-17T13:43:13Z</time>
      </trkpt>
      <trkpt lat="49.97898" lon="2.44476">
        <ele>48.1</ele>
        <time>2023-05-17T13:43:15Z</time>
      </trkpt>
      <trkpt lat="49.97898" lon="2.44476">
        <ele>48.1</ele>
        <time>2023-05-17T13:43:16Z</time>
      </trkpt>
      <trkpt lat="49.97898" lon="2.44475">
        <ele>48.1</ele>
        <time>2023-05-17T13:43:17Z</time>
      </trkpt>
      <trkpt lat="49.97897" lon="2.44476">
        <ele>48.1</ele>
        <time>2023-05-17T13:43:19Z</time>
      </trkpt>
      <trkpt lat="49.97897" lon="2.44476">
        <ele>48.1</ele>
        <time>2023-05-17T13:43:20Z</time>
      </trkpt>
      <trkpt lat="49.97897" lon="2.44477">
        <ele>48.1</ele>
        <time>2023-05-17T13:43:22Z</time>
      </trkpt>
      <trkpt lat="49.97897" lon="2.44477">
        <ele>48.1</ele>
        <time>2023-05-17T13:43:23Z</time>
      </trkpt>
      <trkpt lat="49.97897" lon="2.44478">
        <ele>48.1</ele>
        <time>2023-05-17T13:43:25Z</time>
      </trkpt>
      <trkpt lat="49.97897" lon="2.44478">
        <ele>48.1</ele>
        <time>2023-05-17T13:43:26Z</time>
      </trkpt>
      <trkpt lat="49.97897" lon="2.44478">
        <ele>48.1</ele>
        <time>2023-05-17T13:43:27Z</time>
      </trkpt>
      <trkpt lat="49.97896" lon="2.44479">
        <ele>48.1</ele>
        <time>2023-05-17T13:43:29Z</time>
      </trkpt>
      <trkpt lat="49.97896" lon="2.44479">
        <ele>48.1</ele>
        <time>2023-05-17T13:43:30Z</time>
      </trkpt>
      <trkpt lat="49.97895" lon="2.44481">
        <ele>48.1</ele>
        <time>2023-05-17T13:45:28Z</time>
      </trkpt>
      <trkpt lat="49.97894" lon="2.44481">
        <ele>48.1</ele>
        <time>2023-05-17T13:45:29Z</time>
      </trkpt>
      <trkpt lat="49.97893" lon="2.4448">
        <ele>48.1</ele>
        <time>2023-05-17T13:45:30Z</time>
      </trkpt>
      <trkpt lat="49.9789" lon="2.44479">
        <ele>48.1</ele>
        <time>2023-05-17T13:45:32Z</time>
      </trkpt>
      <trkpt lat="49.97888" lon="2.44478">
        <ele>48</ele>
        <time>2023-05-17T13:45:33Z</time>
      </trkpt>
      <trkpt lat="49.97887" lon="2.44478">
        <ele>48</ele>
        <time>2023-05-17T13:45:34Z</time>
      </trkpt>
      <trkpt lat="49.97886" lon="2.44478">
        <ele>48</ele>
        <time>2023-05-17T13:45:35Z</time>
      </trkpt>
      <trkpt lat="49.97885" lon="2.44477">
        <ele>48</ele>
        <time>2023-05-17T13:45:36Z</time>
      </trkpt>
      <trkpt lat="49.97884" lon="2.44477">
        <ele>48</ele>
        <time>2023-05-17T13:45:37Z</time>
      </trkpt>
      <trkpt lat="49.97882" lon="2.44478">
        <ele>48</ele>
        <time>2023-05-17T13:45:39Z</time>
      </trkpt>
      <trkpt lat="49.97881" lon="2.44478">
        <ele>48</ele>
        <time>2023-05-17T13:45:40Z</time>
      </trkpt>
      <trkpt lat="49.9788" lon="2.44479">
        <ele>48</ele>
        <time>2023-05-17T13:45:41Z</time>
      </trkpt>
      <trkpt lat="49.97878" lon="2.4448">
        <ele>48</ele>
        <time>2023-05-17T13:45:42Z</time>
      </trkpt>
      <trkpt lat="49.97877" lon="2.4448">
        <ele>48</ele>
        <time>2023-05-17T13:45:43Z</time>
      </trkpt>
      <trkpt lat="49.97876" lon="2.4448">
        <ele>48</ele>
        <time>2023-05-17T13:45:44Z</time>
      </trkpt>
      <trkpt lat="49.97875" lon="2.44481">
        <ele>48</ele>
        <time>2023-05-17T13:45:46Z</time>
      </trkpt>
      <trkpt lat="49.97873" lon="2.44482">
        <ele>48</ele>
        <time>2023-05-17T13:45:47Z</time>
      </trkpt>
      <trkpt lat="49.97872" lon="2.44483">
        <ele>48</ele>
        <time>2023-05-17T13:45:48Z</time>
      </trkpt>
      <trkpt lat="49.97871" lon="2.44483">
        <ele>48</ele>
        <time>2023-05-17T13:45:49Z</time>
      </trkpt>
      <trkpt lat="49.9787" lon="2.44484">
        <ele>48</ele>
        <time>2023-05-17T13:45:50Z</time>
      </trkpt>
      <trkpt lat="49.97869" lon="2.44484">
        <ele>48</ele>
        <time>2023-05-17T13:45:51Z</time>
      </trkpt>
      <trkpt lat="49.97868" lon="2.44484">
        <ele>48</ele>
        <time>2023-05-17T13:45:53Z</time>
      </trkpt>
      <trkpt lat="49.97867" lon="2.44484">
        <ele>48</ele>
        <time>2023-05-17T13:45:54Z</time>
      </trkpt>
      <trkpt lat="49.97867" lon="2.44483">
        <ele>48.1</ele>
        <time>2023-05-17T13:45:56Z</time>
      </trkpt>
      <trkpt lat="49.97867" lon="2.44483">
        <ele>48.1</ele>
        <time>2023-05-17T13:45:57Z</time>
      </trkpt>
      <trkpt lat="49.97867" lon="2.44483">
        <ele>48.1</ele>
        <time>2023-05-17T13:45:59Z</time>
      </trkpt>
      <trkpt lat="49.97867" lon="2.44484">
        <ele>48.1</ele>
        <time>2023-05-17T13:46:00Z</time>
      </trkpt>
      <trkpt lat="49.97868" lon="2.44484">
        <ele>48.1</ele>
        <time>2023-05-17T13:46:01Z</time>
      </trkpt>
      <trkpt lat="49.97868" lon="2.44483">
        <ele>48.1</ele>
        <time>2023-05-17T13:46:03Z</time>
      </trkpt>
      <trkpt lat="49.97868" lon="2.44483">
        <ele>48.1</ele>
        <time>2023-05-17T13:46:04Z</time>
      </trkpt>
      <trkpt lat="49.97868" lon="2.44483">
        <ele>48.1</ele>
        <time>2023-05-17T13:46:06Z</time>
      </trkpt>
      <trkpt lat="49.97868" lon="2.44483">
        <ele>48.1</ele>
        <time>2023-05-17T13:46:07Z</time>
      </trkpt>
      <trkpt lat="49.97868" lon="2.44483">
        <ele>48.1</ele>
        <time>2023-05-17T13:46:09Z</time>
      </trkpt>
      <trkpt lat="49.97868" lon="2.44483">
        <ele>48.1</ele>
        <time>2023-05-17T13:46:10Z</time>
      </trkpt>
      <trkpt lat="49.97868" lon="2.44484">
        <ele>48.1</ele>
        <time>2023-05-17T13:46:11Z</time>
      </trkpt>
      <trkpt lat="49.97869" lon="2.44484">
        <ele>48.1</ele>
        <time>2023-05-17T13:46:12Z</time>
      </trkpt>
      <trkpt lat="49.97869" lon="2.44484">
        <ele>48.1</ele>
        <time>2023-05-17T13:46:13Z</time>
      </trkpt>
      <trkpt lat="49.97869" lon="2.44484">
        <ele>48.1</ele>
        <time>2023-05-17T13:46:14Z</time>
      </trkpt>
      <trkpt lat="49.97869" lon="2.44484">
        <ele>48.1</ele>
        <time>2023-05-17T13:46:15Z</time>
      </trkpt>
      <trkpt lat="49.97869" lon="2.44484">
        <ele>48.1</ele>
        <time>2023-05-17T13:46:16Z</time>
      </trkpt>
      <trkpt lat="49.97869" lon="2.44484">
        <ele>48.1</ele>
        <time>2023-05-17T13:46:17Z</time>
      </trkpt>
      <trkpt lat="49.97866" lon="2.44487">
        <ele>48</ele>
        <time>2023-05-17T13:47:02Z</time>
      </trkpt>
      <trkpt lat="49.97865" lon="2.44488">
        <ele>48</ele>
        <time>2023-05-17T13:47:03Z</time>
      </trkpt>
      <trkpt lat="49.97863" lon="2.44488">
        <ele>48</ele>
        <time>2023-05-17T13:47:04Z</time>
      </trkpt>
      <trkpt lat="49.97861" lon="2.44488">
        <ele>47.9</ele>
        <time>2023-05-17T13:47:05Z</time>
      </trkpt>
      <trkpt lat="49.97859" lon="2.44489">
        <ele>47.9</ele>
        <time>2023-05-17T13:47:06Z</time>
      </trkpt>
      <trkpt lat="49.97858" lon="2.44489">
        <ele>47.8</ele>
        <time>2023-05-17T13:47:08Z</time>
      </trkpt>
      <trkpt lat="49.97856" lon="2.44489">
        <ele>47.8</ele>
        <time>2023-05-17T13:47:09Z</time>
      </trkpt>
      <trkpt lat="49.97854" lon="2.44489">
        <ele>47.8</ele>
        <time>2023-05-17T13:47:10Z</time>
      </trkpt>
      <trkpt lat="49.97853" lon="2.44489">
        <ele>47.7</ele>
        <time>2023-05-17T13:47:11Z</time>
      </trkpt>
      <trkpt lat="49.97852" lon="2.44488">
        <ele>47.7</ele>
        <time>2023-05-17T13:47:12Z</time>
      </trkpt>
      <trkpt lat="49.9785" lon="2.44488">
        <ele>47.6</ele>
        <time>2023-05-17T13:47:13Z</time>
      </trkpt>
      <trkpt lat="49.97849" lon="2.44488">
        <ele>47.6</ele>
        <time>2023-05-17T13:47:14Z</time>
      </trkpt>
      <trkpt lat="49.97848" lon="2.44488">
        <ele>47.6</ele>
        <time>2023-05-17T13:47:16Z</time>
      </trkpt>
      <trkpt lat="49.97846" lon="2.44488">
        <ele>47.5</ele>
        <time>2023-05-17T13:47:17Z</time>
      </trkpt>
      <trkpt lat="49.97845" lon="2.44488">
        <ele>47.5</ele>
        <time>2023-05-17T13:47:18Z</time>
      </trkpt>
      <trkpt lat="49.97844" lon="2.44488">
        <ele>47.5</ele>
        <time>2023-05-17T13:47:19Z</time>
      </trkpt>
      <trkpt lat="49.97844" lon="2.44487">
        <ele>47.5</ele>
        <time>2023-05-17T13:47:20Z</time>
      </trkpt>
      <trkpt lat="49.97844" lon="2.44488">
        <ele>47.5</ele>
        <time>2023-05-17T13:47:22Z</time>
      </trkpt>
      <trkpt lat="49.97844" lon="2.44488">
        <ele>47.5</ele>
        <time>2023-05-17T13:47:23Z</time>
      </trkpt>
      <trkpt lat="49.97844" lon="2.44488">
        <ele>47.4</ele>
        <time>2023-05-17T13:47:24Z</time>
      </trkpt>
      <trkpt lat="49.97844" lon="2.44489">
        <ele>47.4</ele>
        <time>2023-05-17T13:47:26Z</time>
      </trkpt>
      <trkpt lat="49.97844" lon="2.44489">
        <ele>47.4</ele>
        <time>2023-05-17T13:47:27Z</time>
      </trkpt>
      <trkpt lat="49.97843" lon="2.44489">
        <ele>47.4</ele>
        <time>2023-05-17T13:47:28Z</time>
      </trkpt>
      <trkpt lat="49.97843" lon="2.44488">
        <ele>47.4</ele>
        <time>2023-05-17T13:47:29Z</time>
      </trkpt>
      <trkpt lat="49.97842" lon="2.44488">
        <ele>47.4</ele>
        <time>2023-05-17T13:47:30Z</time>
      </trkpt>
      <trkpt lat="49.97841" lon="2.44487">
        <ele>47.4</ele>
        <time>2023-05-17T13:47:31Z</time>
      </trkpt>
      <trkpt lat="49.9784" lon="2.44487">
        <ele>47.3</ele>
        <time>2023-05-17T13:47:33Z</time>
      </trkpt>
      <trkpt lat="49.97839" lon="2.44486">
        <ele>47.3</ele>
        <time>2023-05-17T13:47:34Z</time>
      </trkpt>
      <trkpt lat="49.97838" lon="2.44486">
        <ele>47.3</ele>
        <time>2023-05-17T13:47:35Z</time>
      </trkpt>
      <trkpt lat="49.97836" lon="2.44485">
        <ele>47.2</ele>
        <time>2023-05-17T13:47:36Z</time>
      </trkpt>
      <trkpt lat="49.97835" lon="2.44485">
        <ele>47.2</ele>
        <time>2023-05-17T13:47:37Z</time>
      </trkpt>
      <trkpt lat="49.97834" lon="2.44484">
        <ele>47.2</ele>
        <time>2023-05-17T13:47:38Z</time>
      </trkpt>
      <trkpt lat="49.97832" lon="2.44483">
        <ele>47.1</ele>
        <time>2023-05-17T13:47:39Z</time>
      </trkpt>
      <trkpt lat="49.9783" lon="2.44482">
        <ele>47.1</ele>
        <time>2023-05-17T13:47:40Z</time>
      </trkpt>
      <trkpt lat="49.97829" lon="2.44481">
        <ele>47.1</ele>
        <time>2023-05-17T13:47:41Z</time>
      </trkpt>
      <trkpt lat="49.97827" lon="2.4448">
        <ele>47</ele>
        <time>2023-05-17T13:47:42Z</time>
      </trkpt>
      <trkpt lat="49.97825" lon="2.44479">
        <ele>47</ele>
        <time>2023-05-17T13:47:44Z</time>
      </trkpt>
      <trkpt lat="49.97824" lon="2.44478">
        <ele>47</ele>
        <time>2023-05-17T13:47:45Z</time>
      </trkpt>
      <trkpt lat="49.97822" lon="2.44477">
        <ele>46.9</ele>
        <time>2023-05-17T13:47:47Z</time>
      </trkpt>
      <trkpt lat="49.97821" lon="2.44476">
        <ele>46.9</ele>
        <time>2023-05-17T13:47:48Z</time>
      </trkpt>
      <trkpt lat="49.9782" lon="2.44475">
        <ele>46.9</ele>
        <time>2023-05-17T13:47:49Z</time>
      </trkpt>
      <trkpt lat="49.97818" lon="2.44474">
        <ele>46.9</ele>
        <time>2023-05-17T13:47:50Z</time>
      </trkpt>
      <trkpt lat="49.97817" lon="2.44474">
        <ele>46.8</ele>
        <time>2023-05-17T13:47:51Z</time>
      </trkpt>
      <trkpt lat="49.97816" lon="2.44474">
        <ele>46.8</ele>
        <time>2023-05-17T13:47:52Z</time>
      </trkpt>
      <trkpt lat="49.97815" lon="2.44473">
        <ele>46.8</ele>
        <time>2023-05-17T13:47:53Z</time>
      </trkpt>
      <trkpt lat="49.97814" lon="2.44473">
        <ele>46.8</ele>
        <time>2023-05-17T13:47:54Z</time>
      </trkpt>
      <trkpt lat="49.97812" lon="2.44472">
        <ele>46.8</ele>
        <time>2023-05-17T13:47:56Z</time>
      </trkpt>
      <trkpt lat="49.97811" lon="2.44471">
        <ele>46.7</ele>
        <time>2023-05-17T13:47:58Z</time>
      </trkpt>
      <trkpt lat="49.9781" lon="2.44471">
        <ele>46.7</ele>
        <time>2023-05-17T13:47:59Z</time>
      </trkpt>
      <trkpt lat="49.97809" lon="2.44471">
        <ele>46.7</ele>
        <time>2023-05-17T13:48:00Z</time>
      </trkpt>
      <trkpt lat="49.97808" lon="2.4447">
        <ele>46.7</ele>
        <time>2023-05-17T13:48:01Z</time>
      </trkpt>
      <trkpt lat="49.97807" lon="2.4447">
        <ele>46.7</ele>
        <time>2023-05-17T13:48:02Z</time>
      </trkpt>
      <trkpt lat="49.97806" lon="2.44469">
        <ele>46.7</ele>
        <time>2023-05-17T13:48:04Z</time>
      </trkpt>
      <trkpt lat="49.97805" lon="2.44469">
        <ele>46.7</ele>
        <time>2023-05-17T13:48:05Z</time>
      </trkpt>
      <trkpt lat="49.97803" lon="2.44468">
        <ele>46.6</ele>
        <time>2023-05-17T13:48:06Z</time>
      </trkpt>
      <trkpt lat="49.97802" lon="2.44468">
        <ele>46.6</ele>
        <time>2023-05-17T13:48:07Z</time>
      </trkpt>
      <trkpt lat="49.97801" lon="2.44467">
        <ele>46.6</ele>
        <time>2023-05-17T13:48:08Z</time>
      </trkpt>
      <trkpt lat="49.978" lon="2.44466">
        <ele>46.6</ele>
        <time>2023-05-17T13:48:09Z</time>
      </trkpt>
      <trkpt lat="49.97799" lon="2.44466">
        <ele>46.6</ele>
        <time>2023-05-17T13:48:10Z</time>
      </trkpt>
      <trkpt lat="49.97798" lon="2.44466">
        <ele>46.6</ele>
        <time>2023-05-17T13:48:11Z</time>
      </trkpt>
      <trkpt lat="49.97796" lon="2.44465">
        <ele>46.5</ele>
        <time>2023-05-17T13:48:12Z</time>
      </trkpt>
      <trkpt lat="49.97794" lon="2.44464">
        <ele>46.5</ele>
        <time>2023-05-17T13:48:14Z</time>
      </trkpt>
      <trkpt lat="49.97793" lon="2.44463">
        <ele>46.5</ele>
        <time>2023-05-17T13:48:15Z</time>
      </trkpt>
      <trkpt lat="49.97792" lon="2.44463">
        <ele>46.5</ele>
        <time>2023-05-17T13:48:16Z</time>
      </trkpt>
      <trkpt lat="49.9779" lon="2.44462">
        <ele>46.5</ele>
        <time>2023-05-17T13:48:18Z</time>
      </trkpt>
      <trkpt lat="49.97788" lon="2.44462">
        <ele>46.5</ele>
        <time>2023-05-17T13:48:19Z</time>
      </trkpt>
      <trkpt lat="49.97788" lon="2.44461">
        <ele>46.4</ele>
        <time>2023-05-17T13:48:20Z</time>
      </trkpt>
      <trkpt lat="49.97787" lon="2.44461">
        <ele>46.4</ele>
        <time>2023-05-17T13:48:21Z</time>
      </trkpt>
      <trkpt lat="49.97785" lon="2.44461">
        <ele>46.4</ele>
        <time>2023-05-17T13:48:22Z</time>
      </trkpt>
      <trkpt lat="49.97784" lon="2.44461">
        <ele>46.4</ele>
        <time>2023-05-17T13:48:23Z</time>
      </trkpt>
      <trkpt lat="49.97783" lon="2.44461">
        <ele>46.4</ele>
        <time>2023-05-17T13:48:24Z</time>
      </trkpt>
      <trkpt lat="49.97781" lon="2.44462">
        <ele>46.4</ele>
        <time>2023-05-17T13:48:26Z</time>
      </trkpt>
      <trkpt lat="49.9778" lon="2.44462">
        <ele>46.4</ele>
        <time>2023-05-17T13:48:27Z</time>
      </trkpt>
      <trkpt lat="49.97779" lon="2.44462">
        <ele>46.4</ele>
        <time>2023-05-17T13:48:29Z</time>
      </trkpt>
      <trkpt lat="49.97778" lon="2.44462">
        <ele>46.4</ele>
        <time>2023-05-17T13:48:30Z</time>
      </trkpt>
      <trkpt lat="49.97777" lon="2.44461">
        <ele>46.3</ele>
        <time>2023-05-17T13:48:31Z</time>
      </trkpt>
      <trkpt lat="49.97776" lon="2.44461">
        <ele>46.3</ele>
        <time>2023-05-17T13:48:32Z</time>
      </trkpt>
      <trkpt lat="49.97775" lon="2.4446">
        <ele>46.3</ele>
        <time>2023-05-17T13:48:33Z</time>
      </trkpt>
      <trkpt lat="49.97773" lon="2.44459">
        <ele>46.3</ele>
        <time>2023-05-17T13:48:35Z</time>
      </trkpt>
      <trkpt lat="49.97772" lon="2.44459">
        <ele>46.3</ele>
        <time>2023-05-17T13:48:36Z</time>
      </trkpt>
      <trkpt lat="49.97771" lon="2.44458">
        <ele>46.3</ele>
        <time>2023-05-17T13:48:37Z</time>
      </trkpt>
      <trkpt lat="49.9777" lon="2.44457">
        <ele>46.3</ele>
        <time>2023-05-17T13:48:38Z</time>
      </trkpt>
      <trkpt lat="49.97768" lon="2.44457">
        <ele>46.3</ele>
        <time>2023-05-17T13:48:40Z</time>
      </trkpt>
      <trkpt lat="49.97766" lon="2.44456">
        <ele>46.2</ele>
        <time>2023-05-17T13:48:41Z</time>
      </trkpt>
      <trkpt lat="49.97766" lon="2.44456">
        <ele>46.2</ele>
        <time>2023-05-17T13:48:42Z</time>
      </trkpt>
      <trkpt lat="49.97765" lon="2.44455">
        <ele>46.2</ele>
        <time>2023-05-17T13:48:43Z</time>
      </trkpt>
      <trkpt lat="49.97763" lon="2.44454">
        <ele>46.2</ele>
        <time>2023-05-17T13:48:44Z</time>
      </trkpt>
      <trkpt lat="49.97762" lon="2.44454">
        <ele>46.2</ele>
        <time>2023-05-17T13:48:45Z</time>
      </trkpt>
      <trkpt lat="49.97761" lon="2.44453">
        <ele>46.2</ele>
        <time>2023-05-17T13:48:47Z</time>
      </trkpt>
      <trkpt lat="49.9776" lon="2.44452">
        <ele>46.2</ele>
        <time>2023-05-17T13:48:48Z</time>
      </trkpt>
      <trkpt lat="49.97759" lon="2.44452">
        <ele>46.2</ele>
        <time>2023-05-17T13:48:49Z</time>
      </trkpt>
      <trkpt lat="49.97758" lon="2.44451">
        <ele>46.2</ele>
        <time>2023-05-17T13:48:50Z</time>
      </trkpt>
      <trkpt lat="49.97757" lon="2.4445">
        <ele>46.1</ele>
        <time>2023-05-17T13:48:51Z</time>
      </trkpt>
      <trkpt lat="49.97756" lon="2.4445">
        <ele>46.1</ele>
        <time>2023-05-17T13:48:52Z</time>
      </trkpt>
      <trkpt lat="49.97754" lon="2.44449">
        <ele>46.1</ele>
        <time>2023-05-17T13:48:54Z</time>
      </trkpt>
      <trkpt lat="49.97753" lon="2.44448">
        <ele>46.1</ele>
        <time>2023-05-17T13:48:55Z</time>
      </trkpt>
      <trkpt lat="49.97751" lon="2.44447">
        <ele>46.1</ele>
        <time>2023-05-17T13:48:57Z</time>
      </trkpt>
      <trkpt lat="49.9775" lon="2.44447">
        <ele>46.1</ele>
        <time>2023-05-17T13:48:58Z</time>
      </trkpt>
      <trkpt lat="49.97749" lon="2.44446">
        <ele>46.1</ele>
        <time>2023-05-17T13:48:59Z</time>
      </trkpt>
      <trkpt lat="49.97748" lon="2.44446">
        <ele>46.1</ele>
        <time>2023-05-17T13:49:00Z</time>
      </trkpt>
      <trkpt lat="49.97747" lon="2.44445">
        <ele>46.1</ele>
        <time>2023-05-17T13:49:01Z</time>
      </trkpt>
      <trkpt lat="49.97746" lon="2.44445">
        <ele>46</ele>
        <time>2023-05-17T13:49:02Z</time>
      </trkpt>
      <trkpt lat="49.97745" lon="2.44444">
        <ele>46</ele>
        <time>2023-05-17T13:49:03Z</time>
      </trkpt>
      <trkpt lat="49.97743" lon="2.44444">
        <ele>46</ele>
        <time>2023-05-17T13:49:05Z</time>
      </trkpt>
      <trkpt lat="49.97742" lon="2.44443">
        <ele>46</ele>
        <time>2023-05-17T13:49:06Z</time>
      </trkpt>
      <trkpt lat="49.97741" lon="2.44443">
        <ele>46</ele>
        <time>2023-05-17T13:49:07Z</time>
      </trkpt>
      <trkpt lat="49.9774" lon="2.44442">
        <ele>46</ele>
        <time>2023-05-17T13:49:08Z</time>
      </trkpt>
      <trkpt lat="49.97739" lon="2.44442">
        <ele>46</ele>
        <time>2023-05-17T13:49:09Z</time>
      </trkpt>
      <trkpt lat="49.97738" lon="2.44441">
        <ele>46</ele>
        <time>2023-05-17T13:49:10Z</time>
      </trkpt>
      <trkpt lat="49.97737" lon="2.44441">
        <ele>46</ele>
        <time>2023-05-17T13:49:11Z</time>
      </trkpt>
      <trkpt lat="49.97736" lon="2.44441">
        <ele>46</ele>
        <time>2023-05-17T13:49:13Z</time>
      </trkpt>
      <trkpt lat="49.97735" lon="2.44441">
        <ele>46</ele>
        <time>2023-05-17T13:49:14Z</time>
      </trkpt>
      <trkpt lat="49.97734" lon="2.4444">
        <ele>46</ele>
        <time>2023-05-17T13:49:15Z</time>
      </trkpt>
      <trkpt lat="49.97733" lon="2.4444">
        <ele>45.9</ele>
        <time>2023-05-17T13:49:16Z</time>
      </trkpt>
      <trkpt lat="49.97732" lon="2.4444">
        <ele>45.9</ele>
        <time>2023-05-17T13:49:17Z</time>
      </trkpt>
      <trkpt lat="49.9773" lon="2.44439">
        <ele>45.9</ele>
        <time>2023-05-17T13:49:19Z</time>
      </trkpt>
      <trkpt lat="49.97729" lon="2.44438">
        <ele>45.9</ele>
        <time>2023-05-17T13:49:20Z</time>
      </trkpt>
      <trkpt lat="49.97728" lon="2.44438">
        <ele>45.9</ele>
        <time>2023-05-17T13:49:21Z</time>
      </trkpt>
      <trkpt lat="49.97727" lon="2.44437">
        <ele>45.9</ele>
        <time>2023-05-17T13:49:22Z</time>
      </trkpt>
      <trkpt lat="49.97726" lon="2.44436">
        <ele>45.9</ele>
        <time>2023-05-17T13:49:23Z</time>
      </trkpt>
      <trkpt lat="49.97725" lon="2.44436">
        <ele>45.9</ele>
        <time>2023-05-17T13:49:24Z</time>
      </trkpt>
      <trkpt lat="49.97724" lon="2.44435">
        <ele>45.9</ele>
        <time>2023-05-17T13:49:25Z</time>
      </trkpt>
      <trkpt lat="49.97722" lon="2.44434">
        <ele>45.9</ele>
        <time>2023-05-17T13:49:26Z</time>
      </trkpt>
      <trkpt lat="49.97721" lon="2.44433">
        <ele>45.9</ele>
        <time>2023-05-17T13:49:28Z</time>
      </trkpt>
      <trkpt lat="49.97719" lon="2.44433">
        <ele>45.9</ele>
        <time>2023-05-17T13:49:29Z</time>
      </trkpt>
      <trkpt lat="49.97718" lon="2.44432">
        <ele>45.9</ele>
        <time>2023-05-17T13:49:30Z</time>
      </trkpt>
      <trkpt lat="49.97717" lon="2.44432">
        <ele>45.9</ele>
        <time>2023-05-17T13:49:31Z</time>
      </trkpt>
      <trkpt lat="49.97716" lon="2.44432">
        <ele>45.9</ele>
        <time>2023-05-17T13:49:32Z</time>
      </trkpt>
      <trkpt lat="49.97715" lon="2.44432">
        <ele>45.9</ele>
        <time>2023-05-17T13:49:33Z</time>
      </trkpt>
      <trkpt lat="49.97713" lon="2.44431">
        <ele>45.9</ele>
        <time>2023-05-17T13:49:35Z</time>
      </trkpt>
      <trkpt lat="49.97712" lon="2.4443">
        <ele>45.9</ele>
        <time>2023-05-17T13:49:36Z</time>
      </trkpt>
      <trkpt lat="49.97711" lon="2.4443">
        <ele>45.9</ele>
        <time>2023-05-17T13:49:37Z</time>
      </trkpt>
      <trkpt lat="49.9771" lon="2.4443">
        <ele>45.9</ele>
        <time>2023-05-17T13:49:38Z</time>
      </trkpt>
      <trkpt lat="49.97708" lon="2.44429">
        <ele>45.9</ele>
        <time>2023-05-17T13:49:39Z</time>
      </trkpt>
      <trkpt lat="49.97706" lon="2.44429">
        <ele>45.9</ele>
        <time>2023-05-17T13:49:41Z</time>
      </trkpt>
      <trkpt lat="49.97705" lon="2.44428">
        <ele>45.9</ele>
        <time>2023-05-17T13:49:42Z</time>
      </trkpt>
      <trkpt lat="49.97704" lon="2.44428">
        <ele>45.9</ele>
        <time>2023-05-17T13:49:43Z</time>
      </trkpt>
      <trkpt lat="49.97703" lon="2.44428">
        <ele>45.9</ele>
        <time>2023-05-17T13:49:45Z</time>
      </trkpt>
      <trkpt lat="49.97701" lon="2.44428">
        <ele>45.9</ele>
        <time>2023-05-17T13:49:46Z</time>
      </trkpt>
      <trkpt lat="49.977" lon="2.44427">
        <ele>45.9</ele>
        <time>2023-05-17T13:49:47Z</time>
      </trkpt>
      <trkpt lat="49.97699" lon="2.44427">
        <ele>45.9</ele>
        <time>2023-05-17T13:49:48Z</time>
      </trkpt>
      <trkpt lat="49.97698" lon="2.44426">
        <ele>45.9</ele>
        <time>2023-05-17T13:49:49Z</time>
      </trkpt>
      <trkpt lat="49.97696" lon="2.44426">
        <ele>45.9</ele>
        <time>2023-05-17T13:49:51Z</time>
      </trkpt>
      <trkpt lat="49.97695" lon="2.44425">
        <ele>45.9</ele>
        <time>2023-05-17T13:49:52Z</time>
      </trkpt>
      <trkpt lat="49.97694" lon="2.44425">
        <ele>45.9</ele>
        <time>2023-05-17T13:49:53Z</time>
      </trkpt>
      <trkpt lat="49.97693" lon="2.44425">
        <ele>45.9</ele>
        <time>2023-05-17T13:49:54Z</time>
      </trkpt>
      <trkpt lat="49.97691" lon="2.44424">
        <ele>45.9</ele>
        <time>2023-05-17T13:49:55Z</time>
      </trkpt>
      <trkpt lat="49.9769" lon="2.44423">
        <ele>45.9</ele>
        <time>2023-05-17T13:49:57Z</time>
      </trkpt>
      <trkpt lat="49.97689" lon="2.44423">
        <ele>45.9</ele>
        <time>2023-05-17T13:49:58Z</time>
      </trkpt>
      <trkpt lat="49.97687" lon="2.44422">
        <ele>46</ele>
        <time>2023-05-17T13:49:59Z</time>
      </trkpt>
      <trkpt lat="49.97686" lon="2.44422">
        <ele>46</ele>
        <time>2023-05-17T13:50:00Z</time>
      </trkpt>
      <trkpt lat="49.97686" lon="2.44422">
        <ele>46</ele>
        <time>2023-05-17T13:50:01Z</time>
      </trkpt>
      <trkpt lat="49.97684" lon="2.44421">
        <ele>46</ele>
        <time>2023-05-17T13:50:03Z</time>
      </trkpt>
      <trkpt lat="49.97683" lon="2.44421">
        <ele>46</ele>
        <time>2023-05-17T13:50:04Z</time>
      </trkpt>
      <trkpt lat="49.9768" lon="2.4442">
        <ele>46</ele>
        <time>2023-05-17T13:50:05Z</time>
      </trkpt>
      <trkpt lat="49.9768" lon="2.4442">
        <ele>46</ele>
        <time>2023-05-17T13:50:06Z</time>
      </trkpt>
      <trkpt lat="49.97679" lon="2.4442">
        <ele>46</ele>
        <time>2023-05-17T13:50:07Z</time>
      </trkpt>
      <trkpt lat="49.97677" lon="2.44419">
        <ele>46</ele>
        <time>2023-05-17T13:50:09Z</time>
      </trkpt>
      <trkpt lat="49.97676" lon="2.44419">
        <ele>46</ele>
        <time>2023-05-17T13:50:10Z</time>
      </trkpt>
      <trkpt lat="49.97674" lon="2.44418">
        <ele>46</ele>
        <time>2023-05-17T13:50:11Z</time>
      </trkpt>
      <trkpt lat="49.97673" lon="2.44418">
        <ele>46</ele>
        <time>2023-05-17T13:50:12Z</time>
      </trkpt>
      <trkpt lat="49.97671" lon="2.44418">
        <ele>46.1</ele>
        <time>2023-05-17T13:50:13Z</time>
      </trkpt>
      <trkpt lat="49.9767" lon="2.44417">
        <ele>46.1</ele>
        <time>2023-05-17T13:50:14Z</time>
      </trkpt>
      <trkpt lat="49.97668" lon="2.44417">
        <ele>46.1</ele>
        <time>2023-05-17T13:50:15Z</time>
      </trkpt>
      <trkpt lat="49.97667" lon="2.44417">
        <ele>46.1</ele>
        <time>2023-05-17T13:50:17Z</time>
      </trkpt>
      <trkpt lat="49.97666" lon="2.44417">
        <ele>46.1</ele>
        <time>2023-05-17T13:50:18Z</time>
      </trkpt>
      <trkpt lat="49.97665" lon="2.44417">
        <ele>46.1</ele>
        <time>2023-05-17T13:50:19Z</time>
      </trkpt>
      <trkpt lat="49.97663" lon="2.44417">
        <ele>46.1</ele>
        <time>2023-05-17T13:50:20Z</time>
      </trkpt>
      <trkpt lat="49.97662" lon="2.44416">
        <ele>46.1</ele>
        <time>2023-05-17T13:50:21Z</time>
      </trkpt>
      <trkpt lat="49.97661" lon="2.44416">
        <ele>46.1</ele>
        <time>2023-05-17T13:50:22Z</time>
      </trkpt>
      <trkpt lat="49.9766" lon="2.44415">
        <ele>46.1</ele>
        <time>2023-05-17T13:50:24Z</time>
      </trkpt>
      <trkpt lat="49.97659" lon="2.44415">
        <ele>46.1</ele>
        <time>2023-05-17T13:50:25Z</time>
      </trkpt>
      <trkpt lat="49.97657" lon="2.44414">
        <ele>46.1</ele>
        <time>2023-05-17T13:50:26Z</time>
      </trkpt>
      <trkpt lat="49.97656" lon="2.44414">
        <ele>46.1</ele>
        <time>2023-05-17T13:50:27Z</time>
      </trkpt>
      <trkpt lat="49.97655" lon="2.44413">
        <ele>46.2</ele>
        <time>2023-05-17T13:50:28Z</time>
      </trkpt>
      <trkpt lat="49.97653" lon="2.44413">
        <ele>46.2</ele>
        <time>2023-05-17T13:50:30Z</time>
      </trkpt>
      <trkpt lat="49.97652" lon="2.44412">
        <ele>46.2</ele>
        <time>2023-05-17T13:50:31Z</time>
      </trkpt>
      <trkpt lat="49.97651" lon="2.44412">
        <ele>46.2</ele>
        <time>2023-05-17T13:50:32Z</time>
      </trkpt>
      <trkpt lat="49.9765" lon="2.44412">
        <ele>46.2</ele>
        <time>2023-05-17T13:50:33Z</time>
      </trkpt>
      <trkpt lat="49.97649" lon="2.44412">
        <ele>46.2</ele>
        <time>2023-05-17T13:50:35Z</time>
      </trkpt>
      <trkpt lat="49.97647" lon="2.44411">
        <ele>46.2</ele>
        <time>2023-05-17T13:50:36Z</time>
      </trkpt>
      <trkpt lat="49.97646" lon="2.44411">
        <ele>46.2</ele>
        <time>2023-05-17T13:50:37Z</time>
      </trkpt>
      <trkpt lat="49.97644" lon="2.4441">
        <ele>46.1</ele>
        <time>2023-05-17T13:50:38Z</time>
      </trkpt>
      <trkpt lat="49.97644" lon="2.4441">
        <ele>46.1</ele>
        <time>2023-05-17T13:50:39Z</time>
      </trkpt>
      <trkpt lat="49.97643" lon="2.44409">
        <ele>46.1</ele>
        <time>2023-05-17T13:50:40Z</time>
      </trkpt>
      <trkpt lat="49.97641" lon="2.44408">
        <ele>46.1</ele>
        <time>2023-05-17T13:50:42Z</time>
      </trkpt>
      <trkpt lat="49.9764" lon="2.44407">
        <ele>46.1</ele>
        <time>2023-05-17T13:50:43Z</time>
      </trkpt>
      <trkpt lat="49.97638" lon="2.44406">
        <ele>46.1</ele>
        <time>2023-05-17T13:50:45Z</time>
      </trkpt>
      <trkpt lat="49.97637" lon="2.44406">
        <ele>46.1</ele>
        <time>2023-05-17T13:50:46Z</time>
      </trkpt>
      <trkpt lat="49.97637" lon="2.44405">
        <ele>46.1</ele>
        <time>2023-05-17T13:50:47Z</time>
      </trkpt>
      <trkpt lat="49.97636" lon="2.44405">
        <ele>46.1</ele>
        <time>2023-05-17T13:50:48Z</time>
      </trkpt>
      <trkpt lat="49.97634" lon="2.44404">
        <ele>46</ele>
        <time>2023-05-17T13:50:49Z</time>
      </trkpt>
      <trkpt lat="49.97633" lon="2.44404">
        <ele>46</ele>
        <time>2023-05-17T13:50:50Z</time>
      </trkpt>
      <trkpt lat="49.97632" lon="2.44403">
        <ele>46</ele>
        <time>2023-05-17T13:50:51Z</time>
      </trkpt>
      <trkpt lat="49.97631" lon="2.44402">
        <ele>46</ele>
        <time>2023-05-17T13:50:52Z</time>
      </trkpt>
      <trkpt lat="49.9763" lon="2.44401">
        <ele>46</ele>
        <time>2023-05-17T13:50:54Z</time>
      </trkpt>
      <trkpt lat="49.97628" lon="2.44399">
        <ele>46</ele>
        <time>2023-05-17T13:50:55Z</time>
      </trkpt>
      <trkpt lat="49.97627" lon="2.44399">
        <ele>45.9</ele>
        <time>2023-05-17T13:50:57Z</time>
      </trkpt>
      <trkpt lat="49.97626" lon="2.44398">
        <ele>45.9</ele>
        <time>2023-05-17T13:50:58Z</time>
      </trkpt>
      <trkpt lat="49.97625" lon="2.44397">
        <ele>45.9</ele>
        <time>2023-05-17T13:50:59Z</time>
      </trkpt>
      <trkpt lat="49.97624" lon="2.44397">
        <ele>45.9</ele>
        <time>2023-05-17T13:51:00Z</time>
      </trkpt>
      <trkpt lat="49.97623" lon="2.44397">
        <ele>45.9</ele>
        <time>2023-05-17T13:51:01Z</time>
      </trkpt>
      <trkpt lat="49.97621" lon="2.44396">
        <ele>45.9</ele>
        <time>2023-05-17T13:51:02Z</time>
      </trkpt>
      <trkpt lat="49.9762" lon="2.44396">
        <ele>45.9</ele>
        <time>2023-05-17T13:51:03Z</time>
      </trkpt>
      <trkpt lat="49.97619" lon="2.44396">
        <ele>45.9</ele>
        <time>2023-05-17T13:51:04Z</time>
      </trkpt>
      <trkpt lat="49.97618" lon="2.44396">
        <ele>45.8</ele>
        <time>2023-05-17T13:51:05Z</time>
      </trkpt>
      <trkpt lat="49.97615" lon="2.44395">
        <ele>45.8</ele>
        <time>2023-05-17T13:51:07Z</time>
      </trkpt>
      <trkpt lat="49.97614" lon="2.44394">
        <ele>45.8</ele>
        <time>2023-05-17T13:51:08Z</time>
      </trkpt>
      <trkpt lat="49.97613" lon="2.44393">
        <ele>45.8</ele>
        <time>2023-05-17T13:51:09Z</time>
      </trkpt>
      <trkpt lat="49.97611" lon="2.44393">
        <ele>45.8</ele>
        <time>2023-05-17T13:51:11Z</time>
      </trkpt>
      <trkpt lat="49.97609" lon="2.44391">
        <ele>45.8</ele>
        <time>2023-05-17T13:51:12Z</time>
      </trkpt>
      <trkpt lat="49.97608" lon="2.44391">
        <ele>45.8</ele>
        <time>2023-05-17T13:51:13Z</time>
      </trkpt>
      <trkpt lat="49.97608" lon="2.4439">
        <ele>45.8</ele>
        <time>2023-05-17T13:51:14Z</time>
      </trkpt>
      <trkpt lat="49.97606" lon="2.4439">
        <ele>45.8</ele>
        <time>2023-05-17T13:51:15Z</time>
      </trkpt>
      <trkpt lat="49.97604" lon="2.44389">
        <ele>45.8</ele>
        <time>2023-05-17T13:51:17Z</time>
      </trkpt>
      <trkpt lat="49.97603" lon="2.44389">
        <ele>45.8</ele>
        <time>2023-05-17T13:51:18Z</time>
      </trkpt>
      <trkpt lat="49.97602" lon="2.44389">
        <ele>45.8</ele>
        <time>2023-05-17T13:51:19Z</time>
      </trkpt>
      <trkpt lat="49.97601" lon="2.44389">
        <ele>45.8</ele>
        <time>2023-05-17T13:51:20Z</time>
      </trkpt>
      <trkpt lat="49.976" lon="2.44388">
        <ele>45.8</ele>
        <time>2023-05-17T13:51:22Z</time>
      </trkpt>
      <trkpt lat="49.97599" lon="2.44388">
        <ele>45.8</ele>
        <time>2023-05-17T13:51:23Z</time>
      </trkpt>
      <trkpt lat="49.97597" lon="2.44388">
        <ele>45.8</ele>
        <time>2023-05-17T13:51:25Z</time>
      </trkpt>
      <trkpt lat="49.97596" lon="2.44387">
        <ele>45.8</ele>
        <time>2023-05-17T13:51:26Z</time>
      </trkpt>
      <trkpt lat="49.97595" lon="2.44387">
        <ele>45.8</ele>
        <time>2023-05-17T13:51:27Z</time>
      </trkpt>
      <trkpt lat="49.97592" lon="2.44386">
        <ele>45.8</ele>
        <time>2023-05-17T13:51:28Z</time>
      </trkpt>
      <trkpt lat="49.97591" lon="2.44385">
        <ele>45.8</ele>
        <time>2023-05-17T13:51:29Z</time>
      </trkpt>
      <trkpt lat="49.9759" lon="2.44385">
        <ele>45.8</ele>
        <time>2023-05-17T13:51:31Z</time>
      </trkpt>
      <trkpt lat="49.97589" lon="2.44384">
        <ele>45.8</ele>
        <time>2023-05-17T13:51:33Z</time>
      </trkpt>
      <trkpt lat="49.97588" lon="2.44384">
        <ele>45.7</ele>
        <time>2023-05-17T13:51:34Z</time>
      </trkpt>
      <trkpt lat="49.97586" lon="2.44383">
        <ele>45.7</ele>
        <time>2023-05-17T13:51:35Z</time>
      </trkpt>
      <trkpt lat="49.97585" lon="2.44382">
        <ele>45.7</ele>
        <time>2023-05-17T13:51:36Z</time>
      </trkpt>
      <trkpt lat="49.97584" lon="2.44382">
        <ele>45.7</ele>
        <time>2023-05-17T13:51:37Z</time>
      </trkpt>
      <trkpt lat="49.97582" lon="2.4438">
        <ele>45.7</ele>
        <time>2023-05-17T13:51:39Z</time>
      </trkpt>
      <trkpt lat="49.97581" lon="2.4438">
        <ele>45.7</ele>
        <time>2023-05-17T13:51:40Z</time>
      </trkpt>
      <trkpt lat="49.9758" lon="2.44379">
        <ele>45.7</ele>
        <time>2023-05-17T13:51:41Z</time>
      </trkpt>
      <trkpt lat="49.97579" lon="2.44379">
        <ele>45.7</ele>
        <time>2023-05-17T13:51:42Z</time>
      </trkpt>
      <trkpt lat="49.97578" lon="2.44378">
        <ele>45.7</ele>
        <time>2023-05-17T13:51:43Z</time>
      </trkpt>
      <trkpt lat="49.97578" lon="2.44377">
        <ele>45.7</ele>
        <time>2023-05-17T13:51:44Z</time>
      </trkpt>
      <trkpt lat="49.97576" lon="2.44375">
        <ele>45.7</ele>
        <time>2023-05-17T13:51:46Z</time>
      </trkpt>
      <trkpt lat="49.97575" lon="2.44374">
        <ele>45.7</ele>
        <time>2023-05-17T13:51:47Z</time>
      </trkpt>
      <trkpt lat="49.97574" lon="2.44374">
        <ele>45.7</ele>
        <time>2023-05-17T13:51:48Z</time>
      </trkpt>
      <trkpt lat="49.97573" lon="2.44373">
        <ele>45.7</ele>
        <time>2023-05-17T13:51:49Z</time>
      </trkpt>
      <trkpt lat="49.97572" lon="2.44372">
        <ele>45.7</ele>
        <time>2023-05-17T13:51:50Z</time>
      </trkpt>
      <trkpt lat="49.97571" lon="2.44371">
        <ele>45.6</ele>
        <time>2023-05-17T13:51:51Z</time>
      </trkpt>
      <trkpt lat="49.9757" lon="2.44371">
        <ele>45.6</ele>
        <time>2023-05-17T13:51:53Z</time>
      </trkpt>
      <trkpt lat="49.97568" lon="2.4437">
        <ele>45.6</ele>
        <time>2023-05-17T13:51:54Z</time>
      </trkpt>
      <trkpt lat="49.97567" lon="2.4437">
        <ele>45.6</ele>
        <time>2023-05-17T13:51:55Z</time>
      </trkpt>
      <trkpt lat="49.97566" lon="2.44369">
        <ele>45.6</ele>
        <time>2023-05-17T13:51:56Z</time>
      </trkpt>
      <trkpt lat="49.97565" lon="2.44369">
        <ele>45.6</ele>
        <time>2023-05-17T13:51:57Z</time>
      </trkpt>
      <trkpt lat="49.97563" lon="2.44369">
        <ele>45.5</ele>
        <time>2023-05-17T13:51:59Z</time>
      </trkpt>
      <trkpt lat="49.97562" lon="2.44368">
        <ele>45.5</ele>
        <time>2023-05-17T13:52:00Z</time>
      </trkpt>
      <trkpt lat="49.97561" lon="2.44368">
        <ele>45.5</ele>
        <time>2023-05-17T13:52:01Z</time>
      </trkpt>
      <trkpt lat="49.9756" lon="2.44368">
        <ele>45.5</ele>
        <time>2023-05-17T13:52:02Z</time>
      </trkpt>
      <trkpt lat="49.97558" lon="2.44367">
        <ele>45.5</ele>
        <time>2023-05-17T13:52:03Z</time>
      </trkpt>
      <trkpt lat="49.97557" lon="2.44367">
        <ele>45.5</ele>
        <time>2023-05-17T13:52:04Z</time>
      </trkpt>
      <trkpt lat="49.97556" lon="2.44367">
        <ele>45.4</ele>
        <time>2023-05-17T13:52:05Z</time>
      </trkpt>
      <trkpt lat="49.97555" lon="2.44367">
        <ele>45.4</ele>
        <time>2023-05-17T13:52:06Z</time>
      </trkpt>
      <trkpt lat="49.97553" lon="2.44366">
        <ele>45.4</ele>
        <time>2023-05-17T13:52:07Z</time>
      </trkpt>
      <trkpt lat="49.97552" lon="2.44366">
        <ele>45.4</ele>
        <time>2023-05-17T13:52:09Z</time>
      </trkpt>
      <trkpt lat="49.97551" lon="2.44366">
        <ele>45.4</ele>
        <time>2023-05-17T13:52:10Z</time>
      </trkpt>
      <trkpt lat="49.9755" lon="2.44366">
        <ele>45.3</ele>
        <time>2023-05-17T13:52:11Z</time>
      </trkpt>
      <trkpt lat="49.97549" lon="2.44365">
        <ele>45.3</ele>
        <time>2023-05-17T13:52:12Z</time>
      </trkpt>
      <trkpt lat="49.97546" lon="2.44364">
        <ele>45.3</ele>
        <time>2023-05-17T13:52:13Z</time>
      </trkpt>
      <trkpt lat="49.97546" lon="2.44364">
        <ele>45.3</ele>
        <time>2023-05-17T13:52:14Z</time>
      </trkpt>
      <trkpt lat="49.97545" lon="2.44363">
        <ele>45.2</ele>
        <time>2023-05-17T13:52:15Z</time>
      </trkpt>
      <trkpt lat="49.97543" lon="2.44363">
        <ele>45.2</ele>
        <time>2023-05-17T13:52:16Z</time>
      </trkpt>
      <trkpt lat="49.97542" lon="2.44362">
        <ele>45.2</ele>
        <time>2023-05-17T13:52:17Z</time>
      </trkpt>
      <trkpt lat="49.97541" lon="2.44362">
        <ele>45.2</ele>
        <time>2023-05-17T13:52:19Z</time>
      </trkpt>
      <trkpt lat="49.97539" lon="2.44361">
        <ele>45.1</ele>
        <time>2023-05-17T13:52:20Z</time>
      </trkpt>
      <trkpt lat="49.97538" lon="2.44361">
        <ele>45.1</ele>
        <time>2023-05-17T13:52:21Z</time>
      </trkpt>
      <trkpt lat="49.97536" lon="2.4436">
        <ele>45.1</ele>
        <time>2023-05-17T13:52:22Z</time>
      </trkpt>
      <trkpt lat="49.97535" lon="2.4436">
        <ele>45.1</ele>
        <time>2023-05-17T13:52:23Z</time>
      </trkpt>
      <trkpt lat="49.97534" lon="2.44359">
        <ele>45</ele>
        <time>2023-05-17T13:52:24Z</time>
      </trkpt>
      <trkpt lat="49.97533" lon="2.44359">
        <ele>45</ele>
        <time>2023-05-17T13:52:25Z</time>
      </trkpt>
      <trkpt lat="49.97532" lon="2.44358">
        <ele>45</ele>
        <time>2023-05-17T13:52:26Z</time>
      </trkpt>
      <trkpt lat="49.97531" lon="2.44358">
        <ele>45</ele>
        <time>2023-05-17T13:52:27Z</time>
      </trkpt>
      <trkpt lat="49.9753" lon="2.44357">
        <ele>45</ele>
        <time>2023-05-17T13:52:29Z</time>
      </trkpt>
      <trkpt lat="49.97529" lon="2.44356">
        <ele>44.9</ele>
        <time>2023-05-17T13:52:30Z</time>
      </trkpt>
      <trkpt lat="49.97527" lon="2.44355">
        <ele>44.9</ele>
        <time>2023-05-17T13:52:31Z</time>
      </trkpt>
      <trkpt lat="49.97526" lon="2.44355">
        <ele>44.9</ele>
        <time>2023-05-17T13:52:32Z</time>
      </trkpt>
      <trkpt lat="49.97526" lon="2.44354">
        <ele>44.9</ele>
        <time>2023-05-17T13:52:33Z</time>
      </trkpt>
      <trkpt lat="49.97524" lon="2.44353">
        <ele>44.8</ele>
        <time>2023-05-17T13:52:35Z</time>
      </trkpt>
      <trkpt lat="49.97523" lon="2.44353">
        <ele>44.8</ele>
        <time>2023-05-17T13:52:36Z</time>
      </trkpt>
      <trkpt lat="49.97521" lon="2.44353">
        <ele>44.8</ele>
        <time>2023-05-17T13:52:37Z</time>
      </trkpt>
      <trkpt lat="49.9752" lon="2.44352">
        <ele>44.8</ele>
        <time>2023-05-17T13:52:38Z</time>
      </trkpt>
      <trkpt lat="49.97519" lon="2.44352">
        <ele>44.8</ele>
        <time>2023-05-17T13:52:40Z</time>
      </trkpt>
      <trkpt lat="49.97517" lon="2.44352">
        <ele>44.7</ele>
        <time>2023-05-17T13:52:41Z</time>
      </trkpt>
      <trkpt lat="49.97516" lon="2.44351">
        <ele>44.7</ele>
        <time>2023-05-17T13:52:42Z</time>
      </trkpt>
      <trkpt lat="49.97515" lon="2.44351">
        <ele>44.7</ele>
        <time>2023-05-17T13:52:43Z</time>
      </trkpt>
      <trkpt lat="49.97514" lon="2.44351">
        <ele>44.7</ele>
        <time>2023-05-17T13:52:44Z</time>
      </trkpt>
      <trkpt lat="49.97513" lon="2.4435">
        <ele>44.7</ele>
        <time>2023-05-17T13:52:45Z</time>
      </trkpt>
      <trkpt lat="49.97512" lon="2.4435">
        <ele>44.7</ele>
        <time>2023-05-17T13:52:47Z</time>
      </trkpt>
      <trkpt lat="49.9751" lon="2.44349">
        <ele>44.6</ele>
        <time>2023-05-17T13:52:48Z</time>
      </trkpt>
      <trkpt lat="49.97509" lon="2.44349">
        <ele>44.6</ele>
        <time>2023-05-17T13:52:49Z</time>
      </trkpt>
      <trkpt lat="49.97508" lon="2.44348">
        <ele>44.6</ele>
        <time>2023-05-17T13:52:50Z</time>
      </trkpt>
      <trkpt lat="49.97506" lon="2.44348">
        <ele>44.6</ele>
        <time>2023-05-17T13:52:51Z</time>
      </trkpt>
      <trkpt lat="49.97505" lon="2.44348">
        <ele>44.6</ele>
        <time>2023-05-17T13:52:52Z</time>
      </trkpt>
      <trkpt lat="49.97504" lon="2.44348">
        <ele>44.6</ele>
        <time>2023-05-17T13:52:53Z</time>
      </trkpt>
      <trkpt lat="49.97502" lon="2.44347">
        <ele>44.5</ele>
        <time>2023-05-17T13:52:55Z</time>
      </trkpt>
      <trkpt lat="49.97501" lon="2.44347">
        <ele>44.5</ele>
        <time>2023-05-17T13:52:56Z</time>
      </trkpt>
      <trkpt lat="49.975" lon="2.44347">
        <ele>44.5</ele>
        <time>2023-05-17T13:52:57Z</time>
      </trkpt>
      <trkpt lat="49.97498" lon="2.44346">
        <ele>44.5</ele>
        <time>2023-05-17T13:52:58Z</time>
      </trkpt>
      <trkpt lat="49.97497" lon="2.44346">
        <ele>44.5</ele>
        <time>2023-05-17T13:52:59Z</time>
      </trkpt>
      <trkpt lat="49.97496" lon="2.44346">
        <ele>44.5</ele>
        <time>2023-05-17T13:53:00Z</time>
      </trkpt>
      <trkpt lat="49.97494" lon="2.44345">
        <ele>44.5</ele>
        <time>2023-05-17T13:53:01Z</time>
      </trkpt>
      <trkpt lat="49.97493" lon="2.44345">
        <ele>44.5</ele>
        <time>2023-05-17T13:53:03Z</time>
      </trkpt>
      <trkpt lat="49.97492" lon="2.44345">
        <ele>44.5</ele>
        <time>2023-05-17T13:53:04Z</time>
      </trkpt>
      <trkpt lat="49.97491" lon="2.44345">
        <ele>44.5</ele>
        <time>2023-05-17T13:53:05Z</time>
      </trkpt>
      <trkpt lat="49.9749" lon="2.44344">
        <ele>44.5</ele>
        <time>2023-05-17T13:53:06Z</time>
      </trkpt>
      <trkpt lat="49.97489" lon="2.44344">
        <ele>44.5</ele>
        <time>2023-05-17T13:53:07Z</time>
      </trkpt>
      <trkpt lat="49.97488" lon="2.44343">
        <ele>44.5</ele>
        <time>2023-05-17T13:53:08Z</time>
      </trkpt>
      <trkpt lat="49.97487" lon="2.44343">
        <ele>44.5</ele>
        <time>2023-05-17T13:53:10Z</time>
      </trkpt>
      <trkpt lat="49.97486" lon="2.44342">
        <ele>44.5</ele>
        <time>2023-05-17T13:53:11Z</time>
      </trkpt>
      <trkpt lat="49.97485" lon="2.44342">
        <ele>44.5</ele>
        <time>2023-05-17T13:53:12Z</time>
      </trkpt>
      <trkpt lat="49.97484" lon="2.44341">
        <ele>44.5</ele>
        <time>2023-05-17T13:53:13Z</time>
      </trkpt>
      <trkpt lat="49.97483" lon="2.44341">
        <ele>44.5</ele>
        <time>2023-05-17T13:53:14Z</time>
      </trkpt>
      <trkpt lat="49.97481" lon="2.4434">
        <ele>44.5</ele>
        <time>2023-05-17T13:53:16Z</time>
      </trkpt>
      <trkpt lat="49.9748" lon="2.4434">
        <ele>44.5</ele>
        <time>2023-05-17T13:53:17Z</time>
      </trkpt>
      <trkpt lat="49.97479" lon="2.4434">
        <ele>44.5</ele>
        <time>2023-05-17T13:53:18Z</time>
      </trkpt>
      <trkpt lat="49.97478" lon="2.44339">
        <ele>44.5</ele>
        <time>2023-05-17T13:53:19Z</time>
      </trkpt>
      <trkpt lat="49.97477" lon="2.44339">
        <ele>44.5</ele>
        <time>2023-05-17T13:53:20Z</time>
      </trkpt>
      <trkpt lat="49.97475" lon="2.44338">
        <ele>44.5</ele>
        <time>2023-05-17T13:53:22Z</time>
      </trkpt>
      <trkpt lat="49.97474" lon="2.44337">
        <ele>44.5</ele>
        <time>2023-05-17T13:53:23Z</time>
      </trkpt>
      <trkpt lat="49.97474" lon="2.44337">
        <ele>44.5</ele>
        <time>2023-05-17T13:53:24Z</time>
      </trkpt>
      <trkpt lat="49.97473" lon="2.44336">
        <ele>44.5</ele>
        <time>2023-05-17T13:53:25Z</time>
      </trkpt>
      <trkpt lat="49.97472" lon="2.44336">
        <ele>44.5</ele>
        <time>2023-05-17T13:53:26Z</time>
      </trkpt>
      <trkpt lat="49.97471" lon="2.44336">
        <ele>44.5</ele>
        <time>2023-05-17T13:53:27Z</time>
      </trkpt>
      <trkpt lat="49.9747" lon="2.44335">
        <ele>44.5</ele>
        <time>2023-05-17T13:53:29Z</time>
      </trkpt>
      <trkpt lat="49.97469" lon="2.44335">
        <ele>44.5</ele>
        <time>2023-05-17T13:53:30Z</time>
      </trkpt>
      <trkpt lat="49.97468" lon="2.44335">
        <ele>44.5</ele>
        <time>2023-05-17T13:53:31Z</time>
      </trkpt>
      <trkpt lat="49.97468" lon="2.44335">
        <ele>44.5</ele>
        <time>2023-05-17T13:53:32Z</time>
      </trkpt>
      <trkpt lat="49.97467" lon="2.44335">
        <ele>44.5</ele>
        <time>2023-05-17T13:53:33Z</time>
      </trkpt>
      <trkpt lat="49.97467" lon="2.44334">
        <ele>44.5</ele>
        <time>2023-05-17T13:53:34Z</time>
      </trkpt>
      <trkpt lat="49.97466" lon="2.44333">
        <ele>44.5</ele>
        <time>2023-05-17T13:53:36Z</time>
      </trkpt>
      <trkpt lat="49.97465" lon="2.44333">
        <ele>44.5</ele>
        <time>2023-05-17T13:53:37Z</time>
      </trkpt>
      <trkpt lat="49.97464" lon="2.44332">
        <ele>44.5</ele>
        <time>2023-05-17T13:53:38Z</time>
      </trkpt>
      <trkpt lat="49.97464" lon="2.44332">
        <ele>44.5</ele>
        <time>2023-05-17T13:53:39Z</time>
      </trkpt>
      <trkpt lat="49.97463" lon="2.44331">
        <ele>44.5</ele>
        <time>2023-05-17T13:53:41Z</time>
      </trkpt>
      <trkpt lat="49.97462" lon="2.44331">
        <ele>44.5</ele>
        <time>2023-05-17T13:53:42Z</time>
      </trkpt>
      <trkpt lat="49.97462" lon="2.4433">
        <ele>44.6</ele>
        <time>2023-05-17T13:53:43Z</time>
      </trkpt>
      <trkpt lat="49.97461" lon="2.4433">
        <ele>44.6</ele>
        <time>2023-05-17T13:53:44Z</time>
      </trkpt>
      <trkpt lat="49.97461" lon="2.44329">
        <ele>44.6</ele>
        <time>2023-05-17T13:53:45Z</time>
      </trkpt>
      <trkpt lat="49.9746" lon="2.44329">
        <ele>44.6</ele>
        <time>2023-05-17T13:53:46Z</time>
      </trkpt>
      <trkpt lat="49.97459" lon="2.44329">
        <ele>44.6</ele>
        <time>2023-05-17T13:53:48Z</time>
      </trkpt>
      <trkpt lat="49.97459" lon="2.44329">
        <ele>44.7</ele>
        <time>2023-05-17T13:53:49Z</time>
      </trkpt>
      <trkpt lat="49.97459" lon="2.4433">
        <ele>44.6</ele>
        <time>2023-05-17T13:53:51Z</time>
      </trkpt>
      <trkpt lat="49.9746" lon="2.44331">
        <ele>44.6</ele>
        <time>2023-05-17T13:53:52Z</time>
      </trkpt>
      <trkpt lat="49.9746" lon="2.44331">
        <ele>44.7</ele>
        <time>2023-05-17T13:53:54Z</time>
      </trkpt>
      <trkpt lat="49.97461" lon="2.44332">
        <ele>44.7</ele>
        <time>2023-05-17T13:53:55Z</time>
      </trkpt>
      <trkpt lat="49.97461" lon="2.44332">
        <ele>44.7</ele>
        <time>2023-05-17T13:53:56Z</time>
      </trkpt>
      <trkpt lat="49.97463" lon="2.44333">
        <ele>44.7</ele>
        <time>2023-05-17T13:53:58Z</time>
      </trkpt>
      <trkpt lat="49.97463" lon="2.44332">
        <ele>44.7</ele>
        <time>2023-05-17T13:53:59Z</time>
      </trkpt>
      <trkpt lat="49.97464" lon="2.44331">
        <ele>44.7</ele>
        <time>2023-05-17T13:54:01Z</time>
      </trkpt>
      <trkpt lat="49.97465" lon="2.44331">
        <ele>44.8</ele>
        <time>2023-05-17T13:54:02Z</time>
      </trkpt>
      <trkpt lat="49.97465" lon="2.4433">
        <ele>44.8</ele>
        <time>2023-05-17T13:54:31Z</time>
      </trkpt>
      <trkpt lat="49.97466" lon="2.44329">
        <ele>44.8</ele>
        <time>2023-05-17T13:54:32Z</time>
      </trkpt>
      <trkpt lat="49.97467" lon="2.44329">
        <ele>44.9</ele>
        <time>2023-05-17T13:54:33Z</time>
      </trkpt>
      <trkpt lat="49.97467" lon="2.44328">
        <ele>44.9</ele>
        <time>2023-05-17T13:54:34Z</time>
      </trkpt>
      <trkpt lat="49.97468" lon="2.44328">
        <ele>44.9</ele>
        <time>2023-05-17T13:54:36Z</time>
      </trkpt>
      <trkpt lat="49.97469" lon="2.44327">
        <ele>44.9</ele>
        <time>2023-05-17T13:54:37Z</time>
      </trkpt>
      <trkpt lat="49.9747" lon="2.44326">
        <ele>44.9</ele>
        <time>2023-05-17T13:54:38Z</time>
      </trkpt>
      <trkpt lat="49.9747" lon="2.44326">
        <ele>45</ele>
        <time>2023-05-17T13:54:39Z</time>
      </trkpt>
      <trkpt lat="49.97471" lon="2.44323">
        <ele>45</ele>
        <time>2023-05-17T13:54:40Z</time>
      </trkpt>
      <trkpt lat="49.97471" lon="2.44321">
        <ele>45.1</ele>
        <time>2023-05-17T13:54:41Z</time>
      </trkpt>
      <trkpt lat="49.97471" lon="2.44319">
        <ele>45.1</ele>
        <time>2023-05-17T13:54:42Z</time>
      </trkpt>
      <trkpt lat="49.97471" lon="2.44316">
        <ele>45.1</ele>
        <time>2023-05-17T13:54:43Z</time>
      </trkpt>
      <trkpt lat="49.97471" lon="2.44314">
        <ele>45.2</ele>
        <time>2023-05-17T13:54:45Z</time>
      </trkpt>
      <trkpt lat="49.97472" lon="2.44312">
        <ele>45.2</ele>
        <time>2023-05-17T13:54:46Z</time>
      </trkpt>
      <trkpt lat="49.97472" lon="2.44309">
        <ele>45.2</ele>
        <time>2023-05-17T13:54:47Z</time>
      </trkpt>
      <trkpt lat="49.97472" lon="2.44307">
        <ele>45.3</ele>
        <time>2023-05-17T13:54:48Z</time>
      </trkpt>
      <trkpt lat="49.97472" lon="2.44305">
        <ele>45.3</ele>
        <time>2023-05-17T13:54:49Z</time>
      </trkpt>
      <trkpt lat="49.97471" lon="2.44302">
        <ele>45.4</ele>
        <time>2023-05-17T13:54:50Z</time>
      </trkpt>
      <trkpt lat="49.97471" lon="2.443">
        <ele>45.4</ele>
        <time>2023-05-17T13:54:52Z</time>
      </trkpt>
      <trkpt lat="49.97471" lon="2.44298">
        <ele>45.4</ele>
        <time>2023-05-17T13:54:53Z</time>
      </trkpt>
      <trkpt lat="49.97471" lon="2.44296">
        <ele>45.4</ele>
        <time>2023-05-17T13:54:54Z</time>
      </trkpt>
      <trkpt lat="49.97471" lon="2.44293">
        <ele>45.5</ele>
        <time>2023-05-17T13:54:55Z</time>
      </trkpt>
      <trkpt lat="49.9747" lon="2.44291">
        <ele>45.6</ele>
        <time>2023-05-17T13:54:56Z</time>
      </trkpt>
      <trkpt lat="49.9747" lon="2.44289">
        <ele>45.6</ele>
        <time>2023-05-17T13:54:57Z</time>
      </trkpt>
      <trkpt lat="49.97469" lon="2.44285">
        <ele>45.6</ele>
        <time>2023-05-17T13:54:59Z</time>
      </trkpt>
      <trkpt lat="49.97469" lon="2.44283">
        <ele>45.7</ele>
        <time>2023-05-17T13:55:00Z</time>
      </trkpt>
      <trkpt lat="49.97469" lon="2.44281">
        <ele>45.7</ele>
        <time>2023-05-17T13:55:01Z</time>
      </trkpt>
      <trkpt lat="49.97469" lon="2.44279">
        <ele>45.7</ele>
        <time>2023-05-17T13:55:02Z</time>
      </trkpt>
      <trkpt lat="49.97469" lon="2.44276">
        <ele>45.8</ele>
        <time>2023-05-17T13:55:04Z</time>
      </trkpt>
      <trkpt lat="49.97469" lon="2.44273">
        <ele>45.9</ele>
        <time>2023-05-17T13:55:06Z</time>
      </trkpt>
      <trkpt lat="49.97469" lon="2.44271">
        <ele>45.9</ele>
        <time>2023-05-17T13:55:07Z</time>
      </trkpt>
      <trkpt lat="49.97469" lon="2.44269">
        <ele>46</ele>
        <time>2023-05-17T13:55:08Z</time>
      </trkpt>
      <trkpt lat="49.97469" lon="2.44266">
        <ele>46</ele>
        <time>2023-05-17T13:55:09Z</time>
      </trkpt>
      <trkpt lat="49.97469" lon="2.44264">
        <ele>46.1</ele>
        <time>2023-05-17T13:55:10Z</time>
      </trkpt>
      <trkpt lat="49.97469" lon="2.44263">
        <ele>46.1</ele>
        <time>2023-05-17T13:55:11Z</time>
      </trkpt>
      <trkpt lat="49.9747" lon="2.44261">
        <ele>46.2</ele>
        <time>2023-05-17T13:55:13Z</time>
      </trkpt>
      <trkpt lat="49.9747" lon="2.44258">
        <ele>46.2</ele>
        <time>2023-05-17T13:55:14Z</time>
      </trkpt>
      <trkpt lat="49.9747" lon="2.44255">
        <ele>46.3</ele>
        <time>2023-05-17T13:55:15Z</time>
      </trkpt>
      <trkpt lat="49.9747" lon="2.44253">
        <ele>46.3</ele>
        <time>2023-05-17T13:55:17Z</time>
      </trkpt>
      <trkpt lat="49.9747" lon="2.44252">
        <ele>46.4</ele>
        <time>2023-05-17T13:55:18Z</time>
      </trkpt>
      <trkpt lat="49.9747" lon="2.44249">
        <ele>46.4</ele>
        <time>2023-05-17T13:55:19Z</time>
      </trkpt>
      <trkpt lat="49.9747" lon="2.44247">
        <ele>46.5</ele>
        <time>2023-05-17T13:55:20Z</time>
      </trkpt>
      <trkpt lat="49.9747" lon="2.44246">
        <ele>46.5</ele>
        <time>2023-05-17T13:55:21Z</time>
      </trkpt>
      <trkpt lat="49.9747" lon="2.44243">
        <ele>46.6</ele>
        <time>2023-05-17T13:55:22Z</time>
      </trkpt>
      <trkpt lat="49.9747" lon="2.44241">
        <ele>46.6</ele>
        <time>2023-05-17T13:55:23Z</time>
      </trkpt>
      <trkpt lat="49.9747" lon="2.4424">
        <ele>46.6</ele>
        <time>2023-05-17T13:55:24Z</time>
      </trkpt>
      <trkpt lat="49.9747" lon="2.44237">
        <ele>46.7</ele>
        <time>2023-05-17T13:55:26Z</time>
      </trkpt>
      <trkpt lat="49.9747" lon="2.44235">
        <ele>46.8</ele>
        <time>2023-05-17T13:55:27Z</time>
      </trkpt>
      <trkpt lat="49.9747" lon="2.44232">
        <ele>46.9</ele>
        <time>2023-05-17T13:55:28Z</time>
      </trkpt>
      <trkpt lat="49.9747" lon="2.44231">
        <ele>47</ele>
        <time>2023-05-17T13:55:30Z</time>
      </trkpt>
      <trkpt lat="49.9747" lon="2.44229">
        <ele>47</ele>
        <time>2023-05-17T13:55:31Z</time>
      </trkpt>
      <trkpt lat="49.97469" lon="2.44226">
        <ele>47.1</ele>
        <time>2023-05-17T13:55:32Z</time>
      </trkpt>
      <trkpt lat="49.97469" lon="2.44225">
        <ele>47.1</ele>
        <time>2023-05-17T13:55:33Z</time>
      </trkpt>
      <trkpt lat="49.97469" lon="2.44223">
        <ele>47.2</ele>
        <time>2023-05-17T13:55:34Z</time>
      </trkpt>
      <trkpt lat="49.97469" lon="2.44222">
        <ele>47.3</ele>
        <time>2023-05-17T13:55:35Z</time>
      </trkpt>
      <trkpt lat="49.97469" lon="2.4422">
        <ele>47.3</ele>
        <time>2023-05-17T13:55:36Z</time>
      </trkpt>
      <trkpt lat="49.97469" lon="2.44218">
        <ele>47.4</ele>
        <time>2023-05-17T13:55:37Z</time>
      </trkpt>
      <trkpt lat="49.97469" lon="2.44215">
        <ele>47.4</ele>
        <time>2023-05-17T13:55:39Z</time>
      </trkpt>
      <trkpt lat="49.97469" lon="2.44214">
        <ele>47.4</ele>
        <time>2023-05-17T13:55:40Z</time>
      </trkpt>
      <trkpt lat="49.97468" lon="2.44212">
        <ele>47.4</ele>
        <time>2023-05-17T13:55:41Z</time>
      </trkpt>
      <trkpt lat="49.97468" lon="2.4421">
        <ele>47.4</ele>
        <time>2023-05-17T13:55:42Z</time>
      </trkpt>
      <trkpt lat="49.97468" lon="2.44208">
        <ele>47.5</ele>
        <time>2023-05-17T13:55:44Z</time>
      </trkpt>
      <trkpt lat="49.97468" lon="2.44207">
        <ele>47.5</ele>
        <time>2023-05-17T13:55:45Z</time>
      </trkpt>
      <trkpt lat="49.97467" lon="2.44205">
        <ele>47.5</ele>
        <time>2023-05-17T13:55:46Z</time>
      </trkpt>
      <trkpt lat="49.97467" lon="2.44204">
        <ele>47.5</ele>
        <time>2023-05-17T13:55:47Z</time>
      </trkpt>
      <trkpt lat="49.97465" lon="2.44203">
        <ele>47.5</ele>
        <time>2023-05-17T13:55:48Z</time>
      </trkpt>
      <trkpt lat="49.97464" lon="2.44203">
        <ele>47.5</ele>
        <time>2023-05-17T13:55:50Z</time>
      </trkpt>
      <trkpt lat="49.97463" lon="2.44203">
        <ele>47.5</ele>
        <time>2023-05-17T13:55:51Z</time>
      </trkpt>
      <trkpt lat="49.97462" lon="2.44202">
        <ele>47.5</ele>
        <time>2023-05-17T13:55:52Z</time>
      </trkpt>
      <trkpt lat="49.9746" lon="2.44203">
        <ele>47.5</ele>
        <time>2023-05-17T13:55:53Z</time>
      </trkpt>
      <trkpt lat="49.97458" lon="2.44203">
        <ele>47.5</ele>
        <time>2023-05-17T13:55:55Z</time>
      </trkpt>
      <trkpt lat="49.97457" lon="2.44203">
        <ele>47.5</ele>
        <time>2023-05-17T13:55:56Z</time>
      </trkpt>
      <trkpt lat="49.97455" lon="2.44203">
        <ele>47.5</ele>
        <time>2023-05-17T13:55:57Z</time>
      </trkpt>
      <trkpt lat="49.97453" lon="2.44203">
        <ele>47.5</ele>
        <time>2023-05-17T13:55:58Z</time>
      </trkpt>
      <trkpt lat="49.97451" lon="2.44202">
        <ele>47.6</ele>
        <time>2023-05-17T13:56:00Z</time>
      </trkpt>
      <trkpt lat="49.9745" lon="2.44202">
        <ele>47.6</ele>
        <time>2023-05-17T13:56:01Z</time>
      </trkpt>
      <trkpt lat="49.97448" lon="2.44202">
        <ele>47.6</ele>
        <time>2023-05-17T13:56:02Z</time>
      </trkpt>
      <trkpt lat="49.97447" lon="2.44201">
        <ele>47.6</ele>
        <time>2023-05-17T13:56:03Z</time>
      </trkpt>
      <trkpt lat="49.97445" lon="2.442">
        <ele>47.6</ele>
        <time>2023-05-17T13:56:04Z</time>
      </trkpt>
      <trkpt lat="49.97443" lon="2.44199">
        <ele>47.6</ele>
        <time>2023-05-17T13:56:06Z</time>
      </trkpt>
      <trkpt lat="49.97441" lon="2.44199">
        <ele>47.7</ele>
        <time>2023-05-17T13:56:07Z</time>
      </trkpt>
      <trkpt lat="49.9744" lon="2.44198">
        <ele>47.7</ele>
        <time>2023-05-17T13:56:09Z</time>
      </trkpt>
      <trkpt lat="49.97438" lon="2.44198">
        <ele>47.7</ele>
        <time>2023-05-17T13:56:10Z</time>
      </trkpt>
      <trkpt lat="49.97436" lon="2.44198">
        <ele>47.7</ele>
        <time>2023-05-17T13:56:11Z</time>
      </trkpt>
      <trkpt lat="49.97435" lon="2.44198">
        <ele>47.7</ele>
        <time>2023-05-17T13:56:12Z</time>
      </trkpt>
      <trkpt lat="49.97433" lon="2.44198">
        <ele>47.7</ele>
        <time>2023-05-17T13:56:13Z</time>
      </trkpt>
      <trkpt lat="49.97432" lon="2.44198">
        <ele>47.8</ele>
        <time>2023-05-17T13:56:14Z</time>
      </trkpt>
      <trkpt lat="49.97429" lon="2.44198">
        <ele>47.8</ele>
        <time>2023-05-17T13:56:16Z</time>
      </trkpt>
      <trkpt lat="49.97428" lon="2.44198">
        <ele>47.8</ele>
        <time>2023-05-17T13:56:17Z</time>
      </trkpt>
      <trkpt lat="49.97426" lon="2.44198">
        <ele>47.8</ele>
        <time>2023-05-17T13:56:18Z</time>
      </trkpt>
      <trkpt lat="49.97425" lon="2.44198">
        <ele>47.9</ele>
        <time>2023-05-17T13:56:20Z</time>
      </trkpt>
      <trkpt lat="49.97423" lon="2.44198">
        <ele>47.9</ele>
        <time>2023-05-17T13:56:21Z</time>
      </trkpt>
      <trkpt lat="49.97422" lon="2.44198">
        <ele>47.9</ele>
        <time>2023-05-17T13:56:22Z</time>
      </trkpt>
      <trkpt lat="49.97421" lon="2.44198">
        <ele>47.9</ele>
        <time>2023-05-17T13:56:23Z</time>
      </trkpt>
      <trkpt lat="49.97418" lon="2.44198">
        <ele>48</ele>
        <time>2023-05-17T13:56:24Z</time>
      </trkpt>
      <trkpt lat="49.97417" lon="2.44198">
        <ele>48</ele>
        <time>2023-05-17T13:56:25Z</time>
      </trkpt>
      <trkpt lat="49.97417" lon="2.44198">
        <ele>48</ele>
        <time>2023-05-17T13:56:26Z</time>
      </trkpt>
      <trkpt lat="49.97414" lon="2.44198">
        <ele>48</ele>
        <time>2023-05-17T13:56:27Z</time>
      </trkpt>
      <trkpt lat="49.97413" lon="2.44198">
        <ele>48</ele>
        <time>2023-05-17T13:56:29Z</time>
      </trkpt>
      <trkpt lat="49.97413" lon="2.44198">
        <ele>48</ele>
        <time>2023-05-17T13:56:30Z</time>
      </trkpt>
      <trkpt lat="49.97411" lon="2.44198">
        <ele>48.1</ele>
        <time>2023-05-17T13:56:31Z</time>
      </trkpt>
      <trkpt lat="49.9741" lon="2.44198">
        <ele>48.1</ele>
        <time>2023-05-17T13:56:32Z</time>
      </trkpt>
      <trkpt lat="49.97409" lon="2.44199">
        <ele>48.1</ele>
        <time>2023-05-17T13:56:33Z</time>
      </trkpt>
      <trkpt lat="49.97407" lon="2.44199">
        <ele>48.1</ele>
        <time>2023-05-17T13:56:35Z</time>
      </trkpt>
      <trkpt lat="49.97405" lon="2.44199">
        <ele>48.1</ele>
        <time>2023-05-17T13:56:36Z</time>
      </trkpt>
      <trkpt lat="49.97405" lon="2.442">
        <ele>48.2</ele>
        <time>2023-05-17T13:56:37Z</time>
      </trkpt>
      <trkpt lat="49.97404" lon="2.44201">
        <ele>48.2</ele>
        <time>2023-05-17T13:56:39Z</time>
      </trkpt>
      <trkpt lat="49.97402" lon="2.44201">
        <ele>48.2</ele>
        <time>2023-05-17T13:56:40Z</time>
      </trkpt>
      <trkpt lat="49.97402" lon="2.44202">
        <ele>48.2</ele>
        <time>2023-05-17T13:56:41Z</time>
      </trkpt>
      <trkpt lat="49.97401" lon="2.44202">
        <ele>48.2</ele>
        <time>2023-05-17T13:56:42Z</time>
      </trkpt>
      <trkpt lat="49.97399" lon="2.44203">
        <ele>48.2</ele>
        <time>2023-05-17T13:56:43Z</time>
      </trkpt>
      <trkpt lat="49.97399" lon="2.44204">
        <ele>48.2</ele>
        <time>2023-05-17T13:56:44Z</time>
      </trkpt>
      <trkpt lat="49.97398" lon="2.44204">
        <ele>48.3</ele>
        <time>2023-05-17T13:56:45Z</time>
      </trkpt>
      <trkpt lat="49.97396" lon="2.44204">
        <ele>48.3</ele>
        <time>2023-05-17T13:56:47Z</time>
      </trkpt>
      <trkpt lat="49.97395" lon="2.44205">
        <ele>48.3</ele>
        <time>2023-05-17T13:56:48Z</time>
      </trkpt>
      <trkpt lat="49.97394" lon="2.44205">
        <ele>48.3</ele>
        <time>2023-05-17T13:56:50Z</time>
      </trkpt>
      <trkpt lat="49.97393" lon="2.44206">
        <ele>48.3</ele>
        <time>2023-05-17T13:56:51Z</time>
      </trkpt>
      <trkpt lat="49.97392" lon="2.44206">
        <ele>48.3</ele>
        <time>2023-05-17T13:56:52Z</time>
      </trkpt>
      <trkpt lat="49.97391" lon="2.44206">
        <ele>48.3</ele>
        <time>2023-05-17T13:56:53Z</time>
      </trkpt>
      <trkpt lat="49.97389" lon="2.44207">
        <ele>48.4</ele>
        <time>2023-05-17T13:56:54Z</time>
      </trkpt>
      <trkpt lat="49.97389" lon="2.44207">
        <ele>48.4</ele>
        <time>2023-05-17T13:56:55Z</time>
      </trkpt>
      <trkpt lat="49.97388" lon="2.44207">
        <ele>48.4</ele>
        <time>2023-05-17T13:56:56Z</time>
      </trkpt>
      <trkpt lat="49.97386" lon="2.44207">
        <ele>48.4</ele>
        <time>2023-05-17T13:56:58Z</time>
      </trkpt>
      <trkpt lat="49.97385" lon="2.44208">
        <ele>48.4</ele>
        <time>2023-05-17T13:56:59Z</time>
      </trkpt>
      <trkpt lat="49.97384" lon="2.44208">
        <ele>48.4</ele>
        <time>2023-05-17T13:57:00Z</time>
      </trkpt>
      <trkpt lat="49.97383" lon="2.44208">
        <ele>48.5</ele>
        <time>2023-05-17T13:57:01Z</time>
      </trkpt>
      <trkpt lat="49.97382" lon="2.44208">
        <ele>48.5</ele>
        <time>2023-05-17T13:57:02Z</time>
      </trkpt>
      <trkpt lat="49.97381" lon="2.44208">
        <ele>48.5</ele>
        <time>2023-05-17T13:57:03Z</time>
      </trkpt>
      <trkpt lat="49.9738" lon="2.44208">
        <ele>48.5</ele>
        <time>2023-05-17T13:57:04Z</time>
      </trkpt>
      <trkpt lat="49.97379" lon="2.44208">
        <ele>48.5</ele>
        <time>2023-05-17T13:57:06Z</time>
      </trkpt>
      <trkpt lat="49.97378" lon="2.44208">
        <ele>48.5</ele>
        <time>2023-05-17T13:57:07Z</time>
      </trkpt>
      <trkpt lat="49.97376" lon="2.44208">
        <ele>48.6</ele>
        <time>2023-05-17T13:57:08Z</time>
      </trkpt>
      <trkpt lat="49.97375" lon="2.44208">
        <ele>48.6</ele>
        <time>2023-05-17T13:57:09Z</time>
      </trkpt>
      <trkpt lat="49.97374" lon="2.44208">
        <ele>48.6</ele>
        <time>2023-05-17T13:57:10Z</time>
      </trkpt>
      <trkpt lat="49.97373" lon="2.44208">
        <ele>48.6</ele>
        <time>2023-05-17T13:57:11Z</time>
      </trkpt>
      <trkpt lat="49.97372" lon="2.44209">
        <ele>48.6</ele>
        <time>2023-05-17T13:57:12Z</time>
      </trkpt>
      <trkpt lat="49.97371" lon="2.44209">
        <ele>48.7</ele>
        <time>2023-05-17T13:57:13Z</time>
      </trkpt>
      <trkpt lat="49.9737" lon="2.4421">
        <ele>48.7</ele>
        <time>2023-05-17T13:57:15Z</time>
      </trkpt>
      <trkpt lat="49.97368" lon="2.44211">
        <ele>48.7</ele>
        <time>2023-05-17T13:57:16Z</time>
      </trkpt>
      <trkpt lat="49.97367" lon="2.44211">
        <ele>48.8</ele>
        <time>2023-05-17T13:57:17Z</time>
      </trkpt>
      <trkpt lat="49.97366" lon="2.44211">
        <ele>48.8</ele>
        <time>2023-05-17T13:57:18Z</time>
      </trkpt>
      <trkpt lat="49.97365" lon="2.44212">
        <ele>48.8</ele>
        <time>2023-05-17T13:57:19Z</time>
      </trkpt>
      <trkpt lat="49.97363" lon="2.44212">
        <ele>48.9</ele>
        <time>2023-05-17T13:57:20Z</time>
      </trkpt>
      <trkpt lat="49.97362" lon="2.44213">
        <ele>48.9</ele>
        <time>2023-05-17T13:57:21Z</time>
      </trkpt>
      <trkpt lat="49.97361" lon="2.44213">
        <ele>48.9</ele>
        <time>2023-05-17T13:57:22Z</time>
      </trkpt>
      <trkpt lat="49.9736" lon="2.44214">
        <ele>48.9</ele>
        <time>2023-05-17T13:57:24Z</time>
      </trkpt>
      <trkpt lat="49.97359" lon="2.44214">
        <ele>49</ele>
        <time>2023-05-17T13:57:25Z</time>
      </trkpt>
      <trkpt lat="49.97356" lon="2.44215">
        <ele>49</ele>
        <time>2023-05-17T13:57:26Z</time>
      </trkpt>
      <trkpt lat="49.97356" lon="2.44215">
        <ele>49.1</ele>
        <time>2023-05-17T13:57:27Z</time>
      </trkpt>
      <trkpt lat="49.97355" lon="2.44216">
        <ele>49.1</ele>
        <time>2023-05-17T13:57:28Z</time>
      </trkpt>
      <trkpt lat="49.97353" lon="2.44216">
        <ele>49.1</ele>
        <time>2023-05-17T13:57:29Z</time>
      </trkpt>
      <trkpt lat="49.97352" lon="2.44217">
        <ele>49.2</ele>
        <time>2023-05-17T13:57:31Z</time>
      </trkpt>
      <trkpt lat="49.97351" lon="2.44217">
        <ele>49.2</ele>
        <time>2023-05-17T13:57:32Z</time>
      </trkpt>
      <trkpt lat="49.97349" lon="2.44218">
        <ele>49.3</ele>
        <time>2023-05-17T13:57:33Z</time>
      </trkpt>
      <trkpt lat="49.97348" lon="2.44218">
        <ele>49.3</ele>
        <time>2023-05-17T13:57:34Z</time>
      </trkpt>
      <trkpt lat="49.97347" lon="2.44218">
        <ele>49.3</ele>
        <time>2023-05-17T13:57:35Z</time>
      </trkpt>
      <trkpt lat="49.97346" lon="2.44218">
        <ele>49.3</ele>
        <time>2023-05-17T13:57:37Z</time>
      </trkpt>
      <trkpt lat="49.97345" lon="2.44219">
        <ele>49.4</ele>
        <time>2023-05-17T13:57:38Z</time>
      </trkpt>
      <trkpt lat="49.97344" lon="2.44219">
        <ele>49.4</ele>
        <time>2023-05-17T13:57:39Z</time>
      </trkpt>
      <trkpt lat="49.97342" lon="2.44219">
        <ele>49.5</ele>
        <time>2023-05-17T13:57:40Z</time>
      </trkpt>
      <trkpt lat="49.97341" lon="2.4422">
        <ele>49.5</ele>
        <time>2023-05-17T13:57:41Z</time>
      </trkpt>
      <trkpt lat="49.9734" lon="2.44221">
        <ele>49.5</ele>
        <time>2023-05-17T13:57:43Z</time>
      </trkpt>
      <trkpt lat="49.97339" lon="2.44222">
        <ele>49.6</ele>
        <time>2023-05-17T13:57:44Z</time>
      </trkpt>
      <trkpt lat="49.97337" lon="2.44223">
        <ele>49.6</ele>
        <time>2023-05-17T13:57:45Z</time>
      </trkpt>
      <trkpt lat="49.97336" lon="2.44223">
        <ele>49.7</ele>
        <time>2023-05-17T13:57:46Z</time>
      </trkpt>
      <trkpt lat="49.97335" lon="2.44224">
        <ele>49.7</ele>
        <time>2023-05-17T13:57:47Z</time>
      </trkpt>
      <trkpt lat="49.97334" lon="2.44224">
        <ele>49.7</ele>
        <time>2023-05-17T13:57:48Z</time>
      </trkpt>
      <trkpt lat="49.97333" lon="2.44224">
        <ele>49.7</ele>
        <time>2023-05-17T13:57:49Z</time>
      </trkpt>
      <trkpt lat="49.97331" lon="2.44225">
        <ele>49.8</ele>
        <time>2023-05-17T13:57:50Z</time>
      </trkpt>
      <trkpt lat="49.97329" lon="2.44225">
        <ele>49.8</ele>
        <time>2023-05-17T13:57:51Z</time>
      </trkpt>
      <trkpt lat="49.97328" lon="2.44226">
        <ele>49.8</ele>
        <time>2023-05-17T13:57:53Z</time>
      </trkpt>
      <trkpt lat="49.97327" lon="2.44226">
        <ele>49.9</ele>
        <time>2023-05-17T13:57:54Z</time>
      </trkpt>
      <trkpt lat="49.97326" lon="2.44226">
        <ele>49.9</ele>
        <time>2023-05-17T13:57:55Z</time>
      </trkpt>
      <trkpt lat="49.97325" lon="2.44226">
        <ele>49.9</ele>
        <time>2023-05-17T13:57:56Z</time>
      </trkpt>
      <trkpt lat="49.97324" lon="2.44227">
        <ele>49.9</ele>
        <time>2023-05-17T13:57:57Z</time>
      </trkpt>
      <trkpt lat="49.97322" lon="2.44228">
        <ele>50</ele>
        <time>2023-05-17T13:57:59Z</time>
      </trkpt>
      <trkpt lat="49.97321" lon="2.44228">
        <ele>50</ele>
        <time>2023-05-17T13:58:00Z</time>
      </trkpt>
      <trkpt lat="49.9732" lon="2.44229">
        <ele>50</ele>
        <time>2023-05-17T13:58:02Z</time>
      </trkpt>
      <trkpt lat="49.97319" lon="2.44229">
        <ele>50</ele>
        <time>2023-05-17T13:58:03Z</time>
      </trkpt>
      <trkpt lat="49.97317" lon="2.4423">
        <ele>50.1</ele>
        <time>2023-05-17T13:58:04Z</time>
      </trkpt>
      <trkpt lat="49.97316" lon="2.4423">
        <ele>50.1</ele>
        <time>2023-05-17T13:58:05Z</time>
      </trkpt>
      <trkpt lat="49.97315" lon="2.44231">
        <ele>50.1</ele>
        <time>2023-05-17T13:58:06Z</time>
      </trkpt>
      <trkpt lat="49.97313" lon="2.44231">
        <ele>50.2</ele>
        <time>2023-05-17T13:58:07Z</time>
      </trkpt>
      <trkpt lat="49.97312" lon="2.44231">
        <ele>50.2</ele>
        <time>2023-05-17T13:58:08Z</time>
      </trkpt>
      <trkpt lat="49.97312" lon="2.44231">
        <ele>50.2</ele>
        <time>2023-05-17T13:58:09Z</time>
      </trkpt>
      <trkpt lat="49.9731" lon="2.44232">
        <ele>50.3</ele>
        <time>2023-05-17T13:58:10Z</time>
      </trkpt>
      <trkpt lat="49.97309" lon="2.44232">
        <ele>50.3</ele>
        <time>2023-05-17T13:58:12Z</time>
      </trkpt>
      <trkpt lat="49.97307" lon="2.44233">
        <ele>50.3</ele>
        <time>2023-05-17T13:58:13Z</time>
      </trkpt>
      <trkpt lat="49.97306" lon="2.44233">
        <ele>50.4</ele>
        <time>2023-05-17T13:58:14Z</time>
      </trkpt>
      <trkpt lat="49.97305" lon="2.44234">
        <ele>50.4</ele>
        <time>2023-05-17T13:58:16Z</time>
      </trkpt>
      <trkpt lat="49.97304" lon="2.44235">
        <ele>50.4</ele>
        <time>2023-05-17T13:58:17Z</time>
      </trkpt>
      <trkpt lat="49.97302" lon="2.44235">
        <ele>50.5</ele>
        <time>2023-05-17T13:58:18Z</time>
      </trkpt>
      <trkpt lat="49.97302" lon="2.44236">
        <ele>50.5</ele>
        <time>2023-05-17T13:58:19Z</time>
      </trkpt>
      <trkpt lat="49.973" lon="2.44236">
        <ele>50.5</ele>
        <time>2023-05-17T13:58:20Z</time>
      </trkpt>
      <trkpt lat="49.973" lon="2.44237">
        <ele>50.5</ele>
        <time>2023-05-17T13:58:21Z</time>
      </trkpt>
      <trkpt lat="49.97298" lon="2.44237">
        <ele>50.6</ele>
        <time>2023-05-17T13:58:23Z</time>
      </trkpt>
      <trkpt lat="49.97296" lon="2.44238">
        <ele>50.6</ele>
        <time>2023-05-17T13:58:24Z</time>
      </trkpt>
      <trkpt lat="49.97295" lon="2.44238">
        <ele>50.6</ele>
        <time>2023-05-17T13:58:25Z</time>
      </trkpt>
      <trkpt lat="49.97294" lon="2.44238">
        <ele>50.6</ele>
        <time>2023-05-17T13:58:26Z</time>
      </trkpt>
      <trkpt lat="49.97293" lon="2.44239">
        <ele>50.7</ele>
        <time>2023-05-17T13:58:27Z</time>
      </trkpt>
      <trkpt lat="49.97292" lon="2.44239">
        <ele>50.7</ele>
        <time>2023-05-17T13:58:28Z</time>
      </trkpt>
      <trkpt lat="49.97291" lon="2.44239">
        <ele>50.7</ele>
        <time>2023-05-17T13:58:30Z</time>
      </trkpt>
      <trkpt lat="49.97289" lon="2.4424">
        <ele>50.7</ele>
        <time>2023-05-17T13:58:31Z</time>
      </trkpt>
      <trkpt lat="49.97288" lon="2.4424">
        <ele>50.7</ele>
        <time>2023-05-17T13:58:32Z</time>
      </trkpt>
      <trkpt lat="49.97287" lon="2.4424">
        <ele>50.8</ele>
        <time>2023-05-17T13:58:34Z</time>
      </trkpt>
      <trkpt lat="49.97285" lon="2.44241">
        <ele>50.8</ele>
        <time>2023-05-17T13:58:35Z</time>
      </trkpt>
      <trkpt lat="49.97284" lon="2.44241">
        <ele>50.8</ele>
        <time>2023-05-17T13:58:36Z</time>
      </trkpt>
      <trkpt lat="49.97282" lon="2.44241">
        <ele>50.8</ele>
        <time>2023-05-17T13:58:37Z</time>
      </trkpt>
      <trkpt lat="49.97281" lon="2.44241">
        <ele>50.8</ele>
        <time>2023-05-17T13:58:38Z</time>
      </trkpt>
      <trkpt lat="49.9728" lon="2.44241">
        <ele>50.8</ele>
        <time>2023-05-17T13:58:39Z</time>
      </trkpt>
      <trkpt lat="49.97279" lon="2.44241">
        <ele>50.8</ele>
        <time>2023-05-17T13:58:40Z</time>
      </trkpt>
      <trkpt lat="49.97277" lon="2.44241">
        <ele>50.9</ele>
        <time>2023-05-17T13:58:42Z</time>
      </trkpt>
      <trkpt lat="49.97276" lon="2.44241">
        <ele>50.9</ele>
        <time>2023-05-17T13:58:43Z</time>
      </trkpt>
      <trkpt lat="49.97274" lon="2.44241">
        <ele>50.9</ele>
        <time>2023-05-17T13:58:45Z</time>
      </trkpt>
      <trkpt lat="49.97273" lon="2.44242">
        <ele>50.9</ele>
        <time>2023-05-17T13:58:46Z</time>
      </trkpt>
      <trkpt lat="49.97272" lon="2.44242">
        <ele>50.9</ele>
        <time>2023-05-17T13:58:47Z</time>
      </trkpt>
      <trkpt lat="49.97271" lon="2.44242">
        <ele>50.9</ele>
        <time>2023-05-17T13:58:48Z</time>
      </trkpt>
      <trkpt lat="49.9727" lon="2.44243">
        <ele>50.9</ele>
        <time>2023-05-17T13:58:49Z</time>
      </trkpt>
      <trkpt lat="49.97268" lon="2.44243">
        <ele>50.9</ele>
        <time>2023-05-17T13:58:50Z</time>
      </trkpt>
      <trkpt lat="49.97267" lon="2.44243">
        <ele>50.9</ele>
        <time>2023-05-17T13:58:52Z</time>
      </trkpt>
      <trkpt lat="49.97265" lon="2.44243">
        <ele>50.9</ele>
        <time>2023-05-17T13:58:53Z</time>
      </trkpt>
      <trkpt lat="49.97264" lon="2.44243">
        <ele>50.9</ele>
        <time>2023-05-17T13:58:54Z</time>
      </trkpt>
      <trkpt lat="49.97263" lon="2.44243">
        <ele>50.9</ele>
        <time>2023-05-17T13:58:55Z</time>
      </trkpt>
      <trkpt lat="49.97262" lon="2.44243">
        <ele>50.9</ele>
        <time>2023-05-17T13:58:56Z</time>
      </trkpt>
      <trkpt lat="49.97261" lon="2.44243">
        <ele>51</ele>
        <time>2023-05-17T13:58:57Z</time>
      </trkpt>
      <trkpt lat="49.97259" lon="2.44243">
        <ele>51</ele>
        <time>2023-05-17T13:58:59Z</time>
      </trkpt>
      <trkpt lat="49.97257" lon="2.44243">
        <ele>51</ele>
        <time>2023-05-17T13:59:00Z</time>
      </trkpt>
      <trkpt lat="49.97256" lon="2.44243">
        <ele>51</ele>
        <time>2023-05-17T13:59:02Z</time>
      </trkpt>
      <trkpt lat="49.97255" lon="2.44242">
        <ele>51</ele>
        <time>2023-05-17T13:59:03Z</time>
      </trkpt>
      <trkpt lat="49.97253" lon="2.44242">
        <ele>51</ele>
        <time>2023-05-17T13:59:04Z</time>
      </trkpt>
      <trkpt lat="49.97252" lon="2.44242">
        <ele>51</ele>
        <time>2023-05-17T13:59:05Z</time>
      </trkpt>
      <trkpt lat="49.97251" lon="2.44242">
        <ele>51</ele>
        <time>2023-05-17T13:59:06Z</time>
      </trkpt>
      <trkpt lat="49.9725" lon="2.44242">
        <ele>51</ele>
        <time>2023-05-17T13:59:07Z</time>
      </trkpt>
      <trkpt lat="49.97248" lon="2.44241">
        <ele>51</ele>
        <time>2023-05-17T13:59:09Z</time>
      </trkpt>
      <trkpt lat="49.97245" lon="2.44241">
        <ele>51</ele>
        <time>2023-05-17T13:59:10Z</time>
      </trkpt>
      <trkpt lat="49.97245" lon="2.44241">
        <ele>51</ele>
        <time>2023-05-17T13:59:11Z</time>
      </trkpt>
      <trkpt lat="49.97244" lon="2.44241">
        <ele>51</ele>
        <time>2023-05-17T13:59:12Z</time>
      </trkpt>
      <trkpt lat="49.97242" lon="2.44241">
        <ele>51</ele>
        <time>2023-05-17T13:59:13Z</time>
      </trkpt>
      <trkpt lat="49.97241" lon="2.44241">
        <ele>51</ele>
        <time>2023-05-17T13:59:15Z</time>
      </trkpt>
      <trkpt lat="49.9724" lon="2.44241">
        <ele>51</ele>
        <time>2023-05-17T13:59:16Z</time>
      </trkpt>
      <trkpt lat="49.97238" lon="2.44241">
        <ele>51</ele>
        <time>2023-05-17T13:59:17Z</time>
      </trkpt>
      <trkpt lat="49.97237" lon="2.44241">
        <ele>51</ele>
        <time>2023-05-17T13:59:18Z</time>
      </trkpt>
      <trkpt lat="49.97236" lon="2.4424">
        <ele>51</ele>
        <time>2023-05-17T13:59:19Z</time>
      </trkpt>
      <trkpt lat="49.97235" lon="2.4424">
        <ele>51</ele>
        <time>2023-05-17T13:59:20Z</time>
      </trkpt>
      <trkpt lat="49.97234" lon="2.4424">
        <ele>51</ele>
        <time>2023-05-17T13:59:22Z</time>
      </trkpt>
      <trkpt lat="49.97232" lon="2.44239">
        <ele>51</ele>
        <time>2023-05-17T13:59:23Z</time>
      </trkpt>
      <trkpt lat="49.97231" lon="2.44239">
        <ele>51</ele>
        <time>2023-05-17T13:59:24Z</time>
      </trkpt>
      <trkpt lat="49.97229" lon="2.44238">
        <ele>51</ele>
        <time>2023-05-17T13:59:25Z</time>
      </trkpt>
      <trkpt lat="49.97228" lon="2.44238">
        <ele>51</ele>
        <time>2023-05-17T13:59:26Z</time>
      </trkpt>
      <trkpt lat="49.97227" lon="2.44238">
        <ele>51</ele>
        <time>2023-05-17T13:59:27Z</time>
      </trkpt>
      <trkpt lat="49.97226" lon="2.44237">
        <ele>51</ele>
        <time>2023-05-17T13:59:28Z</time>
      </trkpt>
      <trkpt lat="49.97225" lon="2.44236">
        <ele>51</ele>
        <time>2023-05-17T13:59:29Z</time>
      </trkpt>
      <trkpt lat="49.97224" lon="2.44236">
        <ele>51</ele>
        <time>2023-05-17T13:59:31Z</time>
      </trkpt>
      <trkpt lat="49.97222" lon="2.44236">
        <ele>51</ele>
        <time>2023-05-17T13:59:32Z</time>
      </trkpt>
      <trkpt lat="49.97221" lon="2.44236">
        <ele>51</ele>
        <time>2023-05-17T13:59:33Z</time>
      </trkpt>
      <trkpt lat="49.9722" lon="2.44236">
        <ele>51</ele>
        <time>2023-05-17T13:59:34Z</time>
      </trkpt>
      <trkpt lat="49.97219" lon="2.44236">
        <ele>51</ele>
        <time>2023-05-17T13:59:35Z</time>
      </trkpt>
      <trkpt lat="49.97218" lon="2.44236">
        <ele>51</ele>
        <time>2023-05-17T13:59:36Z</time>
      </trkpt>
      <trkpt lat="49.97217" lon="2.44236">
        <ele>51</ele>
        <time>2023-05-17T13:59:37Z</time>
      </trkpt>
      <trkpt lat="49.97215" lon="2.44236">
        <ele>51</ele>
        <time>2023-05-17T13:59:39Z</time>
      </trkpt>
      <trkpt lat="49.97214" lon="2.44235">
        <ele>51</ele>
        <time>2023-05-17T13:59:40Z</time>
      </trkpt>
      <trkpt lat="49.97212" lon="2.44235">
        <ele>51</ele>
        <time>2023-05-17T13:59:41Z</time>
      </trkpt>
      <trkpt lat="49.97211" lon="2.44234">
        <ele>50.9</ele>
        <time>2023-05-17T13:59:43Z</time>
      </trkpt>
      <trkpt lat="49.9721" lon="2.44234">
        <ele>50.9</ele>
        <time>2023-05-17T13:59:44Z</time>
      </trkpt>
      <trkpt lat="49.97208" lon="2.44233">
        <ele>50.9</ele>
        <time>2023-05-17T13:59:45Z</time>
      </trkpt>
      <trkpt lat="49.97207" lon="2.44233">
        <ele>50.9</ele>
        <time>2023-05-17T13:59:46Z</time>
      </trkpt>
      <trkpt lat="49.97206" lon="2.44233">
        <ele>50.9</ele>
        <time>2023-05-17T13:59:47Z</time>
      </trkpt>
      <trkpt lat="49.97205" lon="2.44232">
        <ele>50.9</ele>
        <time>2023-05-17T13:59:48Z</time>
      </trkpt>
      <trkpt lat="49.97204" lon="2.44232">
        <ele>50.8</ele>
        <time>2023-05-17T13:59:49Z</time>
      </trkpt>
      <trkpt lat="49.97203" lon="2.44232">
        <ele>50.8</ele>
        <time>2023-05-17T13:59:50Z</time>
      </trkpt>
      <trkpt lat="49.97202" lon="2.44232">
        <ele>50.8</ele>
        <time>2023-05-17T13:59:52Z</time>
      </trkpt>
      <trkpt lat="49.972" lon="2.44232">
        <ele>50.8</ele>
        <time>2023-05-17T13:59:53Z</time>
      </trkpt>
      <trkpt lat="49.97199" lon="2.44233">
        <ele>50.8</ele>
        <time>2023-05-17T13:59:54Z</time>
      </trkpt>
      <trkpt lat="49.97197" lon="2.44232">
        <ele>50.7</ele>
        <time>2023-05-17T13:59:55Z</time>
      </trkpt>
      <trkpt lat="49.97195" lon="2.44232">
        <ele>50.7</ele>
        <time>2023-05-17T13:59:57Z</time>
      </trkpt>
      <trkpt lat="49.97193" lon="2.44231">
        <ele>50.7</ele>
        <time>2023-05-17T13:59:58Z</time>
      </trkpt>
      <trkpt lat="49.97192" lon="2.44231">
        <ele>50.6</ele>
        <time>2023-05-17T13:59:59Z</time>
      </trkpt>
      <trkpt lat="49.9719" lon="2.44231">
        <ele>50.6</ele>
        <time>2023-05-17T14:00:00Z</time>
      </trkpt>
      <trkpt lat="49.97188" lon="2.4423">
        <ele>50.6</ele>
        <time>2023-05-17T14:00:01Z</time>
      </trkpt>
      <trkpt lat="49.97187" lon="2.4423">
        <ele>50.5</ele>
        <time>2023-05-17T14:00:02Z</time>
      </trkpt>
      <trkpt lat="49.97185" lon="2.44229">
        <ele>50.5</ele>
        <time>2023-05-17T14:00:04Z</time>
      </trkpt>
      <trkpt lat="49.97183" lon="2.44229">
        <ele>50.5</ele>
        <time>2023-05-17T14:00:05Z</time>
      </trkpt>
      <trkpt lat="49.97181" lon="2.44228">
        <ele>50.4</ele>
        <time>2023-05-17T14:00:06Z</time>
      </trkpt>
      <trkpt lat="49.9718" lon="2.44227">
        <ele>50.4</ele>
        <time>2023-05-17T14:00:07Z</time>
      </trkpt>
      <trkpt lat="49.97178" lon="2.44227">
        <ele>50.4</ele>
        <time>2023-05-17T14:00:08Z</time>
      </trkpt>
      <trkpt lat="49.97177" lon="2.44227">
        <ele>50.3</ele>
        <time>2023-05-17T14:00:09Z</time>
      </trkpt>
      <trkpt lat="49.97175" lon="2.44227">
        <ele>50.3</ele>
        <time>2023-05-17T14:00:11Z</time>
      </trkpt>
      <trkpt lat="49.97173" lon="2.44227">
        <ele>50.2</ele>
        <time>2023-05-17T14:00:12Z</time>
      </trkpt>
      <trkpt lat="49.97171" lon="2.44227">
        <ele>50.2</ele>
        <time>2023-05-17T14:00:14Z</time>
      </trkpt>
      <trkpt lat="49.97169" lon="2.44226">
        <ele>50.1</ele>
        <time>2023-05-17T14:00:15Z</time>
      </trkpt>
      <trkpt lat="49.97168" lon="2.44226">
        <ele>50.1</ele>
        <time>2023-05-17T14:00:16Z</time>
      </trkpt>
      <trkpt lat="49.97165" lon="2.44228">
        <ele>50</ele>
        <time>2023-05-17T14:00:17Z</time>
      </trkpt>
      <trkpt lat="49.97164" lon="2.44229">
        <ele>49.9</ele>
        <time>2023-05-17T14:00:19Z</time>
      </trkpt>
      <trkpt lat="49.97162" lon="2.4423">
        <ele>49.9</ele>
        <time>2023-05-17T14:00:20Z</time>
      </trkpt>
      <trkpt lat="49.97161" lon="2.4423">
        <ele>49.9</ele>
        <time>2023-05-17T14:00:21Z</time>
      </trkpt>
      <trkpt lat="49.9716" lon="2.44231">
        <ele>49.8</ele>
        <time>2023-05-17T14:00:22Z</time>
      </trkpt>
      <trkpt lat="49.97158" lon="2.44233">
        <ele>49.8</ele>
        <time>2023-05-17T14:00:23Z</time>
      </trkpt>
      <trkpt lat="49.97156" lon="2.44234">
        <ele>49.7</ele>
        <time>2023-05-17T14:00:25Z</time>
      </trkpt>
      <trkpt lat="49.97155" lon="2.44235">
        <ele>49.7</ele>
        <time>2023-05-17T14:00:26Z</time>
      </trkpt>
      <trkpt lat="49.97153" lon="2.44236">
        <ele>49.6</ele>
        <time>2023-05-17T14:00:27Z</time>
      </trkpt>
      <trkpt lat="49.97152" lon="2.44237">
        <ele>49.6</ele>
        <time>2023-05-17T14:00:28Z</time>
      </trkpt>
      <trkpt lat="49.9715" lon="2.44238">
        <ele>49.5</ele>
        <time>2023-05-17T14:00:29Z</time>
      </trkpt>
      <trkpt lat="49.97149" lon="2.44238">
        <ele>49.5</ele>
        <time>2023-05-17T14:00:30Z</time>
      </trkpt>
      <trkpt lat="49.97149" lon="2.44239">
        <ele>49.4</ele>
        <time>2023-05-17T14:00:31Z</time>
      </trkpt>
      <trkpt lat="49.97146" lon="2.4424">
        <ele>49.4</ele>
        <time>2023-05-17T14:00:33Z</time>
      </trkpt>
      <trkpt lat="49.97146" lon="2.44241">
        <ele>49.3</ele>
        <time>2023-05-17T14:00:34Z</time>
      </trkpt>
      <trkpt lat="49.97144" lon="2.44243">
        <ele>49.3</ele>
        <time>2023-05-17T14:00:35Z</time>
      </trkpt>
      <trkpt lat="49.97143" lon="2.44243">
        <ele>49.2</ele>
        <time>2023-05-17T14:00:36Z</time>
      </trkpt>
      <trkpt lat="49.97142" lon="2.44244">
        <ele>49.2</ele>
        <time>2023-05-17T14:00:37Z</time>
      </trkpt>
      <trkpt lat="49.9714" lon="2.44246">
        <ele>49.1</ele>
        <time>2023-05-17T14:00:39Z</time>
      </trkpt>
      <trkpt lat="49.97139" lon="2.44246">
        <ele>49.1</ele>
        <time>2023-05-17T14:00:40Z</time>
      </trkpt>
      <trkpt lat="49.97137" lon="2.44248">
        <ele>49.1</ele>
        <time>2023-05-17T14:00:41Z</time>
      </trkpt>
      <trkpt lat="49.97136" lon="2.44248">
        <ele>49.1</ele>
        <time>2023-05-17T14:00:42Z</time>
      </trkpt>
      <trkpt lat="49.97136" lon="2.44249">
        <ele>49</ele>
        <time>2023-05-17T14:00:43Z</time>
      </trkpt>
      <trkpt lat="49.97133" lon="2.4425">
        <ele>49</ele>
        <time>2023-05-17T14:00:44Z</time>
      </trkpt>
      <trkpt lat="49.97132" lon="2.44251">
        <ele>48.9</ele>
        <time>2023-05-17T14:00:46Z</time>
      </trkpt>
      <trkpt lat="49.97131" lon="2.44251">
        <ele>48.9</ele>
        <time>2023-05-17T14:00:47Z</time>
      </trkpt>
      <trkpt lat="49.9713" lon="2.44252">
        <ele>48.9</ele>
        <time>2023-05-17T14:00:48Z</time>
      </trkpt>
      <trkpt lat="49.97129" lon="2.44253">
        <ele>48.9</ele>
        <time>2023-05-17T14:00:49Z</time>
      </trkpt>
      <trkpt lat="49.97126" lon="2.44254">
        <ele>48.8</ele>
        <time>2023-05-17T14:00:50Z</time>
      </trkpt>
      <trkpt lat="49.97126" lon="2.44254">
        <ele>48.8</ele>
        <time>2023-05-17T14:00:51Z</time>
      </trkpt>
      <trkpt lat="49.97124" lon="2.44255">
        <ele>48.8</ele>
        <time>2023-05-17T14:00:52Z</time>
      </trkpt>
      <trkpt lat="49.97123" lon="2.44255">
        <ele>48.8</ele>
        <time>2023-05-17T14:00:53Z</time>
      </trkpt>
      <trkpt lat="49.97121" lon="2.44256">
        <ele>48.7</ele>
        <time>2023-05-17T14:00:54Z</time>
      </trkpt>
      <trkpt lat="49.97119" lon="2.44257">
        <ele>48.7</ele>
        <time>2023-05-17T14:00:56Z</time>
      </trkpt>
      <trkpt lat="49.97117" lon="2.44258">
        <ele>48.7</ele>
        <time>2023-05-17T14:00:57Z</time>
      </trkpt>
      <trkpt lat="49.97115" lon="2.44259">
        <ele>48.6</ele>
        <time>2023-05-17T14:00:58Z</time>
      </trkpt>
      <trkpt lat="49.97113" lon="2.4426">
        <ele>48.6</ele>
        <time>2023-05-17T14:00:59Z</time>
      </trkpt>
      <trkpt lat="49.9711" lon="2.44261">
        <ele>48.6</ele>
        <time>2023-05-17T14:01:01Z</time>
      </trkpt>
      <trkpt lat="49.97107" lon="2.44263">
        <ele>48.5</ele>
        <time>2023-05-17T14:01:02Z</time>
      </trkpt>
      <trkpt lat="49.97106" lon="2.44264">
        <ele>48.5</ele>
        <time>2023-05-17T14:01:03Z</time>
      </trkpt>
      <trkpt lat="49.97103" lon="2.44266">
        <ele>48.5</ele>
        <time>2023-05-17T14:01:04Z</time>
      </trkpt>
      <trkpt lat="49.97103" lon="2.44267">
        <ele>48.4</ele>
        <time>2023-05-17T14:01:05Z</time>
      </trkpt>
      <trkpt lat="49.97102" lon="2.44268">
        <ele>48.4</ele>
        <time>2023-05-17T14:01:06Z</time>
      </trkpt>
      <trkpt lat="49.97101" lon="2.4427">
        <ele>48.4</ele>
        <time>2023-05-17T14:01:07Z</time>
      </trkpt>
      <trkpt lat="49.971" lon="2.44271">
        <ele>48.4</ele>
        <time>2023-05-17T14:01:08Z</time>
      </trkpt>
      <trkpt lat="49.97101" lon="2.44272">
        <ele>48.4</ele>
        <time>2023-05-17T14:01:10Z</time>
      </trkpt>
      <trkpt lat="49.971" lon="2.44273">
        <ele>48.4</ele>
        <time>2023-05-17T14:01:11Z</time>
      </trkpt>
      <trkpt lat="49.971" lon="2.44273">
        <ele>48.4</ele>
        <time>2023-05-17T14:01:12Z</time>
      </trkpt>
      <trkpt lat="49.971" lon="2.44274">
        <ele>48.3</ele>
        <time>2023-05-17T14:01:13Z</time>
      </trkpt>
      <trkpt lat="49.971" lon="2.44274">
        <ele>48.3</ele>
        <time>2023-05-17T14:01:14Z</time>
      </trkpt>
      <trkpt lat="49.97099" lon="2.44275">
        <ele>48.3</ele>
        <time>2023-05-17T14:01:15Z</time>
      </trkpt>
      <trkpt lat="49.97098" lon="2.44275">
        <ele>48.3</ele>
        <time>2023-05-17T14:01:16Z</time>
      </trkpt>
      <trkpt lat="49.97098" lon="2.44275">
        <ele>48.3</ele>
        <time>2023-05-17T14:01:17Z</time>
      </trkpt>
      <trkpt lat="49.97098" lon="2.44275">
        <ele>48.3</ele>
        <time>2023-05-17T14:01:18Z</time>
      </trkpt>
      <trkpt lat="49.97097" lon="2.44275">
        <ele>48.3</ele>
        <time>2023-05-17T14:01:19Z</time>
      </trkpt>
      <trkpt lat="49.97097" lon="2.44275">
        <ele>48.3</ele>
        <time>2023-05-17T14:01:20Z</time>
      </trkpt>
      <trkpt lat="49.97096" lon="2.44275">
        <ele>48.3</ele>
        <time>2023-05-17T14:01:22Z</time>
      </trkpt>
      <trkpt lat="49.97095" lon="2.44275">
        <ele>48.2</ele>
        <time>2023-05-17T14:01:23Z</time>
      </trkpt>
      <trkpt lat="49.97094" lon="2.44275">
        <ele>48.2</ele>
        <time>2023-05-17T14:01:24Z</time>
      </trkpt>
      <trkpt lat="49.97092" lon="2.44275">
        <ele>48.2</ele>
        <time>2023-05-17T14:01:25Z</time>
      </trkpt>
      <trkpt lat="49.97091" lon="2.44274">
        <ele>48.1</ele>
        <time>2023-05-17T14:01:27Z</time>
      </trkpt>
      <trkpt lat="49.97089" lon="2.44274">
        <ele>48.1</ele>
        <time>2023-05-17T14:01:28Z</time>
      </trkpt>
      <trkpt lat="49.97087" lon="2.44273">
        <ele>48</ele>
        <time>2023-05-17T14:01:29Z</time>
      </trkpt>
      <trkpt lat="49.97086" lon="2.44272">
        <ele>48</ele>
        <time>2023-05-17T14:01:30Z</time>
      </trkpt>
      <trkpt lat="49.97086" lon="2.44272">
        <ele>48</ele>
        <time>2023-05-17T14:01:31Z</time>
      </trkpt>
      <trkpt lat="49.97084" lon="2.44271">
        <ele>47.9</ele>
        <time>2023-05-17T14:01:32Z</time>
      </trkpt>
      <trkpt lat="49.97083" lon="2.44271">
        <ele>47.9</ele>
        <time>2023-05-17T14:01:33Z</time>
      </trkpt>
      <trkpt lat="49.97082" lon="2.4427">
        <ele>47.9</ele>
        <time>2023-05-17T14:01:35Z</time>
      </trkpt>
      <trkpt lat="49.97081" lon="2.4427">
        <ele>47.8</ele>
        <time>2023-05-17T14:01:36Z</time>
      </trkpt>
      <trkpt lat="49.97079" lon="2.44269">
        <ele>47.8</ele>
        <time>2023-05-17T14:01:37Z</time>
      </trkpt>
      <trkpt lat="49.97077" lon="2.44268">
        <ele>47.7</ele>
        <time>2023-05-17T14:01:39Z</time>
      </trkpt>
      <trkpt lat="49.97076" lon="2.44267">
        <ele>47.7</ele>
        <time>2023-05-17T14:01:40Z</time>
      </trkpt>
      <trkpt lat="49.97074" lon="2.44266">
        <ele>47.6</ele>
        <time>2023-05-17T14:01:41Z</time>
      </trkpt>
      <trkpt lat="49.97073" lon="2.44266">
        <ele>47.6</ele>
        <time>2023-05-17T14:01:42Z</time>
      </trkpt>
      <trkpt lat="49.97072" lon="2.44265">
        <ele>47.6</ele>
        <time>2023-05-17T14:01:43Z</time>
      </trkpt>
      <trkpt lat="49.97071" lon="2.44264">
        <ele>47.6</ele>
        <time>2023-05-17T14:01:44Z</time>
      </trkpt>
      <trkpt lat="49.97071" lon="2.44263">
        <ele>47.5</ele>
        <time>2023-05-17T14:01:45Z</time>
      </trkpt>
      <trkpt lat="49.9707" lon="2.44261">
        <ele>47.5</ele>
        <time>2023-05-17T14:01:47Z</time>
      </trkpt>
      <trkpt lat="49.97069" lon="2.4426">
        <ele>47.5</ele>
        <time>2023-05-17T14:01:48Z</time>
      </trkpt>
      <trkpt lat="49.97068" lon="2.44259">
        <ele>47.5</ele>
        <time>2023-05-17T14:01:49Z</time>
      </trkpt>
      <trkpt lat="49.97067" lon="2.44257">
        <ele>47.4</ele>
        <time>2023-05-17T14:01:50Z</time>
      </trkpt>
      <trkpt lat="49.97067" lon="2.44256">
        <ele>47.4</ele>
        <time>2023-05-17T14:01:51Z</time>
      </trkpt>
      <trkpt lat="49.97066" lon="2.44255">
        <ele>47.4</ele>
        <time>2023-05-17T14:01:52Z</time>
      </trkpt>
      <trkpt lat="49.97065" lon="2.44253">
        <ele>47.4</ele>
        <time>2023-05-17T14:01:53Z</time>
      </trkpt>
      <trkpt lat="49.97063" lon="2.4425">
        <ele>47.3</ele>
        <time>2023-05-17T14:01:55Z</time>
      </trkpt>
      <trkpt lat="49.97063" lon="2.44249">
        <ele>47.3</ele>
        <time>2023-05-17T14:01:57Z</time>
      </trkpt>
      <trkpt lat="49.97062" lon="2.44247">
        <ele>47.3</ele>
        <time>2023-05-17T14:01:58Z</time>
      </trkpt>
      <trkpt lat="49.97061" lon="2.44246">
        <ele>47.2</ele>
        <time>2023-05-17T14:01:59Z</time>
      </trkpt>
      <trkpt lat="49.97061" lon="2.44245">
        <ele>47.2</ele>
        <time>2023-05-17T14:02:00Z</time>
      </trkpt>
      <trkpt lat="49.9706" lon="2.44244">
        <ele>47.2</ele>
        <time>2023-05-17T14:02:01Z</time>
      </trkpt>
      <trkpt lat="49.97059" lon="2.44242">
        <ele>47.2</ele>
        <time>2023-05-17T14:02:03Z</time>
      </trkpt>
      <trkpt lat="49.97058" lon="2.4424">
        <ele>47.2</ele>
        <time>2023-05-17T14:02:04Z</time>
      </trkpt>
      <trkpt lat="49.97057" lon="2.44239">
        <ele>47.2</ele>
        <time>2023-05-17T14:02:05Z</time>
      </trkpt>
      <trkpt lat="49.97058" lon="2.44237">
        <ele>47.2</ele>
        <time>2023-05-17T14:02:06Z</time>
      </trkpt>
      <trkpt lat="49.97056" lon="2.44235">
        <ele>47.1</ele>
        <time>2023-05-17T14:02:08Z</time>
      </trkpt>
      <trkpt lat="49.97055" lon="2.44233">
        <ele>47.1</ele>
        <time>2023-05-17T14:02:10Z</time>
      </trkpt>
      <trkpt lat="49.97055" lon="2.44232">
        <ele>47.1</ele>
        <time>2023-05-17T14:02:11Z</time>
      </trkpt>
      <trkpt lat="49.97054" lon="2.44231">
        <ele>47.1</ele>
        <time>2023-05-17T14:02:12Z</time>
      </trkpt>
      <trkpt lat="49.97053" lon="2.44229">
        <ele>47.1</ele>
        <time>2023-05-17T14:02:13Z</time>
      </trkpt>
      <trkpt lat="49.97052" lon="2.44227">
        <ele>47.1</ele>
        <time>2023-05-17T14:02:14Z</time>
      </trkpt>
      <trkpt lat="49.97051" lon="2.44226">
        <ele>47.1</ele>
        <time>2023-05-17T14:02:15Z</time>
      </trkpt>
      <trkpt lat="49.9705" lon="2.44225">
        <ele>47.1</ele>
        <time>2023-05-17T14:02:16Z</time>
      </trkpt>
      <trkpt lat="49.97049" lon="2.44222">
        <ele>47.1</ele>
        <time>2023-05-17T14:02:17Z</time>
      </trkpt>
      <trkpt lat="49.97048" lon="2.44222">
        <ele>47.1</ele>
        <time>2023-05-17T14:02:18Z</time>
      </trkpt>
      <trkpt lat="49.97048" lon="2.44221">
        <ele>47.1</ele>
        <time>2023-05-17T14:02:19Z</time>
      </trkpt>
      <trkpt lat="49.97046" lon="2.44219">
        <ele>47.1</ele>
        <time>2023-05-17T14:02:20Z</time>
      </trkpt>
      <trkpt lat="49.97046" lon="2.44218">
        <ele>47.1</ele>
        <time>2023-05-17T14:02:22Z</time>
      </trkpt>
      <trkpt lat="49.97045" lon="2.44217">
        <ele>47.1</ele>
        <time>2023-05-17T14:02:23Z</time>
      </trkpt>
      <trkpt lat="49.97044" lon="2.44215">
        <ele>47.1</ele>
        <time>2023-05-17T14:02:24Z</time>
      </trkpt>
      <trkpt lat="49.97042" lon="2.44214">
        <ele>47.1</ele>
        <time>2023-05-17T14:02:25Z</time>
      </trkpt>
      <trkpt lat="49.97041" lon="2.44213">
        <ele>47.1</ele>
        <time>2023-05-17T14:02:26Z</time>
      </trkpt>
      <trkpt lat="49.97039" lon="2.44211">
        <ele>47.1</ele>
        <time>2023-05-17T14:02:28Z</time>
      </trkpt>
      <trkpt lat="49.97038" lon="2.4421">
        <ele>47.1</ele>
        <time>2023-05-17T14:02:29Z</time>
      </trkpt>
      <trkpt lat="49.97037" lon="2.44209">
        <ele>47.1</ele>
        <time>2023-05-17T14:02:30Z</time>
      </trkpt>
      <trkpt lat="49.97035" lon="2.44207">
        <ele>47.1</ele>
        <time>2023-05-17T14:02:31Z</time>
      </trkpt>
      <trkpt lat="49.97034" lon="2.44206">
        <ele>47.1</ele>
        <time>2023-05-17T14:02:33Z</time>
      </trkpt>
      <trkpt lat="49.97033" lon="2.44206">
        <ele>47.1</ele>
        <time>2023-05-17T14:02:34Z</time>
      </trkpt>
      <trkpt lat="49.97032" lon="2.44205">
        <ele>47.1</ele>
        <time>2023-05-17T14:02:35Z</time>
      </trkpt>
      <trkpt lat="49.97031" lon="2.44204">
        <ele>47.1</ele>
        <time>2023-05-17T14:02:36Z</time>
      </trkpt>
      <trkpt lat="49.9703" lon="2.44203">
        <ele>47.1</ele>
        <time>2023-05-17T14:02:37Z</time>
      </trkpt>
      <trkpt lat="49.97029" lon="2.44202">
        <ele>47.1</ele>
        <time>2023-05-17T14:02:38Z</time>
      </trkpt>
      <trkpt lat="49.97027" lon="2.44201">
        <ele>47.1</ele>
        <time>2023-05-17T14:02:40Z</time>
      </trkpt>
      <trkpt lat="49.97026" lon="2.442">
        <ele>47.1</ele>
        <time>2023-05-17T14:02:41Z</time>
      </trkpt>
      <trkpt lat="49.97025" lon="2.44199">
        <ele>47.1</ele>
        <time>2023-05-17T14:02:42Z</time>
      </trkpt>
      <trkpt lat="49.97023" lon="2.44198">
        <ele>47.1</ele>
        <time>2023-05-17T14:02:44Z</time>
      </trkpt>
      <trkpt lat="49.97021" lon="2.44196">
        <ele>47.1</ele>
        <time>2023-05-17T14:02:45Z</time>
      </trkpt>
      <trkpt lat="49.9702" lon="2.44195">
        <ele>47.1</ele>
        <time>2023-05-17T14:02:47Z</time>
      </trkpt>
      <trkpt lat="49.97019" lon="2.44194">
        <ele>47.1</ele>
        <time>2023-05-17T14:02:48Z</time>
      </trkpt>
      <trkpt lat="49.97018" lon="2.44193">
        <ele>47.1</ele>
        <time>2023-05-17T14:02:49Z</time>
      </trkpt>
      <trkpt lat="49.97017" lon="2.44192">
        <ele>47.1</ele>
        <time>2023-05-17T14:02:50Z</time>
      </trkpt>
      <trkpt lat="49.97016" lon="2.44191">
        <ele>47.1</ele>
        <time>2023-05-17T14:02:51Z</time>
      </trkpt>
      <trkpt lat="49.97014" lon="2.44189">
        <ele>47</ele>
        <time>2023-05-17T14:02:53Z</time>
      </trkpt>
      <trkpt lat="49.97014" lon="2.44188">
        <ele>47</ele>
        <time>2023-05-17T14:02:54Z</time>
      </trkpt>
      <trkpt lat="49.97013" lon="2.44187">
        <ele>47</ele>
        <time>2023-05-17T14:02:55Z</time>
      </trkpt>
      <trkpt lat="49.97012" lon="2.44186">
        <ele>47</ele>
        <time>2023-05-17T14:02:56Z</time>
      </trkpt>
      <trkpt lat="49.9701" lon="2.44184">
        <ele>47</ele>
        <time>2023-05-17T14:02:58Z</time>
      </trkpt>
      <trkpt lat="49.9701" lon="2.44183">
        <ele>47</ele>
        <time>2023-05-17T14:02:59Z</time>
      </trkpt>
      <trkpt lat="49.97009" lon="2.44183">
        <ele>47</ele>
        <time>2023-05-17T14:03:00Z</time>
      </trkpt>
      <trkpt lat="49.97008" lon="2.44182">
        <ele>47</ele>
        <time>2023-05-17T14:03:01Z</time>
      </trkpt>
      <trkpt lat="49.97008" lon="2.44181">
        <ele>47</ele>
        <time>2023-05-17T14:03:02Z</time>
      </trkpt>
      <trkpt lat="49.97007" lon="2.4418">
        <ele>47</ele>
        <time>2023-05-17T14:03:03Z</time>
      </trkpt>
      <trkpt lat="49.97006" lon="2.44179">
        <ele>47</ele>
        <time>2023-05-17T14:03:05Z</time>
      </trkpt>
      <trkpt lat="49.97005" lon="2.44177">
        <ele>47</ele>
        <time>2023-05-17T14:03:06Z</time>
      </trkpt>
      <trkpt lat="49.97004" lon="2.44176">
        <ele>47</ele>
        <time>2023-05-17T14:03:07Z</time>
      </trkpt>
      <trkpt lat="49.97002" lon="2.44175">
        <ele>47</ele>
        <time>2023-05-17T14:03:08Z</time>
      </trkpt>
      <trkpt lat="49.97002" lon="2.44174">
        <ele>47</ele>
        <time>2023-05-17T14:03:09Z</time>
      </trkpt>
      <trkpt lat="49.97001" lon="2.44173">
        <ele>47</ele>
        <time>2023-05-17T14:03:10Z</time>
      </trkpt>
      <trkpt lat="49.96999" lon="2.44171">
        <ele>47</ele>
        <time>2023-05-17T14:03:11Z</time>
      </trkpt>
      <trkpt lat="49.96999" lon="2.44171">
        <ele>47</ele>
        <time>2023-05-17T14:03:12Z</time>
      </trkpt>
      <trkpt lat="49.96998" lon="2.4417">
        <ele>47</ele>
        <time>2023-05-17T14:03:13Z</time>
      </trkpt>
      <trkpt lat="49.96996" lon="2.44168">
        <ele>47</ele>
        <time>2023-05-17T14:03:15Z</time>
      </trkpt>
      <trkpt lat="49.96995" lon="2.44168">
        <ele>47</ele>
        <time>2023-05-17T14:03:16Z</time>
      </trkpt>
      <trkpt lat="49.96994" lon="2.44167">
        <ele>47</ele>
        <time>2023-05-17T14:03:17Z</time>
      </trkpt>
      <trkpt lat="49.96992" lon="2.44166">
        <ele>47</ele>
        <time>2023-05-17T14:03:18Z</time>
      </trkpt>
      <trkpt lat="49.96992" lon="2.44165">
        <ele>47</ele>
        <time>2023-05-17T14:03:19Z</time>
      </trkpt>
      <trkpt lat="49.96991" lon="2.44165">
        <ele>47</ele>
        <time>2023-05-17T14:03:20Z</time>
      </trkpt>
      <trkpt lat="49.96989" lon="2.44163">
        <ele>47</ele>
        <time>2023-05-17T14:03:22Z</time>
      </trkpt>
      <trkpt lat="49.96988" lon="2.44162">
        <ele>47</ele>
        <time>2023-05-17T14:03:23Z</time>
      </trkpt>
      <trkpt lat="49.96986" lon="2.44161">
        <ele>46.9</ele>
        <time>2023-05-17T14:03:25Z</time>
      </trkpt>
      <trkpt lat="49.96985" lon="2.4416">
        <ele>46.9</ele>
        <time>2023-05-17T14:03:26Z</time>
      </trkpt>
      <trkpt lat="49.96984" lon="2.4416">
        <ele>46.9</ele>
        <time>2023-05-17T14:03:27Z</time>
      </trkpt>
      <trkpt lat="49.96983" lon="2.44159">
        <ele>46.9</ele>
        <time>2023-05-17T14:03:28Z</time>
      </trkpt>
      <trkpt lat="49.96982" lon="2.44159">
        <ele>46.9</ele>
        <time>2023-05-17T14:03:29Z</time>
      </trkpt>
      <trkpt lat="49.96981" lon="2.44158">
        <ele>46.9</ele>
        <time>2023-05-17T14:03:30Z</time>
      </trkpt>
      <trkpt lat="49.96979" lon="2.44157">
        <ele>46.9</ele>
        <time>2023-05-17T14:03:32Z</time>
      </trkpt>
      <trkpt lat="49.96978" lon="2.44157">
        <ele>46.9</ele>
        <time>2023-05-17T14:03:33Z</time>
      </trkpt>
      <trkpt lat="49.96977" lon="2.44156">
        <ele>46.9</ele>
        <time>2023-05-17T14:03:34Z</time>
      </trkpt>
      <trkpt lat="49.96974" lon="2.44156">
        <ele>46.9</ele>
        <time>2023-05-17T14:03:35Z</time>
      </trkpt>
      <trkpt lat="49.96974" lon="2.44156">
        <ele>46.9</ele>
        <time>2023-05-17T14:03:36Z</time>
      </trkpt>
      <trkpt lat="49.96973" lon="2.44156">
        <ele>46.9</ele>
        <time>2023-05-17T14:03:37Z</time>
      </trkpt>
      <trkpt lat="49.96971" lon="2.44155">
        <ele>46.9</ele>
        <time>2023-05-17T14:03:38Z</time>
      </trkpt>
      <trkpt lat="49.9697" lon="2.44156">
        <ele>46.9</ele>
        <time>2023-05-17T14:03:39Z</time>
      </trkpt>
      <trkpt lat="49.96969" lon="2.44156">
        <ele>46.9</ele>
        <time>2023-05-17T14:03:40Z</time>
      </trkpt>
      <trkpt lat="49.96967" lon="2.44156">
        <ele>46.9</ele>
        <time>2023-05-17T14:03:41Z</time>
      </trkpt>
      <trkpt lat="49.96966" lon="2.44156">
        <ele>46.8</ele>
        <time>2023-05-17T14:03:43Z</time>
      </trkpt>
      <trkpt lat="49.96965" lon="2.44156">
        <ele>46.8</ele>
        <time>2023-05-17T14:03:44Z</time>
      </trkpt>
      <trkpt lat="49.96963" lon="2.44156">
        <ele>46.8</ele>
        <time>2023-05-17T14:03:45Z</time>
      </trkpt>
      <trkpt lat="49.96962" lon="2.44155">
        <ele>46.8</ele>
        <time>2023-05-17T14:03:46Z</time>
      </trkpt>
      <trkpt lat="49.96961" lon="2.44155">
        <ele>46.8</ele>
        <time>2023-05-17T14:03:47Z</time>
      </trkpt>
      <trkpt lat="49.96959" lon="2.44155">
        <ele>46.8</ele>
        <time>2023-05-17T14:03:49Z</time>
      </trkpt>
      <trkpt lat="49.96958" lon="2.44154">
        <ele>46.8</ele>
        <time>2023-05-17T14:03:50Z</time>
      </trkpt>
      <trkpt lat="49.96957" lon="2.44154">
        <ele>46.8</ele>
        <time>2023-05-17T14:03:51Z</time>
      </trkpt>
      <trkpt lat="49.96956" lon="2.44153">
        <ele>46.8</ele>
        <time>2023-05-17T14:03:53Z</time>
      </trkpt>
      <trkpt lat="49.96954" lon="2.44153">
        <ele>46.8</ele>
        <time>2023-05-17T14:03:54Z</time>
      </trkpt>
      <trkpt lat="49.96953" lon="2.44154">
        <ele>46.8</ele>
        <time>2023-05-17T14:03:55Z</time>
      </trkpt>
      <trkpt lat="49.96952" lon="2.44154">
        <ele>46.8</ele>
        <time>2023-05-17T14:03:56Z</time>
      </trkpt>
      <trkpt lat="49.9695" lon="2.44154">
        <ele>46.8</ele>
        <time>2023-05-17T14:03:58Z</time>
      </trkpt>
      <trkpt lat="49.96949" lon="2.44154">
        <ele>46.8</ele>
        <time>2023-05-17T14:03:59Z</time>
      </trkpt>
      <trkpt lat="49.96948" lon="2.44153">
        <ele>46.8</ele>
        <time>2023-05-17T14:04:00Z</time>
      </trkpt>
      <trkpt lat="49.96946" lon="2.44153">
        <ele>46.7</ele>
        <time>2023-05-17T14:04:01Z</time>
      </trkpt>
      <trkpt lat="49.96945" lon="2.44153">
        <ele>46.7</ele>
        <time>2023-05-17T14:04:02Z</time>
      </trkpt>
      <trkpt lat="49.96944" lon="2.44153">
        <ele>46.7</ele>
        <time>2023-05-17T14:04:03Z</time>
      </trkpt>
      <trkpt lat="49.96943" lon="2.44153">
        <ele>46.7</ele>
        <time>2023-05-17T14:04:04Z</time>
      </trkpt>
      <trkpt lat="49.96941" lon="2.44152">
        <ele>46.7</ele>
        <time>2023-05-17T14:04:05Z</time>
      </trkpt>
      <trkpt lat="49.96938" lon="2.44151">
        <ele>46.7</ele>
        <time>2023-05-17T14:04:07Z</time>
      </trkpt>
      <trkpt lat="49.96937" lon="2.44151">
        <ele>46.7</ele>
        <time>2023-05-17T14:04:08Z</time>
      </trkpt>
      <trkpt lat="49.96936" lon="2.44151">
        <ele>46.7</ele>
        <time>2023-05-17T14:04:09Z</time>
      </trkpt>
      <trkpt lat="49.96934" lon="2.4415">
        <ele>46.7</ele>
        <time>2023-05-17T14:04:10Z</time>
      </trkpt>
      <trkpt lat="49.96933" lon="2.4415">
        <ele>46.7</ele>
        <time>2023-05-17T14:04:11Z</time>
      </trkpt>
      <trkpt lat="49.96931" lon="2.44149">
        <ele>46.7</ele>
        <time>2023-05-17T14:04:12Z</time>
      </trkpt>
      <trkpt lat="49.9693" lon="2.44149">
        <ele>46.7</ele>
        <time>2023-05-17T14:04:14Z</time>
      </trkpt>
      <trkpt lat="49.96929" lon="2.44148">
        <ele>46.7</ele>
        <time>2023-05-17T14:04:15Z</time>
      </trkpt>
      <trkpt lat="49.96927" lon="2.44148">
        <ele>46.7</ele>
        <time>2023-05-17T14:04:16Z</time>
      </trkpt>
      <trkpt lat="49.96926" lon="2.44148">
        <ele>46.7</ele>
        <time>2023-05-17T14:04:17Z</time>
      </trkpt>
      <trkpt lat="49.96925" lon="2.44147">
        <ele>46.7</ele>
        <time>2023-05-17T14:04:18Z</time>
      </trkpt>
      <trkpt lat="49.96923" lon="2.44147">
        <ele>46.7</ele>
        <time>2023-05-17T14:04:20Z</time>
      </trkpt>
      <trkpt lat="49.96921" lon="2.44146">
        <ele>46.7</ele>
        <time>2023-05-17T14:04:21Z</time>
      </trkpt>
      <trkpt lat="49.96919" lon="2.44146">
        <ele>46.6</ele>
        <time>2023-05-17T14:04:23Z</time>
      </trkpt>
      <trkpt lat="49.96918" lon="2.44145">
        <ele>46.6</ele>
        <time>2023-05-17T14:04:24Z</time>
      </trkpt>
      <trkpt lat="49.96916" lon="2.44144">
        <ele>46.6</ele>
        <time>2023-05-17T14:04:26Z</time>
      </trkpt>
      <trkpt lat="49.96916" lon="2.44144">
        <ele>46.6</ele>
        <time>2023-05-17T14:04:27Z</time>
      </trkpt>
      <trkpt lat="49.96915" lon="2.44144">
        <ele>46.6</ele>
        <time>2023-05-17T14:04:28Z</time>
      </trkpt>
      <trkpt lat="49.96914" lon="2.44143">
        <ele>46.6</ele>
        <time>2023-05-17T14:04:29Z</time>
      </trkpt>
      <trkpt lat="49.96913" lon="2.44143">
        <ele>46.6</ele>
        <time>2023-05-17T14:04:30Z</time>
      </trkpt>
      <trkpt lat="49.96911" lon="2.44143">
        <ele>46.6</ele>
        <time>2023-05-17T14:04:31Z</time>
      </trkpt>
      <trkpt lat="49.9691" lon="2.44142">
        <ele>46.6</ele>
        <time>2023-05-17T14:04:32Z</time>
      </trkpt>
      <trkpt lat="49.96908" lon="2.44142">
        <ele>46.6</ele>
        <time>2023-05-17T14:04:34Z</time>
      </trkpt>
      <trkpt lat="49.96907" lon="2.44141">
        <ele>46.6</ele>
        <time>2023-05-17T14:04:35Z</time>
      </trkpt>
      <trkpt lat="49.96905" lon="2.44141">
        <ele>46.6</ele>
        <time>2023-05-17T14:04:36Z</time>
      </trkpt>
      <trkpt lat="49.96904" lon="2.44141">
        <ele>46.6</ele>
        <time>2023-05-17T14:04:38Z</time>
      </trkpt>
      <trkpt lat="49.96903" lon="2.44141">
        <ele>46.6</ele>
        <time>2023-05-17T14:04:39Z</time>
      </trkpt>
      <trkpt lat="49.96902" lon="2.44141">
        <ele>46.6</ele>
        <time>2023-05-17T14:04:40Z</time>
      </trkpt>
      <trkpt lat="49.96901" lon="2.44141">
        <ele>46.6</ele>
        <time>2023-05-17T14:04:41Z</time>
      </trkpt>
      <trkpt lat="49.96899" lon="2.44141">
        <ele>46.6</ele>
        <time>2023-05-17T14:04:42Z</time>
      </trkpt>
      <trkpt lat="49.96899" lon="2.44141">
        <ele>46.6</ele>
        <time>2023-05-17T14:04:43Z</time>
      </trkpt>
      <trkpt lat="49.96898" lon="2.44141">
        <ele>46.6</ele>
        <time>2023-05-17T14:04:44Z</time>
      </trkpt>
      <trkpt lat="49.96896" lon="2.44141">
        <ele>46.6</ele>
        <time>2023-05-17T14:04:46Z</time>
      </trkpt>
      <trkpt lat="49.96895" lon="2.44141">
        <ele>46.6</ele>
        <time>2023-05-17T14:04:47Z</time>
      </trkpt>
      <trkpt lat="49.96894" lon="2.44141">
        <ele>46.6</ele>
        <time>2023-05-17T14:04:48Z</time>
      </trkpt>
      <trkpt lat="49.96893" lon="2.44141">
        <ele>46.6</ele>
        <time>2023-05-17T14:04:49Z</time>
      </trkpt>
      <trkpt lat="49.96893" lon="2.44141">
        <ele>46.6</ele>
        <time>2023-05-17T14:04:50Z</time>
      </trkpt>
      <trkpt lat="49.96892" lon="2.44141">
        <ele>46.6</ele>
        <time>2023-05-17T14:04:51Z</time>
      </trkpt>
      <trkpt lat="49.96891" lon="2.4414">
        <ele>46.6</ele>
        <time>2023-05-17T14:04:53Z</time>
      </trkpt>
      <trkpt lat="49.96891" lon="2.44139">
        <ele>46.6</ele>
        <time>2023-05-17T14:04:54Z</time>
      </trkpt>
      <trkpt lat="49.96891" lon="2.44137">
        <ele>46.6</ele>
        <time>2023-05-17T14:04:55Z</time>
      </trkpt>
      <trkpt lat="49.96891" lon="2.44135">
        <ele>46.6</ele>
        <time>2023-05-17T14:04:57Z</time>
      </trkpt>
      <trkpt lat="49.96892" lon="2.44133">
        <ele>46.6</ele>
        <time>2023-05-17T14:04:59Z</time>
      </trkpt>
      <trkpt lat="49.96892" lon="2.44133">
        <ele>46.6</ele>
        <time>2023-05-17T14:05:00Z</time>
      </trkpt>
      <trkpt lat="49.96892" lon="2.44132">
        <ele>46.6</ele>
        <time>2023-05-17T14:05:02Z</time>
      </trkpt>
      <trkpt lat="49.96891" lon="2.44132">
        <ele>46.6</ele>
        <time>2023-05-17T14:05:03Z</time>
      </trkpt>
      <trkpt lat="49.96891" lon="2.44132">
        <ele>46.6</ele>
        <time>2023-05-17T14:05:04Z</time>
      </trkpt>
      <trkpt lat="49.96891" lon="2.44132">
        <ele>46.6</ele>
        <time>2023-05-17T14:05:06Z</time>
      </trkpt>
      <trkpt lat="49.9689" lon="2.44132">
        <ele>46.6</ele>
        <time>2023-05-17T14:05:07Z</time>
      </trkpt>
      <trkpt lat="49.9689" lon="2.44133">
        <ele>46.6</ele>
        <time>2023-05-17T14:05:09Z</time>
      </trkpt>
      <trkpt lat="49.9689" lon="2.44133">
        <ele>46.6</ele>
        <time>2023-05-17T14:05:10Z</time>
      </trkpt>
      <trkpt lat="49.9689" lon="2.44133">
        <ele>46.6</ele>
        <time>2023-05-17T14:05:12Z</time>
      </trkpt>
      <trkpt lat="49.9689" lon="2.44133">
        <ele>46.6</ele>
        <time>2023-05-17T14:05:13Z</time>
      </trkpt>
      <trkpt lat="49.9689" lon="2.44133">
        <ele>46.6</ele>
        <time>2023-05-17T14:05:15Z</time>
      </trkpt>
      <trkpt lat="49.9689" lon="2.44133">
        <ele>46.6</ele>
        <time>2023-05-17T14:05:16Z</time>
      </trkpt>
      <trkpt lat="49.9689" lon="2.44134">
        <ele>46.6</ele>
        <time>2023-05-17T14:05:17Z</time>
      </trkpt>
      <trkpt lat="49.9689" lon="2.44134">
        <ele>46.6</ele>
        <time>2023-05-17T14:05:18Z</time>
      </trkpt>
      <trkpt lat="49.96891" lon="2.44134">
        <ele>46.6</ele>
        <time>2023-05-17T14:05:19Z</time>
      </trkpt>
      <trkpt lat="49.96891" lon="2.44141">
        <ele>46.6</ele>
        <time>2023-05-17T14:07:12Z</time>
      </trkpt>
      <trkpt lat="49.9689" lon="2.44141">
        <ele>46.6</ele>
        <time>2023-05-17T14:07:13Z</time>
      </trkpt>
      <trkpt lat="49.96889" lon="2.44141">
        <ele>46.6</ele>
        <time>2023-05-17T14:07:14Z</time>
      </trkpt>
      <trkpt lat="49.96888" lon="2.44142">
        <ele>46.6</ele>
        <time>2023-05-17T14:07:15Z</time>
      </trkpt>
      <trkpt lat="49.96886" lon="2.44142">
        <ele>46.6</ele>
        <time>2023-05-17T14:07:16Z</time>
      </trkpt>
      <trkpt lat="49.96885" lon="2.44141">
        <ele>46.6</ele>
        <time>2023-05-17T14:07:18Z</time>
      </trkpt>
      <trkpt lat="49.96884" lon="2.44141">
        <ele>46.6</ele>
        <time>2023-05-17T14:07:19Z</time>
      </trkpt>
      <trkpt lat="49.96883" lon="2.44141">
        <ele>46.6</ele>
        <time>2023-05-17T14:07:20Z</time>
      </trkpt>
      <trkpt lat="49.96882" lon="2.44141">
        <ele>46.6</ele>
        <time>2023-05-17T14:07:21Z</time>
      </trkpt>
      <trkpt lat="49.9688" lon="2.4414">
        <ele>46.6</ele>
        <time>2023-05-17T14:07:22Z</time>
      </trkpt>
      <trkpt lat="49.96879" lon="2.4414">
        <ele>46.6</ele>
        <time>2023-05-17T14:07:24Z</time>
      </trkpt>
      <trkpt lat="49.96877" lon="2.44139">
        <ele>46.6</ele>
        <time>2023-05-17T14:07:25Z</time>
      </trkpt>
      <trkpt lat="49.96876" lon="2.44139">
        <ele>46.6</ele>
        <time>2023-05-17T14:07:26Z</time>
      </trkpt>
      <trkpt lat="49.96875" lon="2.44139">
        <ele>46.6</ele>
        <time>2023-05-17T14:07:27Z</time>
      </trkpt>
      <trkpt lat="49.96873" lon="2.4414">
        <ele>46.6</ele>
        <time>2023-05-17T14:07:28Z</time>
      </trkpt>
      <trkpt lat="49.96872" lon="2.4414">
        <ele>46.6</ele>
        <time>2023-05-17T14:07:29Z</time>
      </trkpt>
      <trkpt lat="49.96871" lon="2.44141">
        <ele>46.6</ele>
        <time>2023-05-17T14:07:30Z</time>
      </trkpt>
      <trkpt lat="49.96868" lon="2.44142">
        <ele>46.6</ele>
        <time>2023-05-17T14:07:32Z</time>
      </trkpt>
      <trkpt lat="49.96867" lon="2.44142">
        <ele>46.6</ele>
        <time>2023-05-17T14:07:33Z</time>
      </trkpt>
      <trkpt lat="49.96866" lon="2.44143">
        <ele>46.6</ele>
        <time>2023-05-17T14:07:34Z</time>
      </trkpt>
      <trkpt lat="49.96864" lon="2.44144">
        <ele>46.6</ele>
        <time>2023-05-17T14:07:36Z</time>
      </trkpt>
      <trkpt lat="49.96862" lon="2.44145">
        <ele>46.6</ele>
        <time>2023-05-17T14:07:37Z</time>
      </trkpt>
      <trkpt lat="49.96861" lon="2.44146">
        <ele>46.6</ele>
        <time>2023-05-17T14:07:38Z</time>
      </trkpt>
      <trkpt lat="49.9686" lon="2.44147">
        <ele>46.6</ele>
        <time>2023-05-17T14:07:39Z</time>
      </trkpt>
      <trkpt lat="49.96858" lon="2.44148">
        <ele>46.6</ele>
        <time>2023-05-17T14:07:40Z</time>
      </trkpt>
      <trkpt lat="49.96856" lon="2.44148">
        <ele>46.6</ele>
        <time>2023-05-17T14:07:41Z</time>
      </trkpt>
      <trkpt lat="49.96855" lon="2.44149">
        <ele>46.6</ele>
        <time>2023-05-17T14:07:42Z</time>
      </trkpt>
      <trkpt lat="49.96854" lon="2.44149">
        <ele>46.6</ele>
        <time>2023-05-17T14:07:43Z</time>
      </trkpt>
      <trkpt lat="49.96853" lon="2.44149">
        <ele>46.6</ele>
        <time>2023-05-17T14:07:45Z</time>
      </trkpt>
      <trkpt lat="49.96851" lon="2.4415">
        <ele>46.6</ele>
        <time>2023-05-17T14:07:46Z</time>
      </trkpt>
      <trkpt lat="49.9685" lon="2.4415">
        <ele>46.6</ele>
        <time>2023-05-17T14:07:47Z</time>
      </trkpt>
      <trkpt lat="49.96849" lon="2.44151">
        <ele>46.6</ele>
        <time>2023-05-17T14:07:48Z</time>
      </trkpt>
      <trkpt lat="49.96848" lon="2.44151">
        <ele>46.6</ele>
        <time>2023-05-17T14:07:49Z</time>
      </trkpt>
      <trkpt lat="49.96848" lon="2.44152">
        <ele>46.6</ele>
        <time>2023-05-17T14:07:50Z</time>
      </trkpt>
      <trkpt lat="49.96847" lon="2.44153">
        <ele>46.6</ele>
        <time>2023-05-17T14:07:51Z</time>
      </trkpt>
      <trkpt lat="49.96846" lon="2.44154">
        <ele>46.7</ele>
        <time>2023-05-17T14:07:53Z</time>
      </trkpt>
      <trkpt lat="49.96845" lon="2.44155">
        <ele>46.7</ele>
        <time>2023-05-17T14:07:54Z</time>
      </trkpt>
      <trkpt lat="49.96844" lon="2.44156">
        <ele>46.7</ele>
        <time>2023-05-17T14:07:55Z</time>
      </trkpt>
      <trkpt lat="49.96843" lon="2.44157">
        <ele>46.7</ele>
        <time>2023-05-17T14:07:56Z</time>
      </trkpt>
      <trkpt lat="49.96842" lon="2.44158">
        <ele>46.7</ele>
        <time>2023-05-17T14:07:57Z</time>
      </trkpt>
      <trkpt lat="49.96841" lon="2.44159">
        <ele>46.7</ele>
        <time>2023-05-17T14:07:58Z</time>
      </trkpt>
      <trkpt lat="49.96841" lon="2.4416">
        <ele>46.7</ele>
        <time>2023-05-17T14:07:59Z</time>
      </trkpt>
      <trkpt lat="49.9684" lon="2.44161">
        <ele>46.7</ele>
        <time>2023-05-17T14:08:01Z</time>
      </trkpt>
      <trkpt lat="49.96838" lon="2.44162">
        <ele>46.7</ele>
        <time>2023-05-17T14:08:02Z</time>
      </trkpt>
      <trkpt lat="49.96837" lon="2.44163">
        <ele>46.7</ele>
        <time>2023-05-17T14:08:03Z</time>
      </trkpt>
      <trkpt lat="49.96836" lon="2.44163">
        <ele>46.7</ele>
        <time>2023-05-17T14:08:04Z</time>
      </trkpt>
      <trkpt lat="49.96835" lon="2.44164">
        <ele>46.7</ele>
        <time>2023-05-17T14:08:05Z</time>
      </trkpt>
      <trkpt lat="49.96833" lon="2.44165">
        <ele>46.7</ele>
        <time>2023-05-17T14:08:07Z</time>
      </trkpt>
      <trkpt lat="49.96832" lon="2.44166">
        <ele>46.7</ele>
        <time>2023-05-17T14:08:08Z</time>
      </trkpt>
      <trkpt lat="49.96831" lon="2.44166">
        <ele>46.7</ele>
        <time>2023-05-17T14:08:09Z</time>
      </trkpt>
      <trkpt lat="49.96829" lon="2.44166">
        <ele>46.7</ele>
        <time>2023-05-17T14:08:11Z</time>
      </trkpt>
      <trkpt lat="49.96828" lon="2.44167">
        <ele>46.7</ele>
        <time>2023-05-17T14:08:12Z</time>
      </trkpt>
      <trkpt lat="49.96827" lon="2.44167">
        <ele>46.7</ele>
        <time>2023-05-17T14:08:13Z</time>
      </trkpt>
      <trkpt lat="49.96826" lon="2.44168">
        <ele>46.7</ele>
        <time>2023-05-17T14:08:14Z</time>
      </trkpt>
      <trkpt lat="49.96825" lon="2.44168">
        <ele>46.7</ele>
        <time>2023-05-17T14:08:15Z</time>
      </trkpt>
      <trkpt lat="49.96824" lon="2.44169">
        <ele>46.7</ele>
        <time>2023-05-17T14:08:16Z</time>
      </trkpt>
      <trkpt lat="49.96821" lon="2.4417">
        <ele>46.7</ele>
        <time>2023-05-17T14:08:18Z</time>
      </trkpt>
      <trkpt lat="49.9682" lon="2.4417">
        <ele>46.7</ele>
        <time>2023-05-17T14:08:19Z</time>
      </trkpt>
      <trkpt lat="49.96819" lon="2.44171">
        <ele>46.7</ele>
        <time>2023-05-17T14:08:20Z</time>
      </trkpt>
      <trkpt lat="49.96817" lon="2.44172">
        <ele>46.7</ele>
        <time>2023-05-17T14:08:22Z</time>
      </trkpt>
      <trkpt lat="49.96815" lon="2.44172">
        <ele>46.7</ele>
        <time>2023-05-17T14:08:24Z</time>
      </trkpt>
      <trkpt lat="49.96814" lon="2.44173">
        <ele>46.7</ele>
        <time>2023-05-17T14:08:25Z</time>
      </trkpt>
      <trkpt lat="49.96812" lon="2.44173">
        <ele>46.7</ele>
        <time>2023-05-17T14:08:26Z</time>
      </trkpt>
      <trkpt lat="49.96811" lon="2.44174">
        <ele>46.7</ele>
        <time>2023-05-17T14:08:27Z</time>
      </trkpt>
      <trkpt lat="49.9681" lon="2.44174">
        <ele>46.7</ele>
        <time>2023-05-17T14:08:28Z</time>
      </trkpt>
      <trkpt lat="49.96809" lon="2.44174">
        <ele>46.7</ele>
        <time>2023-05-17T14:08:29Z</time>
      </trkpt>
      <trkpt lat="49.96807" lon="2.44175">
        <ele>46.7</ele>
        <time>2023-05-17T14:08:30Z</time>
      </trkpt>
      <trkpt lat="49.96806" lon="2.44175">
        <ele>46.8</ele>
        <time>2023-05-17T14:08:31Z</time>
      </trkpt>
      <trkpt lat="49.96805" lon="2.44175">
        <ele>46.8</ele>
        <time>2023-05-17T14:08:32Z</time>
      </trkpt>
      <trkpt lat="49.96803" lon="2.44175">
        <ele>46.8</ele>
        <time>2023-05-17T14:08:34Z</time>
      </trkpt>
      <trkpt lat="49.96802" lon="2.44175">
        <ele>46.8</ele>
        <time>2023-05-17T14:08:35Z</time>
      </trkpt>
      <trkpt lat="49.96801" lon="2.44176">
        <ele>46.8</ele>
        <time>2023-05-17T14:08:36Z</time>
      </trkpt>
      <trkpt lat="49.96799" lon="2.44176">
        <ele>46.8</ele>
        <time>2023-05-17T14:08:37Z</time>
      </trkpt>
      <trkpt lat="49.96798" lon="2.44177">
        <ele>46.8</ele>
        <time>2023-05-17T14:08:39Z</time>
      </trkpt>
      <trkpt lat="49.96796" lon="2.44178">
        <ele>46.8</ele>
        <time>2023-05-17T14:08:40Z</time>
      </trkpt>
      <trkpt lat="49.96795" lon="2.44178">
        <ele>46.8</ele>
        <time>2023-05-17T14:08:41Z</time>
      </trkpt>
      <trkpt lat="49.96794" lon="2.44178">
        <ele>46.9</ele>
        <time>2023-05-17T14:08:42Z</time>
      </trkpt>
      <trkpt lat="49.96792" lon="2.44179">
        <ele>46.9</ele>
        <time>2023-05-17T14:08:43Z</time>
      </trkpt>
      <trkpt lat="49.96792" lon="2.4418">
        <ele>46.9</ele>
        <time>2023-05-17T14:08:44Z</time>
      </trkpt>
      <trkpt lat="49.96791" lon="2.4418">
        <ele>46.9</ele>
        <time>2023-05-17T14:08:45Z</time>
      </trkpt>
      <trkpt lat="49.9679" lon="2.44181">
        <ele>46.9</ele>
        <time>2023-05-17T14:08:46Z</time>
      </trkpt>
      <trkpt lat="49.96788" lon="2.44181">
        <ele>46.9</ele>
        <time>2023-05-17T14:08:48Z</time>
      </trkpt>
      <trkpt lat="49.96786" lon="2.44182">
        <ele>47</ele>
        <time>2023-05-17T14:08:49Z</time>
      </trkpt>
      <trkpt lat="49.96785" lon="2.44183">
        <ele>47</ele>
        <time>2023-05-17T14:08:50Z</time>
      </trkpt>
      <trkpt lat="49.96783" lon="2.44184">
        <ele>47</ele>
        <time>2023-05-17T14:08:52Z</time>
      </trkpt>
      <trkpt lat="49.96782" lon="2.44185">
        <ele>47</ele>
        <time>2023-05-17T14:08:53Z</time>
      </trkpt>
      <trkpt lat="49.96781" lon="2.44186">
        <ele>47.1</ele>
        <time>2023-05-17T14:08:54Z</time>
      </trkpt>
      <trkpt lat="49.9678" lon="2.44187">
        <ele>47.1</ele>
        <time>2023-05-17T14:08:55Z</time>
      </trkpt>
      <trkpt lat="49.96778" lon="2.44188">
        <ele>47.1</ele>
        <time>2023-05-17T14:08:57Z</time>
      </trkpt>
      <trkpt lat="49.96776" lon="2.4419">
        <ele>47.1</ele>
        <time>2023-05-17T14:08:58Z</time>
      </trkpt>
      <trkpt lat="49.96776" lon="2.4419">
        <ele>47.1</ele>
        <time>2023-05-17T14:08:59Z</time>
      </trkpt>
      <trkpt lat="49.96775" lon="2.44191">
        <ele>47.1</ele>
        <time>2023-05-17T14:09:00Z</time>
      </trkpt>
      <trkpt lat="49.96773" lon="2.44193">
        <ele>47.2</ele>
        <time>2023-05-17T14:09:01Z</time>
      </trkpt>
      <trkpt lat="49.96773" lon="2.44194">
        <ele>47.2</ele>
        <time>2023-05-17T14:09:02Z</time>
      </trkpt>
      <trkpt lat="49.96772" lon="2.44195">
        <ele>47.2</ele>
        <time>2023-05-17T14:09:03Z</time>
      </trkpt>
      <trkpt lat="49.9677" lon="2.44197">
        <ele>47.2</ele>
        <time>2023-05-17T14:09:05Z</time>
      </trkpt>
      <trkpt lat="49.96769" lon="2.44198">
        <ele>47.2</ele>
        <time>2023-05-17T14:09:06Z</time>
      </trkpt>
      <trkpt lat="49.96768" lon="2.442">
        <ele>47.3</ele>
        <time>2023-05-17T14:09:08Z</time>
      </trkpt>
      <trkpt lat="49.96767" lon="2.44201">
        <ele>47.3</ele>
        <time>2023-05-17T14:09:09Z</time>
      </trkpt>
      <trkpt lat="49.96766" lon="2.44203">
        <ele>47.3</ele>
        <time>2023-05-17T14:09:10Z</time>
      </trkpt>
      <trkpt lat="49.96765" lon="2.44204">
        <ele>47.3</ele>
        <time>2023-05-17T14:09:11Z</time>
      </trkpt>
      <trkpt lat="49.96764" lon="2.44205">
        <ele>47.3</ele>
        <time>2023-05-17T14:09:12Z</time>
      </trkpt>
      <trkpt lat="49.96763" lon="2.44206">
        <ele>47.4</ele>
        <time>2023-05-17T14:09:14Z</time>
      </trkpt>
      <trkpt lat="49.96762" lon="2.44207">
        <ele>47.4</ele>
        <time>2023-05-17T14:09:15Z</time>
      </trkpt>
      <trkpt lat="49.9676" lon="2.44209">
        <ele>47.4</ele>
        <time>2023-05-17T14:09:16Z</time>
      </trkpt>
      <trkpt lat="49.96759" lon="2.44209">
        <ele>47.4</ele>
        <time>2023-05-17T14:09:17Z</time>
      </trkpt>
      <trkpt lat="49.96758" lon="2.4421">
        <ele>47.5</ele>
        <time>2023-05-17T14:09:18Z</time>
      </trkpt>
      <trkpt lat="49.96757" lon="2.44211">
        <ele>47.5</ele>
        <time>2023-05-17T14:09:19Z</time>
      </trkpt>
      <trkpt lat="49.96756" lon="2.44212">
        <ele>47.5</ele>
        <time>2023-05-17T14:09:21Z</time>
      </trkpt>
      <trkpt lat="49.96755" lon="2.44213">
        <ele>47.5</ele>
        <time>2023-05-17T14:09:22Z</time>
      </trkpt>
      <trkpt lat="49.96753" lon="2.44214">
        <ele>47.6</ele>
        <time>2023-05-17T14:09:23Z</time>
      </trkpt>
      <trkpt lat="49.96752" lon="2.44215">
        <ele>47.6</ele>
        <time>2023-05-17T14:09:24Z</time>
      </trkpt>
      <trkpt lat="49.96752" lon="2.44215">
        <ele>47.6</ele>
        <time>2023-05-17T14:09:25Z</time>
      </trkpt>
      <trkpt lat="49.9675" lon="2.44216">
        <ele>47.6</ele>
        <time>2023-05-17T14:09:27Z</time>
      </trkpt>
      <trkpt lat="49.96749" lon="2.44217">
        <ele>47.6</ele>
        <time>2023-05-17T14:09:28Z</time>
      </trkpt>
      <trkpt lat="49.96747" lon="2.44218">
        <ele>47.7</ele>
        <time>2023-05-17T14:09:29Z</time>
      </trkpt>
      <trkpt lat="49.96746" lon="2.44218">
        <ele>47.7</ele>
        <time>2023-05-17T14:09:31Z</time>
      </trkpt>
      <trkpt lat="49.96745" lon="2.44219">
        <ele>47.7</ele>
        <time>2023-05-17T14:09:32Z</time>
      </trkpt>
      <trkpt lat="49.96743" lon="2.44219">
        <ele>47.7</ele>
        <time>2023-05-17T14:09:34Z</time>
      </trkpt>
      <trkpt lat="49.96742" lon="2.4422">
        <ele>47.8</ele>
        <time>2023-05-17T14:09:35Z</time>
      </trkpt>
      <trkpt lat="49.9674" lon="2.44221">
        <ele>47.8</ele>
        <time>2023-05-17T14:09:36Z</time>
      </trkpt>
      <trkpt lat="49.96739" lon="2.44221">
        <ele>47.8</ele>
        <time>2023-05-17T14:09:37Z</time>
      </trkpt>
      <trkpt lat="49.96738" lon="2.44222">
        <ele>47.8</ele>
        <time>2023-05-17T14:09:38Z</time>
      </trkpt>
      <trkpt lat="49.96737" lon="2.44223">
        <ele>47.9</ele>
        <time>2023-05-17T14:09:39Z</time>
      </trkpt>
      <trkpt lat="49.96736" lon="2.44223">
        <ele>47.9</ele>
        <time>2023-05-17T14:09:40Z</time>
      </trkpt>
      <trkpt lat="49.96734" lon="2.44225">
        <ele>47.9</ele>
        <time>2023-05-17T14:09:42Z</time>
      </trkpt>
      <trkpt lat="49.96732" lon="2.44226">
        <ele>48</ele>
        <time>2023-05-17T14:09:43Z</time>
      </trkpt>
      <trkpt lat="49.96731" lon="2.44226">
        <ele>48</ele>
        <time>2023-05-17T14:09:45Z</time>
      </trkpt>
      <trkpt lat="49.9673" lon="2.44227">
        <ele>48</ele>
        <time>2023-05-17T14:09:46Z</time>
      </trkpt>
      <trkpt lat="49.96728" lon="2.44229">
        <ele>48</ele>
        <time>2023-05-17T14:09:47Z</time>
      </trkpt>
      <trkpt lat="49.96728" lon="2.44229">
        <ele>48.1</ele>
        <time>2023-05-17T14:09:48Z</time>
      </trkpt>
      <trkpt lat="49.96727" lon="2.4423">
        <ele>48.1</ele>
        <time>2023-05-17T14:09:49Z</time>
      </trkpt>
      <trkpt lat="49.96726" lon="2.44231">
        <ele>48.1</ele>
        <time>2023-05-17T14:09:50Z</time>
      </trkpt>
      <trkpt lat="49.96725" lon="2.44232">
        <ele>48.1</ele>
        <time>2023-05-17T14:09:51Z</time>
      </trkpt>
      <trkpt lat="49.96723" lon="2.44234">
        <ele>48.2</ele>
        <time>2023-05-17T14:09:53Z</time>
      </trkpt>
      <trkpt lat="49.96721" lon="2.44236">
        <ele>48.2</ele>
        <time>2023-05-17T14:09:54Z</time>
      </trkpt>
      <trkpt lat="49.9672" lon="2.44236">
        <ele>48.2</ele>
        <time>2023-05-17T14:09:55Z</time>
      </trkpt>
      <trkpt lat="49.96719" lon="2.44237">
        <ele>48.3</ele>
        <time>2023-05-17T14:09:56Z</time>
      </trkpt>
      <trkpt lat="49.96717" lon="2.44238">
        <ele>48.3</ele>
        <time>2023-05-17T14:09:58Z</time>
      </trkpt>
      <trkpt lat="49.96717" lon="2.44239">
        <ele>48.3</ele>
        <time>2023-05-17T14:09:59Z</time>
      </trkpt>
      <trkpt lat="49.96716" lon="2.44239">
        <ele>48.3</ele>
        <time>2023-05-17T14:10:00Z</time>
      </trkpt>
      <trkpt lat="49.96714" lon="2.44241">
        <ele>48.4</ele>
        <time>2023-05-17T14:10:01Z</time>
      </trkpt>
      <trkpt lat="49.96713" lon="2.44242">
        <ele>48.4</ele>
        <time>2023-05-17T14:10:02Z</time>
      </trkpt>
      <trkpt lat="49.96712" lon="2.44242">
        <ele>48.4</ele>
        <time>2023-05-17T14:10:03Z</time>
      </trkpt>
      <trkpt lat="49.96711" lon="2.44243">
        <ele>48.4</ele>
        <time>2023-05-17T14:10:04Z</time>
      </trkpt>
      <trkpt lat="49.96711" lon="2.44244">
        <ele>48.4</ele>
        <time>2023-05-17T14:10:05Z</time>
      </trkpt>
      <trkpt lat="49.9671" lon="2.44245">
        <ele>48.4</ele>
        <time>2023-05-17T14:10:06Z</time>
      </trkpt>
      <trkpt lat="49.96709" lon="2.44246">
        <ele>48.4</ele>
        <time>2023-05-17T14:10:08Z</time>
      </trkpt>
      <trkpt lat="49.96707" lon="2.44246">
        <ele>48.4</ele>
        <time>2023-05-17T14:10:09Z</time>
      </trkpt>
      <trkpt lat="49.96707" lon="2.44246">
        <ele>48.4</ele>
        <time>2023-05-17T14:10:10Z</time>
      </trkpt>
      <trkpt lat="49.96706" lon="2.44247">
        <ele>48.4</ele>
        <time>2023-05-17T14:10:11Z</time>
      </trkpt>
      <trkpt lat="49.96704" lon="2.44247">
        <ele>48.4</ele>
        <time>2023-05-17T14:10:12Z</time>
      </trkpt>
      <trkpt lat="49.96703" lon="2.44247">
        <ele>48.4</ele>
        <time>2023-05-17T14:10:13Z</time>
      </trkpt>
      <trkpt lat="49.96702" lon="2.44247">
        <ele>48.5</ele>
        <time>2023-05-17T14:10:14Z</time>
      </trkpt>
      <trkpt lat="49.96701" lon="2.44247">
        <ele>48.5</ele>
        <time>2023-05-17T14:10:15Z</time>
      </trkpt>
      <trkpt lat="49.96699" lon="2.44247">
        <ele>48.5</ele>
        <time>2023-05-17T14:10:17Z</time>
      </trkpt>
      <trkpt lat="49.96698" lon="2.44247">
        <ele>48.5</ele>
        <time>2023-05-17T14:10:18Z</time>
      </trkpt>
      <trkpt lat="49.96696" lon="2.44248">
        <ele>48.5</ele>
        <time>2023-05-17T14:10:19Z</time>
      </trkpt>
      <trkpt lat="49.96694" lon="2.44248">
        <ele>48.5</ele>
        <time>2023-05-17T14:10:20Z</time>
      </trkpt>
      <trkpt lat="49.96693" lon="2.44248">
        <ele>48.5</ele>
        <time>2023-05-17T14:10:21Z</time>
      </trkpt>
      <trkpt lat="49.96692" lon="2.44248">
        <ele>48.5</ele>
        <time>2023-05-17T14:10:22Z</time>
      </trkpt>
      <trkpt lat="49.96691" lon="2.44247">
        <ele>48.5</ele>
        <time>2023-05-17T14:10:23Z</time>
      </trkpt>
      <trkpt lat="49.9669" lon="2.44247">
        <ele>48.5</ele>
        <time>2023-05-17T14:10:24Z</time>
      </trkpt>
      <trkpt lat="49.96688" lon="2.44246">
        <ele>48.5</ele>
        <time>2023-05-17T14:10:26Z</time>
      </trkpt>
      <trkpt lat="49.96687" lon="2.44246">
        <ele>48.5</ele>
        <time>2023-05-17T14:10:27Z</time>
      </trkpt>
      <trkpt lat="49.96685" lon="2.44245">
        <ele>48.5</ele>
        <time>2023-05-17T14:10:28Z</time>
      </trkpt>
      <trkpt lat="49.96684" lon="2.44244">
        <ele>48.5</ele>
        <time>2023-05-17T14:10:29Z</time>
      </trkpt>
      <trkpt lat="49.96683" lon="2.44244">
        <ele>48.5</ele>
        <time>2023-05-17T14:10:30Z</time>
      </trkpt>
      <trkpt lat="49.96682" lon="2.44243">
        <ele>48.5</ele>
        <time>2023-05-17T14:10:32Z</time>
      </trkpt>
      <trkpt lat="49.9668" lon="2.44243">
        <ele>48.5</ele>
        <time>2023-05-17T14:10:33Z</time>
      </trkpt>
      <trkpt lat="49.96678" lon="2.44242">
        <ele>48.5</ele>
        <time>2023-05-17T14:10:35Z</time>
      </trkpt>
      <trkpt lat="49.96677" lon="2.44242">
        <ele>48.5</ele>
        <time>2023-05-17T14:10:36Z</time>
      </trkpt>
      <trkpt lat="49.96675" lon="2.44242">
        <ele>48.5</ele>
        <time>2023-05-17T14:10:38Z</time>
      </trkpt>
      <trkpt lat="49.96674" lon="2.44241">
        <ele>48.5</ele>
        <time>2023-05-17T14:10:39Z</time>
      </trkpt>
      <trkpt lat="49.96673" lon="2.44241">
        <ele>48.5</ele>
        <time>2023-05-17T14:10:40Z</time>
      </trkpt>
      <trkpt lat="49.96672" lon="2.44241">
        <ele>48.5</ele>
        <time>2023-05-17T14:10:41Z</time>
      </trkpt>
      <trkpt lat="49.96671" lon="2.44241">
        <ele>48.5</ele>
        <time>2023-05-17T14:10:42Z</time>
      </trkpt>
      <trkpt lat="49.9667" lon="2.44241">
        <ele>48.5</ele>
        <time>2023-05-17T14:10:43Z</time>
      </trkpt>
      <trkpt lat="49.96668" lon="2.4424">
        <ele>48.5</ele>
        <time>2023-05-17T14:10:45Z</time>
      </trkpt>
      <trkpt lat="49.96666" lon="2.4424">
        <ele>48.5</ele>
        <time>2023-05-17T14:10:46Z</time>
      </trkpt>
      <trkpt lat="49.96665" lon="2.4424">
        <ele>48.5</ele>
        <time>2023-05-17T14:10:47Z</time>
      </trkpt>
      <trkpt lat="49.96664" lon="2.44239">
        <ele>48.5</ele>
        <time>2023-05-17T14:10:48Z</time>
      </trkpt>
      <trkpt lat="49.96663" lon="2.44239">
        <ele>48.5</ele>
        <time>2023-05-17T14:10:49Z</time>
      </trkpt>
      <trkpt lat="49.96662" lon="2.44239">
        <ele>48.5</ele>
        <time>2023-05-17T14:10:50Z</time>
      </trkpt>
      <trkpt lat="49.96661" lon="2.44239">
        <ele>48.5</ele>
        <time>2023-05-17T14:10:51Z</time>
      </trkpt>
      <trkpt lat="49.9666" lon="2.44238">
        <ele>48.5</ele>
        <time>2023-05-17T14:10:53Z</time>
      </trkpt>
      <trkpt lat="49.96658" lon="2.44238">
        <ele>48.5</ele>
        <time>2023-05-17T14:10:54Z</time>
      </trkpt>
      <trkpt lat="49.96657" lon="2.44238">
        <ele>48.5</ele>
        <time>2023-05-17T14:10:55Z</time>
      </trkpt>
      <trkpt lat="49.96656" lon="2.44238">
        <ele>48.5</ele>
        <time>2023-05-17T14:10:56Z</time>
      </trkpt>
      <trkpt lat="49.96655" lon="2.44237">
        <ele>48.5</ele>
        <time>2023-05-17T14:10:57Z</time>
      </trkpt>
      <trkpt lat="49.96654" lon="2.44237">
        <ele>48.5</ele>
        <time>2023-05-17T14:10:58Z</time>
      </trkpt>
      <trkpt lat="49.96653" lon="2.44237">
        <ele>48.4</ele>
        <time>2023-05-17T14:10:59Z</time>
      </trkpt>
      <trkpt lat="49.96651" lon="2.44236">
        <ele>48.4</ele>
        <time>2023-05-17T14:11:00Z</time>
      </trkpt>
      <trkpt lat="49.9665" lon="2.44236">
        <ele>48.4</ele>
        <time>2023-05-17T14:11:01Z</time>
      </trkpt>
      <trkpt lat="49.96649" lon="2.44236">
        <ele>48.4</ele>
        <time>2023-05-17T14:11:03Z</time>
      </trkpt>
      <trkpt lat="49.96648" lon="2.44235">
        <ele>48.4</ele>
        <time>2023-05-17T14:11:04Z</time>
      </trkpt>
      <trkpt lat="49.96647" lon="2.44235">
        <ele>48.4</ele>
        <time>2023-05-17T14:11:05Z</time>
      </trkpt>
      <trkpt lat="49.96646" lon="2.44235">
        <ele>48.4</ele>
        <time>2023-05-17T14:11:06Z</time>
      </trkpt>
      <trkpt lat="49.96644" lon="2.44234">
        <ele>48.4</ele>
        <time>2023-05-17T14:11:07Z</time>
      </trkpt>
      <trkpt lat="49.96643" lon="2.44234">
        <ele>48.4</ele>
        <time>2023-05-17T14:11:08Z</time>
      </trkpt>
      <trkpt lat="49.96642" lon="2.44234">
        <ele>48.4</ele>
        <time>2023-05-17T14:11:09Z</time>
      </trkpt>
      <trkpt lat="49.96639" lon="2.44235">
        <ele>48.4</ele>
        <time>2023-05-17T14:11:11Z</time>
      </trkpt>
      <trkpt lat="49.96638" lon="2.44235">
        <ele>48.4</ele>
        <time>2023-05-17T14:11:13Z</time>
      </trkpt>
      <trkpt lat="49.96637" lon="2.44235">
        <ele>48.4</ele>
        <time>2023-05-17T14:11:14Z</time>
      </trkpt>
      <trkpt lat="49.96636" lon="2.44235">
        <ele>48.4</ele>
        <time>2023-05-17T14:11:15Z</time>
      </trkpt>
      <trkpt lat="49.96635" lon="2.44235">
        <ele>48.4</ele>
        <time>2023-05-17T14:11:16Z</time>
      </trkpt>
      <trkpt lat="49.96634" lon="2.44235">
        <ele>48.4</ele>
        <time>2023-05-17T14:11:17Z</time>
      </trkpt>
      <trkpt lat="49.96632" lon="2.44234">
        <ele>48.4</ele>
        <time>2023-05-17T14:11:19Z</time>
      </trkpt>
      <trkpt lat="49.9663" lon="2.44234">
        <ele>48.4</ele>
        <time>2023-05-17T14:11:20Z</time>
      </trkpt>
      <trkpt lat="49.96629" lon="2.44234">
        <ele>48.4</ele>
        <time>2023-05-17T14:11:21Z</time>
      </trkpt>
      <trkpt lat="49.96628" lon="2.44234">
        <ele>48.4</ele>
        <time>2023-05-17T14:11:22Z</time>
      </trkpt>
      <trkpt lat="49.96626" lon="2.44234">
        <ele>48.4</ele>
        <time>2023-05-17T14:11:23Z</time>
      </trkpt>
      <trkpt lat="49.96625" lon="2.44234">
        <ele>48.3</ele>
        <time>2023-05-17T14:11:25Z</time>
      </trkpt>
      <trkpt lat="49.96624" lon="2.44234">
        <ele>48.3</ele>
        <time>2023-05-17T14:11:26Z</time>
      </trkpt>
      <trkpt lat="49.96623" lon="2.44235">
        <ele>48.3</ele>
        <time>2023-05-17T14:11:27Z</time>
      </trkpt>
      <trkpt lat="49.96622" lon="2.44235">
        <ele>48.3</ele>
        <time>2023-05-17T14:11:29Z</time>
      </trkpt>
      <trkpt lat="49.96621" lon="2.44234">
        <ele>48.3</ele>
        <time>2023-05-17T14:11:30Z</time>
      </trkpt>
      <trkpt lat="49.96618" lon="2.44234">
        <ele>48.3</ele>
        <time>2023-05-17T14:11:31Z</time>
      </trkpt>
      <trkpt lat="49.96618" lon="2.44234">
        <ele>48.3</ele>
        <time>2023-05-17T14:11:32Z</time>
      </trkpt>
      <trkpt lat="49.96617" lon="2.44234">
        <ele>48.3</ele>
        <time>2023-05-17T14:11:33Z</time>
      </trkpt>
      <trkpt lat="49.96615" lon="2.44234">
        <ele>48.3</ele>
        <time>2023-05-17T14:11:35Z</time>
      </trkpt>
      <trkpt lat="49.96614" lon="2.44234">
        <ele>48.2</ele>
        <time>2023-05-17T14:11:36Z</time>
      </trkpt>
      <trkpt lat="49.96613" lon="2.44233">
        <ele>48.2</ele>
        <time>2023-05-17T14:11:37Z</time>
      </trkpt>
      <trkpt lat="49.96612" lon="2.44233">
        <ele>48.2</ele>
        <time>2023-05-17T14:11:38Z</time>
      </trkpt>
      <trkpt lat="49.96611" lon="2.44233">
        <ele>48.2</ele>
        <time>2023-05-17T14:11:39Z</time>
      </trkpt>
      <trkpt lat="49.9661" lon="2.44233">
        <ele>48.2</ele>
        <time>2023-05-17T14:11:40Z</time>
      </trkpt>
      <trkpt lat="49.96608" lon="2.44232">
        <ele>48.2</ele>
        <time>2023-05-17T14:11:42Z</time>
      </trkpt>
      <trkpt lat="49.96607" lon="2.44232">
        <ele>48.2</ele>
        <time>2023-05-17T14:11:43Z</time>
      </trkpt>
      <trkpt lat="49.96605" lon="2.44232">
        <ele>48.1</ele>
        <time>2023-05-17T14:11:44Z</time>
      </trkpt>
      <trkpt lat="49.96605" lon="2.44231">
        <ele>48.1</ele>
        <time>2023-05-17T14:11:45Z</time>
      </trkpt>
      <trkpt lat="49.96604" lon="2.4423">
        <ele>48.1</ele>
        <time>2023-05-17T14:11:46Z</time>
      </trkpt>
      <trkpt lat="49.96602" lon="2.44229">
        <ele>48.1</ele>
        <time>2023-05-17T14:11:48Z</time>
      </trkpt>
      <trkpt lat="49.96601" lon="2.44229">
        <ele>48.1</ele>
        <time>2023-05-17T14:11:49Z</time>
      </trkpt>
      <trkpt lat="49.96599" lon="2.44229">
        <ele>48</ele>
        <time>2023-05-17T14:11:50Z</time>
      </trkpt>
      <trkpt lat="49.96598" lon="2.44229">
        <ele>48</ele>
        <time>2023-05-17T14:11:51Z</time>
      </trkpt>
      <trkpt lat="49.96597" lon="2.4423">
        <ele>48</ele>
        <time>2023-05-17T14:11:52Z</time>
      </trkpt>
      <trkpt lat="49.96596" lon="2.4423">
        <ele>48</ele>
        <time>2023-05-17T14:11:53Z</time>
      </trkpt>
      <trkpt lat="49.96595" lon="2.44229">
        <ele>48</ele>
        <time>2023-05-17T14:11:54Z</time>
      </trkpt>
      <trkpt lat="49.96594" lon="2.44227">
        <ele>47.9</ele>
        <time>2023-05-17T14:11:56Z</time>
      </trkpt>
      <trkpt lat="49.96594" lon="2.44226">
        <ele>47.9</ele>
        <time>2023-05-17T14:11:57Z</time>
      </trkpt>
      <trkpt lat="49.96593" lon="2.44226">
        <ele>47.9</ele>
        <time>2023-05-17T14:11:58Z</time>
      </trkpt>
      <trkpt lat="49.96592" lon="2.44226">
        <ele>47.9</ele>
        <time>2023-05-17T14:11:59Z</time>
      </trkpt>
      <trkpt lat="49.96591" lon="2.44226">
        <ele>47.8</ele>
        <time>2023-05-17T14:12:01Z</time>
      </trkpt>
      <trkpt lat="49.9659" lon="2.44225">
        <ele>47.8</ele>
        <time>2023-05-17T14:12:02Z</time>
      </trkpt>
      <trkpt lat="49.96589" lon="2.44225">
        <ele>47.8</ele>
        <time>2023-05-17T14:12:03Z</time>
      </trkpt>
      <trkpt lat="49.96588" lon="2.44224">
        <ele>47.8</ele>
        <time>2023-05-17T14:12:05Z</time>
      </trkpt>
      <trkpt lat="49.96587" lon="2.44224">
        <ele>47.7</ele>
        <time>2023-05-17T14:12:06Z</time>
      </trkpt>
      <trkpt lat="49.96586" lon="2.44223">
        <ele>47.7</ele>
        <time>2023-05-17T14:12:08Z</time>
      </trkpt>
      <trkpt lat="49.96585" lon="2.44221">
        <ele>47.7</ele>
        <time>2023-05-17T14:12:09Z</time>
      </trkpt>
      <trkpt lat="49.96585" lon="2.44221">
        <ele>47.6</ele>
        <time>2023-05-17T14:12:10Z</time>
      </trkpt>
      <trkpt lat="49.96585" lon="2.4422">
        <ele>47.6</ele>
        <time>2023-05-17T14:12:11Z</time>
      </trkpt>
      <trkpt lat="49.96585" lon="2.4422">
        <ele>47.6</ele>
        <time>2023-05-17T14:12:12Z</time>
      </trkpt>
      <trkpt lat="49.96584" lon="2.44219">
        <ele>47.6</ele>
        <time>2023-05-17T14:12:13Z</time>
      </trkpt>
      <trkpt lat="49.96584" lon="2.44218">
        <ele>47.6</ele>
        <time>2023-05-17T14:12:14Z</time>
      </trkpt>
      <trkpt lat="49.96583" lon="2.44217">
        <ele>47.5</ele>
        <time>2023-05-17T14:12:15Z</time>
      </trkpt>
      <trkpt lat="49.96581" lon="2.44215">
        <ele>47.5</ele>
        <time>2023-05-17T14:12:17Z</time>
      </trkpt>
      <trkpt lat="49.9658" lon="2.44214">
        <ele>47.5</ele>
        <time>2023-05-17T14:12:19Z</time>
      </trkpt>
      <trkpt lat="49.96579" lon="2.44213">
        <ele>47.4</ele>
        <time>2023-05-17T14:12:20Z</time>
      </trkpt>
      <trkpt lat="49.96579" lon="2.44212">
        <ele>47.4</ele>
        <time>2023-05-17T14:12:21Z</time>
      </trkpt>
      <trkpt lat="49.96577" lon="2.44211">
        <ele>47.3</ele>
        <time>2023-05-17T14:12:22Z</time>
      </trkpt>
      <trkpt lat="49.96576" lon="2.44211">
        <ele>47.3</ele>
        <time>2023-05-17T14:12:23Z</time>
      </trkpt>
      <trkpt lat="49.96575" lon="2.4421">
        <ele>47.3</ele>
        <time>2023-05-17T14:12:24Z</time>
      </trkpt>
      <trkpt lat="49.96571" lon="2.44208">
        <ele>47.1</ele>
        <time>2023-05-17T14:12:26Z</time>
      </trkpt>
      <trkpt lat="49.9657" lon="2.44208">
        <ele>47.1</ele>
        <time>2023-05-17T14:12:27Z</time>
      </trkpt>
      <trkpt lat="49.96568" lon="2.44207">
        <ele>47</ele>
        <time>2023-05-17T14:12:28Z</time>
      </trkpt>
      <trkpt lat="49.96565" lon="2.44206">
        <ele>46.9</ele>
        <time>2023-05-17T14:12:30Z</time>
      </trkpt>
      <trkpt lat="49.96564" lon="2.44206">
        <ele>46.9</ele>
        <time>2023-05-17T14:12:31Z</time>
      </trkpt>
      <trkpt lat="49.96563" lon="2.44206">
        <ele>46.8</ele>
        <time>2023-05-17T14:12:32Z</time>
      </trkpt>
      <trkpt lat="49.96561" lon="2.44205">
        <ele>46.8</ele>
        <time>2023-05-17T14:12:33Z</time>
      </trkpt>
      <trkpt lat="49.96559" lon="2.44205">
        <ele>46.7</ele>
        <time>2023-05-17T14:12:34Z</time>
      </trkpt>
      <trkpt lat="49.96556" lon="2.44205">
        <ele>46.6</ele>
        <time>2023-05-17T14:12:36Z</time>
      </trkpt>
      <trkpt lat="49.96554" lon="2.44205">
        <ele>46.6</ele>
        <time>2023-05-17T14:12:37Z</time>
      </trkpt>
      <trkpt lat="49.96552" lon="2.44206">
        <ele>46.5</ele>
        <time>2023-05-17T14:12:39Z</time>
      </trkpt>
      <trkpt lat="49.96551" lon="2.44206">
        <ele>46.5</ele>
        <time>2023-05-17T14:12:40Z</time>
      </trkpt>
      <trkpt lat="49.96549" lon="2.44206">
        <ele>46.4</ele>
        <time>2023-05-17T14:12:41Z</time>
      </trkpt>
      <trkpt lat="49.96547" lon="2.44206">
        <ele>46.4</ele>
        <time>2023-05-17T14:12:42Z</time>
      </trkpt>
      <trkpt lat="49.96546" lon="2.44206">
        <ele>46.4</ele>
        <time>2023-05-17T14:12:43Z</time>
      </trkpt>
      <trkpt lat="49.96544" lon="2.44206">
        <ele>46.4</ele>
        <time>2023-05-17T14:12:44Z</time>
      </trkpt>
      <trkpt lat="49.96543" lon="2.44207">
        <ele>46.3</ele>
        <time>2023-05-17T14:12:45Z</time>
      </trkpt>
      <trkpt lat="49.96542" lon="2.44207">
        <ele>46.3</ele>
        <time>2023-05-17T14:12:46Z</time>
      </trkpt>
      <trkpt lat="49.96541" lon="2.44208">
        <ele>46.3</ele>
        <time>2023-05-17T14:12:47Z</time>
      </trkpt>
      <trkpt lat="49.96539" lon="2.44207">
        <ele>46.3</ele>
        <time>2023-05-17T14:12:49Z</time>
      </trkpt>
      <trkpt lat="49.96538" lon="2.44207">
        <ele>46.2</ele>
        <time>2023-05-17T14:12:50Z</time>
      </trkpt>
      <trkpt lat="49.96537" lon="2.44207">
        <ele>46.2</ele>
        <time>2023-05-17T14:12:52Z</time>
      </trkpt>
      <trkpt lat="49.96536" lon="2.44207">
        <ele>46.2</ele>
        <time>2023-05-17T14:12:53Z</time>
      </trkpt>
      <trkpt lat="49.96535" lon="2.44207">
        <ele>46.2</ele>
        <time>2023-05-17T14:12:54Z</time>
      </trkpt>
      <trkpt lat="49.96533" lon="2.44208">
        <ele>46.2</ele>
        <time>2023-05-17T14:12:56Z</time>
      </trkpt>
      <trkpt lat="49.96532" lon="2.44208">
        <ele>46.2</ele>
        <time>2023-05-17T14:12:57Z</time>
      </trkpt>
      <trkpt lat="49.96532" lon="2.44208">
        <ele>46.2</ele>
        <time>2023-05-17T14:12:58Z</time>
      </trkpt>
      <trkpt lat="49.9653" lon="2.4421">
        <ele>46.1</ele>
        <time>2023-05-17T14:13:00Z</time>
      </trkpt>
      <trkpt lat="49.96529" lon="2.4421">
        <ele>46.1</ele>
        <time>2023-05-17T14:13:02Z</time>
      </trkpt>
      <trkpt lat="49.96528" lon="2.44211">
        <ele>46.1</ele>
        <time>2023-05-17T14:13:03Z</time>
      </trkpt>
      <trkpt lat="49.96527" lon="2.44211">
        <ele>46.1</ele>
        <time>2023-05-17T14:13:04Z</time>
      </trkpt>
      <trkpt lat="49.96526" lon="2.44211">
        <ele>46.1</ele>
        <time>2023-05-17T14:13:05Z</time>
      </trkpt>
      <trkpt lat="49.96525" lon="2.44211">
        <ele>46.1</ele>
        <time>2023-05-17T14:13:06Z</time>
      </trkpt>
      <trkpt lat="49.96524" lon="2.44211">
        <ele>46</ele>
        <time>2023-05-17T14:13:07Z</time>
      </trkpt>
      <trkpt lat="49.96523" lon="2.44211">
        <ele>46</ele>
        <time>2023-05-17T14:13:09Z</time>
      </trkpt>
      <trkpt lat="49.96522" lon="2.44211">
        <ele>46</ele>
        <time>2023-05-17T14:13:10Z</time>
      </trkpt>
      <trkpt lat="49.9652" lon="2.4421">
        <ele>46</ele>
        <time>2023-05-17T14:13:11Z</time>
      </trkpt>
      <trkpt lat="49.96519" lon="2.44209">
        <ele>46</ele>
        <time>2023-05-17T14:13:12Z</time>
      </trkpt>
      <trkpt lat="49.96519" lon="2.44208">
        <ele>46</ele>
        <time>2023-05-17T14:13:13Z</time>
      </trkpt>
      <trkpt lat="49.96517" lon="2.44206">
        <ele>46.1</ele>
        <time>2023-05-17T14:13:15Z</time>
      </trkpt>
      <trkpt lat="49.96516" lon="2.44204">
        <ele>46.2</ele>
        <time>2023-05-17T14:13:16Z</time>
      </trkpt>
      <trkpt lat="49.96516" lon="2.44201">
        <ele>46.2</ele>
        <time>2023-05-17T14:13:17Z</time>
      </trkpt>
      <trkpt lat="49.96515" lon="2.44199">
        <ele>46.2</ele>
        <time>2023-05-17T14:13:19Z</time>
      </trkpt>
      <trkpt lat="49.96515" lon="2.44197">
        <ele>46.3</ele>
        <time>2023-05-17T14:13:20Z</time>
      </trkpt>
      <trkpt lat="49.96516" lon="2.44192">
        <ele>46.4</ele>
        <time>2023-05-17T14:13:21Z</time>
      </trkpt>
      <trkpt lat="49.96516" lon="2.44191">
        <ele>46.4</ele>
        <time>2023-05-17T14:13:22Z</time>
      </trkpt>
      <trkpt lat="49.96516" lon="2.44189">
        <ele>46.5</ele>
        <time>2023-05-17T14:13:23Z</time>
      </trkpt>
      <trkpt lat="49.96516" lon="2.44186">
        <ele>46.5</ele>
        <time>2023-05-17T14:13:24Z</time>
      </trkpt>
      <trkpt lat="49.96516" lon="2.44184">
        <ele>46.6</ele>
        <time>2023-05-17T14:13:25Z</time>
      </trkpt>
      <trkpt lat="49.96515" lon="2.44182">
        <ele>46.6</ele>
        <time>2023-05-17T14:13:26Z</time>
      </trkpt>
      <trkpt lat="49.96515" lon="2.44179">
        <ele>46.7</ele>
        <time>2023-05-17T14:13:28Z</time>
      </trkpt>
      <trkpt lat="49.96515" lon="2.44177">
        <ele>46.7</ele>
        <time>2023-05-17T14:13:29Z</time>
      </trkpt>
      <trkpt lat="49.96515" lon="2.44174">
        <ele>46.8</ele>
        <time>2023-05-17T14:13:30Z</time>
      </trkpt>
      <trkpt lat="49.96515" lon="2.44173">
        <ele>46.9</ele>
        <time>2023-05-17T14:13:31Z</time>
      </trkpt>
      <trkpt lat="49.96515" lon="2.44171">
        <ele>46.9</ele>
        <time>2023-05-17T14:13:32Z</time>
      </trkpt>
      <trkpt lat="49.96515" lon="2.44169">
        <ele>46.9</ele>
        <time>2023-05-17T14:13:33Z</time>
      </trkpt>
      <trkpt lat="49.96515" lon="2.44167">
        <ele>47</ele>
        <time>2023-05-17T14:13:34Z</time>
      </trkpt>
      <trkpt lat="49.96515" lon="2.44165">
        <ele>47.1</ele>
        <time>2023-05-17T14:13:36Z</time>
      </trkpt>
      <trkpt lat="49.96515" lon="2.44163">
        <ele>47.1</ele>
        <time>2023-05-17T14:13:37Z</time>
      </trkpt>
      <trkpt lat="49.96516" lon="2.44161">
        <ele>47.2</ele>
        <time>2023-05-17T14:13:38Z</time>
      </trkpt>
      <trkpt lat="49.96516" lon="2.44159">
        <ele>47.2</ele>
        <time>2023-05-17T14:13:39Z</time>
      </trkpt>
      <trkpt lat="49.96516" lon="2.44156">
        <ele>47.3</ele>
        <time>2023-05-17T14:13:40Z</time>
      </trkpt>
      <trkpt lat="49.96516" lon="2.44154">
        <ele>47.3</ele>
        <time>2023-05-17T14:13:41Z</time>
      </trkpt>
      <trkpt lat="49.96516" lon="2.44152">
        <ele>47.4</ele>
        <time>2023-05-17T14:13:42Z</time>
      </trkpt>
      <trkpt lat="49.96517" lon="2.44149">
        <ele>47.5</ele>
        <time>2023-05-17T14:13:43Z</time>
      </trkpt>
      <trkpt lat="49.96517" lon="2.44147">
        <ele>47.5</ele>
        <time>2023-05-17T14:13:45Z</time>
      </trkpt>
      <trkpt lat="49.96517" lon="2.44146">
        <ele>47.6</ele>
        <time>2023-05-17T14:13:46Z</time>
      </trkpt>
      <trkpt lat="49.96517" lon="2.44143">
        <ele>47.7</ele>
        <time>2023-05-17T14:13:47Z</time>
      </trkpt>
      <trkpt lat="49.96517" lon="2.44141">
        <ele>47.7</ele>
        <time>2023-05-17T14:13:48Z</time>
      </trkpt>
      <trkpt lat="49.96517" lon="2.4414">
        <ele>47.7</ele>
        <time>2023-05-17T14:13:49Z</time>
      </trkpt>
      <trkpt lat="49.96517" lon="2.44138">
        <ele>47.8</ele>
        <time>2023-05-17T14:13:50Z</time>
      </trkpt>
      <trkpt lat="49.96517" lon="2.44136">
        <ele>47.8</ele>
        <time>2023-05-17T14:13:51Z</time>
      </trkpt>
      <trkpt lat="49.96516" lon="2.44134">
        <ele>47.9</ele>
        <time>2023-05-17T14:13:53Z</time>
      </trkpt>
      <trkpt lat="49.96516" lon="2.44132">
        <ele>48</ele>
        <time>2023-05-17T14:13:54Z</time>
      </trkpt>
      <trkpt lat="49.96516" lon="2.4413">
        <ele>48</ele>
        <time>2023-05-17T14:13:55Z</time>
      </trkpt>
      <trkpt lat="49.96516" lon="2.44127">
        <ele>48.1</ele>
        <time>2023-05-17T14:13:56Z</time>
      </trkpt>
      <trkpt lat="49.96515" lon="2.44125">
        <ele>48.2</ele>
        <time>2023-05-17T14:13:57Z</time>
      </trkpt>
      <trkpt lat="49.96515" lon="2.44124">
        <ele>48.2</ele>
        <time>2023-05-17T14:13:58Z</time>
      </trkpt>
      <trkpt lat="49.96515" lon="2.44122">
        <ele>48.3</ele>
        <time>2023-05-17T14:13:59Z</time>
      </trkpt>
      <trkpt lat="49.96514" lon="2.44119">
        <ele>48.3</ele>
        <time>2023-05-17T14:14:01Z</time>
      </trkpt>
      <trkpt lat="49.96514" lon="2.44118">
        <ele>48.4</ele>
        <time>2023-05-17T14:14:02Z</time>
      </trkpt>
      <trkpt lat="49.96513" lon="2.44116">
        <ele>48.4</ele>
        <time>2023-05-17T14:14:03Z</time>
      </trkpt>
      <trkpt lat="49.96512" lon="2.44114">
        <ele>48.5</ele>
        <time>2023-05-17T14:14:05Z</time>
      </trkpt>
      <trkpt lat="49.96512" lon="2.44111">
        <ele>48.6</ele>
        <time>2023-05-17T14:14:06Z</time>
      </trkpt>
      <trkpt lat="49.96511" lon="2.4411">
        <ele>48.7</ele>
        <time>2023-05-17T14:14:07Z</time>
      </trkpt>
      <trkpt lat="49.9651" lon="2.44108">
        <ele>48.7</ele>
        <time>2023-05-17T14:14:09Z</time>
      </trkpt>
      <trkpt lat="49.9651" lon="2.44106">
        <ele>48.8</ele>
        <time>2023-05-17T14:14:10Z</time>
      </trkpt>
      <trkpt lat="49.96509" lon="2.44103">
        <ele>48.9</ele>
        <time>2023-05-17T14:14:11Z</time>
      </trkpt>
      <trkpt lat="49.96509" lon="2.44102">
        <ele>48.9</ele>
        <time>2023-05-17T14:14:12Z</time>
      </trkpt>
      <trkpt lat="49.96508" lon="2.441">
        <ele>49</ele>
        <time>2023-05-17T14:14:13Z</time>
      </trkpt>
      <trkpt lat="49.96508" lon="2.44099">
        <ele>49</ele>
        <time>2023-05-17T14:14:14Z</time>
      </trkpt>
      <trkpt lat="49.96508" lon="2.44097">
        <ele>49.1</ele>
        <time>2023-05-17T14:14:16Z</time>
      </trkpt>
      <trkpt lat="49.96508" lon="2.44095">
        <ele>49.1</ele>
        <time>2023-05-17T14:14:17Z</time>
      </trkpt>
      <trkpt lat="49.96507" lon="2.44094">
        <ele>49.2</ele>
        <time>2023-05-17T14:14:18Z</time>
      </trkpt>
      <trkpt lat="49.96507" lon="2.44092">
        <ele>49.2</ele>
        <time>2023-05-17T14:14:19Z</time>
      </trkpt>
      <trkpt lat="49.96507" lon="2.4409">
        <ele>49.3</ele>
        <time>2023-05-17T14:14:20Z</time>
      </trkpt>
      <trkpt lat="49.96507" lon="2.44089">
        <ele>49.3</ele>
        <time>2023-05-17T14:14:21Z</time>
      </trkpt>
      <trkpt lat="49.96506" lon="2.44087">
        <ele>49.4</ele>
        <time>2023-05-17T14:14:23Z</time>
      </trkpt>
      <trkpt lat="49.96506" lon="2.44085">
        <ele>49.5</ele>
        <time>2023-05-17T14:14:24Z</time>
      </trkpt>
      <trkpt lat="49.96505" lon="2.44082">
        <ele>49.6</ele>
        <time>2023-05-17T14:14:25Z</time>
      </trkpt>
      <trkpt lat="49.96505" lon="2.44081">
        <ele>49.6</ele>
        <time>2023-05-17T14:14:26Z</time>
      </trkpt>
      <trkpt lat="49.96505" lon="2.44079">
        <ele>49.6</ele>
        <time>2023-05-17T14:14:27Z</time>
      </trkpt>
      <trkpt lat="49.96504" lon="2.44076">
        <ele>49.8</ele>
        <time>2023-05-17T14:14:28Z</time>
      </trkpt>
      <trkpt lat="49.96504" lon="2.44075">
        <ele>49.8</ele>
        <time>2023-05-17T14:14:30Z</time>
      </trkpt>
      <trkpt lat="49.96503" lon="2.44073">
        <ele>49.8</ele>
        <time>2023-05-17T14:14:31Z</time>
      </trkpt>
      <trkpt lat="49.96503" lon="2.44071">
        <ele>49.9</ele>
        <time>2023-05-17T14:14:32Z</time>
      </trkpt>
      <trkpt lat="49.96502" lon="2.44069">
        <ele>50</ele>
        <time>2023-05-17T14:14:33Z</time>
      </trkpt>
      <trkpt lat="49.96501" lon="2.44068">
        <ele>50</ele>
        <time>2023-05-17T14:14:34Z</time>
      </trkpt>
      <trkpt lat="49.96501" lon="2.44066">
        <ele>50.1</ele>
        <time>2023-05-17T14:14:35Z</time>
      </trkpt>
      <trkpt lat="49.965" lon="2.44064">
        <ele>50.2</ele>
        <time>2023-05-17T14:14:37Z</time>
      </trkpt>
      <trkpt lat="49.965" lon="2.44062">
        <ele>50.2</ele>
        <time>2023-05-17T14:14:38Z</time>
      </trkpt>
      <trkpt lat="49.96499" lon="2.44058">
        <ele>50.3</ele>
        <time>2023-05-17T14:14:39Z</time>
      </trkpt>
      <trkpt lat="49.96499" lon="2.44057">
        <ele>50.4</ele>
        <time>2023-05-17T14:14:40Z</time>
      </trkpt>
      <trkpt lat="49.96498" lon="2.44056">
        <ele>50.4</ele>
        <time>2023-05-17T14:14:41Z</time>
      </trkpt>
      <trkpt lat="49.96498" lon="2.44054">
        <ele>50.5</ele>
        <time>2023-05-17T14:14:42Z</time>
      </trkpt>
      <trkpt lat="49.96497" lon="2.44052">
        <ele>50.5</ele>
        <time>2023-05-17T14:14:44Z</time>
      </trkpt>
      <trkpt lat="49.96497" lon="2.44049">
        <ele>50.6</ele>
        <time>2023-05-17T14:14:45Z</time>
      </trkpt>
      <trkpt lat="49.96496" lon="2.44048">
        <ele>50.7</ele>
        <time>2023-05-17T14:14:46Z</time>
      </trkpt>
      <trkpt lat="49.96496" lon="2.44045">
        <ele>50.7</ele>
        <time>2023-05-17T14:14:47Z</time>
      </trkpt>
      <trkpt lat="49.96496" lon="2.44043">
        <ele>50.8</ele>
        <time>2023-05-17T14:14:48Z</time>
      </trkpt>
      <trkpt lat="49.96495" lon="2.4404">
        <ele>50.9</ele>
        <time>2023-05-17T14:14:49Z</time>
      </trkpt>
      <trkpt lat="49.96495" lon="2.44039">
        <ele>50.9</ele>
        <time>2023-05-17T14:14:51Z</time>
      </trkpt>
      <trkpt lat="49.96495" lon="2.44038">
        <ele>51</ele>
        <time>2023-05-17T14:14:52Z</time>
      </trkpt>
      <trkpt lat="49.96495" lon="2.44034">
        <ele>51</ele>
        <time>2023-05-17T14:14:53Z</time>
      </trkpt>
      <trkpt lat="49.96495" lon="2.44033">
        <ele>51.1</ele>
        <time>2023-05-17T14:14:54Z</time>
      </trkpt>
      <trkpt lat="49.96495" lon="2.44032">
        <ele>51.1</ele>
        <time>2023-05-17T14:14:55Z</time>
      </trkpt>
      <trkpt lat="49.96495" lon="2.44029">
        <ele>51.2</ele>
        <time>2023-05-17T14:14:56Z</time>
      </trkpt>
      <trkpt lat="49.96495" lon="2.44027">
        <ele>51.2</ele>
        <time>2023-05-17T14:14:57Z</time>
      </trkpt>
      <trkpt lat="49.96495" lon="2.44026">
        <ele>51.3</ele>
        <time>2023-05-17T14:14:58Z</time>
      </trkpt>
      <trkpt lat="49.96495" lon="2.44023">
        <ele>51.4</ele>
        <time>2023-05-17T14:15:00Z</time>
      </trkpt>
      <trkpt lat="49.96495" lon="2.44022">
        <ele>51.4</ele>
        <time>2023-05-17T14:15:01Z</time>
      </trkpt>
      <trkpt lat="49.96495" lon="2.4402">
        <ele>51.4</ele>
        <time>2023-05-17T14:15:02Z</time>
      </trkpt>
      <trkpt lat="49.96495" lon="2.44017">
        <ele>51.5</ele>
        <time>2023-05-17T14:15:03Z</time>
      </trkpt>
      <trkpt lat="49.96496" lon="2.44016">
        <ele>51.6</ele>
        <time>2023-05-17T14:15:04Z</time>
      </trkpt>
      <trkpt lat="49.96496" lon="2.44015">
        <ele>51.6</ele>
        <time>2023-05-17T14:15:05Z</time>
      </trkpt>
      <trkpt lat="49.96496" lon="2.44013">
        <ele>51.7</ele>
        <time>2023-05-17T14:15:06Z</time>
      </trkpt>
      <trkpt lat="49.96496" lon="2.44011">
        <ele>51.7</ele>
        <time>2023-05-17T14:15:08Z</time>
      </trkpt>
      <trkpt lat="49.96496" lon="2.44009">
        <ele>51.8</ele>
        <time>2023-05-17T14:15:09Z</time>
      </trkpt>
      <trkpt lat="49.96496" lon="2.44007">
        <ele>51.8</ele>
        <time>2023-05-17T14:15:10Z</time>
      </trkpt>
      <trkpt lat="49.96497" lon="2.44006">
        <ele>51.9</ele>
        <time>2023-05-17T14:15:11Z</time>
      </trkpt>
      <trkpt lat="49.96497" lon="2.44004">
        <ele>51.9</ele>
        <time>2023-05-17T14:15:12Z</time>
      </trkpt>
      <trkpt lat="49.96496" lon="2.44003">
        <ele>52</ele>
        <time>2023-05-17T14:15:13Z</time>
      </trkpt>
      <trkpt lat="49.96496" lon="2.44">
        <ele>52</ele>
        <time>2023-05-17T14:15:15Z</time>
      </trkpt>
      <trkpt lat="49.96495" lon="2.43999">
        <ele>52.1</ele>
        <time>2023-05-17T14:15:16Z</time>
      </trkpt>
      <trkpt lat="49.96494" lon="2.43996">
        <ele>52.1</ele>
        <time>2023-05-17T14:15:18Z</time>
      </trkpt>
      <trkpt lat="49.96494" lon="2.43995">
        <ele>52.2</ele>
        <time>2023-05-17T14:15:19Z</time>
      </trkpt>
      <trkpt lat="49.96493" lon="2.43994">
        <ele>52.2</ele>
        <time>2023-05-17T14:15:20Z</time>
      </trkpt>
      <trkpt lat="49.96492" lon="2.43993">
        <ele>52.3</ele>
        <time>2023-05-17T14:15:21Z</time>
      </trkpt>
      <trkpt lat="49.96492" lon="2.43991">
        <ele>52.3</ele>
        <time>2023-05-17T14:15:22Z</time>
      </trkpt>
      <trkpt lat="49.96491" lon="2.43989">
        <ele>52.4</ele>
        <time>2023-05-17T14:15:24Z</time>
      </trkpt>
      <trkpt lat="49.96491" lon="2.43987">
        <ele>52.4</ele>
        <time>2023-05-17T14:15:25Z</time>
      </trkpt>
      <trkpt lat="49.96491" lon="2.43986">
        <ele>52.5</ele>
        <time>2023-05-17T14:15:26Z</time>
      </trkpt>
      <trkpt lat="49.96491" lon="2.43984">
        <ele>52.5</ele>
        <time>2023-05-17T14:15:27Z</time>
      </trkpt>
      <trkpt lat="49.96491" lon="2.43981">
        <ele>52.6</ele>
        <time>2023-05-17T14:15:29Z</time>
      </trkpt>
      <trkpt lat="49.96491" lon="2.4398">
        <ele>52.3</ele>
        <time>2023-05-17T14:15:30Z</time>
      </trkpt>
      <trkpt lat="49.96491" lon="2.43978">
        <ele>52.2</ele>
        <time>2023-05-17T14:15:32Z</time>
      </trkpt>
      <trkpt lat="49.9649" lon="2.43977">
        <ele>52.2</ele>
        <time>2023-05-17T14:15:33Z</time>
      </trkpt>
      <trkpt lat="49.9649" lon="2.43975">
        <ele>52.1</ele>
        <time>2023-05-17T14:15:34Z</time>
      </trkpt>
      <trkpt lat="49.96489" lon="2.43975">
        <ele>52.1</ele>
        <time>2023-05-17T14:15:35Z</time>
      </trkpt>
      <trkpt lat="49.96489" lon="2.43975">
        <ele>52.1</ele>
        <time>2023-05-17T14:15:36Z</time>
      </trkpt>
      <trkpt lat="49.96488" lon="2.43974">
        <ele>52</ele>
        <time>2023-05-17T14:15:37Z</time>
      </trkpt>
      <trkpt lat="49.96486" lon="2.43975">
        <ele>51.9</ele>
        <time>2023-05-17T14:15:39Z</time>
      </trkpt>
      <trkpt lat="49.96485" lon="2.43975">
        <ele>51.8</ele>
        <time>2023-05-17T14:15:40Z</time>
      </trkpt>
      <trkpt lat="49.96484" lon="2.43975">
        <ele>51.8</ele>
        <time>2023-05-17T14:15:41Z</time>
      </trkpt>
      <trkpt lat="49.96483" lon="2.43975">
        <ele>51.7</ele>
        <time>2023-05-17T14:15:42Z</time>
      </trkpt>
      <trkpt lat="49.96482" lon="2.43975">
        <ele>51.7</ele>
        <time>2023-05-17T14:15:43Z</time>
      </trkpt>
      <trkpt lat="49.96481" lon="2.43975">
        <ele>51.6</ele>
        <time>2023-05-17T14:15:44Z</time>
      </trkpt>
      <trkpt lat="49.9648" lon="2.43976">
        <ele>51.6</ele>
        <time>2023-05-17T14:15:45Z</time>
      </trkpt>
      <trkpt lat="49.96479" lon="2.43976">
        <ele>51.5</ele>
        <time>2023-05-17T14:15:47Z</time>
      </trkpt>
      <trkpt lat="49.96477" lon="2.43977">
        <ele>51.4</ele>
        <time>2023-05-17T14:15:48Z</time>
      </trkpt>
      <trkpt lat="49.96476" lon="2.43979">
        <ele>51.3</ele>
        <time>2023-05-17T14:15:49Z</time>
      </trkpt>
      <trkpt lat="49.96475" lon="2.43979">
        <ele>51.2</ele>
        <time>2023-05-17T14:15:50Z</time>
      </trkpt>
      <trkpt lat="49.96474" lon="2.4398">
        <ele>51.1</ele>
        <time>2023-05-17T14:15:51Z</time>
      </trkpt>
      <trkpt lat="49.96473" lon="2.43982">
        <ele>51</ele>
        <time>2023-05-17T14:15:52Z</time>
      </trkpt>
      <trkpt lat="49.96472" lon="2.43983">
        <ele>50.9</ele>
        <time>2023-05-17T14:15:53Z</time>
      </trkpt>
      <trkpt lat="49.96472" lon="2.43985">
        <ele>50.9</ele>
        <time>2023-05-17T14:15:54Z</time>
      </trkpt>
      <trkpt lat="49.96471" lon="2.43986">
        <ele>50.8</ele>
        <time>2023-05-17T14:15:55Z</time>
      </trkpt>
      <trkpt lat="49.9647" lon="2.43988">
        <ele>50.6</ele>
        <time>2023-05-17T14:15:57Z</time>
      </trkpt>
      <trkpt lat="49.96468" lon="2.43989">
        <ele>50.5</ele>
        <time>2023-05-17T14:15:58Z</time>
      </trkpt>
      <trkpt lat="49.96467" lon="2.4399">
        <ele>50.4</ele>
        <time>2023-05-17T14:15:59Z</time>
      </trkpt>
      <trkpt lat="49.96465" lon="2.43991">
        <ele>50.2</ele>
        <time>2023-05-17T14:16:00Z</time>
      </trkpt>
      <trkpt lat="49.96464" lon="2.43991">
        <ele>50.1</ele>
        <time>2023-05-17T14:16:01Z</time>
      </trkpt>
      <trkpt lat="49.96462" lon="2.43992">
        <ele>50</ele>
        <time>2023-05-17T14:16:02Z</time>
      </trkpt>
      <trkpt lat="49.9646" lon="2.43994">
        <ele>49.7</ele>
        <time>2023-05-17T14:16:04Z</time>
      </trkpt>
      <trkpt lat="49.96458" lon="2.43994">
        <ele>49.6</ele>
        <time>2023-05-17T14:16:05Z</time>
      </trkpt>
      <trkpt lat="49.96457" lon="2.43995">
        <ele>49.4</ele>
        <time>2023-05-17T14:16:07Z</time>
      </trkpt>
      <trkpt lat="49.96455" lon="2.43996">
        <ele>49.2</ele>
        <time>2023-05-17T14:16:08Z</time>
      </trkpt>
      <trkpt lat="49.96454" lon="2.43998">
        <ele>49.1</ele>
        <time>2023-05-17T14:16:09Z</time>
      </trkpt>
      <trkpt lat="49.96453" lon="2.43999">
        <ele>48.9</ele>
        <time>2023-05-17T14:16:10Z</time>
      </trkpt>
      <trkpt lat="49.96451" lon="2.44">
        <ele>48.8</ele>
        <time>2023-05-17T14:16:11Z</time>
      </trkpt>
      <trkpt lat="49.9645" lon="2.44001">
        <ele>48.6</ele>
        <time>2023-05-17T14:16:12Z</time>
      </trkpt>
      <trkpt lat="49.96448" lon="2.44002">
        <ele>48.4</ele>
        <time>2023-05-17T14:16:14Z</time>
      </trkpt>
      <trkpt lat="49.96447" lon="2.44003">
        <ele>48.3</ele>
        <time>2023-05-17T14:16:15Z</time>
      </trkpt>
      <trkpt lat="49.96445" lon="2.44004">
        <ele>48</ele>
        <time>2023-05-17T14:16:16Z</time>
      </trkpt>
      <trkpt lat="49.96442" lon="2.44006">
        <ele>47.7</ele>
        <time>2023-05-17T14:16:18Z</time>
      </trkpt>
      <trkpt lat="49.96441" lon="2.44007">
        <ele>47.6</ele>
        <time>2023-05-17T14:16:19Z</time>
      </trkpt>
      <trkpt lat="49.96438" lon="2.44009">
        <ele>47.3</ele>
        <time>2023-05-17T14:16:20Z</time>
      </trkpt>
      <trkpt lat="49.96437" lon="2.4401">
        <ele>47.2</ele>
        <time>2023-05-17T14:16:21Z</time>
      </trkpt>
      <trkpt lat="49.96436" lon="2.44011">
        <ele>47</ele>
        <time>2023-05-17T14:16:22Z</time>
      </trkpt>
      <trkpt lat="49.96433" lon="2.44012">
        <ele>46.7</ele>
        <time>2023-05-17T14:16:24Z</time>
      </trkpt>
      <trkpt lat="49.96431" lon="2.44013">
        <ele>46.6</ele>
        <time>2023-05-17T14:16:25Z</time>
      </trkpt>
      <trkpt lat="49.9643" lon="2.44014">
        <ele>46.4</ele>
        <time>2023-05-17T14:16:26Z</time>
      </trkpt>
      <trkpt lat="49.96428" lon="2.44015">
        <ele>46.2</ele>
        <time>2023-05-17T14:16:28Z</time>
      </trkpt>
      <trkpt lat="49.96427" lon="2.44016">
        <ele>46.1</ele>
        <time>2023-05-17T14:16:29Z</time>
      </trkpt>
      <trkpt lat="49.96425" lon="2.44017">
        <ele>45.9</ele>
        <time>2023-05-17T14:16:30Z</time>
      </trkpt>
      <trkpt lat="49.96424" lon="2.44017">
        <ele>45.8</ele>
        <time>2023-05-17T14:16:31Z</time>
      </trkpt>
      <trkpt lat="49.96423" lon="2.44018">
        <ele>45.8</ele>
        <time>2023-05-17T14:16:32Z</time>
      </trkpt>
      <trkpt lat="49.96423" lon="2.44018">
        <ele>45.7</ele>
        <time>2023-05-17T14:16:33Z</time>
      </trkpt>
      <trkpt lat="49.96422" lon="2.44018">
        <ele>45.7</ele>
        <time>2023-05-17T14:16:34Z</time>
      </trkpt>
      <trkpt lat="49.96422" lon="2.44018">
        <ele>45.6</ele>
        <time>2023-05-17T14:16:35Z</time>
      </trkpt>
      <trkpt lat="49.96421" lon="2.44018">
        <ele>45.5</ele>
        <time>2023-05-17T14:16:37Z</time>
      </trkpt>
      <trkpt lat="49.9642" lon="2.44018">
        <ele>45.5</ele>
        <time>2023-05-17T14:16:38Z</time>
      </trkpt>
      <trkpt lat="49.9642" lon="2.44018">
        <ele>45.4</ele>
        <time>2023-05-17T14:16:39Z</time>
      </trkpt>
      <trkpt lat="49.96419" lon="2.44018">
        <ele>45.4</ele>
        <time>2023-05-17T14:16:40Z</time>
      </trkpt>
      <trkpt lat="49.96418" lon="2.44019">
        <ele>45.3</ele>
        <time>2023-05-17T14:16:41Z</time>
      </trkpt>
      <trkpt lat="49.96417" lon="2.44018">
        <ele>45.1</ele>
        <time>2023-05-17T14:16:42Z</time>
      </trkpt>
      <trkpt lat="49.96415" lon="2.44018">
        <ele>45</ele>
        <time>2023-05-17T14:16:43Z</time>
      </trkpt>
      <trkpt lat="49.96414" lon="2.44018">
        <ele>44.9</ele>
        <time>2023-05-17T14:16:44Z</time>
      </trkpt>
      <trkpt lat="49.96413" lon="2.44018">
        <ele>44.8</ele>
        <time>2023-05-17T14:16:45Z</time>
      </trkpt>
      <trkpt lat="49.96411" lon="2.44019">
        <ele>44.7</ele>
        <time>2023-05-17T14:16:47Z</time>
      </trkpt>
      <trkpt lat="49.9641" lon="2.44019">
        <ele>44.6</ele>
        <time>2023-05-17T14:16:48Z</time>
      </trkpt>
      <trkpt lat="49.96408" lon="2.44019">
        <ele>44.5</ele>
        <time>2023-05-17T14:16:49Z</time>
      </trkpt>
      <trkpt lat="49.96407" lon="2.4402">
        <ele>44.4</ele>
        <time>2023-05-17T14:16:50Z</time>
      </trkpt>
      <trkpt lat="49.96406" lon="2.4402">
        <ele>44.3</ele>
        <time>2023-05-17T14:16:51Z</time>
      </trkpt>
      <trkpt lat="49.96405" lon="2.44021">
        <ele>44.2</ele>
        <time>2023-05-17T14:16:52Z</time>
      </trkpt>
      <trkpt lat="49.96404" lon="2.4402">
        <ele>44.2</ele>
        <time>2023-05-17T14:16:53Z</time>
      </trkpt>
      <trkpt lat="49.96402" lon="2.4402">
        <ele>44.1</ele>
        <time>2023-05-17T14:16:54Z</time>
      </trkpt>
      <trkpt lat="49.96401" lon="2.4402">
        <ele>44</ele>
        <time>2023-05-17T14:16:55Z</time>
      </trkpt>
      <trkpt lat="49.96401" lon="2.44019">
        <ele>44</ele>
        <time>2023-05-17T14:16:57Z</time>
      </trkpt>
      <trkpt lat="49.964" lon="2.44019">
        <ele>43.9</ele>
        <time>2023-05-17T14:16:58Z</time>
      </trkpt>
      <trkpt lat="49.96399" lon="2.44019">
        <ele>43.9</ele>
        <time>2023-05-17T14:16:59Z</time>
      </trkpt>
      <trkpt lat="49.96398" lon="2.44018">
        <ele>43.8</ele>
        <time>2023-05-17T14:17:00Z</time>
      </trkpt>
      <trkpt lat="49.96397" lon="2.44019">
        <ele>43.8</ele>
        <time>2023-05-17T14:17:01Z</time>
      </trkpt>
      <trkpt lat="49.96394" lon="2.44018">
        <ele>43.6</ele>
        <time>2023-05-17T14:17:03Z</time>
      </trkpt>
      <trkpt lat="49.96393" lon="2.44018">
        <ele>43.6</ele>
        <time>2023-05-17T14:17:04Z</time>
      </trkpt>
      <trkpt lat="49.96391" lon="2.44018">
        <ele>43.5</ele>
        <time>2023-05-17T14:17:05Z</time>
      </trkpt>
      <trkpt lat="49.96389" lon="2.44018">
        <ele>43.4</ele>
        <time>2023-05-17T14:17:06Z</time>
      </trkpt>
      <trkpt lat="49.96387" lon="2.44018">
        <ele>43.4</ele>
        <time>2023-05-17T14:17:07Z</time>
      </trkpt>
      <trkpt lat="49.96384" lon="2.44017">
        <ele>43.3</ele>
        <time>2023-05-17T14:17:09Z</time>
      </trkpt>
      <trkpt lat="49.96383" lon="2.44017">
        <ele>43.2</ele>
        <time>2023-05-17T14:17:10Z</time>
      </trkpt>
      <trkpt lat="49.96381" lon="2.44017">
        <ele>43.1</ele>
        <time>2023-05-17T14:17:11Z</time>
      </trkpt>
      <trkpt lat="49.9638" lon="2.44017">
        <ele>43</ele>
        <time>2023-05-17T14:17:12Z</time>
      </trkpt>
      <trkpt lat="49.96379" lon="2.44017">
        <ele>42.9</ele>
        <time>2023-05-17T14:17:13Z</time>
      </trkpt>
      <trkpt lat="49.96377" lon="2.44016">
        <ele>42.8</ele>
        <time>2023-05-17T14:17:15Z</time>
      </trkpt>
      <trkpt lat="49.96376" lon="2.44015">
        <ele>42.8</ele>
        <time>2023-05-17T14:17:16Z</time>
      </trkpt>
      <trkpt lat="49.96377" lon="2.44012">
        <ele>42.7</ele>
        <time>2023-05-17T14:17:17Z</time>
      </trkpt>
      <trkpt lat="49.96376" lon="2.44011">
        <ele>42.6</ele>
        <time>2023-05-17T14:17:18Z</time>
      </trkpt>
      <trkpt lat="49.96376" lon="2.4401">
        <ele>42.6</ele>
        <time>2023-05-17T14:17:20Z</time>
      </trkpt>
      <trkpt lat="49.96376" lon="2.44009">
        <ele>42.6</ele>
        <time>2023-05-17T14:17:21Z</time>
      </trkpt>
      <trkpt lat="49.96376" lon="2.44007">
        <ele>42.5</ele>
        <time>2023-05-17T14:17:22Z</time>
      </trkpt>
      <trkpt lat="49.96376" lon="2.44006">
        <ele>42.5</ele>
        <time>2023-05-17T14:17:23Z</time>
      </trkpt>
      <trkpt lat="49.96375" lon="2.44004">
        <ele>42.4</ele>
        <time>2023-05-17T14:17:25Z</time>
      </trkpt>
      <trkpt lat="49.96374" lon="2.44002">
        <ele>42.3</ele>
        <time>2023-05-17T14:17:26Z</time>
      </trkpt>
      <trkpt lat="49.96374" lon="2.43999">
        <ele>42.3</ele>
        <time>2023-05-17T14:17:27Z</time>
      </trkpt>
      <trkpt lat="49.96375" lon="2.43997">
        <ele>42.2</ele>
        <time>2023-05-17T14:17:28Z</time>
      </trkpt>
      <trkpt lat="49.96375" lon="2.43994">
        <ele>42.1</ele>
        <time>2023-05-17T14:17:29Z</time>
      </trkpt>
      <trkpt lat="49.96375" lon="2.43992">
        <ele>42.1</ele>
        <time>2023-05-17T14:17:30Z</time>
      </trkpt>
      <trkpt lat="49.96375" lon="2.43991">
        <ele>42.1</ele>
        <time>2023-05-17T14:17:31Z</time>
      </trkpt>
      <trkpt lat="49.96375" lon="2.43989">
        <ele>42</ele>
        <time>2023-05-17T14:17:32Z</time>
      </trkpt>
      <trkpt lat="49.96375" lon="2.43986">
        <ele>41.9</ele>
        <time>2023-05-17T14:17:34Z</time>
      </trkpt>
      <trkpt lat="49.96375" lon="2.43983">
        <ele>41.9</ele>
        <time>2023-05-17T14:17:35Z</time>
      </trkpt>
      <trkpt lat="49.96375" lon="2.4398">
        <ele>41.8</ele>
        <time>2023-05-17T14:17:36Z</time>
      </trkpt>
      <trkpt lat="49.96374" lon="2.43978">
        <ele>41.8</ele>
        <time>2023-05-17T14:17:37Z</time>
      </trkpt>
      <trkpt lat="49.96374" lon="2.43976">
        <ele>41.7</ele>
        <time>2023-05-17T14:17:38Z</time>
      </trkpt>
      <trkpt lat="49.96373" lon="2.43972">
        <ele>41.6</ele>
        <time>2023-05-17T14:17:39Z</time>
      </trkpt>
      <trkpt lat="49.96373" lon="2.4397">
        <ele>41.6</ele>
        <time>2023-05-17T14:17:41Z</time>
      </trkpt>
      <trkpt lat="49.96372" lon="2.43969">
        <ele>41.6</ele>
        <time>2023-05-17T14:17:42Z</time>
      </trkpt>
      <trkpt lat="49.96372" lon="2.43967">
        <ele>41.6</ele>
        <time>2023-05-17T14:17:43Z</time>
      </trkpt>
      <trkpt lat="49.96372" lon="2.43966">
        <ele>41.5</ele>
        <time>2023-05-17T14:17:44Z</time>
      </trkpt>
      <trkpt lat="49.96372" lon="2.43963">
        <ele>41.5</ele>
        <time>2023-05-17T14:17:45Z</time>
      </trkpt>
      <trkpt lat="49.96372" lon="2.43961">
        <ele>41.5</ele>
        <time>2023-05-17T14:17:46Z</time>
      </trkpt>
      <trkpt lat="49.96372" lon="2.43959">
        <ele>41.4</ele>
        <time>2023-05-17T14:17:47Z</time>
      </trkpt>
      <trkpt lat="49.96371" lon="2.43958">
        <ele>41.4</ele>
        <time>2023-05-17T14:17:48Z</time>
      </trkpt>
      <trkpt lat="49.9637" lon="2.43956">
        <ele>41.4</ele>
        <time>2023-05-17T14:17:50Z</time>
      </trkpt>
      <trkpt lat="49.96368" lon="2.43954">
        <ele>41.3</ele>
        <time>2023-05-17T14:17:51Z</time>
      </trkpt>
      <trkpt lat="49.96367" lon="2.43953">
        <ele>41.3</ele>
        <time>2023-05-17T14:17:53Z</time>
      </trkpt>
      <trkpt lat="49.96366" lon="2.43952">
        <ele>41.3</ele>
        <time>2023-05-17T14:17:54Z</time>
      </trkpt>
      <trkpt lat="49.96365" lon="2.43951">
        <ele>41.3</ele>
        <time>2023-05-17T14:17:55Z</time>
      </trkpt>
      <trkpt lat="49.96364" lon="2.4395">
        <ele>41.2</ele>
        <time>2023-05-17T14:17:56Z</time>
      </trkpt>
      <trkpt lat="49.96363" lon="2.43947">
        <ele>41.2</ele>
        <time>2023-05-17T14:17:57Z</time>
      </trkpt>
      <trkpt lat="49.96363" lon="2.43946">
        <ele>41.2</ele>
        <time>2023-05-17T14:17:58Z</time>
      </trkpt>
      <trkpt lat="49.96363" lon="2.43945">
        <ele>41.2</ele>
        <time>2023-05-17T14:17:59Z</time>
      </trkpt>
      <trkpt lat="49.96362" lon="2.43943">
        <ele>41.2</ele>
        <time>2023-05-17T14:18:01Z</time>
      </trkpt>
      <trkpt lat="49.96362" lon="2.43941">
        <ele>41.1</ele>
        <time>2023-05-17T14:18:02Z</time>
      </trkpt>
      <trkpt lat="49.96363" lon="2.4394">
        <ele>41.1</ele>
        <time>2023-05-17T14:18:03Z</time>
      </trkpt>
      <trkpt lat="49.96363" lon="2.43938">
        <ele>41.1</ele>
        <time>2023-05-17T14:18:04Z</time>
      </trkpt>
      <trkpt lat="49.96363" lon="2.43936">
        <ele>41.1</ele>
        <time>2023-05-17T14:18:05Z</time>
      </trkpt>
      <trkpt lat="49.96363" lon="2.43935">
        <ele>41.1</ele>
        <time>2023-05-17T14:18:07Z</time>
      </trkpt>
      <trkpt lat="49.96363" lon="2.43933">
        <ele>41</ele>
        <time>2023-05-17T14:18:08Z</time>
      </trkpt>
      <trkpt lat="49.96362" lon="2.43932">
        <ele>41</ele>
        <time>2023-05-17T14:18:10Z</time>
      </trkpt>
      <trkpt lat="49.96362" lon="2.4393">
        <ele>41</ele>
        <time>2023-05-17T14:18:11Z</time>
      </trkpt>
      <trkpt lat="49.96362" lon="2.43928">
        <ele>41</ele>
        <time>2023-05-17T14:18:12Z</time>
      </trkpt>
      <trkpt lat="49.96361" lon="2.43926">
        <ele>41</ele>
        <time>2023-05-17T14:18:13Z</time>
      </trkpt>
      <trkpt lat="49.9636" lon="2.43924">
        <ele>41</ele>
        <time>2023-05-17T14:18:14Z</time>
      </trkpt>
      <trkpt lat="49.96358" lon="2.43921">
        <ele>40.9</ele>
        <time>2023-05-17T14:18:16Z</time>
      </trkpt>
      <trkpt lat="49.96357" lon="2.43919">
        <ele>40.9</ele>
        <time>2023-05-17T14:18:17Z</time>
      </trkpt>
      <trkpt lat="49.96356" lon="2.43917">
        <ele>40.9</ele>
        <time>2023-05-17T14:18:18Z</time>
      </trkpt>
      <trkpt lat="49.96355" lon="2.43915">
        <ele>40.9</ele>
        <time>2023-05-17T14:18:20Z</time>
      </trkpt>
      <trkpt lat="49.96354" lon="2.43913">
        <ele>40.9</ele>
        <time>2023-05-17T14:18:21Z</time>
      </trkpt>
      <trkpt lat="49.96352" lon="2.43909">
        <ele>40.9</ele>
        <time>2023-05-17T14:18:22Z</time>
      </trkpt>
      <trkpt lat="49.96351" lon="2.43908">
        <ele>40.9</ele>
        <time>2023-05-17T14:18:23Z</time>
      </trkpt>
      <trkpt lat="49.96348" lon="2.43905">
        <ele>40.8</ele>
        <time>2023-05-17T14:18:24Z</time>
      </trkpt>
      <trkpt lat="49.96347" lon="2.43904">
        <ele>40.8</ele>
        <time>2023-05-17T14:18:25Z</time>
      </trkpt>
      <trkpt lat="49.96346" lon="2.43903">
        <ele>40.8</ele>
        <time>2023-05-17T14:18:26Z</time>
      </trkpt>
      <trkpt lat="49.96345" lon="2.43901">
        <ele>40.8</ele>
        <time>2023-05-17T14:18:27Z</time>
      </trkpt>
      <trkpt lat="49.96343" lon="2.43897">
        <ele>40.8</ele>
        <time>2023-05-17T14:18:29Z</time>
      </trkpt>
      <trkpt lat="49.96342" lon="2.43896">
        <ele>40.8</ele>
        <time>2023-05-17T14:18:30Z</time>
      </trkpt>
      <trkpt lat="49.96341" lon="2.43894">
        <ele>40.8</ele>
        <time>2023-05-17T14:18:32Z</time>
      </trkpt>
      <trkpt lat="49.9634" lon="2.43892">
        <ele>40.8</ele>
        <time>2023-05-17T14:18:33Z</time>
      </trkpt>
      <trkpt lat="49.96339" lon="2.4389">
        <ele>40.8</ele>
        <time>2023-05-17T14:18:34Z</time>
      </trkpt>
      <trkpt lat="49.96338" lon="2.43888">
        <ele>40.8</ele>
        <time>2023-05-17T14:18:35Z</time>
      </trkpt>
      <trkpt lat="49.96337" lon="2.43887">
        <ele>40.8</ele>
        <time>2023-05-17T14:18:36Z</time>
      </trkpt>
      <trkpt lat="49.96335" lon="2.43885">
        <ele>40.8</ele>
        <time>2023-05-17T14:18:38Z</time>
      </trkpt>
      <trkpt lat="49.96334" lon="2.43883">
        <ele>40.8</ele>
        <time>2023-05-17T14:18:39Z</time>
      </trkpt>
      <trkpt lat="49.96333" lon="2.43881">
        <ele>40.8</ele>
        <time>2023-05-17T14:18:40Z</time>
      </trkpt>
      <trkpt lat="49.96333" lon="2.43879">
        <ele>40.8</ele>
        <time>2023-05-17T14:18:42Z</time>
      </trkpt>
      <trkpt lat="49.96332" lon="2.43877">
        <ele>40.8</ele>
        <time>2023-05-17T14:18:43Z</time>
      </trkpt>
      <trkpt lat="49.96331" lon="2.43875">
        <ele>40.8</ele>
        <time>2023-05-17T14:18:44Z</time>
      </trkpt>
      <trkpt lat="49.96331" lon="2.43873">
        <ele>40.8</ele>
        <time>2023-05-17T14:18:45Z</time>
      </trkpt>
      <trkpt lat="49.9633" lon="2.43872">
        <ele>40.8</ele>
        <time>2023-05-17T14:18:46Z</time>
      </trkpt>
      <trkpt lat="49.9633" lon="2.43869">
        <ele>40.8</ele>
        <time>2023-05-17T14:18:47Z</time>
      </trkpt>
      <trkpt lat="49.96329" lon="2.43867">
        <ele>40.8</ele>
        <time>2023-05-17T14:18:48Z</time>
      </trkpt>
      <trkpt lat="49.96329" lon="2.43866">
        <ele>40.8</ele>
        <time>2023-05-17T14:18:50Z</time>
      </trkpt>
      <trkpt lat="49.96329" lon="2.43864">
        <ele>40.7</ele>
        <time>2023-05-17T14:18:51Z</time>
      </trkpt>
      <trkpt lat="49.96328" lon="2.43863">
        <ele>40.7</ele>
        <time>2023-05-17T14:18:52Z</time>
      </trkpt>
      <trkpt lat="49.96328" lon="2.43861">
        <ele>40.7</ele>
        <time>2023-05-17T14:18:53Z</time>
      </trkpt>
      <trkpt lat="49.96328" lon="2.43859">
        <ele>40.7</ele>
        <time>2023-05-17T14:18:54Z</time>
      </trkpt>
      <trkpt lat="49.96328" lon="2.43857">
        <ele>40.7</ele>
        <time>2023-05-17T14:18:55Z</time>
      </trkpt>
      <trkpt lat="49.96328" lon="2.43855">
        <ele>40.7</ele>
        <time>2023-05-17T14:18:56Z</time>
      </trkpt>
      <trkpt lat="49.96329" lon="2.43853">
        <ele>40.7</ele>
        <time>2023-05-17T14:18:58Z</time>
      </trkpt>
      <trkpt lat="49.96329" lon="2.43852">
        <ele>40.7</ele>
        <time>2023-05-17T14:18:59Z</time>
      </trkpt>
      <trkpt lat="49.96329" lon="2.43851">
        <ele>40.7</ele>
        <time>2023-05-17T14:19:00Z</time>
      </trkpt>
      <trkpt lat="49.96329" lon="2.43849">
        <ele>40.7</ele>
        <time>2023-05-17T14:19:02Z</time>
      </trkpt>
      <trkpt lat="49.9633" lon="2.43846">
        <ele>40.7</ele>
        <time>2023-05-17T14:19:03Z</time>
      </trkpt>
      <trkpt lat="49.9633" lon="2.43845">
        <ele>40.7</ele>
        <time>2023-05-17T14:19:04Z</time>
      </trkpt>
      <trkpt lat="49.9633" lon="2.43843">
        <ele>40.7</ele>
        <time>2023-05-17T14:19:06Z</time>
      </trkpt>
      <trkpt lat="49.9633" lon="2.43841">
        <ele>40.7</ele>
        <time>2023-05-17T14:19:07Z</time>
      </trkpt>
      <trkpt lat="49.9633" lon="2.4384">
        <ele>40.7</ele>
        <time>2023-05-17T14:19:08Z</time>
      </trkpt>
      <trkpt lat="49.9633" lon="2.43838">
        <ele>40.7</ele>
        <time>2023-05-17T14:19:09Z</time>
      </trkpt>
      <trkpt lat="49.9633" lon="2.43836">
        <ele>40.7</ele>
        <time>2023-05-17T14:19:10Z</time>
      </trkpt>
      <trkpt lat="49.96331" lon="2.43834">
        <ele>40.6</ele>
        <time>2023-05-17T14:19:12Z</time>
      </trkpt>
      <trkpt lat="49.96331" lon="2.43833">
        <ele>40.6</ele>
        <time>2023-05-17T14:19:13Z</time>
      </trkpt>
      <trkpt lat="49.96332" lon="2.43832">
        <ele>40.6</ele>
        <time>2023-05-17T14:19:14Z</time>
      </trkpt>
      <trkpt lat="49.96333" lon="2.4383">
        <ele>40.6</ele>
        <time>2023-05-17T14:19:15Z</time>
      </trkpt>
      <trkpt lat="49.96333" lon="2.43829">
        <ele>40.6</ele>
        <time>2023-05-17T14:19:16Z</time>
      </trkpt>
      <trkpt lat="49.96334" lon="2.43828">
        <ele>40.6</ele>
        <time>2023-05-17T14:19:17Z</time>
      </trkpt>
      <trkpt lat="49.96335" lon="2.43826">
        <ele>40.6</ele>
        <time>2023-05-17T14:19:19Z</time>
      </trkpt>
      <trkpt lat="49.96335" lon="2.43825">
        <ele>40.6</ele>
        <time>2023-05-17T14:19:20Z</time>
      </trkpt>
      <trkpt lat="49.96336" lon="2.43823">
        <ele>40.6</ele>
        <time>2023-05-17T14:19:21Z</time>
      </trkpt>
      <trkpt lat="49.96336" lon="2.43822">
        <ele>40.6</ele>
        <time>2023-05-17T14:19:22Z</time>
      </trkpt>
      <trkpt lat="49.96336" lon="2.43821">
        <ele>40.6</ele>
        <time>2023-05-17T14:19:23Z</time>
      </trkpt>
      <trkpt lat="49.96337" lon="2.43821">
        <ele>40.6</ele>
        <time>2023-05-17T14:19:24Z</time>
      </trkpt>
      <trkpt lat="49.96338" lon="2.43819">
        <ele>40.5</ele>
        <time>2023-05-17T14:19:26Z</time>
      </trkpt>
      <trkpt lat="49.96338" lon="2.43818">
        <ele>40.5</ele>
        <time>2023-05-17T14:19:27Z</time>
      </trkpt>
      <trkpt lat="49.96338" lon="2.43817">
        <ele>40.5</ele>
        <time>2023-05-17T14:19:28Z</time>
      </trkpt>
      <trkpt lat="49.96338" lon="2.43816">
        <ele>40.5</ele>
        <time>2023-05-17T14:19:30Z</time>
      </trkpt>
      <trkpt lat="49.96338" lon="2.43815">
        <ele>40.5</ele>
        <time>2023-05-17T14:19:31Z</time>
      </trkpt>
      <trkpt lat="49.96338" lon="2.43813">
        <ele>40.5</ele>
        <time>2023-05-17T14:19:32Z</time>
      </trkpt>
      <trkpt lat="49.96338" lon="2.43812">
        <ele>40.5</ele>
        <time>2023-05-17T14:19:33Z</time>
      </trkpt>
      <trkpt lat="49.96337" lon="2.43811">
        <ele>40.5</ele>
        <time>2023-05-17T14:19:34Z</time>
      </trkpt>
      <trkpt lat="49.96336" lon="2.4381">
        <ele>40.5</ele>
        <time>2023-05-17T14:19:36Z</time>
      </trkpt>
      <trkpt lat="49.96336" lon="2.43809">
        <ele>40.5</ele>
        <time>2023-05-17T14:19:37Z</time>
      </trkpt>
      <trkpt lat="49.96335" lon="2.43808">
        <ele>40.5</ele>
        <time>2023-05-17T14:19:38Z</time>
      </trkpt>
      <trkpt lat="49.96335" lon="2.43807">
        <ele>40.5</ele>
        <time>2023-05-17T14:19:39Z</time>
      </trkpt>
      <trkpt lat="49.96334" lon="2.43806">
        <ele>40.5</ele>
        <time>2023-05-17T14:19:40Z</time>
      </trkpt>
      <trkpt lat="49.96333" lon="2.43806">
        <ele>40.5</ele>
        <time>2023-05-17T14:19:42Z</time>
      </trkpt>
      <trkpt lat="49.96333" lon="2.43805">
        <ele>40.4</ele>
        <time>2023-05-17T14:19:43Z</time>
      </trkpt>
      <trkpt lat="49.96331" lon="2.43806">
        <ele>40.4</ele>
        <time>2023-05-17T14:19:45Z</time>
      </trkpt>
      <trkpt lat="49.96331" lon="2.43807">
        <ele>40.4</ele>
        <time>2023-05-17T14:19:46Z</time>
      </trkpt>
      <trkpt lat="49.96331" lon="2.43809">
        <ele>40.4</ele>
        <time>2023-05-17T14:19:47Z</time>
      </trkpt>
      <trkpt lat="49.9633" lon="2.4381">
        <ele>40.4</ele>
        <time>2023-05-17T14:19:49Z</time>
      </trkpt>
      <trkpt lat="49.9633" lon="2.43811">
        <ele>40.4</ele>
        <time>2023-05-17T14:19:50Z</time>
      </trkpt>
      <trkpt lat="49.9633" lon="2.43812">
        <ele>40.4</ele>
        <time>2023-05-17T14:19:52Z</time>
      </trkpt>
      <trkpt lat="49.9633" lon="2.43812">
        <ele>40.4</ele>
        <time>2023-05-17T14:19:53Z</time>
      </trkpt>
      <trkpt lat="49.96331" lon="2.43813">
        <ele>40.4</ele>
        <time>2023-05-17T14:19:55Z</time>
      </trkpt>
      <trkpt lat="49.96331" lon="2.43813">
        <ele>40.4</ele>
        <time>2023-05-17T14:19:56Z</time>
      </trkpt>
      <trkpt lat="49.96331" lon="2.43812">
        <ele>40.4</ele>
        <time>2023-05-17T14:19:58Z</time>
      </trkpt>
      <trkpt lat="49.96331" lon="2.43812">
        <ele>40.4</ele>
        <time>2023-05-17T14:19:59Z</time>
      </trkpt>
      <trkpt lat="49.96332" lon="2.43812">
        <ele>40.4</ele>
        <time>2023-05-17T14:20:00Z</time>
      </trkpt>
      <trkpt lat="49.96332" lon="2.43811">
        <ele>40.4</ele>
        <time>2023-05-17T14:20:01Z</time>
      </trkpt>
      <trkpt lat="49.96332" lon="2.43811">
        <ele>40.4</ele>
        <time>2023-05-17T14:20:03Z</time>
      </trkpt>
      <trkpt lat="49.96332" lon="2.4381">
        <ele>40.4</ele>
        <time>2023-05-17T14:20:04Z</time>
      </trkpt>
      <trkpt lat="49.96332" lon="2.43809">
        <ele>40.4</ele>
        <time>2023-05-17T14:20:05Z</time>
      </trkpt>
      <trkpt lat="49.96332" lon="2.43808">
        <ele>40.4</ele>
        <time>2023-05-17T14:20:06Z</time>
      </trkpt>
      <trkpt lat="49.96332" lon="2.43806">
        <ele>40.4</ele>
        <time>2023-05-17T14:20:07Z</time>
      </trkpt>
      <trkpt lat="49.96332" lon="2.43805">
        <ele>40.3</ele>
        <time>2023-05-17T14:20:09Z</time>
      </trkpt>
      <trkpt lat="49.96332" lon="2.43803">
        <ele>40.3</ele>
        <time>2023-05-17T14:20:10Z</time>
      </trkpt>
      <trkpt lat="49.96331" lon="2.43802">
        <ele>40.3</ele>
        <time>2023-05-17T14:20:11Z</time>
      </trkpt>
      <trkpt lat="49.9633" lon="2.43801">
        <ele>40.3</ele>
        <time>2023-05-17T14:20:12Z</time>
      </trkpt>
      <trkpt lat="49.9633" lon="2.438">
        <ele>40.3</ele>
        <time>2023-05-17T14:20:13Z</time>
      </trkpt>
      <trkpt lat="49.96329" lon="2.438">
        <ele>40.3</ele>
        <time>2023-05-17T14:20:14Z</time>
      </trkpt>
      <trkpt lat="49.96328" lon="2.43799">
        <ele>40.3</ele>
        <time>2023-05-17T14:20:16Z</time>
      </trkpt>
      <trkpt lat="49.96328" lon="2.43798">
        <ele>40.3</ele>
        <time>2023-05-17T14:20:17Z</time>
      </trkpt>
      <trkpt lat="49.96327" lon="2.43798">
        <ele>40.3</ele>
        <time>2023-05-17T14:20:18Z</time>
      </trkpt>
      <trkpt lat="49.96326" lon="2.43797">
        <ele>40.3</ele>
        <time>2023-05-17T14:20:19Z</time>
      </trkpt>
      <trkpt lat="49.96324" lon="2.43797">
        <ele>40.3</ele>
        <time>2023-05-17T14:20:20Z</time>
      </trkpt>
      <trkpt lat="49.96323" lon="2.43797">
        <ele>40.3</ele>
        <time>2023-05-17T14:20:21Z</time>
      </trkpt>
      <trkpt lat="49.96322" lon="2.43797">
        <ele>40.2</ele>
        <time>2023-05-17T14:20:22Z</time>
      </trkpt>
      <trkpt lat="49.96321" lon="2.43797">
        <ele>40.2</ele>
        <time>2023-05-17T14:20:24Z</time>
      </trkpt>
      <trkpt lat="49.9632" lon="2.43797">
        <ele>40.2</ele>
        <time>2023-05-17T14:20:25Z</time>
      </trkpt>
      <trkpt lat="49.96319" lon="2.43797">
        <ele>40.2</ele>
        <time>2023-05-17T14:20:26Z</time>
      </trkpt>
      <trkpt lat="49.96318" lon="2.43798">
        <ele>40.2</ele>
        <time>2023-05-17T14:20:27Z</time>
      </trkpt>
      <trkpt lat="49.96318" lon="2.43799">
        <ele>40.2</ele>
        <time>2023-05-17T14:20:28Z</time>
      </trkpt>
      <trkpt lat="49.96318" lon="2.43801">
        <ele>40.2</ele>
        <time>2023-05-17T14:20:29Z</time>
      </trkpt>
      <trkpt lat="49.96318" lon="2.43802">
        <ele>40.2</ele>
        <time>2023-05-17T14:20:31Z</time>
      </trkpt>
      <trkpt lat="49.96318" lon="2.43803">
        <ele>40.2</ele>
        <time>2023-05-17T14:20:32Z</time>
      </trkpt>
      <trkpt lat="49.96318" lon="2.43804">
        <ele>40.2</ele>
        <time>2023-05-17T14:20:33Z</time>
      </trkpt>
      <trkpt lat="49.96318" lon="2.43806">
        <ele>40.2</ele>
        <time>2023-05-17T14:20:34Z</time>
      </trkpt>
      <trkpt lat="49.96318" lon="2.43807">
        <ele>40.2</ele>
        <time>2023-05-17T14:20:36Z</time>
      </trkpt>
      <trkpt lat="49.96318" lon="2.43809">
        <ele>40.2</ele>
        <time>2023-05-17T14:20:38Z</time>
      </trkpt>
      <trkpt lat="49.96318" lon="2.4381">
        <ele>40.2</ele>
        <time>2023-05-17T14:20:39Z</time>
      </trkpt>
      <trkpt lat="49.96319" lon="2.43811">
        <ele>40.2</ele>
        <time>2023-05-17T14:20:40Z</time>
      </trkpt>
      <trkpt lat="49.96319" lon="2.43811">
        <ele>40.2</ele>
        <time>2023-05-17T14:20:42Z</time>
      </trkpt>
      <trkpt lat="49.96319" lon="2.43811">
        <ele>40.1</ele>
        <time>2023-05-17T14:20:43Z</time>
      </trkpt>
      <trkpt lat="49.9632" lon="2.43812">
        <ele>40.1</ele>
        <time>2023-05-17T14:20:45Z</time>
      </trkpt>
      <trkpt lat="49.9632" lon="2.43811">
        <ele>40.1</ele>
        <time>2023-05-17T14:20:46Z</time>
      </trkpt>
      <trkpt lat="49.9632" lon="2.43811">
        <ele>40.1</ele>
        <time>2023-05-17T14:20:47Z</time>
      </trkpt>
      <trkpt lat="49.9632" lon="2.4381">
        <ele>40.1</ele>
        <time>2023-05-17T14:20:48Z</time>
      </trkpt>
      <trkpt lat="49.9632" lon="2.4381">
        <ele>40.1</ele>
        <time>2023-05-17T14:20:50Z</time>
      </trkpt>
      <trkpt lat="49.96319" lon="2.4381">
        <ele>40.1</ele>
        <time>2023-05-17T14:20:51Z</time>
      </trkpt>
      <trkpt lat="49.96319" lon="2.4381">
        <ele>40.1</ele>
        <time>2023-05-17T14:20:53Z</time>
      </trkpt>
      <trkpt lat="49.96319" lon="2.43805">
        <ele>40.1</ele>
        <time>2023-05-17T14:21:14Z</time>
      </trkpt>
      <trkpt lat="49.96318" lon="2.43802">
        <ele>40.1</ele>
        <time>2023-05-17T14:21:16Z</time>
      </trkpt>
      <trkpt lat="49.96317" lon="2.43801">
        <ele>40.1</ele>
        <time>2023-05-17T14:21:17Z</time>
      </trkpt>
      <trkpt lat="49.96316" lon="2.43801">
        <ele>40.1</ele>
        <time>2023-05-17T14:21:18Z</time>
      </trkpt>
      <trkpt lat="49.96316" lon="2.438">
        <ele>40.1</ele>
        <time>2023-05-17T14:21:20Z</time>
      </trkpt>
      <trkpt lat="49.96315" lon="2.438">
        <ele>40.1</ele>
        <time>2023-05-17T14:21:21Z</time>
      </trkpt>
      <trkpt lat="49.96316" lon="2.43799">
        <ele>40.1</ele>
        <time>2023-05-17T14:21:23Z</time>
      </trkpt>
      <trkpt lat="49.96316" lon="2.43799">
        <ele>40.1</ele>
        <time>2023-05-17T14:21:24Z</time>
      </trkpt>
      <trkpt lat="49.96315" lon="2.43796">
        <ele>40.1</ele>
        <time>2023-05-17T14:21:26Z</time>
      </trkpt>
      <trkpt lat="49.96315" lon="2.43794">
        <ele>40.1</ele>
        <time>2023-05-17T14:21:28Z</time>
      </trkpt>
      <trkpt lat="49.96314" lon="2.43793">
        <ele>40.1</ele>
        <time>2023-05-17T14:21:29Z</time>
      </trkpt>
      <trkpt lat="49.96313" lon="2.43793">
        <ele>40.1</ele>
        <time>2023-05-17T14:21:30Z</time>
      </trkpt>
      <trkpt lat="49.96312" lon="2.43793">
        <ele>40.1</ele>
        <time>2023-05-17T14:21:31Z</time>
      </trkpt>
      <trkpt lat="49.96312" lon="2.43792">
        <ele>40.1</ele>
        <time>2023-05-17T14:21:33Z</time>
      </trkpt>
      <trkpt lat="49.96311" lon="2.43793">
        <ele>40.1</ele>
        <time>2023-05-17T14:21:34Z</time>
      </trkpt>
      <trkpt lat="49.96312" lon="2.43795">
        <ele>40.1</ele>
        <time>2023-05-17T14:21:36Z</time>
      </trkpt>
      <trkpt lat="49.96312" lon="2.43795">
        <ele>40.1</ele>
        <time>2023-05-17T14:21:37Z</time>
      </trkpt>
      <trkpt lat="49.96312" lon="2.43796">
        <ele>40.1</ele>
        <time>2023-05-17T14:21:39Z</time>
      </trkpt>
      <trkpt lat="49.96312" lon="2.43796">
        <ele>40.1</ele>
        <time>2023-05-17T14:21:40Z</time>
      </trkpt>
      <trkpt lat="49.96312" lon="2.43796">
        <ele>40.1</ele>
        <time>2023-05-17T14:21:41Z</time>
      </trkpt>
      <trkpt lat="49.96312" lon="2.43796">
        <ele>40.1</ele>
        <time>2023-05-17T14:21:43Z</time>
      </trkpt>
      <trkpt lat="49.96312" lon="2.43796">
        <ele>40.1</ele>
        <time>2023-05-17T14:21:44Z</time>
      </trkpt>
      <trkpt lat="49.96311" lon="2.43797">
        <ele>40.1</ele>
        <time>2023-05-17T14:21:46Z</time>
      </trkpt>
      <trkpt lat="49.96311" lon="2.43797">
        <ele>40.1</ele>
        <time>2023-05-17T14:21:47Z</time>
      </trkpt>
      <trkpt lat="49.96311" lon="2.43798">
        <ele>40.1</ele>
        <time>2023-05-17T14:21:49Z</time>
      </trkpt>
      <trkpt lat="49.96311" lon="2.43798">
        <ele>40.1</ele>
        <time>2023-05-17T14:21:50Z</time>
      </trkpt>
      <trkpt lat="49.96311" lon="2.43798">
        <ele>40.1</ele>
        <time>2023-05-17T14:21:52Z</time>
      </trkpt>
      <trkpt lat="49.96311" lon="2.43798">
        <ele>40.1</ele>
        <time>2023-05-17T14:21:53Z</time>
      </trkpt>
      <trkpt lat="49.96311" lon="2.43798">
        <ele>40.1</ele>
        <time>2023-05-17T14:21:54Z</time>
      </trkpt>
      <trkpt lat="49.96311" lon="2.43798">
        <ele>40.1</ele>
        <time>2023-05-17T14:21:55Z</time>
      </trkpt>
      <trkpt lat="49.96311" lon="2.43798">
        <ele>40.1</ele>
        <time>2023-05-17T14:21:56Z</time>
      </trkpt>
      <trkpt lat="49.96311" lon="2.43798">
        <ele>40.1</ele>
        <time>2023-05-17T14:21:57Z</time>
      </trkpt>
      <trkpt lat="49.96312" lon="2.438">
        <ele>40.1</ele>
        <time>2023-05-17T14:22:17Z</time>
      </trkpt>
      <trkpt lat="49.96312" lon="2.43801">
        <ele>40.1</ele>
        <time>2023-05-17T14:22:18Z</time>
      </trkpt>
      <trkpt lat="49.96312" lon="2.43801">
        <ele>40.1</ele>
        <time>2023-05-17T14:22:19Z</time>
      </trkpt>
      <trkpt lat="49.96313" lon="2.43801">
        <ele>40.1</ele>
        <time>2023-05-17T14:22:20Z</time>
      </trkpt>
      <trkpt lat="49.96313" lon="2.43801">
        <ele>40.1</ele>
        <time>2023-05-17T14:22:21Z</time>
      </trkpt>
      <trkpt lat="49.96313" lon="2.43801">
        <ele>40.1</ele>
        <time>2023-05-17T14:22:22Z</time>
      </trkpt>
      <trkpt lat="49.96313" lon="2.43801">
        <ele>40.1</ele>
        <time>2023-05-17T14:22:23Z</time>
      </trkpt>
      <trkpt lat="49.96313" lon="2.43801">
        <ele>40.1</ele>
        <time>2023-05-17T14:22:24Z</time>
      </trkpt>
      <trkpt lat="49.96313" lon="2.43801">
        <ele>40.1</ele>
        <time>2023-05-17T14:22:25Z</time>
      </trkpt>
      <trkpt lat="49.96313" lon="2.43801">
        <ele>40.1</ele>
        <time>2023-05-17T14:22:26Z</time>
      </trkpt>
      <trkpt lat="49.96313" lon="2.43801">
        <ele>40.1</ele>
        <time>2023-05-17T14:22:27Z</time>
      </trkpt>
      <trkpt lat="49.96313" lon="2.43801">
        <ele>40.1</ele>
        <time>2023-05-17T14:22:28Z</time>
      </trkpt>
      <trkpt lat="49.96313" lon="2.43801">
        <ele>40.1</ele>
        <time>2023-05-17T14:22:29Z</time>
      </trkpt>
      <trkpt lat="49.96313" lon="2.43801">
        <ele>40.1</ele>
        <time>2023-05-17T14:22:30Z</time>
      </trkpt>
      <trkpt lat="49.96313" lon="2.43801">
        <ele>40.1</ele>
        <time>2023-05-17T14:22:31Z</time>
      </trkpt>
      <trkpt lat="49.96312" lon="2.43801">
        <ele>40.1</ele>
        <time>2023-05-17T14:22:32Z</time>
      </trkpt>
      <trkpt lat="49.96312" lon="2.43801">
        <ele>40.1</ele>
        <time>2023-05-17T14:22:33Z</time>
      </trkpt>
      <trkpt lat="49.96312" lon="2.43802">
        <ele>40.1</ele>
        <time>2023-05-17T14:22:34Z</time>
      </trkpt>
      <trkpt lat="49.96312" lon="2.43802">
        <ele>40.1</ele>
        <time>2023-05-17T14:22:35Z</time>
      </trkpt>
      <trkpt lat="49.96312" lon="2.43802">
        <ele>40.1</ele>
        <time>2023-05-17T14:22:36Z</time>
      </trkpt>
      <trkpt lat="49.96312" lon="2.43803">
        <ele>40.1</ele>
        <time>2023-05-17T14:22:37Z</time>
      </trkpt>
      <trkpt lat="49.96312" lon="2.43803">
        <ele>40.1</ele>
        <time>2023-05-17T14:22:38Z</time>
      </trkpt>
      <trkpt lat="49.96311" lon="2.43803">
        <ele>40.1</ele>
        <time>2023-05-17T14:22:39Z</time>
      </trkpt>
      <trkpt lat="49.96312" lon="2.43802">
        <ele>40.1</ele>
        <time>2023-05-17T14:22:40Z</time>
      </trkpt>
      <trkpt lat="49.96313" lon="2.43801">
        <ele>40.1</ele>
        <time>2023-05-17T14:22:41Z</time>
      </trkpt>
      <trkpt lat="49.96314" lon="2.43801">
        <ele>40.1</ele>
        <time>2023-05-17T14:22:43Z</time>
      </trkpt>
      <trkpt lat="49.96314" lon="2.43802">
        <ele>40.1</ele>
        <time>2023-05-17T14:22:44Z</time>
      </trkpt>
      <trkpt lat="49.96314" lon="2.43802">
        <ele>40.1</ele>
        <time>2023-05-17T14:22:46Z</time>
      </trkpt>
      <trkpt lat="49.96314" lon="2.43803">
        <ele>40.1</ele>
        <time>2023-05-17T14:22:47Z</time>
      </trkpt>
      <trkpt lat="49.96314" lon="2.43803">
        <ele>40.1</ele>
        <time>2023-05-17T14:22:49Z</time>
      </trkpt>
      <trkpt lat="49.96314" lon="2.43803">
        <ele>40.1</ele>
        <time>2023-05-17T14:22:50Z</time>
      </trkpt>
      <trkpt lat="49.96314" lon="2.43802">
        <ele>40.1</ele>
        <time>2023-05-17T14:22:51Z</time>
      </trkpt>
      <trkpt lat="49.96313" lon="2.438">
        <ele>40.2</ele>
        <time>2023-05-17T14:22:53Z</time>
      </trkpt>
      <trkpt lat="49.96312" lon="2.438">
        <ele>40.2</ele>
        <time>2023-05-17T14:22:54Z</time>
      </trkpt>
      <trkpt lat="49.96311" lon="2.438">
        <ele>40.2</ele>
        <time>2023-05-17T14:22:55Z</time>
      </trkpt>
      <trkpt lat="49.96311" lon="2.43801">
        <ele>40.2</ele>
        <time>2023-05-17T14:22:57Z</time>
      </trkpt>
      <trkpt lat="49.96311" lon="2.43801">
        <ele>40.2</ele>
        <time>2023-05-17T14:22:58Z</time>
      </trkpt>
      <trkpt lat="49.9631" lon="2.43802">
        <ele>40.2</ele>
        <time>2023-05-17T14:22:59Z</time>
      </trkpt>
      <trkpt lat="49.9631" lon="2.43802">
        <ele>40.2</ele>
        <time>2023-05-17T14:23:00Z</time>
      </trkpt>
      <trkpt lat="49.96309" lon="2.43802">
        <ele>40.2</ele>
        <time>2023-05-17T14:23:02Z</time>
      </trkpt>
      <trkpt lat="49.96308" lon="2.43801">
        <ele>40.2</ele>
        <time>2023-05-17T14:23:03Z</time>
      </trkpt>
      <trkpt lat="49.96308" lon="2.43801">
        <ele>40.2</ele>
        <time>2023-05-17T14:23:04Z</time>
      </trkpt>
      <trkpt lat="49.96308" lon="2.43801">
        <ele>40.2</ele>
        <time>2023-05-17T14:23:05Z</time>
      </trkpt>
      <trkpt lat="49.96309" lon="2.43801">
        <ele>40.2</ele>
        <time>2023-05-17T14:23:06Z</time>
      </trkpt>
      <trkpt lat="49.9631" lon="2.43802">
        <ele>40.2</ele>
        <time>2023-05-17T14:23:08Z</time>
      </trkpt>
      <trkpt lat="49.9631" lon="2.43802">
        <ele>40.2</ele>
        <time>2023-05-17T14:23:09Z</time>
      </trkpt>
      <trkpt lat="49.96311" lon="2.43802">
        <ele>40.2</ele>
        <time>2023-05-17T14:23:10Z</time>
      </trkpt>
      <trkpt lat="49.96312" lon="2.43802">
        <ele>40.2</ele>
        <time>2023-05-17T14:23:11Z</time>
      </trkpt>
      <trkpt lat="49.96312" lon="2.43802">
        <ele>40.2</ele>
        <time>2023-05-17T14:23:12Z</time>
      </trkpt>
      <trkpt lat="49.96313" lon="2.43801">
        <ele>40.2</ele>
        <time>2023-05-17T14:23:13Z</time>
      </trkpt>
      <trkpt lat="49.96314" lon="2.43801">
        <ele>40.2</ele>
        <time>2023-05-17T14:23:15Z</time>
      </trkpt>
      <trkpt lat="49.96315" lon="2.43801">
        <ele>40.2</ele>
        <time>2023-05-17T14:23:16Z</time>
      </trkpt>
      <trkpt lat="49.96316" lon="2.43801">
        <ele>40.2</ele>
        <time>2023-05-17T14:23:17Z</time>
      </trkpt>
      <trkpt lat="49.96317" lon="2.43801">
        <ele>40.2</ele>
        <time>2023-05-17T14:23:19Z</time>
      </trkpt>
      <trkpt lat="49.96318" lon="2.438">
        <ele>40.3</ele>
        <time>2023-05-17T14:23:20Z</time>
      </trkpt>
      <trkpt lat="49.9632" lon="2.43801">
        <ele>40.3</ele>
        <time>2023-05-17T14:23:21Z</time>
      </trkpt>
      <trkpt lat="49.96321" lon="2.43801">
        <ele>40.3</ele>
        <time>2023-05-17T14:23:23Z</time>
      </trkpt>
      <trkpt lat="49.96323" lon="2.438">
        <ele>40.3</ele>
        <time>2023-05-17T14:23:24Z</time>
      </trkpt>
      <trkpt lat="49.96325" lon="2.438">
        <ele>40.3</ele>
        <time>2023-05-17T14:23:25Z</time>
      </trkpt>
      <trkpt lat="49.96326" lon="2.438">
        <ele>40.3</ele>
        <time>2023-05-17T14:23:26Z</time>
      </trkpt>
      <trkpt lat="49.96328" lon="2.43801">
        <ele>40.3</ele>
        <time>2023-05-17T14:23:27Z</time>
      </trkpt>
      <trkpt lat="49.9633" lon="2.43802">
        <ele>40.3</ele>
        <time>2023-05-17T14:23:29Z</time>
      </trkpt>
      <trkpt lat="49.96332" lon="2.43803">
        <ele>40.3</ele>
        <time>2023-05-17T14:23:30Z</time>
      </trkpt>
      <trkpt lat="49.96333" lon="2.43806">
        <ele>40.4</ele>
        <time>2023-05-17T14:23:32Z</time>
      </trkpt>
      <trkpt lat="49.96335" lon="2.43807">
        <ele>40.4</ele>
        <time>2023-05-17T14:23:33Z</time>
      </trkpt>
      <trkpt lat="49.96335" lon="2.43808">
        <ele>40.4</ele>
        <time>2023-05-17T14:23:34Z</time>
      </trkpt>
      <trkpt lat="49.96336" lon="2.43809">
        <ele>40.4</ele>
        <time>2023-05-17T14:23:35Z</time>
      </trkpt>
      <trkpt lat="49.96337" lon="2.4381">
        <ele>40.4</ele>
        <time>2023-05-17T14:23:36Z</time>
      </trkpt>
      <trkpt lat="49.96339" lon="2.43812">
        <ele>40.4</ele>
        <time>2023-05-17T14:23:38Z</time>
      </trkpt>
      <trkpt lat="49.9634" lon="2.43813">
        <ele>40.4</ele>
        <time>2023-05-17T14:23:39Z</time>
      </trkpt>
      <trkpt lat="49.96341" lon="2.43815">
        <ele>40.4</ele>
        <time>2023-05-17T14:23:40Z</time>
      </trkpt>
      <trkpt lat="49.96342" lon="2.43817">
        <ele>40.4</ele>
        <time>2023-05-17T14:23:41Z</time>
      </trkpt>
      <trkpt lat="49.96343" lon="2.43819">
        <ele>40.5</ele>
        <time>2023-05-17T14:23:43Z</time>
      </trkpt>
      <trkpt lat="49.96344" lon="2.43821">
        <ele>40.5</ele>
        <time>2023-05-17T14:23:44Z</time>
      </trkpt>
      <trkpt lat="49.96345" lon="2.43822">
        <ele>40.5</ele>
        <time>2023-05-17T14:23:45Z</time>
      </trkpt>
      <trkpt lat="49.96345" lon="2.43824">
        <ele>40.5</ele>
        <time>2023-05-17T14:23:46Z</time>
      </trkpt>
      <trkpt lat="49.96345" lon="2.43827">
        <ele>40.5</ele>
        <time>2023-05-17T14:23:47Z</time>
      </trkpt>
      <trkpt lat="49.96346" lon="2.43828">
        <ele>40.5</ele>
        <time>2023-05-17T14:23:49Z</time>
      </trkpt>
      <trkpt lat="49.96346" lon="2.4383">
        <ele>40.5</ele>
        <time>2023-05-17T14:23:50Z</time>
      </trkpt>
      <trkpt lat="49.96346" lon="2.43832">
        <ele>40.5</ele>
        <time>2023-05-17T14:23:52Z</time>
      </trkpt>
      <trkpt lat="49.96347" lon="2.43834">
        <ele>40.5</ele>
        <time>2023-05-17T14:23:53Z</time>
      </trkpt>
      <trkpt lat="49.96347" lon="2.43836">
        <ele>40.5</ele>
        <time>2023-05-17T14:23:54Z</time>
      </trkpt>
      <trkpt lat="49.96346" lon="2.43838">
        <ele>40.6</ele>
        <time>2023-05-17T14:23:55Z</time>
      </trkpt>
      <trkpt lat="49.96346" lon="2.4384">
        <ele>40.6</ele>
        <time>2023-05-17T14:23:56Z</time>
      </trkpt>
      <trkpt lat="49.96345" lon="2.43841">
        <ele>40.6</ele>
        <time>2023-05-17T14:23:57Z</time>
      </trkpt>
      <trkpt lat="49.96345" lon="2.43844">
        <ele>40.6</ele>
        <time>2023-05-17T14:23:59Z</time>
      </trkpt>
      <trkpt lat="49.96344" lon="2.43845">
        <ele>40.6</ele>
        <time>2023-05-17T14:24:00Z</time>
      </trkpt>
      <trkpt lat="49.96344" lon="2.43846">
        <ele>40.6</ele>
        <time>2023-05-17T14:24:02Z</time>
      </trkpt>
      <trkpt lat="49.96343" lon="2.43846">
        <ele>40.6</ele>
        <time>2023-05-17T14:24:03Z</time>
      </trkpt>
      <trkpt lat="49.96342" lon="2.43848">
        <ele>40.6</ele>
        <time>2023-05-17T14:24:04Z</time>
      </trkpt>
      <trkpt lat="49.96342" lon="2.43849">
        <ele>40.6</ele>
        <time>2023-05-17T14:24:06Z</time>
      </trkpt>
      <trkpt lat="49.96341" lon="2.4385">
        <ele>40.6</ele>
        <time>2023-05-17T14:24:07Z</time>
      </trkpt>
      <trkpt lat="49.9634" lon="2.43851">
        <ele>40.6</ele>
        <time>2023-05-17T14:24:09Z</time>
      </trkpt>
      <trkpt lat="49.9634" lon="2.43852">
        <ele>40.6</ele>
        <time>2023-05-17T14:24:10Z</time>
      </trkpt>
      <trkpt lat="49.96339" lon="2.43853">
        <ele>40.6</ele>
        <time>2023-05-17T14:24:11Z</time>
      </trkpt>
      <trkpt lat="49.96339" lon="2.43854">
        <ele>40.6</ele>
        <time>2023-05-17T14:24:12Z</time>
      </trkpt>
      <trkpt lat="49.96339" lon="2.43855">
        <ele>40.6</ele>
        <time>2023-05-17T14:24:13Z</time>
      </trkpt>
      <trkpt lat="49.96339" lon="2.43856">
        <ele>40.6</ele>
        <time>2023-05-17T14:24:14Z</time>
      </trkpt>
      <trkpt lat="49.96339" lon="2.43857">
        <ele>40.7</ele>
        <time>2023-05-17T14:24:16Z</time>
      </trkpt>
      <trkpt lat="49.96339" lon="2.43857">
        <ele>40.7</ele>
        <time>2023-05-17T14:24:17Z</time>
      </trkpt>
      <trkpt lat="49.96339" lon="2.43858">
        <ele>40.7</ele>
        <time>2023-05-17T14:24:18Z</time>
      </trkpt>
      <trkpt lat="49.96339" lon="2.43859">
        <ele>40.7</ele>
        <time>2023-05-17T14:24:19Z</time>
      </trkpt>
      <trkpt lat="49.96339" lon="2.4386">
        <ele>40.7</ele>
        <time>2023-05-17T14:24:20Z</time>
      </trkpt>
      <trkpt lat="49.96339" lon="2.43862">
        <ele>40.7</ele>
        <time>2023-05-17T14:24:22Z</time>
      </trkpt>
      <trkpt lat="49.96339" lon="2.43863">
        <ele>40.7</ele>
        <time>2023-05-17T14:24:23Z</time>
      </trkpt>
      <trkpt lat="49.9634" lon="2.43865">
        <ele>40.7</ele>
        <time>2023-05-17T14:24:25Z</time>
      </trkpt>
      <trkpt lat="49.96341" lon="2.43867">
        <ele>40.7</ele>
        <time>2023-05-17T14:24:26Z</time>
      </trkpt>
      <trkpt lat="49.96341" lon="2.43868">
        <ele>40.7</ele>
        <time>2023-05-17T14:24:27Z</time>
      </trkpt>
      <trkpt lat="49.96341" lon="2.4387">
        <ele>40.7</ele>
        <time>2023-05-17T14:24:28Z</time>
      </trkpt>
      <trkpt lat="49.96342" lon="2.43873">
        <ele>40.7</ele>
        <time>2023-05-17T14:24:29Z</time>
      </trkpt>
      <trkpt lat="49.96342" lon="2.43874">
        <ele>40.7</ele>
        <time>2023-05-17T14:24:31Z</time>
      </trkpt>
      <trkpt lat="49.96342" lon="2.43876">
        <ele>40.7</ele>
        <time>2023-05-17T14:24:32Z</time>
      </trkpt>
      <trkpt lat="49.96342" lon="2.43877">
        <ele>40.7</ele>
        <time>2023-05-17T14:24:33Z</time>
      </trkpt>
      <trkpt lat="49.96343" lon="2.43879">
        <ele>40.7</ele>
        <time>2023-05-17T14:24:34Z</time>
      </trkpt>
      <trkpt lat="49.96343" lon="2.43881">
        <ele>40.7</ele>
        <time>2023-05-17T14:24:35Z</time>
      </trkpt>
      <trkpt lat="49.96343" lon="2.43882">
        <ele>40.7</ele>
        <time>2023-05-17T14:24:36Z</time>
      </trkpt>
      <trkpt lat="49.96343" lon="2.43884">
        <ele>40.7</ele>
        <time>2023-05-17T14:24:37Z</time>
      </trkpt>
      <trkpt lat="49.96344" lon="2.43885">
        <ele>40.7</ele>
        <time>2023-05-17T14:24:39Z</time>
      </trkpt>
      <trkpt lat="49.96344" lon="2.43887">
        <ele>40.7</ele>
        <time>2023-05-17T14:24:40Z</time>
      </trkpt>
      <trkpt lat="49.96345" lon="2.43888">
        <ele>40.7</ele>
        <time>2023-05-17T14:24:41Z</time>
      </trkpt>
      <trkpt lat="49.96345" lon="2.4389">
        <ele>40.7</ele>
        <time>2023-05-17T14:24:42Z</time>
      </trkpt>
      <trkpt lat="49.96345" lon="2.43891">
        <ele>40.7</ele>
        <time>2023-05-17T14:24:43Z</time>
      </trkpt>
      <trkpt lat="49.96346" lon="2.43891">
        <ele>40.8</ele>
        <time>2023-05-17T14:24:44Z</time>
      </trkpt>
      <trkpt lat="49.96346" lon="2.43892">
        <ele>40.8</ele>
        <time>2023-05-17T14:24:45Z</time>
      </trkpt>
      <trkpt lat="49.96346" lon="2.43894">
        <ele>40.8</ele>
        <time>2023-05-17T14:24:47Z</time>
      </trkpt>
      <trkpt lat="49.96346" lon="2.43896">
        <ele>40.8</ele>
        <time>2023-05-17T14:24:48Z</time>
      </trkpt>
      <trkpt lat="49.96347" lon="2.43897">
        <ele>40.8</ele>
        <time>2023-05-17T14:24:49Z</time>
      </trkpt>
      <trkpt lat="49.96347" lon="2.43899">
        <ele>40.8</ele>
        <time>2023-05-17T14:24:50Z</time>
      </trkpt>
      <trkpt lat="49.96347" lon="2.439">
        <ele>40.8</ele>
        <time>2023-05-17T14:24:51Z</time>
      </trkpt>
      <trkpt lat="49.96348" lon="2.43902">
        <ele>40.8</ele>
        <time>2023-05-17T14:24:52Z</time>
      </trkpt>
      <trkpt lat="49.96348" lon="2.43904">
        <ele>40.8</ele>
        <time>2023-05-17T14:24:54Z</time>
      </trkpt>
      <trkpt lat="49.96348" lon="2.43906">
        <ele>40.8</ele>
        <time>2023-05-17T14:24:55Z</time>
      </trkpt>
      <trkpt lat="49.96348" lon="2.43908">
        <ele>40.8</ele>
        <time>2023-05-17T14:24:57Z</time>
      </trkpt>
      <trkpt lat="49.96348" lon="2.43909">
        <ele>40.8</ele>
        <time>2023-05-17T14:24:58Z</time>
      </trkpt>
      <trkpt lat="49.96348" lon="2.4391">
        <ele>40.8</ele>
        <time>2023-05-17T14:24:59Z</time>
      </trkpt>
      <trkpt lat="49.96348" lon="2.43912">
        <ele>40.8</ele>
        <time>2023-05-17T14:25:01Z</time>
      </trkpt>
      <trkpt lat="49.96348" lon="2.43913">
        <ele>40.8</ele>
        <time>2023-05-17T14:25:02Z</time>
      </trkpt>
      <trkpt lat="49.96348" lon="2.43917">
        <ele>40.8</ele>
        <time>2023-05-17T14:25:04Z</time>
      </trkpt>
      <trkpt lat="49.96348" lon="2.43918">
        <ele>40.8</ele>
        <time>2023-05-17T14:25:05Z</time>
      </trkpt>
      <trkpt lat="49.96348" lon="2.4392">
        <ele>40.8</ele>
        <time>2023-05-17T14:25:06Z</time>
      </trkpt>
      <trkpt lat="49.96348" lon="2.43922">
        <ele>40.8</ele>
        <time>2023-05-17T14:25:07Z</time>
      </trkpt>
      <trkpt lat="49.96348" lon="2.43925">
        <ele>40.8</ele>
        <time>2023-05-17T14:25:08Z</time>
      </trkpt>
      <trkpt lat="49.96348" lon="2.43929">
        <ele>40.8</ele>
        <time>2023-05-17T14:25:09Z</time>
      </trkpt>
      <trkpt lat="49.96348" lon="2.43931">
        <ele>40.8</ele>
        <time>2023-05-17T14:25:10Z</time>
      </trkpt>
      <trkpt lat="49.96348" lon="2.43934">
        <ele>40.8</ele>
        <time>2023-05-17T14:25:11Z</time>
      </trkpt>
      <trkpt lat="49.96348" lon="2.43936">
        <ele>40.8</ele>
        <time>2023-05-17T14:25:13Z</time>
      </trkpt>
      <trkpt lat="49.96348" lon="2.43939">
        <ele>40.8</ele>
        <time>2023-05-17T14:25:14Z</time>
      </trkpt>
      <trkpt lat="49.96348" lon="2.43941">
        <ele>40.8</ele>
        <time>2023-05-17T14:25:15Z</time>
      </trkpt>
      <trkpt lat="49.96348" lon="2.43943">
        <ele>40.8</ele>
        <time>2023-05-17T14:25:16Z</time>
      </trkpt>
      <trkpt lat="49.96348" lon="2.43945">
        <ele>40.8</ele>
        <time>2023-05-17T14:25:17Z</time>
      </trkpt>
      <trkpt lat="49.96348" lon="2.43948">
        <ele>40.8</ele>
        <time>2023-05-17T14:25:18Z</time>
      </trkpt>
      <trkpt lat="49.96348" lon="2.4395">
        <ele>40.8</ele>
        <time>2023-05-17T14:25:19Z</time>
      </trkpt>
      <trkpt lat="49.96348" lon="2.43952">
        <ele>40.8</ele>
        <time>2023-05-17T14:25:20Z</time>
      </trkpt>
      <trkpt lat="49.96349" lon="2.43954">
        <ele>40.8</ele>
        <time>2023-05-17T14:25:21Z</time>
      </trkpt>
      <trkpt lat="49.96349" lon="2.43957">
        <ele>40.9</ele>
        <time>2023-05-17T14:25:23Z</time>
      </trkpt>
      <trkpt lat="49.9635" lon="2.4396">
        <ele>40.9</ele>
        <time>2023-05-17T14:25:25Z</time>
      </trkpt>
      <trkpt lat="49.9635" lon="2.43962">
        <ele>40.9</ele>
        <time>2023-05-17T14:25:26Z</time>
      </trkpt>
      <trkpt lat="49.9635" lon="2.43964">
        <ele>40.9</ele>
        <time>2023-05-17T14:25:27Z</time>
      </trkpt>
      <trkpt lat="49.9635" lon="2.43966">
        <ele>40.9</ele>
        <time>2023-05-17T14:25:28Z</time>
      </trkpt>
      <trkpt lat="49.96351" lon="2.43968">
        <ele>40.9</ele>
        <time>2023-05-17T14:25:29Z</time>
      </trkpt>
      <trkpt lat="49.96351" lon="2.43972">
        <ele>40.9</ele>
        <time>2023-05-17T14:25:31Z</time>
      </trkpt>
      <trkpt lat="49.96351" lon="2.43974">
        <ele>40.9</ele>
        <time>2023-05-17T14:25:32Z</time>
      </trkpt>
      <trkpt lat="49.96351" lon="2.43976">
        <ele>40.9</ele>
        <time>2023-05-17T14:25:34Z</time>
      </trkpt>
      <trkpt lat="49.96351" lon="2.43977">
        <ele>41</ele>
        <time>2023-05-17T14:25:35Z</time>
      </trkpt>
      <trkpt lat="49.9635" lon="2.43979">
        <ele>41</ele>
        <time>2023-05-17T14:25:36Z</time>
      </trkpt>
      <trkpt lat="49.9635" lon="2.4398">
        <ele>41</ele>
        <time>2023-05-17T14:25:37Z</time>
      </trkpt>
      <trkpt lat="49.9635" lon="2.43982">
        <ele>41</ele>
        <time>2023-05-17T14:25:38Z</time>
      </trkpt>
      <trkpt lat="49.96349" lon="2.43983">
        <ele>41</ele>
        <time>2023-05-17T14:25:39Z</time>
      </trkpt>
      <trkpt lat="49.96348" lon="2.43984">
        <ele>41</ele>
        <time>2023-05-17T14:25:41Z</time>
      </trkpt>
      <trkpt lat="49.96347" lon="2.43986">
        <ele>41</ele>
        <time>2023-05-17T14:25:42Z</time>
      </trkpt>
      <trkpt lat="49.96347" lon="2.43987">
        <ele>41</ele>
        <time>2023-05-17T14:25:43Z</time>
      </trkpt>
      <trkpt lat="49.96346" lon="2.43989">
        <ele>41</ele>
        <time>2023-05-17T14:25:44Z</time>
      </trkpt>
      <trkpt lat="49.96346" lon="2.43991">
        <ele>41</ele>
        <time>2023-05-17T14:25:45Z</time>
      </trkpt>
      <trkpt lat="49.96346" lon="2.43992">
        <ele>41.1</ele>
        <time>2023-05-17T14:25:47Z</time>
      </trkpt>
      <trkpt lat="49.96347" lon="2.43993">
        <ele>41.1</ele>
        <time>2023-05-17T14:25:48Z</time>
      </trkpt>
      <trkpt lat="49.96347" lon="2.43994">
        <ele>41.1</ele>
        <time>2023-05-17T14:25:49Z</time>
      </trkpt>
      <trkpt lat="49.96348" lon="2.43995">
        <ele>41.1</ele>
        <time>2023-05-17T14:25:50Z</time>
      </trkpt>
      <trkpt lat="49.96348" lon="2.43996">
        <ele>41.1</ele>
        <time>2023-05-17T14:25:51Z</time>
      </trkpt>
      <trkpt lat="49.9635" lon="2.43995">
        <ele>41.1</ele>
        <time>2023-05-17T14:25:52Z</time>
      </trkpt>
      <trkpt lat="49.96351" lon="2.43994">
        <ele>41.1</ele>
        <time>2023-05-17T14:25:53Z</time>
      </trkpt>
      <trkpt lat="49.96353" lon="2.43992">
        <ele>41.2</ele>
        <time>2023-05-17T14:25:55Z</time>
      </trkpt>
      <trkpt lat="49.96354" lon="2.4399">
        <ele>41.2</ele>
        <time>2023-05-17T14:25:56Z</time>
      </trkpt>
      <trkpt lat="49.96354" lon="2.43988">
        <ele>41.2</ele>
        <time>2023-05-17T14:25:58Z</time>
      </trkpt>
      <trkpt lat="49.96354" lon="2.43987">
        <ele>41.2</ele>
        <time>2023-05-17T14:25:59Z</time>
      </trkpt>
      <trkpt lat="49.96354" lon="2.43987">
        <ele>41.2</ele>
        <time>2023-05-17T14:26:01Z</time>
      </trkpt>
      <trkpt lat="49.96353" lon="2.43986">
        <ele>41.2</ele>
        <time>2023-05-17T14:26:02Z</time>
      </trkpt>
      <trkpt lat="49.96353" lon="2.43986">
        <ele>41.2</ele>
        <time>2023-05-17T14:26:04Z</time>
      </trkpt>
      <trkpt lat="49.96353" lon="2.43986">
        <ele>41.2</ele>
        <time>2023-05-17T14:26:05Z</time>
      </trkpt>
      <trkpt lat="49.96353" lon="2.43986">
        <ele>41.2</ele>
        <time>2023-05-17T14:26:07Z</time>
      </trkpt>
      <trkpt lat="49.96353" lon="2.43986">
        <ele>41.2</ele>
        <time>2023-05-17T14:26:08Z</time>
      </trkpt>
      <trkpt lat="49.96352" lon="2.43991">
        <ele>41.3</ele>
        <time>2023-05-17T14:26:51Z</time>
      </trkpt>
      <trkpt lat="49.96352" lon="2.43991">
        <ele>41.3</ele>
        <time>2023-05-17T14:26:52Z</time>
      </trkpt>
      <trkpt lat="49.96352" lon="2.43991">
        <ele>41.3</ele>
        <time>2023-05-17T14:26:53Z</time>
      </trkpt>
      <trkpt lat="49.96352" lon="2.43991">
        <ele>41.3</ele>
        <time>2023-05-17T14:26:54Z</time>
      </trkpt>
      <trkpt lat="49.96352" lon="2.43991">
        <ele>41.3</ele>
        <time>2023-05-17T14:26:55Z</time>
      </trkpt>
      <trkpt lat="49.96352" lon="2.43992">
        <ele>41.3</ele>
        <time>2023-05-17T14:26:56Z</time>
      </trkpt>
      <trkpt lat="49.96352" lon="2.43992">
        <ele>41.3</ele>
        <time>2023-05-17T14:26:57Z</time>
      </trkpt>
      <trkpt lat="49.96352" lon="2.43992">
        <ele>41.3</ele>
        <time>2023-05-17T14:26:58Z</time>
      </trkpt>
      <trkpt lat="49.96352" lon="2.43992">
        <ele>41.3</ele>
        <time>2023-05-17T14:26:59Z</time>
      </trkpt>
      <trkpt lat="49.96352" lon="2.43992">
        <ele>41.3</ele>
        <time>2023-05-17T14:27:00Z</time>
      </trkpt>
      <trkpt lat="49.96352" lon="2.43992">
        <ele>41.3</ele>
        <time>2023-05-17T14:27:01Z</time>
      </trkpt>
      <trkpt lat="49.96352" lon="2.43992">
        <ele>41.3</ele>
        <time>2023-05-17T14:27:02Z</time>
      </trkpt>
      <trkpt lat="49.96352" lon="2.43992">
        <ele>41.3</ele>
        <time>2023-05-17T14:27:03Z</time>
      </trkpt>
      <trkpt lat="49.96352" lon="2.43992">
        <ele>41.3</ele>
        <time>2023-05-17T14:27:04Z</time>
      </trkpt>
      <trkpt lat="49.96352" lon="2.43986">
        <ele>41.4</ele>
        <time>2023-05-17T14:31:05Z</time>
      </trkpt>
      <trkpt lat="49.96353" lon="2.43985">
        <ele>41.4</ele>
        <time>2023-05-17T14:31:06Z</time>
      </trkpt>
      <trkpt lat="49.96354" lon="2.43984">
        <ele>41.4</ele>
        <time>2023-05-17T14:31:08Z</time>
      </trkpt>
      <trkpt lat="49.96355" lon="2.43985">
        <ele>41.4</ele>
        <time>2023-05-17T14:31:09Z</time>
      </trkpt>
      <trkpt lat="49.96356" lon="2.43987">
        <ele>41.5</ele>
        <time>2023-05-17T14:31:11Z</time>
      </trkpt>
      <trkpt lat="49.96356" lon="2.43987">
        <ele>41.5</ele>
        <time>2023-05-17T14:31:12Z</time>
      </trkpt>
      <trkpt lat="49.96355" lon="2.43988">
        <ele>41.5</ele>
        <time>2023-05-17T14:31:14Z</time>
      </trkpt>
      <trkpt lat="49.96355" lon="2.43988">
        <ele>41.5</ele>
        <time>2023-05-17T14:31:15Z</time>
      </trkpt>
      <trkpt lat="49.96355" lon="2.43988">
        <ele>41.5</ele>
        <time>2023-05-17T14:31:17Z</time>
      </trkpt>
      <trkpt lat="49.96355" lon="2.43988">
        <ele>41.5</ele>
        <time>2023-05-17T14:31:18Z</time>
      </trkpt>
      <trkpt lat="49.96355" lon="2.43988">
        <ele>41.5</ele>
        <time>2023-05-17T14:31:20Z</time>
      </trkpt>
      <trkpt lat="49.96355" lon="2.43988">
        <ele>41.5</ele>
        <time>2023-05-17T14:31:21Z</time>
      </trkpt>
      <trkpt lat="49.96355" lon="2.43988">
        <ele>41.5</ele>
        <time>2023-05-17T14:31:23Z</time>
      </trkpt>
      <trkpt lat="49.96359" lon="2.43986">
        <ele>41.6</ele>
        <time>2023-05-17T14:31:44Z</time>
      </trkpt>
      <trkpt lat="49.96359" lon="2.43986">
        <ele>41.6</ele>
        <time>2023-05-17T14:31:45Z</time>
      </trkpt>
      <trkpt lat="49.9636" lon="2.43986">
        <ele>41.6</ele>
        <time>2023-05-17T14:31:46Z</time>
      </trkpt>
      <trkpt lat="49.9636" lon="2.43985">
        <ele>41.6</ele>
        <time>2023-05-17T14:31:48Z</time>
      </trkpt>
      <trkpt lat="49.9636" lon="2.43985">
        <ele>41.6</ele>
        <time>2023-05-17T14:31:49Z</time>
      </trkpt>
      <trkpt lat="49.9636" lon="2.43986">
        <ele>41.6</ele>
        <time>2023-05-17T14:31:50Z</time>
      </trkpt>
      <trkpt lat="49.9636" lon="2.43986">
        <ele>41.6</ele>
        <time>2023-05-17T14:31:52Z</time>
      </trkpt>
      <trkpt lat="49.9636" lon="2.43987">
        <ele>41.6</ele>
        <time>2023-05-17T14:31:53Z</time>
      </trkpt>
      <trkpt lat="49.96361" lon="2.43986">
        <ele>41.6</ele>
        <time>2023-05-17T14:31:55Z</time>
      </trkpt>
      <trkpt lat="49.96361" lon="2.43986">
        <ele>41.6</ele>
        <time>2023-05-17T14:31:56Z</time>
      </trkpt>
      <trkpt lat="49.96361" lon="2.43986">
        <ele>41.6</ele>
        <time>2023-05-17T14:31:57Z</time>
      </trkpt>
      <trkpt lat="49.96361" lon="2.43986">
        <ele>41.6</ele>
        <time>2023-05-17T14:31:59Z</time>
      </trkpt>
      <trkpt lat="49.96361" lon="2.43986">
        <ele>41.7</ele>
        <time>2023-05-17T14:32:00Z</time>
      </trkpt>
      <trkpt lat="49.96361" lon="2.43986">
        <ele>41.7</ele>
        <time>2023-05-17T14:32:02Z</time>
      </trkpt>
      <trkpt lat="49.96361" lon="2.43986">
        <ele>41.7</ele>
        <time>2023-05-17T14:32:03Z</time>
      </trkpt>
      <trkpt lat="49.96363" lon="2.4399">
        <ele>41.7</ele>
        <time>2023-05-17T14:32:45Z</time>
      </trkpt>
      <trkpt lat="49.96363" lon="2.4399">
        <ele>41.7</ele>
        <time>2023-05-17T14:32:46Z</time>
      </trkpt>
      <trkpt lat="49.96364" lon="2.43991">
        <ele>41.8</ele>
        <time>2023-05-17T14:32:48Z</time>
      </trkpt>
      <trkpt lat="49.96364" lon="2.43991">
        <ele>41.8</ele>
        <time>2023-05-17T14:32:49Z</time>
      </trkpt>
      <trkpt lat="49.96364" lon="2.43992">
        <ele>41.8</ele>
        <time>2023-05-17T14:32:51Z</time>
      </trkpt>
      <trkpt lat="49.96364" lon="2.43992">
        <ele>41.8</ele>
        <time>2023-05-17T14:32:52Z</time>
      </trkpt>
      <trkpt lat="49.96364" lon="2.43992">
        <ele>41.8</ele>
        <time>2023-05-17T14:32:53Z</time>
      </trkpt>
      <trkpt lat="49.96365" lon="2.43992">
        <ele>41.8</ele>
        <time>2023-05-17T14:32:54Z</time>
      </trkpt>
      <trkpt lat="49.96365" lon="2.43992">
        <ele>41.8</ele>
        <time>2023-05-17T14:32:55Z</time>
      </trkpt>
      <trkpt lat="49.96365" lon="2.43992">
        <ele>41.8</ele>
        <time>2023-05-17T14:32:56Z</time>
      </trkpt>
    </trkseg>
  </trk>
</gpx>